<?xml version="1.0" encoding="UTF-8" standalone="no" ?>
<gpx xmlns="http://www.topografix.com/GPX/1/1" xmlns:xsi="http://www.w3.org/2001/XMLSchema-instance" xsi:schemaLocation="http://www.topografix.com/GPX/1/1 http://www.topografix.com/GPX/1/1/gpx.xsd" version="1.1" creator="VisuGPX - https://www.visugpx.com">
  <metadata>
    <name>83 - M - Lorgues Berne </name>
    <desc><![CDATA[83 - M - Lorgues Berne : font Cougourde 
25-11-21]]></desc>
  </metadata>
  <trk>
    <name><![CDATA[Lorgues Berne font Cougourde 25-11-21]]></name>
    <desc><![CDATA[comment ...]]></desc>
    <extensions>
      <line xmlns="http://www.topografix.com/GPX/gpx_style/0/2">
        <width>4</width>
      </line>
    </extensions>
    <trkseg>
      <trkpt lat="43.50127" lon="6.37349">
        <ele>313</ele>
        <time>2021-11-24T12:40:22.000Z</time>
      </trkpt>
      <trkpt lat="43.50126" lon="6.37349">
        <ele>314</ele>
        <time>2021-11-24T12:40:23.000Z</time>
      </trkpt>
      <trkpt lat="43.50126" lon="6.37348">
        <ele>314</ele>
        <time>2021-11-24T12:40:24.000Z</time>
      </trkpt>
      <trkpt lat="43.50126" lon="6.37346">
        <ele>313</ele>
        <time>2021-11-24T12:40:25.000Z</time>
      </trkpt>
      <trkpt lat="43.50126" lon="6.37345">
        <ele>312</ele>
        <time>2021-11-24T12:40:26.000Z</time>
      </trkpt>
      <trkpt lat="43.50126" lon="6.37344">
        <ele>312</ele>
        <time>2021-11-24T12:40:27.000Z</time>
      </trkpt>
      <trkpt lat="43.50126" lon="6.37343">
        <ele>311</ele>
        <time>2021-11-24T12:40:28.000Z</time>
      </trkpt>
      <trkpt lat="43.50126" lon="6.37342">
        <ele>310</ele>
        <time>2021-11-24T12:40:29.000Z</time>
      </trkpt>
      <trkpt lat="43.50126" lon="6.37341">
        <ele>310</ele>
        <time>2021-11-24T12:40:30.000Z</time>
      </trkpt>
      <trkpt lat="43.50126" lon="6.37339">
        <ele>309</ele>
        <time>2021-11-24T12:40:31.000Z</time>
      </trkpt>
      <trkpt lat="43.50126" lon="6.37338">
        <ele>309</ele>
        <time>2021-11-24T12:40:32.000Z</time>
      </trkpt>
      <trkpt lat="43.50126" lon="6.37336">
        <ele>308</ele>
        <time>2021-11-24T12:40:33.000Z</time>
      </trkpt>
      <trkpt lat="43.50127" lon="6.37336">
        <ele>307</ele>
        <time>2021-11-24T12:40:34.000Z</time>
      </trkpt>
      <trkpt lat="43.50127" lon="6.37335">
        <ele>306</ele>
        <time>2021-11-24T12:40:35.000Z</time>
      </trkpt>
      <trkpt lat="43.50127" lon="6.37335">
        <ele>306</ele>
        <time>2021-11-24T12:40:36.000Z</time>
      </trkpt>
      <trkpt lat="43.50127" lon="6.37334">
        <ele>299</ele>
        <time>2021-11-24T12:40:37.000Z</time>
      </trkpt>
      <trkpt lat="43.50128" lon="6.37334">
        <ele>297</ele>
        <time>2021-11-24T12:40:38.000Z</time>
      </trkpt>
      <trkpt lat="43.50128" lon="6.37334">
        <ele>296</ele>
        <time>2021-11-24T12:40:39.000Z</time>
      </trkpt>
      <trkpt lat="43.50128" lon="6.37334">
        <ele>295</ele>
        <time>2021-11-24T12:40:40.000Z</time>
      </trkpt>
      <trkpt lat="43.50129" lon="6.37335">
        <ele>294</ele>
        <time>2021-11-24T12:40:41.000Z</time>
      </trkpt>
      <trkpt lat="43.5013" lon="6.37336">
        <ele>294</ele>
        <time>2021-11-24T12:40:42.000Z</time>
      </trkpt>
      <trkpt lat="43.50131" lon="6.37337">
        <ele>293</ele>
        <time>2021-11-24T12:40:43.000Z</time>
      </trkpt>
      <trkpt lat="43.50132" lon="6.37337">
        <ele>293</ele>
        <time>2021-11-24T12:40:44.000Z</time>
      </trkpt>
      <trkpt lat="43.50133" lon="6.37338">
        <ele>293</ele>
        <time>2021-11-24T12:40:45.000Z</time>
      </trkpt>
      <trkpt lat="43.50133" lon="6.37339">
        <ele>293</ele>
        <time>2021-11-24T12:40:46.000Z</time>
      </trkpt>
      <trkpt lat="43.50134" lon="6.37339">
        <ele>292</ele>
        <time>2021-11-24T12:40:47.000Z</time>
      </trkpt>
      <trkpt lat="43.50135" lon="6.3734">
        <ele>292</ele>
        <time>2021-11-24T12:40:48.000Z</time>
      </trkpt>
      <trkpt lat="43.50135" lon="6.3734">
        <ele>291</ele>
        <time>2021-11-24T12:40:49.000Z</time>
      </trkpt>
      <trkpt lat="43.50135" lon="6.3734">
        <ele>290</ele>
        <time>2021-11-24T12:40:50.000Z</time>
      </trkpt>
      <trkpt lat="43.50135" lon="6.37341">
        <ele>290</ele>
        <time>2021-11-24T12:40:51.000Z</time>
      </trkpt>
      <trkpt lat="43.50136" lon="6.37342">
        <ele>290</ele>
        <time>2021-11-24T12:40:52.000Z</time>
      </trkpt>
      <trkpt lat="43.50136" lon="6.37342">
        <ele>289</ele>
        <time>2021-11-24T12:40:53.000Z</time>
      </trkpt>
      <trkpt lat="43.50136" lon="6.37343">
        <ele>289</ele>
        <time>2021-11-24T12:40:54.000Z</time>
      </trkpt>
      <trkpt lat="43.50136" lon="6.37344">
        <ele>289</ele>
        <time>2021-11-24T12:40:55.000Z</time>
      </trkpt>
      <trkpt lat="43.50137" lon="6.37345">
        <ele>289</ele>
        <time>2021-11-24T12:40:56.000Z</time>
      </trkpt>
      <trkpt lat="43.50137" lon="6.37346">
        <ele>289</ele>
        <time>2021-11-24T12:40:57.000Z</time>
      </trkpt>
      <trkpt lat="43.50137" lon="6.37347">
        <ele>289</ele>
        <time>2021-11-24T12:40:58.000Z</time>
      </trkpt>
      <trkpt lat="43.50137" lon="6.37349">
        <ele>289</ele>
        <time>2021-11-24T12:40:59.000Z</time>
      </trkpt>
      <trkpt lat="43.50137" lon="6.3735">
        <ele>289</ele>
        <time>2021-11-24T12:41:00.000Z</time>
      </trkpt>
      <trkpt lat="43.50137" lon="6.37351">
        <ele>289</ele>
        <time>2021-11-24T12:41:01.000Z</time>
      </trkpt>
      <trkpt lat="43.50137" lon="6.37353">
        <ele>289</ele>
        <time>2021-11-24T12:41:02.000Z</time>
      </trkpt>
      <trkpt lat="43.50137" lon="6.37354">
        <ele>289</ele>
        <time>2021-11-24T12:41:03.000Z</time>
      </trkpt>
      <trkpt lat="43.50137" lon="6.37356">
        <ele>289</ele>
        <time>2021-11-24T12:41:04.000Z</time>
      </trkpt>
      <trkpt lat="43.50137" lon="6.37359">
        <ele>289</ele>
        <time>2021-11-24T12:41:05.000Z</time>
      </trkpt>
      <trkpt lat="43.50137" lon="6.37362">
        <ele>289</ele>
        <time>2021-11-24T12:41:06.000Z</time>
      </trkpt>
      <trkpt lat="43.50138" lon="6.37365">
        <ele>289</ele>
        <time>2021-11-24T12:41:07.000Z</time>
      </trkpt>
      <trkpt lat="43.50138" lon="6.37367">
        <ele>289</ele>
        <time>2021-11-24T12:41:08.000Z</time>
      </trkpt>
      <trkpt lat="43.50139" lon="6.37368">
        <ele>289</ele>
        <time>2021-11-24T12:41:09.000Z</time>
      </trkpt>
      <trkpt lat="43.50139" lon="6.37368">
        <ele>289</ele>
        <time>2021-11-24T12:41:10.000Z</time>
      </trkpt>
      <trkpt lat="43.50139" lon="6.37368">
        <ele>290</ele>
        <time>2021-11-24T12:41:11.000Z</time>
      </trkpt>
      <trkpt lat="43.50139" lon="6.37369">
        <ele>290</ele>
        <time>2021-11-24T12:41:12.000Z</time>
      </trkpt>
      <trkpt lat="43.5014" lon="6.3737">
        <ele>290</ele>
        <time>2021-11-24T12:41:13.000Z</time>
      </trkpt>
      <trkpt lat="43.50141" lon="6.37372">
        <ele>290</ele>
        <time>2021-11-24T12:41:14.000Z</time>
      </trkpt>
      <trkpt lat="43.50143" lon="6.37375">
        <ele>290</ele>
        <time>2021-11-24T12:41:15.000Z</time>
      </trkpt>
      <trkpt lat="43.50144" lon="6.37376">
        <ele>290</ele>
        <time>2021-11-24T12:41:16.000Z</time>
      </trkpt>
      <trkpt lat="43.50145" lon="6.37377">
        <ele>290</ele>
        <time>2021-11-24T12:41:17.000Z</time>
      </trkpt>
      <trkpt lat="43.50146" lon="6.37378">
        <ele>290</ele>
        <time>2021-11-24T12:41:18.000Z</time>
      </trkpt>
      <trkpt lat="43.50146" lon="6.37378">
        <ele>290</ele>
        <time>2021-11-24T12:41:19.000Z</time>
      </trkpt>
      <trkpt lat="43.50147" lon="6.37379">
        <ele>290</ele>
        <time>2021-11-24T12:41:20.000Z</time>
      </trkpt>
      <trkpt lat="43.50148" lon="6.3738">
        <ele>290</ele>
        <time>2021-11-24T12:41:21.000Z</time>
      </trkpt>
      <trkpt lat="43.50148" lon="6.3738">
        <ele>289</ele>
        <time>2021-11-24T12:41:22.000Z</time>
      </trkpt>
      <trkpt lat="43.5015" lon="6.37381">
        <ele>289</ele>
        <time>2021-11-24T12:41:23.000Z</time>
      </trkpt>
      <trkpt lat="43.50151" lon="6.37382">
        <ele>289</ele>
        <time>2021-11-24T12:41:24.000Z</time>
      </trkpt>
      <trkpt lat="43.50152" lon="6.37383">
        <ele>289</ele>
        <time>2021-11-24T12:41:25.000Z</time>
      </trkpt>
      <trkpt lat="43.50153" lon="6.37384">
        <ele>288</ele>
        <time>2021-11-24T12:41:26.000Z</time>
      </trkpt>
      <trkpt lat="43.50153" lon="6.37384">
        <ele>288</ele>
        <time>2021-11-24T12:41:27.000Z</time>
      </trkpt>
      <trkpt lat="43.50154" lon="6.37384">
        <ele>288</ele>
        <time>2021-11-24T12:41:28.000Z</time>
      </trkpt>
      <trkpt lat="43.50154" lon="6.37385">
        <ele>288</ele>
        <time>2021-11-24T12:41:29.000Z</time>
      </trkpt>
      <trkpt lat="43.50155" lon="6.37385">
        <ele>288</ele>
        <time>2021-11-24T12:41:30.000Z</time>
      </trkpt>
      <trkpt lat="43.50155" lon="6.37386">
        <ele>288</ele>
        <time>2021-11-24T12:41:31.000Z</time>
      </trkpt>
      <trkpt lat="43.50156" lon="6.37386">
        <ele>288</ele>
        <time>2021-11-24T12:41:32.000Z</time>
      </trkpt>
      <trkpt lat="43.50156" lon="6.37387">
        <ele>288</ele>
        <time>2021-11-24T12:41:33.000Z</time>
      </trkpt>
      <trkpt lat="43.50157" lon="6.37387">
        <ele>288</ele>
        <time>2021-11-24T12:41:34.000Z</time>
      </trkpt>
      <trkpt lat="43.50158" lon="6.37388">
        <ele>288</ele>
        <time>2021-11-24T12:41:35.000Z</time>
      </trkpt>
      <trkpt lat="43.50159" lon="6.37388">
        <ele>288</ele>
        <time>2021-11-24T12:41:36.000Z</time>
      </trkpt>
      <trkpt lat="43.50159" lon="6.37389">
        <ele>288</ele>
        <time>2021-11-24T12:41:37.000Z</time>
      </trkpt>
      <trkpt lat="43.5016" lon="6.37389">
        <ele>288</ele>
        <time>2021-11-24T12:41:38.000Z</time>
      </trkpt>
      <trkpt lat="43.5016" lon="6.37389">
        <ele>288</ele>
        <time>2021-11-24T12:41:39.000Z</time>
      </trkpt>
      <trkpt lat="43.5016" lon="6.37389">
        <ele>288</ele>
        <time>2021-11-24T12:41:40.000Z</time>
      </trkpt>
      <trkpt lat="43.5016" lon="6.37389">
        <ele>288</ele>
        <time>2021-11-24T12:41:41.000Z</time>
      </trkpt>
      <trkpt lat="43.5016" lon="6.3739">
        <ele>289</ele>
        <time>2021-11-24T12:41:42.000Z</time>
      </trkpt>
      <trkpt lat="43.5016" lon="6.3739">
        <ele>289</ele>
        <time>2021-11-24T12:41:43.000Z</time>
      </trkpt>
      <trkpt lat="43.50161" lon="6.3739">
        <ele>289</ele>
        <time>2021-11-24T12:41:44.000Z</time>
      </trkpt>
      <trkpt lat="43.50161" lon="6.3739">
        <ele>289</ele>
        <time>2021-11-24T12:41:45.000Z</time>
      </trkpt>
      <trkpt lat="43.50161" lon="6.3739">
        <ele>289</ele>
        <time>2021-11-24T12:41:46.000Z</time>
      </trkpt>
      <trkpt lat="43.50161" lon="6.3739">
        <ele>289</ele>
        <time>2021-11-24T12:41:47.000Z</time>
      </trkpt>
      <trkpt lat="43.50161" lon="6.3739">
        <ele>289</ele>
        <time>2021-11-24T12:41:48.000Z</time>
      </trkpt>
      <trkpt lat="43.50161" lon="6.3739">
        <ele>289</ele>
        <time>2021-11-24T12:41:49.000Z</time>
      </trkpt>
      <trkpt lat="43.50161" lon="6.3739">
        <ele>289</ele>
        <time>2021-11-24T12:41:50.000Z</time>
      </trkpt>
      <trkpt lat="43.50162" lon="6.37391">
        <ele>289</ele>
        <time>2021-11-24T12:41:51.000Z</time>
      </trkpt>
      <trkpt lat="43.50162" lon="6.37391">
        <ele>289</ele>
        <time>2021-11-24T12:41:52.000Z</time>
      </trkpt>
      <trkpt lat="43.50163" lon="6.37392">
        <ele>289</ele>
        <time>2021-11-24T12:41:53.000Z</time>
      </trkpt>
      <trkpt lat="43.50164" lon="6.37393">
        <ele>289</ele>
        <time>2021-11-24T12:41:54.000Z</time>
      </trkpt>
      <trkpt lat="43.50164" lon="6.37393">
        <ele>289</ele>
        <time>2021-11-24T12:41:55.000Z</time>
      </trkpt>
      <trkpt lat="43.50164" lon="6.37393">
        <ele>289</ele>
        <time>2021-11-24T12:41:56.000Z</time>
      </trkpt>
      <trkpt lat="43.50165" lon="6.37393">
        <ele>289</ele>
        <time>2021-11-24T12:41:57.000Z</time>
      </trkpt>
      <trkpt lat="43.50165" lon="6.37394">
        <ele>289</ele>
        <time>2021-11-24T12:41:58.000Z</time>
      </trkpt>
      <trkpt lat="43.50165" lon="6.37394">
        <ele>289</ele>
        <time>2021-11-24T12:41:59.000Z</time>
      </trkpt>
      <trkpt lat="43.50165" lon="6.37394">
        <ele>289</ele>
        <time>2021-11-24T12:42:00.000Z</time>
      </trkpt>
      <trkpt lat="43.50165" lon="6.37394">
        <ele>289</ele>
        <time>2021-11-24T12:42:01.000Z</time>
      </trkpt>
      <trkpt lat="43.50166" lon="6.37395">
        <ele>289</ele>
        <time>2021-11-24T12:42:02.000Z</time>
      </trkpt>
      <trkpt lat="43.50167" lon="6.37395">
        <ele>289</ele>
        <time>2021-11-24T12:42:03.000Z</time>
      </trkpt>
      <trkpt lat="43.50167" lon="6.37396">
        <ele>289</ele>
        <time>2021-11-24T12:42:04.000Z</time>
      </trkpt>
      <trkpt lat="43.50168" lon="6.37397">
        <ele>289</ele>
        <time>2021-11-24T12:42:05.000Z</time>
      </trkpt>
      <trkpt lat="43.50169" lon="6.37398">
        <ele>289</ele>
        <time>2021-11-24T12:42:06.000Z</time>
      </trkpt>
      <trkpt lat="43.5017" lon="6.37399">
        <ele>290</ele>
        <time>2021-11-24T12:42:07.000Z</time>
      </trkpt>
      <trkpt lat="43.5017" lon="6.37399">
        <ele>290</ele>
        <time>2021-11-24T12:42:08.000Z</time>
      </trkpt>
      <trkpt lat="43.5017" lon="6.374">
        <ele>290</ele>
        <time>2021-11-24T12:42:09.000Z</time>
      </trkpt>
      <trkpt lat="43.50171" lon="6.374">
        <ele>290</ele>
        <time>2021-11-24T12:42:10.000Z</time>
      </trkpt>
      <trkpt lat="43.50171" lon="6.374">
        <ele>290</ele>
        <time>2021-11-24T12:42:11.000Z</time>
      </trkpt>
      <trkpt lat="43.50171" lon="6.374">
        <ele>290</ele>
        <time>2021-11-24T12:42:12.000Z</time>
      </trkpt>
      <trkpt lat="43.50171" lon="6.37401">
        <ele>290</ele>
        <time>2021-11-24T12:42:13.000Z</time>
      </trkpt>
      <trkpt lat="43.50172" lon="6.37401">
        <ele>290</ele>
        <time>2021-11-24T12:42:14.000Z</time>
      </trkpt>
      <trkpt lat="43.50173" lon="6.37402">
        <ele>290</ele>
        <time>2021-11-24T12:42:15.000Z</time>
      </trkpt>
      <trkpt lat="43.50174" lon="6.37403">
        <ele>290</ele>
        <time>2021-11-24T12:42:16.000Z</time>
      </trkpt>
      <trkpt lat="43.50175" lon="6.37405">
        <ele>290</ele>
        <time>2021-11-24T12:42:17.000Z</time>
      </trkpt>
      <trkpt lat="43.50176" lon="6.37406">
        <ele>290</ele>
        <time>2021-11-24T12:42:18.000Z</time>
      </trkpt>
      <trkpt lat="43.50177" lon="6.37407">
        <ele>290</ele>
        <time>2021-11-24T12:42:19.000Z</time>
      </trkpt>
      <trkpt lat="43.50177" lon="6.37407">
        <ele>290</ele>
        <time>2021-11-24T12:42:20.000Z</time>
      </trkpt>
      <trkpt lat="43.50178" lon="6.37408">
        <ele>290</ele>
        <time>2021-11-24T12:42:21.000Z</time>
      </trkpt>
      <trkpt lat="43.50178" lon="6.37408">
        <ele>290</ele>
        <time>2021-11-24T12:42:22.000Z</time>
      </trkpt>
      <trkpt lat="43.50178" lon="6.37408">
        <ele>290</ele>
        <time>2021-11-24T12:42:23.000Z</time>
      </trkpt>
      <trkpt lat="43.50179" lon="6.37409">
        <ele>290</ele>
        <time>2021-11-24T12:42:24.000Z</time>
      </trkpt>
      <trkpt lat="43.5018" lon="6.3741">
        <ele>290</ele>
        <time>2021-11-24T12:42:25.000Z</time>
      </trkpt>
      <trkpt lat="43.50182" lon="6.37412">
        <ele>290</ele>
        <time>2021-11-24T12:42:26.000Z</time>
      </trkpt>
      <trkpt lat="43.50185" lon="6.37414">
        <ele>290</ele>
        <time>2021-11-24T12:42:27.000Z</time>
      </trkpt>
      <trkpt lat="43.50187" lon="6.37416">
        <ele>290</ele>
        <time>2021-11-24T12:42:28.000Z</time>
      </trkpt>
      <trkpt lat="43.50189" lon="6.37417">
        <ele>290</ele>
        <time>2021-11-24T12:42:29.000Z</time>
      </trkpt>
      <trkpt lat="43.5019" lon="6.37418">
        <ele>290</ele>
        <time>2021-11-24T12:42:30.000Z</time>
      </trkpt>
      <trkpt lat="43.50191" lon="6.37419">
        <ele>290</ele>
        <time>2021-11-24T12:42:31.000Z</time>
      </trkpt>
      <trkpt lat="43.50192" lon="6.3742">
        <ele>290</ele>
        <time>2021-11-24T12:42:32.000Z</time>
      </trkpt>
      <trkpt lat="43.50193" lon="6.3742">
        <ele>291</ele>
        <time>2021-11-24T12:42:33.000Z</time>
      </trkpt>
      <trkpt lat="43.50193" lon="6.37421">
        <ele>291</ele>
        <time>2021-11-24T12:42:34.000Z</time>
      </trkpt>
      <trkpt lat="43.50194" lon="6.37421">
        <ele>291</ele>
        <time>2021-11-24T12:42:35.000Z</time>
      </trkpt>
      <trkpt lat="43.50194" lon="6.37421">
        <ele>291</ele>
        <time>2021-11-24T12:42:36.000Z</time>
      </trkpt>
      <trkpt lat="43.50195" lon="6.37421">
        <ele>292</ele>
        <time>2021-11-24T12:42:37.000Z</time>
      </trkpt>
      <trkpt lat="43.50195" lon="6.37422">
        <ele>292</ele>
        <time>2021-11-24T12:42:38.000Z</time>
      </trkpt>
      <trkpt lat="43.50196" lon="6.37423">
        <ele>292</ele>
        <time>2021-11-24T12:42:39.000Z</time>
      </trkpt>
      <trkpt lat="43.50197" lon="6.37424">
        <ele>292</ele>
        <time>2021-11-24T12:42:40.000Z</time>
      </trkpt>
      <trkpt lat="43.50198" lon="6.37424">
        <ele>292</ele>
        <time>2021-11-24T12:42:41.000Z</time>
      </trkpt>
      <trkpt lat="43.50198" lon="6.37425">
        <ele>292</ele>
        <time>2021-11-24T12:42:42.000Z</time>
      </trkpt>
      <trkpt lat="43.50199" lon="6.37425">
        <ele>293</ele>
        <time>2021-11-24T12:42:43.000Z</time>
      </trkpt>
      <trkpt lat="43.502" lon="6.37425">
        <ele>293</ele>
        <time>2021-11-24T12:42:44.000Z</time>
      </trkpt>
      <trkpt lat="43.50202" lon="6.37426">
        <ele>293</ele>
        <time>2021-11-24T12:42:45.000Z</time>
      </trkpt>
      <trkpt lat="43.50204" lon="6.37427">
        <ele>294</ele>
        <time>2021-11-24T12:42:46.000Z</time>
      </trkpt>
      <trkpt lat="43.50206" lon="6.37428">
        <ele>294</ele>
        <time>2021-11-24T12:42:47.000Z</time>
      </trkpt>
      <trkpt lat="43.50207" lon="6.37429">
        <ele>294</ele>
        <time>2021-11-24T12:42:48.000Z</time>
      </trkpt>
      <trkpt lat="43.50207" lon="6.37429">
        <ele>294</ele>
        <time>2021-11-24T12:42:49.000Z</time>
      </trkpt>
      <trkpt lat="43.50208" lon="6.37429">
        <ele>294</ele>
        <time>2021-11-24T12:42:50.000Z</time>
      </trkpt>
      <trkpt lat="43.50208" lon="6.37429">
        <ele>295</ele>
        <time>2021-11-24T12:42:51.000Z</time>
      </trkpt>
      <trkpt lat="43.50209" lon="6.37429">
        <ele>295</ele>
        <time>2021-11-24T12:42:52.000Z</time>
      </trkpt>
      <trkpt lat="43.50209" lon="6.37429">
        <ele>295</ele>
        <time>2021-11-24T12:42:53.000Z</time>
      </trkpt>
      <trkpt lat="43.5021" lon="6.37429">
        <ele>295</ele>
        <time>2021-11-24T12:42:54.000Z</time>
      </trkpt>
      <trkpt lat="43.5021" lon="6.3743">
        <ele>295</ele>
        <time>2021-11-24T12:42:55.000Z</time>
      </trkpt>
      <trkpt lat="43.50211" lon="6.3743">
        <ele>295</ele>
        <time>2021-11-24T12:42:56.000Z</time>
      </trkpt>
      <trkpt lat="43.50212" lon="6.37431">
        <ele>295</ele>
        <time>2021-11-24T12:42:57.000Z</time>
      </trkpt>
      <trkpt lat="43.50212" lon="6.37431">
        <ele>295</ele>
        <time>2021-11-24T12:42:58.000Z</time>
      </trkpt>
      <trkpt lat="43.50213" lon="6.37431">
        <ele>296</ele>
        <time>2021-11-24T12:42:59.000Z</time>
      </trkpt>
      <trkpt lat="43.50213" lon="6.37432">
        <ele>296</ele>
        <time>2021-11-24T12:43:00.000Z</time>
      </trkpt>
      <trkpt lat="43.50214" lon="6.37432">
        <ele>296</ele>
        <time>2021-11-24T12:43:01.000Z</time>
      </trkpt>
      <trkpt lat="43.50214" lon="6.37432">
        <ele>296</ele>
        <time>2021-11-24T12:43:02.000Z</time>
      </trkpt>
      <trkpt lat="43.50215" lon="6.37432">
        <ele>296</ele>
        <time>2021-11-24T12:43:03.000Z</time>
      </trkpt>
      <trkpt lat="43.50215" lon="6.37432">
        <ele>296</ele>
        <time>2021-11-24T12:43:04.000Z</time>
      </trkpt>
      <trkpt lat="43.50215" lon="6.37432">
        <ele>296</ele>
        <time>2021-11-24T12:43:05.000Z</time>
      </trkpt>
      <trkpt lat="43.50216" lon="6.37432">
        <ele>296</ele>
        <time>2021-11-24T12:43:06.000Z</time>
      </trkpt>
      <trkpt lat="43.50216" lon="6.37432">
        <ele>296</ele>
        <time>2021-11-24T12:43:07.000Z</time>
      </trkpt>
      <trkpt lat="43.50216" lon="6.37432">
        <ele>296</ele>
        <time>2021-11-24T12:43:08.000Z</time>
      </trkpt>
      <trkpt lat="43.50216" lon="6.37432">
        <ele>296</ele>
        <time>2021-11-24T12:43:09.000Z</time>
      </trkpt>
      <trkpt lat="43.50216" lon="6.37432">
        <ele>296</ele>
        <time>2021-11-24T12:43:10.000Z</time>
      </trkpt>
      <trkpt lat="43.50216" lon="6.37432">
        <ele>296</ele>
        <time>2021-11-24T12:43:11.000Z</time>
      </trkpt>
      <trkpt lat="43.50217" lon="6.37432">
        <ele>296</ele>
        <time>2021-11-24T12:43:12.000Z</time>
      </trkpt>
      <trkpt lat="43.50217" lon="6.37432">
        <ele>296</ele>
        <time>2021-11-24T12:43:13.000Z</time>
      </trkpt>
      <trkpt lat="43.50217" lon="6.37432">
        <ele>296</ele>
        <time>2021-11-24T12:43:14.000Z</time>
      </trkpt>
      <trkpt lat="43.50217" lon="6.37432">
        <ele>296</ele>
        <time>2021-11-24T12:43:15.000Z</time>
      </trkpt>
      <trkpt lat="43.50218" lon="6.37433">
        <ele>296</ele>
        <time>2021-11-24T12:43:16.000Z</time>
      </trkpt>
      <trkpt lat="43.50219" lon="6.37433">
        <ele>296</ele>
        <time>2021-11-24T12:43:17.000Z</time>
      </trkpt>
      <trkpt lat="43.5022" lon="6.37434">
        <ele>296</ele>
        <time>2021-11-24T12:43:18.000Z</time>
      </trkpt>
      <trkpt lat="43.50221" lon="6.37434">
        <ele>296</ele>
        <time>2021-11-24T12:43:19.000Z</time>
      </trkpt>
      <trkpt lat="43.50222" lon="6.37434">
        <ele>296</ele>
        <time>2021-11-24T12:43:20.000Z</time>
      </trkpt>
      <trkpt lat="43.50223" lon="6.37435">
        <ele>296</ele>
        <time>2021-11-24T12:43:21.000Z</time>
      </trkpt>
      <trkpt lat="43.50224" lon="6.37435">
        <ele>296</ele>
        <time>2021-11-24T12:43:22.000Z</time>
      </trkpt>
      <trkpt lat="43.50225" lon="6.37435">
        <ele>295</ele>
        <time>2021-11-24T12:43:23.000Z</time>
      </trkpt>
      <trkpt lat="43.50226" lon="6.37436">
        <ele>295</ele>
        <time>2021-11-24T12:43:24.000Z</time>
      </trkpt>
      <trkpt lat="43.50227" lon="6.37436">
        <ele>295</ele>
        <time>2021-11-24T12:43:25.000Z</time>
      </trkpt>
      <trkpt lat="43.50229" lon="6.37437">
        <ele>295</ele>
        <time>2021-11-24T12:43:26.000Z</time>
      </trkpt>
      <trkpt lat="43.5023" lon="6.37437">
        <ele>295</ele>
        <time>2021-11-24T12:43:27.000Z</time>
      </trkpt>
      <trkpt lat="43.50231" lon="6.37438">
        <ele>295</ele>
        <time>2021-11-24T12:43:28.000Z</time>
      </trkpt>
      <trkpt lat="43.50232" lon="6.37438">
        <ele>295</ele>
        <time>2021-11-24T12:43:29.000Z</time>
      </trkpt>
      <trkpt lat="43.50235" lon="6.37439">
        <ele>295</ele>
        <time>2021-11-24T12:43:30.000Z</time>
      </trkpt>
      <trkpt lat="43.50238" lon="6.3744">
        <ele>295</ele>
        <time>2021-11-24T12:43:31.000Z</time>
      </trkpt>
      <trkpt lat="43.5024" lon="6.37441">
        <ele>294</ele>
        <time>2021-11-24T12:43:32.000Z</time>
      </trkpt>
      <trkpt lat="43.50242" lon="6.37442">
        <ele>294</ele>
        <time>2021-11-24T12:43:33.000Z</time>
      </trkpt>
      <trkpt lat="43.50243" lon="6.37442">
        <ele>294</ele>
        <time>2021-11-24T12:43:34.000Z</time>
      </trkpt>
      <trkpt lat="43.50244" lon="6.37443">
        <ele>294</ele>
        <time>2021-11-24T12:43:35.000Z</time>
      </trkpt>
      <trkpt lat="43.50245" lon="6.37443">
        <ele>294</ele>
        <time>2021-11-24T12:43:36.000Z</time>
      </trkpt>
      <trkpt lat="43.50246" lon="6.37443">
        <ele>294</ele>
        <time>2021-11-24T12:43:37.000Z</time>
      </trkpt>
      <trkpt lat="43.50247" lon="6.37443">
        <ele>294</ele>
        <time>2021-11-24T12:43:38.000Z</time>
      </trkpt>
      <trkpt lat="43.50249" lon="6.37443">
        <ele>294</ele>
        <time>2021-11-24T12:43:39.000Z</time>
      </trkpt>
      <trkpt lat="43.50252" lon="6.37443">
        <ele>294</ele>
        <time>2021-11-24T12:43:40.000Z</time>
      </trkpt>
      <trkpt lat="43.50254" lon="6.37444">
        <ele>294</ele>
        <time>2021-11-24T12:43:41.000Z</time>
      </trkpt>
      <trkpt lat="43.50257" lon="6.37444">
        <ele>295</ele>
        <time>2021-11-24T12:43:42.000Z</time>
      </trkpt>
      <trkpt lat="43.50259" lon="6.37445">
        <ele>295</ele>
        <time>2021-11-24T12:43:43.000Z</time>
      </trkpt>
      <trkpt lat="43.50261" lon="6.37445">
        <ele>295</ele>
        <time>2021-11-24T12:43:44.000Z</time>
      </trkpt>
      <trkpt lat="43.50262" lon="6.37445">
        <ele>295</ele>
        <time>2021-11-24T12:43:45.000Z</time>
      </trkpt>
      <trkpt lat="43.50264" lon="6.37445">
        <ele>295</ele>
        <time>2021-11-24T12:43:46.000Z</time>
      </trkpt>
      <trkpt lat="43.50266" lon="6.37446">
        <ele>296</ele>
        <time>2021-11-24T12:43:47.000Z</time>
      </trkpt>
      <trkpt lat="43.50268" lon="6.37446">
        <ele>296</ele>
        <time>2021-11-24T12:43:48.000Z</time>
      </trkpt>
      <trkpt lat="43.50269" lon="6.37447">
        <ele>296</ele>
        <time>2021-11-24T12:43:49.000Z</time>
      </trkpt>
      <trkpt lat="43.5027" lon="6.37447">
        <ele>296</ele>
        <time>2021-11-24T12:43:50.000Z</time>
      </trkpt>
      <trkpt lat="43.5027" lon="6.37447">
        <ele>296</ele>
        <time>2021-11-24T12:43:51.000Z</time>
      </trkpt>
      <trkpt lat="43.50271" lon="6.37447">
        <ele>296</ele>
        <time>2021-11-24T12:43:52.000Z</time>
      </trkpt>
      <trkpt lat="43.50271" lon="6.37447">
        <ele>296</ele>
        <time>2021-11-24T12:43:53.000Z</time>
      </trkpt>
      <trkpt lat="43.50271" lon="6.37447">
        <ele>296</ele>
        <time>2021-11-24T12:43:54.000Z</time>
      </trkpt>
      <trkpt lat="43.50272" lon="6.37447">
        <ele>296</ele>
        <time>2021-11-24T12:43:55.000Z</time>
      </trkpt>
      <trkpt lat="43.50272" lon="6.37448">
        <ele>296</ele>
        <time>2021-11-24T12:43:56.000Z</time>
      </trkpt>
      <trkpt lat="43.50273" lon="6.37448">
        <ele>296</ele>
        <time>2021-11-24T12:43:57.000Z</time>
      </trkpt>
      <trkpt lat="43.50274" lon="6.37448">
        <ele>296</ele>
        <time>2021-11-24T12:43:58.000Z</time>
      </trkpt>
      <trkpt lat="43.50275" lon="6.37448">
        <ele>296</ele>
        <time>2021-11-24T12:43:59.000Z</time>
      </trkpt>
      <trkpt lat="43.50276" lon="6.37449">
        <ele>297</ele>
        <time>2021-11-24T12:44:00.000Z</time>
      </trkpt>
      <trkpt lat="43.50277" lon="6.37449">
        <ele>297</ele>
        <time>2021-11-24T12:44:01.000Z</time>
      </trkpt>
      <trkpt lat="43.50279" lon="6.37449">
        <ele>297</ele>
        <time>2021-11-24T12:44:02.000Z</time>
      </trkpt>
      <trkpt lat="43.5028" lon="6.3745">
        <ele>297</ele>
        <time>2021-11-24T12:44:03.000Z</time>
      </trkpt>
      <trkpt lat="43.50281" lon="6.3745">
        <ele>298</ele>
        <time>2021-11-24T12:44:04.000Z</time>
      </trkpt>
      <trkpt lat="43.50283" lon="6.3745">
        <ele>298</ele>
        <time>2021-11-24T12:44:05.000Z</time>
      </trkpt>
      <trkpt lat="43.50285" lon="6.37451">
        <ele>299</ele>
        <time>2021-11-24T12:44:06.000Z</time>
      </trkpt>
      <trkpt lat="43.50286" lon="6.37452">
        <ele>299</ele>
        <time>2021-11-24T12:44:07.000Z</time>
      </trkpt>
      <trkpt lat="43.50288" lon="6.37452">
        <ele>300</ele>
        <time>2021-11-24T12:44:08.000Z</time>
      </trkpt>
      <trkpt lat="43.50289" lon="6.37452">
        <ele>300</ele>
        <time>2021-11-24T12:44:09.000Z</time>
      </trkpt>
      <trkpt lat="43.5029" lon="6.37453">
        <ele>300</ele>
        <time>2021-11-24T12:44:10.000Z</time>
      </trkpt>
      <trkpt lat="43.50292" lon="6.37453">
        <ele>300</ele>
        <time>2021-11-24T12:44:11.000Z</time>
      </trkpt>
      <trkpt lat="43.50295" lon="6.37454">
        <ele>300</ele>
        <time>2021-11-24T12:44:12.000Z</time>
      </trkpt>
      <trkpt lat="43.50297" lon="6.37455">
        <ele>300</ele>
        <time>2021-11-24T12:44:13.000Z</time>
      </trkpt>
      <trkpt lat="43.50298" lon="6.37455">
        <ele>300</ele>
        <time>2021-11-24T12:44:14.000Z</time>
      </trkpt>
      <trkpt lat="43.50299" lon="6.37455">
        <ele>300</ele>
        <time>2021-11-24T12:44:15.000Z</time>
      </trkpt>
      <trkpt lat="43.50299" lon="6.37455">
        <ele>300</ele>
        <time>2021-11-24T12:44:16.000Z</time>
      </trkpt>
      <trkpt lat="43.50299" lon="6.37455">
        <ele>300</ele>
        <time>2021-11-24T12:44:17.000Z</time>
      </trkpt>
      <trkpt lat="43.503" lon="6.37455">
        <ele>300</ele>
        <time>2021-11-24T12:44:18.000Z</time>
      </trkpt>
      <trkpt lat="43.50301" lon="6.37456">
        <ele>301</ele>
        <time>2021-11-24T12:44:19.000Z</time>
      </trkpt>
      <trkpt lat="43.50303" lon="6.37456">
        <ele>301</ele>
        <time>2021-11-24T12:44:20.000Z</time>
      </trkpt>
      <trkpt lat="43.50305" lon="6.37458">
        <ele>301</ele>
        <time>2021-11-24T12:44:21.000Z</time>
      </trkpt>
      <trkpt lat="43.50307" lon="6.37458">
        <ele>301</ele>
        <time>2021-11-24T12:44:22.000Z</time>
      </trkpt>
      <trkpt lat="43.50309" lon="6.37459">
        <ele>301</ele>
        <time>2021-11-24T12:44:23.000Z</time>
      </trkpt>
      <trkpt lat="43.5031" lon="6.37459">
        <ele>301</ele>
        <time>2021-11-24T12:44:24.000Z</time>
      </trkpt>
      <trkpt lat="43.50311" lon="6.37459">
        <ele>301</ele>
        <time>2021-11-24T12:44:25.000Z</time>
      </trkpt>
      <trkpt lat="43.50313" lon="6.3746">
        <ele>301</ele>
        <time>2021-11-24T12:44:26.000Z</time>
      </trkpt>
      <trkpt lat="43.50314" lon="6.3746">
        <ele>301</ele>
        <time>2021-11-24T12:44:27.000Z</time>
      </trkpt>
      <trkpt lat="43.50315" lon="6.3746">
        <ele>301</ele>
        <time>2021-11-24T12:44:28.000Z</time>
      </trkpt>
      <trkpt lat="43.50315" lon="6.3746">
        <ele>302</ele>
        <time>2021-11-24T12:44:29.000Z</time>
      </trkpt>
      <trkpt lat="43.50316" lon="6.3746">
        <ele>302</ele>
        <time>2021-11-24T12:44:30.000Z</time>
      </trkpt>
      <trkpt lat="43.50316" lon="6.37461">
        <ele>302</ele>
        <time>2021-11-24T12:44:31.000Z</time>
      </trkpt>
      <trkpt lat="43.50317" lon="6.37461">
        <ele>301</ele>
        <time>2021-11-24T12:44:32.000Z</time>
      </trkpt>
      <trkpt lat="43.50317" lon="6.37461">
        <ele>301</ele>
        <time>2021-11-24T12:44:33.000Z</time>
      </trkpt>
      <trkpt lat="43.50318" lon="6.37461">
        <ele>301</ele>
        <time>2021-11-24T12:44:34.000Z</time>
      </trkpt>
      <trkpt lat="43.50319" lon="6.37461">
        <ele>301</ele>
        <time>2021-11-24T12:44:35.000Z</time>
      </trkpt>
      <trkpt lat="43.5032" lon="6.37462">
        <ele>301</ele>
        <time>2021-11-24T12:44:36.000Z</time>
      </trkpt>
      <trkpt lat="43.50323" lon="6.37462">
        <ele>301</ele>
        <time>2021-11-24T12:44:37.000Z</time>
      </trkpt>
      <trkpt lat="43.50325" lon="6.37463">
        <ele>302</ele>
        <time>2021-11-24T12:44:38.000Z</time>
      </trkpt>
      <trkpt lat="43.50327" lon="6.37463">
        <ele>302</ele>
        <time>2021-11-24T12:44:39.000Z</time>
      </trkpt>
      <trkpt lat="43.50328" lon="6.37463">
        <ele>302</ele>
        <time>2021-11-24T12:44:40.000Z</time>
      </trkpt>
      <trkpt lat="43.5033" lon="6.37464">
        <ele>302</ele>
        <time>2021-11-24T12:44:41.000Z</time>
      </trkpt>
      <trkpt lat="43.50331" lon="6.37464">
        <ele>302</ele>
        <time>2021-11-24T12:44:42.000Z</time>
      </trkpt>
      <trkpt lat="43.50332" lon="6.37464">
        <ele>302</ele>
        <time>2021-11-24T12:44:43.000Z</time>
      </trkpt>
      <trkpt lat="43.50333" lon="6.37464">
        <ele>302</ele>
        <time>2021-11-24T12:44:44.000Z</time>
      </trkpt>
      <trkpt lat="43.50334" lon="6.37465">
        <ele>302</ele>
        <time>2021-11-24T12:44:45.000Z</time>
      </trkpt>
      <trkpt lat="43.50334" lon="6.37465">
        <ele>302</ele>
        <time>2021-11-24T12:44:46.000Z</time>
      </trkpt>
      <trkpt lat="43.50334" lon="6.37465">
        <ele>302</ele>
        <time>2021-11-24T12:44:47.000Z</time>
      </trkpt>
      <trkpt lat="43.50335" lon="6.37465">
        <ele>302</ele>
        <time>2021-11-24T12:44:48.000Z</time>
      </trkpt>
      <trkpt lat="43.50335" lon="6.37465">
        <ele>302</ele>
        <time>2021-11-24T12:44:49.000Z</time>
      </trkpt>
      <trkpt lat="43.50336" lon="6.37465">
        <ele>302</ele>
        <time>2021-11-24T12:44:50.000Z</time>
      </trkpt>
      <trkpt lat="43.50337" lon="6.37466">
        <ele>302</ele>
        <time>2021-11-24T12:44:51.000Z</time>
      </trkpt>
      <trkpt lat="43.50337" lon="6.37466">
        <ele>302</ele>
        <time>2021-11-24T12:44:52.000Z</time>
      </trkpt>
      <trkpt lat="43.50338" lon="6.37466">
        <ele>302</ele>
        <time>2021-11-24T12:44:53.000Z</time>
      </trkpt>
      <trkpt lat="43.50339" lon="6.37466">
        <ele>302</ele>
        <time>2021-11-24T12:44:54.000Z</time>
      </trkpt>
      <trkpt lat="43.5034" lon="6.37467">
        <ele>302</ele>
        <time>2021-11-24T12:44:55.000Z</time>
      </trkpt>
      <trkpt lat="43.50341" lon="6.37467">
        <ele>302</ele>
        <time>2021-11-24T12:44:56.000Z</time>
      </trkpt>
      <trkpt lat="43.50342" lon="6.37467">
        <ele>302</ele>
        <time>2021-11-24T12:44:57.000Z</time>
      </trkpt>
      <trkpt lat="43.50343" lon="6.37468">
        <ele>302</ele>
        <time>2021-11-24T12:44:58.000Z</time>
      </trkpt>
      <trkpt lat="43.50345" lon="6.37468">
        <ele>302</ele>
        <time>2021-11-24T12:44:59.000Z</time>
      </trkpt>
      <trkpt lat="43.50348" lon="6.37469">
        <ele>302</ele>
        <time>2021-11-24T12:45:00.000Z</time>
      </trkpt>
      <trkpt lat="43.5035" lon="6.3747">
        <ele>303</ele>
        <time>2021-11-24T12:45:01.000Z</time>
      </trkpt>
      <trkpt lat="43.50351" lon="6.3747">
        <ele>303</ele>
        <time>2021-11-24T12:45:02.000Z</time>
      </trkpt>
      <trkpt lat="43.50351" lon="6.37471">
        <ele>303</ele>
        <time>2021-11-24T12:45:03.000Z</time>
      </trkpt>
      <trkpt lat="43.50352" lon="6.37471">
        <ele>303</ele>
        <time>2021-11-24T12:45:04.000Z</time>
      </trkpt>
      <trkpt lat="43.50353" lon="6.37471">
        <ele>303</ele>
        <time>2021-11-24T12:45:05.000Z</time>
      </trkpt>
      <trkpt lat="43.50354" lon="6.37472">
        <ele>304</ele>
        <time>2021-11-24T12:45:06.000Z</time>
      </trkpt>
      <trkpt lat="43.50355" lon="6.37472">
        <ele>304</ele>
        <time>2021-11-24T12:45:07.000Z</time>
      </trkpt>
      <trkpt lat="43.50356" lon="6.37473">
        <ele>304</ele>
        <time>2021-11-24T12:45:08.000Z</time>
      </trkpt>
      <trkpt lat="43.50357" lon="6.37473">
        <ele>304</ele>
        <time>2021-11-24T12:45:09.000Z</time>
      </trkpt>
      <trkpt lat="43.50358" lon="6.37474">
        <ele>304</ele>
        <time>2021-11-24T12:45:10.000Z</time>
      </trkpt>
      <trkpt lat="43.50359" lon="6.37474">
        <ele>305</ele>
        <time>2021-11-24T12:45:11.000Z</time>
      </trkpt>
      <trkpt lat="43.5036" lon="6.37475">
        <ele>304</ele>
        <time>2021-11-24T12:45:12.000Z</time>
      </trkpt>
      <trkpt lat="43.50362" lon="6.37475">
        <ele>304</ele>
        <time>2021-11-24T12:45:13.000Z</time>
      </trkpt>
      <trkpt lat="43.50363" lon="6.37476">
        <ele>304</ele>
        <time>2021-11-24T12:45:14.000Z</time>
      </trkpt>
      <trkpt lat="43.50364" lon="6.37476">
        <ele>304</ele>
        <time>2021-11-24T12:45:15.000Z</time>
      </trkpt>
      <trkpt lat="43.50365" lon="6.37477">
        <ele>304</ele>
        <time>2021-11-24T12:45:16.000Z</time>
      </trkpt>
      <trkpt lat="43.50366" lon="6.37477">
        <ele>305</ele>
        <time>2021-11-24T12:45:17.000Z</time>
      </trkpt>
      <trkpt lat="43.50367" lon="6.37477">
        <ele>305</ele>
        <time>2021-11-24T12:45:18.000Z</time>
      </trkpt>
      <trkpt lat="43.50367" lon="6.37477">
        <ele>305</ele>
        <time>2021-11-24T12:45:19.000Z</time>
      </trkpt>
      <trkpt lat="43.50367" lon="6.37477">
        <ele>305</ele>
        <time>2021-11-24T12:45:20.000Z</time>
      </trkpt>
      <trkpt lat="43.50368" lon="6.37477">
        <ele>305</ele>
        <time>2021-11-24T12:45:21.000Z</time>
      </trkpt>
      <trkpt lat="43.50368" lon="6.37478">
        <ele>305</ele>
        <time>2021-11-24T12:45:22.000Z</time>
      </trkpt>
      <trkpt lat="43.50368" lon="6.37478">
        <ele>305</ele>
        <time>2021-11-24T12:45:23.000Z</time>
      </trkpt>
      <trkpt lat="43.50369" lon="6.37478">
        <ele>305</ele>
        <time>2021-11-24T12:45:24.000Z</time>
      </trkpt>
      <trkpt lat="43.50369" lon="6.37478">
        <ele>305</ele>
        <time>2021-11-24T12:45:25.000Z</time>
      </trkpt>
      <trkpt lat="43.50369" lon="6.37478">
        <ele>305</ele>
        <time>2021-11-24T12:45:26.000Z</time>
      </trkpt>
      <trkpt lat="43.5037" lon="6.37478">
        <ele>305</ele>
        <time>2021-11-24T12:45:27.000Z</time>
      </trkpt>
      <trkpt lat="43.5037" lon="6.37478">
        <ele>305</ele>
        <time>2021-11-24T12:45:28.000Z</time>
      </trkpt>
      <trkpt lat="43.5037" lon="6.37478">
        <ele>305</ele>
        <time>2021-11-24T12:45:29.000Z</time>
      </trkpt>
      <trkpt lat="43.5037" lon="6.37478">
        <ele>305</ele>
        <time>2021-11-24T12:45:30.000Z</time>
      </trkpt>
      <trkpt lat="43.50371" lon="6.37478">
        <ele>305</ele>
        <time>2021-11-24T12:45:31.000Z</time>
      </trkpt>
      <trkpt lat="43.50371" lon="6.37478">
        <ele>305</ele>
        <time>2021-11-24T12:45:32.000Z</time>
      </trkpt>
      <trkpt lat="43.50371" lon="6.37479">
        <ele>305</ele>
        <time>2021-11-24T12:45:33.000Z</time>
      </trkpt>
      <trkpt lat="43.50372" lon="6.37479">
        <ele>305</ele>
        <time>2021-11-24T12:45:34.000Z</time>
      </trkpt>
      <trkpt lat="43.50372" lon="6.37479">
        <ele>305</ele>
        <time>2021-11-24T12:45:35.000Z</time>
      </trkpt>
      <trkpt lat="43.50372" lon="6.3748">
        <ele>305</ele>
        <time>2021-11-24T12:45:36.000Z</time>
      </trkpt>
      <trkpt lat="43.50373" lon="6.3748">
        <ele>305</ele>
        <time>2021-11-24T12:45:37.000Z</time>
      </trkpt>
      <trkpt lat="43.50373" lon="6.3748">
        <ele>305</ele>
        <time>2021-11-24T12:45:38.000Z</time>
      </trkpt>
      <trkpt lat="43.50373" lon="6.3748">
        <ele>305</ele>
        <time>2021-11-24T12:45:39.000Z</time>
      </trkpt>
      <trkpt lat="43.50373" lon="6.3748">
        <ele>305</ele>
        <time>2021-11-24T12:45:40.000Z</time>
      </trkpt>
      <trkpt lat="43.50373" lon="6.3748">
        <ele>305</ele>
        <time>2021-11-24T12:45:41.000Z</time>
      </trkpt>
      <trkpt lat="43.50374" lon="6.3748">
        <ele>305</ele>
        <time>2021-11-24T12:45:42.000Z</time>
      </trkpt>
      <trkpt lat="43.50374" lon="6.3748">
        <ele>305</ele>
        <time>2021-11-24T12:45:43.000Z</time>
      </trkpt>
      <trkpt lat="43.50374" lon="6.3748">
        <ele>305</ele>
        <time>2021-11-24T12:45:44.000Z</time>
      </trkpt>
      <trkpt lat="43.50374" lon="6.3748">
        <ele>305</ele>
        <time>2021-11-24T12:45:45.000Z</time>
      </trkpt>
      <trkpt lat="43.50374" lon="6.3748">
        <ele>305</ele>
        <time>2021-11-24T12:45:46.000Z</time>
      </trkpt>
      <trkpt lat="43.50374" lon="6.37481">
        <ele>305</ele>
        <time>2021-11-24T12:45:47.000Z</time>
      </trkpt>
      <trkpt lat="43.50374" lon="6.37481">
        <ele>305</ele>
        <time>2021-11-24T12:45:48.000Z</time>
      </trkpt>
      <trkpt lat="43.50374" lon="6.3748">
        <ele>305</ele>
        <time>2021-11-24T12:45:49.000Z</time>
      </trkpt>
      <trkpt lat="43.50374" lon="6.3748">
        <ele>305</ele>
        <time>2021-11-24T12:45:50.000Z</time>
      </trkpt>
      <trkpt lat="43.50375" lon="6.3748">
        <ele>306</ele>
        <time>2021-11-24T12:45:51.000Z</time>
      </trkpt>
      <trkpt lat="43.50375" lon="6.3748">
        <ele>306</ele>
        <time>2021-11-24T12:45:52.000Z</time>
      </trkpt>
      <trkpt lat="43.50375" lon="6.3748">
        <ele>306</ele>
        <time>2021-11-24T12:45:53.000Z</time>
      </trkpt>
      <trkpt lat="43.50375" lon="6.3748">
        <ele>306</ele>
        <time>2021-11-24T12:45:54.000Z</time>
      </trkpt>
      <trkpt lat="43.50375" lon="6.3748">
        <ele>306</ele>
        <time>2021-11-24T12:45:55.000Z</time>
      </trkpt>
      <trkpt lat="43.50375" lon="6.3748">
        <ele>306</ele>
        <time>2021-11-24T12:45:56.000Z</time>
      </trkpt>
      <trkpt lat="43.50376" lon="6.3748">
        <ele>307</ele>
        <time>2021-11-24T12:45:57.000Z</time>
      </trkpt>
      <trkpt lat="43.50376" lon="6.3748">
        <ele>307</ele>
        <time>2021-11-24T12:45:58.000Z</time>
      </trkpt>
      <trkpt lat="43.50377" lon="6.37481">
        <ele>307</ele>
        <time>2021-11-24T12:45:59.000Z</time>
      </trkpt>
      <trkpt lat="43.50378" lon="6.37481">
        <ele>307</ele>
        <time>2021-11-24T12:46:00.000Z</time>
      </trkpt>
      <trkpt lat="43.50379" lon="6.37481">
        <ele>307</ele>
        <time>2021-11-24T12:46:01.000Z</time>
      </trkpt>
      <trkpt lat="43.50379" lon="6.37482">
        <ele>307</ele>
        <time>2021-11-24T12:46:02.000Z</time>
      </trkpt>
      <trkpt lat="43.5038" lon="6.37482">
        <ele>307</ele>
        <time>2021-11-24T12:46:03.000Z</time>
      </trkpt>
      <trkpt lat="43.50381" lon="6.37482">
        <ele>307</ele>
        <time>2021-11-24T12:46:04.000Z</time>
      </trkpt>
      <trkpt lat="43.50381" lon="6.37482">
        <ele>307</ele>
        <time>2021-11-24T12:46:05.000Z</time>
      </trkpt>
      <trkpt lat="43.50381" lon="6.37482">
        <ele>307</ele>
        <time>2021-11-24T12:46:06.000Z</time>
      </trkpt>
      <trkpt lat="43.50382" lon="6.37482">
        <ele>307</ele>
        <time>2021-11-24T12:46:07.000Z</time>
      </trkpt>
      <trkpt lat="43.50382" lon="6.37482">
        <ele>307</ele>
        <time>2021-11-24T12:46:08.000Z</time>
      </trkpt>
      <trkpt lat="43.50382" lon="6.37482">
        <ele>307</ele>
        <time>2021-11-24T12:46:09.000Z</time>
      </trkpt>
      <trkpt lat="43.50383" lon="6.37483">
        <ele>307</ele>
        <time>2021-11-24T12:46:10.000Z</time>
      </trkpt>
      <trkpt lat="43.50383" lon="6.37483">
        <ele>308</ele>
        <time>2021-11-24T12:46:11.000Z</time>
      </trkpt>
      <trkpt lat="43.50384" lon="6.37483">
        <ele>308</ele>
        <time>2021-11-24T12:46:12.000Z</time>
      </trkpt>
      <trkpt lat="43.50384" lon="6.37483">
        <ele>308</ele>
        <time>2021-11-24T12:46:13.000Z</time>
      </trkpt>
      <trkpt lat="43.50385" lon="6.37483">
        <ele>308</ele>
        <time>2021-11-24T12:46:14.000Z</time>
      </trkpt>
      <trkpt lat="43.50386" lon="6.37484">
        <ele>308</ele>
        <time>2021-11-24T12:46:15.000Z</time>
      </trkpt>
      <trkpt lat="43.50387" lon="6.37484">
        <ele>309</ele>
        <time>2021-11-24T12:46:16.000Z</time>
      </trkpt>
      <trkpt lat="43.50388" lon="6.37484">
        <ele>309</ele>
        <time>2021-11-24T12:46:17.000Z</time>
      </trkpt>
      <trkpt lat="43.50388" lon="6.37485">
        <ele>309</ele>
        <time>2021-11-24T12:46:18.000Z</time>
      </trkpt>
      <trkpt lat="43.50389" lon="6.37485">
        <ele>309</ele>
        <time>2021-11-24T12:46:19.000Z</time>
      </trkpt>
      <trkpt lat="43.5039" lon="6.37485">
        <ele>309</ele>
        <time>2021-11-24T12:46:20.000Z</time>
      </trkpt>
      <trkpt lat="43.50392" lon="6.37486">
        <ele>310</ele>
        <time>2021-11-24T12:46:21.000Z</time>
      </trkpt>
      <trkpt lat="43.50394" lon="6.37486">
        <ele>310</ele>
        <time>2021-11-24T12:46:22.000Z</time>
      </trkpt>
      <trkpt lat="43.50396" lon="6.37487">
        <ele>310</ele>
        <time>2021-11-24T12:46:23.000Z</time>
      </trkpt>
      <trkpt lat="43.50398" lon="6.37487">
        <ele>310</ele>
        <time>2021-11-24T12:46:24.000Z</time>
      </trkpt>
      <trkpt lat="43.50399" lon="6.37487">
        <ele>310</ele>
        <time>2021-11-24T12:46:25.000Z</time>
      </trkpt>
      <trkpt lat="43.504" lon="6.37487">
        <ele>310</ele>
        <time>2021-11-24T12:46:26.000Z</time>
      </trkpt>
      <trkpt lat="43.50401" lon="6.37487">
        <ele>310</ele>
        <time>2021-11-24T12:46:27.000Z</time>
      </trkpt>
      <trkpt lat="43.50401" lon="6.37487">
        <ele>310</ele>
        <time>2021-11-24T12:46:28.000Z</time>
      </trkpt>
      <trkpt lat="43.50402" lon="6.37488">
        <ele>311</ele>
        <time>2021-11-24T12:46:29.000Z</time>
      </trkpt>
      <trkpt lat="43.50403" lon="6.37488">
        <ele>311</ele>
        <time>2021-11-24T12:46:30.000Z</time>
      </trkpt>
      <trkpt lat="43.50404" lon="6.37488">
        <ele>311</ele>
        <time>2021-11-24T12:46:31.000Z</time>
      </trkpt>
      <trkpt lat="43.50405" lon="6.37488">
        <ele>311</ele>
        <time>2021-11-24T12:46:32.000Z</time>
      </trkpt>
      <trkpt lat="43.50407" lon="6.37488">
        <ele>311</ele>
        <time>2021-11-24T12:46:33.000Z</time>
      </trkpt>
      <trkpt lat="43.5041" lon="6.37488">
        <ele>311</ele>
        <time>2021-11-24T12:46:34.000Z</time>
      </trkpt>
      <trkpt lat="43.50412" lon="6.37488">
        <ele>312</ele>
        <time>2021-11-24T12:46:35.000Z</time>
      </trkpt>
      <trkpt lat="43.50414" lon="6.37488">
        <ele>312</ele>
        <time>2021-11-24T12:46:36.000Z</time>
      </trkpt>
      <trkpt lat="43.50415" lon="6.37488">
        <ele>312</ele>
        <time>2021-11-24T12:46:37.000Z</time>
      </trkpt>
      <trkpt lat="43.50417" lon="6.37488">
        <ele>313</ele>
        <time>2021-11-24T12:46:38.000Z</time>
      </trkpt>
      <trkpt lat="43.50418" lon="6.37488">
        <ele>314</ele>
        <time>2021-11-24T12:46:39.000Z</time>
      </trkpt>
      <trkpt lat="43.50419" lon="6.37488">
        <ele>314</ele>
        <time>2021-11-24T12:46:40.000Z</time>
      </trkpt>
      <trkpt lat="43.50421" lon="6.37489">
        <ele>315</ele>
        <time>2021-11-24T12:46:41.000Z</time>
      </trkpt>
      <trkpt lat="43.50421" lon="6.37489">
        <ele>315</ele>
        <time>2021-11-24T12:46:42.000Z</time>
      </trkpt>
      <trkpt lat="43.50422" lon="6.37489">
        <ele>316</ele>
        <time>2021-11-24T12:46:43.000Z</time>
      </trkpt>
      <trkpt lat="43.50423" lon="6.37489">
        <ele>316</ele>
        <time>2021-11-24T12:46:44.000Z</time>
      </trkpt>
      <trkpt lat="43.50424" lon="6.3749">
        <ele>316</ele>
        <time>2021-11-24T12:46:45.000Z</time>
      </trkpt>
      <trkpt lat="43.50425" lon="6.3749">
        <ele>317</ele>
        <time>2021-11-24T12:46:46.000Z</time>
      </trkpt>
      <trkpt lat="43.50426" lon="6.3749">
        <ele>317</ele>
        <time>2021-11-24T12:46:47.000Z</time>
      </trkpt>
      <trkpt lat="43.50427" lon="6.3749">
        <ele>318</ele>
        <time>2021-11-24T12:46:48.000Z</time>
      </trkpt>
      <trkpt lat="43.50428" lon="6.3749">
        <ele>318</ele>
        <time>2021-11-24T12:46:49.000Z</time>
      </trkpt>
      <trkpt lat="43.50429" lon="6.3749">
        <ele>318</ele>
        <time>2021-11-24T12:46:50.000Z</time>
      </trkpt>
      <trkpt lat="43.50429" lon="6.3749">
        <ele>318</ele>
        <time>2021-11-24T12:46:51.000Z</time>
      </trkpt>
      <trkpt lat="43.5043" lon="6.37491">
        <ele>318</ele>
        <time>2021-11-24T12:46:52.000Z</time>
      </trkpt>
      <trkpt lat="43.50431" lon="6.37491">
        <ele>318</ele>
        <time>2021-11-24T12:46:53.000Z</time>
      </trkpt>
      <trkpt lat="43.50432" lon="6.37491">
        <ele>318</ele>
        <time>2021-11-24T12:46:54.000Z</time>
      </trkpt>
      <trkpt lat="43.50433" lon="6.37492">
        <ele>319</ele>
        <time>2021-11-24T12:46:55.000Z</time>
      </trkpt>
      <trkpt lat="43.50434" lon="6.37492">
        <ele>319</ele>
        <time>2021-11-24T12:46:56.000Z</time>
      </trkpt>
      <trkpt lat="43.50435" lon="6.37492">
        <ele>319</ele>
        <time>2021-11-24T12:46:57.000Z</time>
      </trkpt>
      <trkpt lat="43.50436" lon="6.37492">
        <ele>319</ele>
        <time>2021-11-24T12:46:58.000Z</time>
      </trkpt>
      <trkpt lat="43.50437" lon="6.37493">
        <ele>319</ele>
        <time>2021-11-24T12:46:59.000Z</time>
      </trkpt>
      <trkpt lat="43.50438" lon="6.37493">
        <ele>319</ele>
        <time>2021-11-24T12:47:00.000Z</time>
      </trkpt>
      <trkpt lat="43.5044" lon="6.37493">
        <ele>319</ele>
        <time>2021-11-24T12:47:01.000Z</time>
      </trkpt>
      <trkpt lat="43.50441" lon="6.37494">
        <ele>319</ele>
        <time>2021-11-24T12:47:02.000Z</time>
      </trkpt>
      <trkpt lat="43.50441" lon="6.37494">
        <ele>319</ele>
        <time>2021-11-24T12:47:03.000Z</time>
      </trkpt>
      <trkpt lat="43.50442" lon="6.37494">
        <ele>319</ele>
        <time>2021-11-24T12:47:04.000Z</time>
      </trkpt>
      <trkpt lat="43.50443" lon="6.37494">
        <ele>319</ele>
        <time>2021-11-24T12:47:05.000Z</time>
      </trkpt>
      <trkpt lat="43.50445" lon="6.37495">
        <ele>320</ele>
        <time>2021-11-24T12:47:06.000Z</time>
      </trkpt>
      <trkpt lat="43.50446" lon="6.37495">
        <ele>320</ele>
        <time>2021-11-24T12:47:07.000Z</time>
      </trkpt>
      <trkpt lat="43.50446" lon="6.37495">
        <ele>320</ele>
        <time>2021-11-24T12:47:08.000Z</time>
      </trkpt>
      <trkpt lat="43.50447" lon="6.37496">
        <ele>320</ele>
        <time>2021-11-24T12:47:09.000Z</time>
      </trkpt>
      <trkpt lat="43.50448" lon="6.37496">
        <ele>321</ele>
        <time>2021-11-24T12:47:10.000Z</time>
      </trkpt>
      <trkpt lat="43.50449" lon="6.37497">
        <ele>321</ele>
        <time>2021-11-24T12:47:11.000Z</time>
      </trkpt>
      <trkpt lat="43.5045" lon="6.37497">
        <ele>321</ele>
        <time>2021-11-24T12:47:12.000Z</time>
      </trkpt>
      <trkpt lat="43.5045" lon="6.37498">
        <ele>321</ele>
        <time>2021-11-24T12:47:13.000Z</time>
      </trkpt>
      <trkpt lat="43.50451" lon="6.37498">
        <ele>321</ele>
        <time>2021-11-24T12:47:14.000Z</time>
      </trkpt>
      <trkpt lat="43.50452" lon="6.37498">
        <ele>322</ele>
        <time>2021-11-24T12:47:15.000Z</time>
      </trkpt>
      <trkpt lat="43.50453" lon="6.37499">
        <ele>322</ele>
        <time>2021-11-24T12:47:16.000Z</time>
      </trkpt>
      <trkpt lat="43.50454" lon="6.37499">
        <ele>322</ele>
        <time>2021-11-24T12:47:17.000Z</time>
      </trkpt>
      <trkpt lat="43.50455" lon="6.37499">
        <ele>322</ele>
        <time>2021-11-24T12:47:18.000Z</time>
      </trkpt>
      <trkpt lat="43.50456" lon="6.375">
        <ele>322</ele>
        <time>2021-11-24T12:47:19.000Z</time>
      </trkpt>
      <trkpt lat="43.50457" lon="6.375">
        <ele>322</ele>
        <time>2021-11-24T12:47:20.000Z</time>
      </trkpt>
      <trkpt lat="43.50458" lon="6.375">
        <ele>322</ele>
        <time>2021-11-24T12:47:21.000Z</time>
      </trkpt>
      <trkpt lat="43.50459" lon="6.37501">
        <ele>322</ele>
        <time>2021-11-24T12:47:22.000Z</time>
      </trkpt>
      <trkpt lat="43.50461" lon="6.37501">
        <ele>322</ele>
        <time>2021-11-24T12:47:23.000Z</time>
      </trkpt>
      <trkpt lat="43.50462" lon="6.37502">
        <ele>322</ele>
        <time>2021-11-24T12:47:24.000Z</time>
      </trkpt>
      <trkpt lat="43.50463" lon="6.37502">
        <ele>322</ele>
        <time>2021-11-24T12:47:25.000Z</time>
      </trkpt>
      <trkpt lat="43.50464" lon="6.37502">
        <ele>322</ele>
        <time>2021-11-24T12:47:26.000Z</time>
      </trkpt>
      <trkpt lat="43.50466" lon="6.37503">
        <ele>322</ele>
        <time>2021-11-24T12:47:27.000Z</time>
      </trkpt>
      <trkpt lat="43.50467" lon="6.37503">
        <ele>322</ele>
        <time>2021-11-24T12:47:28.000Z</time>
      </trkpt>
      <trkpt lat="43.50468" lon="6.37504">
        <ele>322</ele>
        <time>2021-11-24T12:47:29.000Z</time>
      </trkpt>
      <trkpt lat="43.5047" lon="6.37504">
        <ele>322</ele>
        <time>2021-11-24T12:47:30.000Z</time>
      </trkpt>
      <trkpt lat="43.50471" lon="6.37504">
        <ele>322</ele>
        <time>2021-11-24T12:47:31.000Z</time>
      </trkpt>
      <trkpt lat="43.50472" lon="6.37505">
        <ele>322</ele>
        <time>2021-11-24T12:47:32.000Z</time>
      </trkpt>
      <trkpt lat="43.50473" lon="6.37505">
        <ele>322</ele>
        <time>2021-11-24T12:47:33.000Z</time>
      </trkpt>
      <trkpt lat="43.50473" lon="6.37506">
        <ele>322</ele>
        <time>2021-11-24T12:47:34.000Z</time>
      </trkpt>
      <trkpt lat="43.50474" lon="6.37505">
        <ele>322</ele>
        <time>2021-11-24T12:47:35.000Z</time>
      </trkpt>
      <trkpt lat="43.50475" lon="6.37505">
        <ele>322</ele>
        <time>2021-11-24T12:47:36.000Z</time>
      </trkpt>
      <trkpt lat="43.50476" lon="6.37505">
        <ele>322</ele>
        <time>2021-11-24T12:47:37.000Z</time>
      </trkpt>
      <trkpt lat="43.50477" lon="6.37505">
        <ele>322</ele>
        <time>2021-11-24T12:47:38.000Z</time>
      </trkpt>
      <trkpt lat="43.50478" lon="6.37505">
        <ele>323</ele>
        <time>2021-11-24T12:47:39.000Z</time>
      </trkpt>
      <trkpt lat="43.50479" lon="6.37506">
        <ele>323</ele>
        <time>2021-11-24T12:47:40.000Z</time>
      </trkpt>
      <trkpt lat="43.5048" lon="6.37506">
        <ele>323</ele>
        <time>2021-11-24T12:47:41.000Z</time>
      </trkpt>
      <trkpt lat="43.50482" lon="6.37506">
        <ele>324</ele>
        <time>2021-11-24T12:47:42.000Z</time>
      </trkpt>
      <trkpt lat="43.50483" lon="6.37506">
        <ele>324</ele>
        <time>2021-11-24T12:47:43.000Z</time>
      </trkpt>
      <trkpt lat="43.50484" lon="6.37506">
        <ele>324</ele>
        <time>2021-11-24T12:47:44.000Z</time>
      </trkpt>
      <trkpt lat="43.50485" lon="6.37507">
        <ele>324</ele>
        <time>2021-11-24T12:47:45.000Z</time>
      </trkpt>
      <trkpt lat="43.50486" lon="6.37507">
        <ele>325</ele>
        <time>2021-11-24T12:47:46.000Z</time>
      </trkpt>
      <trkpt lat="43.50487" lon="6.37507">
        <ele>325</ele>
        <time>2021-11-24T12:47:47.000Z</time>
      </trkpt>
      <trkpt lat="43.50489" lon="6.37507">
        <ele>325</ele>
        <time>2021-11-24T12:47:48.000Z</time>
      </trkpt>
      <trkpt lat="43.5049" lon="6.37508">
        <ele>325</ele>
        <time>2021-11-24T12:47:49.000Z</time>
      </trkpt>
      <trkpt lat="43.50491" lon="6.37508">
        <ele>325</ele>
        <time>2021-11-24T12:47:50.000Z</time>
      </trkpt>
      <trkpt lat="43.50492" lon="6.37508">
        <ele>325</ele>
        <time>2021-11-24T12:47:51.000Z</time>
      </trkpt>
      <trkpt lat="43.50494" lon="6.37508">
        <ele>325</ele>
        <time>2021-11-24T12:47:52.000Z</time>
      </trkpt>
      <trkpt lat="43.50495" lon="6.37508">
        <ele>325</ele>
        <time>2021-11-24T12:47:53.000Z</time>
      </trkpt>
      <trkpt lat="43.50496" lon="6.37508">
        <ele>325</ele>
        <time>2021-11-24T12:47:54.000Z</time>
      </trkpt>
      <trkpt lat="43.50498" lon="6.37509">
        <ele>325</ele>
        <time>2021-11-24T12:47:55.000Z</time>
      </trkpt>
      <trkpt lat="43.50499" lon="6.37509">
        <ele>325</ele>
        <time>2021-11-24T12:47:56.000Z</time>
      </trkpt>
      <trkpt lat="43.505" lon="6.37509">
        <ele>325</ele>
        <time>2021-11-24T12:47:57.000Z</time>
      </trkpt>
      <trkpt lat="43.50501" lon="6.37509">
        <ele>325</ele>
        <time>2021-11-24T12:47:58.000Z</time>
      </trkpt>
      <trkpt lat="43.50502" lon="6.37509">
        <ele>325</ele>
        <time>2021-11-24T12:47:59.000Z</time>
      </trkpt>
      <trkpt lat="43.50503" lon="6.37509">
        <ele>325</ele>
        <time>2021-11-24T12:48:00.000Z</time>
      </trkpt>
      <trkpt lat="43.50503" lon="6.37509">
        <ele>324</ele>
        <time>2021-11-24T12:48:01.000Z</time>
      </trkpt>
      <trkpt lat="43.50504" lon="6.37509">
        <ele>324</ele>
        <time>2021-11-24T12:48:02.000Z</time>
      </trkpt>
      <trkpt lat="43.50506" lon="6.37509">
        <ele>324</ele>
        <time>2021-11-24T12:48:03.000Z</time>
      </trkpt>
      <trkpt lat="43.50507" lon="6.37509">
        <ele>324</ele>
        <time>2021-11-24T12:48:04.000Z</time>
      </trkpt>
      <trkpt lat="43.50508" lon="6.37509">
        <ele>324</ele>
        <time>2021-11-24T12:48:05.000Z</time>
      </trkpt>
      <trkpt lat="43.50509" lon="6.37509">
        <ele>324</ele>
        <time>2021-11-24T12:48:06.000Z</time>
      </trkpt>
      <trkpt lat="43.5051" lon="6.37509">
        <ele>324</ele>
        <time>2021-11-24T12:48:07.000Z</time>
      </trkpt>
      <trkpt lat="43.50512" lon="6.37509">
        <ele>324</ele>
        <time>2021-11-24T12:48:08.000Z</time>
      </trkpt>
      <trkpt lat="43.50513" lon="6.37509">
        <ele>324</ele>
        <time>2021-11-24T12:48:09.000Z</time>
      </trkpt>
      <trkpt lat="43.50514" lon="6.37509">
        <ele>325</ele>
        <time>2021-11-24T12:48:10.000Z</time>
      </trkpt>
      <trkpt lat="43.50515" lon="6.37509">
        <ele>325</ele>
        <time>2021-11-24T12:48:11.000Z</time>
      </trkpt>
      <trkpt lat="43.50516" lon="6.37509">
        <ele>325</ele>
        <time>2021-11-24T12:48:12.000Z</time>
      </trkpt>
      <trkpt lat="43.50517" lon="6.37509">
        <ele>325</ele>
        <time>2021-11-24T12:48:13.000Z</time>
      </trkpt>
      <trkpt lat="43.50518" lon="6.37508">
        <ele>325</ele>
        <time>2021-11-24T12:48:14.000Z</time>
      </trkpt>
      <trkpt lat="43.50519" lon="6.37508">
        <ele>325</ele>
        <time>2021-11-24T12:48:15.000Z</time>
      </trkpt>
      <trkpt lat="43.5052" lon="6.37508">
        <ele>325</ele>
        <time>2021-11-24T12:48:16.000Z</time>
      </trkpt>
      <trkpt lat="43.50521" lon="6.37508">
        <ele>325</ele>
        <time>2021-11-24T12:48:17.000Z</time>
      </trkpt>
      <trkpt lat="43.50522" lon="6.37508">
        <ele>325</ele>
        <time>2021-11-24T12:48:18.000Z</time>
      </trkpt>
      <trkpt lat="43.50523" lon="6.37508">
        <ele>325</ele>
        <time>2021-11-24T12:48:19.000Z</time>
      </trkpt>
      <trkpt lat="43.50524" lon="6.37507">
        <ele>325</ele>
        <time>2021-11-24T12:48:20.000Z</time>
      </trkpt>
      <trkpt lat="43.50525" lon="6.37507">
        <ele>325</ele>
        <time>2021-11-24T12:48:21.000Z</time>
      </trkpt>
      <trkpt lat="43.50526" lon="6.37507">
        <ele>325</ele>
        <time>2021-11-24T12:48:22.000Z</time>
      </trkpt>
      <trkpt lat="43.50527" lon="6.37507">
        <ele>325</ele>
        <time>2021-11-24T12:48:23.000Z</time>
      </trkpt>
      <trkpt lat="43.50528" lon="6.37507">
        <ele>325</ele>
        <time>2021-11-24T12:48:24.000Z</time>
      </trkpt>
      <trkpt lat="43.50529" lon="6.37507">
        <ele>325</ele>
        <time>2021-11-24T12:48:25.000Z</time>
      </trkpt>
      <trkpt lat="43.5053" lon="6.37507">
        <ele>325</ele>
        <time>2021-11-24T12:48:26.000Z</time>
      </trkpt>
      <trkpt lat="43.5053" lon="6.37507">
        <ele>325</ele>
        <time>2021-11-24T12:48:27.000Z</time>
      </trkpt>
      <trkpt lat="43.50531" lon="6.37506">
        <ele>325</ele>
        <time>2021-11-24T12:48:28.000Z</time>
      </trkpt>
      <trkpt lat="43.50532" lon="6.37506">
        <ele>325</ele>
        <time>2021-11-24T12:48:29.000Z</time>
      </trkpt>
      <trkpt lat="43.50533" lon="6.37506">
        <ele>325</ele>
        <time>2021-11-24T12:48:30.000Z</time>
      </trkpt>
      <trkpt lat="43.50534" lon="6.37506">
        <ele>325</ele>
        <time>2021-11-24T12:48:31.000Z</time>
      </trkpt>
      <trkpt lat="43.50534" lon="6.37506">
        <ele>325</ele>
        <time>2021-11-24T12:48:32.000Z</time>
      </trkpt>
      <trkpt lat="43.50535" lon="6.37506">
        <ele>325</ele>
        <time>2021-11-24T12:48:33.000Z</time>
      </trkpt>
      <trkpt lat="43.50536" lon="6.37505">
        <ele>324</ele>
        <time>2021-11-24T12:48:34.000Z</time>
      </trkpt>
      <trkpt lat="43.50537" lon="6.37505">
        <ele>324</ele>
        <time>2021-11-24T12:48:35.000Z</time>
      </trkpt>
      <trkpt lat="43.50539" lon="6.37505">
        <ele>324</ele>
        <time>2021-11-24T12:48:36.000Z</time>
      </trkpt>
      <trkpt lat="43.5054" lon="6.37505">
        <ele>324</ele>
        <time>2021-11-24T12:48:37.000Z</time>
      </trkpt>
      <trkpt lat="43.50541" lon="6.37505">
        <ele>324</ele>
        <time>2021-11-24T12:48:38.000Z</time>
      </trkpt>
      <trkpt lat="43.50542" lon="6.37505">
        <ele>324</ele>
        <time>2021-11-24T12:48:39.000Z</time>
      </trkpt>
      <trkpt lat="43.50543" lon="6.37504">
        <ele>324</ele>
        <time>2021-11-24T12:48:40.000Z</time>
      </trkpt>
      <trkpt lat="43.50544" lon="6.37504">
        <ele>324</ele>
        <time>2021-11-24T12:48:41.000Z</time>
      </trkpt>
      <trkpt lat="43.50545" lon="6.37504">
        <ele>324</ele>
        <time>2021-11-24T12:48:42.000Z</time>
      </trkpt>
      <trkpt lat="43.50546" lon="6.37504">
        <ele>324</ele>
        <time>2021-11-24T12:48:43.000Z</time>
      </trkpt>
      <trkpt lat="43.50547" lon="6.37504">
        <ele>324</ele>
        <time>2021-11-24T12:48:44.000Z</time>
      </trkpt>
      <trkpt lat="43.50548" lon="6.37504">
        <ele>324</ele>
        <time>2021-11-24T12:48:45.000Z</time>
      </trkpt>
      <trkpt lat="43.50549" lon="6.37504">
        <ele>324</ele>
        <time>2021-11-24T12:48:46.000Z</time>
      </trkpt>
      <trkpt lat="43.5055" lon="6.37503">
        <ele>324</ele>
        <time>2021-11-24T12:48:47.000Z</time>
      </trkpt>
      <trkpt lat="43.50551" lon="6.37503">
        <ele>324</ele>
        <time>2021-11-24T12:48:48.000Z</time>
      </trkpt>
      <trkpt lat="43.50553" lon="6.37503">
        <ele>324</ele>
        <time>2021-11-24T12:48:49.000Z</time>
      </trkpt>
      <trkpt lat="43.50554" lon="6.37503">
        <ele>324</ele>
        <time>2021-11-24T12:48:50.000Z</time>
      </trkpt>
      <trkpt lat="43.50555" lon="6.37502">
        <ele>324</ele>
        <time>2021-11-24T12:48:51.000Z</time>
      </trkpt>
      <trkpt lat="43.50556" lon="6.37502">
        <ele>324</ele>
        <time>2021-11-24T12:48:52.000Z</time>
      </trkpt>
      <trkpt lat="43.50557" lon="6.37502">
        <ele>324</ele>
        <time>2021-11-24T12:48:53.000Z</time>
      </trkpt>
      <trkpt lat="43.50558" lon="6.37502">
        <ele>324</ele>
        <time>2021-11-24T12:48:54.000Z</time>
      </trkpt>
      <trkpt lat="43.50559" lon="6.37501">
        <ele>324</ele>
        <time>2021-11-24T12:48:55.000Z</time>
      </trkpt>
      <trkpt lat="43.50561" lon="6.37501">
        <ele>324</ele>
        <time>2021-11-24T12:48:56.000Z</time>
      </trkpt>
      <trkpt lat="43.50562" lon="6.37501">
        <ele>324</ele>
        <time>2021-11-24T12:48:57.000Z</time>
      </trkpt>
      <trkpt lat="43.50563" lon="6.375">
        <ele>325</ele>
        <time>2021-11-24T12:48:58.000Z</time>
      </trkpt>
      <trkpt lat="43.50564" lon="6.375">
        <ele>325</ele>
        <time>2021-11-24T12:48:59.000Z</time>
      </trkpt>
      <trkpt lat="43.50566" lon="6.375">
        <ele>325</ele>
        <time>2021-11-24T12:49:00.000Z</time>
      </trkpt>
      <trkpt lat="43.50567" lon="6.375">
        <ele>325</ele>
        <time>2021-11-24T12:49:01.000Z</time>
      </trkpt>
      <trkpt lat="43.50568" lon="6.375">
        <ele>325</ele>
        <time>2021-11-24T12:49:02.000Z</time>
      </trkpt>
      <trkpt lat="43.50569" lon="6.375">
        <ele>325</ele>
        <time>2021-11-24T12:49:03.000Z</time>
      </trkpt>
      <trkpt lat="43.5057" lon="6.375">
        <ele>325</ele>
        <time>2021-11-24T12:49:04.000Z</time>
      </trkpt>
      <trkpt lat="43.50571" lon="6.375">
        <ele>325</ele>
        <time>2021-11-24T12:49:05.000Z</time>
      </trkpt>
      <trkpt lat="43.50572" lon="6.375">
        <ele>325</ele>
        <time>2021-11-24T12:49:06.000Z</time>
      </trkpt>
      <trkpt lat="43.50573" lon="6.375">
        <ele>325</ele>
        <time>2021-11-24T12:49:07.000Z</time>
      </trkpt>
      <trkpt lat="43.50574" lon="6.375">
        <ele>325</ele>
        <time>2021-11-24T12:49:08.000Z</time>
      </trkpt>
      <trkpt lat="43.50575" lon="6.375">
        <ele>325</ele>
        <time>2021-11-24T12:49:09.000Z</time>
      </trkpt>
      <trkpt lat="43.50577" lon="6.375">
        <ele>325</ele>
        <time>2021-11-24T12:49:10.000Z</time>
      </trkpt>
      <trkpt lat="43.50578" lon="6.375">
        <ele>325</ele>
        <time>2021-11-24T12:49:11.000Z</time>
      </trkpt>
      <trkpt lat="43.50579" lon="6.375">
        <ele>325</ele>
        <time>2021-11-24T12:49:12.000Z</time>
      </trkpt>
      <trkpt lat="43.5058" lon="6.37501">
        <ele>325</ele>
        <time>2021-11-24T12:49:13.000Z</time>
      </trkpt>
      <trkpt lat="43.50581" lon="6.37501">
        <ele>326</ele>
        <time>2021-11-24T12:49:14.000Z</time>
      </trkpt>
      <trkpt lat="43.50582" lon="6.37502">
        <ele>326</ele>
        <time>2021-11-24T12:49:15.000Z</time>
      </trkpt>
      <trkpt lat="43.50583" lon="6.37502">
        <ele>326</ele>
        <time>2021-11-24T12:49:16.000Z</time>
      </trkpt>
      <trkpt lat="43.50584" lon="6.37502">
        <ele>326</ele>
        <time>2021-11-24T12:49:17.000Z</time>
      </trkpt>
      <trkpt lat="43.50586" lon="6.37502">
        <ele>326</ele>
        <time>2021-11-24T12:49:18.000Z</time>
      </trkpt>
      <trkpt lat="43.50587" lon="6.37503">
        <ele>326</ele>
        <time>2021-11-24T12:49:19.000Z</time>
      </trkpt>
      <trkpt lat="43.50588" lon="6.37502">
        <ele>326</ele>
        <time>2021-11-24T12:49:20.000Z</time>
      </trkpt>
      <trkpt lat="43.50589" lon="6.37502">
        <ele>326</ele>
        <time>2021-11-24T12:49:21.000Z</time>
      </trkpt>
      <trkpt lat="43.50591" lon="6.37502">
        <ele>326</ele>
        <time>2021-11-24T12:49:22.000Z</time>
      </trkpt>
      <trkpt lat="43.50592" lon="6.37502">
        <ele>326</ele>
        <time>2021-11-24T12:49:23.000Z</time>
      </trkpt>
      <trkpt lat="43.50593" lon="6.37502">
        <ele>326</ele>
        <time>2021-11-24T12:49:24.000Z</time>
      </trkpt>
      <trkpt lat="43.50594" lon="6.37502">
        <ele>326</ele>
        <time>2021-11-24T12:49:25.000Z</time>
      </trkpt>
      <trkpt lat="43.50595" lon="6.37502">
        <ele>326</ele>
        <time>2021-11-24T12:49:26.000Z</time>
      </trkpt>
      <trkpt lat="43.50596" lon="6.37501">
        <ele>326</ele>
        <time>2021-11-24T12:49:27.000Z</time>
      </trkpt>
      <trkpt lat="43.50597" lon="6.37501">
        <ele>326</ele>
        <time>2021-11-24T12:49:28.000Z</time>
      </trkpt>
      <trkpt lat="43.50598" lon="6.37501">
        <ele>327</ele>
        <time>2021-11-24T12:49:29.000Z</time>
      </trkpt>
      <trkpt lat="43.50599" lon="6.37501">
        <ele>327</ele>
        <time>2021-11-24T12:49:30.000Z</time>
      </trkpt>
      <trkpt lat="43.506" lon="6.375">
        <ele>327</ele>
        <time>2021-11-24T12:49:31.000Z</time>
      </trkpt>
      <trkpt lat="43.50601" lon="6.375">
        <ele>327</ele>
        <time>2021-11-24T12:49:32.000Z</time>
      </trkpt>
      <trkpt lat="43.50602" lon="6.375">
        <ele>327</ele>
        <time>2021-11-24T12:49:33.000Z</time>
      </trkpt>
      <trkpt lat="43.50603" lon="6.37499">
        <ele>327</ele>
        <time>2021-11-24T12:49:34.000Z</time>
      </trkpt>
      <trkpt lat="43.50604" lon="6.37499">
        <ele>327</ele>
        <time>2021-11-24T12:49:35.000Z</time>
      </trkpt>
      <trkpt lat="43.50605" lon="6.37498">
        <ele>327</ele>
        <time>2021-11-24T12:49:36.000Z</time>
      </trkpt>
      <trkpt lat="43.50606" lon="6.37498">
        <ele>327</ele>
        <time>2021-11-24T12:49:37.000Z</time>
      </trkpt>
      <trkpt lat="43.50607" lon="6.37498">
        <ele>327</ele>
        <time>2021-11-24T12:49:38.000Z</time>
      </trkpt>
      <trkpt lat="43.50608" lon="6.37498">
        <ele>327</ele>
        <time>2021-11-24T12:49:39.000Z</time>
      </trkpt>
      <trkpt lat="43.50609" lon="6.37497">
        <ele>327</ele>
        <time>2021-11-24T12:49:40.000Z</time>
      </trkpt>
      <trkpt lat="43.5061" lon="6.37497">
        <ele>327</ele>
        <time>2021-11-24T12:49:41.000Z</time>
      </trkpt>
      <trkpt lat="43.50611" lon="6.37497">
        <ele>327</ele>
        <time>2021-11-24T12:49:42.000Z</time>
      </trkpt>
      <trkpt lat="43.50611" lon="6.37496">
        <ele>327</ele>
        <time>2021-11-24T12:49:43.000Z</time>
      </trkpt>
      <trkpt lat="43.50612" lon="6.37496">
        <ele>327</ele>
        <time>2021-11-24T12:49:44.000Z</time>
      </trkpt>
      <trkpt lat="43.50613" lon="6.37496">
        <ele>327</ele>
        <time>2021-11-24T12:49:45.000Z</time>
      </trkpt>
      <trkpt lat="43.50614" lon="6.37495">
        <ele>327</ele>
        <time>2021-11-24T12:49:46.000Z</time>
      </trkpt>
      <trkpt lat="43.50615" lon="6.37495">
        <ele>327</ele>
        <time>2021-11-24T12:49:47.000Z</time>
      </trkpt>
      <trkpt lat="43.50616" lon="6.37495">
        <ele>327</ele>
        <time>2021-11-24T12:49:48.000Z</time>
      </trkpt>
      <trkpt lat="43.50617" lon="6.37495">
        <ele>327</ele>
        <time>2021-11-24T12:49:49.000Z</time>
      </trkpt>
      <trkpt lat="43.50618" lon="6.37494">
        <ele>327</ele>
        <time>2021-11-24T12:49:50.000Z</time>
      </trkpt>
      <trkpt lat="43.50619" lon="6.37494">
        <ele>327</ele>
        <time>2021-11-24T12:49:51.000Z</time>
      </trkpt>
      <trkpt lat="43.50619" lon="6.37494">
        <ele>326</ele>
        <time>2021-11-24T12:49:52.000Z</time>
      </trkpt>
      <trkpt lat="43.5062" lon="6.37494">
        <ele>326</ele>
        <time>2021-11-24T12:49:53.000Z</time>
      </trkpt>
      <trkpt lat="43.50622" lon="6.37493">
        <ele>326</ele>
        <time>2021-11-24T12:49:54.000Z</time>
      </trkpt>
      <trkpt lat="43.50623" lon="6.37493">
        <ele>326</ele>
        <time>2021-11-24T12:49:55.000Z</time>
      </trkpt>
      <trkpt lat="43.50624" lon="6.37493">
        <ele>326</ele>
        <time>2021-11-24T12:49:56.000Z</time>
      </trkpt>
      <trkpt lat="43.50624" lon="6.37492">
        <ele>326</ele>
        <time>2021-11-24T12:49:57.000Z</time>
      </trkpt>
      <trkpt lat="43.50625" lon="6.37492">
        <ele>326</ele>
        <time>2021-11-24T12:49:58.000Z</time>
      </trkpt>
      <trkpt lat="43.50626" lon="6.37492">
        <ele>326</ele>
        <time>2021-11-24T12:49:59.000Z</time>
      </trkpt>
      <trkpt lat="43.50627" lon="6.37491">
        <ele>325</ele>
        <time>2021-11-24T12:50:00.000Z</time>
      </trkpt>
      <trkpt lat="43.50628" lon="6.37491">
        <ele>325</ele>
        <time>2021-11-24T12:50:01.000Z</time>
      </trkpt>
      <trkpt lat="43.50629" lon="6.37491">
        <ele>325</ele>
        <time>2021-11-24T12:50:02.000Z</time>
      </trkpt>
      <trkpt lat="43.5063" lon="6.3749">
        <ele>325</ele>
        <time>2021-11-24T12:50:03.000Z</time>
      </trkpt>
      <trkpt lat="43.5063" lon="6.3749">
        <ele>324</ele>
        <time>2021-11-24T12:50:04.000Z</time>
      </trkpt>
      <trkpt lat="43.50631" lon="6.3749">
        <ele>324</ele>
        <time>2021-11-24T12:50:05.000Z</time>
      </trkpt>
      <trkpt lat="43.50631" lon="6.3749">
        <ele>324</ele>
        <time>2021-11-24T12:50:06.000Z</time>
      </trkpt>
      <trkpt lat="43.50632" lon="6.3749">
        <ele>324</ele>
        <time>2021-11-24T12:50:07.000Z</time>
      </trkpt>
      <trkpt lat="43.50632" lon="6.3749">
        <ele>324</ele>
        <time>2021-11-24T12:50:08.000Z</time>
      </trkpt>
      <trkpt lat="43.50633" lon="6.3749">
        <ele>324</ele>
        <time>2021-11-24T12:50:09.000Z</time>
      </trkpt>
      <trkpt lat="43.50633" lon="6.3749">
        <ele>324</ele>
        <time>2021-11-24T12:50:10.000Z</time>
      </trkpt>
      <trkpt lat="43.50633" lon="6.37489">
        <ele>324</ele>
        <time>2021-11-24T12:50:11.000Z</time>
      </trkpt>
      <trkpt lat="43.50633" lon="6.37489">
        <ele>324</ele>
        <time>2021-11-24T12:50:12.000Z</time>
      </trkpt>
      <trkpt lat="43.50633" lon="6.37489">
        <ele>324</ele>
        <time>2021-11-24T12:50:13.000Z</time>
      </trkpt>
      <trkpt lat="43.50633" lon="6.37489">
        <ele>324</ele>
        <time>2021-11-24T12:50:14.000Z</time>
      </trkpt>
      <trkpt lat="43.50634" lon="6.37489">
        <ele>324</ele>
        <time>2021-11-24T12:50:15.000Z</time>
      </trkpt>
      <trkpt lat="43.50634" lon="6.37489">
        <ele>324</ele>
        <time>2021-11-24T12:50:16.000Z</time>
      </trkpt>
      <trkpt lat="43.50634" lon="6.37489">
        <ele>324</ele>
        <time>2021-11-24T12:50:17.000Z</time>
      </trkpt>
      <trkpt lat="43.50634" lon="6.37489">
        <ele>324</ele>
        <time>2021-11-24T12:50:18.000Z</time>
      </trkpt>
      <trkpt lat="43.50635" lon="6.37489">
        <ele>324</ele>
        <time>2021-11-24T12:50:19.000Z</time>
      </trkpt>
      <trkpt lat="43.50636" lon="6.37488">
        <ele>324</ele>
        <time>2021-11-24T12:50:20.000Z</time>
      </trkpt>
      <trkpt lat="43.50636" lon="6.37488">
        <ele>324</ele>
        <time>2021-11-24T12:50:21.000Z</time>
      </trkpt>
      <trkpt lat="43.50637" lon="6.37488">
        <ele>324</ele>
        <time>2021-11-24T12:50:22.000Z</time>
      </trkpt>
      <trkpt lat="43.50638" lon="6.37488">
        <ele>325</ele>
        <time>2021-11-24T12:50:23.000Z</time>
      </trkpt>
      <trkpt lat="43.50639" lon="6.37488">
        <ele>325</ele>
        <time>2021-11-24T12:50:24.000Z</time>
      </trkpt>
      <trkpt lat="43.5064" lon="6.37488">
        <ele>325</ele>
        <time>2021-11-24T12:50:25.000Z</time>
      </trkpt>
      <trkpt lat="43.50641" lon="6.37488">
        <ele>325</ele>
        <time>2021-11-24T12:50:26.000Z</time>
      </trkpt>
      <trkpt lat="43.50641" lon="6.37488">
        <ele>325</ele>
        <time>2021-11-24T12:50:27.000Z</time>
      </trkpt>
      <trkpt lat="43.50642" lon="6.37487">
        <ele>325</ele>
        <time>2021-11-24T12:50:28.000Z</time>
      </trkpt>
      <trkpt lat="43.50642" lon="6.37487">
        <ele>325</ele>
        <time>2021-11-24T12:50:29.000Z</time>
      </trkpt>
      <trkpt lat="43.50643" lon="6.37487">
        <ele>325</ele>
        <time>2021-11-24T12:50:30.000Z</time>
      </trkpt>
      <trkpt lat="43.50643" lon="6.37487">
        <ele>325</ele>
        <time>2021-11-24T12:50:31.000Z</time>
      </trkpt>
      <trkpt lat="43.50644" lon="6.37487">
        <ele>325</ele>
        <time>2021-11-24T12:50:32.000Z</time>
      </trkpt>
      <trkpt lat="43.50645" lon="6.37487">
        <ele>325</ele>
        <time>2021-11-24T12:50:33.000Z</time>
      </trkpt>
      <trkpt lat="43.50645" lon="6.37486">
        <ele>325</ele>
        <time>2021-11-24T12:50:34.000Z</time>
      </trkpt>
      <trkpt lat="43.50646" lon="6.37486">
        <ele>325</ele>
        <time>2021-11-24T12:50:35.000Z</time>
      </trkpt>
      <trkpt lat="43.50647" lon="6.37486">
        <ele>325</ele>
        <time>2021-11-24T12:50:36.000Z</time>
      </trkpt>
      <trkpt lat="43.50648" lon="6.37485">
        <ele>325</ele>
        <time>2021-11-24T12:50:37.000Z</time>
      </trkpt>
      <trkpt lat="43.50648" lon="6.37485">
        <ele>325</ele>
        <time>2021-11-24T12:50:38.000Z</time>
      </trkpt>
      <trkpt lat="43.50649" lon="6.37485">
        <ele>325</ele>
        <time>2021-11-24T12:50:39.000Z</time>
      </trkpt>
      <trkpt lat="43.5065" lon="6.37485">
        <ele>325</ele>
        <time>2021-11-24T12:50:40.000Z</time>
      </trkpt>
      <trkpt lat="43.5065" lon="6.37485">
        <ele>325</ele>
        <time>2021-11-24T12:50:41.000Z</time>
      </trkpt>
      <trkpt lat="43.50651" lon="6.37484">
        <ele>325</ele>
        <time>2021-11-24T12:50:42.000Z</time>
      </trkpt>
      <trkpt lat="43.50651" lon="6.37484">
        <ele>325</ele>
        <time>2021-11-24T12:50:43.000Z</time>
      </trkpt>
      <trkpt lat="43.50652" lon="6.37485">
        <ele>325</ele>
        <time>2021-11-24T12:50:44.000Z</time>
      </trkpt>
      <trkpt lat="43.50652" lon="6.37484">
        <ele>325</ele>
        <time>2021-11-24T12:50:45.000Z</time>
      </trkpt>
      <trkpt lat="43.50653" lon="6.37484">
        <ele>325</ele>
        <time>2021-11-24T12:50:46.000Z</time>
      </trkpt>
      <trkpt lat="43.50653" lon="6.37484">
        <ele>325</ele>
        <time>2021-11-24T12:50:47.000Z</time>
      </trkpt>
      <trkpt lat="43.50654" lon="6.37484">
        <ele>325</ele>
        <time>2021-11-24T12:50:48.000Z</time>
      </trkpt>
      <trkpt lat="43.50654" lon="6.37483">
        <ele>325</ele>
        <time>2021-11-24T12:50:49.000Z</time>
      </trkpt>
      <trkpt lat="43.50655" lon="6.37483">
        <ele>325</ele>
        <time>2021-11-24T12:50:50.000Z</time>
      </trkpt>
      <trkpt lat="43.50655" lon="6.37483">
        <ele>325</ele>
        <time>2021-11-24T12:50:51.000Z</time>
      </trkpt>
      <trkpt lat="43.50655" lon="6.37483">
        <ele>325</ele>
        <time>2021-11-24T12:50:52.000Z</time>
      </trkpt>
      <trkpt lat="43.50655" lon="6.37482">
        <ele>325</ele>
        <time>2021-11-24T12:50:53.000Z</time>
      </trkpt>
      <trkpt lat="43.50655" lon="6.37482">
        <ele>324</ele>
        <time>2021-11-24T12:50:54.000Z</time>
      </trkpt>
      <trkpt lat="43.50656" lon="6.37482">
        <ele>324</ele>
        <time>2021-11-24T12:50:55.000Z</time>
      </trkpt>
      <trkpt lat="43.50656" lon="6.37481">
        <ele>324</ele>
        <time>2021-11-24T12:50:56.000Z</time>
      </trkpt>
      <trkpt lat="43.50657" lon="6.37481">
        <ele>324</ele>
        <time>2021-11-24T12:50:57.000Z</time>
      </trkpt>
      <trkpt lat="43.50658" lon="6.3748">
        <ele>324</ele>
        <time>2021-11-24T12:50:58.000Z</time>
      </trkpt>
      <trkpt lat="43.50659" lon="6.37479">
        <ele>323</ele>
        <time>2021-11-24T12:50:59.000Z</time>
      </trkpt>
      <trkpt lat="43.5066" lon="6.37478">
        <ele>323</ele>
        <time>2021-11-24T12:51:00.000Z</time>
      </trkpt>
      <trkpt lat="43.5066" lon="6.37477">
        <ele>323</ele>
        <time>2021-11-24T12:51:01.000Z</time>
      </trkpt>
      <trkpt lat="43.50661" lon="6.37476">
        <ele>323</ele>
        <time>2021-11-24T12:51:02.000Z</time>
      </trkpt>
      <trkpt lat="43.50662" lon="6.37476">
        <ele>323</ele>
        <time>2021-11-24T12:51:03.000Z</time>
      </trkpt>
      <trkpt lat="43.50664" lon="6.37476">
        <ele>322</ele>
        <time>2021-11-24T12:51:04.000Z</time>
      </trkpt>
      <trkpt lat="43.50665" lon="6.37475">
        <ele>322</ele>
        <time>2021-11-24T12:51:05.000Z</time>
      </trkpt>
      <trkpt lat="43.50666" lon="6.37475">
        <ele>322</ele>
        <time>2021-11-24T12:51:06.000Z</time>
      </trkpt>
      <trkpt lat="43.50667" lon="6.37474">
        <ele>321</ele>
        <time>2021-11-24T12:51:07.000Z</time>
      </trkpt>
      <trkpt lat="43.50668" lon="6.37474">
        <ele>321</ele>
        <time>2021-11-24T12:51:08.000Z</time>
      </trkpt>
      <trkpt lat="43.50669" lon="6.37474">
        <ele>321</ele>
        <time>2021-11-24T12:51:09.000Z</time>
      </trkpt>
      <trkpt lat="43.5067" lon="6.37473">
        <ele>321</ele>
        <time>2021-11-24T12:51:10.000Z</time>
      </trkpt>
      <trkpt lat="43.50671" lon="6.37473">
        <ele>321</ele>
        <time>2021-11-24T12:51:11.000Z</time>
      </trkpt>
      <trkpt lat="43.50672" lon="6.37473">
        <ele>321</ele>
        <time>2021-11-24T12:51:12.000Z</time>
      </trkpt>
      <trkpt lat="43.50673" lon="6.37472">
        <ele>322</ele>
        <time>2021-11-24T12:51:13.000Z</time>
      </trkpt>
      <trkpt lat="43.50673" lon="6.37472">
        <ele>322</ele>
        <time>2021-11-24T12:51:14.000Z</time>
      </trkpt>
      <trkpt lat="43.50674" lon="6.37472">
        <ele>322</ele>
        <time>2021-11-24T12:51:15.000Z</time>
      </trkpt>
      <trkpt lat="43.50674" lon="6.37472">
        <ele>322</ele>
        <time>2021-11-24T12:51:16.000Z</time>
      </trkpt>
      <trkpt lat="43.50675" lon="6.37472">
        <ele>322</ele>
        <time>2021-11-24T12:51:17.000Z</time>
      </trkpt>
      <trkpt lat="43.50675" lon="6.37471">
        <ele>322</ele>
        <time>2021-11-24T12:51:18.000Z</time>
      </trkpt>
      <trkpt lat="43.50676" lon="6.37471">
        <ele>322</ele>
        <time>2021-11-24T12:51:19.000Z</time>
      </trkpt>
      <trkpt lat="43.50677" lon="6.37471">
        <ele>321</ele>
        <time>2021-11-24T12:51:20.000Z</time>
      </trkpt>
      <trkpt lat="43.50678" lon="6.3747">
        <ele>321</ele>
        <time>2021-11-24T12:51:21.000Z</time>
      </trkpt>
      <trkpt lat="43.50679" lon="6.3747">
        <ele>321</ele>
        <time>2021-11-24T12:51:22.000Z</time>
      </trkpt>
      <trkpt lat="43.5068" lon="6.37469">
        <ele>321</ele>
        <time>2021-11-24T12:51:23.000Z</time>
      </trkpt>
      <trkpt lat="43.5068" lon="6.37469">
        <ele>321</ele>
        <time>2021-11-24T12:51:24.000Z</time>
      </trkpt>
      <trkpt lat="43.50681" lon="6.37469">
        <ele>321</ele>
        <time>2021-11-24T12:51:25.000Z</time>
      </trkpt>
      <trkpt lat="43.50681" lon="6.37469">
        <ele>321</ele>
        <time>2021-11-24T12:51:26.000Z</time>
      </trkpt>
      <trkpt lat="43.50682" lon="6.37468">
        <ele>321</ele>
        <time>2021-11-24T12:51:27.000Z</time>
      </trkpt>
      <trkpt lat="43.50683" lon="6.37468">
        <ele>321</ele>
        <time>2021-11-24T12:51:28.000Z</time>
      </trkpt>
      <trkpt lat="43.50683" lon="6.37467">
        <ele>321</ele>
        <time>2021-11-24T12:51:29.000Z</time>
      </trkpt>
      <trkpt lat="43.50684" lon="6.37467">
        <ele>321</ele>
        <time>2021-11-24T12:51:30.000Z</time>
      </trkpt>
      <trkpt lat="43.50684" lon="6.37467">
        <ele>321</ele>
        <time>2021-11-24T12:51:31.000Z</time>
      </trkpt>
      <trkpt lat="43.50684" lon="6.37467">
        <ele>320</ele>
        <time>2021-11-24T12:51:32.000Z</time>
      </trkpt>
      <trkpt lat="43.50685" lon="6.37466">
        <ele>320</ele>
        <time>2021-11-24T12:51:33.000Z</time>
      </trkpt>
      <trkpt lat="43.50685" lon="6.37466">
        <ele>320</ele>
        <time>2021-11-24T12:51:34.000Z</time>
      </trkpt>
      <trkpt lat="43.50686" lon="6.37465">
        <ele>320</ele>
        <time>2021-11-24T12:51:35.000Z</time>
      </trkpt>
      <trkpt lat="43.50687" lon="6.37464">
        <ele>320</ele>
        <time>2021-11-24T12:51:36.000Z</time>
      </trkpt>
      <trkpt lat="43.50688" lon="6.37464">
        <ele>320</ele>
        <time>2021-11-24T12:51:37.000Z</time>
      </trkpt>
      <trkpt lat="43.50689" lon="6.37464">
        <ele>320</ele>
        <time>2021-11-24T12:51:38.000Z</time>
      </trkpt>
      <trkpt lat="43.5069" lon="6.37463">
        <ele>320</ele>
        <time>2021-11-24T12:51:39.000Z</time>
      </trkpt>
      <trkpt lat="43.50691" lon="6.37463">
        <ele>319</ele>
        <time>2021-11-24T12:51:40.000Z</time>
      </trkpt>
      <trkpt lat="43.50692" lon="6.37462">
        <ele>319</ele>
        <time>2021-11-24T12:51:41.000Z</time>
      </trkpt>
      <trkpt lat="43.50693" lon="6.37461">
        <ele>319</ele>
        <time>2021-11-24T12:51:42.000Z</time>
      </trkpt>
      <trkpt lat="43.50694" lon="6.3746">
        <ele>319</ele>
        <time>2021-11-24T12:51:43.000Z</time>
      </trkpt>
      <trkpt lat="43.50695" lon="6.3746">
        <ele>319</ele>
        <time>2021-11-24T12:51:44.000Z</time>
      </trkpt>
      <trkpt lat="43.50696" lon="6.37459">
        <ele>319</ele>
        <time>2021-11-24T12:51:45.000Z</time>
      </trkpt>
      <trkpt lat="43.50697" lon="6.37458">
        <ele>318</ele>
        <time>2021-11-24T12:51:46.000Z</time>
      </trkpt>
      <trkpt lat="43.50698" lon="6.37458">
        <ele>318</ele>
        <time>2021-11-24T12:51:47.000Z</time>
      </trkpt>
      <trkpt lat="43.50698" lon="6.37457">
        <ele>318</ele>
        <time>2021-11-24T12:51:48.000Z</time>
      </trkpt>
      <trkpt lat="43.50699" lon="6.37457">
        <ele>317</ele>
        <time>2021-11-24T12:51:49.000Z</time>
      </trkpt>
      <trkpt lat="43.507" lon="6.37456">
        <ele>316</ele>
        <time>2021-11-24T12:51:50.000Z</time>
      </trkpt>
      <trkpt lat="43.50701" lon="6.37456">
        <ele>316</ele>
        <time>2021-11-24T12:51:51.000Z</time>
      </trkpt>
      <trkpt lat="43.50702" lon="6.37455">
        <ele>316</ele>
        <time>2021-11-24T12:51:52.000Z</time>
      </trkpt>
      <trkpt lat="43.50703" lon="6.37455">
        <ele>316</ele>
        <time>2021-11-24T12:51:53.000Z</time>
      </trkpt>
      <trkpt lat="43.50704" lon="6.37455">
        <ele>316</ele>
        <time>2021-11-24T12:51:54.000Z</time>
      </trkpt>
      <trkpt lat="43.50705" lon="6.37454">
        <ele>316</ele>
        <time>2021-11-24T12:51:55.000Z</time>
      </trkpt>
      <trkpt lat="43.50706" lon="6.37454">
        <ele>316</ele>
        <time>2021-11-24T12:51:56.000Z</time>
      </trkpt>
      <trkpt lat="43.50706" lon="6.37453">
        <ele>316</ele>
        <time>2021-11-24T12:51:57.000Z</time>
      </trkpt>
      <trkpt lat="43.50707" lon="6.37453">
        <ele>316</ele>
        <time>2021-11-24T12:51:58.000Z</time>
      </trkpt>
      <trkpt lat="43.50708" lon="6.37452">
        <ele>315</ele>
        <time>2021-11-24T12:51:59.000Z</time>
      </trkpt>
      <trkpt lat="43.50709" lon="6.37452">
        <ele>315</ele>
        <time>2021-11-24T12:52:00.000Z</time>
      </trkpt>
      <trkpt lat="43.50709" lon="6.37451">
        <ele>315</ele>
        <time>2021-11-24T12:52:01.000Z</time>
      </trkpt>
      <trkpt lat="43.5071" lon="6.37451">
        <ele>315</ele>
        <time>2021-11-24T12:52:02.000Z</time>
      </trkpt>
      <trkpt lat="43.50711" lon="6.3745">
        <ele>315</ele>
        <time>2021-11-24T12:52:03.000Z</time>
      </trkpt>
      <trkpt lat="43.50712" lon="6.3745">
        <ele>315</ele>
        <time>2021-11-24T12:52:04.000Z</time>
      </trkpt>
      <trkpt lat="43.50713" lon="6.3745">
        <ele>315</ele>
        <time>2021-11-24T12:52:05.000Z</time>
      </trkpt>
      <trkpt lat="43.50713" lon="6.3745">
        <ele>315</ele>
        <time>2021-11-24T12:52:06.000Z</time>
      </trkpt>
      <trkpt lat="43.50714" lon="6.3745">
        <ele>315</ele>
        <time>2021-11-24T12:52:07.000Z</time>
      </trkpt>
      <trkpt lat="43.50715" lon="6.37449">
        <ele>315</ele>
        <time>2021-11-24T12:52:08.000Z</time>
      </trkpt>
      <trkpt lat="43.50715" lon="6.37449">
        <ele>315</ele>
        <time>2021-11-24T12:52:09.000Z</time>
      </trkpt>
      <trkpt lat="43.50716" lon="6.37449">
        <ele>315</ele>
        <time>2021-11-24T12:52:10.000Z</time>
      </trkpt>
      <trkpt lat="43.50716" lon="6.37449">
        <ele>315</ele>
        <time>2021-11-24T12:52:11.000Z</time>
      </trkpt>
      <trkpt lat="43.50717" lon="6.37448">
        <ele>316</ele>
        <time>2021-11-24T12:52:12.000Z</time>
      </trkpt>
      <trkpt lat="43.50718" lon="6.37448">
        <ele>316</ele>
        <time>2021-11-24T12:52:13.000Z</time>
      </trkpt>
      <trkpt lat="43.50718" lon="6.37448">
        <ele>316</ele>
        <time>2021-11-24T12:52:14.000Z</time>
      </trkpt>
      <trkpt lat="43.5072" lon="6.37447">
        <ele>316</ele>
        <time>2021-11-24T12:52:15.000Z</time>
      </trkpt>
      <trkpt lat="43.5072" lon="6.37447">
        <ele>316</ele>
        <time>2021-11-24T12:52:16.000Z</time>
      </trkpt>
      <trkpt lat="43.50721" lon="6.37447">
        <ele>316</ele>
        <time>2021-11-24T12:52:17.000Z</time>
      </trkpt>
      <trkpt lat="43.50723" lon="6.37446">
        <ele>316</ele>
        <time>2021-11-24T12:52:18.000Z</time>
      </trkpt>
      <trkpt lat="43.50724" lon="6.37446">
        <ele>316</ele>
        <time>2021-11-24T12:52:19.000Z</time>
      </trkpt>
      <trkpt lat="43.50725" lon="6.37445">
        <ele>316</ele>
        <time>2021-11-24T12:52:20.000Z</time>
      </trkpt>
      <trkpt lat="43.50726" lon="6.37445">
        <ele>316</ele>
        <time>2021-11-24T12:52:21.000Z</time>
      </trkpt>
      <trkpt lat="43.50727" lon="6.37445">
        <ele>316</ele>
        <time>2021-11-24T12:52:22.000Z</time>
      </trkpt>
      <trkpt lat="43.50727" lon="6.37445">
        <ele>316</ele>
        <time>2021-11-24T12:52:23.000Z</time>
      </trkpt>
      <trkpt lat="43.50728" lon="6.37445">
        <ele>315</ele>
        <time>2021-11-24T12:52:24.000Z</time>
      </trkpt>
      <trkpt lat="43.50729" lon="6.37444">
        <ele>315</ele>
        <time>2021-11-24T12:52:25.000Z</time>
      </trkpt>
      <trkpt lat="43.5073" lon="6.37444">
        <ele>315</ele>
        <time>2021-11-24T12:52:26.000Z</time>
      </trkpt>
      <trkpt lat="43.50731" lon="6.37444">
        <ele>315</ele>
        <time>2021-11-24T12:52:27.000Z</time>
      </trkpt>
      <trkpt lat="43.50732" lon="6.37444">
        <ele>315</ele>
        <time>2021-11-24T12:52:28.000Z</time>
      </trkpt>
      <trkpt lat="43.50732" lon="6.37443">
        <ele>315</ele>
        <time>2021-11-24T12:52:29.000Z</time>
      </trkpt>
      <trkpt lat="43.50733" lon="6.37443">
        <ele>315</ele>
        <time>2021-11-24T12:52:30.000Z</time>
      </trkpt>
      <trkpt lat="43.50733" lon="6.37443">
        <ele>315</ele>
        <time>2021-11-24T12:52:31.000Z</time>
      </trkpt>
      <trkpt lat="43.50734" lon="6.37443">
        <ele>315</ele>
        <time>2021-11-24T12:52:32.000Z</time>
      </trkpt>
      <trkpt lat="43.50734" lon="6.37443">
        <ele>315</ele>
        <time>2021-11-24T12:52:33.000Z</time>
      </trkpt>
      <trkpt lat="43.50734" lon="6.37443">
        <ele>315</ele>
        <time>2021-11-24T12:52:34.000Z</time>
      </trkpt>
      <trkpt lat="43.50734" lon="6.37443">
        <ele>315</ele>
        <time>2021-11-24T12:52:35.000Z</time>
      </trkpt>
      <trkpt lat="43.50735" lon="6.37444">
        <ele>315</ele>
        <time>2021-11-24T12:52:36.000Z</time>
      </trkpt>
      <trkpt lat="43.50735" lon="6.37444">
        <ele>315</ele>
        <time>2021-11-24T12:52:37.000Z</time>
      </trkpt>
      <trkpt lat="43.50735" lon="6.37444">
        <ele>315</ele>
        <time>2021-11-24T12:52:38.000Z</time>
      </trkpt>
      <trkpt lat="43.50735" lon="6.37443">
        <ele>315</ele>
        <time>2021-11-24T12:52:39.000Z</time>
      </trkpt>
      <trkpt lat="43.50735" lon="6.37443">
        <ele>315</ele>
        <time>2021-11-24T12:52:40.000Z</time>
      </trkpt>
      <trkpt lat="43.50736" lon="6.37443">
        <ele>315</ele>
        <time>2021-11-24T12:52:41.000Z</time>
      </trkpt>
      <trkpt lat="43.50736" lon="6.37443">
        <ele>315</ele>
        <time>2021-11-24T12:52:42.000Z</time>
      </trkpt>
      <trkpt lat="43.50737" lon="6.37443">
        <ele>315</ele>
        <time>2021-11-24T12:52:43.000Z</time>
      </trkpt>
      <trkpt lat="43.50738" lon="6.37443">
        <ele>315</ele>
        <time>2021-11-24T12:52:44.000Z</time>
      </trkpt>
      <trkpt lat="43.50738" lon="6.37443">
        <ele>315</ele>
        <time>2021-11-24T12:52:45.000Z</time>
      </trkpt>
      <trkpt lat="43.50738" lon="6.37442">
        <ele>315</ele>
        <time>2021-11-24T12:52:46.000Z</time>
      </trkpt>
      <trkpt lat="43.50739" lon="6.37442">
        <ele>315</ele>
        <time>2021-11-24T12:52:47.000Z</time>
      </trkpt>
      <trkpt lat="43.50739" lon="6.37442">
        <ele>315</ele>
        <time>2021-11-24T12:52:48.000Z</time>
      </trkpt>
      <trkpt lat="43.5074" lon="6.37442">
        <ele>315</ele>
        <time>2021-11-24T12:52:49.000Z</time>
      </trkpt>
      <trkpt lat="43.50741" lon="6.37442">
        <ele>315</ele>
        <time>2021-11-24T12:52:50.000Z</time>
      </trkpt>
      <trkpt lat="43.50742" lon="6.37441">
        <ele>315</ele>
        <time>2021-11-24T12:52:51.000Z</time>
      </trkpt>
      <trkpt lat="43.50742" lon="6.37441">
        <ele>315</ele>
        <time>2021-11-24T12:52:52.000Z</time>
      </trkpt>
      <trkpt lat="43.50743" lon="6.37441">
        <ele>315</ele>
        <time>2021-11-24T12:52:53.000Z</time>
      </trkpt>
      <trkpt lat="43.50744" lon="6.37441">
        <ele>315</ele>
        <time>2021-11-24T12:52:54.000Z</time>
      </trkpt>
      <trkpt lat="43.50745" lon="6.37441">
        <ele>315</ele>
        <time>2021-11-24T12:52:55.000Z</time>
      </trkpt>
      <trkpt lat="43.50745" lon="6.3744">
        <ele>315</ele>
        <time>2021-11-24T12:52:56.000Z</time>
      </trkpt>
      <trkpt lat="43.50746" lon="6.3744">
        <ele>315</ele>
        <time>2021-11-24T12:52:57.000Z</time>
      </trkpt>
      <trkpt lat="43.50748" lon="6.3744">
        <ele>315</ele>
        <time>2021-11-24T12:52:58.000Z</time>
      </trkpt>
      <trkpt lat="43.50748" lon="6.3744">
        <ele>315</ele>
        <time>2021-11-24T12:52:59.000Z</time>
      </trkpt>
      <trkpt lat="43.50749" lon="6.3744">
        <ele>314</ele>
        <time>2021-11-24T12:53:00.000Z</time>
      </trkpt>
      <trkpt lat="43.5075" lon="6.37439">
        <ele>314</ele>
        <time>2021-11-24T12:53:01.000Z</time>
      </trkpt>
      <trkpt lat="43.5075" lon="6.37439">
        <ele>314</ele>
        <time>2021-11-24T12:53:02.000Z</time>
      </trkpt>
      <trkpt lat="43.50751" lon="6.37439">
        <ele>314</ele>
        <time>2021-11-24T12:53:03.000Z</time>
      </trkpt>
      <trkpt lat="43.50751" lon="6.37438">
        <ele>314</ele>
        <time>2021-11-24T12:53:04.000Z</time>
      </trkpt>
      <trkpt lat="43.50751" lon="6.37437">
        <ele>314</ele>
        <time>2021-11-24T12:53:05.000Z</time>
      </trkpt>
      <trkpt lat="43.50752" lon="6.37436">
        <ele>314</ele>
        <time>2021-11-24T12:53:06.000Z</time>
      </trkpt>
      <trkpt lat="43.50752" lon="6.37435">
        <ele>314</ele>
        <time>2021-11-24T12:53:07.000Z</time>
      </trkpt>
      <trkpt lat="43.50752" lon="6.37434">
        <ele>314</ele>
        <time>2021-11-24T12:53:08.000Z</time>
      </trkpt>
      <trkpt lat="43.50753" lon="6.37433">
        <ele>314</ele>
        <time>2021-11-24T12:53:09.000Z</time>
      </trkpt>
      <trkpt lat="43.50753" lon="6.37432">
        <ele>314</ele>
        <time>2021-11-24T12:53:10.000Z</time>
      </trkpt>
      <trkpt lat="43.50754" lon="6.37431">
        <ele>314</ele>
        <time>2021-11-24T12:53:11.000Z</time>
      </trkpt>
      <trkpt lat="43.50754" lon="6.3743">
        <ele>314</ele>
        <time>2021-11-24T12:53:12.000Z</time>
      </trkpt>
      <trkpt lat="43.50755" lon="6.37428">
        <ele>313</ele>
        <time>2021-11-24T12:53:13.000Z</time>
      </trkpt>
      <trkpt lat="43.50756" lon="6.37427">
        <ele>313</ele>
        <time>2021-11-24T12:53:14.000Z</time>
      </trkpt>
      <trkpt lat="43.50757" lon="6.37425">
        <ele>313</ele>
        <time>2021-11-24T12:53:15.000Z</time>
      </trkpt>
      <trkpt lat="43.50758" lon="6.37424">
        <ele>313</ele>
        <time>2021-11-24T12:53:16.000Z</time>
      </trkpt>
      <trkpt lat="43.50758" lon="6.37423">
        <ele>313</ele>
        <time>2021-11-24T12:53:17.000Z</time>
      </trkpt>
      <trkpt lat="43.50759" lon="6.37423">
        <ele>313</ele>
        <time>2021-11-24T12:53:18.000Z</time>
      </trkpt>
      <trkpt lat="43.50759" lon="6.37423">
        <ele>313</ele>
        <time>2021-11-24T12:53:19.000Z</time>
      </trkpt>
      <trkpt lat="43.50759" lon="6.37422">
        <ele>312</ele>
        <time>2021-11-24T12:53:20.000Z</time>
      </trkpt>
      <trkpt lat="43.5076" lon="6.37422">
        <ele>312</ele>
        <time>2021-11-24T12:53:21.000Z</time>
      </trkpt>
      <trkpt lat="43.5076" lon="6.37421">
        <ele>312</ele>
        <time>2021-11-24T12:53:22.000Z</time>
      </trkpt>
      <trkpt lat="43.50761" lon="6.37421">
        <ele>312</ele>
        <time>2021-11-24T12:53:23.000Z</time>
      </trkpt>
      <trkpt lat="43.50761" lon="6.3742">
        <ele>311</ele>
        <time>2021-11-24T12:53:24.000Z</time>
      </trkpt>
      <trkpt lat="43.50762" lon="6.3742">
        <ele>311</ele>
        <time>2021-11-24T12:53:25.000Z</time>
      </trkpt>
      <trkpt lat="43.50762" lon="6.37419">
        <ele>311</ele>
        <time>2021-11-24T12:53:26.000Z</time>
      </trkpt>
      <trkpt lat="43.50763" lon="6.37419">
        <ele>311</ele>
        <time>2021-11-24T12:53:27.000Z</time>
      </trkpt>
      <trkpt lat="43.50764" lon="6.37418">
        <ele>311</ele>
        <time>2021-11-24T12:53:28.000Z</time>
      </trkpt>
      <trkpt lat="43.50765" lon="6.37417">
        <ele>310</ele>
        <time>2021-11-24T12:53:29.000Z</time>
      </trkpt>
      <trkpt lat="43.50766" lon="6.37416">
        <ele>310</ele>
        <time>2021-11-24T12:53:30.000Z</time>
      </trkpt>
      <trkpt lat="43.50766" lon="6.37416">
        <ele>310</ele>
        <time>2021-11-24T12:53:31.000Z</time>
      </trkpt>
      <trkpt lat="43.50767" lon="6.37415">
        <ele>310</ele>
        <time>2021-11-24T12:53:32.000Z</time>
      </trkpt>
      <trkpt lat="43.50768" lon="6.37414">
        <ele>310</ele>
        <time>2021-11-24T12:53:33.000Z</time>
      </trkpt>
      <trkpt lat="43.5077" lon="6.37413">
        <ele>309</ele>
        <time>2021-11-24T12:53:34.000Z</time>
      </trkpt>
      <trkpt lat="43.50771" lon="6.37413">
        <ele>308</ele>
        <time>2021-11-24T12:53:35.000Z</time>
      </trkpt>
      <trkpt lat="43.50772" lon="6.37412">
        <ele>308</ele>
        <time>2021-11-24T12:53:36.000Z</time>
      </trkpt>
      <trkpt lat="43.50773" lon="6.37412">
        <ele>308</ele>
        <time>2021-11-24T12:53:37.000Z</time>
      </trkpt>
      <trkpt lat="43.50775" lon="6.37411">
        <ele>308</ele>
        <time>2021-11-24T12:53:38.000Z</time>
      </trkpt>
      <trkpt lat="43.50776" lon="6.3741">
        <ele>307</ele>
        <time>2021-11-24T12:53:39.000Z</time>
      </trkpt>
      <trkpt lat="43.50777" lon="6.3741">
        <ele>307</ele>
        <time>2021-11-24T12:53:40.000Z</time>
      </trkpt>
      <trkpt lat="43.50778" lon="6.37409">
        <ele>307</ele>
        <time>2021-11-24T12:53:41.000Z</time>
      </trkpt>
      <trkpt lat="43.50779" lon="6.37409">
        <ele>307</ele>
        <time>2021-11-24T12:53:42.000Z</time>
      </trkpt>
      <trkpt lat="43.5078" lon="6.37409">
        <ele>307</ele>
        <time>2021-11-24T12:53:43.000Z</time>
      </trkpt>
      <trkpt lat="43.5078" lon="6.37408">
        <ele>307</ele>
        <time>2021-11-24T12:53:44.000Z</time>
      </trkpt>
      <trkpt lat="43.50781" lon="6.37408">
        <ele>307</ele>
        <time>2021-11-24T12:53:45.000Z</time>
      </trkpt>
      <trkpt lat="43.50781" lon="6.37408">
        <ele>306</ele>
        <time>2021-11-24T12:53:46.000Z</time>
      </trkpt>
      <trkpt lat="43.50781" lon="6.37407">
        <ele>306</ele>
        <time>2021-11-24T12:53:47.000Z</time>
      </trkpt>
      <trkpt lat="43.50782" lon="6.37407">
        <ele>306</ele>
        <time>2021-11-24T12:53:48.000Z</time>
      </trkpt>
      <trkpt lat="43.50782" lon="6.37406">
        <ele>306</ele>
        <time>2021-11-24T12:53:49.000Z</time>
      </trkpt>
      <trkpt lat="43.50783" lon="6.37405">
        <ele>306</ele>
        <time>2021-11-24T12:53:50.000Z</time>
      </trkpt>
      <trkpt lat="43.50784" lon="6.37405">
        <ele>306</ele>
        <time>2021-11-24T12:53:51.000Z</time>
      </trkpt>
      <trkpt lat="43.50784" lon="6.37404">
        <ele>306</ele>
        <time>2021-11-24T12:53:52.000Z</time>
      </trkpt>
      <trkpt lat="43.50785" lon="6.37404">
        <ele>306</ele>
        <time>2021-11-24T12:53:53.000Z</time>
      </trkpt>
      <trkpt lat="43.50786" lon="6.37403">
        <ele>306</ele>
        <time>2021-11-24T12:53:54.000Z</time>
      </trkpt>
      <trkpt lat="43.50786" lon="6.37403">
        <ele>306</ele>
        <time>2021-11-24T12:53:55.000Z</time>
      </trkpt>
      <trkpt lat="43.50787" lon="6.37402">
        <ele>306</ele>
        <time>2021-11-24T12:53:56.000Z</time>
      </trkpt>
      <trkpt lat="43.50788" lon="6.37402">
        <ele>305</ele>
        <time>2021-11-24T12:53:57.000Z</time>
      </trkpt>
      <trkpt lat="43.50788" lon="6.37402">
        <ele>305</ele>
        <time>2021-11-24T12:53:58.000Z</time>
      </trkpt>
      <trkpt lat="43.50789" lon="6.37401">
        <ele>304</ele>
        <time>2021-11-24T12:53:59.000Z</time>
      </trkpt>
      <trkpt lat="43.50789" lon="6.37401">
        <ele>304</ele>
        <time>2021-11-24T12:54:00.000Z</time>
      </trkpt>
      <trkpt lat="43.50789" lon="6.37401">
        <ele>304</ele>
        <time>2021-11-24T12:54:01.000Z</time>
      </trkpt>
      <trkpt lat="43.5079" lon="6.374">
        <ele>304</ele>
        <time>2021-11-24T12:54:02.000Z</time>
      </trkpt>
      <trkpt lat="43.50791" lon="6.37399">
        <ele>304</ele>
        <time>2021-11-24T12:54:03.000Z</time>
      </trkpt>
      <trkpt lat="43.50792" lon="6.37399">
        <ele>304</ele>
        <time>2021-11-24T12:54:04.000Z</time>
      </trkpt>
      <trkpt lat="43.50792" lon="6.37398">
        <ele>304</ele>
        <time>2021-11-24T12:54:05.000Z</time>
      </trkpt>
      <trkpt lat="43.50793" lon="6.37398">
        <ele>304</ele>
        <time>2021-11-24T12:54:06.000Z</time>
      </trkpt>
      <trkpt lat="43.50793" lon="6.37398">
        <ele>304</ele>
        <time>2021-11-24T12:54:07.000Z</time>
      </trkpt>
      <trkpt lat="43.50794" lon="6.37397">
        <ele>304</ele>
        <time>2021-11-24T12:54:08.000Z</time>
      </trkpt>
      <trkpt lat="43.50794" lon="6.37397">
        <ele>304</ele>
        <time>2021-11-24T12:54:09.000Z</time>
      </trkpt>
      <trkpt lat="43.50795" lon="6.37397">
        <ele>304</ele>
        <time>2021-11-24T12:54:10.000Z</time>
      </trkpt>
      <trkpt lat="43.50795" lon="6.37397">
        <ele>304</ele>
        <time>2021-11-24T12:54:11.000Z</time>
      </trkpt>
      <trkpt lat="43.50795" lon="6.37396">
        <ele>304</ele>
        <time>2021-11-24T12:54:12.000Z</time>
      </trkpt>
      <trkpt lat="43.50796" lon="6.37395">
        <ele>304</ele>
        <time>2021-11-24T12:54:13.000Z</time>
      </trkpt>
      <trkpt lat="43.50796" lon="6.37395">
        <ele>304</ele>
        <time>2021-11-24T12:54:14.000Z</time>
      </trkpt>
      <trkpt lat="43.50797" lon="6.37394">
        <ele>303</ele>
        <time>2021-11-24T12:54:15.000Z</time>
      </trkpt>
      <trkpt lat="43.50797" lon="6.37394">
        <ele>303</ele>
        <time>2021-11-24T12:54:16.000Z</time>
      </trkpt>
      <trkpt lat="43.50798" lon="6.37393">
        <ele>303</ele>
        <time>2021-11-24T12:54:17.000Z</time>
      </trkpt>
      <trkpt lat="43.50798" lon="6.37393">
        <ele>303</ele>
        <time>2021-11-24T12:54:18.000Z</time>
      </trkpt>
      <trkpt lat="43.50798" lon="6.37393">
        <ele>303</ele>
        <time>2021-11-24T12:54:19.000Z</time>
      </trkpt>
      <trkpt lat="43.50798" lon="6.37393">
        <ele>303</ele>
        <time>2021-11-24T12:54:20.000Z</time>
      </trkpt>
      <trkpt lat="43.50799" lon="6.37392">
        <ele>303</ele>
        <time>2021-11-24T12:54:21.000Z</time>
      </trkpt>
      <trkpt lat="43.50799" lon="6.37392">
        <ele>303</ele>
        <time>2021-11-24T12:54:22.000Z</time>
      </trkpt>
      <trkpt lat="43.50799" lon="6.37391">
        <ele>303</ele>
        <time>2021-11-24T12:54:23.000Z</time>
      </trkpt>
      <trkpt lat="43.50799" lon="6.37391">
        <ele>303</ele>
        <time>2021-11-24T12:54:24.000Z</time>
      </trkpt>
      <trkpt lat="43.50799" lon="6.37391">
        <ele>303</ele>
        <time>2021-11-24T12:54:25.000Z</time>
      </trkpt>
      <trkpt lat="43.50799" lon="6.37391">
        <ele>303</ele>
        <time>2021-11-24T12:54:26.000Z</time>
      </trkpt>
      <trkpt lat="43.50799" lon="6.37391">
        <ele>303</ele>
        <time>2021-11-24T12:54:27.000Z</time>
      </trkpt>
      <trkpt lat="43.50799" lon="6.37391">
        <ele>303</ele>
        <time>2021-11-24T12:54:28.000Z</time>
      </trkpt>
      <trkpt lat="43.50799" lon="6.37391">
        <ele>303</ele>
        <time>2021-11-24T12:54:29.000Z</time>
      </trkpt>
      <trkpt lat="43.50799" lon="6.37391">
        <ele>303</ele>
        <time>2021-11-24T12:54:30.000Z</time>
      </trkpt>
      <trkpt lat="43.50799" lon="6.37391">
        <ele>303</ele>
        <time>2021-11-24T12:54:31.000Z</time>
      </trkpt>
      <trkpt lat="43.50799" lon="6.37391">
        <ele>303</ele>
        <time>2021-11-24T12:54:32.000Z</time>
      </trkpt>
      <trkpt lat="43.50799" lon="6.37391">
        <ele>303</ele>
        <time>2021-11-24T12:54:33.000Z</time>
      </trkpt>
      <trkpt lat="43.50799" lon="6.37391">
        <ele>303</ele>
        <time>2021-11-24T12:54:34.000Z</time>
      </trkpt>
      <trkpt lat="43.50799" lon="6.37391">
        <ele>303</ele>
        <time>2021-11-24T12:54:35.000Z</time>
      </trkpt>
      <trkpt lat="43.50799" lon="6.37391">
        <ele>303</ele>
        <time>2021-11-24T12:54:36.000Z</time>
      </trkpt>
      <trkpt lat="43.50799" lon="6.37391">
        <ele>303</ele>
        <time>2021-11-24T12:54:37.000Z</time>
      </trkpt>
      <trkpt lat="43.50799" lon="6.37391">
        <ele>303</ele>
        <time>2021-11-24T12:54:38.000Z</time>
      </trkpt>
      <trkpt lat="43.50799" lon="6.37391">
        <ele>303</ele>
        <time>2021-11-24T12:54:39.000Z</time>
      </trkpt>
      <trkpt lat="43.508" lon="6.3739">
        <ele>303</ele>
        <time>2021-11-24T12:54:40.000Z</time>
      </trkpt>
      <trkpt lat="43.50801" lon="6.3739">
        <ele>303</ele>
        <time>2021-11-24T12:54:41.000Z</time>
      </trkpt>
      <trkpt lat="43.50801" lon="6.3739">
        <ele>303</ele>
        <time>2021-11-24T12:54:42.000Z</time>
      </trkpt>
      <trkpt lat="43.50801" lon="6.37389">
        <ele>303</ele>
        <time>2021-11-24T12:54:43.000Z</time>
      </trkpt>
      <trkpt lat="43.50801" lon="6.37388">
        <ele>303</ele>
        <time>2021-11-24T12:54:44.000Z</time>
      </trkpt>
      <trkpt lat="43.50802" lon="6.37387">
        <ele>303</ele>
        <time>2021-11-24T12:54:45.000Z</time>
      </trkpt>
      <trkpt lat="43.50803" lon="6.37385">
        <ele>303</ele>
        <time>2021-11-24T12:54:46.000Z</time>
      </trkpt>
      <trkpt lat="43.50804" lon="6.37383">
        <ele>303</ele>
        <time>2021-11-24T12:54:47.000Z</time>
      </trkpt>
      <trkpt lat="43.50805" lon="6.37381">
        <ele>303</ele>
        <time>2021-11-24T12:54:48.000Z</time>
      </trkpt>
      <trkpt lat="43.50805" lon="6.37379">
        <ele>302</ele>
        <time>2021-11-24T12:54:49.000Z</time>
      </trkpt>
      <trkpt lat="43.50806" lon="6.37378">
        <ele>302</ele>
        <time>2021-11-24T12:54:50.000Z</time>
      </trkpt>
      <trkpt lat="43.50806" lon="6.37377">
        <ele>301</ele>
        <time>2021-11-24T12:54:51.000Z</time>
      </trkpt>
      <trkpt lat="43.50806" lon="6.37376">
        <ele>301</ele>
        <time>2021-11-24T12:54:52.000Z</time>
      </trkpt>
      <trkpt lat="43.50807" lon="6.37374">
        <ele>301</ele>
        <time>2021-11-24T12:54:53.000Z</time>
      </trkpt>
      <trkpt lat="43.50808" lon="6.37372">
        <ele>300</ele>
        <time>2021-11-24T12:54:54.000Z</time>
      </trkpt>
      <trkpt lat="43.50808" lon="6.37371">
        <ele>300</ele>
        <time>2021-11-24T12:54:55.000Z</time>
      </trkpt>
      <trkpt lat="43.50809" lon="6.3737">
        <ele>300</ele>
        <time>2021-11-24T12:54:56.000Z</time>
      </trkpt>
      <trkpt lat="43.50809" lon="6.37369">
        <ele>300</ele>
        <time>2021-11-24T12:54:57.000Z</time>
      </trkpt>
      <trkpt lat="43.5081" lon="6.37368">
        <ele>300</ele>
        <time>2021-11-24T12:54:58.000Z</time>
      </trkpt>
      <trkpt lat="43.50811" lon="6.37365">
        <ele>300</ele>
        <time>2021-11-24T12:54:59.000Z</time>
      </trkpt>
      <trkpt lat="43.50811" lon="6.37362">
        <ele>300</ele>
        <time>2021-11-24T12:55:00.000Z</time>
      </trkpt>
      <trkpt lat="43.50812" lon="6.3736">
        <ele>300</ele>
        <time>2021-11-24T12:55:01.000Z</time>
      </trkpt>
      <trkpt lat="43.50813" lon="6.37358">
        <ele>299</ele>
        <time>2021-11-24T12:55:02.000Z</time>
      </trkpt>
      <trkpt lat="43.50813" lon="6.37357">
        <ele>298</ele>
        <time>2021-11-24T12:55:03.000Z</time>
      </trkpt>
      <trkpt lat="43.50814" lon="6.37355">
        <ele>298</ele>
        <time>2021-11-24T12:55:04.000Z</time>
      </trkpt>
      <trkpt lat="43.50815" lon="6.37353">
        <ele>298</ele>
        <time>2021-11-24T12:55:05.000Z</time>
      </trkpt>
      <trkpt lat="43.50815" lon="6.37352">
        <ele>298</ele>
        <time>2021-11-24T12:55:06.000Z</time>
      </trkpt>
      <trkpt lat="43.50816" lon="6.3735">
        <ele>298</ele>
        <time>2021-11-24T12:55:07.000Z</time>
      </trkpt>
      <trkpt lat="43.50817" lon="6.37348">
        <ele>298</ele>
        <time>2021-11-24T12:55:08.000Z</time>
      </trkpt>
      <trkpt lat="43.50818" lon="6.37347">
        <ele>298</ele>
        <time>2021-11-24T12:55:09.000Z</time>
      </trkpt>
      <trkpt lat="43.50819" lon="6.37345">
        <ele>298</ele>
        <time>2021-11-24T12:55:10.000Z</time>
      </trkpt>
      <trkpt lat="43.50819" lon="6.37343">
        <ele>298</ele>
        <time>2021-11-24T12:55:11.000Z</time>
      </trkpt>
      <trkpt lat="43.5082" lon="6.37341">
        <ele>298</ele>
        <time>2021-11-24T12:55:12.000Z</time>
      </trkpt>
      <trkpt lat="43.50821" lon="6.3734">
        <ele>298</ele>
        <time>2021-11-24T12:55:13.000Z</time>
      </trkpt>
      <trkpt lat="43.50822" lon="6.37339">
        <ele>298</ele>
        <time>2021-11-24T12:55:14.000Z</time>
      </trkpt>
      <trkpt lat="43.50822" lon="6.37338">
        <ele>298</ele>
        <time>2021-11-24T12:55:15.000Z</time>
      </trkpt>
      <trkpt lat="43.50822" lon="6.37337">
        <ele>298</ele>
        <time>2021-11-24T12:55:16.000Z</time>
      </trkpt>
      <trkpt lat="43.50823" lon="6.37336">
        <ele>298</ele>
        <time>2021-11-24T12:55:17.000Z</time>
      </trkpt>
      <trkpt lat="43.50823" lon="6.37336">
        <ele>298</ele>
        <time>2021-11-24T12:55:18.000Z</time>
      </trkpt>
      <trkpt lat="43.50824" lon="6.37334">
        <ele>298</ele>
        <time>2021-11-24T12:55:19.000Z</time>
      </trkpt>
      <trkpt lat="43.50826" lon="6.37332">
        <ele>298</ele>
        <time>2021-11-24T12:55:20.000Z</time>
      </trkpt>
      <trkpt lat="43.50827" lon="6.3733">
        <ele>298</ele>
        <time>2021-11-24T12:55:21.000Z</time>
      </trkpt>
      <trkpt lat="43.50828" lon="6.37329">
        <ele>299</ele>
        <time>2021-11-24T12:55:22.000Z</time>
      </trkpt>
      <trkpt lat="43.50828" lon="6.37328">
        <ele>299</ele>
        <time>2021-11-24T12:55:23.000Z</time>
      </trkpt>
      <trkpt lat="43.50829" lon="6.37327">
        <ele>299</ele>
        <time>2021-11-24T12:55:24.000Z</time>
      </trkpt>
      <trkpt lat="43.50829" lon="6.37325">
        <ele>299</ele>
        <time>2021-11-24T12:55:25.000Z</time>
      </trkpt>
      <trkpt lat="43.5083" lon="6.37324">
        <ele>299</ele>
        <time>2021-11-24T12:55:26.000Z</time>
      </trkpt>
      <trkpt lat="43.50831" lon="6.37323">
        <ele>299</ele>
        <time>2021-11-24T12:55:27.000Z</time>
      </trkpt>
      <trkpt lat="43.50831" lon="6.37322">
        <ele>299</ele>
        <time>2021-11-24T12:55:28.000Z</time>
      </trkpt>
      <trkpt lat="43.50831" lon="6.37321">
        <ele>299</ele>
        <time>2021-11-24T12:55:29.000Z</time>
      </trkpt>
      <trkpt lat="43.50832" lon="6.3732">
        <ele>299</ele>
        <time>2021-11-24T12:55:30.000Z</time>
      </trkpt>
      <trkpt lat="43.50832" lon="6.37319">
        <ele>299</ele>
        <time>2021-11-24T12:55:31.000Z</time>
      </trkpt>
      <trkpt lat="43.50832" lon="6.37318">
        <ele>300</ele>
        <time>2021-11-24T12:55:32.000Z</time>
      </trkpt>
      <trkpt lat="43.50832" lon="6.37317">
        <ele>300</ele>
        <time>2021-11-24T12:55:33.000Z</time>
      </trkpt>
      <trkpt lat="43.50833" lon="6.37316">
        <ele>300</ele>
        <time>2021-11-24T12:55:34.000Z</time>
      </trkpt>
      <trkpt lat="43.50833" lon="6.37315">
        <ele>300</ele>
        <time>2021-11-24T12:55:35.000Z</time>
      </trkpt>
      <trkpt lat="43.50833" lon="6.37313">
        <ele>300</ele>
        <time>2021-11-24T12:55:36.000Z</time>
      </trkpt>
      <trkpt lat="43.50834" lon="6.37311">
        <ele>300</ele>
        <time>2021-11-24T12:55:37.000Z</time>
      </trkpt>
      <trkpt lat="43.50835" lon="6.37307">
        <ele>301</ele>
        <time>2021-11-24T12:55:38.000Z</time>
      </trkpt>
      <trkpt lat="43.50835" lon="6.37305">
        <ele>301</ele>
        <time>2021-11-24T12:55:39.000Z</time>
      </trkpt>
      <trkpt lat="43.50836" lon="6.37302">
        <ele>301</ele>
        <time>2021-11-24T12:55:40.000Z</time>
      </trkpt>
      <trkpt lat="43.50835" lon="6.373">
        <ele>302</ele>
        <time>2021-11-24T12:55:41.000Z</time>
      </trkpt>
      <trkpt lat="43.50835" lon="6.37298">
        <ele>302</ele>
        <time>2021-11-24T12:55:42.000Z</time>
      </trkpt>
      <trkpt lat="43.50835" lon="6.37296">
        <ele>302</ele>
        <time>2021-11-24T12:55:43.000Z</time>
      </trkpt>
      <trkpt lat="43.50835" lon="6.37295">
        <ele>302</ele>
        <time>2021-11-24T12:55:44.000Z</time>
      </trkpt>
      <trkpt lat="43.50835" lon="6.37293">
        <ele>302</ele>
        <time>2021-11-24T12:55:45.000Z</time>
      </trkpt>
      <trkpt lat="43.50835" lon="6.37292">
        <ele>302</ele>
        <time>2021-11-24T12:55:46.000Z</time>
      </trkpt>
      <trkpt lat="43.50835" lon="6.3729">
        <ele>302</ele>
        <time>2021-11-24T12:55:47.000Z</time>
      </trkpt>
      <trkpt lat="43.50834" lon="6.37289">
        <ele>302</ele>
        <time>2021-11-24T12:55:48.000Z</time>
      </trkpt>
      <trkpt lat="43.50835" lon="6.37287">
        <ele>302</ele>
        <time>2021-11-24T12:55:49.000Z</time>
      </trkpt>
      <trkpt lat="43.50835" lon="6.37285">
        <ele>302</ele>
        <time>2021-11-24T12:55:50.000Z</time>
      </trkpt>
      <trkpt lat="43.50835" lon="6.37284">
        <ele>302</ele>
        <time>2021-11-24T12:55:51.000Z</time>
      </trkpt>
      <trkpt lat="43.50835" lon="6.37283">
        <ele>301</ele>
        <time>2021-11-24T12:55:52.000Z</time>
      </trkpt>
      <trkpt lat="43.50836" lon="6.37281">
        <ele>301</ele>
        <time>2021-11-24T12:55:53.000Z</time>
      </trkpt>
      <trkpt lat="43.50836" lon="6.3728">
        <ele>301</ele>
        <time>2021-11-24T12:55:54.000Z</time>
      </trkpt>
      <trkpt lat="43.50837" lon="6.37278">
        <ele>301</ele>
        <time>2021-11-24T12:55:55.000Z</time>
      </trkpt>
      <trkpt lat="43.50837" lon="6.37277">
        <ele>301</ele>
        <time>2021-11-24T12:55:56.000Z</time>
      </trkpt>
      <trkpt lat="43.50838" lon="6.37275">
        <ele>301</ele>
        <time>2021-11-24T12:55:57.000Z</time>
      </trkpt>
      <trkpt lat="43.50839" lon="6.37274">
        <ele>300</ele>
        <time>2021-11-24T12:55:58.000Z</time>
      </trkpt>
      <trkpt lat="43.50839" lon="6.37272">
        <ele>300</ele>
        <time>2021-11-24T12:55:59.000Z</time>
      </trkpt>
      <trkpt lat="43.5084" lon="6.3727">
        <ele>300</ele>
        <time>2021-11-24T12:56:00.000Z</time>
      </trkpt>
      <trkpt lat="43.50841" lon="6.37269">
        <ele>299</ele>
        <time>2021-11-24T12:56:01.000Z</time>
      </trkpt>
      <trkpt lat="43.50841" lon="6.37267">
        <ele>299</ele>
        <time>2021-11-24T12:56:02.000Z</time>
      </trkpt>
      <trkpt lat="43.50842" lon="6.37265">
        <ele>299</ele>
        <time>2021-11-24T12:56:03.000Z</time>
      </trkpt>
      <trkpt lat="43.50843" lon="6.37263">
        <ele>299</ele>
        <time>2021-11-24T12:56:04.000Z</time>
      </trkpt>
      <trkpt lat="43.50843" lon="6.37262">
        <ele>299</ele>
        <time>2021-11-24T12:56:05.000Z</time>
      </trkpt>
      <trkpt lat="43.50843" lon="6.3726">
        <ele>299</ele>
        <time>2021-11-24T12:56:06.000Z</time>
      </trkpt>
      <trkpt lat="43.50844" lon="6.37258">
        <ele>299</ele>
        <time>2021-11-24T12:56:07.000Z</time>
      </trkpt>
      <trkpt lat="43.50844" lon="6.37257">
        <ele>299</ele>
        <time>2021-11-24T12:56:08.000Z</time>
      </trkpt>
      <trkpt lat="43.50844" lon="6.37256">
        <ele>299</ele>
        <time>2021-11-24T12:56:09.000Z</time>
      </trkpt>
      <trkpt lat="43.50844" lon="6.37254">
        <ele>299</ele>
        <time>2021-11-24T12:56:10.000Z</time>
      </trkpt>
      <trkpt lat="43.50845" lon="6.37253">
        <ele>299</ele>
        <time>2021-11-24T12:56:11.000Z</time>
      </trkpt>
      <trkpt lat="43.50845" lon="6.37251">
        <ele>299</ele>
        <time>2021-11-24T12:56:12.000Z</time>
      </trkpt>
      <trkpt lat="43.50846" lon="6.3725">
        <ele>299</ele>
        <time>2021-11-24T12:56:13.000Z</time>
      </trkpt>
      <trkpt lat="43.50846" lon="6.37248">
        <ele>299</ele>
        <time>2021-11-24T12:56:14.000Z</time>
      </trkpt>
      <trkpt lat="43.50847" lon="6.37247">
        <ele>298</ele>
        <time>2021-11-24T12:56:15.000Z</time>
      </trkpt>
      <trkpt lat="43.50847" lon="6.37245">
        <ele>298</ele>
        <time>2021-11-24T12:56:16.000Z</time>
      </trkpt>
      <trkpt lat="43.50848" lon="6.37244">
        <ele>298</ele>
        <time>2021-11-24T12:56:17.000Z</time>
      </trkpt>
      <trkpt lat="43.50848" lon="6.37242">
        <ele>298</ele>
        <time>2021-11-24T12:56:18.000Z</time>
      </trkpt>
      <trkpt lat="43.50849" lon="6.37241">
        <ele>299</ele>
        <time>2021-11-24T12:56:19.000Z</time>
      </trkpt>
      <trkpt lat="43.50849" lon="6.37239">
        <ele>299</ele>
        <time>2021-11-24T12:56:20.000Z</time>
      </trkpt>
      <trkpt lat="43.5085" lon="6.37238">
        <ele>299</ele>
        <time>2021-11-24T12:56:21.000Z</time>
      </trkpt>
      <trkpt lat="43.50851" lon="6.37236">
        <ele>299</ele>
        <time>2021-11-24T12:56:22.000Z</time>
      </trkpt>
      <trkpt lat="43.50852" lon="6.37234">
        <ele>299</ele>
        <time>2021-11-24T12:56:23.000Z</time>
      </trkpt>
      <trkpt lat="43.50853" lon="6.37233">
        <ele>299</ele>
        <time>2021-11-24T12:56:24.000Z</time>
      </trkpt>
      <trkpt lat="43.50853" lon="6.37232">
        <ele>299</ele>
        <time>2021-11-24T12:56:25.000Z</time>
      </trkpt>
      <trkpt lat="43.50854" lon="6.37231">
        <ele>299</ele>
        <time>2021-11-24T12:56:26.000Z</time>
      </trkpt>
      <trkpt lat="43.50854" lon="6.37231">
        <ele>299</ele>
        <time>2021-11-24T12:56:27.000Z</time>
      </trkpt>
      <trkpt lat="43.50855" lon="6.3723">
        <ele>299</ele>
        <time>2021-11-24T12:56:28.000Z</time>
      </trkpt>
      <trkpt lat="43.50855" lon="6.37229">
        <ele>299</ele>
        <time>2021-11-24T12:56:29.000Z</time>
      </trkpt>
      <trkpt lat="43.50856" lon="6.37228">
        <ele>299</ele>
        <time>2021-11-24T12:56:30.000Z</time>
      </trkpt>
      <trkpt lat="43.50856" lon="6.37227">
        <ele>299</ele>
        <time>2021-11-24T12:56:31.000Z</time>
      </trkpt>
      <trkpt lat="43.50857" lon="6.37226">
        <ele>299</ele>
        <time>2021-11-24T12:56:32.000Z</time>
      </trkpt>
      <trkpt lat="43.50858" lon="6.37225">
        <ele>299</ele>
        <time>2021-11-24T12:56:33.000Z</time>
      </trkpt>
      <trkpt lat="43.50859" lon="6.37224">
        <ele>299</ele>
        <time>2021-11-24T12:56:34.000Z</time>
      </trkpt>
      <trkpt lat="43.5086" lon="6.37224">
        <ele>299</ele>
        <time>2021-11-24T12:56:35.000Z</time>
      </trkpt>
      <trkpt lat="43.50861" lon="6.37223">
        <ele>299</ele>
        <time>2021-11-24T12:56:36.000Z</time>
      </trkpt>
      <trkpt lat="43.50862" lon="6.37223">
        <ele>299</ele>
        <time>2021-11-24T12:56:37.000Z</time>
      </trkpt>
      <trkpt lat="43.50863" lon="6.37224">
        <ele>299</ele>
        <time>2021-11-24T12:56:38.000Z</time>
      </trkpt>
      <trkpt lat="43.50864" lon="6.37225">
        <ele>299</ele>
        <time>2021-11-24T12:56:39.000Z</time>
      </trkpt>
      <trkpt lat="43.50865" lon="6.37226">
        <ele>299</ele>
        <time>2021-11-24T12:56:40.000Z</time>
      </trkpt>
      <trkpt lat="43.50865" lon="6.37226">
        <ele>299</ele>
        <time>2021-11-24T12:56:41.000Z</time>
      </trkpt>
      <trkpt lat="43.50866" lon="6.37227">
        <ele>299</ele>
        <time>2021-11-24T12:56:42.000Z</time>
      </trkpt>
      <trkpt lat="43.50867" lon="6.37228">
        <ele>298</ele>
        <time>2021-11-24T12:56:43.000Z</time>
      </trkpt>
      <trkpt lat="43.50868" lon="6.37228">
        <ele>298</ele>
        <time>2021-11-24T12:56:44.000Z</time>
      </trkpt>
      <trkpt lat="43.50868" lon="6.37228">
        <ele>298</ele>
        <time>2021-11-24T12:56:45.000Z</time>
      </trkpt>
      <trkpt lat="43.50869" lon="6.37228">
        <ele>298</ele>
        <time>2021-11-24T12:56:46.000Z</time>
      </trkpt>
      <trkpt lat="43.5087" lon="6.37228">
        <ele>298</ele>
        <time>2021-11-24T12:56:47.000Z</time>
      </trkpt>
      <trkpt lat="43.50871" lon="6.37227">
        <ele>298</ele>
        <time>2021-11-24T12:56:48.000Z</time>
      </trkpt>
      <trkpt lat="43.50871" lon="6.37227">
        <ele>298</ele>
        <time>2021-11-24T12:56:49.000Z</time>
      </trkpt>
      <trkpt lat="43.50872" lon="6.37227">
        <ele>298</ele>
        <time>2021-11-24T12:56:50.000Z</time>
      </trkpt>
      <trkpt lat="43.50873" lon="6.37226">
        <ele>298</ele>
        <time>2021-11-24T12:56:51.000Z</time>
      </trkpt>
      <trkpt lat="43.50874" lon="6.37225">
        <ele>298</ele>
        <time>2021-11-24T12:56:52.000Z</time>
      </trkpt>
      <trkpt lat="43.50874" lon="6.37225">
        <ele>299</ele>
        <time>2021-11-24T12:56:53.000Z</time>
      </trkpt>
      <trkpt lat="43.50875" lon="6.37224">
        <ele>299</ele>
        <time>2021-11-24T12:56:54.000Z</time>
      </trkpt>
      <trkpt lat="43.50876" lon="6.37224">
        <ele>299</ele>
        <time>2021-11-24T12:56:55.000Z</time>
      </trkpt>
      <trkpt lat="43.50876" lon="6.37224">
        <ele>299</ele>
        <time>2021-11-24T12:56:56.000Z</time>
      </trkpt>
      <trkpt lat="43.50877" lon="6.37224">
        <ele>299</ele>
        <time>2021-11-24T12:56:57.000Z</time>
      </trkpt>
      <trkpt lat="43.50877" lon="6.37224">
        <ele>299</ele>
        <time>2021-11-24T12:56:58.000Z</time>
      </trkpt>
      <trkpt lat="43.50878" lon="6.37224">
        <ele>299</ele>
        <time>2021-11-24T12:56:59.000Z</time>
      </trkpt>
      <trkpt lat="43.50878" lon="6.37224">
        <ele>299</ele>
        <time>2021-11-24T12:57:00.000Z</time>
      </trkpt>
      <trkpt lat="43.50879" lon="6.37224">
        <ele>299</ele>
        <time>2021-11-24T12:57:01.000Z</time>
      </trkpt>
      <trkpt lat="43.50879" lon="6.37225">
        <ele>299</ele>
        <time>2021-11-24T12:57:02.000Z</time>
      </trkpt>
      <trkpt lat="43.50879" lon="6.37225">
        <ele>299</ele>
        <time>2021-11-24T12:57:03.000Z</time>
      </trkpt>
      <trkpt lat="43.50879" lon="6.37226">
        <ele>299</ele>
        <time>2021-11-24T12:57:04.000Z</time>
      </trkpt>
      <trkpt lat="43.5088" lon="6.37226">
        <ele>299</ele>
        <time>2021-11-24T12:57:05.000Z</time>
      </trkpt>
      <trkpt lat="43.5088" lon="6.37226">
        <ele>299</ele>
        <time>2021-11-24T12:57:06.000Z</time>
      </trkpt>
      <trkpt lat="43.5088" lon="6.37226">
        <ele>299</ele>
        <time>2021-11-24T12:57:07.000Z</time>
      </trkpt>
      <trkpt lat="43.5088" lon="6.37226">
        <ele>299</ele>
        <time>2021-11-24T12:57:08.000Z</time>
      </trkpt>
      <trkpt lat="43.5088" lon="6.37226">
        <ele>299</ele>
        <time>2021-11-24T12:57:09.000Z</time>
      </trkpt>
      <trkpt lat="43.5088" lon="6.37226">
        <ele>299</ele>
        <time>2021-11-24T12:57:10.000Z</time>
      </trkpt>
      <trkpt lat="43.5088" lon="6.37226">
        <ele>299</ele>
        <time>2021-11-24T12:57:11.000Z</time>
      </trkpt>
      <trkpt lat="43.5088" lon="6.37226">
        <ele>299</ele>
        <time>2021-11-24T12:57:12.000Z</time>
      </trkpt>
      <trkpt lat="43.5088" lon="6.37226">
        <ele>300</ele>
        <time>2021-11-24T12:57:13.000Z</time>
      </trkpt>
      <trkpt lat="43.50879" lon="6.37226">
        <ele>299</ele>
        <time>2021-11-24T12:57:14.000Z</time>
      </trkpt>
      <trkpt lat="43.50879" lon="6.37225">
        <ele>299</ele>
        <time>2021-11-24T12:57:15.000Z</time>
      </trkpt>
      <trkpt lat="43.50879" lon="6.37224">
        <ele>299</ele>
        <time>2021-11-24T12:57:16.000Z</time>
      </trkpt>
      <trkpt lat="43.50879" lon="6.37223">
        <ele>299</ele>
        <time>2021-11-24T12:57:17.000Z</time>
      </trkpt>
      <trkpt lat="43.50879" lon="6.37222">
        <ele>299</ele>
        <time>2021-11-24T12:57:18.000Z</time>
      </trkpt>
      <trkpt lat="43.50879" lon="6.37221">
        <ele>299</ele>
        <time>2021-11-24T12:57:19.000Z</time>
      </trkpt>
      <trkpt lat="43.5088" lon="6.3722">
        <ele>299</ele>
        <time>2021-11-24T12:57:20.000Z</time>
      </trkpt>
      <trkpt lat="43.5088" lon="6.3722">
        <ele>299</ele>
        <time>2021-11-24T12:57:21.000Z</time>
      </trkpt>
      <trkpt lat="43.5088" lon="6.3722">
        <ele>299</ele>
        <time>2021-11-24T12:57:22.000Z</time>
      </trkpt>
      <trkpt lat="43.5088" lon="6.37219">
        <ele>299</ele>
        <time>2021-11-24T12:57:23.000Z</time>
      </trkpt>
      <trkpt lat="43.50881" lon="6.37219">
        <ele>299</ele>
        <time>2021-11-24T12:57:24.000Z</time>
      </trkpt>
      <trkpt lat="43.50881" lon="6.37219">
        <ele>299</ele>
        <time>2021-11-24T12:57:25.000Z</time>
      </trkpt>
      <trkpt lat="43.50882" lon="6.37219">
        <ele>299</ele>
        <time>2021-11-24T12:57:26.000Z</time>
      </trkpt>
      <trkpt lat="43.50882" lon="6.37218">
        <ele>299</ele>
        <time>2021-11-24T12:57:27.000Z</time>
      </trkpt>
      <trkpt lat="43.50883" lon="6.37218">
        <ele>298</ele>
        <time>2021-11-24T12:57:28.000Z</time>
      </trkpt>
      <trkpt lat="43.50884" lon="6.37218">
        <ele>298</ele>
        <time>2021-11-24T12:57:29.000Z</time>
      </trkpt>
      <trkpt lat="43.50884" lon="6.37218">
        <ele>298</ele>
        <time>2021-11-24T12:57:30.000Z</time>
      </trkpt>
      <trkpt lat="43.50885" lon="6.37217">
        <ele>298</ele>
        <time>2021-11-24T12:57:31.000Z</time>
      </trkpt>
      <trkpt lat="43.50886" lon="6.37217">
        <ele>298</ele>
        <time>2021-11-24T12:57:32.000Z</time>
      </trkpt>
      <trkpt lat="43.50887" lon="6.37215">
        <ele>298</ele>
        <time>2021-11-24T12:57:33.000Z</time>
      </trkpt>
      <trkpt lat="43.50888" lon="6.37214">
        <ele>298</ele>
        <time>2021-11-24T12:57:34.000Z</time>
      </trkpt>
      <trkpt lat="43.50889" lon="6.37214">
        <ele>298</ele>
        <time>2021-11-24T12:57:35.000Z</time>
      </trkpt>
      <trkpt lat="43.50889" lon="6.37214">
        <ele>298</ele>
        <time>2021-11-24T12:57:36.000Z</time>
      </trkpt>
      <trkpt lat="43.50889" lon="6.37213">
        <ele>298</ele>
        <time>2021-11-24T12:57:37.000Z</time>
      </trkpt>
      <trkpt lat="43.5089" lon="6.37213">
        <ele>298</ele>
        <time>2021-11-24T12:57:38.000Z</time>
      </trkpt>
      <trkpt lat="43.5089" lon="6.37213">
        <ele>298</ele>
        <time>2021-11-24T12:57:39.000Z</time>
      </trkpt>
      <trkpt lat="43.5089" lon="6.37213">
        <ele>298</ele>
        <time>2021-11-24T12:57:40.000Z</time>
      </trkpt>
      <trkpt lat="43.50891" lon="6.37212">
        <ele>298</ele>
        <time>2021-11-24T12:57:41.000Z</time>
      </trkpt>
      <trkpt lat="43.50891" lon="6.37212">
        <ele>298</ele>
        <time>2021-11-24T12:57:42.000Z</time>
      </trkpt>
      <trkpt lat="43.50893" lon="6.37211">
        <ele>298</ele>
        <time>2021-11-24T12:57:43.000Z</time>
      </trkpt>
      <trkpt lat="43.50895" lon="6.37209">
        <ele>298</ele>
        <time>2021-11-24T12:57:44.000Z</time>
      </trkpt>
      <trkpt lat="43.50896" lon="6.37208">
        <ele>298</ele>
        <time>2021-11-24T12:57:45.000Z</time>
      </trkpt>
      <trkpt lat="43.50897" lon="6.37208">
        <ele>298</ele>
        <time>2021-11-24T12:57:46.000Z</time>
      </trkpt>
      <trkpt lat="43.50897" lon="6.37207">
        <ele>298</ele>
        <time>2021-11-24T12:57:47.000Z</time>
      </trkpt>
      <trkpt lat="43.50898" lon="6.37207">
        <ele>298</ele>
        <time>2021-11-24T12:57:48.000Z</time>
      </trkpt>
      <trkpt lat="43.50898" lon="6.37206">
        <ele>298</ele>
        <time>2021-11-24T12:57:49.000Z</time>
      </trkpt>
      <trkpt lat="43.50899" lon="6.37206">
        <ele>298</ele>
        <time>2021-11-24T12:57:50.000Z</time>
      </trkpt>
      <trkpt lat="43.509" lon="6.37205">
        <ele>298</ele>
        <time>2021-11-24T12:57:51.000Z</time>
      </trkpt>
      <trkpt lat="43.509" lon="6.37205">
        <ele>298</ele>
        <time>2021-11-24T12:57:52.000Z</time>
      </trkpt>
      <trkpt lat="43.50901" lon="6.37205">
        <ele>298</ele>
        <time>2021-11-24T12:57:53.000Z</time>
      </trkpt>
      <trkpt lat="43.50901" lon="6.37205">
        <ele>298</ele>
        <time>2021-11-24T12:57:54.000Z</time>
      </trkpt>
      <trkpt lat="43.50902" lon="6.37204">
        <ele>299</ele>
        <time>2021-11-24T12:57:55.000Z</time>
      </trkpt>
      <trkpt lat="43.50903" lon="6.37204">
        <ele>299</ele>
        <time>2021-11-24T12:57:56.000Z</time>
      </trkpt>
      <trkpt lat="43.50904" lon="6.37204">
        <ele>299</ele>
        <time>2021-11-24T12:57:57.000Z</time>
      </trkpt>
      <trkpt lat="43.50906" lon="6.37203">
        <ele>299</ele>
        <time>2021-11-24T12:57:58.000Z</time>
      </trkpt>
      <trkpt lat="43.50907" lon="6.37202">
        <ele>299</ele>
        <time>2021-11-24T12:57:59.000Z</time>
      </trkpt>
      <trkpt lat="43.50908" lon="6.37202">
        <ele>298</ele>
        <time>2021-11-24T12:58:00.000Z</time>
      </trkpt>
      <trkpt lat="43.50909" lon="6.37202">
        <ele>298</ele>
        <time>2021-11-24T12:58:01.000Z</time>
      </trkpt>
      <trkpt lat="43.50909" lon="6.37202">
        <ele>298</ele>
        <time>2021-11-24T12:58:02.000Z</time>
      </trkpt>
      <trkpt lat="43.50909" lon="6.37202">
        <ele>298</ele>
        <time>2021-11-24T12:58:03.000Z</time>
      </trkpt>
      <trkpt lat="43.5091" lon="6.37202">
        <ele>299</ele>
        <time>2021-11-24T12:58:04.000Z</time>
      </trkpt>
      <trkpt lat="43.50911" lon="6.37202">
        <ele>299</ele>
        <time>2021-11-24T12:58:05.000Z</time>
      </trkpt>
      <trkpt lat="43.50912" lon="6.37202">
        <ele>299</ele>
        <time>2021-11-24T12:58:06.000Z</time>
      </trkpt>
      <trkpt lat="43.50913" lon="6.37202">
        <ele>299</ele>
        <time>2021-11-24T12:58:07.000Z</time>
      </trkpt>
      <trkpt lat="43.50914" lon="6.37202">
        <ele>299</ele>
        <time>2021-11-24T12:58:08.000Z</time>
      </trkpt>
      <trkpt lat="43.50915" lon="6.37203">
        <ele>299</ele>
        <time>2021-11-24T12:58:09.000Z</time>
      </trkpt>
      <trkpt lat="43.50915" lon="6.37203">
        <ele>299</ele>
        <time>2021-11-24T12:58:10.000Z</time>
      </trkpt>
      <trkpt lat="43.50917" lon="6.37203">
        <ele>299</ele>
        <time>2021-11-24T12:58:11.000Z</time>
      </trkpt>
      <trkpt lat="43.50918" lon="6.37203">
        <ele>299</ele>
        <time>2021-11-24T12:58:12.000Z</time>
      </trkpt>
      <trkpt lat="43.50921" lon="6.37203">
        <ele>300</ele>
        <time>2021-11-24T12:58:13.000Z</time>
      </trkpt>
      <trkpt lat="43.50923" lon="6.37203">
        <ele>300</ele>
        <time>2021-11-24T12:58:14.000Z</time>
      </trkpt>
      <trkpt lat="43.50925" lon="6.37203">
        <ele>300</ele>
        <time>2021-11-24T12:58:15.000Z</time>
      </trkpt>
      <trkpt lat="43.50927" lon="6.37203">
        <ele>300</ele>
        <time>2021-11-24T12:58:16.000Z</time>
      </trkpt>
      <trkpt lat="43.50929" lon="6.37203">
        <ele>300</ele>
        <time>2021-11-24T12:58:17.000Z</time>
      </trkpt>
      <trkpt lat="43.5093" lon="6.37202">
        <ele>301</ele>
        <time>2021-11-24T12:58:18.000Z</time>
      </trkpt>
      <trkpt lat="43.50931" lon="6.37202">
        <ele>301</ele>
        <time>2021-11-24T12:58:19.000Z</time>
      </trkpt>
      <trkpt lat="43.50933" lon="6.37202">
        <ele>301</ele>
        <time>2021-11-24T12:58:20.000Z</time>
      </trkpt>
      <trkpt lat="43.50934" lon="6.37202">
        <ele>301</ele>
        <time>2021-11-24T12:58:21.000Z</time>
      </trkpt>
      <trkpt lat="43.50935" lon="6.37202">
        <ele>302</ele>
        <time>2021-11-24T12:58:22.000Z</time>
      </trkpt>
      <trkpt lat="43.50936" lon="6.37201">
        <ele>302</ele>
        <time>2021-11-24T12:58:23.000Z</time>
      </trkpt>
      <trkpt lat="43.50937" lon="6.37201">
        <ele>302</ele>
        <time>2021-11-24T12:58:24.000Z</time>
      </trkpt>
      <trkpt lat="43.50938" lon="6.37201">
        <ele>302</ele>
        <time>2021-11-24T12:58:25.000Z</time>
      </trkpt>
      <trkpt lat="43.50939" lon="6.37201">
        <ele>302</ele>
        <time>2021-11-24T12:58:26.000Z</time>
      </trkpt>
      <trkpt lat="43.5094" lon="6.37201">
        <ele>302</ele>
        <time>2021-11-24T12:58:27.000Z</time>
      </trkpt>
      <trkpt lat="43.50941" lon="6.37201">
        <ele>302</ele>
        <time>2021-11-24T12:58:28.000Z</time>
      </trkpt>
      <trkpt lat="43.50942" lon="6.37201">
        <ele>302</ele>
        <time>2021-11-24T12:58:29.000Z</time>
      </trkpt>
      <trkpt lat="43.50943" lon="6.37201">
        <ele>302</ele>
        <time>2021-11-24T12:58:30.000Z</time>
      </trkpt>
      <trkpt lat="43.50943" lon="6.37201">
        <ele>302</ele>
        <time>2021-11-24T12:58:31.000Z</time>
      </trkpt>
      <trkpt lat="43.50944" lon="6.37201">
        <ele>302</ele>
        <time>2021-11-24T12:58:32.000Z</time>
      </trkpt>
      <trkpt lat="43.50945" lon="6.37201">
        <ele>303</ele>
        <time>2021-11-24T12:58:33.000Z</time>
      </trkpt>
      <trkpt lat="43.50946" lon="6.37201">
        <ele>303</ele>
        <time>2021-11-24T12:58:34.000Z</time>
      </trkpt>
      <trkpt lat="43.50946" lon="6.37201">
        <ele>303</ele>
        <time>2021-11-24T12:58:35.000Z</time>
      </trkpt>
      <trkpt lat="43.50947" lon="6.37201">
        <ele>303</ele>
        <time>2021-11-24T12:58:36.000Z</time>
      </trkpt>
      <trkpt lat="43.50948" lon="6.372">
        <ele>303</ele>
        <time>2021-11-24T12:58:37.000Z</time>
      </trkpt>
      <trkpt lat="43.50949" lon="6.372">
        <ele>303</ele>
        <time>2021-11-24T12:58:38.000Z</time>
      </trkpt>
      <trkpt lat="43.5095" lon="6.372">
        <ele>303</ele>
        <time>2021-11-24T12:58:39.000Z</time>
      </trkpt>
      <trkpt lat="43.5095" lon="6.372">
        <ele>303</ele>
        <time>2021-11-24T12:58:40.000Z</time>
      </trkpt>
      <trkpt lat="43.50951" lon="6.372">
        <ele>303</ele>
        <time>2021-11-24T12:58:41.000Z</time>
      </trkpt>
      <trkpt lat="43.50952" lon="6.372">
        <ele>303</ele>
        <time>2021-11-24T12:58:42.000Z</time>
      </trkpt>
      <trkpt lat="43.50953" lon="6.372">
        <ele>303</ele>
        <time>2021-11-24T12:58:43.000Z</time>
      </trkpt>
      <trkpt lat="43.50954" lon="6.372">
        <ele>303</ele>
        <time>2021-11-24T12:58:44.000Z</time>
      </trkpt>
      <trkpt lat="43.50955" lon="6.372">
        <ele>303</ele>
        <time>2021-11-24T12:58:45.000Z</time>
      </trkpt>
      <trkpt lat="43.50955" lon="6.372">
        <ele>303</ele>
        <time>2021-11-24T12:58:46.000Z</time>
      </trkpt>
      <trkpt lat="43.50956" lon="6.372">
        <ele>303</ele>
        <time>2021-11-24T12:58:47.000Z</time>
      </trkpt>
      <trkpt lat="43.50956" lon="6.372">
        <ele>303</ele>
        <time>2021-11-24T12:58:48.000Z</time>
      </trkpt>
      <trkpt lat="43.50957" lon="6.372">
        <ele>303</ele>
        <time>2021-11-24T12:58:49.000Z</time>
      </trkpt>
      <trkpt lat="43.50958" lon="6.372">
        <ele>303</ele>
        <time>2021-11-24T12:58:50.000Z</time>
      </trkpt>
      <trkpt lat="43.50958" lon="6.372">
        <ele>303</ele>
        <time>2021-11-24T12:58:51.000Z</time>
      </trkpt>
      <trkpt lat="43.50959" lon="6.372">
        <ele>303</ele>
        <time>2021-11-24T12:58:52.000Z</time>
      </trkpt>
      <trkpt lat="43.50959" lon="6.372">
        <ele>303</ele>
        <time>2021-11-24T12:58:53.000Z</time>
      </trkpt>
      <trkpt lat="43.5096" lon="6.372">
        <ele>303</ele>
        <time>2021-11-24T12:58:54.000Z</time>
      </trkpt>
      <trkpt lat="43.50961" lon="6.372">
        <ele>303</ele>
        <time>2021-11-24T12:58:55.000Z</time>
      </trkpt>
      <trkpt lat="43.50962" lon="6.372">
        <ele>303</ele>
        <time>2021-11-24T12:58:56.000Z</time>
      </trkpt>
      <trkpt lat="43.50963" lon="6.372">
        <ele>303</ele>
        <time>2021-11-24T12:58:57.000Z</time>
      </trkpt>
      <trkpt lat="43.50965" lon="6.372">
        <ele>303</ele>
        <time>2021-11-24T12:58:58.000Z</time>
      </trkpt>
      <trkpt lat="43.50966" lon="6.372">
        <ele>303</ele>
        <time>2021-11-24T12:58:59.000Z</time>
      </trkpt>
      <trkpt lat="43.50967" lon="6.372">
        <ele>303</ele>
        <time>2021-11-24T12:59:00.000Z</time>
      </trkpt>
      <trkpt lat="43.50968" lon="6.372">
        <ele>303</ele>
        <time>2021-11-24T12:59:01.000Z</time>
      </trkpt>
      <trkpt lat="43.50969" lon="6.372">
        <ele>303</ele>
        <time>2021-11-24T12:59:02.000Z</time>
      </trkpt>
      <trkpt lat="43.5097" lon="6.372">
        <ele>303</ele>
        <time>2021-11-24T12:59:03.000Z</time>
      </trkpt>
      <trkpt lat="43.50971" lon="6.372">
        <ele>303</ele>
        <time>2021-11-24T12:59:04.000Z</time>
      </trkpt>
      <trkpt lat="43.50972" lon="6.372">
        <ele>303</ele>
        <time>2021-11-24T12:59:05.000Z</time>
      </trkpt>
      <trkpt lat="43.50973" lon="6.372">
        <ele>303</ele>
        <time>2021-11-24T12:59:06.000Z</time>
      </trkpt>
      <trkpt lat="43.50974" lon="6.372">
        <ele>303</ele>
        <time>2021-11-24T12:59:07.000Z</time>
      </trkpt>
      <trkpt lat="43.50974" lon="6.372">
        <ele>303</ele>
        <time>2021-11-24T12:59:08.000Z</time>
      </trkpt>
      <trkpt lat="43.50975" lon="6.372">
        <ele>303</ele>
        <time>2021-11-24T12:59:09.000Z</time>
      </trkpt>
      <trkpt lat="43.50976" lon="6.372">
        <ele>303</ele>
        <time>2021-11-24T12:59:10.000Z</time>
      </trkpt>
      <trkpt lat="43.50977" lon="6.372">
        <ele>303</ele>
        <time>2021-11-24T12:59:11.000Z</time>
      </trkpt>
      <trkpt lat="43.50978" lon="6.372">
        <ele>303</ele>
        <time>2021-11-24T12:59:12.000Z</time>
      </trkpt>
      <trkpt lat="43.50979" lon="6.372">
        <ele>303</ele>
        <time>2021-11-24T12:59:13.000Z</time>
      </trkpt>
      <trkpt lat="43.5098" lon="6.372">
        <ele>304</ele>
        <time>2021-11-24T12:59:14.000Z</time>
      </trkpt>
      <trkpt lat="43.50981" lon="6.372">
        <ele>304</ele>
        <time>2021-11-24T12:59:15.000Z</time>
      </trkpt>
      <trkpt lat="43.50981" lon="6.372">
        <ele>304</ele>
        <time>2021-11-24T12:59:16.000Z</time>
      </trkpt>
      <trkpt lat="43.50982" lon="6.372">
        <ele>304</ele>
        <time>2021-11-24T12:59:17.000Z</time>
      </trkpt>
      <trkpt lat="43.50982" lon="6.372">
        <ele>304</ele>
        <time>2021-11-24T12:59:18.000Z</time>
      </trkpt>
      <trkpt lat="43.50983" lon="6.372">
        <ele>304</ele>
        <time>2021-11-24T12:59:19.000Z</time>
      </trkpt>
      <trkpt lat="43.50984" lon="6.37199">
        <ele>304</ele>
        <time>2021-11-24T12:59:20.000Z</time>
      </trkpt>
      <trkpt lat="43.50984" lon="6.372">
        <ele>304</ele>
        <time>2021-11-24T12:59:21.000Z</time>
      </trkpt>
      <trkpt lat="43.50985" lon="6.372">
        <ele>304</ele>
        <time>2021-11-24T12:59:22.000Z</time>
      </trkpt>
      <trkpt lat="43.50986" lon="6.372">
        <ele>304</ele>
        <time>2021-11-24T12:59:23.000Z</time>
      </trkpt>
      <trkpt lat="43.50986" lon="6.372">
        <ele>304</ele>
        <time>2021-11-24T12:59:24.000Z</time>
      </trkpt>
      <trkpt lat="43.50987" lon="6.372">
        <ele>304</ele>
        <time>2021-11-24T12:59:25.000Z</time>
      </trkpt>
      <trkpt lat="43.50987" lon="6.372">
        <ele>304</ele>
        <time>2021-11-24T12:59:26.000Z</time>
      </trkpt>
      <trkpt lat="43.50987" lon="6.372">
        <ele>304</ele>
        <time>2021-11-24T12:59:27.000Z</time>
      </trkpt>
      <trkpt lat="43.50988" lon="6.372">
        <ele>304</ele>
        <time>2021-11-24T12:59:28.000Z</time>
      </trkpt>
      <trkpt lat="43.50988" lon="6.372">
        <ele>304</ele>
        <time>2021-11-24T12:59:29.000Z</time>
      </trkpt>
      <trkpt lat="43.50988" lon="6.372">
        <ele>304</ele>
        <time>2021-11-24T12:59:30.000Z</time>
      </trkpt>
      <trkpt lat="43.50988" lon="6.372">
        <ele>304</ele>
        <time>2021-11-24T12:59:31.000Z</time>
      </trkpt>
      <trkpt lat="43.50988" lon="6.372">
        <ele>304</ele>
        <time>2021-11-24T12:59:32.000Z</time>
      </trkpt>
      <trkpt lat="43.50989" lon="6.372">
        <ele>304</ele>
        <time>2021-11-24T12:59:33.000Z</time>
      </trkpt>
      <trkpt lat="43.50989" lon="6.37199">
        <ele>304</ele>
        <time>2021-11-24T12:59:34.000Z</time>
      </trkpt>
      <trkpt lat="43.5099" lon="6.37199">
        <ele>305</ele>
        <time>2021-11-24T12:59:35.000Z</time>
      </trkpt>
      <trkpt lat="43.50991" lon="6.37199">
        <ele>306</ele>
        <time>2021-11-24T12:59:36.000Z</time>
      </trkpt>
      <trkpt lat="43.50992" lon="6.37199">
        <ele>306</ele>
        <time>2021-11-24T12:59:37.000Z</time>
      </trkpt>
      <trkpt lat="43.50993" lon="6.372">
        <ele>306</ele>
        <time>2021-11-24T12:59:38.000Z</time>
      </trkpt>
      <trkpt lat="43.50994" lon="6.37201">
        <ele>306</ele>
        <time>2021-11-24T12:59:39.000Z</time>
      </trkpt>
      <trkpt lat="43.50994" lon="6.37202">
        <ele>306</ele>
        <time>2021-11-24T12:59:40.000Z</time>
      </trkpt>
      <trkpt lat="43.50995" lon="6.37203">
        <ele>306</ele>
        <time>2021-11-24T12:59:41.000Z</time>
      </trkpt>
      <trkpt lat="43.50995" lon="6.37204">
        <ele>306</ele>
        <time>2021-11-24T12:59:42.000Z</time>
      </trkpt>
      <trkpt lat="43.50996" lon="6.37204">
        <ele>306</ele>
        <time>2021-11-24T12:59:43.000Z</time>
      </trkpt>
      <trkpt lat="43.50997" lon="6.37204">
        <ele>306</ele>
        <time>2021-11-24T12:59:44.000Z</time>
      </trkpt>
      <trkpt lat="43.50997" lon="6.37204">
        <ele>306</ele>
        <time>2021-11-24T12:59:45.000Z</time>
      </trkpt>
      <trkpt lat="43.50998" lon="6.37203">
        <ele>306</ele>
        <time>2021-11-24T12:59:46.000Z</time>
      </trkpt>
      <trkpt lat="43.50999" lon="6.37203">
        <ele>307</ele>
        <time>2021-11-24T12:59:47.000Z</time>
      </trkpt>
      <trkpt lat="43.51" lon="6.37203">
        <ele>307</ele>
        <time>2021-11-24T12:59:48.000Z</time>
      </trkpt>
      <trkpt lat="43.51" lon="6.37203">
        <ele>307</ele>
        <time>2021-11-24T12:59:49.000Z</time>
      </trkpt>
      <trkpt lat="43.51001" lon="6.37203">
        <ele>307</ele>
        <time>2021-11-24T12:59:50.000Z</time>
      </trkpt>
      <trkpt lat="43.51002" lon="6.37202">
        <ele>307</ele>
        <time>2021-11-24T12:59:51.000Z</time>
      </trkpt>
      <trkpt lat="43.51003" lon="6.37202">
        <ele>307</ele>
        <time>2021-11-24T12:59:52.000Z</time>
      </trkpt>
      <trkpt lat="43.51005" lon="6.37202">
        <ele>307</ele>
        <time>2021-11-24T12:59:53.000Z</time>
      </trkpt>
      <trkpt lat="43.51006" lon="6.37202">
        <ele>307</ele>
        <time>2021-11-24T12:59:54.000Z</time>
      </trkpt>
      <trkpt lat="43.51007" lon="6.37201">
        <ele>307</ele>
        <time>2021-11-24T12:59:55.000Z</time>
      </trkpt>
      <trkpt lat="43.51008" lon="6.37201">
        <ele>307</ele>
        <time>2021-11-24T12:59:56.000Z</time>
      </trkpt>
      <trkpt lat="43.5101" lon="6.37201">
        <ele>307</ele>
        <time>2021-11-24T12:59:57.000Z</time>
      </trkpt>
      <trkpt lat="43.51012" lon="6.372">
        <ele>307</ele>
        <time>2021-11-24T12:59:58.000Z</time>
      </trkpt>
      <trkpt lat="43.51013" lon="6.372">
        <ele>308</ele>
        <time>2021-11-24T12:59:59.000Z</time>
      </trkpt>
      <trkpt lat="43.51015" lon="6.372">
        <ele>308</ele>
        <time>2021-11-24T13:00:00.000Z</time>
      </trkpt>
      <trkpt lat="43.51017" lon="6.37199">
        <ele>308</ele>
        <time>2021-11-24T13:00:01.000Z</time>
      </trkpt>
      <trkpt lat="43.51019" lon="6.37199">
        <ele>308</ele>
        <time>2021-11-24T13:00:02.000Z</time>
      </trkpt>
      <trkpt lat="43.51021" lon="6.37198">
        <ele>308</ele>
        <time>2021-11-24T13:00:03.000Z</time>
      </trkpt>
      <trkpt lat="43.51023" lon="6.37197">
        <ele>309</ele>
        <time>2021-11-24T13:00:04.000Z</time>
      </trkpt>
      <trkpt lat="43.51025" lon="6.37197">
        <ele>309</ele>
        <time>2021-11-24T13:00:05.000Z</time>
      </trkpt>
      <trkpt lat="43.51026" lon="6.37197">
        <ele>309</ele>
        <time>2021-11-24T13:00:06.000Z</time>
      </trkpt>
      <trkpt lat="43.51027" lon="6.37196">
        <ele>309</ele>
        <time>2021-11-24T13:00:07.000Z</time>
      </trkpt>
      <trkpt lat="43.51029" lon="6.37196">
        <ele>308</ele>
        <time>2021-11-24T13:00:08.000Z</time>
      </trkpt>
      <trkpt lat="43.51031" lon="6.37196">
        <ele>308</ele>
        <time>2021-11-24T13:00:09.000Z</time>
      </trkpt>
      <trkpt lat="43.51032" lon="6.37196">
        <ele>308</ele>
        <time>2021-11-24T13:00:10.000Z</time>
      </trkpt>
      <trkpt lat="43.51033" lon="6.37196">
        <ele>308</ele>
        <time>2021-11-24T13:00:11.000Z</time>
      </trkpt>
      <trkpt lat="43.51034" lon="6.37196">
        <ele>308</ele>
        <time>2021-11-24T13:00:12.000Z</time>
      </trkpt>
      <trkpt lat="43.51036" lon="6.37196">
        <ele>307</ele>
        <time>2021-11-24T13:00:13.000Z</time>
      </trkpt>
      <trkpt lat="43.51037" lon="6.37196">
        <ele>307</ele>
        <time>2021-11-24T13:00:14.000Z</time>
      </trkpt>
      <trkpt lat="43.51038" lon="6.37196">
        <ele>307</ele>
        <time>2021-11-24T13:00:15.000Z</time>
      </trkpt>
      <trkpt lat="43.51039" lon="6.37196">
        <ele>307</ele>
        <time>2021-11-24T13:00:16.000Z</time>
      </trkpt>
      <trkpt lat="43.51041" lon="6.37196">
        <ele>307</ele>
        <time>2021-11-24T13:00:17.000Z</time>
      </trkpt>
      <trkpt lat="43.51042" lon="6.37196">
        <ele>307</ele>
        <time>2021-11-24T13:00:18.000Z</time>
      </trkpt>
      <trkpt lat="43.51043" lon="6.37196">
        <ele>307</ele>
        <time>2021-11-24T13:00:19.000Z</time>
      </trkpt>
      <trkpt lat="43.51044" lon="6.37196">
        <ele>307</ele>
        <time>2021-11-24T13:00:20.000Z</time>
      </trkpt>
      <trkpt lat="43.51045" lon="6.37196">
        <ele>307</ele>
        <time>2021-11-24T13:00:21.000Z</time>
      </trkpt>
      <trkpt lat="43.51046" lon="6.37196">
        <ele>307</ele>
        <time>2021-11-24T13:00:22.000Z</time>
      </trkpt>
      <trkpt lat="43.51047" lon="6.37196">
        <ele>307</ele>
        <time>2021-11-24T13:00:23.000Z</time>
      </trkpt>
      <trkpt lat="43.51048" lon="6.37196">
        <ele>307</ele>
        <time>2021-11-24T13:00:24.000Z</time>
      </trkpt>
      <trkpt lat="43.51049" lon="6.37196">
        <ele>307</ele>
        <time>2021-11-24T13:00:25.000Z</time>
      </trkpt>
      <trkpt lat="43.5105" lon="6.37196">
        <ele>307</ele>
        <time>2021-11-24T13:00:26.000Z</time>
      </trkpt>
      <trkpt lat="43.51051" lon="6.37196">
        <ele>307</ele>
        <time>2021-11-24T13:00:27.000Z</time>
      </trkpt>
      <trkpt lat="43.51052" lon="6.37196">
        <ele>308</ele>
        <time>2021-11-24T13:00:28.000Z</time>
      </trkpt>
      <trkpt lat="43.51053" lon="6.37197">
        <ele>308</ele>
        <time>2021-11-24T13:00:29.000Z</time>
      </trkpt>
      <trkpt lat="43.51054" lon="6.37197">
        <ele>308</ele>
        <time>2021-11-24T13:00:30.000Z</time>
      </trkpt>
      <trkpt lat="43.51055" lon="6.37197">
        <ele>308</ele>
        <time>2021-11-24T13:00:31.000Z</time>
      </trkpt>
      <trkpt lat="43.51056" lon="6.37197">
        <ele>309</ele>
        <time>2021-11-24T13:00:32.000Z</time>
      </trkpt>
      <trkpt lat="43.51057" lon="6.37197">
        <ele>309</ele>
        <time>2021-11-24T13:00:33.000Z</time>
      </trkpt>
      <trkpt lat="43.51058" lon="6.37197">
        <ele>309</ele>
        <time>2021-11-24T13:00:34.000Z</time>
      </trkpt>
      <trkpt lat="43.5106" lon="6.37197">
        <ele>309</ele>
        <time>2021-11-24T13:00:35.000Z</time>
      </trkpt>
      <trkpt lat="43.51061" lon="6.37197">
        <ele>309</ele>
        <time>2021-11-24T13:00:36.000Z</time>
      </trkpt>
      <trkpt lat="43.51063" lon="6.37197">
        <ele>309</ele>
        <time>2021-11-24T13:00:37.000Z</time>
      </trkpt>
      <trkpt lat="43.51064" lon="6.37197">
        <ele>309</ele>
        <time>2021-11-24T13:00:38.000Z</time>
      </trkpt>
      <trkpt lat="43.51065" lon="6.37198">
        <ele>310</ele>
        <time>2021-11-24T13:00:39.000Z</time>
      </trkpt>
      <trkpt lat="43.51066" lon="6.37197">
        <ele>311</ele>
        <time>2021-11-24T13:00:40.000Z</time>
      </trkpt>
      <trkpt lat="43.51067" lon="6.37198">
        <ele>311</ele>
        <time>2021-11-24T13:00:41.000Z</time>
      </trkpt>
      <trkpt lat="43.51068" lon="6.37198">
        <ele>311</ele>
        <time>2021-11-24T13:00:42.000Z</time>
      </trkpt>
      <trkpt lat="43.51069" lon="6.37198">
        <ele>311</ele>
        <time>2021-11-24T13:00:43.000Z</time>
      </trkpt>
      <trkpt lat="43.5107" lon="6.37198">
        <ele>311</ele>
        <time>2021-11-24T13:00:44.000Z</time>
      </trkpt>
      <trkpt lat="43.51071" lon="6.37198">
        <ele>311</ele>
        <time>2021-11-24T13:00:45.000Z</time>
      </trkpt>
      <trkpt lat="43.51072" lon="6.37198">
        <ele>311</ele>
        <time>2021-11-24T13:00:46.000Z</time>
      </trkpt>
      <trkpt lat="43.51073" lon="6.37198">
        <ele>311</ele>
        <time>2021-11-24T13:00:47.000Z</time>
      </trkpt>
      <trkpt lat="43.51074" lon="6.37198">
        <ele>311</ele>
        <time>2021-11-24T13:00:48.000Z</time>
      </trkpt>
      <trkpt lat="43.51075" lon="6.37199">
        <ele>311</ele>
        <time>2021-11-24T13:00:49.000Z</time>
      </trkpt>
      <trkpt lat="43.51076" lon="6.37199">
        <ele>311</ele>
        <time>2021-11-24T13:00:50.000Z</time>
      </trkpt>
      <trkpt lat="43.51078" lon="6.37199">
        <ele>311</ele>
        <time>2021-11-24T13:00:51.000Z</time>
      </trkpt>
      <trkpt lat="43.51079" lon="6.37199">
        <ele>311</ele>
        <time>2021-11-24T13:00:52.000Z</time>
      </trkpt>
      <trkpt lat="43.5108" lon="6.37199">
        <ele>311</ele>
        <time>2021-11-24T13:00:53.000Z</time>
      </trkpt>
      <trkpt lat="43.51082" lon="6.37199">
        <ele>311</ele>
        <time>2021-11-24T13:00:54.000Z</time>
      </trkpt>
      <trkpt lat="43.51083" lon="6.37199">
        <ele>310</ele>
        <time>2021-11-24T13:00:55.000Z</time>
      </trkpt>
      <trkpt lat="43.51084" lon="6.37199">
        <ele>310</ele>
        <time>2021-11-24T13:00:56.000Z</time>
      </trkpt>
      <trkpt lat="43.51085" lon="6.37199">
        <ele>310</ele>
        <time>2021-11-24T13:00:57.000Z</time>
      </trkpt>
      <trkpt lat="43.51086" lon="6.37199">
        <ele>310</ele>
        <time>2021-11-24T13:00:58.000Z</time>
      </trkpt>
      <trkpt lat="43.51087" lon="6.37199">
        <ele>310</ele>
        <time>2021-11-24T13:00:59.000Z</time>
      </trkpt>
      <trkpt lat="43.51088" lon="6.37199">
        <ele>310</ele>
        <time>2021-11-24T13:01:00.000Z</time>
      </trkpt>
      <trkpt lat="43.51089" lon="6.37199">
        <ele>310</ele>
        <time>2021-11-24T13:01:01.000Z</time>
      </trkpt>
      <trkpt lat="43.5109" lon="6.37199">
        <ele>309</ele>
        <time>2021-11-24T13:01:02.000Z</time>
      </trkpt>
      <trkpt lat="43.51091" lon="6.37199">
        <ele>309</ele>
        <time>2021-11-24T13:01:03.000Z</time>
      </trkpt>
      <trkpt lat="43.51092" lon="6.37199">
        <ele>309</ele>
        <time>2021-11-24T13:01:04.000Z</time>
      </trkpt>
      <trkpt lat="43.51092" lon="6.37199">
        <ele>309</ele>
        <time>2021-11-24T13:01:05.000Z</time>
      </trkpt>
      <trkpt lat="43.51093" lon="6.37199">
        <ele>309</ele>
        <time>2021-11-24T13:01:06.000Z</time>
      </trkpt>
      <trkpt lat="43.51094" lon="6.37199">
        <ele>309</ele>
        <time>2021-11-24T13:01:07.000Z</time>
      </trkpt>
      <trkpt lat="43.51095" lon="6.37199">
        <ele>309</ele>
        <time>2021-11-24T13:01:08.000Z</time>
      </trkpt>
      <trkpt lat="43.51096" lon="6.37199">
        <ele>309</ele>
        <time>2021-11-24T13:01:09.000Z</time>
      </trkpt>
      <trkpt lat="43.51097" lon="6.37199">
        <ele>309</ele>
        <time>2021-11-24T13:01:10.000Z</time>
      </trkpt>
      <trkpt lat="43.51097" lon="6.372">
        <ele>309</ele>
        <time>2021-11-24T13:01:11.000Z</time>
      </trkpt>
      <trkpt lat="43.51098" lon="6.372">
        <ele>309</ele>
        <time>2021-11-24T13:01:12.000Z</time>
      </trkpt>
      <trkpt lat="43.51099" lon="6.37201">
        <ele>309</ele>
        <time>2021-11-24T13:01:13.000Z</time>
      </trkpt>
      <trkpt lat="43.511" lon="6.37201">
        <ele>309</ele>
        <time>2021-11-24T13:01:14.000Z</time>
      </trkpt>
      <trkpt lat="43.511" lon="6.37202">
        <ele>309</ele>
        <time>2021-11-24T13:01:15.000Z</time>
      </trkpt>
      <trkpt lat="43.511" lon="6.37202">
        <ele>309</ele>
        <time>2021-11-24T13:01:16.000Z</time>
      </trkpt>
      <trkpt lat="43.51101" lon="6.37202">
        <ele>309</ele>
        <time>2021-11-24T13:01:17.000Z</time>
      </trkpt>
      <trkpt lat="43.51101" lon="6.37202">
        <ele>309</ele>
        <time>2021-11-24T13:01:18.000Z</time>
      </trkpt>
      <trkpt lat="43.51102" lon="6.37201">
        <ele>309</ele>
        <time>2021-11-24T13:01:19.000Z</time>
      </trkpt>
      <trkpt lat="43.51103" lon="6.37201">
        <ele>309</ele>
        <time>2021-11-24T13:01:20.000Z</time>
      </trkpt>
      <trkpt lat="43.51103" lon="6.37201">
        <ele>309</ele>
        <time>2021-11-24T13:01:21.000Z</time>
      </trkpt>
      <trkpt lat="43.51104" lon="6.37201">
        <ele>309</ele>
        <time>2021-11-24T13:01:22.000Z</time>
      </trkpt>
      <trkpt lat="43.51105" lon="6.37201">
        <ele>309</ele>
        <time>2021-11-24T13:01:23.000Z</time>
      </trkpt>
      <trkpt lat="43.51106" lon="6.37201">
        <ele>309</ele>
        <time>2021-11-24T13:01:24.000Z</time>
      </trkpt>
      <trkpt lat="43.51108" lon="6.37201">
        <ele>309</ele>
        <time>2021-11-24T13:01:25.000Z</time>
      </trkpt>
      <trkpt lat="43.51109" lon="6.372">
        <ele>309</ele>
        <time>2021-11-24T13:01:26.000Z</time>
      </trkpt>
      <trkpt lat="43.5111" lon="6.372">
        <ele>309</ele>
        <time>2021-11-24T13:01:27.000Z</time>
      </trkpt>
      <trkpt lat="43.51111" lon="6.372">
        <ele>309</ele>
        <time>2021-11-24T13:01:28.000Z</time>
      </trkpt>
      <trkpt lat="43.51112" lon="6.372">
        <ele>309</ele>
        <time>2021-11-24T13:01:29.000Z</time>
      </trkpt>
      <trkpt lat="43.51113" lon="6.372">
        <ele>308</ele>
        <time>2021-11-24T13:01:30.000Z</time>
      </trkpt>
      <trkpt lat="43.51114" lon="6.372">
        <ele>308</ele>
        <time>2021-11-24T13:01:31.000Z</time>
      </trkpt>
      <trkpt lat="43.51115" lon="6.372">
        <ele>308</ele>
        <time>2021-11-24T13:01:32.000Z</time>
      </trkpt>
      <trkpt lat="43.51116" lon="6.372">
        <ele>308</ele>
        <time>2021-11-24T13:01:33.000Z</time>
      </trkpt>
      <trkpt lat="43.51117" lon="6.372">
        <ele>308</ele>
        <time>2021-11-24T13:01:34.000Z</time>
      </trkpt>
      <trkpt lat="43.51118" lon="6.372">
        <ele>308</ele>
        <time>2021-11-24T13:01:35.000Z</time>
      </trkpt>
      <trkpt lat="43.51119" lon="6.372">
        <ele>308</ele>
        <time>2021-11-24T13:01:36.000Z</time>
      </trkpt>
      <trkpt lat="43.5112" lon="6.372">
        <ele>308</ele>
        <time>2021-11-24T13:01:37.000Z</time>
      </trkpt>
      <trkpt lat="43.5112" lon="6.372">
        <ele>308</ele>
        <time>2021-11-24T13:01:38.000Z</time>
      </trkpt>
      <trkpt lat="43.51121" lon="6.372">
        <ele>308</ele>
        <time>2021-11-24T13:01:39.000Z</time>
      </trkpt>
      <trkpt lat="43.51121" lon="6.372">
        <ele>308</ele>
        <time>2021-11-24T13:01:40.000Z</time>
      </trkpt>
      <trkpt lat="43.51122" lon="6.372">
        <ele>308</ele>
        <time>2021-11-24T13:01:41.000Z</time>
      </trkpt>
      <trkpt lat="43.51122" lon="6.372">
        <ele>308</ele>
        <time>2021-11-24T13:01:42.000Z</time>
      </trkpt>
      <trkpt lat="43.51123" lon="6.372">
        <ele>308</ele>
        <time>2021-11-24T13:01:43.000Z</time>
      </trkpt>
      <trkpt lat="43.51123" lon="6.372">
        <ele>308</ele>
        <time>2021-11-24T13:01:44.000Z</time>
      </trkpt>
      <trkpt lat="43.51124" lon="6.372">
        <ele>308</ele>
        <time>2021-11-24T13:01:45.000Z</time>
      </trkpt>
      <trkpt lat="43.51124" lon="6.372">
        <ele>308</ele>
        <time>2021-11-24T13:01:46.000Z</time>
      </trkpt>
      <trkpt lat="43.51125" lon="6.372">
        <ele>308</ele>
        <time>2021-11-24T13:01:47.000Z</time>
      </trkpt>
      <trkpt lat="43.51125" lon="6.372">
        <ele>309</ele>
        <time>2021-11-24T13:01:48.000Z</time>
      </trkpt>
      <trkpt lat="43.51126" lon="6.372">
        <ele>309</ele>
        <time>2021-11-24T13:01:49.000Z</time>
      </trkpt>
      <trkpt lat="43.51127" lon="6.372">
        <ele>309</ele>
        <time>2021-11-24T13:01:50.000Z</time>
      </trkpt>
      <trkpt lat="43.51128" lon="6.372">
        <ele>309</ele>
        <time>2021-11-24T13:01:51.000Z</time>
      </trkpt>
      <trkpt lat="43.51129" lon="6.372">
        <ele>309</ele>
        <time>2021-11-24T13:01:52.000Z</time>
      </trkpt>
      <trkpt lat="43.5113" lon="6.372">
        <ele>310</ele>
        <time>2021-11-24T13:01:53.000Z</time>
      </trkpt>
      <trkpt lat="43.51131" lon="6.372">
        <ele>310</ele>
        <time>2021-11-24T13:01:54.000Z</time>
      </trkpt>
      <trkpt lat="43.51131" lon="6.372">
        <ele>310</ele>
        <time>2021-11-24T13:01:55.000Z</time>
      </trkpt>
      <trkpt lat="43.51132" lon="6.372">
        <ele>310</ele>
        <time>2021-11-24T13:01:56.000Z</time>
      </trkpt>
      <trkpt lat="43.51132" lon="6.372">
        <ele>310</ele>
        <time>2021-11-24T13:01:57.000Z</time>
      </trkpt>
      <trkpt lat="43.51132" lon="6.372">
        <ele>310</ele>
        <time>2021-11-24T13:01:58.000Z</time>
      </trkpt>
      <trkpt lat="43.51133" lon="6.372">
        <ele>310</ele>
        <time>2021-11-24T13:01:59.000Z</time>
      </trkpt>
      <trkpt lat="43.51134" lon="6.372">
        <ele>310</ele>
        <time>2021-11-24T13:02:00.000Z</time>
      </trkpt>
      <trkpt lat="43.51135" lon="6.372">
        <ele>310</ele>
        <time>2021-11-24T13:02:01.000Z</time>
      </trkpt>
      <trkpt lat="43.51136" lon="6.372">
        <ele>310</ele>
        <time>2021-11-24T13:02:02.000Z</time>
      </trkpt>
      <trkpt lat="43.51137" lon="6.372">
        <ele>310</ele>
        <time>2021-11-24T13:02:03.000Z</time>
      </trkpt>
      <trkpt lat="43.51138" lon="6.372">
        <ele>310</ele>
        <time>2021-11-24T13:02:04.000Z</time>
      </trkpt>
      <trkpt lat="43.5114" lon="6.372">
        <ele>310</ele>
        <time>2021-11-24T13:02:05.000Z</time>
      </trkpt>
      <trkpt lat="43.51141" lon="6.372">
        <ele>310</ele>
        <time>2021-11-24T13:02:06.000Z</time>
      </trkpt>
      <trkpt lat="43.51143" lon="6.372">
        <ele>310</ele>
        <time>2021-11-24T13:02:07.000Z</time>
      </trkpt>
      <trkpt lat="43.51145" lon="6.372">
        <ele>310</ele>
        <time>2021-11-24T13:02:08.000Z</time>
      </trkpt>
      <trkpt lat="43.51147" lon="6.372">
        <ele>310</ele>
        <time>2021-11-24T13:02:09.000Z</time>
      </trkpt>
      <trkpt lat="43.51149" lon="6.372">
        <ele>310</ele>
        <time>2021-11-24T13:02:10.000Z</time>
      </trkpt>
      <trkpt lat="43.51151" lon="6.372">
        <ele>310</ele>
        <time>2021-11-24T13:02:11.000Z</time>
      </trkpt>
      <trkpt lat="43.51153" lon="6.372">
        <ele>310</ele>
        <time>2021-11-24T13:02:12.000Z</time>
      </trkpt>
      <trkpt lat="43.51155" lon="6.372">
        <ele>310</ele>
        <time>2021-11-24T13:02:13.000Z</time>
      </trkpt>
      <trkpt lat="43.51156" lon="6.372">
        <ele>310</ele>
        <time>2021-11-24T13:02:14.000Z</time>
      </trkpt>
      <trkpt lat="43.51158" lon="6.372">
        <ele>310</ele>
        <time>2021-11-24T13:02:15.000Z</time>
      </trkpt>
      <trkpt lat="43.51159" lon="6.37199">
        <ele>310</ele>
        <time>2021-11-24T13:02:16.000Z</time>
      </trkpt>
      <trkpt lat="43.51161" lon="6.372">
        <ele>310</ele>
        <time>2021-11-24T13:02:17.000Z</time>
      </trkpt>
      <trkpt lat="43.51162" lon="6.372">
        <ele>310</ele>
        <time>2021-11-24T13:02:18.000Z</time>
      </trkpt>
      <trkpt lat="43.51163" lon="6.372">
        <ele>310</ele>
        <time>2021-11-24T13:02:19.000Z</time>
      </trkpt>
      <trkpt lat="43.51164" lon="6.372">
        <ele>310</ele>
        <time>2021-11-24T13:02:20.000Z</time>
      </trkpt>
      <trkpt lat="43.51165" lon="6.372">
        <ele>311</ele>
        <time>2021-11-24T13:02:21.000Z</time>
      </trkpt>
      <trkpt lat="43.51167" lon="6.372">
        <ele>311</ele>
        <time>2021-11-24T13:02:22.000Z</time>
      </trkpt>
      <trkpt lat="43.51167" lon="6.372">
        <ele>311</ele>
        <time>2021-11-24T13:02:23.000Z</time>
      </trkpt>
      <trkpt lat="43.51168" lon="6.372">
        <ele>311</ele>
        <time>2021-11-24T13:02:24.000Z</time>
      </trkpt>
      <trkpt lat="43.51169" lon="6.372">
        <ele>311</ele>
        <time>2021-11-24T13:02:25.000Z</time>
      </trkpt>
      <trkpt lat="43.51169" lon="6.372">
        <ele>311</ele>
        <time>2021-11-24T13:02:26.000Z</time>
      </trkpt>
      <trkpt lat="43.5117" lon="6.37201">
        <ele>311</ele>
        <time>2021-11-24T13:02:27.000Z</time>
      </trkpt>
      <trkpt lat="43.51171" lon="6.37201">
        <ele>311</ele>
        <time>2021-11-24T13:02:28.000Z</time>
      </trkpt>
      <trkpt lat="43.51172" lon="6.37201">
        <ele>311</ele>
        <time>2021-11-24T13:02:29.000Z</time>
      </trkpt>
      <trkpt lat="43.51173" lon="6.37201">
        <ele>311</ele>
        <time>2021-11-24T13:02:30.000Z</time>
      </trkpt>
      <trkpt lat="43.51174" lon="6.37202">
        <ele>311</ele>
        <time>2021-11-24T13:02:31.000Z</time>
      </trkpt>
      <trkpt lat="43.51175" lon="6.37202">
        <ele>311</ele>
        <time>2021-11-24T13:02:32.000Z</time>
      </trkpt>
      <trkpt lat="43.51176" lon="6.37202">
        <ele>311</ele>
        <time>2021-11-24T13:02:33.000Z</time>
      </trkpt>
      <trkpt lat="43.51177" lon="6.37202">
        <ele>311</ele>
        <time>2021-11-24T13:02:34.000Z</time>
      </trkpt>
      <trkpt lat="43.51178" lon="6.37203">
        <ele>311</ele>
        <time>2021-11-24T13:02:35.000Z</time>
      </trkpt>
      <trkpt lat="43.51179" lon="6.37203">
        <ele>311</ele>
        <time>2021-11-24T13:02:36.000Z</time>
      </trkpt>
      <trkpt lat="43.51181" lon="6.37204">
        <ele>311</ele>
        <time>2021-11-24T13:02:37.000Z</time>
      </trkpt>
      <trkpt lat="43.51182" lon="6.37204">
        <ele>311</ele>
        <time>2021-11-24T13:02:38.000Z</time>
      </trkpt>
      <trkpt lat="43.51183" lon="6.37204">
        <ele>310</ele>
        <time>2021-11-24T13:02:39.000Z</time>
      </trkpt>
      <trkpt lat="43.51184" lon="6.37205">
        <ele>310</ele>
        <time>2021-11-24T13:02:40.000Z</time>
      </trkpt>
      <trkpt lat="43.51185" lon="6.37205">
        <ele>310</ele>
        <time>2021-11-24T13:02:41.000Z</time>
      </trkpt>
      <trkpt lat="43.51186" lon="6.37205">
        <ele>309</ele>
        <time>2021-11-24T13:02:42.000Z</time>
      </trkpt>
      <trkpt lat="43.51187" lon="6.37206">
        <ele>309</ele>
        <time>2021-11-24T13:02:43.000Z</time>
      </trkpt>
      <trkpt lat="43.51188" lon="6.37206">
        <ele>309</ele>
        <time>2021-11-24T13:02:44.000Z</time>
      </trkpt>
      <trkpt lat="43.51189" lon="6.37206">
        <ele>309</ele>
        <time>2021-11-24T13:02:45.000Z</time>
      </trkpt>
      <trkpt lat="43.5119" lon="6.37207">
        <ele>309</ele>
        <time>2021-11-24T13:02:46.000Z</time>
      </trkpt>
      <trkpt lat="43.5119" lon="6.37207">
        <ele>309</ele>
        <time>2021-11-24T13:02:47.000Z</time>
      </trkpt>
      <trkpt lat="43.51191" lon="6.37207">
        <ele>309</ele>
        <time>2021-11-24T13:02:48.000Z</time>
      </trkpt>
      <trkpt lat="43.51191" lon="6.37207">
        <ele>309</ele>
        <time>2021-11-24T13:02:49.000Z</time>
      </trkpt>
      <trkpt lat="43.51192" lon="6.37207">
        <ele>309</ele>
        <time>2021-11-24T13:02:50.000Z</time>
      </trkpt>
      <trkpt lat="43.51193" lon="6.37207">
        <ele>309</ele>
        <time>2021-11-24T13:02:51.000Z</time>
      </trkpt>
      <trkpt lat="43.51193" lon="6.37207">
        <ele>309</ele>
        <time>2021-11-24T13:02:52.000Z</time>
      </trkpt>
      <trkpt lat="43.51193" lon="6.37207">
        <ele>309</ele>
        <time>2021-11-24T13:02:53.000Z</time>
      </trkpt>
      <trkpt lat="43.51193" lon="6.37207">
        <ele>309</ele>
        <time>2021-11-24T13:02:54.000Z</time>
      </trkpt>
      <trkpt lat="43.51194" lon="6.37207">
        <ele>309</ele>
        <time>2021-11-24T13:02:55.000Z</time>
      </trkpt>
      <trkpt lat="43.51194" lon="6.37207">
        <ele>309</ele>
        <time>2021-11-24T13:02:56.000Z</time>
      </trkpt>
      <trkpt lat="43.51195" lon="6.37208">
        <ele>309</ele>
        <time>2021-11-24T13:02:57.000Z</time>
      </trkpt>
      <trkpt lat="43.51196" lon="6.37208">
        <ele>309</ele>
        <time>2021-11-24T13:02:58.000Z</time>
      </trkpt>
      <trkpt lat="43.51196" lon="6.37208">
        <ele>309</ele>
        <time>2021-11-24T13:02:59.000Z</time>
      </trkpt>
      <trkpt lat="43.51197" lon="6.37208">
        <ele>309</ele>
        <time>2021-11-24T13:03:00.000Z</time>
      </trkpt>
      <trkpt lat="43.51198" lon="6.37208">
        <ele>309</ele>
        <time>2021-11-24T13:03:01.000Z</time>
      </trkpt>
      <trkpt lat="43.51199" lon="6.37208">
        <ele>309</ele>
        <time>2021-11-24T13:03:02.000Z</time>
      </trkpt>
      <trkpt lat="43.512" lon="6.37208">
        <ele>309</ele>
        <time>2021-11-24T13:03:03.000Z</time>
      </trkpt>
      <trkpt lat="43.51201" lon="6.37208">
        <ele>309</ele>
        <time>2021-11-24T13:03:04.000Z</time>
      </trkpt>
      <trkpt lat="43.51202" lon="6.37209">
        <ele>308</ele>
        <time>2021-11-24T13:03:05.000Z</time>
      </trkpt>
      <trkpt lat="43.51202" lon="6.37209">
        <ele>308</ele>
        <time>2021-11-24T13:03:06.000Z</time>
      </trkpt>
      <trkpt lat="43.51203" lon="6.37209">
        <ele>308</ele>
        <time>2021-11-24T13:03:07.000Z</time>
      </trkpt>
      <trkpt lat="43.51203" lon="6.37209">
        <ele>308</ele>
        <time>2021-11-24T13:03:08.000Z</time>
      </trkpt>
      <trkpt lat="43.51204" lon="6.37209">
        <ele>308</ele>
        <time>2021-11-24T13:03:09.000Z</time>
      </trkpt>
      <trkpt lat="43.51205" lon="6.37209">
        <ele>308</ele>
        <time>2021-11-24T13:03:10.000Z</time>
      </trkpt>
      <trkpt lat="43.51205" lon="6.37209">
        <ele>308</ele>
        <time>2021-11-24T13:03:11.000Z</time>
      </trkpt>
      <trkpt lat="43.51206" lon="6.3721">
        <ele>308</ele>
        <time>2021-11-24T13:03:12.000Z</time>
      </trkpt>
      <trkpt lat="43.51207" lon="6.3721">
        <ele>307</ele>
        <time>2021-11-24T13:03:13.000Z</time>
      </trkpt>
      <trkpt lat="43.51208" lon="6.3721">
        <ele>307</ele>
        <time>2021-11-24T13:03:14.000Z</time>
      </trkpt>
      <trkpt lat="43.51209" lon="6.3721">
        <ele>307</ele>
        <time>2021-11-24T13:03:15.000Z</time>
      </trkpt>
      <trkpt lat="43.5121" lon="6.37211">
        <ele>307</ele>
        <time>2021-11-24T13:03:16.000Z</time>
      </trkpt>
      <trkpt lat="43.51211" lon="6.37211">
        <ele>307</ele>
        <time>2021-11-24T13:03:17.000Z</time>
      </trkpt>
      <trkpt lat="43.51212" lon="6.37211">
        <ele>307</ele>
        <time>2021-11-24T13:03:18.000Z</time>
      </trkpt>
      <trkpt lat="43.51212" lon="6.37211">
        <ele>306</ele>
        <time>2021-11-24T13:03:19.000Z</time>
      </trkpt>
      <trkpt lat="43.51213" lon="6.37211">
        <ele>306</ele>
        <time>2021-11-24T13:03:20.000Z</time>
      </trkpt>
      <trkpt lat="43.51214" lon="6.37211">
        <ele>306</ele>
        <time>2021-11-24T13:03:21.000Z</time>
      </trkpt>
      <trkpt lat="43.51215" lon="6.37212">
        <ele>306</ele>
        <time>2021-11-24T13:03:22.000Z</time>
      </trkpt>
      <trkpt lat="43.51216" lon="6.37212">
        <ele>306</ele>
        <time>2021-11-24T13:03:23.000Z</time>
      </trkpt>
      <trkpt lat="43.51217" lon="6.37212">
        <ele>306</ele>
        <time>2021-11-24T13:03:24.000Z</time>
      </trkpt>
      <trkpt lat="43.51218" lon="6.37212">
        <ele>306</ele>
        <time>2021-11-24T13:03:25.000Z</time>
      </trkpt>
      <trkpt lat="43.51218" lon="6.37212">
        <ele>306</ele>
        <time>2021-11-24T13:03:26.000Z</time>
      </trkpt>
      <trkpt lat="43.51219" lon="6.37212">
        <ele>306</ele>
        <time>2021-11-24T13:03:27.000Z</time>
      </trkpt>
      <trkpt lat="43.51219" lon="6.37212">
        <ele>306</ele>
        <time>2021-11-24T13:03:28.000Z</time>
      </trkpt>
      <trkpt lat="43.5122" lon="6.37213">
        <ele>306</ele>
        <time>2021-11-24T13:03:29.000Z</time>
      </trkpt>
      <trkpt lat="43.51221" lon="6.37213">
        <ele>306</ele>
        <time>2021-11-24T13:03:30.000Z</time>
      </trkpt>
      <trkpt lat="43.51222" lon="6.37213">
        <ele>306</ele>
        <time>2021-11-24T13:03:31.000Z</time>
      </trkpt>
      <trkpt lat="43.51224" lon="6.37214">
        <ele>306</ele>
        <time>2021-11-24T13:03:32.000Z</time>
      </trkpt>
      <trkpt lat="43.51225" lon="6.37214">
        <ele>305</ele>
        <time>2021-11-24T13:03:33.000Z</time>
      </trkpt>
      <trkpt lat="43.51227" lon="6.37215">
        <ele>304</ele>
        <time>2021-11-24T13:03:34.000Z</time>
      </trkpt>
      <trkpt lat="43.51228" lon="6.37215">
        <ele>304</ele>
        <time>2021-11-24T13:03:35.000Z</time>
      </trkpt>
      <trkpt lat="43.51229" lon="6.37216">
        <ele>304</ele>
        <time>2021-11-24T13:03:36.000Z</time>
      </trkpt>
      <trkpt lat="43.51231" lon="6.37216">
        <ele>303</ele>
        <time>2021-11-24T13:03:37.000Z</time>
      </trkpt>
      <trkpt lat="43.51232" lon="6.37217">
        <ele>303</ele>
        <time>2021-11-24T13:03:38.000Z</time>
      </trkpt>
      <trkpt lat="43.51233" lon="6.37217">
        <ele>303</ele>
        <time>2021-11-24T13:03:39.000Z</time>
      </trkpt>
      <trkpt lat="43.51235" lon="6.37218">
        <ele>303</ele>
        <time>2021-11-24T13:03:40.000Z</time>
      </trkpt>
      <trkpt lat="43.51236" lon="6.37218">
        <ele>302</ele>
        <time>2021-11-24T13:03:41.000Z</time>
      </trkpt>
      <trkpt lat="43.51238" lon="6.37219">
        <ele>302</ele>
        <time>2021-11-24T13:03:42.000Z</time>
      </trkpt>
      <trkpt lat="43.51239" lon="6.3722">
        <ele>302</ele>
        <time>2021-11-24T13:03:43.000Z</time>
      </trkpt>
      <trkpt lat="43.51241" lon="6.37221">
        <ele>302</ele>
        <time>2021-11-24T13:03:44.000Z</time>
      </trkpt>
      <trkpt lat="43.51243" lon="6.37221">
        <ele>302</ele>
        <time>2021-11-24T13:03:45.000Z</time>
      </trkpt>
      <trkpt lat="43.51244" lon="6.37222">
        <ele>302</ele>
        <time>2021-11-24T13:03:46.000Z</time>
      </trkpt>
      <trkpt lat="43.51246" lon="6.37222">
        <ele>302</ele>
        <time>2021-11-24T13:03:47.000Z</time>
      </trkpt>
      <trkpt lat="43.51248" lon="6.37223">
        <ele>302</ele>
        <time>2021-11-24T13:03:48.000Z</time>
      </trkpt>
      <trkpt lat="43.5125" lon="6.37224">
        <ele>302</ele>
        <time>2021-11-24T13:03:49.000Z</time>
      </trkpt>
      <trkpt lat="43.51251" lon="6.37224">
        <ele>302</ele>
        <time>2021-11-24T13:03:50.000Z</time>
      </trkpt>
      <trkpt lat="43.51253" lon="6.37225">
        <ele>302</ele>
        <time>2021-11-24T13:03:51.000Z</time>
      </trkpt>
      <trkpt lat="43.51255" lon="6.37226">
        <ele>302</ele>
        <time>2021-11-24T13:03:52.000Z</time>
      </trkpt>
      <trkpt lat="43.51257" lon="6.37226">
        <ele>302</ele>
        <time>2021-11-24T13:03:53.000Z</time>
      </trkpt>
      <trkpt lat="43.51258" lon="6.37227">
        <ele>302</ele>
        <time>2021-11-24T13:03:54.000Z</time>
      </trkpt>
      <trkpt lat="43.51259" lon="6.37227">
        <ele>301</ele>
        <time>2021-11-24T13:03:55.000Z</time>
      </trkpt>
      <trkpt lat="43.5126" lon="6.37227">
        <ele>301</ele>
        <time>2021-11-24T13:03:56.000Z</time>
      </trkpt>
      <trkpt lat="43.51261" lon="6.37228">
        <ele>301</ele>
        <time>2021-11-24T13:03:57.000Z</time>
      </trkpt>
      <trkpt lat="43.51262" lon="6.37228">
        <ele>301</ele>
        <time>2021-11-24T13:03:58.000Z</time>
      </trkpt>
      <trkpt lat="43.51263" lon="6.37229">
        <ele>301</ele>
        <time>2021-11-24T13:03:59.000Z</time>
      </trkpt>
      <trkpt lat="43.51264" lon="6.37229">
        <ele>301</ele>
        <time>2021-11-24T13:04:00.000Z</time>
      </trkpt>
      <trkpt lat="43.51265" lon="6.37229">
        <ele>301</ele>
        <time>2021-11-24T13:04:01.000Z</time>
      </trkpt>
      <trkpt lat="43.51265" lon="6.37229">
        <ele>301</ele>
        <time>2021-11-24T13:04:02.000Z</time>
      </trkpt>
      <trkpt lat="43.51266" lon="6.37229">
        <ele>301</ele>
        <time>2021-11-24T13:04:03.000Z</time>
      </trkpt>
      <trkpt lat="43.51266" lon="6.37229">
        <ele>301</ele>
        <time>2021-11-24T13:04:04.000Z</time>
      </trkpt>
      <trkpt lat="43.51267" lon="6.37229">
        <ele>301</ele>
        <time>2021-11-24T13:04:05.000Z</time>
      </trkpt>
      <trkpt lat="43.51267" lon="6.3723">
        <ele>301</ele>
        <time>2021-11-24T13:04:06.000Z</time>
      </trkpt>
      <trkpt lat="43.51267" lon="6.3723">
        <ele>301</ele>
        <time>2021-11-24T13:04:07.000Z</time>
      </trkpt>
      <trkpt lat="43.51267" lon="6.3723">
        <ele>301</ele>
        <time>2021-11-24T13:04:08.000Z</time>
      </trkpt>
      <trkpt lat="43.51266" lon="6.3723">
        <ele>301</ele>
        <time>2021-11-24T13:04:09.000Z</time>
      </trkpt>
      <trkpt lat="43.51266" lon="6.3723">
        <ele>301</ele>
        <time>2021-11-24T13:04:10.000Z</time>
      </trkpt>
      <trkpt lat="43.51266" lon="6.3723">
        <ele>301</ele>
        <time>2021-11-24T13:04:11.000Z</time>
      </trkpt>
      <trkpt lat="43.51266" lon="6.3723">
        <ele>301</ele>
        <time>2021-11-24T13:04:12.000Z</time>
      </trkpt>
      <trkpt lat="43.51266" lon="6.3723">
        <ele>301</ele>
        <time>2021-11-24T13:04:13.000Z</time>
      </trkpt>
      <trkpt lat="43.51266" lon="6.3723">
        <ele>301</ele>
        <time>2021-11-24T13:04:14.000Z</time>
      </trkpt>
      <trkpt lat="43.51266" lon="6.3723">
        <ele>301</ele>
        <time>2021-11-24T13:04:15.000Z</time>
      </trkpt>
      <trkpt lat="43.51266" lon="6.3723">
        <ele>301</ele>
        <time>2021-11-24T13:04:16.000Z</time>
      </trkpt>
      <trkpt lat="43.51266" lon="6.3723">
        <ele>301</ele>
        <time>2021-11-24T13:04:17.000Z</time>
      </trkpt>
      <trkpt lat="43.51266" lon="6.3723">
        <ele>301</ele>
        <time>2021-11-24T13:04:18.000Z</time>
      </trkpt>
      <trkpt lat="43.51266" lon="6.3723">
        <ele>301</ele>
        <time>2021-11-24T13:04:19.000Z</time>
      </trkpt>
      <trkpt lat="43.51266" lon="6.3723">
        <ele>301</ele>
        <time>2021-11-24T13:04:20.000Z</time>
      </trkpt>
      <trkpt lat="43.51266" lon="6.3723">
        <ele>301</ele>
        <time>2021-11-24T13:04:21.000Z</time>
      </trkpt>
      <trkpt lat="43.51266" lon="6.3723">
        <ele>301</ele>
        <time>2021-11-24T13:04:22.000Z</time>
      </trkpt>
      <trkpt lat="43.51266" lon="6.3723">
        <ele>301</ele>
        <time>2021-11-24T13:04:23.000Z</time>
      </trkpt>
      <trkpt lat="43.51266" lon="6.3723">
        <ele>301</ele>
        <time>2021-11-24T13:04:24.000Z</time>
      </trkpt>
      <trkpt lat="43.51266" lon="6.3723">
        <ele>301</ele>
        <time>2021-11-24T13:04:25.000Z</time>
      </trkpt>
      <trkpt lat="43.51266" lon="6.3723">
        <ele>301</ele>
        <time>2021-11-24T13:04:26.000Z</time>
      </trkpt>
      <trkpt lat="43.51266" lon="6.3723">
        <ele>301</ele>
        <time>2021-11-24T13:04:27.000Z</time>
      </trkpt>
      <trkpt lat="43.51266" lon="6.3723">
        <ele>301</ele>
        <time>2021-11-24T13:04:28.000Z</time>
      </trkpt>
      <trkpt lat="43.51266" lon="6.3723">
        <ele>301</ele>
        <time>2021-11-24T13:04:29.000Z</time>
      </trkpt>
      <trkpt lat="43.51266" lon="6.3723">
        <ele>301</ele>
        <time>2021-11-24T13:04:30.000Z</time>
      </trkpt>
      <trkpt lat="43.51266" lon="6.3723">
        <ele>301</ele>
        <time>2021-11-24T13:04:31.000Z</time>
      </trkpt>
      <trkpt lat="43.51266" lon="6.3723">
        <ele>301</ele>
        <time>2021-11-24T13:04:32.000Z</time>
      </trkpt>
      <trkpt lat="43.51266" lon="6.3723">
        <ele>301</ele>
        <time>2021-11-24T13:04:33.000Z</time>
      </trkpt>
      <trkpt lat="43.51266" lon="6.3723">
        <ele>301</ele>
        <time>2021-11-24T13:04:34.000Z</time>
      </trkpt>
      <trkpt lat="43.51266" lon="6.3723">
        <ele>301</ele>
        <time>2021-11-24T13:04:35.000Z</time>
      </trkpt>
      <trkpt lat="43.51266" lon="6.3723">
        <ele>301</ele>
        <time>2021-11-24T13:04:36.000Z</time>
      </trkpt>
      <trkpt lat="43.51266" lon="6.3723">
        <ele>301</ele>
        <time>2021-11-24T13:04:37.000Z</time>
      </trkpt>
      <trkpt lat="43.51266" lon="6.3723">
        <ele>301</ele>
        <time>2021-11-24T13:04:38.000Z</time>
      </trkpt>
      <trkpt lat="43.51266" lon="6.3723">
        <ele>301</ele>
        <time>2021-11-24T13:04:39.000Z</time>
      </trkpt>
      <trkpt lat="43.51266" lon="6.3723">
        <ele>301</ele>
        <time>2021-11-24T13:04:40.000Z</time>
      </trkpt>
      <trkpt lat="43.51266" lon="6.3723">
        <ele>301</ele>
        <time>2021-11-24T13:04:41.000Z</time>
      </trkpt>
      <trkpt lat="43.51266" lon="6.3723">
        <ele>301</ele>
        <time>2021-11-24T13:04:42.000Z</time>
      </trkpt>
      <trkpt lat="43.51266" lon="6.3723">
        <ele>301</ele>
        <time>2021-11-24T13:04:43.000Z</time>
      </trkpt>
      <trkpt lat="43.51266" lon="6.3723">
        <ele>301</ele>
        <time>2021-11-24T13:04:44.000Z</time>
      </trkpt>
      <trkpt lat="43.51266" lon="6.3723">
        <ele>301</ele>
        <time>2021-11-24T13:04:45.000Z</time>
      </trkpt>
      <trkpt lat="43.51266" lon="6.3723">
        <ele>301</ele>
        <time>2021-11-24T13:04:46.000Z</time>
      </trkpt>
      <trkpt lat="43.51266" lon="6.3723">
        <ele>301</ele>
        <time>2021-11-24T13:04:47.000Z</time>
      </trkpt>
      <trkpt lat="43.51266" lon="6.3723">
        <ele>301</ele>
        <time>2021-11-24T13:04:48.000Z</time>
      </trkpt>
      <trkpt lat="43.51266" lon="6.3723">
        <ele>301</ele>
        <time>2021-11-24T13:04:49.000Z</time>
      </trkpt>
      <trkpt lat="43.51266" lon="6.3723">
        <ele>301</ele>
        <time>2021-11-24T13:04:50.000Z</time>
      </trkpt>
      <trkpt lat="43.51266" lon="6.3723">
        <ele>301</ele>
        <time>2021-11-24T13:04:51.000Z</time>
      </trkpt>
      <trkpt lat="43.51266" lon="6.3723">
        <ele>301</ele>
        <time>2021-11-24T13:04:52.000Z</time>
      </trkpt>
      <trkpt lat="43.51266" lon="6.3723">
        <ele>301</ele>
        <time>2021-11-24T13:04:53.000Z</time>
      </trkpt>
      <trkpt lat="43.51266" lon="6.3723">
        <ele>301</ele>
        <time>2021-11-24T13:04:54.000Z</time>
      </trkpt>
      <trkpt lat="43.51266" lon="6.3723">
        <ele>301</ele>
        <time>2021-11-24T13:04:55.000Z</time>
      </trkpt>
      <trkpt lat="43.51266" lon="6.3723">
        <ele>301</ele>
        <time>2021-11-24T13:04:56.000Z</time>
      </trkpt>
      <trkpt lat="43.51266" lon="6.3723">
        <ele>301</ele>
        <time>2021-11-24T13:04:57.000Z</time>
      </trkpt>
      <trkpt lat="43.51266" lon="6.3723">
        <ele>301</ele>
        <time>2021-11-24T13:04:58.000Z</time>
      </trkpt>
      <trkpt lat="43.51266" lon="6.3723">
        <ele>301</ele>
        <time>2021-11-24T13:04:59.000Z</time>
      </trkpt>
      <trkpt lat="43.51266" lon="6.3723">
        <ele>301</ele>
        <time>2021-11-24T13:05:00.000Z</time>
      </trkpt>
      <trkpt lat="43.51266" lon="6.3723">
        <ele>301</ele>
        <time>2021-11-24T13:05:01.000Z</time>
      </trkpt>
      <trkpt lat="43.51266" lon="6.3723">
        <ele>301</ele>
        <time>2021-11-24T13:05:02.000Z</time>
      </trkpt>
      <trkpt lat="43.51266" lon="6.3723">
        <ele>301</ele>
        <time>2021-11-24T13:05:03.000Z</time>
      </trkpt>
      <trkpt lat="43.51266" lon="6.3723">
        <ele>301</ele>
        <time>2021-11-24T13:05:04.000Z</time>
      </trkpt>
      <trkpt lat="43.51266" lon="6.3723">
        <ele>301</ele>
        <time>2021-11-24T13:05:05.000Z</time>
      </trkpt>
      <trkpt lat="43.51266" lon="6.3723">
        <ele>301</ele>
        <time>2021-11-24T13:05:06.000Z</time>
      </trkpt>
      <trkpt lat="43.51266" lon="6.3723">
        <ele>301</ele>
        <time>2021-11-24T13:05:07.000Z</time>
      </trkpt>
      <trkpt lat="43.51266" lon="6.3723">
        <ele>301</ele>
        <time>2021-11-24T13:05:08.000Z</time>
      </trkpt>
      <trkpt lat="43.51266" lon="6.3723">
        <ele>301</ele>
        <time>2021-11-24T13:05:09.000Z</time>
      </trkpt>
      <trkpt lat="43.51266" lon="6.3723">
        <ele>301</ele>
        <time>2021-11-24T13:05:10.000Z</time>
      </trkpt>
      <trkpt lat="43.51266" lon="6.3723">
        <ele>301</ele>
        <time>2021-11-24T13:05:11.000Z</time>
      </trkpt>
      <trkpt lat="43.51266" lon="6.3723">
        <ele>301</ele>
        <time>2021-11-24T13:05:12.000Z</time>
      </trkpt>
      <trkpt lat="43.51266" lon="6.3723">
        <ele>301</ele>
        <time>2021-11-24T13:05:13.000Z</time>
      </trkpt>
      <trkpt lat="43.51263" lon="6.37227">
        <ele>301</ele>
        <time>2021-11-24T13:05:14.000Z</time>
      </trkpt>
      <trkpt lat="43.51263" lon="6.37227">
        <ele>301</ele>
        <time>2021-11-24T13:05:15.000Z</time>
      </trkpt>
      <trkpt lat="43.51263" lon="6.37227">
        <ele>301</ele>
        <time>2021-11-24T13:05:16.000Z</time>
      </trkpt>
      <trkpt lat="43.51263" lon="6.37227">
        <ele>301</ele>
        <time>2021-11-24T13:05:17.000Z</time>
      </trkpt>
      <trkpt lat="43.51263" lon="6.37227">
        <ele>301</ele>
        <time>2021-11-24T13:05:18.000Z</time>
      </trkpt>
      <trkpt lat="43.51264" lon="6.37228">
        <ele>301</ele>
        <time>2021-11-24T13:05:19.000Z</time>
      </trkpt>
      <trkpt lat="43.51264" lon="6.37228">
        <ele>301</ele>
        <time>2021-11-24T13:05:20.000Z</time>
      </trkpt>
      <trkpt lat="43.51265" lon="6.37228">
        <ele>301</ele>
        <time>2021-11-24T13:05:21.000Z</time>
      </trkpt>
      <trkpt lat="43.51265" lon="6.37228">
        <ele>301</ele>
        <time>2021-11-24T13:05:22.000Z</time>
      </trkpt>
      <trkpt lat="43.51266" lon="6.37229">
        <ele>301</ele>
        <time>2021-11-24T13:05:23.000Z</time>
      </trkpt>
      <trkpt lat="43.51267" lon="6.37229">
        <ele>301</ele>
        <time>2021-11-24T13:05:24.000Z</time>
      </trkpt>
      <trkpt lat="43.51267" lon="6.3723">
        <ele>301</ele>
        <time>2021-11-24T13:05:25.000Z</time>
      </trkpt>
      <trkpt lat="43.51268" lon="6.37232">
        <ele>301</ele>
        <time>2021-11-24T13:05:26.000Z</time>
      </trkpt>
      <trkpt lat="43.51269" lon="6.37233">
        <ele>301</ele>
        <time>2021-11-24T13:05:27.000Z</time>
      </trkpt>
      <trkpt lat="43.5127" lon="6.37234">
        <ele>301</ele>
        <time>2021-11-24T13:05:28.000Z</time>
      </trkpt>
      <trkpt lat="43.51271" lon="6.37235">
        <ele>301</ele>
        <time>2021-11-24T13:05:29.000Z</time>
      </trkpt>
      <trkpt lat="43.51272" lon="6.37236">
        <ele>301</ele>
        <time>2021-11-24T13:05:30.000Z</time>
      </trkpt>
      <trkpt lat="43.51273" lon="6.37238">
        <ele>301</ele>
        <time>2021-11-24T13:05:31.000Z</time>
      </trkpt>
      <trkpt lat="43.51275" lon="6.37238">
        <ele>301</ele>
        <time>2021-11-24T13:05:32.000Z</time>
      </trkpt>
      <trkpt lat="43.51275" lon="6.37239">
        <ele>301</ele>
        <time>2021-11-24T13:05:33.000Z</time>
      </trkpt>
      <trkpt lat="43.51276" lon="6.37239">
        <ele>301</ele>
        <time>2021-11-24T13:05:34.000Z</time>
      </trkpt>
      <trkpt lat="43.51277" lon="6.3724">
        <ele>301</ele>
        <time>2021-11-24T13:05:35.000Z</time>
      </trkpt>
      <trkpt lat="43.51278" lon="6.37241">
        <ele>301</ele>
        <time>2021-11-24T13:05:36.000Z</time>
      </trkpt>
      <trkpt lat="43.51279" lon="6.37241">
        <ele>301</ele>
        <time>2021-11-24T13:05:37.000Z</time>
      </trkpt>
      <trkpt lat="43.51281" lon="6.37242">
        <ele>301</ele>
        <time>2021-11-24T13:05:38.000Z</time>
      </trkpt>
      <trkpt lat="43.51282" lon="6.37242">
        <ele>301</ele>
        <time>2021-11-24T13:05:39.000Z</time>
      </trkpt>
      <trkpt lat="43.51283" lon="6.37243">
        <ele>300</ele>
        <time>2021-11-24T13:05:40.000Z</time>
      </trkpt>
      <trkpt lat="43.51285" lon="6.37243">
        <ele>300</ele>
        <time>2021-11-24T13:05:41.000Z</time>
      </trkpt>
      <trkpt lat="43.51286" lon="6.37243">
        <ele>300</ele>
        <time>2021-11-24T13:05:42.000Z</time>
      </trkpt>
      <trkpt lat="43.51287" lon="6.37243">
        <ele>300</ele>
        <time>2021-11-24T13:05:43.000Z</time>
      </trkpt>
      <trkpt lat="43.51287" lon="6.37244">
        <ele>300</ele>
        <time>2021-11-24T13:05:44.000Z</time>
      </trkpt>
      <trkpt lat="43.51288" lon="6.37244">
        <ele>300</ele>
        <time>2021-11-24T13:05:45.000Z</time>
      </trkpt>
      <trkpt lat="43.51289" lon="6.37244">
        <ele>300</ele>
        <time>2021-11-24T13:05:46.000Z</time>
      </trkpt>
      <trkpt lat="43.51289" lon="6.37245">
        <ele>300</ele>
        <time>2021-11-24T13:05:47.000Z</time>
      </trkpt>
      <trkpt lat="43.5129" lon="6.37245">
        <ele>300</ele>
        <time>2021-11-24T13:05:48.000Z</time>
      </trkpt>
      <trkpt lat="43.5129" lon="6.37246">
        <ele>300</ele>
        <time>2021-11-24T13:05:49.000Z</time>
      </trkpt>
      <trkpt lat="43.51291" lon="6.37246">
        <ele>300</ele>
        <time>2021-11-24T13:05:50.000Z</time>
      </trkpt>
      <trkpt lat="43.51292" lon="6.37247">
        <ele>300</ele>
        <time>2021-11-24T13:05:51.000Z</time>
      </trkpt>
      <trkpt lat="43.51293" lon="6.37248">
        <ele>299</ele>
        <time>2021-11-24T13:05:52.000Z</time>
      </trkpt>
      <trkpt lat="43.51294" lon="6.37248">
        <ele>299</ele>
        <time>2021-11-24T13:05:53.000Z</time>
      </trkpt>
      <trkpt lat="43.51295" lon="6.37249">
        <ele>299</ele>
        <time>2021-11-24T13:05:54.000Z</time>
      </trkpt>
      <trkpt lat="43.51296" lon="6.37249">
        <ele>299</ele>
        <time>2021-11-24T13:05:55.000Z</time>
      </trkpt>
      <trkpt lat="43.51297" lon="6.3725">
        <ele>299</ele>
        <time>2021-11-24T13:05:56.000Z</time>
      </trkpt>
      <trkpt lat="43.51298" lon="6.3725">
        <ele>299</ele>
        <time>2021-11-24T13:05:57.000Z</time>
      </trkpt>
      <trkpt lat="43.51299" lon="6.3725">
        <ele>299</ele>
        <time>2021-11-24T13:05:58.000Z</time>
      </trkpt>
      <trkpt lat="43.51301" lon="6.3725">
        <ele>298</ele>
        <time>2021-11-24T13:05:59.000Z</time>
      </trkpt>
      <trkpt lat="43.51302" lon="6.37251">
        <ele>298</ele>
        <time>2021-11-24T13:06:00.000Z</time>
      </trkpt>
      <trkpt lat="43.51303" lon="6.37251">
        <ele>298</ele>
        <time>2021-11-24T13:06:01.000Z</time>
      </trkpt>
      <trkpt lat="43.51303" lon="6.37251">
        <ele>298</ele>
        <time>2021-11-24T13:06:02.000Z</time>
      </trkpt>
      <trkpt lat="43.51304" lon="6.37251">
        <ele>298</ele>
        <time>2021-11-24T13:06:03.000Z</time>
      </trkpt>
      <trkpt lat="43.51305" lon="6.37251">
        <ele>298</ele>
        <time>2021-11-24T13:06:04.000Z</time>
      </trkpt>
      <trkpt lat="43.51305" lon="6.37251">
        <ele>298</ele>
        <time>2021-11-24T13:06:05.000Z</time>
      </trkpt>
      <trkpt lat="43.51306" lon="6.37251">
        <ele>298</ele>
        <time>2021-11-24T13:06:06.000Z</time>
      </trkpt>
      <trkpt lat="43.51306" lon="6.37251">
        <ele>297</ele>
        <time>2021-11-24T13:06:07.000Z</time>
      </trkpt>
      <trkpt lat="43.51307" lon="6.37251">
        <ele>297</ele>
        <time>2021-11-24T13:06:08.000Z</time>
      </trkpt>
      <trkpt lat="43.51307" lon="6.37251">
        <ele>297</ele>
        <time>2021-11-24T13:06:09.000Z</time>
      </trkpt>
      <trkpt lat="43.51308" lon="6.37251">
        <ele>297</ele>
        <time>2021-11-24T13:06:10.000Z</time>
      </trkpt>
      <trkpt lat="43.51309" lon="6.37251">
        <ele>297</ele>
        <time>2021-11-24T13:06:11.000Z</time>
      </trkpt>
      <trkpt lat="43.5131" lon="6.37252">
        <ele>297</ele>
        <time>2021-11-24T13:06:12.000Z</time>
      </trkpt>
      <trkpt lat="43.51312" lon="6.37252">
        <ele>297</ele>
        <time>2021-11-24T13:06:13.000Z</time>
      </trkpt>
      <trkpt lat="43.51313" lon="6.37253">
        <ele>296</ele>
        <time>2021-11-24T13:06:14.000Z</time>
      </trkpt>
      <trkpt lat="43.51314" lon="6.37253">
        <ele>296</ele>
        <time>2021-11-24T13:06:15.000Z</time>
      </trkpt>
      <trkpt lat="43.51315" lon="6.37253">
        <ele>296</ele>
        <time>2021-11-24T13:06:16.000Z</time>
      </trkpt>
      <trkpt lat="43.51316" lon="6.37254">
        <ele>296</ele>
        <time>2021-11-24T13:06:17.000Z</time>
      </trkpt>
      <trkpt lat="43.51317" lon="6.37255">
        <ele>296</ele>
        <time>2021-11-24T13:06:18.000Z</time>
      </trkpt>
      <trkpt lat="43.51318" lon="6.37255">
        <ele>296</ele>
        <time>2021-11-24T13:06:19.000Z</time>
      </trkpt>
      <trkpt lat="43.51319" lon="6.37255">
        <ele>296</ele>
        <time>2021-11-24T13:06:20.000Z</time>
      </trkpt>
      <trkpt lat="43.5132" lon="6.37256">
        <ele>296</ele>
        <time>2021-11-24T13:06:21.000Z</time>
      </trkpt>
      <trkpt lat="43.5132" lon="6.37256">
        <ele>296</ele>
        <time>2021-11-24T13:06:22.000Z</time>
      </trkpt>
      <trkpt lat="43.51321" lon="6.37256">
        <ele>296</ele>
        <time>2021-11-24T13:06:23.000Z</time>
      </trkpt>
      <trkpt lat="43.51321" lon="6.37256">
        <ele>296</ele>
        <time>2021-11-24T13:06:24.000Z</time>
      </trkpt>
      <trkpt lat="43.51322" lon="6.37256">
        <ele>296</ele>
        <time>2021-11-24T13:06:25.000Z</time>
      </trkpt>
      <trkpt lat="43.51323" lon="6.37256">
        <ele>295</ele>
        <time>2021-11-24T13:06:26.000Z</time>
      </trkpt>
      <trkpt lat="43.51323" lon="6.37256">
        <ele>295</ele>
        <time>2021-11-24T13:06:27.000Z</time>
      </trkpt>
      <trkpt lat="43.51324" lon="6.37256">
        <ele>295</ele>
        <time>2021-11-24T13:06:28.000Z</time>
      </trkpt>
      <trkpt lat="43.51325" lon="6.37256">
        <ele>295</ele>
        <time>2021-11-24T13:06:29.000Z</time>
      </trkpt>
      <trkpt lat="43.51325" lon="6.37257">
        <ele>295</ele>
        <time>2021-11-24T13:06:30.000Z</time>
      </trkpt>
      <trkpt lat="43.51326" lon="6.37257">
        <ele>295</ele>
        <time>2021-11-24T13:06:31.000Z</time>
      </trkpt>
      <trkpt lat="43.51326" lon="6.37257">
        <ele>295</ele>
        <time>2021-11-24T13:06:32.000Z</time>
      </trkpt>
      <trkpt lat="43.51327" lon="6.37257">
        <ele>295</ele>
        <time>2021-11-24T13:06:33.000Z</time>
      </trkpt>
      <trkpt lat="43.51327" lon="6.37257">
        <ele>295</ele>
        <time>2021-11-24T13:06:34.000Z</time>
      </trkpt>
      <trkpt lat="43.51328" lon="6.37257">
        <ele>294</ele>
        <time>2021-11-24T13:06:35.000Z</time>
      </trkpt>
      <trkpt lat="43.51328" lon="6.37257">
        <ele>294</ele>
        <time>2021-11-24T13:06:36.000Z</time>
      </trkpt>
      <trkpt lat="43.51329" lon="6.37257">
        <ele>294</ele>
        <time>2021-11-24T13:06:37.000Z</time>
      </trkpt>
      <trkpt lat="43.51329" lon="6.37257">
        <ele>294</ele>
        <time>2021-11-24T13:06:38.000Z</time>
      </trkpt>
      <trkpt lat="43.51329" lon="6.37257">
        <ele>294</ele>
        <time>2021-11-24T13:06:39.000Z</time>
      </trkpt>
      <trkpt lat="43.5133" lon="6.37257">
        <ele>294</ele>
        <time>2021-11-24T13:06:40.000Z</time>
      </trkpt>
      <trkpt lat="43.5133" lon="6.37257">
        <ele>294</ele>
        <time>2021-11-24T13:06:41.000Z</time>
      </trkpt>
      <trkpt lat="43.5133" lon="6.37257">
        <ele>294</ele>
        <time>2021-11-24T13:06:42.000Z</time>
      </trkpt>
      <trkpt lat="43.5133" lon="6.37257">
        <ele>294</ele>
        <time>2021-11-24T13:06:43.000Z</time>
      </trkpt>
      <trkpt lat="43.51331" lon="6.37257">
        <ele>294</ele>
        <time>2021-11-24T13:06:44.000Z</time>
      </trkpt>
      <trkpt lat="43.51331" lon="6.37257">
        <ele>294</ele>
        <time>2021-11-24T13:06:45.000Z</time>
      </trkpt>
      <trkpt lat="43.51331" lon="6.37256">
        <ele>294</ele>
        <time>2021-11-24T13:06:46.000Z</time>
      </trkpt>
      <trkpt lat="43.51331" lon="6.37256">
        <ele>294</ele>
        <time>2021-11-24T13:06:47.000Z</time>
      </trkpt>
      <trkpt lat="43.51331" lon="6.37256">
        <ele>294</ele>
        <time>2021-11-24T13:06:48.000Z</time>
      </trkpt>
      <trkpt lat="43.51331" lon="6.37256">
        <ele>294</ele>
        <time>2021-11-24T13:06:49.000Z</time>
      </trkpt>
      <trkpt lat="43.51331" lon="6.37256">
        <ele>294</ele>
        <time>2021-11-24T13:06:50.000Z</time>
      </trkpt>
      <trkpt lat="43.51331" lon="6.37256">
        <ele>294</ele>
        <time>2021-11-24T13:06:51.000Z</time>
      </trkpt>
      <trkpt lat="43.51331" lon="6.37257">
        <ele>294</ele>
        <time>2021-11-24T13:06:52.000Z</time>
      </trkpt>
      <trkpt lat="43.51331" lon="6.37257">
        <ele>294</ele>
        <time>2021-11-24T13:06:53.000Z</time>
      </trkpt>
      <trkpt lat="43.51331" lon="6.37257">
        <ele>294</ele>
        <time>2021-11-24T13:06:54.000Z</time>
      </trkpt>
      <trkpt lat="43.51331" lon="6.37257">
        <ele>294</ele>
        <time>2021-11-24T13:06:55.000Z</time>
      </trkpt>
      <trkpt lat="43.51331" lon="6.37257">
        <ele>294</ele>
        <time>2021-11-24T13:06:56.000Z</time>
      </trkpt>
      <trkpt lat="43.51331" lon="6.37257">
        <ele>294</ele>
        <time>2021-11-24T13:06:57.000Z</time>
      </trkpt>
      <trkpt lat="43.51331" lon="6.37257">
        <ele>294</ele>
        <time>2021-11-24T13:06:58.000Z</time>
      </trkpt>
      <trkpt lat="43.51331" lon="6.37257">
        <ele>294</ele>
        <time>2021-11-24T13:06:59.000Z</time>
      </trkpt>
      <trkpt lat="43.51331" lon="6.37257">
        <ele>294</ele>
        <time>2021-11-24T13:07:00.000Z</time>
      </trkpt>
      <trkpt lat="43.51331" lon="6.37257">
        <ele>294</ele>
        <time>2021-11-24T13:07:01.000Z</time>
      </trkpt>
      <trkpt lat="43.51331" lon="6.37256">
        <ele>294</ele>
        <time>2021-11-24T13:07:02.000Z</time>
      </trkpt>
      <trkpt lat="43.51331" lon="6.37256">
        <ele>294</ele>
        <time>2021-11-24T13:07:03.000Z</time>
      </trkpt>
      <trkpt lat="43.51331" lon="6.37256">
        <ele>294</ele>
        <time>2021-11-24T13:07:04.000Z</time>
      </trkpt>
      <trkpt lat="43.51331" lon="6.37256">
        <ele>294</ele>
        <time>2021-11-24T13:07:05.000Z</time>
      </trkpt>
      <trkpt lat="43.51331" lon="6.37256">
        <ele>294</ele>
        <time>2021-11-24T13:07:06.000Z</time>
      </trkpt>
      <trkpt lat="43.51332" lon="6.37256">
        <ele>294</ele>
        <time>2021-11-24T13:07:07.000Z</time>
      </trkpt>
      <trkpt lat="43.51332" lon="6.37257">
        <ele>294</ele>
        <time>2021-11-24T13:07:08.000Z</time>
      </trkpt>
      <trkpt lat="43.51332" lon="6.37257">
        <ele>294</ele>
        <time>2021-11-24T13:07:09.000Z</time>
      </trkpt>
      <trkpt lat="43.51333" lon="6.37258">
        <ele>294</ele>
        <time>2021-11-24T13:07:10.000Z</time>
      </trkpt>
      <trkpt lat="43.51334" lon="6.37259">
        <ele>294</ele>
        <time>2021-11-24T13:07:11.000Z</time>
      </trkpt>
      <trkpt lat="43.51334" lon="6.37259">
        <ele>294</ele>
        <time>2021-11-24T13:07:12.000Z</time>
      </trkpt>
      <trkpt lat="43.51335" lon="6.3726">
        <ele>294</ele>
        <time>2021-11-24T13:07:13.000Z</time>
      </trkpt>
      <trkpt lat="43.51335" lon="6.3726">
        <ele>294</ele>
        <time>2021-11-24T13:07:14.000Z</time>
      </trkpt>
      <trkpt lat="43.51336" lon="6.3726">
        <ele>294</ele>
        <time>2021-11-24T13:07:15.000Z</time>
      </trkpt>
      <trkpt lat="43.51336" lon="6.37261">
        <ele>293</ele>
        <time>2021-11-24T13:07:16.000Z</time>
      </trkpt>
      <trkpt lat="43.51336" lon="6.37261">
        <ele>293</ele>
        <time>2021-11-24T13:07:17.000Z</time>
      </trkpt>
      <trkpt lat="43.51337" lon="6.37261">
        <ele>293</ele>
        <time>2021-11-24T13:07:18.000Z</time>
      </trkpt>
      <trkpt lat="43.51337" lon="6.37262">
        <ele>293</ele>
        <time>2021-11-24T13:07:19.000Z</time>
      </trkpt>
      <trkpt lat="43.51337" lon="6.37262">
        <ele>293</ele>
        <time>2021-11-24T13:07:20.000Z</time>
      </trkpt>
      <trkpt lat="43.51338" lon="6.37262">
        <ele>293</ele>
        <time>2021-11-24T13:07:21.000Z</time>
      </trkpt>
      <trkpt lat="43.51338" lon="6.37263">
        <ele>293</ele>
        <time>2021-11-24T13:07:22.000Z</time>
      </trkpt>
      <trkpt lat="43.51338" lon="6.37263">
        <ele>293</ele>
        <time>2021-11-24T13:07:23.000Z</time>
      </trkpt>
      <trkpt lat="43.51338" lon="6.37262">
        <ele>293</ele>
        <time>2021-11-24T13:07:24.000Z</time>
      </trkpt>
      <trkpt lat="43.51338" lon="6.37262">
        <ele>293</ele>
        <time>2021-11-24T13:07:25.000Z</time>
      </trkpt>
      <trkpt lat="43.51338" lon="6.37262">
        <ele>293</ele>
        <time>2021-11-24T13:07:26.000Z</time>
      </trkpt>
      <trkpt lat="43.51338" lon="6.37262">
        <ele>292</ele>
        <time>2021-11-24T13:07:27.000Z</time>
      </trkpt>
      <trkpt lat="43.51338" lon="6.37262">
        <ele>292</ele>
        <time>2021-11-24T13:07:28.000Z</time>
      </trkpt>
      <trkpt lat="43.51338" lon="6.37261">
        <ele>292</ele>
        <time>2021-11-24T13:07:29.000Z</time>
      </trkpt>
      <trkpt lat="43.51339" lon="6.37261">
        <ele>292</ele>
        <time>2021-11-24T13:07:30.000Z</time>
      </trkpt>
      <trkpt lat="43.51339" lon="6.37261">
        <ele>292</ele>
        <time>2021-11-24T13:07:31.000Z</time>
      </trkpt>
      <trkpt lat="43.51339" lon="6.37262">
        <ele>292</ele>
        <time>2021-11-24T13:07:32.000Z</time>
      </trkpt>
      <trkpt lat="43.51339" lon="6.37262">
        <ele>292</ele>
        <time>2021-11-24T13:07:33.000Z</time>
      </trkpt>
      <trkpt lat="43.5134" lon="6.37262">
        <ele>292</ele>
        <time>2021-11-24T13:07:34.000Z</time>
      </trkpt>
      <trkpt lat="43.5134" lon="6.37263">
        <ele>292</ele>
        <time>2021-11-24T13:07:35.000Z</time>
      </trkpt>
      <trkpt lat="43.5134" lon="6.37263">
        <ele>292</ele>
        <time>2021-11-24T13:07:36.000Z</time>
      </trkpt>
      <trkpt lat="43.5134" lon="6.37262">
        <ele>292</ele>
        <time>2021-11-24T13:07:37.000Z</time>
      </trkpt>
      <trkpt lat="43.5134" lon="6.37262">
        <ele>292</ele>
        <time>2021-11-24T13:07:38.000Z</time>
      </trkpt>
      <trkpt lat="43.5134" lon="6.37263">
        <ele>292</ele>
        <time>2021-11-24T13:07:39.000Z</time>
      </trkpt>
      <trkpt lat="43.5134" lon="6.37263">
        <ele>292</ele>
        <time>2021-11-24T13:07:40.000Z</time>
      </trkpt>
      <trkpt lat="43.5134" lon="6.37263">
        <ele>292</ele>
        <time>2021-11-24T13:07:41.000Z</time>
      </trkpt>
      <trkpt lat="43.5134" lon="6.37263">
        <ele>292</ele>
        <time>2021-11-24T13:07:42.000Z</time>
      </trkpt>
      <trkpt lat="43.51341" lon="6.37264">
        <ele>292</ele>
        <time>2021-11-24T13:07:43.000Z</time>
      </trkpt>
      <trkpt lat="43.51342" lon="6.37265">
        <ele>292</ele>
        <time>2021-11-24T13:07:44.000Z</time>
      </trkpt>
      <trkpt lat="43.51343" lon="6.37266">
        <ele>292</ele>
        <time>2021-11-24T13:07:45.000Z</time>
      </trkpt>
      <trkpt lat="43.51344" lon="6.37267">
        <ele>292</ele>
        <time>2021-11-24T13:07:46.000Z</time>
      </trkpt>
      <trkpt lat="43.51345" lon="6.37267">
        <ele>292</ele>
        <time>2021-11-24T13:07:47.000Z</time>
      </trkpt>
      <trkpt lat="43.51346" lon="6.37268">
        <ele>292</ele>
        <time>2021-11-24T13:07:48.000Z</time>
      </trkpt>
      <trkpt lat="43.51347" lon="6.37268">
        <ele>291</ele>
        <time>2021-11-24T13:07:49.000Z</time>
      </trkpt>
      <trkpt lat="43.51348" lon="6.37268">
        <ele>291</ele>
        <time>2021-11-24T13:07:50.000Z</time>
      </trkpt>
      <trkpt lat="43.5135" lon="6.37269">
        <ele>291</ele>
        <time>2021-11-24T13:07:51.000Z</time>
      </trkpt>
      <trkpt lat="43.51351" lon="6.37268">
        <ele>291</ele>
        <time>2021-11-24T13:07:52.000Z</time>
      </trkpt>
      <trkpt lat="43.51351" lon="6.37268">
        <ele>291</ele>
        <time>2021-11-24T13:07:53.000Z</time>
      </trkpt>
      <trkpt lat="43.51352" lon="6.37268">
        <ele>291</ele>
        <time>2021-11-24T13:07:54.000Z</time>
      </trkpt>
      <trkpt lat="43.51353" lon="6.37267">
        <ele>291</ele>
        <time>2021-11-24T13:07:55.000Z</time>
      </trkpt>
      <trkpt lat="43.51353" lon="6.37267">
        <ele>291</ele>
        <time>2021-11-24T13:07:56.000Z</time>
      </trkpt>
      <trkpt lat="43.51354" lon="6.37266">
        <ele>291</ele>
        <time>2021-11-24T13:07:57.000Z</time>
      </trkpt>
      <trkpt lat="43.51355" lon="6.37266">
        <ele>291</ele>
        <time>2021-11-24T13:07:58.000Z</time>
      </trkpt>
      <trkpt lat="43.51355" lon="6.37266">
        <ele>291</ele>
        <time>2021-11-24T13:07:59.000Z</time>
      </trkpt>
      <trkpt lat="43.51356" lon="6.37266">
        <ele>290</ele>
        <time>2021-11-24T13:08:00.000Z</time>
      </trkpt>
      <trkpt lat="43.51357" lon="6.37266">
        <ele>290</ele>
        <time>2021-11-24T13:08:01.000Z</time>
      </trkpt>
      <trkpt lat="43.51358" lon="6.37266">
        <ele>290</ele>
        <time>2021-11-24T13:08:02.000Z</time>
      </trkpt>
      <trkpt lat="43.51359" lon="6.37266">
        <ele>290</ele>
        <time>2021-11-24T13:08:03.000Z</time>
      </trkpt>
      <trkpt lat="43.5136" lon="6.37266">
        <ele>289</ele>
        <time>2021-11-24T13:08:04.000Z</time>
      </trkpt>
      <trkpt lat="43.51361" lon="6.37266">
        <ele>289</ele>
        <time>2021-11-24T13:08:05.000Z</time>
      </trkpt>
      <trkpt lat="43.51363" lon="6.37266">
        <ele>289</ele>
        <time>2021-11-24T13:08:06.000Z</time>
      </trkpt>
      <trkpt lat="43.51364" lon="6.37266">
        <ele>289</ele>
        <time>2021-11-24T13:08:07.000Z</time>
      </trkpt>
      <trkpt lat="43.51365" lon="6.37267">
        <ele>288</ele>
        <time>2021-11-24T13:08:08.000Z</time>
      </trkpt>
      <trkpt lat="43.51366" lon="6.37266">
        <ele>288</ele>
        <time>2021-11-24T13:08:09.000Z</time>
      </trkpt>
      <trkpt lat="43.51367" lon="6.37266">
        <ele>288</ele>
        <time>2021-11-24T13:08:10.000Z</time>
      </trkpt>
      <trkpt lat="43.51368" lon="6.37266">
        <ele>288</ele>
        <time>2021-11-24T13:08:11.000Z</time>
      </trkpt>
      <trkpt lat="43.51369" lon="6.37266">
        <ele>288</ele>
        <time>2021-11-24T13:08:12.000Z</time>
      </trkpt>
      <trkpt lat="43.51369" lon="6.37266">
        <ele>288</ele>
        <time>2021-11-24T13:08:13.000Z</time>
      </trkpt>
      <trkpt lat="43.5137" lon="6.37267">
        <ele>288</ele>
        <time>2021-11-24T13:08:14.000Z</time>
      </trkpt>
      <trkpt lat="43.51371" lon="6.37267">
        <ele>288</ele>
        <time>2021-11-24T13:08:15.000Z</time>
      </trkpt>
      <trkpt lat="43.51372" lon="6.37268">
        <ele>288</ele>
        <time>2021-11-24T13:08:16.000Z</time>
      </trkpt>
      <trkpt lat="43.51373" lon="6.37268">
        <ele>288</ele>
        <time>2021-11-24T13:08:17.000Z</time>
      </trkpt>
      <trkpt lat="43.51374" lon="6.37269">
        <ele>288</ele>
        <time>2021-11-24T13:08:18.000Z</time>
      </trkpt>
      <trkpt lat="43.51375" lon="6.37269">
        <ele>287</ele>
        <time>2021-11-24T13:08:19.000Z</time>
      </trkpt>
      <trkpt lat="43.51375" lon="6.37269">
        <ele>287</ele>
        <time>2021-11-24T13:08:20.000Z</time>
      </trkpt>
      <trkpt lat="43.51376" lon="6.37269">
        <ele>287</ele>
        <time>2021-11-24T13:08:21.000Z</time>
      </trkpt>
      <trkpt lat="43.51377" lon="6.37268">
        <ele>287</ele>
        <time>2021-11-24T13:08:22.000Z</time>
      </trkpt>
      <trkpt lat="43.51377" lon="6.37268">
        <ele>287</ele>
        <time>2021-11-24T13:08:23.000Z</time>
      </trkpt>
      <trkpt lat="43.51378" lon="6.37267">
        <ele>287</ele>
        <time>2021-11-24T13:08:24.000Z</time>
      </trkpt>
      <trkpt lat="43.51378" lon="6.37266">
        <ele>287</ele>
        <time>2021-11-24T13:08:25.000Z</time>
      </trkpt>
      <trkpt lat="43.51379" lon="6.37266">
        <ele>287</ele>
        <time>2021-11-24T13:08:26.000Z</time>
      </trkpt>
      <trkpt lat="43.51379" lon="6.37265">
        <ele>287</ele>
        <time>2021-11-24T13:08:27.000Z</time>
      </trkpt>
      <trkpt lat="43.5138" lon="6.37264">
        <ele>287</ele>
        <time>2021-11-24T13:08:28.000Z</time>
      </trkpt>
      <trkpt lat="43.51381" lon="6.37264">
        <ele>287</ele>
        <time>2021-11-24T13:08:29.000Z</time>
      </trkpt>
      <trkpt lat="43.5138" lon="6.37263">
        <ele>287</ele>
        <time>2021-11-24T13:08:30.000Z</time>
      </trkpt>
      <trkpt lat="43.5138" lon="6.37262">
        <ele>287</ele>
        <time>2021-11-24T13:08:31.000Z</time>
      </trkpt>
      <trkpt lat="43.5138" lon="6.37262">
        <ele>287</ele>
        <time>2021-11-24T13:08:32.000Z</time>
      </trkpt>
      <trkpt lat="43.5138" lon="6.37261">
        <ele>287</ele>
        <time>2021-11-24T13:08:33.000Z</time>
      </trkpt>
      <trkpt lat="43.5138" lon="6.37261">
        <ele>287</ele>
        <time>2021-11-24T13:08:34.000Z</time>
      </trkpt>
      <trkpt lat="43.5138" lon="6.37261">
        <ele>287</ele>
        <time>2021-11-24T13:08:35.000Z</time>
      </trkpt>
      <trkpt lat="43.5138" lon="6.37261">
        <ele>287</ele>
        <time>2021-11-24T13:08:36.000Z</time>
      </trkpt>
      <trkpt lat="43.5138" lon="6.37261">
        <ele>287</ele>
        <time>2021-11-24T13:08:37.000Z</time>
      </trkpt>
      <trkpt lat="43.5138" lon="6.37261">
        <ele>287</ele>
        <time>2021-11-24T13:08:38.000Z</time>
      </trkpt>
      <trkpt lat="43.5138" lon="6.37261">
        <ele>287</ele>
        <time>2021-11-24T13:08:39.000Z</time>
      </trkpt>
      <trkpt lat="43.5138" lon="6.37261">
        <ele>287</ele>
        <time>2021-11-24T13:08:40.000Z</time>
      </trkpt>
      <trkpt lat="43.5138" lon="6.37261">
        <ele>287</ele>
        <time>2021-11-24T13:08:41.000Z</time>
      </trkpt>
      <trkpt lat="43.5138" lon="6.37261">
        <ele>287</ele>
        <time>2021-11-24T13:08:42.000Z</time>
      </trkpt>
      <trkpt lat="43.51381" lon="6.37258">
        <ele>287</ele>
        <time>2021-11-24T13:08:43.000Z</time>
      </trkpt>
      <trkpt lat="43.51381" lon="6.37257">
        <ele>287</ele>
        <time>2021-11-24T13:08:44.000Z</time>
      </trkpt>
      <trkpt lat="43.51382" lon="6.37257">
        <ele>287</ele>
        <time>2021-11-24T13:08:45.000Z</time>
      </trkpt>
      <trkpt lat="43.51383" lon="6.37256">
        <ele>287</ele>
        <time>2021-11-24T13:08:46.000Z</time>
      </trkpt>
      <trkpt lat="43.51383" lon="6.37255">
        <ele>287</ele>
        <time>2021-11-24T13:08:47.000Z</time>
      </trkpt>
      <trkpt lat="43.51384" lon="6.37255">
        <ele>287</ele>
        <time>2021-11-24T13:08:48.000Z</time>
      </trkpt>
      <trkpt lat="43.51385" lon="6.37255">
        <ele>287</ele>
        <time>2021-11-24T13:08:49.000Z</time>
      </trkpt>
      <trkpt lat="43.51385" lon="6.37255">
        <ele>287</ele>
        <time>2021-11-24T13:08:50.000Z</time>
      </trkpt>
      <trkpt lat="43.51386" lon="6.37256">
        <ele>287</ele>
        <time>2021-11-24T13:08:51.000Z</time>
      </trkpt>
      <trkpt lat="43.51386" lon="6.37256">
        <ele>287</ele>
        <time>2021-11-24T13:08:52.000Z</time>
      </trkpt>
      <trkpt lat="43.51386" lon="6.37257">
        <ele>287</ele>
        <time>2021-11-24T13:08:53.000Z</time>
      </trkpt>
      <trkpt lat="43.51387" lon="6.37257">
        <ele>287</ele>
        <time>2021-11-24T13:08:54.000Z</time>
      </trkpt>
      <trkpt lat="43.51387" lon="6.37258">
        <ele>287</ele>
        <time>2021-11-24T13:08:55.000Z</time>
      </trkpt>
      <trkpt lat="43.51387" lon="6.37258">
        <ele>287</ele>
        <time>2021-11-24T13:08:56.000Z</time>
      </trkpt>
      <trkpt lat="43.51387" lon="6.37258">
        <ele>287</ele>
        <time>2021-11-24T13:08:57.000Z</time>
      </trkpt>
      <trkpt lat="43.51387" lon="6.37258">
        <ele>287</ele>
        <time>2021-11-24T13:08:58.000Z</time>
      </trkpt>
      <trkpt lat="43.51388" lon="6.37258">
        <ele>287</ele>
        <time>2021-11-24T13:08:59.000Z</time>
      </trkpt>
      <trkpt lat="43.51388" lon="6.37258">
        <ele>287</ele>
        <time>2021-11-24T13:09:00.000Z</time>
      </trkpt>
      <trkpt lat="43.51388" lon="6.37258">
        <ele>287</ele>
        <time>2021-11-24T13:09:01.000Z</time>
      </trkpt>
      <trkpt lat="43.51388" lon="6.37258">
        <ele>287</ele>
        <time>2021-11-24T13:09:02.000Z</time>
      </trkpt>
      <trkpt lat="43.51388" lon="6.37258">
        <ele>287</ele>
        <time>2021-11-24T13:09:03.000Z</time>
      </trkpt>
      <trkpt lat="43.51388" lon="6.37258">
        <ele>287</ele>
        <time>2021-11-24T13:09:04.000Z</time>
      </trkpt>
      <trkpt lat="43.51388" lon="6.37258">
        <ele>287</ele>
        <time>2021-11-24T13:09:05.000Z</time>
      </trkpt>
      <trkpt lat="43.51388" lon="6.37258">
        <ele>287</ele>
        <time>2021-11-24T13:09:06.000Z</time>
      </trkpt>
      <trkpt lat="43.51388" lon="6.37258">
        <ele>287</ele>
        <time>2021-11-24T13:09:07.000Z</time>
      </trkpt>
      <trkpt lat="43.51388" lon="6.37258">
        <ele>287</ele>
        <time>2021-11-24T13:09:08.000Z</time>
      </trkpt>
      <trkpt lat="43.51388" lon="6.37258">
        <ele>287</ele>
        <time>2021-11-24T13:09:09.000Z</time>
      </trkpt>
      <trkpt lat="43.51388" lon="6.37258">
        <ele>287</ele>
        <time>2021-11-24T13:09:10.000Z</time>
      </trkpt>
      <trkpt lat="43.51388" lon="6.37258">
        <ele>287</ele>
        <time>2021-11-24T13:09:11.000Z</time>
      </trkpt>
      <trkpt lat="43.51388" lon="6.37258">
        <ele>287</ele>
        <time>2021-11-24T13:09:12.000Z</time>
      </trkpt>
      <trkpt lat="43.51388" lon="6.37258">
        <ele>287</ele>
        <time>2021-11-24T13:09:13.000Z</time>
      </trkpt>
      <trkpt lat="43.51384" lon="6.37257">
        <ele>287</ele>
        <time>2021-11-24T13:09:14.000Z</time>
      </trkpt>
      <trkpt lat="43.51384" lon="6.37257">
        <ele>287</ele>
        <time>2021-11-24T13:09:15.000Z</time>
      </trkpt>
      <trkpt lat="43.51384" lon="6.37257">
        <ele>287</ele>
        <time>2021-11-24T13:09:16.000Z</time>
      </trkpt>
      <trkpt lat="43.51384" lon="6.37258">
        <ele>287</ele>
        <time>2021-11-24T13:09:17.000Z</time>
      </trkpt>
      <trkpt lat="43.51384" lon="6.37258">
        <ele>287</ele>
        <time>2021-11-24T13:09:18.000Z</time>
      </trkpt>
      <trkpt lat="43.51384" lon="6.37259">
        <ele>287</ele>
        <time>2021-11-24T13:09:19.000Z</time>
      </trkpt>
      <trkpt lat="43.51384" lon="6.37259">
        <ele>287</ele>
        <time>2021-11-24T13:09:20.000Z</time>
      </trkpt>
      <trkpt lat="43.51385" lon="6.37259">
        <ele>287</ele>
        <time>2021-11-24T13:09:21.000Z</time>
      </trkpt>
      <trkpt lat="43.51385" lon="6.37259">
        <ele>287</ele>
        <time>2021-11-24T13:09:22.000Z</time>
      </trkpt>
      <trkpt lat="43.51385" lon="6.37259">
        <ele>287</ele>
        <time>2021-11-24T13:09:23.000Z</time>
      </trkpt>
      <trkpt lat="43.51385" lon="6.3726">
        <ele>287</ele>
        <time>2021-11-24T13:09:24.000Z</time>
      </trkpt>
      <trkpt lat="43.51384" lon="6.3726">
        <ele>287</ele>
        <time>2021-11-24T13:09:25.000Z</time>
      </trkpt>
      <trkpt lat="43.51384" lon="6.3726">
        <ele>287</ele>
        <time>2021-11-24T13:09:26.000Z</time>
      </trkpt>
      <trkpt lat="43.51384" lon="6.37261">
        <ele>287</ele>
        <time>2021-11-24T13:09:27.000Z</time>
      </trkpt>
      <trkpt lat="43.51384" lon="6.37261">
        <ele>287</ele>
        <time>2021-11-24T13:09:28.000Z</time>
      </trkpt>
      <trkpt lat="43.51385" lon="6.37261">
        <ele>287</ele>
        <time>2021-11-24T13:09:29.000Z</time>
      </trkpt>
      <trkpt lat="43.51385" lon="6.37261">
        <ele>287</ele>
        <time>2021-11-24T13:09:30.000Z</time>
      </trkpt>
      <trkpt lat="43.51386" lon="6.37261">
        <ele>287</ele>
        <time>2021-11-24T13:09:31.000Z</time>
      </trkpt>
      <trkpt lat="43.51386" lon="6.37261">
        <ele>287</ele>
        <time>2021-11-24T13:09:32.000Z</time>
      </trkpt>
      <trkpt lat="43.51386" lon="6.37261">
        <ele>287</ele>
        <time>2021-11-24T13:09:33.000Z</time>
      </trkpt>
      <trkpt lat="43.51386" lon="6.3726">
        <ele>287</ele>
        <time>2021-11-24T13:09:34.000Z</time>
      </trkpt>
      <trkpt lat="43.51386" lon="6.3726">
        <ele>287</ele>
        <time>2021-11-24T13:09:35.000Z</time>
      </trkpt>
      <trkpt lat="43.51386" lon="6.3726">
        <ele>287</ele>
        <time>2021-11-24T13:09:36.000Z</time>
      </trkpt>
      <trkpt lat="43.51386" lon="6.3726">
        <ele>287</ele>
        <time>2021-11-24T13:09:37.000Z</time>
      </trkpt>
      <trkpt lat="43.51386" lon="6.3726">
        <ele>287</ele>
        <time>2021-11-24T13:09:38.000Z</time>
      </trkpt>
      <trkpt lat="43.51385" lon="6.37259">
        <ele>287</ele>
        <time>2021-11-24T13:09:39.000Z</time>
      </trkpt>
      <trkpt lat="43.51384" lon="6.37258">
        <ele>287</ele>
        <time>2021-11-24T13:09:40.000Z</time>
      </trkpt>
      <trkpt lat="43.51384" lon="6.37258">
        <ele>287</ele>
        <time>2021-11-24T13:09:41.000Z</time>
      </trkpt>
      <trkpt lat="43.51384" lon="6.37258">
        <ele>287</ele>
        <time>2021-11-24T13:09:42.000Z</time>
      </trkpt>
      <trkpt lat="43.51384" lon="6.37257">
        <ele>287</ele>
        <time>2021-11-24T13:09:43.000Z</time>
      </trkpt>
      <trkpt lat="43.51383" lon="6.37257">
        <ele>287</ele>
        <time>2021-11-24T13:09:44.000Z</time>
      </trkpt>
      <trkpt lat="43.51383" lon="6.37256">
        <ele>287</ele>
        <time>2021-11-24T13:09:45.000Z</time>
      </trkpt>
      <trkpt lat="43.51383" lon="6.37256">
        <ele>287</ele>
        <time>2021-11-24T13:09:46.000Z</time>
      </trkpt>
      <trkpt lat="43.51383" lon="6.37256">
        <ele>287</ele>
        <time>2021-11-24T13:09:47.000Z</time>
      </trkpt>
      <trkpt lat="43.51383" lon="6.37256">
        <ele>287</ele>
        <time>2021-11-24T13:09:48.000Z</time>
      </trkpt>
      <trkpt lat="43.51382" lon="6.37255">
        <ele>287</ele>
        <time>2021-11-24T13:09:49.000Z</time>
      </trkpt>
      <trkpt lat="43.51382" lon="6.37255">
        <ele>287</ele>
        <time>2021-11-24T13:09:50.000Z</time>
      </trkpt>
      <trkpt lat="43.51382" lon="6.37255">
        <ele>287</ele>
        <time>2021-11-24T13:09:51.000Z</time>
      </trkpt>
      <trkpt lat="43.51382" lon="6.37255">
        <ele>287</ele>
        <time>2021-11-24T13:09:52.000Z</time>
      </trkpt>
      <trkpt lat="43.51382" lon="6.37255">
        <ele>287</ele>
        <time>2021-11-24T13:09:53.000Z</time>
      </trkpt>
      <trkpt lat="43.51382" lon="6.37255">
        <ele>287</ele>
        <time>2021-11-24T13:09:54.000Z</time>
      </trkpt>
      <trkpt lat="43.51382" lon="6.37255">
        <ele>287</ele>
        <time>2021-11-24T13:09:55.000Z</time>
      </trkpt>
      <trkpt lat="43.51382" lon="6.37255">
        <ele>287</ele>
        <time>2021-11-24T13:09:56.000Z</time>
      </trkpt>
      <trkpt lat="43.51382" lon="6.37255">
        <ele>287</ele>
        <time>2021-11-24T13:09:57.000Z</time>
      </trkpt>
      <trkpt lat="43.51382" lon="6.37255">
        <ele>287</ele>
        <time>2021-11-24T13:09:58.000Z</time>
      </trkpt>
      <trkpt lat="43.51382" lon="6.37255">
        <ele>287</ele>
        <time>2021-11-24T13:09:59.000Z</time>
      </trkpt>
      <trkpt lat="43.51382" lon="6.37255">
        <ele>287</ele>
        <time>2021-11-24T13:10:00.000Z</time>
      </trkpt>
      <trkpt lat="43.51382" lon="6.37255">
        <ele>287</ele>
        <time>2021-11-24T13:10:01.000Z</time>
      </trkpt>
      <trkpt lat="43.51381" lon="6.37255">
        <ele>287</ele>
        <time>2021-11-24T13:10:02.000Z</time>
      </trkpt>
      <trkpt lat="43.51381" lon="6.37255">
        <ele>287</ele>
        <time>2021-11-24T13:10:03.000Z</time>
      </trkpt>
      <trkpt lat="43.51381" lon="6.37255">
        <ele>287</ele>
        <time>2021-11-24T13:10:04.000Z</time>
      </trkpt>
      <trkpt lat="43.51381" lon="6.37255">
        <ele>287</ele>
        <time>2021-11-24T13:10:05.000Z</time>
      </trkpt>
      <trkpt lat="43.51381" lon="6.37255">
        <ele>287</ele>
        <time>2021-11-24T13:10:06.000Z</time>
      </trkpt>
      <trkpt lat="43.51381" lon="6.37254">
        <ele>287</ele>
        <time>2021-11-24T13:10:07.000Z</time>
      </trkpt>
      <trkpt lat="43.51381" lon="6.37254">
        <ele>287</ele>
        <time>2021-11-24T13:10:08.000Z</time>
      </trkpt>
      <trkpt lat="43.51381" lon="6.37254">
        <ele>287</ele>
        <time>2021-11-24T13:10:09.000Z</time>
      </trkpt>
      <trkpt lat="43.51381" lon="6.37254">
        <ele>287</ele>
        <time>2021-11-24T13:10:10.000Z</time>
      </trkpt>
      <trkpt lat="43.51381" lon="6.37254">
        <ele>287</ele>
        <time>2021-11-24T13:10:11.000Z</time>
      </trkpt>
      <trkpt lat="43.51381" lon="6.37254">
        <ele>287</ele>
        <time>2021-11-24T13:10:12.000Z</time>
      </trkpt>
      <trkpt lat="43.51381" lon="6.37254">
        <ele>287</ele>
        <time>2021-11-24T13:10:13.000Z</time>
      </trkpt>
      <trkpt lat="43.51381" lon="6.37255">
        <ele>287</ele>
        <time>2021-11-24T13:10:14.000Z</time>
      </trkpt>
      <trkpt lat="43.51382" lon="6.37254">
        <ele>287</ele>
        <time>2021-11-24T13:10:15.000Z</time>
      </trkpt>
      <trkpt lat="43.51382" lon="6.37254">
        <ele>287</ele>
        <time>2021-11-24T13:10:16.000Z</time>
      </trkpt>
      <trkpt lat="43.51382" lon="6.37254">
        <ele>287</ele>
        <time>2021-11-24T13:10:17.000Z</time>
      </trkpt>
      <trkpt lat="43.51382" lon="6.37253">
        <ele>287</ele>
        <time>2021-11-24T13:10:18.000Z</time>
      </trkpt>
      <trkpt lat="43.51383" lon="6.37253">
        <ele>287</ele>
        <time>2021-11-24T13:10:19.000Z</time>
      </trkpt>
      <trkpt lat="43.51383" lon="6.37253">
        <ele>287</ele>
        <time>2021-11-24T13:10:20.000Z</time>
      </trkpt>
      <trkpt lat="43.51383" lon="6.37252">
        <ele>287</ele>
        <time>2021-11-24T13:10:21.000Z</time>
      </trkpt>
      <trkpt lat="43.51383" lon="6.37252">
        <ele>287</ele>
        <time>2021-11-24T13:10:22.000Z</time>
      </trkpt>
      <trkpt lat="43.51384" lon="6.37252">
        <ele>287</ele>
        <time>2021-11-24T13:10:23.000Z</time>
      </trkpt>
      <trkpt lat="43.51384" lon="6.37251">
        <ele>287</ele>
        <time>2021-11-24T13:10:24.000Z</time>
      </trkpt>
      <trkpt lat="43.51384" lon="6.37251">
        <ele>287</ele>
        <time>2021-11-24T13:10:25.000Z</time>
      </trkpt>
      <trkpt lat="43.51384" lon="6.37251">
        <ele>287</ele>
        <time>2021-11-24T13:10:26.000Z</time>
      </trkpt>
      <trkpt lat="43.51384" lon="6.37251">
        <ele>287</ele>
        <time>2021-11-24T13:10:27.000Z</time>
      </trkpt>
      <trkpt lat="43.51384" lon="6.37251">
        <ele>287</ele>
        <time>2021-11-24T13:10:28.000Z</time>
      </trkpt>
      <trkpt lat="43.51384" lon="6.37251">
        <ele>287</ele>
        <time>2021-11-24T13:10:29.000Z</time>
      </trkpt>
      <trkpt lat="43.51384" lon="6.37251">
        <ele>287</ele>
        <time>2021-11-24T13:10:30.000Z</time>
      </trkpt>
      <trkpt lat="43.51384" lon="6.37251">
        <ele>287</ele>
        <time>2021-11-24T13:10:31.000Z</time>
      </trkpt>
      <trkpt lat="43.51384" lon="6.37251">
        <ele>286</ele>
        <time>2021-11-24T13:10:32.000Z</time>
      </trkpt>
      <trkpt lat="43.51384" lon="6.37251">
        <ele>286</ele>
        <time>2021-11-24T13:10:33.000Z</time>
      </trkpt>
      <trkpt lat="43.51384" lon="6.37251">
        <ele>286</ele>
        <time>2021-11-24T13:10:34.000Z</time>
      </trkpt>
      <trkpt lat="43.51384" lon="6.37252">
        <ele>286</ele>
        <time>2021-11-24T13:10:35.000Z</time>
      </trkpt>
      <trkpt lat="43.51384" lon="6.37253">
        <ele>286</ele>
        <time>2021-11-24T13:10:36.000Z</time>
      </trkpt>
      <trkpt lat="43.51385" lon="6.37254">
        <ele>286</ele>
        <time>2021-11-24T13:10:37.000Z</time>
      </trkpt>
      <trkpt lat="43.51385" lon="6.37255">
        <ele>286</ele>
        <time>2021-11-24T13:10:38.000Z</time>
      </trkpt>
      <trkpt lat="43.51385" lon="6.37255">
        <ele>286</ele>
        <time>2021-11-24T13:10:39.000Z</time>
      </trkpt>
      <trkpt lat="43.51385" lon="6.37256">
        <ele>286</ele>
        <time>2021-11-24T13:10:40.000Z</time>
      </trkpt>
      <trkpt lat="43.51386" lon="6.37256">
        <ele>286</ele>
        <time>2021-11-24T13:10:41.000Z</time>
      </trkpt>
      <trkpt lat="43.51386" lon="6.37257">
        <ele>286</ele>
        <time>2021-11-24T13:10:42.000Z</time>
      </trkpt>
      <trkpt lat="43.51386" lon="6.37257">
        <ele>286</ele>
        <time>2021-11-24T13:10:43.000Z</time>
      </trkpt>
      <trkpt lat="43.51386" lon="6.37257">
        <ele>286</ele>
        <time>2021-11-24T13:10:44.000Z</time>
      </trkpt>
      <trkpt lat="43.51386" lon="6.37258">
        <ele>286</ele>
        <time>2021-11-24T13:10:45.000Z</time>
      </trkpt>
      <trkpt lat="43.51386" lon="6.37258">
        <ele>286</ele>
        <time>2021-11-24T13:10:46.000Z</time>
      </trkpt>
      <trkpt lat="43.51386" lon="6.37258">
        <ele>286</ele>
        <time>2021-11-24T13:10:47.000Z</time>
      </trkpt>
      <trkpt lat="43.51386" lon="6.37258">
        <ele>286</ele>
        <time>2021-11-24T13:10:48.000Z</time>
      </trkpt>
      <trkpt lat="43.51386" lon="6.37258">
        <ele>286</ele>
        <time>2021-11-24T13:10:49.000Z</time>
      </trkpt>
      <trkpt lat="43.51386" lon="6.37258">
        <ele>286</ele>
        <time>2021-11-24T13:10:50.000Z</time>
      </trkpt>
      <trkpt lat="43.51386" lon="6.37258">
        <ele>286</ele>
        <time>2021-11-24T13:10:51.000Z</time>
      </trkpt>
      <trkpt lat="43.51387" lon="6.37258">
        <ele>286</ele>
        <time>2021-11-24T13:10:52.000Z</time>
      </trkpt>
      <trkpt lat="43.51387" lon="6.37258">
        <ele>286</ele>
        <time>2021-11-24T13:10:53.000Z</time>
      </trkpt>
      <trkpt lat="43.51387" lon="6.37259">
        <ele>286</ele>
        <time>2021-11-24T13:10:54.000Z</time>
      </trkpt>
      <trkpt lat="43.51387" lon="6.37259">
        <ele>286</ele>
        <time>2021-11-24T13:10:55.000Z</time>
      </trkpt>
      <trkpt lat="43.51387" lon="6.3726">
        <ele>286</ele>
        <time>2021-11-24T13:10:56.000Z</time>
      </trkpt>
      <trkpt lat="43.51388" lon="6.37261">
        <ele>286</ele>
        <time>2021-11-24T13:10:57.000Z</time>
      </trkpt>
      <trkpt lat="43.51389" lon="6.37264">
        <ele>286</ele>
        <time>2021-11-24T13:10:58.000Z</time>
      </trkpt>
      <trkpt lat="43.5139" lon="6.37266">
        <ele>286</ele>
        <time>2021-11-24T13:10:59.000Z</time>
      </trkpt>
      <trkpt lat="43.51391" lon="6.37268">
        <ele>282</ele>
        <time>2021-11-24T13:11:00.000Z</time>
      </trkpt>
      <trkpt lat="43.51392" lon="6.37269">
        <ele>281</ele>
        <time>2021-11-24T13:11:01.000Z</time>
      </trkpt>
      <trkpt lat="43.51393" lon="6.3727">
        <ele>281</ele>
        <time>2021-11-24T13:11:02.000Z</time>
      </trkpt>
      <trkpt lat="43.51394" lon="6.3727">
        <ele>281</ele>
        <time>2021-11-24T13:11:03.000Z</time>
      </trkpt>
      <trkpt lat="43.51395" lon="6.37271">
        <ele>280</ele>
        <time>2021-11-24T13:11:04.000Z</time>
      </trkpt>
      <trkpt lat="43.51396" lon="6.37273">
        <ele>280</ele>
        <time>2021-11-24T13:11:05.000Z</time>
      </trkpt>
      <trkpt lat="43.51397" lon="6.37274">
        <ele>280</ele>
        <time>2021-11-24T13:11:06.000Z</time>
      </trkpt>
      <trkpt lat="43.51399" lon="6.37275">
        <ele>279</ele>
        <time>2021-11-24T13:11:07.000Z</time>
      </trkpt>
      <trkpt lat="43.514" lon="6.37276">
        <ele>277</ele>
        <time>2021-11-24T13:11:08.000Z</time>
      </trkpt>
      <trkpt lat="43.51401" lon="6.37277">
        <ele>276</ele>
        <time>2021-11-24T13:11:09.000Z</time>
      </trkpt>
      <trkpt lat="43.51402" lon="6.37277">
        <ele>275</ele>
        <time>2021-11-24T13:11:10.000Z</time>
      </trkpt>
      <trkpt lat="43.51402" lon="6.37278">
        <ele>275</ele>
        <time>2021-11-24T13:11:11.000Z</time>
      </trkpt>
      <trkpt lat="43.51403" lon="6.37278">
        <ele>275</ele>
        <time>2021-11-24T13:11:12.000Z</time>
      </trkpt>
      <trkpt lat="43.51403" lon="6.37278">
        <ele>275</ele>
        <time>2021-11-24T13:11:13.000Z</time>
      </trkpt>
      <trkpt lat="43.51404" lon="6.37278">
        <ele>275</ele>
        <time>2021-11-24T13:11:14.000Z</time>
      </trkpt>
      <trkpt lat="43.51405" lon="6.37279">
        <ele>275</ele>
        <time>2021-11-24T13:11:15.000Z</time>
      </trkpt>
      <trkpt lat="43.51406" lon="6.37279">
        <ele>274</ele>
        <time>2021-11-24T13:11:16.000Z</time>
      </trkpt>
      <trkpt lat="43.51407" lon="6.37279">
        <ele>274</ele>
        <time>2021-11-24T13:11:17.000Z</time>
      </trkpt>
      <trkpt lat="43.51408" lon="6.37279">
        <ele>274</ele>
        <time>2021-11-24T13:11:18.000Z</time>
      </trkpt>
      <trkpt lat="43.51409" lon="6.37279">
        <ele>274</ele>
        <time>2021-11-24T13:11:19.000Z</time>
      </trkpt>
      <trkpt lat="43.5141" lon="6.37279">
        <ele>273</ele>
        <time>2021-11-24T13:11:20.000Z</time>
      </trkpt>
      <trkpt lat="43.51412" lon="6.37278">
        <ele>272</ele>
        <time>2021-11-24T13:11:21.000Z</time>
      </trkpt>
      <trkpt lat="43.51413" lon="6.37278">
        <ele>272</ele>
        <time>2021-11-24T13:11:22.000Z</time>
      </trkpt>
      <trkpt lat="43.51414" lon="6.37278">
        <ele>272</ele>
        <time>2021-11-24T13:11:23.000Z</time>
      </trkpt>
      <trkpt lat="43.51415" lon="6.37278">
        <ele>272</ele>
        <time>2021-11-24T13:11:24.000Z</time>
      </trkpt>
      <trkpt lat="43.51416" lon="6.37278">
        <ele>272</ele>
        <time>2021-11-24T13:11:25.000Z</time>
      </trkpt>
      <trkpt lat="43.51417" lon="6.37278">
        <ele>273</ele>
        <time>2021-11-24T13:11:26.000Z</time>
      </trkpt>
      <trkpt lat="43.51418" lon="6.37278">
        <ele>273</ele>
        <time>2021-11-24T13:11:27.000Z</time>
      </trkpt>
      <trkpt lat="43.51419" lon="6.37278">
        <ele>273</ele>
        <time>2021-11-24T13:11:28.000Z</time>
      </trkpt>
      <trkpt lat="43.5142" lon="6.37278">
        <ele>273</ele>
        <time>2021-11-24T13:11:29.000Z</time>
      </trkpt>
      <trkpt lat="43.5142" lon="6.37278">
        <ele>273</ele>
        <time>2021-11-24T13:11:30.000Z</time>
      </trkpt>
      <trkpt lat="43.51421" lon="6.37279">
        <ele>273</ele>
        <time>2021-11-24T13:11:31.000Z</time>
      </trkpt>
      <trkpt lat="43.51421" lon="6.37279">
        <ele>273</ele>
        <time>2021-11-24T13:11:32.000Z</time>
      </trkpt>
      <trkpt lat="43.51421" lon="6.37279">
        <ele>273</ele>
        <time>2021-11-24T13:11:33.000Z</time>
      </trkpt>
      <trkpt lat="43.51422" lon="6.37279">
        <ele>273</ele>
        <time>2021-11-24T13:11:34.000Z</time>
      </trkpt>
      <trkpt lat="43.51422" lon="6.37279">
        <ele>273</ele>
        <time>2021-11-24T13:11:35.000Z</time>
      </trkpt>
      <trkpt lat="43.51422" lon="6.37279">
        <ele>273</ele>
        <time>2021-11-24T13:11:36.000Z</time>
      </trkpt>
      <trkpt lat="43.51422" lon="6.37279">
        <ele>273</ele>
        <time>2021-11-24T13:11:37.000Z</time>
      </trkpt>
      <trkpt lat="43.51423" lon="6.37279">
        <ele>273</ele>
        <time>2021-11-24T13:11:38.000Z</time>
      </trkpt>
      <trkpt lat="43.51423" lon="6.37279">
        <ele>273</ele>
        <time>2021-11-24T13:11:39.000Z</time>
      </trkpt>
      <trkpt lat="43.51423" lon="6.37279">
        <ele>273</ele>
        <time>2021-11-24T13:11:40.000Z</time>
      </trkpt>
      <trkpt lat="43.51423" lon="6.37279">
        <ele>273</ele>
        <time>2021-11-24T13:11:41.000Z</time>
      </trkpt>
      <trkpt lat="43.51424" lon="6.37279">
        <ele>273</ele>
        <time>2021-11-24T13:11:42.000Z</time>
      </trkpt>
      <trkpt lat="43.51424" lon="6.37279">
        <ele>273</ele>
        <time>2021-11-24T13:11:43.000Z</time>
      </trkpt>
      <trkpt lat="43.51425" lon="6.37279">
        <ele>273</ele>
        <time>2021-11-24T13:11:44.000Z</time>
      </trkpt>
      <trkpt lat="43.51426" lon="6.3728">
        <ele>273</ele>
        <time>2021-11-24T13:11:45.000Z</time>
      </trkpt>
      <trkpt lat="43.51427" lon="6.3728">
        <ele>273</ele>
        <time>2021-11-24T13:11:46.000Z</time>
      </trkpt>
      <trkpt lat="43.51427" lon="6.37281">
        <ele>273</ele>
        <time>2021-11-24T13:11:47.000Z</time>
      </trkpt>
      <trkpt lat="43.51428" lon="6.37281">
        <ele>273</ele>
        <time>2021-11-24T13:11:48.000Z</time>
      </trkpt>
      <trkpt lat="43.51428" lon="6.37281">
        <ele>274</ele>
        <time>2021-11-24T13:11:49.000Z</time>
      </trkpt>
      <trkpt lat="43.51428" lon="6.37281">
        <ele>274</ele>
        <time>2021-11-24T13:11:50.000Z</time>
      </trkpt>
      <trkpt lat="43.51429" lon="6.37282">
        <ele>274</ele>
        <time>2021-11-24T13:11:51.000Z</time>
      </trkpt>
      <trkpt lat="43.5143" lon="6.37283">
        <ele>274</ele>
        <time>2021-11-24T13:11:52.000Z</time>
      </trkpt>
      <trkpt lat="43.51431" lon="6.37284">
        <ele>274</ele>
        <time>2021-11-24T13:11:53.000Z</time>
      </trkpt>
      <trkpt lat="43.51432" lon="6.37285">
        <ele>274</ele>
        <time>2021-11-24T13:11:54.000Z</time>
      </trkpt>
      <trkpt lat="43.51433" lon="6.37286">
        <ele>274</ele>
        <time>2021-11-24T13:11:55.000Z</time>
      </trkpt>
      <trkpt lat="43.51433" lon="6.37286">
        <ele>274</ele>
        <time>2021-11-24T13:11:56.000Z</time>
      </trkpt>
      <trkpt lat="43.51434" lon="6.37287">
        <ele>274</ele>
        <time>2021-11-24T13:11:57.000Z</time>
      </trkpt>
      <trkpt lat="43.51434" lon="6.37287">
        <ele>275</ele>
        <time>2021-11-24T13:11:58.000Z</time>
      </trkpt>
      <trkpt lat="43.51435" lon="6.37287">
        <ele>275</ele>
        <time>2021-11-24T13:11:59.000Z</time>
      </trkpt>
      <trkpt lat="43.51435" lon="6.37288">
        <ele>275</ele>
        <time>2021-11-24T13:12:00.000Z</time>
      </trkpt>
      <trkpt lat="43.51436" lon="6.37289">
        <ele>275</ele>
        <time>2021-11-24T13:12:01.000Z</time>
      </trkpt>
      <trkpt lat="43.51437" lon="6.3729">
        <ele>276</ele>
        <time>2021-11-24T13:12:02.000Z</time>
      </trkpt>
      <trkpt lat="43.51438" lon="6.37291">
        <ele>276</ele>
        <time>2021-11-24T13:12:03.000Z</time>
      </trkpt>
      <trkpt lat="43.51439" lon="6.37292">
        <ele>276</ele>
        <time>2021-11-24T13:12:04.000Z</time>
      </trkpt>
      <trkpt lat="43.51439" lon="6.37292">
        <ele>276</ele>
        <time>2021-11-24T13:12:05.000Z</time>
      </trkpt>
      <trkpt lat="43.51439" lon="6.37292">
        <ele>276</ele>
        <time>2021-11-24T13:12:06.000Z</time>
      </trkpt>
      <trkpt lat="43.5144" lon="6.37293">
        <ele>276</ele>
        <time>2021-11-24T13:12:07.000Z</time>
      </trkpt>
      <trkpt lat="43.5144" lon="6.37293">
        <ele>276</ele>
        <time>2021-11-24T13:12:08.000Z</time>
      </trkpt>
      <trkpt lat="43.5144" lon="6.37294">
        <ele>276</ele>
        <time>2021-11-24T13:12:09.000Z</time>
      </trkpt>
      <trkpt lat="43.51441" lon="6.37294">
        <ele>276</ele>
        <time>2021-11-24T13:12:10.000Z</time>
      </trkpt>
      <trkpt lat="43.51441" lon="6.37294">
        <ele>276</ele>
        <time>2021-11-24T13:12:11.000Z</time>
      </trkpt>
      <trkpt lat="43.51441" lon="6.37294">
        <ele>276</ele>
        <time>2021-11-24T13:12:12.000Z</time>
      </trkpt>
      <trkpt lat="43.51441" lon="6.37294">
        <ele>276</ele>
        <time>2021-11-24T13:12:13.000Z</time>
      </trkpt>
      <trkpt lat="43.51441" lon="6.37294">
        <ele>276</ele>
        <time>2021-11-24T13:12:14.000Z</time>
      </trkpt>
      <trkpt lat="43.51441" lon="6.37294">
        <ele>276</ele>
        <time>2021-11-24T13:12:15.000Z</time>
      </trkpt>
      <trkpt lat="43.51441" lon="6.37294">
        <ele>276</ele>
        <time>2021-11-24T13:12:16.000Z</time>
      </trkpt>
      <trkpt lat="43.51441" lon="6.37294">
        <ele>276</ele>
        <time>2021-11-24T13:12:17.000Z</time>
      </trkpt>
      <trkpt lat="43.51442" lon="6.37295">
        <ele>276</ele>
        <time>2021-11-24T13:12:18.000Z</time>
      </trkpt>
      <trkpt lat="43.51442" lon="6.37295">
        <ele>276</ele>
        <time>2021-11-24T13:12:19.000Z</time>
      </trkpt>
      <trkpt lat="43.51442" lon="6.37295">
        <ele>276</ele>
        <time>2021-11-24T13:12:20.000Z</time>
      </trkpt>
      <trkpt lat="43.51442" lon="6.37295">
        <ele>276</ele>
        <time>2021-11-24T13:12:21.000Z</time>
      </trkpt>
      <trkpt lat="43.51442" lon="6.37295">
        <ele>276</ele>
        <time>2021-11-24T13:12:22.000Z</time>
      </trkpt>
      <trkpt lat="43.51442" lon="6.37296">
        <ele>276</ele>
        <time>2021-11-24T13:12:23.000Z</time>
      </trkpt>
      <trkpt lat="43.51442" lon="6.37296">
        <ele>276</ele>
        <time>2021-11-24T13:12:24.000Z</time>
      </trkpt>
      <trkpt lat="43.51443" lon="6.37296">
        <ele>276</ele>
        <time>2021-11-24T13:12:25.000Z</time>
      </trkpt>
      <trkpt lat="43.51443" lon="6.37296">
        <ele>276</ele>
        <time>2021-11-24T13:12:26.000Z</time>
      </trkpt>
      <trkpt lat="43.51443" lon="6.37296">
        <ele>276</ele>
        <time>2021-11-24T13:12:27.000Z</time>
      </trkpt>
      <trkpt lat="43.51443" lon="6.37296">
        <ele>276</ele>
        <time>2021-11-24T13:12:28.000Z</time>
      </trkpt>
      <trkpt lat="43.51444" lon="6.37297">
        <ele>276</ele>
        <time>2021-11-24T13:12:29.000Z</time>
      </trkpt>
      <trkpt lat="43.51444" lon="6.37297">
        <ele>276</ele>
        <time>2021-11-24T13:12:30.000Z</time>
      </trkpt>
      <trkpt lat="43.51445" lon="6.37297">
        <ele>276</ele>
        <time>2021-11-24T13:12:31.000Z</time>
      </trkpt>
      <trkpt lat="43.51445" lon="6.37298">
        <ele>276</ele>
        <time>2021-11-24T13:12:32.000Z</time>
      </trkpt>
      <trkpt lat="43.51446" lon="6.37298">
        <ele>275</ele>
        <time>2021-11-24T13:12:33.000Z</time>
      </trkpt>
      <trkpt lat="43.51446" lon="6.37299">
        <ele>275</ele>
        <time>2021-11-24T13:12:34.000Z</time>
      </trkpt>
      <trkpt lat="43.51447" lon="6.37299">
        <ele>275</ele>
        <time>2021-11-24T13:12:35.000Z</time>
      </trkpt>
      <trkpt lat="43.51448" lon="6.373">
        <ele>275</ele>
        <time>2021-11-24T13:12:36.000Z</time>
      </trkpt>
      <trkpt lat="43.51449" lon="6.373">
        <ele>275</ele>
        <time>2021-11-24T13:12:37.000Z</time>
      </trkpt>
      <trkpt lat="43.51451" lon="6.37301">
        <ele>275</ele>
        <time>2021-11-24T13:12:38.000Z</time>
      </trkpt>
      <trkpt lat="43.51452" lon="6.37302">
        <ele>275</ele>
        <time>2021-11-24T13:12:39.000Z</time>
      </trkpt>
      <trkpt lat="43.51453" lon="6.37303">
        <ele>274</ele>
        <time>2021-11-24T13:12:40.000Z</time>
      </trkpt>
      <trkpt lat="43.51455" lon="6.37303">
        <ele>274</ele>
        <time>2021-11-24T13:12:41.000Z</time>
      </trkpt>
      <trkpt lat="43.51456" lon="6.37304">
        <ele>274</ele>
        <time>2021-11-24T13:12:42.000Z</time>
      </trkpt>
      <trkpt lat="43.51458" lon="6.37305">
        <ele>274</ele>
        <time>2021-11-24T13:12:43.000Z</time>
      </trkpt>
      <trkpt lat="43.5146" lon="6.37306">
        <ele>274</ele>
        <time>2021-11-24T13:12:44.000Z</time>
      </trkpt>
      <trkpt lat="43.51461" lon="6.37306">
        <ele>273</ele>
        <time>2021-11-24T13:12:45.000Z</time>
      </trkpt>
      <trkpt lat="43.51462" lon="6.37307">
        <ele>273</ele>
        <time>2021-11-24T13:12:46.000Z</time>
      </trkpt>
      <trkpt lat="43.51463" lon="6.37307">
        <ele>273</ele>
        <time>2021-11-24T13:12:47.000Z</time>
      </trkpt>
      <trkpt lat="43.51464" lon="6.37308">
        <ele>273</ele>
        <time>2021-11-24T13:12:48.000Z</time>
      </trkpt>
      <trkpt lat="43.51465" lon="6.37309">
        <ele>273</ele>
        <time>2021-11-24T13:12:49.000Z</time>
      </trkpt>
      <trkpt lat="43.51466" lon="6.37309">
        <ele>273</ele>
        <time>2021-11-24T13:12:50.000Z</time>
      </trkpt>
      <trkpt lat="43.51467" lon="6.3731">
        <ele>273</ele>
        <time>2021-11-24T13:12:51.000Z</time>
      </trkpt>
      <trkpt lat="43.51469" lon="6.37311">
        <ele>273</ele>
        <time>2021-11-24T13:12:52.000Z</time>
      </trkpt>
      <trkpt lat="43.5147" lon="6.37312">
        <ele>273</ele>
        <time>2021-11-24T13:12:53.000Z</time>
      </trkpt>
      <trkpt lat="43.51471" lon="6.37312">
        <ele>273</ele>
        <time>2021-11-24T13:12:54.000Z</time>
      </trkpt>
      <trkpt lat="43.51471" lon="6.37313">
        <ele>273</ele>
        <time>2021-11-24T13:12:55.000Z</time>
      </trkpt>
      <trkpt lat="43.51472" lon="6.37313">
        <ele>273</ele>
        <time>2021-11-24T13:12:56.000Z</time>
      </trkpt>
      <trkpt lat="43.51472" lon="6.37313">
        <ele>273</ele>
        <time>2021-11-24T13:12:57.000Z</time>
      </trkpt>
      <trkpt lat="43.51472" lon="6.37314">
        <ele>273</ele>
        <time>2021-11-24T13:12:58.000Z</time>
      </trkpt>
      <trkpt lat="43.51473" lon="6.37314">
        <ele>273</ele>
        <time>2021-11-24T13:12:59.000Z</time>
      </trkpt>
      <trkpt lat="43.51473" lon="6.37314">
        <ele>273</ele>
        <time>2021-11-24T13:13:00.000Z</time>
      </trkpt>
      <trkpt lat="43.51473" lon="6.37314">
        <ele>273</ele>
        <time>2021-11-24T13:13:01.000Z</time>
      </trkpt>
      <trkpt lat="43.51474" lon="6.37314">
        <ele>273</ele>
        <time>2021-11-24T13:13:02.000Z</time>
      </trkpt>
      <trkpt lat="43.51474" lon="6.37315">
        <ele>273</ele>
        <time>2021-11-24T13:13:03.000Z</time>
      </trkpt>
      <trkpt lat="43.51474" lon="6.37315">
        <ele>273</ele>
        <time>2021-11-24T13:13:04.000Z</time>
      </trkpt>
      <trkpt lat="43.51474" lon="6.37315">
        <ele>273</ele>
        <time>2021-11-24T13:13:05.000Z</time>
      </trkpt>
      <trkpt lat="43.51474" lon="6.37315">
        <ele>273</ele>
        <time>2021-11-24T13:13:06.000Z</time>
      </trkpt>
      <trkpt lat="43.51474" lon="6.37315">
        <ele>273</ele>
        <time>2021-11-24T13:13:07.000Z</time>
      </trkpt>
      <trkpt lat="43.51475" lon="6.37315">
        <ele>273</ele>
        <time>2021-11-24T13:13:08.000Z</time>
      </trkpt>
      <trkpt lat="43.51475" lon="6.37315">
        <ele>273</ele>
        <time>2021-11-24T13:13:09.000Z</time>
      </trkpt>
      <trkpt lat="43.51475" lon="6.37315">
        <ele>273</ele>
        <time>2021-11-24T13:13:10.000Z</time>
      </trkpt>
      <trkpt lat="43.51475" lon="6.37315">
        <ele>273</ele>
        <time>2021-11-24T13:13:11.000Z</time>
      </trkpt>
      <trkpt lat="43.51475" lon="6.37315">
        <ele>273</ele>
        <time>2021-11-24T13:13:12.000Z</time>
      </trkpt>
      <trkpt lat="43.51475" lon="6.37315">
        <ele>273</ele>
        <time>2021-11-24T13:13:13.000Z</time>
      </trkpt>
      <trkpt lat="43.51475" lon="6.37315">
        <ele>273</ele>
        <time>2021-11-24T13:13:14.000Z</time>
      </trkpt>
      <trkpt lat="43.51475" lon="6.37315">
        <ele>273</ele>
        <time>2021-11-24T13:13:15.000Z</time>
      </trkpt>
      <trkpt lat="43.51475" lon="6.37315">
        <ele>273</ele>
        <time>2021-11-24T13:13:16.000Z</time>
      </trkpt>
      <trkpt lat="43.51476" lon="6.37315">
        <ele>273</ele>
        <time>2021-11-24T13:13:17.000Z</time>
      </trkpt>
      <trkpt lat="43.51477" lon="6.37315">
        <ele>273</ele>
        <time>2021-11-24T13:13:18.000Z</time>
      </trkpt>
      <trkpt lat="43.51478" lon="6.37315">
        <ele>273</ele>
        <time>2021-11-24T13:13:19.000Z</time>
      </trkpt>
      <trkpt lat="43.51479" lon="6.37315">
        <ele>273</ele>
        <time>2021-11-24T13:13:20.000Z</time>
      </trkpt>
      <trkpt lat="43.5148" lon="6.37315">
        <ele>272</ele>
        <time>2021-11-24T13:13:21.000Z</time>
      </trkpt>
      <trkpt lat="43.51481" lon="6.37315">
        <ele>272</ele>
        <time>2021-11-24T13:13:22.000Z</time>
      </trkpt>
      <trkpt lat="43.51482" lon="6.37315">
        <ele>272</ele>
        <time>2021-11-24T13:13:23.000Z</time>
      </trkpt>
      <trkpt lat="43.51482" lon="6.37316">
        <ele>272</ele>
        <time>2021-11-24T13:13:24.000Z</time>
      </trkpt>
      <trkpt lat="43.51483" lon="6.37316">
        <ele>272</ele>
        <time>2021-11-24T13:13:25.000Z</time>
      </trkpt>
      <trkpt lat="43.51483" lon="6.37316">
        <ele>272</ele>
        <time>2021-11-24T13:13:26.000Z</time>
      </trkpt>
      <trkpt lat="43.51484" lon="6.37316">
        <ele>272</ele>
        <time>2021-11-24T13:13:27.000Z</time>
      </trkpt>
      <trkpt lat="43.51484" lon="6.37316">
        <ele>272</ele>
        <time>2021-11-24T13:13:28.000Z</time>
      </trkpt>
      <trkpt lat="43.51484" lon="6.37316">
        <ele>272</ele>
        <time>2021-11-24T13:13:29.000Z</time>
      </trkpt>
      <trkpt lat="43.51485" lon="6.37316">
        <ele>272</ele>
        <time>2021-11-24T13:13:30.000Z</time>
      </trkpt>
      <trkpt lat="43.51485" lon="6.37316">
        <ele>272</ele>
        <time>2021-11-24T13:13:31.000Z</time>
      </trkpt>
      <trkpt lat="43.51485" lon="6.37316">
        <ele>272</ele>
        <time>2021-11-24T13:13:32.000Z</time>
      </trkpt>
      <trkpt lat="43.51485" lon="6.37316">
        <ele>272</ele>
        <time>2021-11-24T13:13:33.000Z</time>
      </trkpt>
      <trkpt lat="43.51486" lon="6.37316">
        <ele>272</ele>
        <time>2021-11-24T13:13:34.000Z</time>
      </trkpt>
      <trkpt lat="43.51486" lon="6.37316">
        <ele>272</ele>
        <time>2021-11-24T13:13:35.000Z</time>
      </trkpt>
      <trkpt lat="43.51486" lon="6.37316">
        <ele>272</ele>
        <time>2021-11-24T13:13:36.000Z</time>
      </trkpt>
      <trkpt lat="43.51486" lon="6.37316">
        <ele>272</ele>
        <time>2021-11-24T13:13:37.000Z</time>
      </trkpt>
      <trkpt lat="43.51486" lon="6.37316">
        <ele>272</ele>
        <time>2021-11-24T13:13:38.000Z</time>
      </trkpt>
      <trkpt lat="43.51486" lon="6.37316">
        <ele>272</ele>
        <time>2021-11-24T13:13:39.000Z</time>
      </trkpt>
      <trkpt lat="43.51486" lon="6.37316">
        <ele>272</ele>
        <time>2021-11-24T13:13:40.000Z</time>
      </trkpt>
      <trkpt lat="43.51486" lon="6.37316">
        <ele>272</ele>
        <time>2021-11-24T13:13:41.000Z</time>
      </trkpt>
      <trkpt lat="43.51486" lon="6.37316">
        <ele>272</ele>
        <time>2021-11-24T13:13:42.000Z</time>
      </trkpt>
      <trkpt lat="43.51486" lon="6.37316">
        <ele>272</ele>
        <time>2021-11-24T13:13:43.000Z</time>
      </trkpt>
      <trkpt lat="43.51486" lon="6.37316">
        <ele>272</ele>
        <time>2021-11-24T13:13:44.000Z</time>
      </trkpt>
      <trkpt lat="43.51486" lon="6.37316">
        <ele>272</ele>
        <time>2021-11-24T13:13:45.000Z</time>
      </trkpt>
      <trkpt lat="43.51486" lon="6.37316">
        <ele>272</ele>
        <time>2021-11-24T13:13:46.000Z</time>
      </trkpt>
      <trkpt lat="43.51486" lon="6.37316">
        <ele>272</ele>
        <time>2021-11-24T13:13:47.000Z</time>
      </trkpt>
      <trkpt lat="43.51486" lon="6.37316">
        <ele>272</ele>
        <time>2021-11-24T13:13:48.000Z</time>
      </trkpt>
      <trkpt lat="43.51486" lon="6.37316">
        <ele>272</ele>
        <time>2021-11-24T13:13:49.000Z</time>
      </trkpt>
      <trkpt lat="43.51486" lon="6.37316">
        <ele>272</ele>
        <time>2021-11-24T13:13:50.000Z</time>
      </trkpt>
      <trkpt lat="43.51486" lon="6.37316">
        <ele>272</ele>
        <time>2021-11-24T13:13:51.000Z</time>
      </trkpt>
      <trkpt lat="43.51486" lon="6.37316">
        <ele>272</ele>
        <time>2021-11-24T13:13:52.000Z</time>
      </trkpt>
      <trkpt lat="43.51486" lon="6.37316">
        <ele>272</ele>
        <time>2021-11-24T13:13:53.000Z</time>
      </trkpt>
      <trkpt lat="43.51486" lon="6.37316">
        <ele>272</ele>
        <time>2021-11-24T13:13:54.000Z</time>
      </trkpt>
      <trkpt lat="43.51486" lon="6.37316">
        <ele>272</ele>
        <time>2021-11-24T13:13:55.000Z</time>
      </trkpt>
      <trkpt lat="43.51486" lon="6.37316">
        <ele>272</ele>
        <time>2021-11-24T13:13:56.000Z</time>
      </trkpt>
      <trkpt lat="43.51486" lon="6.37316">
        <ele>272</ele>
        <time>2021-11-24T13:13:57.000Z</time>
      </trkpt>
      <trkpt lat="43.51486" lon="6.37316">
        <ele>272</ele>
        <time>2021-11-24T13:13:58.000Z</time>
      </trkpt>
      <trkpt lat="43.51486" lon="6.37316">
        <ele>272</ele>
        <time>2021-11-24T13:13:59.000Z</time>
      </trkpt>
      <trkpt lat="43.51486" lon="6.37316">
        <ele>272</ele>
        <time>2021-11-24T13:14:00.000Z</time>
      </trkpt>
      <trkpt lat="43.51486" lon="6.37316">
        <ele>272</ele>
        <time>2021-11-24T13:14:01.000Z</time>
      </trkpt>
      <trkpt lat="43.51486" lon="6.37316">
        <ele>272</ele>
        <time>2021-11-24T13:14:02.000Z</time>
      </trkpt>
      <trkpt lat="43.51486" lon="6.37316">
        <ele>272</ele>
        <time>2021-11-24T13:14:03.000Z</time>
      </trkpt>
      <trkpt lat="43.51486" lon="6.37316">
        <ele>272</ele>
        <time>2021-11-24T13:14:04.000Z</time>
      </trkpt>
      <trkpt lat="43.51486" lon="6.37316">
        <ele>272</ele>
        <time>2021-11-24T13:14:05.000Z</time>
      </trkpt>
      <trkpt lat="43.51487" lon="6.37316">
        <ele>272</ele>
        <time>2021-11-24T13:14:06.000Z</time>
      </trkpt>
      <trkpt lat="43.51487" lon="6.37316">
        <ele>272</ele>
        <time>2021-11-24T13:14:07.000Z</time>
      </trkpt>
      <trkpt lat="43.51487" lon="6.37316">
        <ele>272</ele>
        <time>2021-11-24T13:14:08.000Z</time>
      </trkpt>
      <trkpt lat="43.51487" lon="6.37316">
        <ele>272</ele>
        <time>2021-11-24T13:14:09.000Z</time>
      </trkpt>
      <trkpt lat="43.51487" lon="6.37316">
        <ele>272</ele>
        <time>2021-11-24T13:14:10.000Z</time>
      </trkpt>
      <trkpt lat="43.51487" lon="6.37316">
        <ele>272</ele>
        <time>2021-11-24T13:14:11.000Z</time>
      </trkpt>
      <trkpt lat="43.51487" lon="6.37316">
        <ele>272</ele>
        <time>2021-11-24T13:14:12.000Z</time>
      </trkpt>
      <trkpt lat="43.51487" lon="6.37316">
        <ele>272</ele>
        <time>2021-11-24T13:14:13.000Z</time>
      </trkpt>
      <trkpt lat="43.51487" lon="6.37316">
        <ele>272</ele>
        <time>2021-11-24T13:14:14.000Z</time>
      </trkpt>
      <trkpt lat="43.51487" lon="6.37316">
        <ele>272</ele>
        <time>2021-11-24T13:14:15.000Z</time>
      </trkpt>
      <trkpt lat="43.51487" lon="6.37316">
        <ele>272</ele>
        <time>2021-11-24T13:14:16.000Z</time>
      </trkpt>
      <trkpt lat="43.51487" lon="6.37316">
        <ele>272</ele>
        <time>2021-11-24T13:14:17.000Z</time>
      </trkpt>
      <trkpt lat="43.51487" lon="6.37316">
        <ele>272</ele>
        <time>2021-11-24T13:14:18.000Z</time>
      </trkpt>
      <trkpt lat="43.51487" lon="6.37316">
        <ele>272</ele>
        <time>2021-11-24T13:14:19.000Z</time>
      </trkpt>
      <trkpt lat="43.51487" lon="6.37316">
        <ele>272</ele>
        <time>2021-11-24T13:14:20.000Z</time>
      </trkpt>
      <trkpt lat="43.51487" lon="6.37316">
        <ele>272</ele>
        <time>2021-11-24T13:14:21.000Z</time>
      </trkpt>
      <trkpt lat="43.51487" lon="6.37316">
        <ele>272</ele>
        <time>2021-11-24T13:14:22.000Z</time>
      </trkpt>
      <trkpt lat="43.51487" lon="6.37316">
        <ele>272</ele>
        <time>2021-11-24T13:14:23.000Z</time>
      </trkpt>
      <trkpt lat="43.51487" lon="6.37316">
        <ele>272</ele>
        <time>2021-11-24T13:14:24.000Z</time>
      </trkpt>
      <trkpt lat="43.51487" lon="6.37316">
        <ele>272</ele>
        <time>2021-11-24T13:14:25.000Z</time>
      </trkpt>
      <trkpt lat="43.51487" lon="6.37316">
        <ele>272</ele>
        <time>2021-11-24T13:14:26.000Z</time>
      </trkpt>
      <trkpt lat="43.51487" lon="6.37316">
        <ele>272</ele>
        <time>2021-11-24T13:14:27.000Z</time>
      </trkpt>
      <trkpt lat="43.51487" lon="6.37316">
        <ele>272</ele>
        <time>2021-11-24T13:14:28.000Z</time>
      </trkpt>
      <trkpt lat="43.51487" lon="6.37316">
        <ele>272</ele>
        <time>2021-11-24T13:14:29.000Z</time>
      </trkpt>
      <trkpt lat="43.51487" lon="6.37316">
        <ele>272</ele>
        <time>2021-11-24T13:14:30.000Z</time>
      </trkpt>
      <trkpt lat="43.51487" lon="6.37316">
        <ele>272</ele>
        <time>2021-11-24T13:14:31.000Z</time>
      </trkpt>
      <trkpt lat="43.51487" lon="6.37316">
        <ele>272</ele>
        <time>2021-11-24T13:14:32.000Z</time>
      </trkpt>
      <trkpt lat="43.51487" lon="6.37316">
        <ele>272</ele>
        <time>2021-11-24T13:14:33.000Z</time>
      </trkpt>
      <trkpt lat="43.51487" lon="6.37316">
        <ele>272</ele>
        <time>2021-11-24T13:14:34.000Z</time>
      </trkpt>
      <trkpt lat="43.51487" lon="6.37316">
        <ele>272</ele>
        <time>2021-11-24T13:14:35.000Z</time>
      </trkpt>
      <trkpt lat="43.51487" lon="6.37316">
        <ele>272</ele>
        <time>2021-11-24T13:14:36.000Z</time>
      </trkpt>
      <trkpt lat="43.51487" lon="6.37316">
        <ele>272</ele>
        <time>2021-11-24T13:14:37.000Z</time>
      </trkpt>
      <trkpt lat="43.51487" lon="6.37316">
        <ele>272</ele>
        <time>2021-11-24T13:14:38.000Z</time>
      </trkpt>
      <trkpt lat="43.51487" lon="6.37316">
        <ele>272</ele>
        <time>2021-11-24T13:14:39.000Z</time>
      </trkpt>
      <trkpt lat="43.51487" lon="6.37316">
        <ele>272</ele>
        <time>2021-11-24T13:14:40.000Z</time>
      </trkpt>
      <trkpt lat="43.51487" lon="6.37316">
        <ele>272</ele>
        <time>2021-11-24T13:14:41.000Z</time>
      </trkpt>
      <trkpt lat="43.51487" lon="6.37316">
        <ele>272</ele>
        <time>2021-11-24T13:14:42.000Z</time>
      </trkpt>
      <trkpt lat="43.51487" lon="6.37316">
        <ele>272</ele>
        <time>2021-11-24T13:14:43.000Z</time>
      </trkpt>
      <trkpt lat="43.51487" lon="6.37316">
        <ele>272</ele>
        <time>2021-11-24T13:14:44.000Z</time>
      </trkpt>
      <trkpt lat="43.51487" lon="6.37316">
        <ele>272</ele>
        <time>2021-11-24T13:14:45.000Z</time>
      </trkpt>
      <trkpt lat="43.51487" lon="6.37316">
        <ele>272</ele>
        <time>2021-11-24T13:14:46.000Z</time>
      </trkpt>
      <trkpt lat="43.51487" lon="6.37316">
        <ele>272</ele>
        <time>2021-11-24T13:14:47.000Z</time>
      </trkpt>
      <trkpt lat="43.51487" lon="6.37316">
        <ele>272</ele>
        <time>2021-11-24T13:14:48.000Z</time>
      </trkpt>
      <trkpt lat="43.51487" lon="6.37316">
        <ele>272</ele>
        <time>2021-11-24T13:14:49.000Z</time>
      </trkpt>
      <trkpt lat="43.51487" lon="6.37316">
        <ele>272</ele>
        <time>2021-11-24T13:14:50.000Z</time>
      </trkpt>
      <trkpt lat="43.51487" lon="6.37316">
        <ele>272</ele>
        <time>2021-11-24T13:14:51.000Z</time>
      </trkpt>
      <trkpt lat="43.51487" lon="6.37316">
        <ele>272</ele>
        <time>2021-11-24T13:14:52.000Z</time>
      </trkpt>
      <trkpt lat="43.51487" lon="6.37316">
        <ele>272</ele>
        <time>2021-11-24T13:14:53.000Z</time>
      </trkpt>
      <trkpt lat="43.51487" lon="6.37316">
        <ele>272</ele>
        <time>2021-11-24T13:14:54.000Z</time>
      </trkpt>
      <trkpt lat="43.51487" lon="6.37316">
        <ele>272</ele>
        <time>2021-11-24T13:14:55.000Z</time>
      </trkpt>
      <trkpt lat="43.51487" lon="6.37316">
        <ele>272</ele>
        <time>2021-11-24T13:14:56.000Z</time>
      </trkpt>
      <trkpt lat="43.51487" lon="6.37316">
        <ele>272</ele>
        <time>2021-11-24T13:14:57.000Z</time>
      </trkpt>
      <trkpt lat="43.51487" lon="6.37316">
        <ele>272</ele>
        <time>2021-11-24T13:14:58.000Z</time>
      </trkpt>
      <trkpt lat="43.51487" lon="6.37316">
        <ele>272</ele>
        <time>2021-11-24T13:14:59.000Z</time>
      </trkpt>
      <trkpt lat="43.51487" lon="6.37316">
        <ele>272</ele>
        <time>2021-11-24T13:15:00.000Z</time>
      </trkpt>
      <trkpt lat="43.51487" lon="6.37316">
        <ele>272</ele>
        <time>2021-11-24T13:15:01.000Z</time>
      </trkpt>
      <trkpt lat="43.51487" lon="6.37316">
        <ele>272</ele>
        <time>2021-11-24T13:15:02.000Z</time>
      </trkpt>
      <trkpt lat="43.51487" lon="6.37316">
        <ele>272</ele>
        <time>2021-11-24T13:15:03.000Z</time>
      </trkpt>
      <trkpt lat="43.51487" lon="6.37316">
        <ele>272</ele>
        <time>2021-11-24T13:15:04.000Z</time>
      </trkpt>
      <trkpt lat="43.51487" lon="6.37316">
        <ele>272</ele>
        <time>2021-11-24T13:15:05.000Z</time>
      </trkpt>
      <trkpt lat="43.51487" lon="6.37316">
        <ele>272</ele>
        <time>2021-11-24T13:15:06.000Z</time>
      </trkpt>
      <trkpt lat="43.51487" lon="6.37316">
        <ele>272</ele>
        <time>2021-11-24T13:15:07.000Z</time>
      </trkpt>
      <trkpt lat="43.51487" lon="6.37316">
        <ele>272</ele>
        <time>2021-11-24T13:15:08.000Z</time>
      </trkpt>
      <trkpt lat="43.51487" lon="6.37316">
        <ele>272</ele>
        <time>2021-11-24T13:15:09.000Z</time>
      </trkpt>
      <trkpt lat="43.51487" lon="6.37316">
        <ele>272</ele>
        <time>2021-11-24T13:15:10.000Z</time>
      </trkpt>
      <trkpt lat="43.51487" lon="6.37316">
        <ele>272</ele>
        <time>2021-11-24T13:15:11.000Z</time>
      </trkpt>
      <trkpt lat="43.51487" lon="6.37316">
        <ele>272</ele>
        <time>2021-11-24T13:15:12.000Z</time>
      </trkpt>
      <trkpt lat="43.51487" lon="6.37316">
        <ele>272</ele>
        <time>2021-11-24T13:15:13.000Z</time>
      </trkpt>
      <trkpt lat="43.51487" lon="6.37316">
        <ele>272</ele>
        <time>2021-11-24T13:15:14.000Z</time>
      </trkpt>
      <trkpt lat="43.51487" lon="6.37316">
        <ele>272</ele>
        <time>2021-11-24T13:15:15.000Z</time>
      </trkpt>
      <trkpt lat="43.51487" lon="6.37316">
        <ele>272</ele>
        <time>2021-11-24T13:15:16.000Z</time>
      </trkpt>
      <trkpt lat="43.51487" lon="6.37316">
        <ele>272</ele>
        <time>2021-11-24T13:15:17.000Z</time>
      </trkpt>
      <trkpt lat="43.51487" lon="6.37316">
        <ele>272</ele>
        <time>2021-11-24T13:15:18.000Z</time>
      </trkpt>
      <trkpt lat="43.51487" lon="6.37316">
        <ele>272</ele>
        <time>2021-11-24T13:15:19.000Z</time>
      </trkpt>
      <trkpt lat="43.51487" lon="6.37316">
        <ele>272</ele>
        <time>2021-11-24T13:15:20.000Z</time>
      </trkpt>
      <trkpt lat="43.51487" lon="6.37316">
        <ele>272</ele>
        <time>2021-11-24T13:15:21.000Z</time>
      </trkpt>
      <trkpt lat="43.51487" lon="6.37316">
        <ele>272</ele>
        <time>2021-11-24T13:15:22.000Z</time>
      </trkpt>
      <trkpt lat="43.51487" lon="6.37316">
        <ele>272</ele>
        <time>2021-11-24T13:15:23.000Z</time>
      </trkpt>
      <trkpt lat="43.51487" lon="6.37316">
        <ele>272</ele>
        <time>2021-11-24T13:15:24.000Z</time>
      </trkpt>
      <trkpt lat="43.51487" lon="6.37316">
        <ele>272</ele>
        <time>2021-11-24T13:15:25.000Z</time>
      </trkpt>
      <trkpt lat="43.51487" lon="6.37316">
        <ele>272</ele>
        <time>2021-11-24T13:15:26.000Z</time>
      </trkpt>
      <trkpt lat="43.51487" lon="6.37316">
        <ele>272</ele>
        <time>2021-11-24T13:15:27.000Z</time>
      </trkpt>
      <trkpt lat="43.51487" lon="6.37316">
        <ele>272</ele>
        <time>2021-11-24T13:15:28.000Z</time>
      </trkpt>
      <trkpt lat="43.51487" lon="6.37316">
        <ele>272</ele>
        <time>2021-11-24T13:15:29.000Z</time>
      </trkpt>
      <trkpt lat="43.51487" lon="6.37316">
        <ele>272</ele>
        <time>2021-11-24T13:15:30.000Z</time>
      </trkpt>
      <trkpt lat="43.51487" lon="6.37316">
        <ele>272</ele>
        <time>2021-11-24T13:15:31.000Z</time>
      </trkpt>
      <trkpt lat="43.51487" lon="6.37316">
        <ele>272</ele>
        <time>2021-11-24T13:15:32.000Z</time>
      </trkpt>
      <trkpt lat="43.51487" lon="6.37316">
        <ele>272</ele>
        <time>2021-11-24T13:15:33.000Z</time>
      </trkpt>
      <trkpt lat="43.51487" lon="6.37316">
        <ele>272</ele>
        <time>2021-11-24T13:15:34.000Z</time>
      </trkpt>
      <trkpt lat="43.51487" lon="6.37316">
        <ele>272</ele>
        <time>2021-11-24T13:15:35.000Z</time>
      </trkpt>
      <trkpt lat="43.51487" lon="6.37316">
        <ele>272</ele>
        <time>2021-11-24T13:15:36.000Z</time>
      </trkpt>
      <trkpt lat="43.51487" lon="6.37316">
        <ele>272</ele>
        <time>2021-11-24T13:15:37.000Z</time>
      </trkpt>
      <trkpt lat="43.51487" lon="6.37316">
        <ele>272</ele>
        <time>2021-11-24T13:15:38.000Z</time>
      </trkpt>
      <trkpt lat="43.51487" lon="6.37316">
        <ele>272</ele>
        <time>2021-11-24T13:15:39.000Z</time>
      </trkpt>
      <trkpt lat="43.51487" lon="6.37316">
        <ele>272</ele>
        <time>2021-11-24T13:15:40.000Z</time>
      </trkpt>
      <trkpt lat="43.51487" lon="6.37316">
        <ele>272</ele>
        <time>2021-11-24T13:15:41.000Z</time>
      </trkpt>
      <trkpt lat="43.51487" lon="6.37316">
        <ele>272</ele>
        <time>2021-11-24T13:15:42.000Z</time>
      </trkpt>
      <trkpt lat="43.51487" lon="6.37316">
        <ele>272</ele>
        <time>2021-11-24T13:15:43.000Z</time>
      </trkpt>
      <trkpt lat="43.51487" lon="6.37316">
        <ele>272</ele>
        <time>2021-11-24T13:15:44.000Z</time>
      </trkpt>
      <trkpt lat="43.51487" lon="6.37316">
        <ele>272</ele>
        <time>2021-11-24T13:15:45.000Z</time>
      </trkpt>
      <trkpt lat="43.51487" lon="6.37316">
        <ele>272</ele>
        <time>2021-11-24T13:15:46.000Z</time>
      </trkpt>
      <trkpt lat="43.51487" lon="6.37316">
        <ele>272</ele>
        <time>2021-11-24T13:15:47.000Z</time>
      </trkpt>
      <trkpt lat="43.51487" lon="6.37316">
        <ele>272</ele>
        <time>2021-11-24T13:15:48.000Z</time>
      </trkpt>
      <trkpt lat="43.51487" lon="6.37316">
        <ele>272</ele>
        <time>2021-11-24T13:15:49.000Z</time>
      </trkpt>
      <trkpt lat="43.51487" lon="6.37316">
        <ele>272</ele>
        <time>2021-11-24T13:15:50.000Z</time>
      </trkpt>
      <trkpt lat="43.51487" lon="6.37316">
        <ele>272</ele>
        <time>2021-11-24T13:15:51.000Z</time>
      </trkpt>
      <trkpt lat="43.51487" lon="6.37316">
        <ele>272</ele>
        <time>2021-11-24T13:15:52.000Z</time>
      </trkpt>
      <trkpt lat="43.51487" lon="6.37316">
        <ele>272</ele>
        <time>2021-11-24T13:15:53.000Z</time>
      </trkpt>
      <trkpt lat="43.51487" lon="6.37316">
        <ele>272</ele>
        <time>2021-11-24T13:15:54.000Z</time>
      </trkpt>
      <trkpt lat="43.51487" lon="6.37316">
        <ele>272</ele>
        <time>2021-11-24T13:15:55.000Z</time>
      </trkpt>
      <trkpt lat="43.51487" lon="6.37316">
        <ele>272</ele>
        <time>2021-11-24T13:15:56.000Z</time>
      </trkpt>
      <trkpt lat="43.51487" lon="6.37316">
        <ele>272</ele>
        <time>2021-11-24T13:15:57.000Z</time>
      </trkpt>
      <trkpt lat="43.51487" lon="6.37316">
        <ele>272</ele>
        <time>2021-11-24T13:15:58.000Z</time>
      </trkpt>
      <trkpt lat="43.51487" lon="6.37316">
        <ele>272</ele>
        <time>2021-11-24T13:15:59.000Z</time>
      </trkpt>
      <trkpt lat="43.51487" lon="6.37316">
        <ele>272</ele>
        <time>2021-11-24T13:16:00.000Z</time>
      </trkpt>
      <trkpt lat="43.51487" lon="6.37316">
        <ele>272</ele>
        <time>2021-11-24T13:16:01.000Z</time>
      </trkpt>
      <trkpt lat="43.51487" lon="6.37316">
        <ele>272</ele>
        <time>2021-11-24T13:16:02.000Z</time>
      </trkpt>
      <trkpt lat="43.51487" lon="6.37316">
        <ele>272</ele>
        <time>2021-11-24T13:16:03.000Z</time>
      </trkpt>
      <trkpt lat="43.51487" lon="6.37316">
        <ele>272</ele>
        <time>2021-11-24T13:16:04.000Z</time>
      </trkpt>
      <trkpt lat="43.51487" lon="6.37316">
        <ele>272</ele>
        <time>2021-11-24T13:16:05.000Z</time>
      </trkpt>
      <trkpt lat="43.51487" lon="6.37316">
        <ele>272</ele>
        <time>2021-11-24T13:16:06.000Z</time>
      </trkpt>
      <trkpt lat="43.51487" lon="6.37316">
        <ele>272</ele>
        <time>2021-11-24T13:16:07.000Z</time>
      </trkpt>
      <trkpt lat="43.51487" lon="6.37316">
        <ele>272</ele>
        <time>2021-11-24T13:16:08.000Z</time>
      </trkpt>
      <trkpt lat="43.51487" lon="6.37316">
        <ele>272</ele>
        <time>2021-11-24T13:16:09.000Z</time>
      </trkpt>
      <trkpt lat="43.51487" lon="6.37316">
        <ele>272</ele>
        <time>2021-11-24T13:16:10.000Z</time>
      </trkpt>
      <trkpt lat="43.51487" lon="6.37316">
        <ele>272</ele>
        <time>2021-11-24T13:16:11.000Z</time>
      </trkpt>
      <trkpt lat="43.51487" lon="6.37316">
        <ele>272</ele>
        <time>2021-11-24T13:16:12.000Z</time>
      </trkpt>
      <trkpt lat="43.51487" lon="6.37316">
        <ele>272</ele>
        <time>2021-11-24T13:16:13.000Z</time>
      </trkpt>
      <trkpt lat="43.51487" lon="6.37316">
        <ele>272</ele>
        <time>2021-11-24T13:16:14.000Z</time>
      </trkpt>
      <trkpt lat="43.51487" lon="6.37316">
        <ele>272</ele>
        <time>2021-11-24T13:16:15.000Z</time>
      </trkpt>
      <trkpt lat="43.51487" lon="6.37316">
        <ele>272</ele>
        <time>2021-11-24T13:16:16.000Z</time>
      </trkpt>
      <trkpt lat="43.51487" lon="6.37316">
        <ele>272</ele>
        <time>2021-11-24T13:16:17.000Z</time>
      </trkpt>
      <trkpt lat="43.51487" lon="6.37316">
        <ele>272</ele>
        <time>2021-11-24T13:16:18.000Z</time>
      </trkpt>
      <trkpt lat="43.51487" lon="6.37316">
        <ele>272</ele>
        <time>2021-11-24T13:16:19.000Z</time>
      </trkpt>
      <trkpt lat="43.51487" lon="6.37316">
        <ele>272</ele>
        <time>2021-11-24T13:16:20.000Z</time>
      </trkpt>
      <trkpt lat="43.51487" lon="6.37316">
        <ele>272</ele>
        <time>2021-11-24T13:16:21.000Z</time>
      </trkpt>
      <trkpt lat="43.51487" lon="6.37316">
        <ele>272</ele>
        <time>2021-11-24T13:16:22.000Z</time>
      </trkpt>
      <trkpt lat="43.51487" lon="6.37316">
        <ele>272</ele>
        <time>2021-11-24T13:16:23.000Z</time>
      </trkpt>
      <trkpt lat="43.51487" lon="6.37316">
        <ele>272</ele>
        <time>2021-11-24T13:16:24.000Z</time>
      </trkpt>
      <trkpt lat="43.51487" lon="6.37316">
        <ele>272</ele>
        <time>2021-11-24T13:16:25.000Z</time>
      </trkpt>
      <trkpt lat="43.51498" lon="6.37326">
        <ele>272</ele>
        <time>2021-11-24T13:16:26.000Z</time>
      </trkpt>
      <trkpt lat="43.51499" lon="6.37326">
        <ele>271</ele>
        <time>2021-11-24T13:16:27.000Z</time>
      </trkpt>
      <trkpt lat="43.51499" lon="6.37326">
        <ele>271</ele>
        <time>2021-11-24T13:16:28.000Z</time>
      </trkpt>
      <trkpt lat="43.51499" lon="6.37326">
        <ele>271</ele>
        <time>2021-11-24T13:16:29.000Z</time>
      </trkpt>
      <trkpt lat="43.51499" lon="6.37327">
        <ele>271</ele>
        <time>2021-11-24T13:16:30.000Z</time>
      </trkpt>
      <trkpt lat="43.51499" lon="6.37327">
        <ele>271</ele>
        <time>2021-11-24T13:16:31.000Z</time>
      </trkpt>
      <trkpt lat="43.51499" lon="6.37327">
        <ele>271</ele>
        <time>2021-11-24T13:16:32.000Z</time>
      </trkpt>
      <trkpt lat="43.51499" lon="6.37327">
        <ele>271</ele>
        <time>2021-11-24T13:16:33.000Z</time>
      </trkpt>
      <trkpt lat="43.51499" lon="6.37327">
        <ele>271</ele>
        <time>2021-11-24T13:16:34.000Z</time>
      </trkpt>
      <trkpt lat="43.51499" lon="6.37327">
        <ele>271</ele>
        <time>2021-11-24T13:16:35.000Z</time>
      </trkpt>
      <trkpt lat="43.51499" lon="6.37327">
        <ele>271</ele>
        <time>2021-11-24T13:16:36.000Z</time>
      </trkpt>
      <trkpt lat="43.51499" lon="6.37327">
        <ele>271</ele>
        <time>2021-11-24T13:16:37.000Z</time>
      </trkpt>
      <trkpt lat="43.51499" lon="6.37327">
        <ele>271</ele>
        <time>2021-11-24T13:16:38.000Z</time>
      </trkpt>
      <trkpt lat="43.51499" lon="6.37327">
        <ele>271</ele>
        <time>2021-11-24T13:16:39.000Z</time>
      </trkpt>
      <trkpt lat="43.51499" lon="6.37327">
        <ele>271</ele>
        <time>2021-11-24T13:16:40.000Z</time>
      </trkpt>
      <trkpt lat="43.51499" lon="6.37327">
        <ele>271</ele>
        <time>2021-11-24T13:16:41.000Z</time>
      </trkpt>
      <trkpt lat="43.51499" lon="6.37327">
        <ele>271</ele>
        <time>2021-11-24T13:16:42.000Z</time>
      </trkpt>
      <trkpt lat="43.51499" lon="6.37327">
        <ele>271</ele>
        <time>2021-11-24T13:16:43.000Z</time>
      </trkpt>
      <trkpt lat="43.51499" lon="6.37327">
        <ele>271</ele>
        <time>2021-11-24T13:16:44.000Z</time>
      </trkpt>
      <trkpt lat="43.51499" lon="6.37327">
        <ele>271</ele>
        <time>2021-11-24T13:16:45.000Z</time>
      </trkpt>
      <trkpt lat="43.51499" lon="6.37327">
        <ele>271</ele>
        <time>2021-11-24T13:16:46.000Z</time>
      </trkpt>
      <trkpt lat="43.51499" lon="6.37327">
        <ele>271</ele>
        <time>2021-11-24T13:16:47.000Z</time>
      </trkpt>
      <trkpt lat="43.51499" lon="6.37327">
        <ele>271</ele>
        <time>2021-11-24T13:16:48.000Z</time>
      </trkpt>
      <trkpt lat="43.51499" lon="6.37327">
        <ele>271</ele>
        <time>2021-11-24T13:16:49.000Z</time>
      </trkpt>
      <trkpt lat="43.51499" lon="6.37327">
        <ele>271</ele>
        <time>2021-11-24T13:16:50.000Z</time>
      </trkpt>
      <trkpt lat="43.51499" lon="6.37327">
        <ele>271</ele>
        <time>2021-11-24T13:16:51.000Z</time>
      </trkpt>
      <trkpt lat="43.51499" lon="6.37327">
        <ele>271</ele>
        <time>2021-11-24T13:16:52.000Z</time>
      </trkpt>
      <trkpt lat="43.51499" lon="6.37327">
        <ele>271</ele>
        <time>2021-11-24T13:16:53.000Z</time>
      </trkpt>
      <trkpt lat="43.51499" lon="6.37327">
        <ele>271</ele>
        <time>2021-11-24T13:16:54.000Z</time>
      </trkpt>
      <trkpt lat="43.51499" lon="6.37327">
        <ele>271</ele>
        <time>2021-11-24T13:16:55.000Z</time>
      </trkpt>
      <trkpt lat="43.51499" lon="6.37327">
        <ele>271</ele>
        <time>2021-11-24T13:16:56.000Z</time>
      </trkpt>
      <trkpt lat="43.51499" lon="6.37327">
        <ele>271</ele>
        <time>2021-11-24T13:16:57.000Z</time>
      </trkpt>
      <trkpt lat="43.51499" lon="6.37327">
        <ele>271</ele>
        <time>2021-11-24T13:16:58.000Z</time>
      </trkpt>
      <trkpt lat="43.51499" lon="6.37327">
        <ele>271</ele>
        <time>2021-11-24T13:16:59.000Z</time>
      </trkpt>
      <trkpt lat="43.51499" lon="6.37327">
        <ele>271</ele>
        <time>2021-11-24T13:17:00.000Z</time>
      </trkpt>
      <trkpt lat="43.51499" lon="6.37327">
        <ele>271</ele>
        <time>2021-11-24T13:17:01.000Z</time>
      </trkpt>
      <trkpt lat="43.51499" lon="6.37327">
        <ele>271</ele>
        <time>2021-11-24T13:17:02.000Z</time>
      </trkpt>
      <trkpt lat="43.51499" lon="6.37327">
        <ele>271</ele>
        <time>2021-11-24T13:17:03.000Z</time>
      </trkpt>
      <trkpt lat="43.51499" lon="6.37327">
        <ele>271</ele>
        <time>2021-11-24T13:17:04.000Z</time>
      </trkpt>
      <trkpt lat="43.51499" lon="6.37327">
        <ele>271</ele>
        <time>2021-11-24T13:17:05.000Z</time>
      </trkpt>
      <trkpt lat="43.51499" lon="6.37327">
        <ele>271</ele>
        <time>2021-11-24T13:17:06.000Z</time>
      </trkpt>
      <trkpt lat="43.51499" lon="6.37327">
        <ele>271</ele>
        <time>2021-11-24T13:17:07.000Z</time>
      </trkpt>
      <trkpt lat="43.51499" lon="6.37327">
        <ele>271</ele>
        <time>2021-11-24T13:17:08.000Z</time>
      </trkpt>
      <trkpt lat="43.51499" lon="6.37327">
        <ele>271</ele>
        <time>2021-11-24T13:17:09.000Z</time>
      </trkpt>
      <trkpt lat="43.51499" lon="6.37327">
        <ele>271</ele>
        <time>2021-11-24T13:17:10.000Z</time>
      </trkpt>
      <trkpt lat="43.51499" lon="6.37327">
        <ele>271</ele>
        <time>2021-11-24T13:17:11.000Z</time>
      </trkpt>
      <trkpt lat="43.51499" lon="6.37327">
        <ele>271</ele>
        <time>2021-11-24T13:17:12.000Z</time>
      </trkpt>
      <trkpt lat="43.51499" lon="6.37327">
        <ele>271</ele>
        <time>2021-11-24T13:17:13.000Z</time>
      </trkpt>
      <trkpt lat="43.51499" lon="6.37327">
        <ele>271</ele>
        <time>2021-11-24T13:17:14.000Z</time>
      </trkpt>
      <trkpt lat="43.51499" lon="6.37327">
        <ele>271</ele>
        <time>2021-11-24T13:17:15.000Z</time>
      </trkpt>
      <trkpt lat="43.51499" lon="6.37327">
        <ele>271</ele>
        <time>2021-11-24T13:17:16.000Z</time>
      </trkpt>
      <trkpt lat="43.51499" lon="6.37327">
        <ele>271</ele>
        <time>2021-11-24T13:17:17.000Z</time>
      </trkpt>
      <trkpt lat="43.51499" lon="6.37327">
        <ele>271</ele>
        <time>2021-11-24T13:17:18.000Z</time>
      </trkpt>
      <trkpt lat="43.51499" lon="6.37327">
        <ele>271</ele>
        <time>2021-11-24T13:17:19.000Z</time>
      </trkpt>
      <trkpt lat="43.51499" lon="6.37327">
        <ele>271</ele>
        <time>2021-11-24T13:17:20.000Z</time>
      </trkpt>
      <trkpt lat="43.51499" lon="6.37327">
        <ele>271</ele>
        <time>2021-11-24T13:17:21.000Z</time>
      </trkpt>
      <trkpt lat="43.51499" lon="6.37327">
        <ele>271</ele>
        <time>2021-11-24T13:17:22.000Z</time>
      </trkpt>
      <trkpt lat="43.51499" lon="6.37327">
        <ele>271</ele>
        <time>2021-11-24T13:17:23.000Z</time>
      </trkpt>
      <trkpt lat="43.51499" lon="6.37327">
        <ele>271</ele>
        <time>2021-11-24T13:17:24.000Z</time>
      </trkpt>
      <trkpt lat="43.51499" lon="6.37327">
        <ele>271</ele>
        <time>2021-11-24T13:17:25.000Z</time>
      </trkpt>
      <trkpt lat="43.51499" lon="6.37327">
        <ele>271</ele>
        <time>2021-11-24T13:17:26.000Z</time>
      </trkpt>
      <trkpt lat="43.51499" lon="6.37327">
        <ele>271</ele>
        <time>2021-11-24T13:17:27.000Z</time>
      </trkpt>
      <trkpt lat="43.51499" lon="6.37327">
        <ele>271</ele>
        <time>2021-11-24T13:17:28.000Z</time>
      </trkpt>
      <trkpt lat="43.51499" lon="6.37327">
        <ele>271</ele>
        <time>2021-11-24T13:17:29.000Z</time>
      </trkpt>
      <trkpt lat="43.51499" lon="6.37327">
        <ele>271</ele>
        <time>2021-11-24T13:17:30.000Z</time>
      </trkpt>
      <trkpt lat="43.51499" lon="6.37327">
        <ele>271</ele>
        <time>2021-11-24T13:17:31.000Z</time>
      </trkpt>
      <trkpt lat="43.51499" lon="6.37327">
        <ele>271</ele>
        <time>2021-11-24T13:17:32.000Z</time>
      </trkpt>
      <trkpt lat="43.51499" lon="6.37327">
        <ele>271</ele>
        <time>2021-11-24T13:17:33.000Z</time>
      </trkpt>
      <trkpt lat="43.51499" lon="6.37327">
        <ele>271</ele>
        <time>2021-11-24T13:17:34.000Z</time>
      </trkpt>
      <trkpt lat="43.51499" lon="6.37327">
        <ele>271</ele>
        <time>2021-11-24T13:17:35.000Z</time>
      </trkpt>
      <trkpt lat="43.51499" lon="6.37327">
        <ele>271</ele>
        <time>2021-11-24T13:17:36.000Z</time>
      </trkpt>
      <trkpt lat="43.51499" lon="6.37327">
        <ele>271</ele>
        <time>2021-11-24T13:17:37.000Z</time>
      </trkpt>
      <trkpt lat="43.51499" lon="6.37327">
        <ele>271</ele>
        <time>2021-11-24T13:17:38.000Z</time>
      </trkpt>
      <trkpt lat="43.51499" lon="6.37327">
        <ele>271</ele>
        <time>2021-11-24T13:17:39.000Z</time>
      </trkpt>
      <trkpt lat="43.51499" lon="6.37327">
        <ele>271</ele>
        <time>2021-11-24T13:17:40.000Z</time>
      </trkpt>
      <trkpt lat="43.51499" lon="6.37327">
        <ele>271</ele>
        <time>2021-11-24T13:17:41.000Z</time>
      </trkpt>
      <trkpt lat="43.51499" lon="6.37327">
        <ele>271</ele>
        <time>2021-11-24T13:17:42.000Z</time>
      </trkpt>
      <trkpt lat="43.51499" lon="6.37327">
        <ele>271</ele>
        <time>2021-11-24T13:17:43.000Z</time>
      </trkpt>
      <trkpt lat="43.51499" lon="6.37327">
        <ele>271</ele>
        <time>2021-11-24T13:17:44.000Z</time>
      </trkpt>
      <trkpt lat="43.51499" lon="6.37327">
        <ele>271</ele>
        <time>2021-11-24T13:17:45.000Z</time>
      </trkpt>
      <trkpt lat="43.51499" lon="6.37327">
        <ele>271</ele>
        <time>2021-11-24T13:17:46.000Z</time>
      </trkpt>
      <trkpt lat="43.51499" lon="6.37327">
        <ele>271</ele>
        <time>2021-11-24T13:17:47.000Z</time>
      </trkpt>
      <trkpt lat="43.51499" lon="6.37327">
        <ele>271</ele>
        <time>2021-11-24T13:17:48.000Z</time>
      </trkpt>
      <trkpt lat="43.51499" lon="6.37327">
        <ele>271</ele>
        <time>2021-11-24T13:17:49.000Z</time>
      </trkpt>
      <trkpt lat="43.51499" lon="6.37327">
        <ele>271</ele>
        <time>2021-11-24T13:17:50.000Z</time>
      </trkpt>
      <trkpt lat="43.51499" lon="6.37327">
        <ele>271</ele>
        <time>2021-11-24T13:17:51.000Z</time>
      </trkpt>
      <trkpt lat="43.51499" lon="6.37327">
        <ele>271</ele>
        <time>2021-11-24T13:17:52.000Z</time>
      </trkpt>
      <trkpt lat="43.51499" lon="6.37327">
        <ele>271</ele>
        <time>2021-11-24T13:17:53.000Z</time>
      </trkpt>
      <trkpt lat="43.51499" lon="6.37327">
        <ele>271</ele>
        <time>2021-11-24T13:17:54.000Z</time>
      </trkpt>
      <trkpt lat="43.51499" lon="6.37327">
        <ele>271</ele>
        <time>2021-11-24T13:17:55.000Z</time>
      </trkpt>
      <trkpt lat="43.51499" lon="6.37327">
        <ele>271</ele>
        <time>2021-11-24T13:17:56.000Z</time>
      </trkpt>
      <trkpt lat="43.51499" lon="6.37327">
        <ele>271</ele>
        <time>2021-11-24T13:17:57.000Z</time>
      </trkpt>
      <trkpt lat="43.51499" lon="6.37327">
        <ele>271</ele>
        <time>2021-11-24T13:17:58.000Z</time>
      </trkpt>
      <trkpt lat="43.51499" lon="6.37327">
        <ele>271</ele>
        <time>2021-11-24T13:17:59.000Z</time>
      </trkpt>
      <trkpt lat="43.51499" lon="6.37327">
        <ele>271</ele>
        <time>2021-11-24T13:18:00.000Z</time>
      </trkpt>
      <trkpt lat="43.51499" lon="6.37327">
        <ele>271</ele>
        <time>2021-11-24T13:18:01.000Z</time>
      </trkpt>
      <trkpt lat="43.51499" lon="6.37327">
        <ele>271</ele>
        <time>2021-11-24T13:18:02.000Z</time>
      </trkpt>
      <trkpt lat="43.51499" lon="6.37327">
        <ele>271</ele>
        <time>2021-11-24T13:18:03.000Z</time>
      </trkpt>
      <trkpt lat="43.51499" lon="6.37327">
        <ele>271</ele>
        <time>2021-11-24T13:18:04.000Z</time>
      </trkpt>
      <trkpt lat="43.51499" lon="6.37327">
        <ele>271</ele>
        <time>2021-11-24T13:18:05.000Z</time>
      </trkpt>
      <trkpt lat="43.51499" lon="6.37327">
        <ele>271</ele>
        <time>2021-11-24T13:18:06.000Z</time>
      </trkpt>
      <trkpt lat="43.51499" lon="6.37327">
        <ele>271</ele>
        <time>2021-11-24T13:18:07.000Z</time>
      </trkpt>
      <trkpt lat="43.51499" lon="6.37327">
        <ele>271</ele>
        <time>2021-11-24T13:18:08.000Z</time>
      </trkpt>
      <trkpt lat="43.51499" lon="6.37327">
        <ele>271</ele>
        <time>2021-11-24T13:18:09.000Z</time>
      </trkpt>
      <trkpt lat="43.51499" lon="6.37327">
        <ele>271</ele>
        <time>2021-11-24T13:18:10.000Z</time>
      </trkpt>
      <trkpt lat="43.51499" lon="6.37327">
        <ele>271</ele>
        <time>2021-11-24T13:18:11.000Z</time>
      </trkpt>
      <trkpt lat="43.51499" lon="6.37327">
        <ele>271</ele>
        <time>2021-11-24T13:18:12.000Z</time>
      </trkpt>
      <trkpt lat="43.51499" lon="6.37327">
        <ele>271</ele>
        <time>2021-11-24T13:18:13.000Z</time>
      </trkpt>
      <trkpt lat="43.51499" lon="6.37327">
        <ele>271</ele>
        <time>2021-11-24T13:18:14.000Z</time>
      </trkpt>
      <trkpt lat="43.51499" lon="6.37327">
        <ele>271</ele>
        <time>2021-11-24T13:18:15.000Z</time>
      </trkpt>
      <trkpt lat="43.51499" lon="6.37327">
        <ele>271</ele>
        <time>2021-11-24T13:18:16.000Z</time>
      </trkpt>
      <trkpt lat="43.51499" lon="6.37327">
        <ele>271</ele>
        <time>2021-11-24T13:18:17.000Z</time>
      </trkpt>
      <trkpt lat="43.51499" lon="6.37327">
        <ele>271</ele>
        <time>2021-11-24T13:18:18.000Z</time>
      </trkpt>
      <trkpt lat="43.51499" lon="6.37327">
        <ele>271</ele>
        <time>2021-11-24T13:18:19.000Z</time>
      </trkpt>
      <trkpt lat="43.51499" lon="6.37327">
        <ele>271</ele>
        <time>2021-11-24T13:18:20.000Z</time>
      </trkpt>
      <trkpt lat="43.51499" lon="6.37327">
        <ele>271</ele>
        <time>2021-11-24T13:18:21.000Z</time>
      </trkpt>
      <trkpt lat="43.51499" lon="6.37327">
        <ele>271</ele>
        <time>2021-11-24T13:18:22.000Z</time>
      </trkpt>
      <trkpt lat="43.51499" lon="6.37327">
        <ele>271</ele>
        <time>2021-11-24T13:18:23.000Z</time>
      </trkpt>
      <trkpt lat="43.51499" lon="6.37327">
        <ele>271</ele>
        <time>2021-11-24T13:18:24.000Z</time>
      </trkpt>
      <trkpt lat="43.51499" lon="6.37327">
        <ele>271</ele>
        <time>2021-11-24T13:18:25.000Z</time>
      </trkpt>
      <trkpt lat="43.51499" lon="6.37327">
        <ele>271</ele>
        <time>2021-11-24T13:18:26.000Z</time>
      </trkpt>
      <trkpt lat="43.51499" lon="6.37327">
        <ele>271</ele>
        <time>2021-11-24T13:18:27.000Z</time>
      </trkpt>
      <trkpt lat="43.51499" lon="6.37327">
        <ele>271</ele>
        <time>2021-11-24T13:18:28.000Z</time>
      </trkpt>
      <trkpt lat="43.51499" lon="6.37327">
        <ele>271</ele>
        <time>2021-11-24T13:18:29.000Z</time>
      </trkpt>
      <trkpt lat="43.51499" lon="6.37327">
        <ele>271</ele>
        <time>2021-11-24T13:18:30.000Z</time>
      </trkpt>
      <trkpt lat="43.51499" lon="6.37327">
        <ele>271</ele>
        <time>2021-11-24T13:18:31.000Z</time>
      </trkpt>
      <trkpt lat="43.51499" lon="6.37327">
        <ele>271</ele>
        <time>2021-11-24T13:18:32.000Z</time>
      </trkpt>
      <trkpt lat="43.51499" lon="6.37327">
        <ele>271</ele>
        <time>2021-11-24T13:18:33.000Z</time>
      </trkpt>
      <trkpt lat="43.51499" lon="6.37327">
        <ele>271</ele>
        <time>2021-11-24T13:18:34.000Z</time>
      </trkpt>
      <trkpt lat="43.51499" lon="6.37327">
        <ele>271</ele>
        <time>2021-11-24T13:18:35.000Z</time>
      </trkpt>
      <trkpt lat="43.51499" lon="6.37327">
        <ele>271</ele>
        <time>2021-11-24T13:18:36.000Z</time>
      </trkpt>
      <trkpt lat="43.51499" lon="6.37327">
        <ele>271</ele>
        <time>2021-11-24T13:18:37.000Z</time>
      </trkpt>
      <trkpt lat="43.51499" lon="6.37327">
        <ele>271</ele>
        <time>2021-11-24T13:18:38.000Z</time>
      </trkpt>
      <trkpt lat="43.51499" lon="6.37327">
        <ele>271</ele>
        <time>2021-11-24T13:18:39.000Z</time>
      </trkpt>
      <trkpt lat="43.51499" lon="6.37327">
        <ele>271</ele>
        <time>2021-11-24T13:18:40.000Z</time>
      </trkpt>
      <trkpt lat="43.51499" lon="6.37327">
        <ele>271</ele>
        <time>2021-11-24T13:18:41.000Z</time>
      </trkpt>
      <trkpt lat="43.51499" lon="6.37327">
        <ele>271</ele>
        <time>2021-11-24T13:18:42.000Z</time>
      </trkpt>
      <trkpt lat="43.51499" lon="6.37327">
        <ele>271</ele>
        <time>2021-11-24T13:18:43.000Z</time>
      </trkpt>
      <trkpt lat="43.51499" lon="6.37327">
        <ele>271</ele>
        <time>2021-11-24T13:18:44.000Z</time>
      </trkpt>
      <trkpt lat="43.51499" lon="6.37327">
        <ele>271</ele>
        <time>2021-11-24T13:18:45.000Z</time>
      </trkpt>
      <trkpt lat="43.51499" lon="6.37327">
        <ele>271</ele>
        <time>2021-11-24T13:18:46.000Z</time>
      </trkpt>
      <trkpt lat="43.51499" lon="6.37327">
        <ele>271</ele>
        <time>2021-11-24T13:18:47.000Z</time>
      </trkpt>
      <trkpt lat="43.51499" lon="6.37327">
        <ele>271</ele>
        <time>2021-11-24T13:18:48.000Z</time>
      </trkpt>
      <trkpt lat="43.51499" lon="6.37327">
        <ele>271</ele>
        <time>2021-11-24T13:18:49.000Z</time>
      </trkpt>
      <trkpt lat="43.51499" lon="6.37327">
        <ele>271</ele>
        <time>2021-11-24T13:18:50.000Z</time>
      </trkpt>
      <trkpt lat="43.51499" lon="6.37327">
        <ele>271</ele>
        <time>2021-11-24T13:18:51.000Z</time>
      </trkpt>
      <trkpt lat="43.51499" lon="6.37327">
        <ele>271</ele>
        <time>2021-11-24T13:18:52.000Z</time>
      </trkpt>
      <trkpt lat="43.51499" lon="6.37327">
        <ele>271</ele>
        <time>2021-11-24T13:18:53.000Z</time>
      </trkpt>
      <trkpt lat="43.51499" lon="6.37327">
        <ele>271</ele>
        <time>2021-11-24T13:18:54.000Z</time>
      </trkpt>
      <trkpt lat="43.51499" lon="6.37327">
        <ele>271</ele>
        <time>2021-11-24T13:18:55.000Z</time>
      </trkpt>
      <trkpt lat="43.51499" lon="6.37327">
        <ele>271</ele>
        <time>2021-11-24T13:18:56.000Z</time>
      </trkpt>
      <trkpt lat="43.51499" lon="6.37327">
        <ele>271</ele>
        <time>2021-11-24T13:18:57.000Z</time>
      </trkpt>
      <trkpt lat="43.51499" lon="6.37327">
        <ele>271</ele>
        <time>2021-11-24T13:18:58.000Z</time>
      </trkpt>
      <trkpt lat="43.51499" lon="6.37327">
        <ele>271</ele>
        <time>2021-11-24T13:18:59.000Z</time>
      </trkpt>
      <trkpt lat="43.51499" lon="6.37327">
        <ele>271</ele>
        <time>2021-11-24T13:19:00.000Z</time>
      </trkpt>
      <trkpt lat="43.51499" lon="6.37327">
        <ele>271</ele>
        <time>2021-11-24T13:19:01.000Z</time>
      </trkpt>
      <trkpt lat="43.51499" lon="6.37327">
        <ele>271</ele>
        <time>2021-11-24T13:19:02.000Z</time>
      </trkpt>
      <trkpt lat="43.51499" lon="6.37327">
        <ele>271</ele>
        <time>2021-11-24T13:19:03.000Z</time>
      </trkpt>
      <trkpt lat="43.51499" lon="6.37327">
        <ele>271</ele>
        <time>2021-11-24T13:19:04.000Z</time>
      </trkpt>
      <trkpt lat="43.51499" lon="6.37327">
        <ele>271</ele>
        <time>2021-11-24T13:19:05.000Z</time>
      </trkpt>
      <trkpt lat="43.51499" lon="6.37327">
        <ele>271</ele>
        <time>2021-11-24T13:19:06.000Z</time>
      </trkpt>
      <trkpt lat="43.51499" lon="6.37327">
        <ele>271</ele>
        <time>2021-11-24T13:19:07.000Z</time>
      </trkpt>
      <trkpt lat="43.51499" lon="6.37327">
        <ele>271</ele>
        <time>2021-11-24T13:19:08.000Z</time>
      </trkpt>
      <trkpt lat="43.51499" lon="6.37327">
        <ele>271</ele>
        <time>2021-11-24T13:19:09.000Z</time>
      </trkpt>
      <trkpt lat="43.51499" lon="6.37327">
        <ele>271</ele>
        <time>2021-11-24T13:19:10.000Z</time>
      </trkpt>
      <trkpt lat="43.51499" lon="6.37327">
        <ele>271</ele>
        <time>2021-11-24T13:19:11.000Z</time>
      </trkpt>
      <trkpt lat="43.51499" lon="6.37327">
        <ele>271</ele>
        <time>2021-11-24T13:19:12.000Z</time>
      </trkpt>
      <trkpt lat="43.51499" lon="6.37327">
        <ele>271</ele>
        <time>2021-11-24T13:19:13.000Z</time>
      </trkpt>
      <trkpt lat="43.51499" lon="6.37327">
        <ele>271</ele>
        <time>2021-11-24T13:19:14.000Z</time>
      </trkpt>
      <trkpt lat="43.51499" lon="6.37327">
        <ele>271</ele>
        <time>2021-11-24T13:19:15.000Z</time>
      </trkpt>
      <trkpt lat="43.51499" lon="6.37327">
        <ele>271</ele>
        <time>2021-11-24T13:19:16.000Z</time>
      </trkpt>
      <trkpt lat="43.51499" lon="6.37327">
        <ele>271</ele>
        <time>2021-11-24T13:19:17.000Z</time>
      </trkpt>
      <trkpt lat="43.51499" lon="6.37327">
        <ele>271</ele>
        <time>2021-11-24T13:19:18.000Z</time>
      </trkpt>
      <trkpt lat="43.51499" lon="6.37327">
        <ele>271</ele>
        <time>2021-11-24T13:19:19.000Z</time>
      </trkpt>
      <trkpt lat="43.51499" lon="6.37327">
        <ele>271</ele>
        <time>2021-11-24T13:19:20.000Z</time>
      </trkpt>
      <trkpt lat="43.51499" lon="6.37327">
        <ele>271</ele>
        <time>2021-11-24T13:19:21.000Z</time>
      </trkpt>
      <trkpt lat="43.51499" lon="6.37327">
        <ele>271</ele>
        <time>2021-11-24T13:19:22.000Z</time>
      </trkpt>
      <trkpt lat="43.51499" lon="6.37327">
        <ele>271</ele>
        <time>2021-11-24T13:19:23.000Z</time>
      </trkpt>
      <trkpt lat="43.51499" lon="6.37327">
        <ele>271</ele>
        <time>2021-11-24T13:19:24.000Z</time>
      </trkpt>
      <trkpt lat="43.51499" lon="6.37327">
        <ele>271</ele>
        <time>2021-11-24T13:19:25.000Z</time>
      </trkpt>
      <trkpt lat="43.51499" lon="6.37327">
        <ele>271</ele>
        <time>2021-11-24T13:19:26.000Z</time>
      </trkpt>
      <trkpt lat="43.51499" lon="6.37327">
        <ele>271</ele>
        <time>2021-11-24T13:19:27.000Z</time>
      </trkpt>
      <trkpt lat="43.51499" lon="6.37327">
        <ele>271</ele>
        <time>2021-11-24T13:19:28.000Z</time>
      </trkpt>
      <trkpt lat="43.51499" lon="6.37327">
        <ele>271</ele>
        <time>2021-11-24T13:19:29.000Z</time>
      </trkpt>
      <trkpt lat="43.51499" lon="6.37327">
        <ele>271</ele>
        <time>2021-11-24T13:19:30.000Z</time>
      </trkpt>
      <trkpt lat="43.51499" lon="6.37327">
        <ele>271</ele>
        <time>2021-11-24T13:19:31.000Z</time>
      </trkpt>
      <trkpt lat="43.51499" lon="6.37327">
        <ele>271</ele>
        <time>2021-11-24T13:19:32.000Z</time>
      </trkpt>
      <trkpt lat="43.51499" lon="6.37327">
        <ele>271</ele>
        <time>2021-11-24T13:19:33.000Z</time>
      </trkpt>
      <trkpt lat="43.51499" lon="6.37327">
        <ele>271</ele>
        <time>2021-11-24T13:19:34.000Z</time>
      </trkpt>
      <trkpt lat="43.51499" lon="6.37327">
        <ele>271</ele>
        <time>2021-11-24T13:19:35.000Z</time>
      </trkpt>
      <trkpt lat="43.51499" lon="6.37327">
        <ele>271</ele>
        <time>2021-11-24T13:19:36.000Z</time>
      </trkpt>
      <trkpt lat="43.51499" lon="6.37327">
        <ele>271</ele>
        <time>2021-11-24T13:19:37.000Z</time>
      </trkpt>
      <trkpt lat="43.51499" lon="6.37327">
        <ele>271</ele>
        <time>2021-11-24T13:19:38.000Z</time>
      </trkpt>
      <trkpt lat="43.51499" lon="6.37327">
        <ele>271</ele>
        <time>2021-11-24T13:19:39.000Z</time>
      </trkpt>
      <trkpt lat="43.51499" lon="6.37327">
        <ele>271</ele>
        <time>2021-11-24T13:19:40.000Z</time>
      </trkpt>
      <trkpt lat="43.51499" lon="6.37327">
        <ele>271</ele>
        <time>2021-11-24T13:19:41.000Z</time>
      </trkpt>
      <trkpt lat="43.51499" lon="6.37327">
        <ele>271</ele>
        <time>2021-11-24T13:19:42.000Z</time>
      </trkpt>
      <trkpt lat="43.51499" lon="6.37327">
        <ele>271</ele>
        <time>2021-11-24T13:19:43.000Z</time>
      </trkpt>
      <trkpt lat="43.51499" lon="6.37327">
        <ele>271</ele>
        <time>2021-11-24T13:19:44.000Z</time>
      </trkpt>
      <trkpt lat="43.51499" lon="6.37327">
        <ele>271</ele>
        <time>2021-11-24T13:19:45.000Z</time>
      </trkpt>
      <trkpt lat="43.51499" lon="6.37327">
        <ele>271</ele>
        <time>2021-11-24T13:19:46.000Z</time>
      </trkpt>
      <trkpt lat="43.51499" lon="6.37327">
        <ele>271</ele>
        <time>2021-11-24T13:19:47.000Z</time>
      </trkpt>
      <trkpt lat="43.51499" lon="6.37327">
        <ele>271</ele>
        <time>2021-11-24T13:19:48.000Z</time>
      </trkpt>
      <trkpt lat="43.515" lon="6.37328">
        <ele>271</ele>
        <time>2021-11-24T13:19:49.000Z</time>
      </trkpt>
      <trkpt lat="43.51501" lon="6.37329">
        <ele>271</ele>
        <time>2021-11-24T13:19:50.000Z</time>
      </trkpt>
      <trkpt lat="43.51502" lon="6.37331">
        <ele>271</ele>
        <time>2021-11-24T13:19:51.000Z</time>
      </trkpt>
      <trkpt lat="43.51504" lon="6.37332">
        <ele>271</ele>
        <time>2021-11-24T13:19:52.000Z</time>
      </trkpt>
      <trkpt lat="43.51505" lon="6.37334">
        <ele>271</ele>
        <time>2021-11-24T13:19:53.000Z</time>
      </trkpt>
      <trkpt lat="43.51506" lon="6.37334">
        <ele>270</ele>
        <time>2021-11-24T13:19:54.000Z</time>
      </trkpt>
      <trkpt lat="43.51507" lon="6.37335">
        <ele>270</ele>
        <time>2021-11-24T13:19:55.000Z</time>
      </trkpt>
      <trkpt lat="43.51508" lon="6.37336">
        <ele>269</ele>
        <time>2021-11-24T13:19:56.000Z</time>
      </trkpt>
      <trkpt lat="43.51508" lon="6.37336">
        <ele>269</ele>
        <time>2021-11-24T13:19:57.000Z</time>
      </trkpt>
      <trkpt lat="43.51508" lon="6.37336">
        <ele>269</ele>
        <time>2021-11-24T13:19:58.000Z</time>
      </trkpt>
      <trkpt lat="43.51508" lon="6.37336">
        <ele>269</ele>
        <time>2021-11-24T13:19:59.000Z</time>
      </trkpt>
      <trkpt lat="43.51508" lon="6.37336">
        <ele>269</ele>
        <time>2021-11-24T13:20:00.000Z</time>
      </trkpt>
      <trkpt lat="43.51508" lon="6.37336">
        <ele>269</ele>
        <time>2021-11-24T13:20:01.000Z</time>
      </trkpt>
      <trkpt lat="43.51508" lon="6.37336">
        <ele>269</ele>
        <time>2021-11-24T13:20:02.000Z</time>
      </trkpt>
      <trkpt lat="43.51508" lon="6.37336">
        <ele>269</ele>
        <time>2021-11-24T13:20:03.000Z</time>
      </trkpt>
      <trkpt lat="43.51508" lon="6.37336">
        <ele>269</ele>
        <time>2021-11-24T13:20:04.000Z</time>
      </trkpt>
      <trkpt lat="43.51508" lon="6.37336">
        <ele>269</ele>
        <time>2021-11-24T13:20:05.000Z</time>
      </trkpt>
      <trkpt lat="43.51508" lon="6.37336">
        <ele>269</ele>
        <time>2021-11-24T13:20:06.000Z</time>
      </trkpt>
      <trkpt lat="43.51508" lon="6.37336">
        <ele>269</ele>
        <time>2021-11-24T13:20:07.000Z</time>
      </trkpt>
      <trkpt lat="43.51508" lon="6.37336">
        <ele>269</ele>
        <time>2021-11-24T13:20:08.000Z</time>
      </trkpt>
      <trkpt lat="43.51508" lon="6.37336">
        <ele>269</ele>
        <time>2021-11-24T13:20:09.000Z</time>
      </trkpt>
      <trkpt lat="43.51515" lon="6.37339">
        <ele>269</ele>
        <time>2021-11-24T13:20:10.000Z</time>
      </trkpt>
      <trkpt lat="43.51516" lon="6.3734">
        <ele>269</ele>
        <time>2021-11-24T13:20:11.000Z</time>
      </trkpt>
      <trkpt lat="43.51516" lon="6.3734">
        <ele>269</ele>
        <time>2021-11-24T13:20:12.000Z</time>
      </trkpt>
      <trkpt lat="43.51516" lon="6.3734">
        <ele>269</ele>
        <time>2021-11-24T13:20:13.000Z</time>
      </trkpt>
      <trkpt lat="43.51517" lon="6.3734">
        <ele>269</ele>
        <time>2021-11-24T13:20:14.000Z</time>
      </trkpt>
      <trkpt lat="43.51517" lon="6.3734">
        <ele>269</ele>
        <time>2021-11-24T13:20:15.000Z</time>
      </trkpt>
      <trkpt lat="43.51517" lon="6.3734">
        <ele>269</ele>
        <time>2021-11-24T13:20:16.000Z</time>
      </trkpt>
      <trkpt lat="43.51517" lon="6.3734">
        <ele>269</ele>
        <time>2021-11-24T13:20:17.000Z</time>
      </trkpt>
      <trkpt lat="43.51517" lon="6.3734">
        <ele>269</ele>
        <time>2021-11-24T13:20:18.000Z</time>
      </trkpt>
      <trkpt lat="43.51517" lon="6.3734">
        <ele>269</ele>
        <time>2021-11-24T13:20:19.000Z</time>
      </trkpt>
      <trkpt lat="43.51517" lon="6.3734">
        <ele>269</ele>
        <time>2021-11-24T13:20:20.000Z</time>
      </trkpt>
      <trkpt lat="43.51517" lon="6.3734">
        <ele>269</ele>
        <time>2021-11-24T13:20:21.000Z</time>
      </trkpt>
      <trkpt lat="43.51517" lon="6.3734">
        <ele>269</ele>
        <time>2021-11-24T13:20:22.000Z</time>
      </trkpt>
      <trkpt lat="43.51517" lon="6.3734">
        <ele>269</ele>
        <time>2021-11-24T13:20:23.000Z</time>
      </trkpt>
      <trkpt lat="43.51517" lon="6.3734">
        <ele>269</ele>
        <time>2021-11-24T13:20:24.000Z</time>
      </trkpt>
      <trkpt lat="43.51517" lon="6.3734">
        <ele>269</ele>
        <time>2021-11-24T13:20:25.000Z</time>
      </trkpt>
      <trkpt lat="43.51517" lon="6.3734">
        <ele>269</ele>
        <time>2021-11-24T13:20:26.000Z</time>
      </trkpt>
      <trkpt lat="43.51517" lon="6.3734">
        <ele>269</ele>
        <time>2021-11-24T13:20:27.000Z</time>
      </trkpt>
      <trkpt lat="43.51517" lon="6.3734">
        <ele>269</ele>
        <time>2021-11-24T13:20:28.000Z</time>
      </trkpt>
      <trkpt lat="43.51517" lon="6.37341">
        <ele>269</ele>
        <time>2021-11-24T13:20:29.000Z</time>
      </trkpt>
      <trkpt lat="43.51517" lon="6.37341">
        <ele>269</ele>
        <time>2021-11-24T13:20:30.000Z</time>
      </trkpt>
      <trkpt lat="43.51517" lon="6.3734">
        <ele>269</ele>
        <time>2021-11-24T13:20:31.000Z</time>
      </trkpt>
      <trkpt lat="43.51517" lon="6.3734">
        <ele>269</ele>
        <time>2021-11-24T13:20:32.000Z</time>
      </trkpt>
      <trkpt lat="43.51517" lon="6.3734">
        <ele>269</ele>
        <time>2021-11-24T13:20:33.000Z</time>
      </trkpt>
      <trkpt lat="43.51517" lon="6.3734">
        <ele>269</ele>
        <time>2021-11-24T13:20:34.000Z</time>
      </trkpt>
      <trkpt lat="43.51517" lon="6.3734">
        <ele>269</ele>
        <time>2021-11-24T13:20:35.000Z</time>
      </trkpt>
      <trkpt lat="43.51517" lon="6.3734">
        <ele>269</ele>
        <time>2021-11-24T13:20:36.000Z</time>
      </trkpt>
      <trkpt lat="43.51517" lon="6.3734">
        <ele>269</ele>
        <time>2021-11-24T13:20:37.000Z</time>
      </trkpt>
      <trkpt lat="43.51517" lon="6.3734">
        <ele>269</ele>
        <time>2021-11-24T13:20:38.000Z</time>
      </trkpt>
      <trkpt lat="43.51517" lon="6.3734">
        <ele>269</ele>
        <time>2021-11-24T13:20:39.000Z</time>
      </trkpt>
      <trkpt lat="43.51517" lon="6.3734">
        <ele>269</ele>
        <time>2021-11-24T13:20:40.000Z</time>
      </trkpt>
      <trkpt lat="43.51517" lon="6.3734">
        <ele>269</ele>
        <time>2021-11-24T13:20:41.000Z</time>
      </trkpt>
      <trkpt lat="43.51517" lon="6.3734">
        <ele>269</ele>
        <time>2021-11-24T13:20:42.000Z</time>
      </trkpt>
      <trkpt lat="43.51517" lon="6.3734">
        <ele>269</ele>
        <time>2021-11-24T13:20:43.000Z</time>
      </trkpt>
      <trkpt lat="43.51517" lon="6.3734">
        <ele>269</ele>
        <time>2021-11-24T13:20:44.000Z</time>
      </trkpt>
      <trkpt lat="43.51517" lon="6.3734">
        <ele>269</ele>
        <time>2021-11-24T13:20:45.000Z</time>
      </trkpt>
      <trkpt lat="43.51517" lon="6.3734">
        <ele>269</ele>
        <time>2021-11-24T13:20:46.000Z</time>
      </trkpt>
      <trkpt lat="43.51517" lon="6.3734">
        <ele>269</ele>
        <time>2021-11-24T13:20:47.000Z</time>
      </trkpt>
      <trkpt lat="43.51517" lon="6.3734">
        <ele>269</ele>
        <time>2021-11-24T13:20:48.000Z</time>
      </trkpt>
      <trkpt lat="43.51517" lon="6.3734">
        <ele>269</ele>
        <time>2021-11-24T13:20:49.000Z</time>
      </trkpt>
      <trkpt lat="43.51517" lon="6.3734">
        <ele>269</ele>
        <time>2021-11-24T13:20:50.000Z</time>
      </trkpt>
      <trkpt lat="43.51517" lon="6.3734">
        <ele>269</ele>
        <time>2021-11-24T13:20:51.000Z</time>
      </trkpt>
      <trkpt lat="43.51517" lon="6.3734">
        <ele>269</ele>
        <time>2021-11-24T13:20:52.000Z</time>
      </trkpt>
      <trkpt lat="43.51517" lon="6.3734">
        <ele>269</ele>
        <time>2021-11-24T13:20:53.000Z</time>
      </trkpt>
      <trkpt lat="43.51517" lon="6.3734">
        <ele>269</ele>
        <time>2021-11-24T13:20:54.000Z</time>
      </trkpt>
      <trkpt lat="43.51517" lon="6.3734">
        <ele>269</ele>
        <time>2021-11-24T13:20:55.000Z</time>
      </trkpt>
      <trkpt lat="43.51517" lon="6.3734">
        <ele>269</ele>
        <time>2021-11-24T13:20:56.000Z</time>
      </trkpt>
      <trkpt lat="43.51517" lon="6.3734">
        <ele>269</ele>
        <time>2021-11-24T13:20:57.000Z</time>
      </trkpt>
      <trkpt lat="43.51517" lon="6.3734">
        <ele>269</ele>
        <time>2021-11-24T13:20:58.000Z</time>
      </trkpt>
      <trkpt lat="43.51517" lon="6.3734">
        <ele>269</ele>
        <time>2021-11-24T13:20:59.000Z</time>
      </trkpt>
      <trkpt lat="43.51517" lon="6.3734">
        <ele>269</ele>
        <time>2021-11-24T13:21:00.000Z</time>
      </trkpt>
      <trkpt lat="43.51517" lon="6.3734">
        <ele>269</ele>
        <time>2021-11-24T13:21:01.000Z</time>
      </trkpt>
      <trkpt lat="43.51517" lon="6.3734">
        <ele>269</ele>
        <time>2021-11-24T13:21:02.000Z</time>
      </trkpt>
      <trkpt lat="43.51517" lon="6.3734">
        <ele>269</ele>
        <time>2021-11-24T13:21:03.000Z</time>
      </trkpt>
      <trkpt lat="43.51517" lon="6.3734">
        <ele>269</ele>
        <time>2021-11-24T13:21:04.000Z</time>
      </trkpt>
      <trkpt lat="43.51517" lon="6.3734">
        <ele>269</ele>
        <time>2021-11-24T13:21:05.000Z</time>
      </trkpt>
      <trkpt lat="43.51517" lon="6.3734">
        <ele>269</ele>
        <time>2021-11-24T13:21:06.000Z</time>
      </trkpt>
      <trkpt lat="43.51517" lon="6.3734">
        <ele>269</ele>
        <time>2021-11-24T13:21:07.000Z</time>
      </trkpt>
      <trkpt lat="43.51517" lon="6.3734">
        <ele>269</ele>
        <time>2021-11-24T13:21:08.000Z</time>
      </trkpt>
      <trkpt lat="43.51517" lon="6.3734">
        <ele>269</ele>
        <time>2021-11-24T13:21:09.000Z</time>
      </trkpt>
      <trkpt lat="43.51517" lon="6.3734">
        <ele>269</ele>
        <time>2021-11-24T13:21:10.000Z</time>
      </trkpt>
      <trkpt lat="43.51517" lon="6.3734">
        <ele>269</ele>
        <time>2021-11-24T13:21:11.000Z</time>
      </trkpt>
      <trkpt lat="43.51517" lon="6.3734">
        <ele>269</ele>
        <time>2021-11-24T13:21:12.000Z</time>
      </trkpt>
      <trkpt lat="43.51517" lon="6.3734">
        <ele>269</ele>
        <time>2021-11-24T13:21:13.000Z</time>
      </trkpt>
      <trkpt lat="43.51517" lon="6.3734">
        <ele>269</ele>
        <time>2021-11-24T13:21:14.000Z</time>
      </trkpt>
      <trkpt lat="43.51517" lon="6.3734">
        <ele>269</ele>
        <time>2021-11-24T13:21:15.000Z</time>
      </trkpt>
      <trkpt lat="43.51517" lon="6.3734">
        <ele>269</ele>
        <time>2021-11-24T13:21:16.000Z</time>
      </trkpt>
      <trkpt lat="43.51517" lon="6.37341">
        <ele>269</ele>
        <time>2021-11-24T13:21:17.000Z</time>
      </trkpt>
      <trkpt lat="43.51517" lon="6.37341">
        <ele>269</ele>
        <time>2021-11-24T13:21:18.000Z</time>
      </trkpt>
      <trkpt lat="43.51517" lon="6.37341">
        <ele>269</ele>
        <time>2021-11-24T13:21:19.000Z</time>
      </trkpt>
      <trkpt lat="43.51517" lon="6.37341">
        <ele>269</ele>
        <time>2021-11-24T13:21:20.000Z</time>
      </trkpt>
      <trkpt lat="43.51517" lon="6.37341">
        <ele>269</ele>
        <time>2021-11-24T13:21:21.000Z</time>
      </trkpt>
      <trkpt lat="43.51517" lon="6.37341">
        <ele>269</ele>
        <time>2021-11-24T13:21:22.000Z</time>
      </trkpt>
      <trkpt lat="43.51517" lon="6.37341">
        <ele>269</ele>
        <time>2021-11-24T13:21:23.000Z</time>
      </trkpt>
      <trkpt lat="43.51517" lon="6.37341">
        <ele>269</ele>
        <time>2021-11-24T13:21:24.000Z</time>
      </trkpt>
      <trkpt lat="43.51517" lon="6.37341">
        <ele>269</ele>
        <time>2021-11-24T13:21:25.000Z</time>
      </trkpt>
      <trkpt lat="43.51517" lon="6.37341">
        <ele>269</ele>
        <time>2021-11-24T13:21:26.000Z</time>
      </trkpt>
      <trkpt lat="43.51517" lon="6.37341">
        <ele>269</ele>
        <time>2021-11-24T13:21:27.000Z</time>
      </trkpt>
      <trkpt lat="43.51517" lon="6.37341">
        <ele>269</ele>
        <time>2021-11-24T13:21:28.000Z</time>
      </trkpt>
      <trkpt lat="43.51517" lon="6.37341">
        <ele>269</ele>
        <time>2021-11-24T13:21:29.000Z</time>
      </trkpt>
      <trkpt lat="43.51517" lon="6.37341">
        <ele>269</ele>
        <time>2021-11-24T13:21:30.000Z</time>
      </trkpt>
      <trkpt lat="43.51517" lon="6.37341">
        <ele>269</ele>
        <time>2021-11-24T13:21:31.000Z</time>
      </trkpt>
      <trkpt lat="43.51517" lon="6.37341">
        <ele>269</ele>
        <time>2021-11-24T13:21:32.000Z</time>
      </trkpt>
      <trkpt lat="43.51517" lon="6.37341">
        <ele>269</ele>
        <time>2021-11-24T13:21:33.000Z</time>
      </trkpt>
      <trkpt lat="43.51517" lon="6.37341">
        <ele>269</ele>
        <time>2021-11-24T13:21:34.000Z</time>
      </trkpt>
      <trkpt lat="43.51517" lon="6.37341">
        <ele>269</ele>
        <time>2021-11-24T13:21:35.000Z</time>
      </trkpt>
      <trkpt lat="43.51517" lon="6.37341">
        <ele>269</ele>
        <time>2021-11-24T13:21:36.000Z</time>
      </trkpt>
      <trkpt lat="43.51517" lon="6.37341">
        <ele>269</ele>
        <time>2021-11-24T13:21:37.000Z</time>
      </trkpt>
      <trkpt lat="43.51517" lon="6.37341">
        <ele>269</ele>
        <time>2021-11-24T13:21:38.000Z</time>
      </trkpt>
      <trkpt lat="43.51517" lon="6.37341">
        <ele>269</ele>
        <time>2021-11-24T13:21:39.000Z</time>
      </trkpt>
      <trkpt lat="43.51518" lon="6.37341">
        <ele>269</ele>
        <time>2021-11-24T13:21:40.000Z</time>
      </trkpt>
      <trkpt lat="43.51518" lon="6.37341">
        <ele>269</ele>
        <time>2021-11-24T13:21:41.000Z</time>
      </trkpt>
      <trkpt lat="43.5152" lon="6.3734">
        <ele>269</ele>
        <time>2021-11-24T13:21:42.000Z</time>
      </trkpt>
      <trkpt lat="43.51521" lon="6.3734">
        <ele>269</ele>
        <time>2021-11-24T13:21:43.000Z</time>
      </trkpt>
      <trkpt lat="43.51523" lon="6.37339">
        <ele>269</ele>
        <time>2021-11-24T13:21:44.000Z</time>
      </trkpt>
      <trkpt lat="43.51525" lon="6.37338">
        <ele>269</ele>
        <time>2021-11-24T13:21:45.000Z</time>
      </trkpt>
      <trkpt lat="43.51527" lon="6.37338">
        <ele>266</ele>
        <time>2021-11-24T13:21:46.000Z</time>
      </trkpt>
      <trkpt lat="43.5153" lon="6.37337">
        <ele>266</ele>
        <time>2021-11-24T13:21:47.000Z</time>
      </trkpt>
      <trkpt lat="43.51533" lon="6.37336">
        <ele>265</ele>
        <time>2021-11-24T13:21:48.000Z</time>
      </trkpt>
      <trkpt lat="43.51535" lon="6.37336">
        <ele>265</ele>
        <time>2021-11-24T13:21:49.000Z</time>
      </trkpt>
      <trkpt lat="43.51537" lon="6.37336">
        <ele>265</ele>
        <time>2021-11-24T13:21:50.000Z</time>
      </trkpt>
      <trkpt lat="43.51539" lon="6.37335">
        <ele>265</ele>
        <time>2021-11-24T13:21:51.000Z</time>
      </trkpt>
      <trkpt lat="43.51541" lon="6.37335">
        <ele>265</ele>
        <time>2021-11-24T13:21:52.000Z</time>
      </trkpt>
      <trkpt lat="43.51542" lon="6.37335">
        <ele>265</ele>
        <time>2021-11-24T13:21:53.000Z</time>
      </trkpt>
      <trkpt lat="43.51544" lon="6.37334">
        <ele>264</ele>
        <time>2021-11-24T13:21:54.000Z</time>
      </trkpt>
      <trkpt lat="43.51545" lon="6.37334">
        <ele>264</ele>
        <time>2021-11-24T13:21:55.000Z</time>
      </trkpt>
      <trkpt lat="43.51547" lon="6.37334">
        <ele>263</ele>
        <time>2021-11-24T13:21:56.000Z</time>
      </trkpt>
      <trkpt lat="43.51548" lon="6.37333">
        <ele>262</ele>
        <time>2021-11-24T13:21:57.000Z</time>
      </trkpt>
      <trkpt lat="43.51549" lon="6.37333">
        <ele>262</ele>
        <time>2021-11-24T13:21:58.000Z</time>
      </trkpt>
      <trkpt lat="43.51549" lon="6.37333">
        <ele>262</ele>
        <time>2021-11-24T13:21:59.000Z</time>
      </trkpt>
      <trkpt lat="43.5155" lon="6.37333">
        <ele>262</ele>
        <time>2021-11-24T13:22:00.000Z</time>
      </trkpt>
      <trkpt lat="43.51551" lon="6.37333">
        <ele>262</ele>
        <time>2021-11-24T13:22:01.000Z</time>
      </trkpt>
      <trkpt lat="43.51551" lon="6.37332">
        <ele>262</ele>
        <time>2021-11-24T13:22:02.000Z</time>
      </trkpt>
      <trkpt lat="43.51552" lon="6.37332">
        <ele>262</ele>
        <time>2021-11-24T13:22:03.000Z</time>
      </trkpt>
      <trkpt lat="43.51553" lon="6.37331">
        <ele>262</ele>
        <time>2021-11-24T13:22:04.000Z</time>
      </trkpt>
      <trkpt lat="43.51554" lon="6.37331">
        <ele>261</ele>
        <time>2021-11-24T13:22:05.000Z</time>
      </trkpt>
      <trkpt lat="43.51555" lon="6.3733">
        <ele>261</ele>
        <time>2021-11-24T13:22:06.000Z</time>
      </trkpt>
      <trkpt lat="43.51555" lon="6.3733">
        <ele>260</ele>
        <time>2021-11-24T13:22:07.000Z</time>
      </trkpt>
      <trkpt lat="43.51555" lon="6.37329">
        <ele>260</ele>
        <time>2021-11-24T13:22:08.000Z</time>
      </trkpt>
      <trkpt lat="43.51556" lon="6.37329">
        <ele>260</ele>
        <time>2021-11-24T13:22:09.000Z</time>
      </trkpt>
      <trkpt lat="43.51556" lon="6.37329">
        <ele>259</ele>
        <time>2021-11-24T13:22:10.000Z</time>
      </trkpt>
      <trkpt lat="43.51556" lon="6.37328">
        <ele>259</ele>
        <time>2021-11-24T13:22:11.000Z</time>
      </trkpt>
      <trkpt lat="43.51557" lon="6.37328">
        <ele>259</ele>
        <time>2021-11-24T13:22:12.000Z</time>
      </trkpt>
      <trkpt lat="43.51557" lon="6.37328">
        <ele>259</ele>
        <time>2021-11-24T13:22:13.000Z</time>
      </trkpt>
      <trkpt lat="43.51557" lon="6.37328">
        <ele>259</ele>
        <time>2021-11-24T13:22:14.000Z</time>
      </trkpt>
      <trkpt lat="43.51557" lon="6.37327">
        <ele>259</ele>
        <time>2021-11-24T13:22:15.000Z</time>
      </trkpt>
      <trkpt lat="43.51557" lon="6.37327">
        <ele>259</ele>
        <time>2021-11-24T13:22:16.000Z</time>
      </trkpt>
      <trkpt lat="43.51557" lon="6.37327">
        <ele>259</ele>
        <time>2021-11-24T13:22:17.000Z</time>
      </trkpt>
      <trkpt lat="43.51558" lon="6.37327">
        <ele>259</ele>
        <time>2021-11-24T13:22:18.000Z</time>
      </trkpt>
      <trkpt lat="43.51558" lon="6.37327">
        <ele>259</ele>
        <time>2021-11-24T13:22:19.000Z</time>
      </trkpt>
      <trkpt lat="43.51558" lon="6.37327">
        <ele>259</ele>
        <time>2021-11-24T13:22:20.000Z</time>
      </trkpt>
      <trkpt lat="43.51558" lon="6.37327">
        <ele>259</ele>
        <time>2021-11-24T13:22:21.000Z</time>
      </trkpt>
      <trkpt lat="43.51558" lon="6.37327">
        <ele>259</ele>
        <time>2021-11-24T13:22:22.000Z</time>
      </trkpt>
      <trkpt lat="43.51558" lon="6.37327">
        <ele>259</ele>
        <time>2021-11-24T13:22:23.000Z</time>
      </trkpt>
      <trkpt lat="43.51558" lon="6.37327">
        <ele>259</ele>
        <time>2021-11-24T13:22:24.000Z</time>
      </trkpt>
      <trkpt lat="43.51558" lon="6.37327">
        <ele>259</ele>
        <time>2021-11-24T13:22:25.000Z</time>
      </trkpt>
      <trkpt lat="43.51558" lon="6.37327">
        <ele>259</ele>
        <time>2021-11-24T13:22:26.000Z</time>
      </trkpt>
      <trkpt lat="43.51558" lon="6.37327">
        <ele>259</ele>
        <time>2021-11-24T13:22:27.000Z</time>
      </trkpt>
      <trkpt lat="43.51558" lon="6.37326">
        <ele>259</ele>
        <time>2021-11-24T13:22:28.000Z</time>
      </trkpt>
      <trkpt lat="43.51559" lon="6.37326">
        <ele>259</ele>
        <time>2021-11-24T13:22:29.000Z</time>
      </trkpt>
      <trkpt lat="43.5156" lon="6.37325">
        <ele>259</ele>
        <time>2021-11-24T13:22:30.000Z</time>
      </trkpt>
      <trkpt lat="43.5156" lon="6.37324">
        <ele>259</ele>
        <time>2021-11-24T13:22:31.000Z</time>
      </trkpt>
      <trkpt lat="43.51561" lon="6.37324">
        <ele>259</ele>
        <time>2021-11-24T13:22:32.000Z</time>
      </trkpt>
      <trkpt lat="43.51562" lon="6.37323">
        <ele>259</ele>
        <time>2021-11-24T13:22:33.000Z</time>
      </trkpt>
      <trkpt lat="43.51563" lon="6.37322">
        <ele>258</ele>
        <time>2021-11-24T13:22:34.000Z</time>
      </trkpt>
      <trkpt lat="43.51563" lon="6.37322">
        <ele>258</ele>
        <time>2021-11-24T13:22:35.000Z</time>
      </trkpt>
      <trkpt lat="43.51564" lon="6.37321">
        <ele>258</ele>
        <time>2021-11-24T13:22:36.000Z</time>
      </trkpt>
      <trkpt lat="43.51564" lon="6.37321">
        <ele>258</ele>
        <time>2021-11-24T13:22:37.000Z</time>
      </trkpt>
      <trkpt lat="43.51565" lon="6.3732">
        <ele>258</ele>
        <time>2021-11-24T13:22:38.000Z</time>
      </trkpt>
      <trkpt lat="43.51565" lon="6.3732">
        <ele>258</ele>
        <time>2021-11-24T13:22:39.000Z</time>
      </trkpt>
      <trkpt lat="43.51565" lon="6.3732">
        <ele>258</ele>
        <time>2021-11-24T13:22:40.000Z</time>
      </trkpt>
      <trkpt lat="43.51565" lon="6.3732">
        <ele>258</ele>
        <time>2021-11-24T13:22:41.000Z</time>
      </trkpt>
      <trkpt lat="43.51566" lon="6.3732">
        <ele>258</ele>
        <time>2021-11-24T13:22:42.000Z</time>
      </trkpt>
      <trkpt lat="43.51566" lon="6.3732">
        <ele>258</ele>
        <time>2021-11-24T13:22:43.000Z</time>
      </trkpt>
      <trkpt lat="43.51566" lon="6.37319">
        <ele>258</ele>
        <time>2021-11-24T13:22:44.000Z</time>
      </trkpt>
      <trkpt lat="43.51566" lon="6.37319">
        <ele>258</ele>
        <time>2021-11-24T13:22:45.000Z</time>
      </trkpt>
      <trkpt lat="43.51566" lon="6.37319">
        <ele>258</ele>
        <time>2021-11-24T13:22:46.000Z</time>
      </trkpt>
      <trkpt lat="43.51566" lon="6.37319">
        <ele>257</ele>
        <time>2021-11-24T13:22:47.000Z</time>
      </trkpt>
      <trkpt lat="43.51566" lon="6.37319">
        <ele>257</ele>
        <time>2021-11-24T13:22:48.000Z</time>
      </trkpt>
      <trkpt lat="43.51567" lon="6.37319">
        <ele>257</ele>
        <time>2021-11-24T13:22:49.000Z</time>
      </trkpt>
      <trkpt lat="43.51567" lon="6.37319">
        <ele>257</ele>
        <time>2021-11-24T13:22:50.000Z</time>
      </trkpt>
      <trkpt lat="43.51567" lon="6.37318">
        <ele>257</ele>
        <time>2021-11-24T13:22:51.000Z</time>
      </trkpt>
      <trkpt lat="43.51567" lon="6.37318">
        <ele>257</ele>
        <time>2021-11-24T13:22:52.000Z</time>
      </trkpt>
      <trkpt lat="43.51567" lon="6.37318">
        <ele>257</ele>
        <time>2021-11-24T13:22:53.000Z</time>
      </trkpt>
      <trkpt lat="43.51567" lon="6.37318">
        <ele>257</ele>
        <time>2021-11-24T13:22:54.000Z</time>
      </trkpt>
      <trkpt lat="43.51568" lon="6.37318">
        <ele>257</ele>
        <time>2021-11-24T13:22:55.000Z</time>
      </trkpt>
      <trkpt lat="43.51569" lon="6.37317">
        <ele>257</ele>
        <time>2021-11-24T13:22:56.000Z</time>
      </trkpt>
      <trkpt lat="43.51571" lon="6.37315">
        <ele>257</ele>
        <time>2021-11-24T13:22:57.000Z</time>
      </trkpt>
      <trkpt lat="43.51572" lon="6.37313">
        <ele>257</ele>
        <time>2021-11-24T13:22:58.000Z</time>
      </trkpt>
      <trkpt lat="43.51574" lon="6.37311">
        <ele>256</ele>
        <time>2021-11-24T13:22:59.000Z</time>
      </trkpt>
      <trkpt lat="43.51576" lon="6.3731">
        <ele>255</ele>
        <time>2021-11-24T13:23:00.000Z</time>
      </trkpt>
      <trkpt lat="43.51578" lon="6.37308">
        <ele>255</ele>
        <time>2021-11-24T13:23:01.000Z</time>
      </trkpt>
      <trkpt lat="43.51579" lon="6.37306">
        <ele>254</ele>
        <time>2021-11-24T13:23:02.000Z</time>
      </trkpt>
      <trkpt lat="43.51581" lon="6.37305">
        <ele>254</ele>
        <time>2021-11-24T13:23:03.000Z</time>
      </trkpt>
      <trkpt lat="43.51582" lon="6.37304">
        <ele>253</ele>
        <time>2021-11-24T13:23:04.000Z</time>
      </trkpt>
      <trkpt lat="43.51582" lon="6.37303">
        <ele>251</ele>
        <time>2021-11-24T13:23:05.000Z</time>
      </trkpt>
      <trkpt lat="43.51583" lon="6.37303">
        <ele>251</ele>
        <time>2021-11-24T13:23:06.000Z</time>
      </trkpt>
      <trkpt lat="43.51583" lon="6.37303">
        <ele>251</ele>
        <time>2021-11-24T13:23:07.000Z</time>
      </trkpt>
      <trkpt lat="43.51583" lon="6.37302">
        <ele>250</ele>
        <time>2021-11-24T13:23:08.000Z</time>
      </trkpt>
      <trkpt lat="43.51584" lon="6.37302">
        <ele>250</ele>
        <time>2021-11-24T13:23:09.000Z</time>
      </trkpt>
      <trkpt lat="43.51584" lon="6.37301">
        <ele>250</ele>
        <time>2021-11-24T13:23:10.000Z</time>
      </trkpt>
      <trkpt lat="43.51585" lon="6.37301">
        <ele>250</ele>
        <time>2021-11-24T13:23:11.000Z</time>
      </trkpt>
      <trkpt lat="43.51585" lon="6.373">
        <ele>250</ele>
        <time>2021-11-24T13:23:12.000Z</time>
      </trkpt>
      <trkpt lat="43.51586" lon="6.37299">
        <ele>250</ele>
        <time>2021-11-24T13:23:13.000Z</time>
      </trkpt>
      <trkpt lat="43.51587" lon="6.37298">
        <ele>250</ele>
        <time>2021-11-24T13:23:14.000Z</time>
      </trkpt>
      <trkpt lat="43.51588" lon="6.37297">
        <ele>250</ele>
        <time>2021-11-24T13:23:15.000Z</time>
      </trkpt>
      <trkpt lat="43.51589" lon="6.37296">
        <ele>250</ele>
        <time>2021-11-24T13:23:16.000Z</time>
      </trkpt>
      <trkpt lat="43.51589" lon="6.37295">
        <ele>250</ele>
        <time>2021-11-24T13:23:17.000Z</time>
      </trkpt>
      <trkpt lat="43.5159" lon="6.37295">
        <ele>249</ele>
        <time>2021-11-24T13:23:18.000Z</time>
      </trkpt>
      <trkpt lat="43.5159" lon="6.37294">
        <ele>249</ele>
        <time>2021-11-24T13:23:19.000Z</time>
      </trkpt>
      <trkpt lat="43.5159" lon="6.37294">
        <ele>249</ele>
        <time>2021-11-24T13:23:20.000Z</time>
      </trkpt>
      <trkpt lat="43.5159" lon="6.37294">
        <ele>249</ele>
        <time>2021-11-24T13:23:21.000Z</time>
      </trkpt>
      <trkpt lat="43.51591" lon="6.37293">
        <ele>249</ele>
        <time>2021-11-24T13:23:22.000Z</time>
      </trkpt>
      <trkpt lat="43.51591" lon="6.37293">
        <ele>249</ele>
        <time>2021-11-24T13:23:23.000Z</time>
      </trkpt>
      <trkpt lat="43.51591" lon="6.37293">
        <ele>249</ele>
        <time>2021-11-24T13:23:24.000Z</time>
      </trkpt>
      <trkpt lat="43.51591" lon="6.37292">
        <ele>249</ele>
        <time>2021-11-24T13:23:25.000Z</time>
      </trkpt>
      <trkpt lat="43.51592" lon="6.37291">
        <ele>249</ele>
        <time>2021-11-24T13:23:26.000Z</time>
      </trkpt>
      <trkpt lat="43.51592" lon="6.37289">
        <ele>249</ele>
        <time>2021-11-24T13:23:27.000Z</time>
      </trkpt>
      <trkpt lat="43.51593" lon="6.37287">
        <ele>249</ele>
        <time>2021-11-24T13:23:28.000Z</time>
      </trkpt>
      <trkpt lat="43.51594" lon="6.37285">
        <ele>249</ele>
        <time>2021-11-24T13:23:29.000Z</time>
      </trkpt>
      <trkpt lat="43.51594" lon="6.37283">
        <ele>249</ele>
        <time>2021-11-24T13:23:30.000Z</time>
      </trkpt>
      <trkpt lat="43.51595" lon="6.3728">
        <ele>248</ele>
        <time>2021-11-24T13:23:31.000Z</time>
      </trkpt>
      <trkpt lat="43.51596" lon="6.37278">
        <ele>247</ele>
        <time>2021-11-24T13:23:32.000Z</time>
      </trkpt>
      <trkpt lat="43.51596" lon="6.37276">
        <ele>247</ele>
        <time>2021-11-24T13:23:33.000Z</time>
      </trkpt>
      <trkpt lat="43.51596" lon="6.37275">
        <ele>247</ele>
        <time>2021-11-24T13:23:34.000Z</time>
      </trkpt>
      <trkpt lat="43.51597" lon="6.37273">
        <ele>247</ele>
        <time>2021-11-24T13:23:35.000Z</time>
      </trkpt>
      <trkpt lat="43.51597" lon="6.37272">
        <ele>246</ele>
        <time>2021-11-24T13:23:36.000Z</time>
      </trkpt>
      <trkpt lat="43.51598" lon="6.37272">
        <ele>246</ele>
        <time>2021-11-24T13:23:37.000Z</time>
      </trkpt>
      <trkpt lat="43.51598" lon="6.3727">
        <ele>245</ele>
        <time>2021-11-24T13:23:38.000Z</time>
      </trkpt>
      <trkpt lat="43.51598" lon="6.37269">
        <ele>245</ele>
        <time>2021-11-24T13:23:39.000Z</time>
      </trkpt>
      <trkpt lat="43.51598" lon="6.37269">
        <ele>244</ele>
        <time>2021-11-24T13:23:40.000Z</time>
      </trkpt>
      <trkpt lat="43.51599" lon="6.37268">
        <ele>243</ele>
        <time>2021-11-24T13:23:41.000Z</time>
      </trkpt>
      <trkpt lat="43.51599" lon="6.37268">
        <ele>243</ele>
        <time>2021-11-24T13:23:42.000Z</time>
      </trkpt>
      <trkpt lat="43.51599" lon="6.37267">
        <ele>243</ele>
        <time>2021-11-24T13:23:43.000Z</time>
      </trkpt>
      <trkpt lat="43.51599" lon="6.37267">
        <ele>243</ele>
        <time>2021-11-24T13:23:44.000Z</time>
      </trkpt>
      <trkpt lat="43.51599" lon="6.37266">
        <ele>243</ele>
        <time>2021-11-24T13:23:45.000Z</time>
      </trkpt>
      <trkpt lat="43.51599" lon="6.37266">
        <ele>243</ele>
        <time>2021-11-24T13:23:46.000Z</time>
      </trkpt>
      <trkpt lat="43.516" lon="6.37265">
        <ele>243</ele>
        <time>2021-11-24T13:23:47.000Z</time>
      </trkpt>
      <trkpt lat="43.516" lon="6.37265">
        <ele>243</ele>
        <time>2021-11-24T13:23:48.000Z</time>
      </trkpt>
      <trkpt lat="43.516" lon="6.37265">
        <ele>243</ele>
        <time>2021-11-24T13:23:49.000Z</time>
      </trkpt>
      <trkpt lat="43.516" lon="6.37264">
        <ele>243</ele>
        <time>2021-11-24T13:23:50.000Z</time>
      </trkpt>
      <trkpt lat="43.516" lon="6.37264">
        <ele>243</ele>
        <time>2021-11-24T13:23:51.000Z</time>
      </trkpt>
      <trkpt lat="43.516" lon="6.37264">
        <ele>243</ele>
        <time>2021-11-24T13:23:52.000Z</time>
      </trkpt>
      <trkpt lat="43.516" lon="6.37264">
        <ele>242</ele>
        <time>2021-11-24T13:23:53.000Z</time>
      </trkpt>
      <trkpt lat="43.516" lon="6.37263">
        <ele>242</ele>
        <time>2021-11-24T13:23:54.000Z</time>
      </trkpt>
      <trkpt lat="43.516" lon="6.37263">
        <ele>242</ele>
        <time>2021-11-24T13:23:55.000Z</time>
      </trkpt>
      <trkpt lat="43.516" lon="6.37263">
        <ele>242</ele>
        <time>2021-11-24T13:23:56.000Z</time>
      </trkpt>
      <trkpt lat="43.516" lon="6.37263">
        <ele>242</ele>
        <time>2021-11-24T13:23:57.000Z</time>
      </trkpt>
      <trkpt lat="43.516" lon="6.37263">
        <ele>242</ele>
        <time>2021-11-24T13:23:58.000Z</time>
      </trkpt>
      <trkpt lat="43.516" lon="6.37263">
        <ele>242</ele>
        <time>2021-11-24T13:23:59.000Z</time>
      </trkpt>
      <trkpt lat="43.516" lon="6.37263">
        <ele>242</ele>
        <time>2021-11-24T13:24:00.000Z</time>
      </trkpt>
      <trkpt lat="43.516" lon="6.37263">
        <ele>242</ele>
        <time>2021-11-24T13:24:01.000Z</time>
      </trkpt>
      <trkpt lat="43.516" lon="6.37263">
        <ele>242</ele>
        <time>2021-11-24T13:24:02.000Z</time>
      </trkpt>
      <trkpt lat="43.516" lon="6.37262">
        <ele>242</ele>
        <time>2021-11-24T13:24:03.000Z</time>
      </trkpt>
      <trkpt lat="43.516" lon="6.37262">
        <ele>242</ele>
        <time>2021-11-24T13:24:04.000Z</time>
      </trkpt>
      <trkpt lat="43.516" lon="6.37262">
        <ele>242</ele>
        <time>2021-11-24T13:24:05.000Z</time>
      </trkpt>
      <trkpt lat="43.516" lon="6.37262">
        <ele>242</ele>
        <time>2021-11-24T13:24:06.000Z</time>
      </trkpt>
      <trkpt lat="43.516" lon="6.37262">
        <ele>242</ele>
        <time>2021-11-24T13:24:07.000Z</time>
      </trkpt>
      <trkpt lat="43.516" lon="6.37262">
        <ele>242</ele>
        <time>2021-11-24T13:24:08.000Z</time>
      </trkpt>
      <trkpt lat="43.516" lon="6.37262">
        <ele>242</ele>
        <time>2021-11-24T13:24:09.000Z</time>
      </trkpt>
      <trkpt lat="43.516" lon="6.37262">
        <ele>242</ele>
        <time>2021-11-24T13:24:10.000Z</time>
      </trkpt>
      <trkpt lat="43.516" lon="6.37262">
        <ele>242</ele>
        <time>2021-11-24T13:24:11.000Z</time>
      </trkpt>
      <trkpt lat="43.51601" lon="6.37262">
        <ele>242</ele>
        <time>2021-11-24T13:24:12.000Z</time>
      </trkpt>
      <trkpt lat="43.51601" lon="6.37261">
        <ele>242</ele>
        <time>2021-11-24T13:24:13.000Z</time>
      </trkpt>
      <trkpt lat="43.51602" lon="6.3726">
        <ele>242</ele>
        <time>2021-11-24T13:24:14.000Z</time>
      </trkpt>
      <trkpt lat="43.51602" lon="6.37259">
        <ele>242</ele>
        <time>2021-11-24T13:24:15.000Z</time>
      </trkpt>
      <trkpt lat="43.51603" lon="6.37258">
        <ele>242</ele>
        <time>2021-11-24T13:24:16.000Z</time>
      </trkpt>
      <trkpt lat="43.51603" lon="6.37257">
        <ele>240</ele>
        <time>2021-11-24T13:24:17.000Z</time>
      </trkpt>
      <trkpt lat="43.51604" lon="6.37256">
        <ele>239</ele>
        <time>2021-11-24T13:24:18.000Z</time>
      </trkpt>
      <trkpt lat="43.51604" lon="6.37255">
        <ele>238</ele>
        <time>2021-11-24T13:24:18.000Z</time>
      </trkpt>
      <trkpt lat="43.51605" lon="6.37254">
        <ele>238</ele>
        <time>2021-11-24T13:24:19.000Z</time>
      </trkpt>
      <trkpt lat="43.51605" lon="6.37253">
        <ele>238</ele>
        <time>2021-11-24T13:24:20.000Z</time>
      </trkpt>
      <trkpt lat="43.51606" lon="6.37252">
        <ele>238</ele>
        <time>2021-11-24T13:24:21.000Z</time>
      </trkpt>
      <trkpt lat="43.51606" lon="6.37252">
        <ele>238</ele>
        <time>2021-11-24T13:24:22.000Z</time>
      </trkpt>
      <trkpt lat="43.51606" lon="6.37251">
        <ele>238</ele>
        <time>2021-11-24T13:24:23.000Z</time>
      </trkpt>
      <trkpt lat="43.51606" lon="6.3725">
        <ele>238</ele>
        <time>2021-11-24T13:24:24.000Z</time>
      </trkpt>
      <trkpt lat="43.51606" lon="6.3725">
        <ele>238</ele>
        <time>2021-11-24T13:24:25.000Z</time>
      </trkpt>
      <trkpt lat="43.51606" lon="6.3725">
        <ele>238</ele>
        <time>2021-11-24T13:24:26.000Z</time>
      </trkpt>
      <trkpt lat="43.51606" lon="6.3725">
        <ele>238</ele>
        <time>2021-11-24T13:24:27.000Z</time>
      </trkpt>
      <trkpt lat="43.51606" lon="6.3725">
        <ele>238</ele>
        <time>2021-11-24T13:24:28.000Z</time>
      </trkpt>
      <trkpt lat="43.51606" lon="6.3725">
        <ele>238</ele>
        <time>2021-11-24T13:24:29.000Z</time>
      </trkpt>
      <trkpt lat="43.51606" lon="6.3725">
        <ele>238</ele>
        <time>2021-11-24T13:24:30.000Z</time>
      </trkpt>
      <trkpt lat="43.51606" lon="6.3725">
        <ele>238</ele>
        <time>2021-11-24T13:24:31.000Z</time>
      </trkpt>
      <trkpt lat="43.51607" lon="6.37248">
        <ele>238</ele>
        <time>2021-11-24T13:24:32.000Z</time>
      </trkpt>
      <trkpt lat="43.51607" lon="6.37248">
        <ele>238</ele>
        <time>2021-11-24T13:24:33.000Z</time>
      </trkpt>
      <trkpt lat="43.51607" lon="6.37248">
        <ele>238</ele>
        <time>2021-11-24T13:24:34.000Z</time>
      </trkpt>
      <trkpt lat="43.51607" lon="6.37248">
        <ele>238</ele>
        <time>2021-11-24T13:24:35.000Z</time>
      </trkpt>
      <trkpt lat="43.51607" lon="6.37248">
        <ele>238</ele>
        <time>2021-11-24T13:24:36.000Z</time>
      </trkpt>
      <trkpt lat="43.51607" lon="6.37248">
        <ele>238</ele>
        <time>2021-11-24T13:24:37.000Z</time>
      </trkpt>
      <trkpt lat="43.51607" lon="6.37248">
        <ele>238</ele>
        <time>2021-11-24T13:24:38.000Z</time>
      </trkpt>
      <trkpt lat="43.51607" lon="6.37248">
        <ele>238</ele>
        <time>2021-11-24T13:24:39.000Z</time>
      </trkpt>
      <trkpt lat="43.51607" lon="6.37248">
        <ele>238</ele>
        <time>2021-11-24T13:24:40.000Z</time>
      </trkpt>
      <trkpt lat="43.51607" lon="6.37248">
        <ele>238</ele>
        <time>2021-11-24T13:24:41.000Z</time>
      </trkpt>
      <trkpt lat="43.51607" lon="6.37248">
        <ele>238</ele>
        <time>2021-11-24T13:24:42.000Z</time>
      </trkpt>
      <trkpt lat="43.51607" lon="6.37248">
        <ele>238</ele>
        <time>2021-11-24T13:24:43.000Z</time>
      </trkpt>
      <trkpt lat="43.51607" lon="6.37248">
        <ele>238</ele>
        <time>2021-11-24T13:24:44.000Z</time>
      </trkpt>
      <trkpt lat="43.51607" lon="6.37247">
        <ele>238</ele>
        <time>2021-11-24T13:24:45.000Z</time>
      </trkpt>
      <trkpt lat="43.51607" lon="6.37247">
        <ele>238</ele>
        <time>2021-11-24T13:24:46.000Z</time>
      </trkpt>
      <trkpt lat="43.51607" lon="6.37247">
        <ele>238</ele>
        <time>2021-11-24T13:24:47.000Z</time>
      </trkpt>
      <trkpt lat="43.51607" lon="6.37247">
        <ele>238</ele>
        <time>2021-11-24T13:24:48.000Z</time>
      </trkpt>
      <trkpt lat="43.51607" lon="6.37247">
        <ele>238</ele>
        <time>2021-11-24T13:24:49.000Z</time>
      </trkpt>
      <trkpt lat="43.51607" lon="6.37247">
        <ele>238</ele>
        <time>2021-11-24T13:24:50.000Z</time>
      </trkpt>
      <trkpt lat="43.51607" lon="6.37247">
        <ele>238</ele>
        <time>2021-11-24T13:24:51.000Z</time>
      </trkpt>
      <trkpt lat="43.51607" lon="6.37247">
        <ele>238</ele>
        <time>2021-11-24T13:24:52.000Z</time>
      </trkpt>
      <trkpt lat="43.51607" lon="6.37247">
        <ele>238</ele>
        <time>2021-11-24T13:24:53.000Z</time>
      </trkpt>
      <trkpt lat="43.51607" lon="6.37247">
        <ele>238</ele>
        <time>2021-11-24T13:24:54.000Z</time>
      </trkpt>
      <trkpt lat="43.51607" lon="6.37247">
        <ele>238</ele>
        <time>2021-11-24T13:24:55.000Z</time>
      </trkpt>
      <trkpt lat="43.51607" lon="6.37247">
        <ele>238</ele>
        <time>2021-11-24T13:24:56.000Z</time>
      </trkpt>
      <trkpt lat="43.51607" lon="6.37247">
        <ele>238</ele>
        <time>2021-11-24T13:24:57.000Z</time>
      </trkpt>
      <trkpt lat="43.51607" lon="6.37247">
        <ele>238</ele>
        <time>2021-11-24T13:24:58.000Z</time>
      </trkpt>
      <trkpt lat="43.51607" lon="6.37247">
        <ele>238</ele>
        <time>2021-11-24T13:24:59.000Z</time>
      </trkpt>
      <trkpt lat="43.51607" lon="6.37247">
        <ele>238</ele>
        <time>2021-11-24T13:25:00.000Z</time>
      </trkpt>
      <trkpt lat="43.51607" lon="6.37247">
        <ele>238</ele>
        <time>2021-11-24T13:25:01.000Z</time>
      </trkpt>
      <trkpt lat="43.51607" lon="6.37247">
        <ele>238</ele>
        <time>2021-11-24T13:25:02.000Z</time>
      </trkpt>
      <trkpt lat="43.51607" lon="6.37247">
        <ele>238</ele>
        <time>2021-11-24T13:25:03.000Z</time>
      </trkpt>
      <trkpt lat="43.51607" lon="6.37247">
        <ele>238</ele>
        <time>2021-11-24T13:25:04.000Z</time>
      </trkpt>
      <trkpt lat="43.51607" lon="6.37247">
        <ele>238</ele>
        <time>2021-11-24T13:25:05.000Z</time>
      </trkpt>
      <trkpt lat="43.51607" lon="6.37247">
        <ele>238</ele>
        <time>2021-11-24T13:25:06.000Z</time>
      </trkpt>
      <trkpt lat="43.51607" lon="6.37247">
        <ele>238</ele>
        <time>2021-11-24T13:25:07.000Z</time>
      </trkpt>
      <trkpt lat="43.51607" lon="6.37247">
        <ele>238</ele>
        <time>2021-11-24T13:25:08.000Z</time>
      </trkpt>
      <trkpt lat="43.51607" lon="6.37247">
        <ele>238</ele>
        <time>2021-11-24T13:25:09.000Z</time>
      </trkpt>
      <trkpt lat="43.51608" lon="6.37246">
        <ele>238</ele>
        <time>2021-11-24T13:25:10.000Z</time>
      </trkpt>
      <trkpt lat="43.51608" lon="6.37244">
        <ele>238</ele>
        <time>2021-11-24T13:25:11.000Z</time>
      </trkpt>
      <trkpt lat="43.51609" lon="6.37243">
        <ele>237</ele>
        <time>2021-11-24T13:25:12.000Z</time>
      </trkpt>
      <trkpt lat="43.5161" lon="6.37241">
        <ele>237</ele>
        <time>2021-11-24T13:25:13.000Z</time>
      </trkpt>
      <trkpt lat="43.5161" lon="6.37241">
        <ele>237</ele>
        <time>2021-11-24T13:25:14.000Z</time>
      </trkpt>
      <trkpt lat="43.5161" lon="6.3724">
        <ele>237</ele>
        <time>2021-11-24T13:25:15.000Z</time>
      </trkpt>
      <trkpt lat="43.5161" lon="6.37239">
        <ele>237</ele>
        <time>2021-11-24T13:25:16.000Z</time>
      </trkpt>
      <trkpt lat="43.5161" lon="6.37239">
        <ele>237</ele>
        <time>2021-11-24T13:25:17.000Z</time>
      </trkpt>
      <trkpt lat="43.5161" lon="6.37238">
        <ele>237</ele>
        <time>2021-11-24T13:25:18.000Z</time>
      </trkpt>
      <trkpt lat="43.5161" lon="6.37238">
        <ele>237</ele>
        <time>2021-11-24T13:25:19.000Z</time>
      </trkpt>
      <trkpt lat="43.5161" lon="6.37237">
        <ele>237</ele>
        <time>2021-11-24T13:25:20.000Z</time>
      </trkpt>
      <trkpt lat="43.5161" lon="6.37237">
        <ele>237</ele>
        <time>2021-11-24T13:25:21.000Z</time>
      </trkpt>
      <trkpt lat="43.5161" lon="6.37237">
        <ele>237</ele>
        <time>2021-11-24T13:25:22.000Z</time>
      </trkpt>
      <trkpt lat="43.5161" lon="6.37237">
        <ele>237</ele>
        <time>2021-11-24T13:25:23.000Z</time>
      </trkpt>
      <trkpt lat="43.5161" lon="6.37237">
        <ele>237</ele>
        <time>2021-11-24T13:25:24.000Z</time>
      </trkpt>
      <trkpt lat="43.5161" lon="6.37237">
        <ele>237</ele>
        <time>2021-11-24T13:25:25.000Z</time>
      </trkpt>
      <trkpt lat="43.5161" lon="6.37237">
        <ele>237</ele>
        <time>2021-11-24T13:25:26.000Z</time>
      </trkpt>
      <trkpt lat="43.5161" lon="6.37237">
        <ele>237</ele>
        <time>2021-11-24T13:25:27.000Z</time>
      </trkpt>
      <trkpt lat="43.5161" lon="6.37237">
        <ele>237</ele>
        <time>2021-11-24T13:25:28.000Z</time>
      </trkpt>
      <trkpt lat="43.5161" lon="6.37237">
        <ele>237</ele>
        <time>2021-11-24T13:25:29.000Z</time>
      </trkpt>
      <trkpt lat="43.5161" lon="6.37237">
        <ele>237</ele>
        <time>2021-11-24T13:25:30.000Z</time>
      </trkpt>
      <trkpt lat="43.5161" lon="6.37237">
        <ele>237</ele>
        <time>2021-11-24T13:25:31.000Z</time>
      </trkpt>
      <trkpt lat="43.5161" lon="6.37237">
        <ele>237</ele>
        <time>2021-11-24T13:25:32.000Z</time>
      </trkpt>
      <trkpt lat="43.5161" lon="6.37237">
        <ele>237</ele>
        <time>2021-11-24T13:25:33.000Z</time>
      </trkpt>
      <trkpt lat="43.5161" lon="6.37237">
        <ele>237</ele>
        <time>2021-11-24T13:25:34.000Z</time>
      </trkpt>
      <trkpt lat="43.5161" lon="6.37237">
        <ele>237</ele>
        <time>2021-11-24T13:25:35.000Z</time>
      </trkpt>
      <trkpt lat="43.5161" lon="6.37237">
        <ele>237</ele>
        <time>2021-11-24T13:25:36.000Z</time>
      </trkpt>
      <trkpt lat="43.5161" lon="6.37237">
        <ele>237</ele>
        <time>2021-11-24T13:25:37.000Z</time>
      </trkpt>
      <trkpt lat="43.5161" lon="6.37237">
        <ele>237</ele>
        <time>2021-11-24T13:25:38.000Z</time>
      </trkpt>
      <trkpt lat="43.5161" lon="6.37237">
        <ele>237</ele>
        <time>2021-11-24T13:25:39.000Z</time>
      </trkpt>
      <trkpt lat="43.5161" lon="6.37237">
        <ele>237</ele>
        <time>2021-11-24T13:25:40.000Z</time>
      </trkpt>
      <trkpt lat="43.5161" lon="6.37237">
        <ele>237</ele>
        <time>2021-11-24T13:25:41.000Z</time>
      </trkpt>
      <trkpt lat="43.5161" lon="6.37237">
        <ele>237</ele>
        <time>2021-11-24T13:25:42.000Z</time>
      </trkpt>
      <trkpt lat="43.5161" lon="6.37237">
        <ele>237</ele>
        <time>2021-11-24T13:25:43.000Z</time>
      </trkpt>
      <trkpt lat="43.5161" lon="6.37237">
        <ele>237</ele>
        <time>2021-11-24T13:25:44.000Z</time>
      </trkpt>
      <trkpt lat="43.5161" lon="6.37237">
        <ele>237</ele>
        <time>2021-11-24T13:25:45.000Z</time>
      </trkpt>
      <trkpt lat="43.5161" lon="6.37237">
        <ele>237</ele>
        <time>2021-11-24T13:25:46.000Z</time>
      </trkpt>
      <trkpt lat="43.5161" lon="6.37237">
        <ele>237</ele>
        <time>2021-11-24T13:25:47.000Z</time>
      </trkpt>
      <trkpt lat="43.5161" lon="6.37237">
        <ele>237</ele>
        <time>2021-11-24T13:25:48.000Z</time>
      </trkpt>
      <trkpt lat="43.5161" lon="6.37235">
        <ele>237</ele>
        <time>2021-11-24T13:25:49.000Z</time>
      </trkpt>
      <trkpt lat="43.5161" lon="6.37235">
        <ele>237</ele>
        <time>2021-11-24T13:25:50.000Z</time>
      </trkpt>
      <trkpt lat="43.5161" lon="6.37235">
        <ele>237</ele>
        <time>2021-11-24T13:25:51.000Z</time>
      </trkpt>
      <trkpt lat="43.5161" lon="6.37235">
        <ele>237</ele>
        <time>2021-11-24T13:25:52.000Z</time>
      </trkpt>
      <trkpt lat="43.5161" lon="6.37235">
        <ele>237</ele>
        <time>2021-11-24T13:25:53.000Z</time>
      </trkpt>
      <trkpt lat="43.5161" lon="6.37235">
        <ele>237</ele>
        <time>2021-11-24T13:25:54.000Z</time>
      </trkpt>
      <trkpt lat="43.5161" lon="6.37235">
        <ele>237</ele>
        <time>2021-11-24T13:25:55.000Z</time>
      </trkpt>
      <trkpt lat="43.5161" lon="6.37235">
        <ele>237</ele>
        <time>2021-11-24T13:25:56.000Z</time>
      </trkpt>
      <trkpt lat="43.5161" lon="6.37235">
        <ele>237</ele>
        <time>2021-11-24T13:25:57.000Z</time>
      </trkpt>
      <trkpt lat="43.5161" lon="6.37235">
        <ele>237</ele>
        <time>2021-11-24T13:25:58.000Z</time>
      </trkpt>
      <trkpt lat="43.5161" lon="6.37235">
        <ele>237</ele>
        <time>2021-11-24T13:25:59.000Z</time>
      </trkpt>
      <trkpt lat="43.51611" lon="6.37235">
        <ele>237</ele>
        <time>2021-11-24T13:26:00.000Z</time>
      </trkpt>
      <trkpt lat="43.51611" lon="6.37236">
        <ele>237</ele>
        <time>2021-11-24T13:26:01.000Z</time>
      </trkpt>
      <trkpt lat="43.51611" lon="6.37236">
        <ele>237</ele>
        <time>2021-11-24T13:26:02.000Z</time>
      </trkpt>
      <trkpt lat="43.51611" lon="6.37236">
        <ele>237</ele>
        <time>2021-11-24T13:26:03.000Z</time>
      </trkpt>
      <trkpt lat="43.51612" lon="6.37236">
        <ele>237</ele>
        <time>2021-11-24T13:26:04.000Z</time>
      </trkpt>
      <trkpt lat="43.51612" lon="6.37236">
        <ele>237</ele>
        <time>2021-11-24T13:26:05.000Z</time>
      </trkpt>
      <trkpt lat="43.51612" lon="6.37236">
        <ele>237</ele>
        <time>2021-11-24T13:26:06.000Z</time>
      </trkpt>
      <trkpt lat="43.51612" lon="6.37236">
        <ele>236</ele>
        <time>2021-11-24T13:26:07.000Z</time>
      </trkpt>
      <trkpt lat="43.51612" lon="6.37236">
        <ele>236</ele>
        <time>2021-11-24T13:26:08.000Z</time>
      </trkpt>
      <trkpt lat="43.51612" lon="6.37236">
        <ele>236</ele>
        <time>2021-11-24T13:26:09.000Z</time>
      </trkpt>
      <trkpt lat="43.51612" lon="6.37236">
        <ele>236</ele>
        <time>2021-11-24T13:26:10.000Z</time>
      </trkpt>
      <trkpt lat="43.51612" lon="6.37236">
        <ele>236</ele>
        <time>2021-11-24T13:26:11.000Z</time>
      </trkpt>
      <trkpt lat="43.51612" lon="6.37236">
        <ele>236</ele>
        <time>2021-11-24T13:26:12.000Z</time>
      </trkpt>
      <trkpt lat="43.51612" lon="6.37236">
        <ele>236</ele>
        <time>2021-11-24T13:26:13.000Z</time>
      </trkpt>
      <trkpt lat="43.51612" lon="6.37236">
        <ele>236</ele>
        <time>2021-11-24T13:26:14.000Z</time>
      </trkpt>
      <trkpt lat="43.51612" lon="6.37236">
        <ele>236</ele>
        <time>2021-11-24T13:26:15.000Z</time>
      </trkpt>
      <trkpt lat="43.51612" lon="6.37236">
        <ele>236</ele>
        <time>2021-11-24T13:26:16.000Z</time>
      </trkpt>
      <trkpt lat="43.51612" lon="6.37236">
        <ele>236</ele>
        <time>2021-11-24T13:26:17.000Z</time>
      </trkpt>
      <trkpt lat="43.51612" lon="6.37236">
        <ele>236</ele>
        <time>2021-11-24T13:26:18.000Z</time>
      </trkpt>
      <trkpt lat="43.51612" lon="6.37236">
        <ele>236</ele>
        <time>2021-11-24T13:26:19.000Z</time>
      </trkpt>
      <trkpt lat="43.51612" lon="6.37236">
        <ele>236</ele>
        <time>2021-11-24T13:26:20.000Z</time>
      </trkpt>
      <trkpt lat="43.51612" lon="6.37236">
        <ele>236</ele>
        <time>2021-11-24T13:26:21.000Z</time>
      </trkpt>
      <trkpt lat="43.51612" lon="6.37236">
        <ele>236</ele>
        <time>2021-11-24T13:26:22.000Z</time>
      </trkpt>
      <trkpt lat="43.51612" lon="6.37236">
        <ele>236</ele>
        <time>2021-11-24T13:26:23.000Z</time>
      </trkpt>
      <trkpt lat="43.51612" lon="6.37236">
        <ele>236</ele>
        <time>2021-11-24T13:26:24.000Z</time>
      </trkpt>
      <trkpt lat="43.51612" lon="6.37236">
        <ele>236</ele>
        <time>2021-11-24T13:26:25.000Z</time>
      </trkpt>
      <trkpt lat="43.51612" lon="6.37236">
        <ele>236</ele>
        <time>2021-11-24T13:26:26.000Z</time>
      </trkpt>
      <trkpt lat="43.51612" lon="6.37236">
        <ele>236</ele>
        <time>2021-11-24T13:26:27.000Z</time>
      </trkpt>
      <trkpt lat="43.51612" lon="6.37236">
        <ele>236</ele>
        <time>2021-11-24T13:26:28.000Z</time>
      </trkpt>
      <trkpt lat="43.51612" lon="6.37236">
        <ele>236</ele>
        <time>2021-11-24T13:26:29.000Z</time>
      </trkpt>
      <trkpt lat="43.51612" lon="6.37236">
        <ele>236</ele>
        <time>2021-11-24T13:26:30.000Z</time>
      </trkpt>
      <trkpt lat="43.51612" lon="6.37236">
        <ele>236</ele>
        <time>2021-11-24T13:26:31.000Z</time>
      </trkpt>
      <trkpt lat="43.51612" lon="6.37236">
        <ele>236</ele>
        <time>2021-11-24T13:26:32.000Z</time>
      </trkpt>
      <trkpt lat="43.51612" lon="6.37236">
        <ele>236</ele>
        <time>2021-11-24T13:26:33.000Z</time>
      </trkpt>
      <trkpt lat="43.51612" lon="6.37236">
        <ele>236</ele>
        <time>2021-11-24T13:26:34.000Z</time>
      </trkpt>
      <trkpt lat="43.51612" lon="6.37236">
        <ele>236</ele>
        <time>2021-11-24T13:26:35.000Z</time>
      </trkpt>
      <trkpt lat="43.51612" lon="6.37236">
        <ele>236</ele>
        <time>2021-11-24T13:26:36.000Z</time>
      </trkpt>
      <trkpt lat="43.51612" lon="6.37236">
        <ele>236</ele>
        <time>2021-11-24T13:26:37.000Z</time>
      </trkpt>
      <trkpt lat="43.51612" lon="6.37236">
        <ele>236</ele>
        <time>2021-11-24T13:26:38.000Z</time>
      </trkpt>
      <trkpt lat="43.51612" lon="6.37236">
        <ele>236</ele>
        <time>2021-11-24T13:26:39.000Z</time>
      </trkpt>
      <trkpt lat="43.51612" lon="6.37236">
        <ele>236</ele>
        <time>2021-11-24T13:26:40.000Z</time>
      </trkpt>
      <trkpt lat="43.51612" lon="6.37236">
        <ele>236</ele>
        <time>2021-11-24T13:26:41.000Z</time>
      </trkpt>
      <trkpt lat="43.51612" lon="6.37236">
        <ele>236</ele>
        <time>2021-11-24T13:26:42.000Z</time>
      </trkpt>
      <trkpt lat="43.51612" lon="6.37236">
        <ele>236</ele>
        <time>2021-11-24T13:26:43.000Z</time>
      </trkpt>
      <trkpt lat="43.51612" lon="6.37236">
        <ele>236</ele>
        <time>2021-11-24T13:26:44.000Z</time>
      </trkpt>
      <trkpt lat="43.51612" lon="6.37236">
        <ele>236</ele>
        <time>2021-11-24T13:26:45.000Z</time>
      </trkpt>
      <trkpt lat="43.51612" lon="6.37236">
        <ele>236</ele>
        <time>2021-11-24T13:26:46.000Z</time>
      </trkpt>
      <trkpt lat="43.51612" lon="6.37236">
        <ele>236</ele>
        <time>2021-11-24T13:26:47.000Z</time>
      </trkpt>
      <trkpt lat="43.51612" lon="6.37236">
        <ele>236</ele>
        <time>2021-11-24T13:26:48.000Z</time>
      </trkpt>
      <trkpt lat="43.51612" lon="6.37236">
        <ele>236</ele>
        <time>2021-11-24T13:26:49.000Z</time>
      </trkpt>
      <trkpt lat="43.51612" lon="6.37236">
        <ele>236</ele>
        <time>2021-11-24T13:26:50.000Z</time>
      </trkpt>
      <trkpt lat="43.51612" lon="6.37236">
        <ele>236</ele>
        <time>2021-11-24T13:26:51.000Z</time>
      </trkpt>
      <trkpt lat="43.51612" lon="6.37236">
        <ele>236</ele>
        <time>2021-11-24T13:26:52.000Z</time>
      </trkpt>
      <trkpt lat="43.51612" lon="6.37236">
        <ele>236</ele>
        <time>2021-11-24T13:26:53.000Z</time>
      </trkpt>
      <trkpt lat="43.51612" lon="6.37236">
        <ele>236</ele>
        <time>2021-11-24T13:26:54.000Z</time>
      </trkpt>
      <trkpt lat="43.51612" lon="6.37236">
        <ele>236</ele>
        <time>2021-11-24T13:26:55.000Z</time>
      </trkpt>
      <trkpt lat="43.51612" lon="6.37236">
        <ele>236</ele>
        <time>2021-11-24T13:26:56.000Z</time>
      </trkpt>
      <trkpt lat="43.51612" lon="6.37236">
        <ele>236</ele>
        <time>2021-11-24T13:26:57.000Z</time>
      </trkpt>
      <trkpt lat="43.51612" lon="6.37236">
        <ele>236</ele>
        <time>2021-11-24T13:26:58.000Z</time>
      </trkpt>
      <trkpt lat="43.51612" lon="6.37236">
        <ele>236</ele>
        <time>2021-11-24T13:26:59.000Z</time>
      </trkpt>
      <trkpt lat="43.51612" lon="6.37236">
        <ele>236</ele>
        <time>2021-11-24T13:27:00.000Z</time>
      </trkpt>
      <trkpt lat="43.51612" lon="6.37236">
        <ele>236</ele>
        <time>2021-11-24T13:27:01.000Z</time>
      </trkpt>
      <trkpt lat="43.51612" lon="6.37236">
        <ele>236</ele>
        <time>2021-11-24T13:27:02.000Z</time>
      </trkpt>
      <trkpt lat="43.51612" lon="6.37236">
        <ele>236</ele>
        <time>2021-11-24T13:27:03.000Z</time>
      </trkpt>
      <trkpt lat="43.51612" lon="6.37236">
        <ele>236</ele>
        <time>2021-11-24T13:27:04.000Z</time>
      </trkpt>
      <trkpt lat="43.51612" lon="6.37236">
        <ele>236</ele>
        <time>2021-11-24T13:27:05.000Z</time>
      </trkpt>
      <trkpt lat="43.51612" lon="6.37236">
        <ele>236</ele>
        <time>2021-11-24T13:27:06.000Z</time>
      </trkpt>
      <trkpt lat="43.51612" lon="6.37236">
        <ele>236</ele>
        <time>2021-11-24T13:27:07.000Z</time>
      </trkpt>
      <trkpt lat="43.51612" lon="6.37236">
        <ele>236</ele>
        <time>2021-11-24T13:27:08.000Z</time>
      </trkpt>
      <trkpt lat="43.51612" lon="6.37236">
        <ele>236</ele>
        <time>2021-11-24T13:27:09.000Z</time>
      </trkpt>
      <trkpt lat="43.51612" lon="6.37236">
        <ele>236</ele>
        <time>2021-11-24T13:27:10.000Z</time>
      </trkpt>
      <trkpt lat="43.51612" lon="6.37236">
        <ele>236</ele>
        <time>2021-11-24T13:27:11.000Z</time>
      </trkpt>
      <trkpt lat="43.51612" lon="6.37236">
        <ele>236</ele>
        <time>2021-11-24T13:27:12.000Z</time>
      </trkpt>
      <trkpt lat="43.51612" lon="6.37236">
        <ele>236</ele>
        <time>2021-11-24T13:27:13.000Z</time>
      </trkpt>
      <trkpt lat="43.51613" lon="6.37237">
        <ele>236</ele>
        <time>2021-11-24T13:27:14.000Z</time>
      </trkpt>
      <trkpt lat="43.51613" lon="6.37238">
        <ele>236</ele>
        <time>2021-11-24T13:27:15.000Z</time>
      </trkpt>
      <trkpt lat="43.51613" lon="6.37239">
        <ele>236</ele>
        <time>2021-11-24T13:27:16.000Z</time>
      </trkpt>
      <trkpt lat="43.51614" lon="6.3724">
        <ele>236</ele>
        <time>2021-11-24T13:27:17.000Z</time>
      </trkpt>
      <trkpt lat="43.51614" lon="6.37242">
        <ele>236</ele>
        <time>2021-11-24T13:27:18.000Z</time>
      </trkpt>
      <trkpt lat="43.51615" lon="6.37243">
        <ele>236</ele>
        <time>2021-11-24T13:27:19.000Z</time>
      </trkpt>
      <trkpt lat="43.51615" lon="6.37244">
        <ele>236</ele>
        <time>2021-11-24T13:27:20.000Z</time>
      </trkpt>
      <trkpt lat="43.51615" lon="6.37245">
        <ele>236</ele>
        <time>2021-11-24T13:27:21.000Z</time>
      </trkpt>
      <trkpt lat="43.51616" lon="6.37246">
        <ele>236</ele>
        <time>2021-11-24T13:27:22.000Z</time>
      </trkpt>
      <trkpt lat="43.51617" lon="6.37246">
        <ele>236</ele>
        <time>2021-11-24T13:27:23.000Z</time>
      </trkpt>
      <trkpt lat="43.51617" lon="6.37247">
        <ele>236</ele>
        <time>2021-11-24T13:27:24.000Z</time>
      </trkpt>
      <trkpt lat="43.51618" lon="6.37248">
        <ele>236</ele>
        <time>2021-11-24T13:27:25.000Z</time>
      </trkpt>
      <trkpt lat="43.51619" lon="6.37248">
        <ele>236</ele>
        <time>2021-11-24T13:27:26.000Z</time>
      </trkpt>
      <trkpt lat="43.51621" lon="6.37249">
        <ele>233</ele>
        <time>2021-11-24T13:27:27.000Z</time>
      </trkpt>
      <trkpt lat="43.51622" lon="6.3725">
        <ele>232</ele>
        <time>2021-11-24T13:27:28.000Z</time>
      </trkpt>
      <trkpt lat="43.51623" lon="6.37251">
        <ele>231</ele>
        <time>2021-11-24T13:27:29.000Z</time>
      </trkpt>
      <trkpt lat="43.51624" lon="6.37251">
        <ele>231</ele>
        <time>2021-11-24T13:27:30.000Z</time>
      </trkpt>
      <trkpt lat="43.51624" lon="6.37252">
        <ele>231</ele>
        <time>2021-11-24T13:27:31.000Z</time>
      </trkpt>
      <trkpt lat="43.51625" lon="6.37252">
        <ele>231</ele>
        <time>2021-11-24T13:27:32.000Z</time>
      </trkpt>
      <trkpt lat="43.51626" lon="6.37252">
        <ele>231</ele>
        <time>2021-11-24T13:27:33.000Z</time>
      </trkpt>
      <trkpt lat="43.51626" lon="6.37253">
        <ele>231</ele>
        <time>2021-11-24T13:27:34.000Z</time>
      </trkpt>
      <trkpt lat="43.51626" lon="6.37253">
        <ele>230</ele>
        <time>2021-11-24T13:27:35.000Z</time>
      </trkpt>
      <trkpt lat="43.51627" lon="6.37253">
        <ele>230</ele>
        <time>2021-11-24T13:27:36.000Z</time>
      </trkpt>
      <trkpt lat="43.51627" lon="6.37253">
        <ele>230</ele>
        <time>2021-11-24T13:27:37.000Z</time>
      </trkpt>
      <trkpt lat="43.51627" lon="6.37253">
        <ele>230</ele>
        <time>2021-11-24T13:27:38.000Z</time>
      </trkpt>
      <trkpt lat="43.51627" lon="6.37253">
        <ele>230</ele>
        <time>2021-11-24T13:27:39.000Z</time>
      </trkpt>
      <trkpt lat="43.51628" lon="6.37253">
        <ele>230</ele>
        <time>2021-11-24T13:27:40.000Z</time>
      </trkpt>
      <trkpt lat="43.51628" lon="6.37253">
        <ele>230</ele>
        <time>2021-11-24T13:27:41.000Z</time>
      </trkpt>
      <trkpt lat="43.51628" lon="6.37253">
        <ele>230</ele>
        <time>2021-11-24T13:27:42.000Z</time>
      </trkpt>
      <trkpt lat="43.51628" lon="6.37253">
        <ele>230</ele>
        <time>2021-11-24T13:27:43.000Z</time>
      </trkpt>
      <trkpt lat="43.51628" lon="6.37253">
        <ele>230</ele>
        <time>2021-11-24T13:27:44.000Z</time>
      </trkpt>
      <trkpt lat="43.51628" lon="6.37253">
        <ele>230</ele>
        <time>2021-11-24T13:27:45.000Z</time>
      </trkpt>
      <trkpt lat="43.51628" lon="6.37253">
        <ele>230</ele>
        <time>2021-11-24T13:27:46.000Z</time>
      </trkpt>
      <trkpt lat="43.51628" lon="6.37253">
        <ele>230</ele>
        <time>2021-11-24T13:27:47.000Z</time>
      </trkpt>
      <trkpt lat="43.51628" lon="6.37253">
        <ele>230</ele>
        <time>2021-11-24T13:27:48.000Z</time>
      </trkpt>
      <trkpt lat="43.51628" lon="6.37253">
        <ele>230</ele>
        <time>2021-11-24T13:27:49.000Z</time>
      </trkpt>
      <trkpt lat="43.51628" lon="6.37253">
        <ele>230</ele>
        <time>2021-11-24T13:27:50.000Z</time>
      </trkpt>
      <trkpt lat="43.51628" lon="6.37253">
        <ele>230</ele>
        <time>2021-11-24T13:27:51.000Z</time>
      </trkpt>
      <trkpt lat="43.51628" lon="6.37253">
        <ele>230</ele>
        <time>2021-11-24T13:27:52.000Z</time>
      </trkpt>
      <trkpt lat="43.51628" lon="6.37253">
        <ele>230</ele>
        <time>2021-11-24T13:27:53.000Z</time>
      </trkpt>
      <trkpt lat="43.51628" lon="6.37253">
        <ele>230</ele>
        <time>2021-11-24T13:27:54.000Z</time>
      </trkpt>
      <trkpt lat="43.51628" lon="6.37253">
        <ele>230</ele>
        <time>2021-11-24T13:27:55.000Z</time>
      </trkpt>
      <trkpt lat="43.51628" lon="6.37253">
        <ele>230</ele>
        <time>2021-11-24T13:27:56.000Z</time>
      </trkpt>
      <trkpt lat="43.51628" lon="6.37253">
        <ele>230</ele>
        <time>2021-11-24T13:27:57.000Z</time>
      </trkpt>
      <trkpt lat="43.51629" lon="6.37253">
        <ele>230</ele>
        <time>2021-11-24T13:27:58.000Z</time>
      </trkpt>
      <trkpt lat="43.51629" lon="6.37253">
        <ele>230</ele>
        <time>2021-11-24T13:27:59.000Z</time>
      </trkpt>
      <trkpt lat="43.51629" lon="6.37253">
        <ele>230</ele>
        <time>2021-11-24T13:28:00.000Z</time>
      </trkpt>
      <trkpt lat="43.51629" lon="6.37253">
        <ele>230</ele>
        <time>2021-11-24T13:28:01.000Z</time>
      </trkpt>
      <trkpt lat="43.51629" lon="6.37253">
        <ele>230</ele>
        <time>2021-11-24T13:28:02.000Z</time>
      </trkpt>
      <trkpt lat="43.51629" lon="6.37253">
        <ele>230</ele>
        <time>2021-11-24T13:28:03.000Z</time>
      </trkpt>
      <trkpt lat="43.51629" lon="6.37253">
        <ele>230</ele>
        <time>2021-11-24T13:28:04.000Z</time>
      </trkpt>
      <trkpt lat="43.51629" lon="6.37253">
        <ele>230</ele>
        <time>2021-11-24T13:28:05.000Z</time>
      </trkpt>
      <trkpt lat="43.51629" lon="6.37253">
        <ele>230</ele>
        <time>2021-11-24T13:28:06.000Z</time>
      </trkpt>
      <trkpt lat="43.51629" lon="6.37253">
        <ele>230</ele>
        <time>2021-11-24T13:28:07.000Z</time>
      </trkpt>
      <trkpt lat="43.51629" lon="6.37253">
        <ele>230</ele>
        <time>2021-11-24T13:28:08.000Z</time>
      </trkpt>
      <trkpt lat="43.51629" lon="6.37253">
        <ele>230</ele>
        <time>2021-11-24T13:28:09.000Z</time>
      </trkpt>
      <trkpt lat="43.51629" lon="6.37253">
        <ele>230</ele>
        <time>2021-11-24T13:28:10.000Z</time>
      </trkpt>
      <trkpt lat="43.51629" lon="6.37253">
        <ele>230</ele>
        <time>2021-11-24T13:28:11.000Z</time>
      </trkpt>
      <trkpt lat="43.51629" lon="6.37253">
        <ele>230</ele>
        <time>2021-11-24T13:28:12.000Z</time>
      </trkpt>
      <trkpt lat="43.51629" lon="6.37253">
        <ele>230</ele>
        <time>2021-11-24T13:28:13.000Z</time>
      </trkpt>
      <trkpt lat="43.51629" lon="6.37253">
        <ele>230</ele>
        <time>2021-11-24T13:28:14.000Z</time>
      </trkpt>
      <trkpt lat="43.51629" lon="6.37253">
        <ele>230</ele>
        <time>2021-11-24T13:28:15.000Z</time>
      </trkpt>
      <trkpt lat="43.51629" lon="6.37253">
        <ele>230</ele>
        <time>2021-11-24T13:28:16.000Z</time>
      </trkpt>
      <trkpt lat="43.51629" lon="6.37253">
        <ele>230</ele>
        <time>2021-11-24T13:28:17.000Z</time>
      </trkpt>
      <trkpt lat="43.51629" lon="6.37253">
        <ele>230</ele>
        <time>2021-11-24T13:28:18.000Z</time>
      </trkpt>
      <trkpt lat="43.51628" lon="6.37253">
        <ele>230</ele>
        <time>2021-11-24T13:28:19.000Z</time>
      </trkpt>
      <trkpt lat="43.51628" lon="6.37253">
        <ele>230</ele>
        <time>2021-11-24T13:28:20.000Z</time>
      </trkpt>
      <trkpt lat="43.51628" lon="6.37253">
        <ele>230</ele>
        <time>2021-11-24T13:28:21.000Z</time>
      </trkpt>
      <trkpt lat="43.51628" lon="6.37253">
        <ele>230</ele>
        <time>2021-11-24T13:28:22.000Z</time>
      </trkpt>
      <trkpt lat="43.51628" lon="6.37253">
        <ele>230</ele>
        <time>2021-11-24T13:28:23.000Z</time>
      </trkpt>
      <trkpt lat="43.51628" lon="6.37253">
        <ele>230</ele>
        <time>2021-11-24T13:28:24.000Z</time>
      </trkpt>
      <trkpt lat="43.51628" lon="6.37253">
        <ele>230</ele>
        <time>2021-11-24T13:28:25.000Z</time>
      </trkpt>
      <trkpt lat="43.51628" lon="6.37253">
        <ele>230</ele>
        <time>2021-11-24T13:28:26.000Z</time>
      </trkpt>
      <trkpt lat="43.51628" lon="6.37253">
        <ele>230</ele>
        <time>2021-11-24T13:28:27.000Z</time>
      </trkpt>
      <trkpt lat="43.51628" lon="6.37253">
        <ele>230</ele>
        <time>2021-11-24T13:28:28.000Z</time>
      </trkpt>
      <trkpt lat="43.51628" lon="6.37253">
        <ele>230</ele>
        <time>2021-11-24T13:28:29.000Z</time>
      </trkpt>
      <trkpt lat="43.51628" lon="6.37253">
        <ele>230</ele>
        <time>2021-11-24T13:28:30.000Z</time>
      </trkpt>
      <trkpt lat="43.51628" lon="6.37252">
        <ele>230</ele>
        <time>2021-11-24T13:28:31.000Z</time>
      </trkpt>
      <trkpt lat="43.51628" lon="6.37252">
        <ele>229</ele>
        <time>2021-11-24T13:28:32.000Z</time>
      </trkpt>
      <trkpt lat="43.51628" lon="6.37252">
        <ele>229</ele>
        <time>2021-11-24T13:28:33.000Z</time>
      </trkpt>
      <trkpt lat="43.51628" lon="6.37252">
        <ele>229</ele>
        <time>2021-11-24T13:28:34.000Z</time>
      </trkpt>
      <trkpt lat="43.51628" lon="6.37252">
        <ele>229</ele>
        <time>2021-11-24T13:28:35.000Z</time>
      </trkpt>
      <trkpt lat="43.51628" lon="6.37252">
        <ele>229</ele>
        <time>2021-11-24T13:28:36.000Z</time>
      </trkpt>
      <trkpt lat="43.51627" lon="6.37252">
        <ele>229</ele>
        <time>2021-11-24T13:28:37.000Z</time>
      </trkpt>
      <trkpt lat="43.51627" lon="6.37252">
        <ele>229</ele>
        <time>2021-11-24T13:28:38.000Z</time>
      </trkpt>
      <trkpt lat="43.51627" lon="6.37253">
        <ele>229</ele>
        <time>2021-11-24T13:28:39.000Z</time>
      </trkpt>
      <trkpt lat="43.51627" lon="6.37253">
        <ele>229</ele>
        <time>2021-11-24T13:28:40.000Z</time>
      </trkpt>
      <trkpt lat="43.51627" lon="6.37253">
        <ele>229</ele>
        <time>2021-11-24T13:28:41.000Z</time>
      </trkpt>
      <trkpt lat="43.51627" lon="6.37253">
        <ele>229</ele>
        <time>2021-11-24T13:28:42.000Z</time>
      </trkpt>
      <trkpt lat="43.51627" lon="6.37253">
        <ele>229</ele>
        <time>2021-11-24T13:28:43.000Z</time>
      </trkpt>
      <trkpt lat="43.51627" lon="6.37253">
        <ele>229</ele>
        <time>2021-11-24T13:28:44.000Z</time>
      </trkpt>
      <trkpt lat="43.51627" lon="6.37253">
        <ele>229</ele>
        <time>2021-11-24T13:28:45.000Z</time>
      </trkpt>
      <trkpt lat="43.51627" lon="6.37253">
        <ele>229</ele>
        <time>2021-11-24T13:28:46.000Z</time>
      </trkpt>
      <trkpt lat="43.51627" lon="6.37253">
        <ele>229</ele>
        <time>2021-11-24T13:28:47.000Z</time>
      </trkpt>
      <trkpt lat="43.51627" lon="6.37253">
        <ele>229</ele>
        <time>2021-11-24T13:28:48.000Z</time>
      </trkpt>
      <trkpt lat="43.51627" lon="6.37253">
        <ele>229</ele>
        <time>2021-11-24T13:28:49.000Z</time>
      </trkpt>
      <trkpt lat="43.51627" lon="6.37253">
        <ele>229</ele>
        <time>2021-11-24T13:28:50.000Z</time>
      </trkpt>
      <trkpt lat="43.51627" lon="6.37253">
        <ele>229</ele>
        <time>2021-11-24T13:28:51.000Z</time>
      </trkpt>
      <trkpt lat="43.51627" lon="6.37253">
        <ele>229</ele>
        <time>2021-11-24T13:28:52.000Z</time>
      </trkpt>
      <trkpt lat="43.51627" lon="6.37253">
        <ele>229</ele>
        <time>2021-11-24T13:28:53.000Z</time>
      </trkpt>
      <trkpt lat="43.51627" lon="6.37252">
        <ele>229</ele>
        <time>2021-11-24T13:28:54.000Z</time>
      </trkpt>
      <trkpt lat="43.51627" lon="6.37252">
        <ele>229</ele>
        <time>2021-11-24T13:28:55.000Z</time>
      </trkpt>
      <trkpt lat="43.51627" lon="6.3725">
        <ele>229</ele>
        <time>2021-11-24T13:28:56.000Z</time>
      </trkpt>
      <trkpt lat="43.51627" lon="6.37248">
        <ele>229</ele>
        <time>2021-11-24T13:28:57.000Z</time>
      </trkpt>
      <trkpt lat="43.51627" lon="6.37247">
        <ele>229</ele>
        <time>2021-11-24T13:28:58.000Z</time>
      </trkpt>
      <trkpt lat="43.51627" lon="6.37246">
        <ele>229</ele>
        <time>2021-11-24T13:28:59.000Z</time>
      </trkpt>
      <trkpt lat="43.51627" lon="6.37245">
        <ele>229</ele>
        <time>2021-11-24T13:29:00.000Z</time>
      </trkpt>
      <trkpt lat="43.51627" lon="6.37244">
        <ele>229</ele>
        <time>2021-11-24T13:29:01.000Z</time>
      </trkpt>
      <trkpt lat="43.51627" lon="6.37244">
        <ele>229</ele>
        <time>2021-11-24T13:29:02.000Z</time>
      </trkpt>
      <trkpt lat="43.51627" lon="6.37243">
        <ele>228</ele>
        <time>2021-11-24T13:29:03.000Z</time>
      </trkpt>
      <trkpt lat="43.51627" lon="6.37243">
        <ele>228</ele>
        <time>2021-11-24T13:29:04.000Z</time>
      </trkpt>
      <trkpt lat="43.51627" lon="6.37243">
        <ele>228</ele>
        <time>2021-11-24T13:29:05.000Z</time>
      </trkpt>
      <trkpt lat="43.51627" lon="6.37243">
        <ele>228</ele>
        <time>2021-11-24T13:29:06.000Z</time>
      </trkpt>
      <trkpt lat="43.51627" lon="6.37243">
        <ele>228</ele>
        <time>2021-11-24T13:29:07.000Z</time>
      </trkpt>
      <trkpt lat="43.51627" lon="6.37243">
        <ele>228</ele>
        <time>2021-11-24T13:29:08.000Z</time>
      </trkpt>
      <trkpt lat="43.51627" lon="6.37243">
        <ele>228</ele>
        <time>2021-11-24T13:29:09.000Z</time>
      </trkpt>
      <trkpt lat="43.51627" lon="6.37243">
        <ele>228</ele>
        <time>2021-11-24T13:29:10.000Z</time>
      </trkpt>
      <trkpt lat="43.51627" lon="6.37243">
        <ele>228</ele>
        <time>2021-11-24T13:29:11.000Z</time>
      </trkpt>
      <trkpt lat="43.51627" lon="6.37243">
        <ele>228</ele>
        <time>2021-11-24T13:29:12.000Z</time>
      </trkpt>
      <trkpt lat="43.51627" lon="6.37243">
        <ele>228</ele>
        <time>2021-11-24T13:29:13.000Z</time>
      </trkpt>
      <trkpt lat="43.51627" lon="6.37243">
        <ele>228</ele>
        <time>2021-11-24T13:29:14.000Z</time>
      </trkpt>
      <trkpt lat="43.51627" lon="6.37243">
        <ele>228</ele>
        <time>2021-11-24T13:29:15.000Z</time>
      </trkpt>
      <trkpt lat="43.51627" lon="6.37238">
        <ele>225</ele>
        <time>2021-11-24T13:29:16.000Z</time>
      </trkpt>
      <trkpt lat="43.51627" lon="6.37237">
        <ele>225</ele>
        <time>2021-11-24T13:29:17.000Z</time>
      </trkpt>
      <trkpt lat="43.51627" lon="6.37236">
        <ele>225</ele>
        <time>2021-11-24T13:29:18.000Z</time>
      </trkpt>
      <trkpt lat="43.51627" lon="6.37236">
        <ele>224</ele>
        <time>2021-11-24T13:29:19.000Z</time>
      </trkpt>
      <trkpt lat="43.51627" lon="6.37234">
        <ele>224</ele>
        <time>2021-11-24T13:29:20.000Z</time>
      </trkpt>
      <trkpt lat="43.51627" lon="6.37232">
        <ele>224</ele>
        <time>2021-11-24T13:29:21.000Z</time>
      </trkpt>
      <trkpt lat="43.51627" lon="6.37231">
        <ele>224</ele>
        <time>2021-11-24T13:29:22.000Z</time>
      </trkpt>
      <trkpt lat="43.51627" lon="6.3723">
        <ele>223</ele>
        <time>2021-11-24T13:29:23.000Z</time>
      </trkpt>
      <trkpt lat="43.51626" lon="6.37229">
        <ele>223</ele>
        <time>2021-11-24T13:29:24.000Z</time>
      </trkpt>
      <trkpt lat="43.51626" lon="6.37228">
        <ele>223</ele>
        <time>2021-11-24T13:29:25.000Z</time>
      </trkpt>
      <trkpt lat="43.51626" lon="6.37228">
        <ele>223</ele>
        <time>2021-11-24T13:29:26.000Z</time>
      </trkpt>
      <trkpt lat="43.51626" lon="6.37226">
        <ele>223</ele>
        <time>2021-11-24T13:29:27.000Z</time>
      </trkpt>
      <trkpt lat="43.51626" lon="6.37225">
        <ele>223</ele>
        <time>2021-11-24T13:29:28.000Z</time>
      </trkpt>
      <trkpt lat="43.51626" lon="6.37224">
        <ele>223</ele>
        <time>2021-11-24T13:29:29.000Z</time>
      </trkpt>
      <trkpt lat="43.51627" lon="6.37223">
        <ele>223</ele>
        <time>2021-11-24T13:29:30.000Z</time>
      </trkpt>
      <trkpt lat="43.51627" lon="6.37221">
        <ele>223</ele>
        <time>2021-11-24T13:29:31.000Z</time>
      </trkpt>
      <trkpt lat="43.51626" lon="6.3722">
        <ele>223</ele>
        <time>2021-11-24T13:29:32.000Z</time>
      </trkpt>
      <trkpt lat="43.51626" lon="6.37218">
        <ele>224</ele>
        <time>2021-11-24T13:29:33.000Z</time>
      </trkpt>
      <trkpt lat="43.51626" lon="6.37217">
        <ele>224</ele>
        <time>2021-11-24T13:29:34.000Z</time>
      </trkpt>
      <trkpt lat="43.51626" lon="6.37216">
        <ele>224</ele>
        <time>2021-11-24T13:29:35.000Z</time>
      </trkpt>
      <trkpt lat="43.51626" lon="6.37215">
        <ele>224</ele>
        <time>2021-11-24T13:29:36.000Z</time>
      </trkpt>
      <trkpt lat="43.51626" lon="6.37215">
        <ele>224</ele>
        <time>2021-11-24T13:29:37.000Z</time>
      </trkpt>
      <trkpt lat="43.51625" lon="6.37214">
        <ele>223</ele>
        <time>2021-11-24T13:29:38.000Z</time>
      </trkpt>
      <trkpt lat="43.51625" lon="6.37213">
        <ele>223</ele>
        <time>2021-11-24T13:29:39.000Z</time>
      </trkpt>
      <trkpt lat="43.51625" lon="6.37211">
        <ele>223</ele>
        <time>2021-11-24T13:29:40.000Z</time>
      </trkpt>
      <trkpt lat="43.51624" lon="6.3721">
        <ele>223</ele>
        <time>2021-11-24T13:29:41.000Z</time>
      </trkpt>
      <trkpt lat="43.51623" lon="6.37207">
        <ele>224</ele>
        <time>2021-11-24T13:29:42.000Z</time>
      </trkpt>
      <trkpt lat="43.51623" lon="6.37205">
        <ele>224</ele>
        <time>2021-11-24T13:29:43.000Z</time>
      </trkpt>
      <trkpt lat="43.51622" lon="6.37203">
        <ele>224</ele>
        <time>2021-11-24T13:29:44.000Z</time>
      </trkpt>
      <trkpt lat="43.51622" lon="6.37203">
        <ele>224</ele>
        <time>2021-11-24T13:29:45.000Z</time>
      </trkpt>
      <trkpt lat="43.51621" lon="6.37202">
        <ele>224</ele>
        <time>2021-11-24T13:29:46.000Z</time>
      </trkpt>
      <trkpt lat="43.51621" lon="6.37201">
        <ele>224</ele>
        <time>2021-11-24T13:29:47.000Z</time>
      </trkpt>
      <trkpt lat="43.51621" lon="6.372">
        <ele>224</ele>
        <time>2021-11-24T13:29:48.000Z</time>
      </trkpt>
      <trkpt lat="43.5162" lon="6.37198">
        <ele>224</ele>
        <time>2021-11-24T13:29:49.000Z</time>
      </trkpt>
      <trkpt lat="43.51619" lon="6.37196">
        <ele>224</ele>
        <time>2021-11-24T13:29:50.000Z</time>
      </trkpt>
      <trkpt lat="43.51619" lon="6.37195">
        <ele>224</ele>
        <time>2021-11-24T13:29:51.000Z</time>
      </trkpt>
      <trkpt lat="43.51619" lon="6.37194">
        <ele>224</ele>
        <time>2021-11-24T13:29:52.000Z</time>
      </trkpt>
      <trkpt lat="43.51619" lon="6.37193">
        <ele>224</ele>
        <time>2021-11-24T13:29:53.000Z</time>
      </trkpt>
      <trkpt lat="43.51619" lon="6.37192">
        <ele>224</ele>
        <time>2021-11-24T13:29:54.000Z</time>
      </trkpt>
      <trkpt lat="43.51619" lon="6.3719">
        <ele>224</ele>
        <time>2021-11-24T13:29:55.000Z</time>
      </trkpt>
      <trkpt lat="43.51619" lon="6.37189">
        <ele>224</ele>
        <time>2021-11-24T13:29:56.000Z</time>
      </trkpt>
      <trkpt lat="43.51619" lon="6.37187">
        <ele>224</ele>
        <time>2021-11-24T13:29:57.000Z</time>
      </trkpt>
      <trkpt lat="43.51619" lon="6.37186">
        <ele>224</ele>
        <time>2021-11-24T13:29:58.000Z</time>
      </trkpt>
      <trkpt lat="43.51619" lon="6.37185">
        <ele>224</ele>
        <time>2021-11-24T13:29:59.000Z</time>
      </trkpt>
      <trkpt lat="43.51619" lon="6.37184">
        <ele>224</ele>
        <time>2021-11-24T13:30:00.000Z</time>
      </trkpt>
      <trkpt lat="43.51619" lon="6.37183">
        <ele>224</ele>
        <time>2021-11-24T13:30:01.000Z</time>
      </trkpt>
      <trkpt lat="43.51619" lon="6.37181">
        <ele>224</ele>
        <time>2021-11-24T13:30:02.000Z</time>
      </trkpt>
      <trkpt lat="43.51618" lon="6.3718">
        <ele>224</ele>
        <time>2021-11-24T13:30:03.000Z</time>
      </trkpt>
      <trkpt lat="43.51618" lon="6.37179">
        <ele>224</ele>
        <time>2021-11-24T13:30:04.000Z</time>
      </trkpt>
      <trkpt lat="43.51618" lon="6.37178">
        <ele>224</ele>
        <time>2021-11-24T13:30:05.000Z</time>
      </trkpt>
      <trkpt lat="43.51618" lon="6.37177">
        <ele>224</ele>
        <time>2021-11-24T13:30:06.000Z</time>
      </trkpt>
      <trkpt lat="43.51618" lon="6.37176">
        <ele>223</ele>
        <time>2021-11-24T13:30:07.000Z</time>
      </trkpt>
      <trkpt lat="43.51618" lon="6.37174">
        <ele>223</ele>
        <time>2021-11-24T13:30:08.000Z</time>
      </trkpt>
      <trkpt lat="43.51618" lon="6.37173">
        <ele>223</ele>
        <time>2021-11-24T13:30:09.000Z</time>
      </trkpt>
      <trkpt lat="43.51618" lon="6.37172">
        <ele>223</ele>
        <time>2021-11-24T13:30:10.000Z</time>
      </trkpt>
      <trkpt lat="43.51618" lon="6.37171">
        <ele>223</ele>
        <time>2021-11-24T13:30:11.000Z</time>
      </trkpt>
      <trkpt lat="43.51618" lon="6.3717">
        <ele>223</ele>
        <time>2021-11-24T13:30:12.000Z</time>
      </trkpt>
      <trkpt lat="43.51618" lon="6.37169">
        <ele>223</ele>
        <time>2021-11-24T13:30:13.000Z</time>
      </trkpt>
      <trkpt lat="43.51619" lon="6.37166">
        <ele>223</ele>
        <time>2021-11-24T13:30:14.000Z</time>
      </trkpt>
      <trkpt lat="43.51619" lon="6.37164">
        <ele>222</ele>
        <time>2021-11-24T13:30:15.000Z</time>
      </trkpt>
      <trkpt lat="43.5162" lon="6.37163">
        <ele>221</ele>
        <time>2021-11-24T13:30:16.000Z</time>
      </trkpt>
      <trkpt lat="43.51621" lon="6.37162">
        <ele>221</ele>
        <time>2021-11-24T13:30:17.000Z</time>
      </trkpt>
      <trkpt lat="43.51621" lon="6.3716">
        <ele>221</ele>
        <time>2021-11-24T13:30:18.000Z</time>
      </trkpt>
      <trkpt lat="43.51622" lon="6.37159">
        <ele>221</ele>
        <time>2021-11-24T13:30:19.000Z</time>
      </trkpt>
      <trkpt lat="43.51622" lon="6.37158">
        <ele>221</ele>
        <time>2021-11-24T13:30:20.000Z</time>
      </trkpt>
      <trkpt lat="43.51623" lon="6.37158">
        <ele>221</ele>
        <time>2021-11-24T13:30:21.000Z</time>
      </trkpt>
      <trkpt lat="43.51624" lon="6.37157">
        <ele>221</ele>
        <time>2021-11-24T13:30:22.000Z</time>
      </trkpt>
      <trkpt lat="43.51624" lon="6.37155">
        <ele>221</ele>
        <time>2021-11-24T13:30:23.000Z</time>
      </trkpt>
      <trkpt lat="43.51625" lon="6.37154">
        <ele>221</ele>
        <time>2021-11-24T13:30:24.000Z</time>
      </trkpt>
      <trkpt lat="43.51626" lon="6.37153">
        <ele>221</ele>
        <time>2021-11-24T13:30:25.000Z</time>
      </trkpt>
      <trkpt lat="43.51627" lon="6.37152">
        <ele>221</ele>
        <time>2021-11-24T13:30:26.000Z</time>
      </trkpt>
      <trkpt lat="43.51627" lon="6.37151">
        <ele>221</ele>
        <time>2021-11-24T13:30:27.000Z</time>
      </trkpt>
      <trkpt lat="43.51628" lon="6.37149">
        <ele>221</ele>
        <time>2021-11-24T13:30:28.000Z</time>
      </trkpt>
      <trkpt lat="43.51628" lon="6.37148">
        <ele>221</ele>
        <time>2021-11-24T13:30:29.000Z</time>
      </trkpt>
      <trkpt lat="43.51628" lon="6.37146">
        <ele>221</ele>
        <time>2021-11-24T13:30:30.000Z</time>
      </trkpt>
      <trkpt lat="43.51628" lon="6.37144">
        <ele>221</ele>
        <time>2021-11-24T13:30:31.000Z</time>
      </trkpt>
      <trkpt lat="43.51628" lon="6.37142">
        <ele>221</ele>
        <time>2021-11-24T13:30:32.000Z</time>
      </trkpt>
      <trkpt lat="43.51628" lon="6.37141">
        <ele>221</ele>
        <time>2021-11-24T13:30:33.000Z</time>
      </trkpt>
      <trkpt lat="43.51628" lon="6.37139">
        <ele>221</ele>
        <time>2021-11-24T13:30:34.000Z</time>
      </trkpt>
      <trkpt lat="43.51628" lon="6.37138">
        <ele>220</ele>
        <time>2021-11-24T13:30:35.000Z</time>
      </trkpt>
      <trkpt lat="43.51629" lon="6.37137">
        <ele>220</ele>
        <time>2021-11-24T13:30:36.000Z</time>
      </trkpt>
      <trkpt lat="43.51629" lon="6.37136">
        <ele>220</ele>
        <time>2021-11-24T13:30:37.000Z</time>
      </trkpt>
      <trkpt lat="43.51629" lon="6.37135">
        <ele>220</ele>
        <time>2021-11-24T13:30:38.000Z</time>
      </trkpt>
      <trkpt lat="43.5163" lon="6.37134">
        <ele>220</ele>
        <time>2021-11-24T13:30:39.000Z</time>
      </trkpt>
      <trkpt lat="43.5163" lon="6.37134">
        <ele>220</ele>
        <time>2021-11-24T13:30:40.000Z</time>
      </trkpt>
      <trkpt lat="43.51631" lon="6.37133">
        <ele>220</ele>
        <time>2021-11-24T13:30:41.000Z</time>
      </trkpt>
      <trkpt lat="43.51631" lon="6.37134">
        <ele>220</ele>
        <time>2021-11-24T13:30:42.000Z</time>
      </trkpt>
      <trkpt lat="43.51632" lon="6.37134">
        <ele>220</ele>
        <time>2021-11-24T13:30:43.000Z</time>
      </trkpt>
      <trkpt lat="43.51633" lon="6.37135">
        <ele>220</ele>
        <time>2021-11-24T13:30:44.000Z</time>
      </trkpt>
      <trkpt lat="43.51634" lon="6.37135">
        <ele>220</ele>
        <time>2021-11-24T13:30:45.000Z</time>
      </trkpt>
      <trkpt lat="43.51635" lon="6.37135">
        <ele>220</ele>
        <time>2021-11-24T13:30:46.000Z</time>
      </trkpt>
      <trkpt lat="43.51635" lon="6.37136">
        <ele>220</ele>
        <time>2021-11-24T13:30:47.000Z</time>
      </trkpt>
      <trkpt lat="43.51636" lon="6.37136">
        <ele>221</ele>
        <time>2021-11-24T13:30:48.000Z</time>
      </trkpt>
      <trkpt lat="43.51635" lon="6.37136">
        <ele>221</ele>
        <time>2021-11-24T13:30:49.000Z</time>
      </trkpt>
      <trkpt lat="43.51635" lon="6.37136">
        <ele>221</ele>
        <time>2021-11-24T13:30:50.000Z</time>
      </trkpt>
      <trkpt lat="43.51635" lon="6.37136">
        <ele>221</ele>
        <time>2021-11-24T13:30:51.000Z</time>
      </trkpt>
      <trkpt lat="43.51635" lon="6.37136">
        <ele>221</ele>
        <time>2021-11-24T13:30:52.000Z</time>
      </trkpt>
      <trkpt lat="43.51635" lon="6.37135">
        <ele>221</ele>
        <time>2021-11-24T13:30:53.000Z</time>
      </trkpt>
      <trkpt lat="43.51634" lon="6.37134">
        <ele>221</ele>
        <time>2021-11-24T13:30:54.000Z</time>
      </trkpt>
      <trkpt lat="43.51634" lon="6.37133">
        <ele>221</ele>
        <time>2021-11-24T13:30:55.000Z</time>
      </trkpt>
      <trkpt lat="43.51633" lon="6.37132">
        <ele>221</ele>
        <time>2021-11-24T13:30:56.000Z</time>
      </trkpt>
      <trkpt lat="43.51633" lon="6.37131">
        <ele>221</ele>
        <time>2021-11-24T13:30:57.000Z</time>
      </trkpt>
      <trkpt lat="43.51632" lon="6.37131">
        <ele>221</ele>
        <time>2021-11-24T13:30:58.000Z</time>
      </trkpt>
      <trkpt lat="43.51632" lon="6.37131">
        <ele>221</ele>
        <time>2021-11-24T13:30:59.000Z</time>
      </trkpt>
      <trkpt lat="43.51632" lon="6.3713">
        <ele>221</ele>
        <time>2021-11-24T13:31:00.000Z</time>
      </trkpt>
      <trkpt lat="43.51632" lon="6.3713">
        <ele>221</ele>
        <time>2021-11-24T13:31:01.000Z</time>
      </trkpt>
      <trkpt lat="43.51631" lon="6.3713">
        <ele>221</ele>
        <time>2021-11-24T13:31:02.000Z</time>
      </trkpt>
      <trkpt lat="43.51631" lon="6.37128">
        <ele>221</ele>
        <time>2021-11-24T13:31:03.000Z</time>
      </trkpt>
      <trkpt lat="43.5163" lon="6.37127">
        <ele>221</ele>
        <time>2021-11-24T13:31:04.000Z</time>
      </trkpt>
      <trkpt lat="43.51629" lon="6.37125">
        <ele>221</ele>
        <time>2021-11-24T13:31:05.000Z</time>
      </trkpt>
      <trkpt lat="43.51629" lon="6.37124">
        <ele>221</ele>
        <time>2021-11-24T13:31:06.000Z</time>
      </trkpt>
      <trkpt lat="43.51629" lon="6.37123">
        <ele>221</ele>
        <time>2021-11-24T13:31:07.000Z</time>
      </trkpt>
      <trkpt lat="43.51629" lon="6.37122">
        <ele>221</ele>
        <time>2021-11-24T13:31:08.000Z</time>
      </trkpt>
      <trkpt lat="43.51629" lon="6.37121">
        <ele>221</ele>
        <time>2021-11-24T13:31:09.000Z</time>
      </trkpt>
      <trkpt lat="43.51629" lon="6.3712">
        <ele>221</ele>
        <time>2021-11-24T13:31:10.000Z</time>
      </trkpt>
      <trkpt lat="43.51629" lon="6.37118">
        <ele>221</ele>
        <time>2021-11-24T13:31:11.000Z</time>
      </trkpt>
      <trkpt lat="43.5163" lon="6.37117">
        <ele>221</ele>
        <time>2021-11-24T13:31:12.000Z</time>
      </trkpt>
      <trkpt lat="43.5163" lon="6.37116">
        <ele>221</ele>
        <time>2021-11-24T13:31:13.000Z</time>
      </trkpt>
      <trkpt lat="43.51631" lon="6.37115">
        <ele>221</ele>
        <time>2021-11-24T13:31:14.000Z</time>
      </trkpt>
      <trkpt lat="43.51631" lon="6.37113">
        <ele>221</ele>
        <time>2021-11-24T13:31:15.000Z</time>
      </trkpt>
      <trkpt lat="43.51631" lon="6.37112">
        <ele>221</ele>
        <time>2021-11-24T13:31:16.000Z</time>
      </trkpt>
      <trkpt lat="43.51631" lon="6.37111">
        <ele>221</ele>
        <time>2021-11-24T13:31:17.000Z</time>
      </trkpt>
      <trkpt lat="43.51632" lon="6.3711">
        <ele>220</ele>
        <time>2021-11-24T13:31:18.000Z</time>
      </trkpt>
      <trkpt lat="43.51632" lon="6.37108">
        <ele>220</ele>
        <time>2021-11-24T13:31:19.000Z</time>
      </trkpt>
      <trkpt lat="43.51632" lon="6.37107">
        <ele>220</ele>
        <time>2021-11-24T13:31:20.000Z</time>
      </trkpt>
      <trkpt lat="43.51632" lon="6.37106">
        <ele>220</ele>
        <time>2021-11-24T13:31:21.000Z</time>
      </trkpt>
      <trkpt lat="43.51632" lon="6.37104">
        <ele>220</ele>
        <time>2021-11-24T13:31:22.000Z</time>
      </trkpt>
      <trkpt lat="43.51632" lon="6.37104">
        <ele>220</ele>
        <time>2021-11-24T13:31:23.000Z</time>
      </trkpt>
      <trkpt lat="43.51633" lon="6.37103">
        <ele>220</ele>
        <time>2021-11-24T13:31:24.000Z</time>
      </trkpt>
      <trkpt lat="43.51633" lon="6.37102">
        <ele>220</ele>
        <time>2021-11-24T13:31:25.000Z</time>
      </trkpt>
      <trkpt lat="43.51633" lon="6.37101">
        <ele>220</ele>
        <time>2021-11-24T13:31:26.000Z</time>
      </trkpt>
      <trkpt lat="43.51633" lon="6.371">
        <ele>220</ele>
        <time>2021-11-24T13:31:27.000Z</time>
      </trkpt>
      <trkpt lat="43.51633" lon="6.37098">
        <ele>220</ele>
        <time>2021-11-24T13:31:28.000Z</time>
      </trkpt>
      <trkpt lat="43.51633" lon="6.37096">
        <ele>220</ele>
        <time>2021-11-24T13:31:29.000Z</time>
      </trkpt>
      <trkpt lat="43.51634" lon="6.37095">
        <ele>220</ele>
        <time>2021-11-24T13:31:30.000Z</time>
      </trkpt>
      <trkpt lat="43.51634" lon="6.37094">
        <ele>221</ele>
        <time>2021-11-24T13:31:31.000Z</time>
      </trkpt>
      <trkpt lat="43.51634" lon="6.37093">
        <ele>221</ele>
        <time>2021-11-24T13:31:32.000Z</time>
      </trkpt>
      <trkpt lat="43.51634" lon="6.37092">
        <ele>222</ele>
        <time>2021-11-24T13:31:33.000Z</time>
      </trkpt>
      <trkpt lat="43.51634" lon="6.3709">
        <ele>222</ele>
        <time>2021-11-24T13:31:34.000Z</time>
      </trkpt>
      <trkpt lat="43.51634" lon="6.37088">
        <ele>222</ele>
        <time>2021-11-24T13:31:35.000Z</time>
      </trkpt>
      <trkpt lat="43.51634" lon="6.37084">
        <ele>223</ele>
        <time>2021-11-24T13:31:36.000Z</time>
      </trkpt>
      <trkpt lat="43.51633" lon="6.37082">
        <ele>223</ele>
        <time>2021-11-24T13:31:37.000Z</time>
      </trkpt>
      <trkpt lat="43.51633" lon="6.3708">
        <ele>223</ele>
        <time>2021-11-24T13:31:38.000Z</time>
      </trkpt>
      <trkpt lat="43.51632" lon="6.37078">
        <ele>223</ele>
        <time>2021-11-24T13:31:39.000Z</time>
      </trkpt>
      <trkpt lat="43.51631" lon="6.37076">
        <ele>223</ele>
        <time>2021-11-24T13:31:40.000Z</time>
      </trkpt>
      <trkpt lat="43.5163" lon="6.37075">
        <ele>223</ele>
        <time>2021-11-24T13:31:41.000Z</time>
      </trkpt>
      <trkpt lat="43.5163" lon="6.37074">
        <ele>223</ele>
        <time>2021-11-24T13:31:42.000Z</time>
      </trkpt>
      <trkpt lat="43.51629" lon="6.37072">
        <ele>223</ele>
        <time>2021-11-24T13:31:43.000Z</time>
      </trkpt>
      <trkpt lat="43.51628" lon="6.37071">
        <ele>223</ele>
        <time>2021-11-24T13:31:44.000Z</time>
      </trkpt>
      <trkpt lat="43.51627" lon="6.3707">
        <ele>223</ele>
        <time>2021-11-24T13:31:45.000Z</time>
      </trkpt>
      <trkpt lat="43.51626" lon="6.37069">
        <ele>223</ele>
        <time>2021-11-24T13:31:46.000Z</time>
      </trkpt>
      <trkpt lat="43.51625" lon="6.37068">
        <ele>223</ele>
        <time>2021-11-24T13:31:47.000Z</time>
      </trkpt>
      <trkpt lat="43.51624" lon="6.37067">
        <ele>223</ele>
        <time>2021-11-24T13:31:48.000Z</time>
      </trkpt>
      <trkpt lat="43.51623" lon="6.37066">
        <ele>223</ele>
        <time>2021-11-24T13:31:49.000Z</time>
      </trkpt>
      <trkpt lat="43.51623" lon="6.37065">
        <ele>223</ele>
        <time>2021-11-24T13:31:50.000Z</time>
      </trkpt>
      <trkpt lat="43.51622" lon="6.37064">
        <ele>223</ele>
        <time>2021-11-24T13:31:51.000Z</time>
      </trkpt>
      <trkpt lat="43.51621" lon="6.37063">
        <ele>223</ele>
        <time>2021-11-24T13:31:52.000Z</time>
      </trkpt>
      <trkpt lat="43.5162" lon="6.37062">
        <ele>223</ele>
        <time>2021-11-24T13:31:53.000Z</time>
      </trkpt>
      <trkpt lat="43.51619" lon="6.37061">
        <ele>224</ele>
        <time>2021-11-24T13:31:54.000Z</time>
      </trkpt>
      <trkpt lat="43.51618" lon="6.3706">
        <ele>224</ele>
        <time>2021-11-24T13:31:55.000Z</time>
      </trkpt>
      <trkpt lat="43.51617" lon="6.3706">
        <ele>224</ele>
        <time>2021-11-24T13:31:56.000Z</time>
      </trkpt>
      <trkpt lat="43.51616" lon="6.37059">
        <ele>224</ele>
        <time>2021-11-24T13:31:57.000Z</time>
      </trkpt>
      <trkpt lat="43.51615" lon="6.37058">
        <ele>224</ele>
        <time>2021-11-24T13:31:58.000Z</time>
      </trkpt>
      <trkpt lat="43.51615" lon="6.37057">
        <ele>224</ele>
        <time>2021-11-24T13:31:59.000Z</time>
      </trkpt>
      <trkpt lat="43.51614" lon="6.37056">
        <ele>224</ele>
        <time>2021-11-24T13:32:00.000Z</time>
      </trkpt>
      <trkpt lat="43.51613" lon="6.37055">
        <ele>224</ele>
        <time>2021-11-24T13:32:01.000Z</time>
      </trkpt>
      <trkpt lat="43.51612" lon="6.37054">
        <ele>224</ele>
        <time>2021-11-24T13:32:02.000Z</time>
      </trkpt>
      <trkpt lat="43.51611" lon="6.37053">
        <ele>225</ele>
        <time>2021-11-24T13:32:03.000Z</time>
      </trkpt>
      <trkpt lat="43.51609" lon="6.37052">
        <ele>225</ele>
        <time>2021-11-24T13:32:04.000Z</time>
      </trkpt>
      <trkpt lat="43.51608" lon="6.37051">
        <ele>225</ele>
        <time>2021-11-24T13:32:05.000Z</time>
      </trkpt>
      <trkpt lat="43.51607" lon="6.3705">
        <ele>226</ele>
        <time>2021-11-24T13:32:06.000Z</time>
      </trkpt>
      <trkpt lat="43.51606" lon="6.37049">
        <ele>226</ele>
        <time>2021-11-24T13:32:07.000Z</time>
      </trkpt>
      <trkpt lat="43.51605" lon="6.37048">
        <ele>226</ele>
        <time>2021-11-24T13:32:08.000Z</time>
      </trkpt>
      <trkpt lat="43.51604" lon="6.37047">
        <ele>226</ele>
        <time>2021-11-24T13:32:09.000Z</time>
      </trkpt>
      <trkpt lat="43.51602" lon="6.37046">
        <ele>226</ele>
        <time>2021-11-24T13:32:10.000Z</time>
      </trkpt>
      <trkpt lat="43.51601" lon="6.37045">
        <ele>226</ele>
        <time>2021-11-24T13:32:11.000Z</time>
      </trkpt>
      <trkpt lat="43.51599" lon="6.37044">
        <ele>227</ele>
        <time>2021-11-24T13:32:12.000Z</time>
      </trkpt>
      <trkpt lat="43.51598" lon="6.37043">
        <ele>227</ele>
        <time>2021-11-24T13:32:13.000Z</time>
      </trkpt>
      <trkpt lat="43.51597" lon="6.37042">
        <ele>227</ele>
        <time>2021-11-24T13:32:14.000Z</time>
      </trkpt>
      <trkpt lat="43.51596" lon="6.37041">
        <ele>227</ele>
        <time>2021-11-24T13:32:15.000Z</time>
      </trkpt>
      <trkpt lat="43.51595" lon="6.37041">
        <ele>226</ele>
        <time>2021-11-24T13:32:16.000Z</time>
      </trkpt>
      <trkpt lat="43.51594" lon="6.3704">
        <ele>226</ele>
        <time>2021-11-24T13:32:17.000Z</time>
      </trkpt>
      <trkpt lat="43.51592" lon="6.37039">
        <ele>226</ele>
        <time>2021-11-24T13:32:18.000Z</time>
      </trkpt>
      <trkpt lat="43.51591" lon="6.37039">
        <ele>226</ele>
        <time>2021-11-24T13:32:19.000Z</time>
      </trkpt>
      <trkpt lat="43.5159" lon="6.37038">
        <ele>226</ele>
        <time>2021-11-24T13:32:20.000Z</time>
      </trkpt>
      <trkpt lat="43.51588" lon="6.37037">
        <ele>226</ele>
        <time>2021-11-24T13:32:21.000Z</time>
      </trkpt>
      <trkpt lat="43.51587" lon="6.37037">
        <ele>227</ele>
        <time>2021-11-24T13:32:22.000Z</time>
      </trkpt>
      <trkpt lat="43.51586" lon="6.37036">
        <ele>227</ele>
        <time>2021-11-24T13:32:23.000Z</time>
      </trkpt>
      <trkpt lat="43.51585" lon="6.37035">
        <ele>227</ele>
        <time>2021-11-24T13:32:24.000Z</time>
      </trkpt>
      <trkpt lat="43.51583" lon="6.37034">
        <ele>227</ele>
        <time>2021-11-24T13:32:25.000Z</time>
      </trkpt>
      <trkpt lat="43.51582" lon="6.37033">
        <ele>227</ele>
        <time>2021-11-24T13:32:26.000Z</time>
      </trkpt>
      <trkpt lat="43.51581" lon="6.37032">
        <ele>227</ele>
        <time>2021-11-24T13:32:27.000Z</time>
      </trkpt>
      <trkpt lat="43.5158" lon="6.37031">
        <ele>227</ele>
        <time>2021-11-24T13:32:28.000Z</time>
      </trkpt>
      <trkpt lat="43.51579" lon="6.37031">
        <ele>227</ele>
        <time>2021-11-24T13:32:29.000Z</time>
      </trkpt>
      <trkpt lat="43.51577" lon="6.3703">
        <ele>228</ele>
        <time>2021-11-24T13:32:30.000Z</time>
      </trkpt>
      <trkpt lat="43.51576" lon="6.37029">
        <ele>228</ele>
        <time>2021-11-24T13:32:31.000Z</time>
      </trkpt>
      <trkpt lat="43.51576" lon="6.37028">
        <ele>228</ele>
        <time>2021-11-24T13:32:32.000Z</time>
      </trkpt>
      <trkpt lat="43.51575" lon="6.37028">
        <ele>228</ele>
        <time>2021-11-24T13:32:33.000Z</time>
      </trkpt>
      <trkpt lat="43.51574" lon="6.37027">
        <ele>228</ele>
        <time>2021-11-24T13:32:34.000Z</time>
      </trkpt>
      <trkpt lat="43.51573" lon="6.37026">
        <ele>228</ele>
        <time>2021-11-24T13:32:35.000Z</time>
      </trkpt>
      <trkpt lat="43.51572" lon="6.37025">
        <ele>228</ele>
        <time>2021-11-24T13:32:36.000Z</time>
      </trkpt>
      <trkpt lat="43.51571" lon="6.37024">
        <ele>228</ele>
        <time>2021-11-24T13:32:37.000Z</time>
      </trkpt>
      <trkpt lat="43.5157" lon="6.37023">
        <ele>228</ele>
        <time>2021-11-24T13:32:38.000Z</time>
      </trkpt>
      <trkpt lat="43.51569" lon="6.37022">
        <ele>228</ele>
        <time>2021-11-24T13:32:39.000Z</time>
      </trkpt>
      <trkpt lat="43.51568" lon="6.37021">
        <ele>229</ele>
        <time>2021-11-24T13:32:40.000Z</time>
      </trkpt>
      <trkpt lat="43.51567" lon="6.3702">
        <ele>229</ele>
        <time>2021-11-24T13:32:41.000Z</time>
      </trkpt>
      <trkpt lat="43.51566" lon="6.37019">
        <ele>229</ele>
        <time>2021-11-24T13:32:42.000Z</time>
      </trkpt>
      <trkpt lat="43.51565" lon="6.37018">
        <ele>229</ele>
        <time>2021-11-24T13:32:43.000Z</time>
      </trkpt>
      <trkpt lat="43.51564" lon="6.37017">
        <ele>230</ele>
        <time>2021-11-24T13:32:44.000Z</time>
      </trkpt>
      <trkpt lat="43.51563" lon="6.37016">
        <ele>230</ele>
        <time>2021-11-24T13:32:45.000Z</time>
      </trkpt>
      <trkpt lat="43.51562" lon="6.37016">
        <ele>230</ele>
        <time>2021-11-24T13:32:46.000Z</time>
      </trkpt>
      <trkpt lat="43.51561" lon="6.37015">
        <ele>230</ele>
        <time>2021-11-24T13:32:47.000Z</time>
      </trkpt>
      <trkpt lat="43.5156" lon="6.37014">
        <ele>230</ele>
        <time>2021-11-24T13:32:48.000Z</time>
      </trkpt>
      <trkpt lat="43.51559" lon="6.37013">
        <ele>230</ele>
        <time>2021-11-24T13:32:49.000Z</time>
      </trkpt>
      <trkpt lat="43.51558" lon="6.37013">
        <ele>230</ele>
        <time>2021-11-24T13:32:50.000Z</time>
      </trkpt>
      <trkpt lat="43.51558" lon="6.37012">
        <ele>230</ele>
        <time>2021-11-24T13:32:51.000Z</time>
      </trkpt>
      <trkpt lat="43.51557" lon="6.37011">
        <ele>230</ele>
        <time>2021-11-24T13:32:52.000Z</time>
      </trkpt>
      <trkpt lat="43.51556" lon="6.3701">
        <ele>230</ele>
        <time>2021-11-24T13:32:53.000Z</time>
      </trkpt>
      <trkpt lat="43.51555" lon="6.37009">
        <ele>230</ele>
        <time>2021-11-24T13:32:54.000Z</time>
      </trkpt>
      <trkpt lat="43.51554" lon="6.37008">
        <ele>230</ele>
        <time>2021-11-24T13:32:55.000Z</time>
      </trkpt>
      <trkpt lat="43.51553" lon="6.37006">
        <ele>230</ele>
        <time>2021-11-24T13:32:56.000Z</time>
      </trkpt>
      <trkpt lat="43.51552" lon="6.37005">
        <ele>230</ele>
        <time>2021-11-24T13:32:57.000Z</time>
      </trkpt>
      <trkpt lat="43.51551" lon="6.37004">
        <ele>230</ele>
        <time>2021-11-24T13:32:58.000Z</time>
      </trkpt>
      <trkpt lat="43.5155" lon="6.37003">
        <ele>230</ele>
        <time>2021-11-24T13:32:59.000Z</time>
      </trkpt>
      <trkpt lat="43.51549" lon="6.37002">
        <ele>230</ele>
        <time>2021-11-24T13:33:00.000Z</time>
      </trkpt>
      <trkpt lat="43.51548" lon="6.37001">
        <ele>230</ele>
        <time>2021-11-24T13:33:01.000Z</time>
      </trkpt>
      <trkpt lat="43.51547" lon="6.37">
        <ele>229</ele>
        <time>2021-11-24T13:33:02.000Z</time>
      </trkpt>
      <trkpt lat="43.51546" lon="6.36999">
        <ele>229</ele>
        <time>2021-11-24T13:33:03.000Z</time>
      </trkpt>
      <trkpt lat="43.51546" lon="6.36998">
        <ele>228</ele>
        <time>2021-11-24T13:33:04.000Z</time>
      </trkpt>
      <trkpt lat="43.51545" lon="6.36997">
        <ele>228</ele>
        <time>2021-11-24T13:33:05.000Z</time>
      </trkpt>
      <trkpt lat="43.51544" lon="6.36995">
        <ele>228</ele>
        <time>2021-11-24T13:33:06.000Z</time>
      </trkpt>
      <trkpt lat="43.51543" lon="6.36994">
        <ele>228</ele>
        <time>2021-11-24T13:33:07.000Z</time>
      </trkpt>
      <trkpt lat="43.51543" lon="6.36992">
        <ele>228</ele>
        <time>2021-11-24T13:33:08.000Z</time>
      </trkpt>
      <trkpt lat="43.51543" lon="6.36991">
        <ele>228</ele>
        <time>2021-11-24T13:33:09.000Z</time>
      </trkpt>
      <trkpt lat="43.51542" lon="6.3699">
        <ele>228</ele>
        <time>2021-11-24T13:33:10.000Z</time>
      </trkpt>
      <trkpt lat="43.51542" lon="6.36989">
        <ele>228</ele>
        <time>2021-11-24T13:33:11.000Z</time>
      </trkpt>
      <trkpt lat="43.51542" lon="6.36987">
        <ele>228</ele>
        <time>2021-11-24T13:33:12.000Z</time>
      </trkpt>
      <trkpt lat="43.51542" lon="6.36986">
        <ele>228</ele>
        <time>2021-11-24T13:33:13.000Z</time>
      </trkpt>
      <trkpt lat="43.51542" lon="6.36985">
        <ele>228</ele>
        <time>2021-11-24T13:33:14.000Z</time>
      </trkpt>
      <trkpt lat="43.51542" lon="6.36984">
        <ele>229</ele>
        <time>2021-11-24T13:33:15.000Z</time>
      </trkpt>
      <trkpt lat="43.51543" lon="6.36982">
        <ele>229</ele>
        <time>2021-11-24T13:33:16.000Z</time>
      </trkpt>
      <trkpt lat="43.51543" lon="6.36981">
        <ele>229</ele>
        <time>2021-11-24T13:33:17.000Z</time>
      </trkpt>
      <trkpt lat="43.51544" lon="6.3698">
        <ele>229</ele>
        <time>2021-11-24T13:33:18.000Z</time>
      </trkpt>
      <trkpt lat="43.51545" lon="6.36979">
        <ele>229</ele>
        <time>2021-11-24T13:33:19.000Z</time>
      </trkpt>
      <trkpt lat="43.51545" lon="6.36978">
        <ele>229</ele>
        <time>2021-11-24T13:33:20.000Z</time>
      </trkpt>
      <trkpt lat="43.51545" lon="6.36978">
        <ele>229</ele>
        <time>2021-11-24T13:33:21.000Z</time>
      </trkpt>
      <trkpt lat="43.51545" lon="6.36978">
        <ele>229</ele>
        <time>2021-11-24T13:33:22.000Z</time>
      </trkpt>
      <trkpt lat="43.51545" lon="6.36978">
        <ele>229</ele>
        <time>2021-11-24T13:33:23.000Z</time>
      </trkpt>
      <trkpt lat="43.51545" lon="6.36979">
        <ele>229</ele>
        <time>2021-11-24T13:33:24.000Z</time>
      </trkpt>
      <trkpt lat="43.51544" lon="6.36979">
        <ele>229</ele>
        <time>2021-11-24T13:33:25.000Z</time>
      </trkpt>
      <trkpt lat="43.51544" lon="6.36979">
        <ele>229</ele>
        <time>2021-11-24T13:33:26.000Z</time>
      </trkpt>
      <trkpt lat="43.51544" lon="6.36979">
        <ele>229</ele>
        <time>2021-11-24T13:33:27.000Z</time>
      </trkpt>
      <trkpt lat="43.51543" lon="6.3698">
        <ele>229</ele>
        <time>2021-11-24T13:33:28.000Z</time>
      </trkpt>
      <trkpt lat="43.51543" lon="6.3698">
        <ele>229</ele>
        <time>2021-11-24T13:33:29.000Z</time>
      </trkpt>
      <trkpt lat="43.51542" lon="6.3698">
        <ele>229</ele>
        <time>2021-11-24T13:33:30.000Z</time>
      </trkpt>
      <trkpt lat="43.51542" lon="6.3698">
        <ele>229</ele>
        <time>2021-11-24T13:33:31.000Z</time>
      </trkpt>
      <trkpt lat="43.51542" lon="6.3698">
        <ele>229</ele>
        <time>2021-11-24T13:33:32.000Z</time>
      </trkpt>
      <trkpt lat="43.51542" lon="6.3698">
        <ele>229</ele>
        <time>2021-11-24T13:33:33.000Z</time>
      </trkpt>
      <trkpt lat="43.51541" lon="6.36981">
        <ele>229</ele>
        <time>2021-11-24T13:33:34.000Z</time>
      </trkpt>
      <trkpt lat="43.51541" lon="6.36982">
        <ele>229</ele>
        <time>2021-11-24T13:33:35.000Z</time>
      </trkpt>
      <trkpt lat="43.51541" lon="6.36982">
        <ele>229</ele>
        <time>2021-11-24T13:33:36.000Z</time>
      </trkpt>
      <trkpt lat="43.51541" lon="6.36982">
        <ele>229</ele>
        <time>2021-11-24T13:33:37.000Z</time>
      </trkpt>
      <trkpt lat="43.51541" lon="6.36982">
        <ele>229</ele>
        <time>2021-11-24T13:33:38.000Z</time>
      </trkpt>
      <trkpt lat="43.51541" lon="6.36982">
        <ele>229</ele>
        <time>2021-11-24T13:33:39.000Z</time>
      </trkpt>
      <trkpt lat="43.5154" lon="6.36983">
        <ele>229</ele>
        <time>2021-11-24T13:33:40.000Z</time>
      </trkpt>
      <trkpt lat="43.5154" lon="6.36983">
        <ele>229</ele>
        <time>2021-11-24T13:33:41.000Z</time>
      </trkpt>
      <trkpt lat="43.5154" lon="6.36983">
        <ele>229</ele>
        <time>2021-11-24T13:33:42.000Z</time>
      </trkpt>
      <trkpt lat="43.5154" lon="6.36983">
        <ele>229</ele>
        <time>2021-11-24T13:33:43.000Z</time>
      </trkpt>
      <trkpt lat="43.5154" lon="6.36983">
        <ele>229</ele>
        <time>2021-11-24T13:33:44.000Z</time>
      </trkpt>
      <trkpt lat="43.5154" lon="6.36983">
        <ele>229</ele>
        <time>2021-11-24T13:33:45.000Z</time>
      </trkpt>
      <trkpt lat="43.5154" lon="6.36983">
        <ele>229</ele>
        <time>2021-11-24T13:33:46.000Z</time>
      </trkpt>
      <trkpt lat="43.5154" lon="6.36983">
        <ele>229</ele>
        <time>2021-11-24T13:33:47.000Z</time>
      </trkpt>
      <trkpt lat="43.5154" lon="6.36984">
        <ele>229</ele>
        <time>2021-11-24T13:33:48.000Z</time>
      </trkpt>
      <trkpt lat="43.5154" lon="6.36984">
        <ele>229</ele>
        <time>2021-11-24T13:33:49.000Z</time>
      </trkpt>
      <trkpt lat="43.5154" lon="6.36984">
        <ele>229</ele>
        <time>2021-11-24T13:33:50.000Z</time>
      </trkpt>
      <trkpt lat="43.5154" lon="6.36984">
        <ele>229</ele>
        <time>2021-11-24T13:33:51.000Z</time>
      </trkpt>
      <trkpt lat="43.5154" lon="6.36984">
        <ele>229</ele>
        <time>2021-11-24T13:33:52.000Z</time>
      </trkpt>
      <trkpt lat="43.5154" lon="6.36984">
        <ele>229</ele>
        <time>2021-11-24T13:33:53.000Z</time>
      </trkpt>
      <trkpt lat="43.5154" lon="6.36984">
        <ele>229</ele>
        <time>2021-11-24T13:33:54.000Z</time>
      </trkpt>
      <trkpt lat="43.5154" lon="6.36984">
        <ele>229</ele>
        <time>2021-11-24T13:33:55.000Z</time>
      </trkpt>
      <trkpt lat="43.5154" lon="6.36984">
        <ele>229</ele>
        <time>2021-11-24T13:33:56.000Z</time>
      </trkpt>
      <trkpt lat="43.5154" lon="6.36984">
        <ele>229</ele>
        <time>2021-11-24T13:33:57.000Z</time>
      </trkpt>
      <trkpt lat="43.5154" lon="6.36984">
        <ele>229</ele>
        <time>2021-11-24T13:33:58.000Z</time>
      </trkpt>
      <trkpt lat="43.5154" lon="6.36984">
        <ele>229</ele>
        <time>2021-11-24T13:33:59.000Z</time>
      </trkpt>
      <trkpt lat="43.5154" lon="6.36984">
        <ele>229</ele>
        <time>2021-11-24T13:34:00.000Z</time>
      </trkpt>
      <trkpt lat="43.5154" lon="6.36984">
        <ele>229</ele>
        <time>2021-11-24T13:34:01.000Z</time>
      </trkpt>
      <trkpt lat="43.5154" lon="6.36984">
        <ele>229</ele>
        <time>2021-11-24T13:34:02.000Z</time>
      </trkpt>
      <trkpt lat="43.5154" lon="6.36984">
        <ele>229</ele>
        <time>2021-11-24T13:34:03.000Z</time>
      </trkpt>
      <trkpt lat="43.5154" lon="6.36984">
        <ele>229</ele>
        <time>2021-11-24T13:34:04.000Z</time>
      </trkpt>
      <trkpt lat="43.5154" lon="6.36984">
        <ele>229</ele>
        <time>2021-11-24T13:34:05.000Z</time>
      </trkpt>
      <trkpt lat="43.5154" lon="6.36984">
        <ele>229</ele>
        <time>2021-11-24T13:34:06.000Z</time>
      </trkpt>
      <trkpt lat="43.5154" lon="6.36984">
        <ele>229</ele>
        <time>2021-11-24T13:34:07.000Z</time>
      </trkpt>
      <trkpt lat="43.5154" lon="6.36984">
        <ele>229</ele>
        <time>2021-11-24T13:34:08.000Z</time>
      </trkpt>
      <trkpt lat="43.5154" lon="6.36984">
        <ele>229</ele>
        <time>2021-11-24T13:34:09.000Z</time>
      </trkpt>
      <trkpt lat="43.51541" lon="6.36984">
        <ele>229</ele>
        <time>2021-11-24T13:34:10.000Z</time>
      </trkpt>
      <trkpt lat="43.51541" lon="6.36985">
        <ele>229</ele>
        <time>2021-11-24T13:34:11.000Z</time>
      </trkpt>
      <trkpt lat="43.51542" lon="6.36985">
        <ele>229</ele>
        <time>2021-11-24T13:34:12.000Z</time>
      </trkpt>
      <trkpt lat="43.51542" lon="6.36986">
        <ele>229</ele>
        <time>2021-11-24T13:34:13.000Z</time>
      </trkpt>
      <trkpt lat="43.51543" lon="6.36986">
        <ele>229</ele>
        <time>2021-11-24T13:34:14.000Z</time>
      </trkpt>
      <trkpt lat="43.51543" lon="6.36987">
        <ele>229</ele>
        <time>2021-11-24T13:34:15.000Z</time>
      </trkpt>
      <trkpt lat="43.51544" lon="6.36987">
        <ele>229</ele>
        <time>2021-11-24T13:34:16.000Z</time>
      </trkpt>
      <trkpt lat="43.51544" lon="6.36987">
        <ele>229</ele>
        <time>2021-11-24T13:34:17.000Z</time>
      </trkpt>
      <trkpt lat="43.51545" lon="6.36988">
        <ele>229</ele>
        <time>2021-11-24T13:34:18.000Z</time>
      </trkpt>
      <trkpt lat="43.51545" lon="6.36988">
        <ele>229</ele>
        <time>2021-11-24T13:34:19.000Z</time>
      </trkpt>
      <trkpt lat="43.51545" lon="6.36988">
        <ele>229</ele>
        <time>2021-11-24T13:34:20.000Z</time>
      </trkpt>
      <trkpt lat="43.51545" lon="6.36988">
        <ele>229</ele>
        <time>2021-11-24T13:34:21.000Z</time>
      </trkpt>
      <trkpt lat="43.51545" lon="6.36988">
        <ele>229</ele>
        <time>2021-11-24T13:34:22.000Z</time>
      </trkpt>
      <trkpt lat="43.51546" lon="6.36988">
        <ele>229</ele>
        <time>2021-11-24T13:34:23.000Z</time>
      </trkpt>
      <trkpt lat="43.51546" lon="6.36988">
        <ele>229</ele>
        <time>2021-11-24T13:34:24.000Z</time>
      </trkpt>
      <trkpt lat="43.51546" lon="6.36988">
        <ele>229</ele>
        <time>2021-11-24T13:34:25.000Z</time>
      </trkpt>
      <trkpt lat="43.51546" lon="6.36988">
        <ele>229</ele>
        <time>2021-11-24T13:34:26.000Z</time>
      </trkpt>
      <trkpt lat="43.51546" lon="6.36988">
        <ele>229</ele>
        <time>2021-11-24T13:34:27.000Z</time>
      </trkpt>
      <trkpt lat="43.51546" lon="6.36988">
        <ele>229</ele>
        <time>2021-11-24T13:34:28.000Z</time>
      </trkpt>
      <trkpt lat="43.51546" lon="6.36988">
        <ele>229</ele>
        <time>2021-11-24T13:34:29.000Z</time>
      </trkpt>
      <trkpt lat="43.51546" lon="6.36988">
        <ele>229</ele>
        <time>2021-11-24T13:34:30.000Z</time>
      </trkpt>
      <trkpt lat="43.51546" lon="6.36988">
        <ele>229</ele>
        <time>2021-11-24T13:34:31.000Z</time>
      </trkpt>
      <trkpt lat="43.51546" lon="6.36988">
        <ele>229</ele>
        <time>2021-11-24T13:34:32.000Z</time>
      </trkpt>
      <trkpt lat="43.51546" lon="6.36988">
        <ele>229</ele>
        <time>2021-11-24T13:34:33.000Z</time>
      </trkpt>
      <trkpt lat="43.51546" lon="6.36988">
        <ele>229</ele>
        <time>2021-11-24T13:34:34.000Z</time>
      </trkpt>
      <trkpt lat="43.51546" lon="6.36988">
        <ele>229</ele>
        <time>2021-11-24T13:34:35.000Z</time>
      </trkpt>
      <trkpt lat="43.51546" lon="6.36988">
        <ele>229</ele>
        <time>2021-11-24T13:34:36.000Z</time>
      </trkpt>
      <trkpt lat="43.51546" lon="6.36988">
        <ele>229</ele>
        <time>2021-11-24T13:34:37.000Z</time>
      </trkpt>
      <trkpt lat="43.51546" lon="6.36988">
        <ele>229</ele>
        <time>2021-11-24T13:34:38.000Z</time>
      </trkpt>
      <trkpt lat="43.51546" lon="6.36988">
        <ele>229</ele>
        <time>2021-11-24T13:34:39.000Z</time>
      </trkpt>
      <trkpt lat="43.51546" lon="6.36988">
        <ele>229</ele>
        <time>2021-11-24T13:34:40.000Z</time>
      </trkpt>
      <trkpt lat="43.51546" lon="6.36988">
        <ele>229</ele>
        <time>2021-11-24T13:34:41.000Z</time>
      </trkpt>
      <trkpt lat="43.51546" lon="6.36988">
        <ele>229</ele>
        <time>2021-11-24T13:34:42.000Z</time>
      </trkpt>
      <trkpt lat="43.51546" lon="6.36988">
        <ele>229</ele>
        <time>2021-11-24T13:34:43.000Z</time>
      </trkpt>
      <trkpt lat="43.51546" lon="6.36988">
        <ele>229</ele>
        <time>2021-11-24T13:34:44.000Z</time>
      </trkpt>
      <trkpt lat="43.51546" lon="6.36988">
        <ele>229</ele>
        <time>2021-11-24T13:34:45.000Z</time>
      </trkpt>
      <trkpt lat="43.51546" lon="6.36988">
        <ele>229</ele>
        <time>2021-11-24T13:34:46.000Z</time>
      </trkpt>
      <trkpt lat="43.51546" lon="6.36988">
        <ele>229</ele>
        <time>2021-11-24T13:34:47.000Z</time>
      </trkpt>
      <trkpt lat="43.51546" lon="6.36988">
        <ele>229</ele>
        <time>2021-11-24T13:34:48.000Z</time>
      </trkpt>
      <trkpt lat="43.51546" lon="6.36988">
        <ele>229</ele>
        <time>2021-11-24T13:34:49.000Z</time>
      </trkpt>
      <trkpt lat="43.51546" lon="6.36988">
        <ele>229</ele>
        <time>2021-11-24T13:34:50.000Z</time>
      </trkpt>
      <trkpt lat="43.51546" lon="6.36988">
        <ele>229</ele>
        <time>2021-11-24T13:34:51.000Z</time>
      </trkpt>
      <trkpt lat="43.51546" lon="6.36988">
        <ele>229</ele>
        <time>2021-11-24T13:34:52.000Z</time>
      </trkpt>
      <trkpt lat="43.51546" lon="6.36988">
        <ele>229</ele>
        <time>2021-11-24T13:34:53.000Z</time>
      </trkpt>
      <trkpt lat="43.51546" lon="6.36988">
        <ele>229</ele>
        <time>2021-11-24T13:34:54.000Z</time>
      </trkpt>
      <trkpt lat="43.51546" lon="6.36988">
        <ele>229</ele>
        <time>2021-11-24T13:34:55.000Z</time>
      </trkpt>
      <trkpt lat="43.51546" lon="6.36988">
        <ele>229</ele>
        <time>2021-11-24T13:34:56.000Z</time>
      </trkpt>
      <trkpt lat="43.51546" lon="6.36988">
        <ele>229</ele>
        <time>2021-11-24T13:34:57.000Z</time>
      </trkpt>
      <trkpt lat="43.51546" lon="6.36988">
        <ele>229</ele>
        <time>2021-11-24T13:34:58.000Z</time>
      </trkpt>
      <trkpt lat="43.51546" lon="6.36988">
        <ele>229</ele>
        <time>2021-11-24T13:34:59.000Z</time>
      </trkpt>
      <trkpt lat="43.51546" lon="6.36988">
        <ele>229</ele>
        <time>2021-11-24T13:35:00.000Z</time>
      </trkpt>
      <trkpt lat="43.51546" lon="6.36988">
        <ele>229</ele>
        <time>2021-11-24T13:35:01.000Z</time>
      </trkpt>
      <trkpt lat="43.51546" lon="6.36988">
        <ele>229</ele>
        <time>2021-11-24T13:35:02.000Z</time>
      </trkpt>
      <trkpt lat="43.51546" lon="6.36988">
        <ele>229</ele>
        <time>2021-11-24T13:35:03.000Z</time>
      </trkpt>
      <trkpt lat="43.51546" lon="6.36988">
        <ele>229</ele>
        <time>2021-11-24T13:35:04.000Z</time>
      </trkpt>
      <trkpt lat="43.51546" lon="6.36988">
        <ele>229</ele>
        <time>2021-11-24T13:35:05.000Z</time>
      </trkpt>
      <trkpt lat="43.51546" lon="6.36988">
        <ele>229</ele>
        <time>2021-11-24T13:35:06.000Z</time>
      </trkpt>
      <trkpt lat="43.51546" lon="6.36988">
        <ele>229</ele>
        <time>2021-11-24T13:35:07.000Z</time>
      </trkpt>
      <trkpt lat="43.51546" lon="6.36989">
        <ele>229</ele>
        <time>2021-11-24T13:35:08.000Z</time>
      </trkpt>
      <trkpt lat="43.51547" lon="6.36989">
        <ele>229</ele>
        <time>2021-11-24T13:35:09.000Z</time>
      </trkpt>
      <trkpt lat="43.51547" lon="6.36989">
        <ele>229</ele>
        <time>2021-11-24T13:35:10.000Z</time>
      </trkpt>
      <trkpt lat="43.51547" lon="6.36989">
        <ele>229</ele>
        <time>2021-11-24T13:35:11.000Z</time>
      </trkpt>
      <trkpt lat="43.51547" lon="6.36989">
        <ele>229</ele>
        <time>2021-11-24T13:35:12.000Z</time>
      </trkpt>
      <trkpt lat="43.51547" lon="6.36989">
        <ele>229</ele>
        <time>2021-11-24T13:35:13.000Z</time>
      </trkpt>
      <trkpt lat="43.51547" lon="6.36989">
        <ele>229</ele>
        <time>2021-11-24T13:35:14.000Z</time>
      </trkpt>
      <trkpt lat="43.51547" lon="6.36989">
        <ele>229</ele>
        <time>2021-11-24T13:35:15.000Z</time>
      </trkpt>
      <trkpt lat="43.51547" lon="6.36989">
        <ele>229</ele>
        <time>2021-11-24T13:35:16.000Z</time>
      </trkpt>
      <trkpt lat="43.51547" lon="6.36989">
        <ele>229</ele>
        <time>2021-11-24T13:35:17.000Z</time>
      </trkpt>
      <trkpt lat="43.51547" lon="6.36989">
        <ele>229</ele>
        <time>2021-11-24T13:35:18.000Z</time>
      </trkpt>
      <trkpt lat="43.51547" lon="6.36989">
        <ele>229</ele>
        <time>2021-11-24T13:35:19.000Z</time>
      </trkpt>
      <trkpt lat="43.51547" lon="6.36989">
        <ele>229</ele>
        <time>2021-11-24T13:35:20.000Z</time>
      </trkpt>
      <trkpt lat="43.51546" lon="6.36989">
        <ele>229</ele>
        <time>2021-11-24T13:35:21.000Z</time>
      </trkpt>
      <trkpt lat="43.51546" lon="6.36989">
        <ele>229</ele>
        <time>2021-11-24T13:35:22.000Z</time>
      </trkpt>
      <trkpt lat="43.51546" lon="6.36989">
        <ele>229</ele>
        <time>2021-11-24T13:35:23.000Z</time>
      </trkpt>
      <trkpt lat="43.51546" lon="6.36989">
        <ele>229</ele>
        <time>2021-11-24T13:35:24.000Z</time>
      </trkpt>
      <trkpt lat="43.51547" lon="6.36989">
        <ele>229</ele>
        <time>2021-11-24T13:35:25.000Z</time>
      </trkpt>
      <trkpt lat="43.51548" lon="6.3699">
        <ele>229</ele>
        <time>2021-11-24T13:35:26.000Z</time>
      </trkpt>
      <trkpt lat="43.51549" lon="6.3699">
        <ele>229</ele>
        <time>2021-11-24T13:35:27.000Z</time>
      </trkpt>
      <trkpt lat="43.5155" lon="6.3699">
        <ele>229</ele>
        <time>2021-11-24T13:35:28.000Z</time>
      </trkpt>
      <trkpt lat="43.51551" lon="6.36991">
        <ele>230</ele>
        <time>2021-11-24T13:35:29.000Z</time>
      </trkpt>
      <trkpt lat="43.51552" lon="6.36992">
        <ele>230</ele>
        <time>2021-11-24T13:35:30.000Z</time>
      </trkpt>
      <trkpt lat="43.51555" lon="6.36994">
        <ele>231</ele>
        <time>2021-11-24T13:35:31.000Z</time>
      </trkpt>
      <trkpt lat="43.51558" lon="6.36995">
        <ele>231</ele>
        <time>2021-11-24T13:35:32.000Z</time>
      </trkpt>
      <trkpt lat="43.5156" lon="6.36995">
        <ele>231</ele>
        <time>2021-11-24T13:35:33.000Z</time>
      </trkpt>
      <trkpt lat="43.51562" lon="6.36995">
        <ele>231</ele>
        <time>2021-11-24T13:35:34.000Z</time>
      </trkpt>
      <trkpt lat="43.51564" lon="6.36995">
        <ele>231</ele>
        <time>2021-11-24T13:35:35.000Z</time>
      </trkpt>
      <trkpt lat="43.51565" lon="6.36995">
        <ele>231</ele>
        <time>2021-11-24T13:35:36.000Z</time>
      </trkpt>
      <trkpt lat="43.51566" lon="6.36995">
        <ele>231</ele>
        <time>2021-11-24T13:35:37.000Z</time>
      </trkpt>
      <trkpt lat="43.51567" lon="6.36995">
        <ele>231</ele>
        <time>2021-11-24T13:35:38.000Z</time>
      </trkpt>
      <trkpt lat="43.51568" lon="6.36995">
        <ele>231</ele>
        <time>2021-11-24T13:35:39.000Z</time>
      </trkpt>
      <trkpt lat="43.51568" lon="6.36995">
        <ele>231</ele>
        <time>2021-11-24T13:35:40.000Z</time>
      </trkpt>
      <trkpt lat="43.51569" lon="6.36996">
        <ele>231</ele>
        <time>2021-11-24T13:35:41.000Z</time>
      </trkpt>
      <trkpt lat="43.5157" lon="6.36997">
        <ele>231</ele>
        <time>2021-11-24T13:35:42.000Z</time>
      </trkpt>
      <trkpt lat="43.5157" lon="6.36998">
        <ele>231</ele>
        <time>2021-11-24T13:35:43.000Z</time>
      </trkpt>
      <trkpt lat="43.51572" lon="6.36999">
        <ele>231</ele>
        <time>2021-11-24T13:35:44.000Z</time>
      </trkpt>
      <trkpt lat="43.51572" lon="6.37">
        <ele>231</ele>
        <time>2021-11-24T13:35:45.000Z</time>
      </trkpt>
      <trkpt lat="43.51573" lon="6.37001">
        <ele>231</ele>
        <time>2021-11-24T13:35:46.000Z</time>
      </trkpt>
      <trkpt lat="43.51573" lon="6.37001">
        <ele>231</ele>
        <time>2021-11-24T13:35:47.000Z</time>
      </trkpt>
      <trkpt lat="43.51574" lon="6.37002">
        <ele>231</ele>
        <time>2021-11-24T13:35:48.000Z</time>
      </trkpt>
      <trkpt lat="43.51574" lon="6.37002">
        <ele>231</ele>
        <time>2021-11-24T13:35:49.000Z</time>
      </trkpt>
      <trkpt lat="43.51574" lon="6.37002">
        <ele>231</ele>
        <time>2021-11-24T13:35:50.000Z</time>
      </trkpt>
      <trkpt lat="43.51575" lon="6.37002">
        <ele>231</ele>
        <time>2021-11-24T13:35:51.000Z</time>
      </trkpt>
      <trkpt lat="43.51575" lon="6.37003">
        <ele>231</ele>
        <time>2021-11-24T13:35:52.000Z</time>
      </trkpt>
      <trkpt lat="43.51576" lon="6.37003">
        <ele>231</ele>
        <time>2021-11-24T13:35:53.000Z</time>
      </trkpt>
      <trkpt lat="43.51577" lon="6.37003">
        <ele>231</ele>
        <time>2021-11-24T13:35:54.000Z</time>
      </trkpt>
      <trkpt lat="43.51578" lon="6.37002">
        <ele>231</ele>
        <time>2021-11-24T13:35:55.000Z</time>
      </trkpt>
      <trkpt lat="43.51579" lon="6.37002">
        <ele>231</ele>
        <time>2021-11-24T13:35:56.000Z</time>
      </trkpt>
      <trkpt lat="43.5158" lon="6.37001">
        <ele>231</ele>
        <time>2021-11-24T13:35:57.000Z</time>
      </trkpt>
      <trkpt lat="43.51581" lon="6.37001">
        <ele>231</ele>
        <time>2021-11-24T13:35:58.000Z</time>
      </trkpt>
      <trkpt lat="43.51582" lon="6.37">
        <ele>231</ele>
        <time>2021-11-24T13:35:59.000Z</time>
      </trkpt>
      <trkpt lat="43.51583" lon="6.37">
        <ele>231</ele>
        <time>2021-11-24T13:36:00.000Z</time>
      </trkpt>
      <trkpt lat="43.51584" lon="6.37">
        <ele>231</ele>
        <time>2021-11-24T13:36:01.000Z</time>
      </trkpt>
      <trkpt lat="43.51584" lon="6.37">
        <ele>231</ele>
        <time>2021-11-24T13:36:02.000Z</time>
      </trkpt>
      <trkpt lat="43.51585" lon="6.37">
        <ele>231</ele>
        <time>2021-11-24T13:36:03.000Z</time>
      </trkpt>
      <trkpt lat="43.51585" lon="6.37">
        <ele>231</ele>
        <time>2021-11-24T13:36:04.000Z</time>
      </trkpt>
      <trkpt lat="43.51585" lon="6.37">
        <ele>231</ele>
        <time>2021-11-24T13:36:05.000Z</time>
      </trkpt>
      <trkpt lat="43.51585" lon="6.37">
        <ele>231</ele>
        <time>2021-11-24T13:36:06.000Z</time>
      </trkpt>
      <trkpt lat="43.51586" lon="6.37">
        <ele>231</ele>
        <time>2021-11-24T13:36:07.000Z</time>
      </trkpt>
      <trkpt lat="43.51586" lon="6.37">
        <ele>232</ele>
        <time>2021-11-24T13:36:08.000Z</time>
      </trkpt>
      <trkpt lat="43.51587" lon="6.37">
        <ele>232</ele>
        <time>2021-11-24T13:36:09.000Z</time>
      </trkpt>
      <trkpt lat="43.51587" lon="6.36999">
        <ele>232</ele>
        <time>2021-11-24T13:36:10.000Z</time>
      </trkpt>
      <trkpt lat="43.51587" lon="6.36999">
        <ele>232</ele>
        <time>2021-11-24T13:36:11.000Z</time>
      </trkpt>
      <trkpt lat="43.51588" lon="6.36998">
        <ele>232</ele>
        <time>2021-11-24T13:36:12.000Z</time>
      </trkpt>
      <trkpt lat="43.51588" lon="6.36997">
        <ele>233</ele>
        <time>2021-11-24T13:36:13.000Z</time>
      </trkpt>
      <trkpt lat="43.51589" lon="6.36996">
        <ele>233</ele>
        <time>2021-11-24T13:36:14.000Z</time>
      </trkpt>
      <trkpt lat="43.51589" lon="6.36995">
        <ele>233</ele>
        <time>2021-11-24T13:36:15.000Z</time>
      </trkpt>
      <trkpt lat="43.5159" lon="6.36993">
        <ele>232</ele>
        <time>2021-11-24T13:36:16.000Z</time>
      </trkpt>
      <trkpt lat="43.5159" lon="6.36992">
        <ele>232</ele>
        <time>2021-11-24T13:36:17.000Z</time>
      </trkpt>
      <trkpt lat="43.5159" lon="6.36991">
        <ele>232</ele>
        <time>2021-11-24T13:36:18.000Z</time>
      </trkpt>
      <trkpt lat="43.51591" lon="6.3699">
        <ele>232</ele>
        <time>2021-11-24T13:36:19.000Z</time>
      </trkpt>
      <trkpt lat="43.51591" lon="6.36989">
        <ele>232</ele>
        <time>2021-11-24T13:36:20.000Z</time>
      </trkpt>
      <trkpt lat="43.51591" lon="6.36988">
        <ele>232</ele>
        <time>2021-11-24T13:36:21.000Z</time>
      </trkpt>
      <trkpt lat="43.51591" lon="6.36988">
        <ele>232</ele>
        <time>2021-11-24T13:36:22.000Z</time>
      </trkpt>
      <trkpt lat="43.51591" lon="6.36987">
        <ele>232</ele>
        <time>2021-11-24T13:36:23.000Z</time>
      </trkpt>
      <trkpt lat="43.51591" lon="6.36986">
        <ele>231</ele>
        <time>2021-11-24T13:36:24.000Z</time>
      </trkpt>
      <trkpt lat="43.51591" lon="6.36985">
        <ele>231</ele>
        <time>2021-11-24T13:36:25.000Z</time>
      </trkpt>
      <trkpt lat="43.5159" lon="6.36984">
        <ele>231</ele>
        <time>2021-11-24T13:36:26.000Z</time>
      </trkpt>
      <trkpt lat="43.5159" lon="6.36983">
        <ele>231</ele>
        <time>2021-11-24T13:36:27.000Z</time>
      </trkpt>
      <trkpt lat="43.51589" lon="6.36982">
        <ele>232</ele>
        <time>2021-11-24T13:36:28.000Z</time>
      </trkpt>
      <trkpt lat="43.51589" lon="6.36981">
        <ele>232</ele>
        <time>2021-11-24T13:36:29.000Z</time>
      </trkpt>
      <trkpt lat="43.51588" lon="6.3698">
        <ele>232</ele>
        <time>2021-11-24T13:36:30.000Z</time>
      </trkpt>
      <trkpt lat="43.51588" lon="6.36979">
        <ele>232</ele>
        <time>2021-11-24T13:36:31.000Z</time>
      </trkpt>
      <trkpt lat="43.51587" lon="6.36978">
        <ele>232</ele>
        <time>2021-11-24T13:36:32.000Z</time>
      </trkpt>
      <trkpt lat="43.51586" lon="6.36977">
        <ele>232</ele>
        <time>2021-11-24T13:36:33.000Z</time>
      </trkpt>
      <trkpt lat="43.51585" lon="6.36976">
        <ele>232</ele>
        <time>2021-11-24T13:36:34.000Z</time>
      </trkpt>
      <trkpt lat="43.51583" lon="6.36974">
        <ele>232</ele>
        <time>2021-11-24T13:36:35.000Z</time>
      </trkpt>
      <trkpt lat="43.51582" lon="6.36972">
        <ele>232</ele>
        <time>2021-11-24T13:36:36.000Z</time>
      </trkpt>
      <trkpt lat="43.51581" lon="6.36971">
        <ele>232</ele>
        <time>2021-11-24T13:36:37.000Z</time>
      </trkpt>
      <trkpt lat="43.51581" lon="6.36971">
        <ele>232</ele>
        <time>2021-11-24T13:36:38.000Z</time>
      </trkpt>
      <trkpt lat="43.5158" lon="6.3697">
        <ele>233</ele>
        <time>2021-11-24T13:36:39.000Z</time>
      </trkpt>
      <trkpt lat="43.5158" lon="6.36969">
        <ele>233</ele>
        <time>2021-11-24T13:36:40.000Z</time>
      </trkpt>
      <trkpt lat="43.51579" lon="6.36969">
        <ele>233</ele>
        <time>2021-11-24T13:36:41.000Z</time>
      </trkpt>
      <trkpt lat="43.51578" lon="6.36968">
        <ele>233</ele>
        <time>2021-11-24T13:36:42.000Z</time>
      </trkpt>
      <trkpt lat="43.51577" lon="6.36967">
        <ele>233</ele>
        <time>2021-11-24T13:36:43.000Z</time>
      </trkpt>
      <trkpt lat="43.51576" lon="6.36966">
        <ele>233</ele>
        <time>2021-11-24T13:36:44.000Z</time>
      </trkpt>
      <trkpt lat="43.51576" lon="6.36965">
        <ele>233</ele>
        <time>2021-11-24T13:36:45.000Z</time>
      </trkpt>
      <trkpt lat="43.51575" lon="6.36965">
        <ele>233</ele>
        <time>2021-11-24T13:36:46.000Z</time>
      </trkpt>
      <trkpt lat="43.51574" lon="6.36964">
        <ele>233</ele>
        <time>2021-11-24T13:36:47.000Z</time>
      </trkpt>
      <trkpt lat="43.51574" lon="6.36963">
        <ele>233</ele>
        <time>2021-11-24T13:36:48.000Z</time>
      </trkpt>
      <trkpt lat="43.51573" lon="6.36962">
        <ele>233</ele>
        <time>2021-11-24T13:36:49.000Z</time>
      </trkpt>
      <trkpt lat="43.51572" lon="6.3696">
        <ele>233</ele>
        <time>2021-11-24T13:36:50.000Z</time>
      </trkpt>
      <trkpt lat="43.51572" lon="6.36959">
        <ele>233</ele>
        <time>2021-11-24T13:36:51.000Z</time>
      </trkpt>
      <trkpt lat="43.51571" lon="6.36958">
        <ele>233</ele>
        <time>2021-11-24T13:36:52.000Z</time>
      </trkpt>
      <trkpt lat="43.51571" lon="6.36957">
        <ele>233</ele>
        <time>2021-11-24T13:36:53.000Z</time>
      </trkpt>
      <trkpt lat="43.5157" lon="6.36956">
        <ele>233</ele>
        <time>2021-11-24T13:36:54.000Z</time>
      </trkpt>
      <trkpt lat="43.51569" lon="6.36955">
        <ele>234</ele>
        <time>2021-11-24T13:36:55.000Z</time>
      </trkpt>
      <trkpt lat="43.51569" lon="6.36954">
        <ele>234</ele>
        <time>2021-11-24T13:36:56.000Z</time>
      </trkpt>
      <trkpt lat="43.51568" lon="6.36953">
        <ele>233</ele>
        <time>2021-11-24T13:36:57.000Z</time>
      </trkpt>
      <trkpt lat="43.51568" lon="6.36953">
        <ele>233</ele>
        <time>2021-11-24T13:36:58.000Z</time>
      </trkpt>
      <trkpt lat="43.51568" lon="6.36952">
        <ele>233</ele>
        <time>2021-11-24T13:36:59.000Z</time>
      </trkpt>
      <trkpt lat="43.51567" lon="6.36951">
        <ele>233</ele>
        <time>2021-11-24T13:37:00.000Z</time>
      </trkpt>
      <trkpt lat="43.51566" lon="6.3695">
        <ele>233</ele>
        <time>2021-11-24T13:37:01.000Z</time>
      </trkpt>
      <trkpt lat="43.51566" lon="6.36949">
        <ele>233</ele>
        <time>2021-11-24T13:37:02.000Z</time>
      </trkpt>
      <trkpt lat="43.51565" lon="6.36949">
        <ele>233</ele>
        <time>2021-11-24T13:37:03.000Z</time>
      </trkpt>
      <trkpt lat="43.51565" lon="6.36948">
        <ele>233</ele>
        <time>2021-11-24T13:37:04.000Z</time>
      </trkpt>
      <trkpt lat="43.51564" lon="6.36947">
        <ele>233</ele>
        <time>2021-11-24T13:37:05.000Z</time>
      </trkpt>
      <trkpt lat="43.51563" lon="6.36944">
        <ele>233</ele>
        <time>2021-11-24T13:37:06.000Z</time>
      </trkpt>
      <trkpt lat="43.51562" lon="6.36941">
        <ele>233</ele>
        <time>2021-11-24T13:37:07.000Z</time>
      </trkpt>
      <trkpt lat="43.51561" lon="6.36938">
        <ele>234</ele>
        <time>2021-11-24T13:37:08.000Z</time>
      </trkpt>
      <trkpt lat="43.51561" lon="6.36936">
        <ele>234</ele>
        <time>2021-11-24T13:37:09.000Z</time>
      </trkpt>
      <trkpt lat="43.51561" lon="6.36934">
        <ele>234</ele>
        <time>2021-11-24T13:37:10.000Z</time>
      </trkpt>
      <trkpt lat="43.51561" lon="6.36932">
        <ele>235</ele>
        <time>2021-11-24T13:37:11.000Z</time>
      </trkpt>
      <trkpt lat="43.51561" lon="6.3693">
        <ele>235</ele>
        <time>2021-11-24T13:37:12.000Z</time>
      </trkpt>
      <trkpt lat="43.51561" lon="6.36929">
        <ele>235</ele>
        <time>2021-11-24T13:37:13.000Z</time>
      </trkpt>
      <trkpt lat="43.51561" lon="6.36927">
        <ele>235</ele>
        <time>2021-11-24T13:37:14.000Z</time>
      </trkpt>
      <trkpt lat="43.51561" lon="6.36926">
        <ele>235</ele>
        <time>2021-11-24T13:37:15.000Z</time>
      </trkpt>
      <trkpt lat="43.51561" lon="6.36925">
        <ele>235</ele>
        <time>2021-11-24T13:37:16.000Z</time>
      </trkpt>
      <trkpt lat="43.51561" lon="6.36924">
        <ele>235</ele>
        <time>2021-11-24T13:37:17.000Z</time>
      </trkpt>
      <trkpt lat="43.51561" lon="6.36923">
        <ele>235</ele>
        <time>2021-11-24T13:37:18.000Z</time>
      </trkpt>
      <trkpt lat="43.51561" lon="6.36922">
        <ele>235</ele>
        <time>2021-11-24T13:37:19.000Z</time>
      </trkpt>
      <trkpt lat="43.51561" lon="6.36921">
        <ele>235</ele>
        <time>2021-11-24T13:37:20.000Z</time>
      </trkpt>
      <trkpt lat="43.51561" lon="6.3692">
        <ele>235</ele>
        <time>2021-11-24T13:37:21.000Z</time>
      </trkpt>
      <trkpt lat="43.51562" lon="6.3692">
        <ele>235</ele>
        <time>2021-11-24T13:37:22.000Z</time>
      </trkpt>
      <trkpt lat="43.51562" lon="6.36919">
        <ele>235</ele>
        <time>2021-11-24T13:37:23.000Z</time>
      </trkpt>
      <trkpt lat="43.51562" lon="6.36918">
        <ele>235</ele>
        <time>2021-11-24T13:37:24.000Z</time>
      </trkpt>
      <trkpt lat="43.51562" lon="6.36917">
        <ele>235</ele>
        <time>2021-11-24T13:37:25.000Z</time>
      </trkpt>
      <trkpt lat="43.51563" lon="6.36917">
        <ele>235</ele>
        <time>2021-11-24T13:37:26.000Z</time>
      </trkpt>
      <trkpt lat="43.51563" lon="6.36916">
        <ele>235</ele>
        <time>2021-11-24T13:37:27.000Z</time>
      </trkpt>
      <trkpt lat="43.51563" lon="6.36915">
        <ele>235</ele>
        <time>2021-11-24T13:37:28.000Z</time>
      </trkpt>
      <trkpt lat="43.51563" lon="6.36914">
        <ele>235</ele>
        <time>2021-11-24T13:37:29.000Z</time>
      </trkpt>
      <trkpt lat="43.51563" lon="6.36913">
        <ele>235</ele>
        <time>2021-11-24T13:37:30.000Z</time>
      </trkpt>
      <trkpt lat="43.51563" lon="6.36912">
        <ele>235</ele>
        <time>2021-11-24T13:37:31.000Z</time>
      </trkpt>
      <trkpt lat="43.51563" lon="6.36911">
        <ele>234</ele>
        <time>2021-11-24T13:37:32.000Z</time>
      </trkpt>
      <trkpt lat="43.51564" lon="6.36909">
        <ele>234</ele>
        <time>2021-11-24T13:37:33.000Z</time>
      </trkpt>
      <trkpt lat="43.51564" lon="6.36907">
        <ele>233</ele>
        <time>2021-11-24T13:37:34.000Z</time>
      </trkpt>
      <trkpt lat="43.51564" lon="6.36906">
        <ele>233</ele>
        <time>2021-11-24T13:37:35.000Z</time>
      </trkpt>
      <trkpt lat="43.51563" lon="6.36905">
        <ele>233</ele>
        <time>2021-11-24T13:37:36.000Z</time>
      </trkpt>
      <trkpt lat="43.51562" lon="6.36905">
        <ele>233</ele>
        <time>2021-11-24T13:37:37.000Z</time>
      </trkpt>
      <trkpt lat="43.51562" lon="6.36904">
        <ele>233</ele>
        <time>2021-11-24T13:37:38.000Z</time>
      </trkpt>
      <trkpt lat="43.51562" lon="6.36904">
        <ele>233</ele>
        <time>2021-11-24T13:37:39.000Z</time>
      </trkpt>
      <trkpt lat="43.51562" lon="6.36904">
        <ele>232</ele>
        <time>2021-11-24T13:37:40.000Z</time>
      </trkpt>
      <trkpt lat="43.51562" lon="6.36903">
        <ele>232</ele>
        <time>2021-11-24T13:37:41.000Z</time>
      </trkpt>
      <trkpt lat="43.51562" lon="6.36902">
        <ele>232</ele>
        <time>2021-11-24T13:37:42.000Z</time>
      </trkpt>
      <trkpt lat="43.51563" lon="6.36901">
        <ele>232</ele>
        <time>2021-11-24T13:37:43.000Z</time>
      </trkpt>
      <trkpt lat="43.51563" lon="6.36901">
        <ele>232</ele>
        <time>2021-11-24T13:37:44.000Z</time>
      </trkpt>
      <trkpt lat="43.51563" lon="6.369">
        <ele>232</ele>
        <time>2021-11-24T13:37:45.000Z</time>
      </trkpt>
      <trkpt lat="43.51563" lon="6.369">
        <ele>232</ele>
        <time>2021-11-24T13:37:46.000Z</time>
      </trkpt>
      <trkpt lat="43.51563" lon="6.36899">
        <ele>232</ele>
        <time>2021-11-24T13:37:47.000Z</time>
      </trkpt>
      <trkpt lat="43.51563" lon="6.36898">
        <ele>232</ele>
        <time>2021-11-24T13:37:48.000Z</time>
      </trkpt>
      <trkpt lat="43.51563" lon="6.36898">
        <ele>232</ele>
        <time>2021-11-24T13:37:49.000Z</time>
      </trkpt>
      <trkpt lat="43.51563" lon="6.36897">
        <ele>232</ele>
        <time>2021-11-24T13:37:50.000Z</time>
      </trkpt>
      <trkpt lat="43.51563" lon="6.36896">
        <ele>231</ele>
        <time>2021-11-24T13:37:51.000Z</time>
      </trkpt>
      <trkpt lat="43.51563" lon="6.36895">
        <ele>231</ele>
        <time>2021-11-24T13:37:52.000Z</time>
      </trkpt>
      <trkpt lat="43.51564" lon="6.36894">
        <ele>232</ele>
        <time>2021-11-24T13:37:53.000Z</time>
      </trkpt>
      <trkpt lat="43.51564" lon="6.36894">
        <ele>232</ele>
        <time>2021-11-24T13:37:54.000Z</time>
      </trkpt>
      <trkpt lat="43.51564" lon="6.36893">
        <ele>232</ele>
        <time>2021-11-24T13:37:55.000Z</time>
      </trkpt>
      <trkpt lat="43.51564" lon="6.36892">
        <ele>232</ele>
        <time>2021-11-24T13:37:56.000Z</time>
      </trkpt>
      <trkpt lat="43.51564" lon="6.36891">
        <ele>232</ele>
        <time>2021-11-24T13:37:57.000Z</time>
      </trkpt>
      <trkpt lat="43.51564" lon="6.3689">
        <ele>232</ele>
        <time>2021-11-24T13:37:58.000Z</time>
      </trkpt>
      <trkpt lat="43.51565" lon="6.3689">
        <ele>232</ele>
        <time>2021-11-24T13:37:59.000Z</time>
      </trkpt>
      <trkpt lat="43.51565" lon="6.36889">
        <ele>232</ele>
        <time>2021-11-24T13:38:00.000Z</time>
      </trkpt>
      <trkpt lat="43.51565" lon="6.36888">
        <ele>232</ele>
        <time>2021-11-24T13:38:01.000Z</time>
      </trkpt>
      <trkpt lat="43.51565" lon="6.36886">
        <ele>232</ele>
        <time>2021-11-24T13:38:02.000Z</time>
      </trkpt>
      <trkpt lat="43.51566" lon="6.36884">
        <ele>232</ele>
        <time>2021-11-24T13:38:03.000Z</time>
      </trkpt>
      <trkpt lat="43.51566" lon="6.36882">
        <ele>232</ele>
        <time>2021-11-24T13:38:04.000Z</time>
      </trkpt>
      <trkpt lat="43.51567" lon="6.36881">
        <ele>232</ele>
        <time>2021-11-24T13:38:05.000Z</time>
      </trkpt>
      <trkpt lat="43.51567" lon="6.3688">
        <ele>232</ele>
        <time>2021-11-24T13:38:06.000Z</time>
      </trkpt>
      <trkpt lat="43.51567" lon="6.36879">
        <ele>232</ele>
        <time>2021-11-24T13:38:07.000Z</time>
      </trkpt>
      <trkpt lat="43.51568" lon="6.36878">
        <ele>233</ele>
        <time>2021-11-24T13:38:08.000Z</time>
      </trkpt>
      <trkpt lat="43.51568" lon="6.36878">
        <ele>233</ele>
        <time>2021-11-24T13:38:09.000Z</time>
      </trkpt>
      <trkpt lat="43.51568" lon="6.36877">
        <ele>233</ele>
        <time>2021-11-24T13:38:10.000Z</time>
      </trkpt>
      <trkpt lat="43.51568" lon="6.36877">
        <ele>233</ele>
        <time>2021-11-24T13:38:11.000Z</time>
      </trkpt>
      <trkpt lat="43.51568" lon="6.36875">
        <ele>233</ele>
        <time>2021-11-24T13:38:12.000Z</time>
      </trkpt>
      <trkpt lat="43.51568" lon="6.36874">
        <ele>233</ele>
        <time>2021-11-24T13:38:13.000Z</time>
      </trkpt>
      <trkpt lat="43.51568" lon="6.36871">
        <ele>233</ele>
        <time>2021-11-24T13:38:14.000Z</time>
      </trkpt>
      <trkpt lat="43.51569" lon="6.36869">
        <ele>233</ele>
        <time>2021-11-24T13:38:15.000Z</time>
      </trkpt>
      <trkpt lat="43.51569" lon="6.36867">
        <ele>233</ele>
        <time>2021-11-24T13:38:16.000Z</time>
      </trkpt>
      <trkpt lat="43.51569" lon="6.36865">
        <ele>233</ele>
        <time>2021-11-24T13:38:17.000Z</time>
      </trkpt>
      <trkpt lat="43.51569" lon="6.36863">
        <ele>234</ele>
        <time>2021-11-24T13:38:18.000Z</time>
      </trkpt>
      <trkpt lat="43.5157" lon="6.36861">
        <ele>234</ele>
        <time>2021-11-24T13:38:19.000Z</time>
      </trkpt>
      <trkpt lat="43.5157" lon="6.36858">
        <ele>234</ele>
        <time>2021-11-24T13:38:20.000Z</time>
      </trkpt>
      <trkpt lat="43.5157" lon="6.36856">
        <ele>234</ele>
        <time>2021-11-24T13:38:21.000Z</time>
      </trkpt>
      <trkpt lat="43.5157" lon="6.36854">
        <ele>235</ele>
        <time>2021-11-24T13:38:22.000Z</time>
      </trkpt>
      <trkpt lat="43.5157" lon="6.36853">
        <ele>235</ele>
        <time>2021-11-24T13:38:23.000Z</time>
      </trkpt>
      <trkpt lat="43.51571" lon="6.36852">
        <ele>235</ele>
        <time>2021-11-24T13:38:24.000Z</time>
      </trkpt>
      <trkpt lat="43.51571" lon="6.36851">
        <ele>235</ele>
        <time>2021-11-24T13:38:25.000Z</time>
      </trkpt>
      <trkpt lat="43.51571" lon="6.3685">
        <ele>235</ele>
        <time>2021-11-24T13:38:26.000Z</time>
      </trkpt>
      <trkpt lat="43.51571" lon="6.36848">
        <ele>235</ele>
        <time>2021-11-24T13:38:27.000Z</time>
      </trkpt>
      <trkpt lat="43.51571" lon="6.36847">
        <ele>235</ele>
        <time>2021-11-24T13:38:28.000Z</time>
      </trkpt>
      <trkpt lat="43.51571" lon="6.36847">
        <ele>235</ele>
        <time>2021-11-24T13:38:29.000Z</time>
      </trkpt>
      <trkpt lat="43.51571" lon="6.36846">
        <ele>235</ele>
        <time>2021-11-24T13:38:30.000Z</time>
      </trkpt>
      <trkpt lat="43.51571" lon="6.36844">
        <ele>235</ele>
        <time>2021-11-24T13:38:31.000Z</time>
      </trkpt>
      <trkpt lat="43.51571" lon="6.36843">
        <ele>235</ele>
        <time>2021-11-24T13:38:32.000Z</time>
      </trkpt>
      <trkpt lat="43.51571" lon="6.36842">
        <ele>235</ele>
        <time>2021-11-24T13:38:33.000Z</time>
      </trkpt>
      <trkpt lat="43.51571" lon="6.36841">
        <ele>235</ele>
        <time>2021-11-24T13:38:34.000Z</time>
      </trkpt>
      <trkpt lat="43.51571" lon="6.3684">
        <ele>235</ele>
        <time>2021-11-24T13:38:35.000Z</time>
      </trkpt>
      <trkpt lat="43.51571" lon="6.36838">
        <ele>235</ele>
        <time>2021-11-24T13:38:36.000Z</time>
      </trkpt>
      <trkpt lat="43.51571" lon="6.36837">
        <ele>235</ele>
        <time>2021-11-24T13:38:37.000Z</time>
      </trkpt>
      <trkpt lat="43.5157" lon="6.36836">
        <ele>235</ele>
        <time>2021-11-24T13:38:38.000Z</time>
      </trkpt>
      <trkpt lat="43.51571" lon="6.36835">
        <ele>235</ele>
        <time>2021-11-24T13:38:39.000Z</time>
      </trkpt>
      <trkpt lat="43.51571" lon="6.36834">
        <ele>235</ele>
        <time>2021-11-24T13:38:40.000Z</time>
      </trkpt>
      <trkpt lat="43.51571" lon="6.36832">
        <ele>235</ele>
        <time>2021-11-24T13:38:41.000Z</time>
      </trkpt>
      <trkpt lat="43.51571" lon="6.36831">
        <ele>235</ele>
        <time>2021-11-24T13:38:42.000Z</time>
      </trkpt>
      <trkpt lat="43.51571" lon="6.3683">
        <ele>235</ele>
        <time>2021-11-24T13:38:43.000Z</time>
      </trkpt>
      <trkpt lat="43.51571" lon="6.36828">
        <ele>235</ele>
        <time>2021-11-24T13:38:44.000Z</time>
      </trkpt>
      <trkpt lat="43.51571" lon="6.36827">
        <ele>235</ele>
        <time>2021-11-24T13:38:45.000Z</time>
      </trkpt>
      <trkpt lat="43.51571" lon="6.36826">
        <ele>235</ele>
        <time>2021-11-24T13:38:46.000Z</time>
      </trkpt>
      <trkpt lat="43.51571" lon="6.36825">
        <ele>235</ele>
        <time>2021-11-24T13:38:47.000Z</time>
      </trkpt>
      <trkpt lat="43.51572" lon="6.36824">
        <ele>235</ele>
        <time>2021-11-24T13:38:48.000Z</time>
      </trkpt>
      <trkpt lat="43.51572" lon="6.36822">
        <ele>235</ele>
        <time>2021-11-24T13:38:49.000Z</time>
      </trkpt>
      <trkpt lat="43.51572" lon="6.3682">
        <ele>235</ele>
        <time>2021-11-24T13:38:50.000Z</time>
      </trkpt>
      <trkpt lat="43.51572" lon="6.36819">
        <ele>236</ele>
        <time>2021-11-24T13:38:51.000Z</time>
      </trkpt>
      <trkpt lat="43.51572" lon="6.36817">
        <ele>237</ele>
        <time>2021-11-24T13:38:52.000Z</time>
      </trkpt>
      <trkpt lat="43.51572" lon="6.36817">
        <ele>237</ele>
        <time>2021-11-24T13:38:53.000Z</time>
      </trkpt>
      <trkpt lat="43.51572" lon="6.36815">
        <ele>237</ele>
        <time>2021-11-24T13:38:54.000Z</time>
      </trkpt>
      <trkpt lat="43.51572" lon="6.36814">
        <ele>238</ele>
        <time>2021-11-24T13:38:55.000Z</time>
      </trkpt>
      <trkpt lat="43.51572" lon="6.36813">
        <ele>238</ele>
        <time>2021-11-24T13:38:56.000Z</time>
      </trkpt>
      <trkpt lat="43.51572" lon="6.36812">
        <ele>238</ele>
        <time>2021-11-24T13:38:57.000Z</time>
      </trkpt>
      <trkpt lat="43.51572" lon="6.36811">
        <ele>238</ele>
        <time>2021-11-24T13:38:58.000Z</time>
      </trkpt>
      <trkpt lat="43.51573" lon="6.3681">
        <ele>238</ele>
        <time>2021-11-24T13:38:59.000Z</time>
      </trkpt>
      <trkpt lat="43.51573" lon="6.36809">
        <ele>238</ele>
        <time>2021-11-24T13:39:00.000Z</time>
      </trkpt>
      <trkpt lat="43.51573" lon="6.36808">
        <ele>238</ele>
        <time>2021-11-24T13:39:01.000Z</time>
      </trkpt>
      <trkpt lat="43.51573" lon="6.36807">
        <ele>238</ele>
        <time>2021-11-24T13:39:02.000Z</time>
      </trkpt>
      <trkpt lat="43.51573" lon="6.36806">
        <ele>239</ele>
        <time>2021-11-24T13:39:03.000Z</time>
      </trkpt>
      <trkpt lat="43.51574" lon="6.36805">
        <ele>239</ele>
        <time>2021-11-24T13:39:04.000Z</time>
      </trkpt>
      <trkpt lat="43.51574" lon="6.36804">
        <ele>239</ele>
        <time>2021-11-24T13:39:05.000Z</time>
      </trkpt>
      <trkpt lat="43.51574" lon="6.36803">
        <ele>239</ele>
        <time>2021-11-24T13:39:06.000Z</time>
      </trkpt>
      <trkpt lat="43.51575" lon="6.36802">
        <ele>239</ele>
        <time>2021-11-24T13:39:07.000Z</time>
      </trkpt>
      <trkpt lat="43.51575" lon="6.36802">
        <ele>239</ele>
        <time>2021-11-24T13:39:08.000Z</time>
      </trkpt>
      <trkpt lat="43.51575" lon="6.36801">
        <ele>239</ele>
        <time>2021-11-24T13:39:09.000Z</time>
      </trkpt>
      <trkpt lat="43.51575" lon="6.368">
        <ele>239</ele>
        <time>2021-11-24T13:39:10.000Z</time>
      </trkpt>
      <trkpt lat="43.51576" lon="6.36799">
        <ele>239</ele>
        <time>2021-11-24T13:39:11.000Z</time>
      </trkpt>
      <trkpt lat="43.51576" lon="6.36798">
        <ele>239</ele>
        <time>2021-11-24T13:39:12.000Z</time>
      </trkpt>
      <trkpt lat="43.51576" lon="6.36796">
        <ele>239</ele>
        <time>2021-11-24T13:39:13.000Z</time>
      </trkpt>
      <trkpt lat="43.51576" lon="6.36795">
        <ele>239</ele>
        <time>2021-11-24T13:39:14.000Z</time>
      </trkpt>
      <trkpt lat="43.51576" lon="6.36794">
        <ele>240</ele>
        <time>2021-11-24T13:39:15.000Z</time>
      </trkpt>
      <trkpt lat="43.51576" lon="6.36793">
        <ele>240</ele>
        <time>2021-11-24T13:39:16.000Z</time>
      </trkpt>
      <trkpt lat="43.51576" lon="6.36792">
        <ele>240</ele>
        <time>2021-11-24T13:39:17.000Z</time>
      </trkpt>
      <trkpt lat="43.51576" lon="6.36791">
        <ele>240</ele>
        <time>2021-11-24T13:39:18.000Z</time>
      </trkpt>
      <trkpt lat="43.51575" lon="6.3679">
        <ele>240</ele>
        <time>2021-11-24T13:39:19.000Z</time>
      </trkpt>
      <trkpt lat="43.51575" lon="6.36788">
        <ele>240</ele>
        <time>2021-11-24T13:39:20.000Z</time>
      </trkpt>
      <trkpt lat="43.51575" lon="6.36787">
        <ele>240</ele>
        <time>2021-11-24T13:39:21.000Z</time>
      </trkpt>
      <trkpt lat="43.51574" lon="6.36786">
        <ele>240</ele>
        <time>2021-11-24T13:39:22.000Z</time>
      </trkpt>
      <trkpt lat="43.51574" lon="6.36785">
        <ele>241</ele>
        <time>2021-11-24T13:39:23.000Z</time>
      </trkpt>
      <trkpt lat="43.51573" lon="6.36784">
        <ele>241</ele>
        <time>2021-11-24T13:39:24.000Z</time>
      </trkpt>
      <trkpt lat="43.51573" lon="6.36784">
        <ele>241</ele>
        <time>2021-11-24T13:39:25.000Z</time>
      </trkpt>
      <trkpt lat="43.51572" lon="6.36783">
        <ele>241</ele>
        <time>2021-11-24T13:39:26.000Z</time>
      </trkpt>
      <trkpt lat="43.51572" lon="6.36782">
        <ele>241</ele>
        <time>2021-11-24T13:39:27.000Z</time>
      </trkpt>
      <trkpt lat="43.51571" lon="6.36781">
        <ele>241</ele>
        <time>2021-11-24T13:39:28.000Z</time>
      </trkpt>
      <trkpt lat="43.5157" lon="6.3678">
        <ele>241</ele>
        <time>2021-11-24T13:39:29.000Z</time>
      </trkpt>
      <trkpt lat="43.51569" lon="6.36779">
        <ele>241</ele>
        <time>2021-11-24T13:39:30.000Z</time>
      </trkpt>
      <trkpt lat="43.51569" lon="6.36778">
        <ele>242</ele>
        <time>2021-11-24T13:39:31.000Z</time>
      </trkpt>
      <trkpt lat="43.51568" lon="6.36778">
        <ele>242</ele>
        <time>2021-11-24T13:39:32.000Z</time>
      </trkpt>
      <trkpt lat="43.51568" lon="6.36777">
        <ele>242</ele>
        <time>2021-11-24T13:39:33.000Z</time>
      </trkpt>
      <trkpt lat="43.51567" lon="6.36776">
        <ele>242</ele>
        <time>2021-11-24T13:39:34.000Z</time>
      </trkpt>
      <trkpt lat="43.51567" lon="6.36776">
        <ele>242</ele>
        <time>2021-11-24T13:39:35.000Z</time>
      </trkpt>
      <trkpt lat="43.51566" lon="6.36775">
        <ele>243</ele>
        <time>2021-11-24T13:39:36.000Z</time>
      </trkpt>
      <trkpt lat="43.51566" lon="6.36774">
        <ele>243</ele>
        <time>2021-11-24T13:39:37.000Z</time>
      </trkpt>
      <trkpt lat="43.51565" lon="6.36772">
        <ele>243</ele>
        <time>2021-11-24T13:39:38.000Z</time>
      </trkpt>
      <trkpt lat="43.51565" lon="6.36771">
        <ele>243</ele>
        <time>2021-11-24T13:39:39.000Z</time>
      </trkpt>
      <trkpt lat="43.51564" lon="6.3677">
        <ele>243</ele>
        <time>2021-11-24T13:39:40.000Z</time>
      </trkpt>
      <trkpt lat="43.51564" lon="6.3677">
        <ele>243</ele>
        <time>2021-11-24T13:39:41.000Z</time>
      </trkpt>
      <trkpt lat="43.51563" lon="6.36769">
        <ele>243</ele>
        <time>2021-11-24T13:39:42.000Z</time>
      </trkpt>
      <trkpt lat="43.51563" lon="6.36768">
        <ele>243</ele>
        <time>2021-11-24T13:39:43.000Z</time>
      </trkpt>
      <trkpt lat="43.51563" lon="6.36767">
        <ele>243</ele>
        <time>2021-11-24T13:39:44.000Z</time>
      </trkpt>
      <trkpt lat="43.51562" lon="6.36766">
        <ele>243</ele>
        <time>2021-11-24T13:39:45.000Z</time>
      </trkpt>
      <trkpt lat="43.51562" lon="6.36765">
        <ele>243</ele>
        <time>2021-11-24T13:39:46.000Z</time>
      </trkpt>
      <trkpt lat="43.51561" lon="6.36764">
        <ele>243</ele>
        <time>2021-11-24T13:39:47.000Z</time>
      </trkpt>
      <trkpt lat="43.51561" lon="6.36763">
        <ele>243</ele>
        <time>2021-11-24T13:39:48.000Z</time>
      </trkpt>
      <trkpt lat="43.5156" lon="6.36762">
        <ele>243</ele>
        <time>2021-11-24T13:39:49.000Z</time>
      </trkpt>
      <trkpt lat="43.5156" lon="6.36761">
        <ele>244</ele>
        <time>2021-11-24T13:39:50.000Z</time>
      </trkpt>
      <trkpt lat="43.51559" lon="6.36759">
        <ele>244</ele>
        <time>2021-11-24T13:39:51.000Z</time>
      </trkpt>
      <trkpt lat="43.51559" lon="6.36758">
        <ele>244</ele>
        <time>2021-11-24T13:39:52.000Z</time>
      </trkpt>
      <trkpt lat="43.51559" lon="6.36757">
        <ele>244</ele>
        <time>2021-11-24T13:39:53.000Z</time>
      </trkpt>
      <trkpt lat="43.51558" lon="6.36756">
        <ele>244</ele>
        <time>2021-11-24T13:39:54.000Z</time>
      </trkpt>
      <trkpt lat="43.51558" lon="6.36755">
        <ele>244</ele>
        <time>2021-11-24T13:39:55.000Z</time>
      </trkpt>
      <trkpt lat="43.51558" lon="6.36754">
        <ele>244</ele>
        <time>2021-11-24T13:39:56.000Z</time>
      </trkpt>
      <trkpt lat="43.51557" lon="6.36754">
        <ele>244</ele>
        <time>2021-11-24T13:39:57.000Z</time>
      </trkpt>
      <trkpt lat="43.51556" lon="6.36753">
        <ele>244</ele>
        <time>2021-11-24T13:39:58.000Z</time>
      </trkpt>
      <trkpt lat="43.51555" lon="6.36752">
        <ele>244</ele>
        <time>2021-11-24T13:39:59.000Z</time>
      </trkpt>
      <trkpt lat="43.51555" lon="6.36752">
        <ele>244</ele>
        <time>2021-11-24T13:40:00.000Z</time>
      </trkpt>
      <trkpt lat="43.51554" lon="6.36751">
        <ele>244</ele>
        <time>2021-11-24T13:40:01.000Z</time>
      </trkpt>
      <trkpt lat="43.51553" lon="6.3675">
        <ele>244</ele>
        <time>2021-11-24T13:40:02.000Z</time>
      </trkpt>
      <trkpt lat="43.51553" lon="6.36749">
        <ele>244</ele>
        <time>2021-11-24T13:40:03.000Z</time>
      </trkpt>
      <trkpt lat="43.51552" lon="6.36747">
        <ele>244</ele>
        <time>2021-11-24T13:40:04.000Z</time>
      </trkpt>
      <trkpt lat="43.51551" lon="6.36746">
        <ele>244</ele>
        <time>2021-11-24T13:40:05.000Z</time>
      </trkpt>
      <trkpt lat="43.51551" lon="6.36745">
        <ele>244</ele>
        <time>2021-11-24T13:40:06.000Z</time>
      </trkpt>
      <trkpt lat="43.5155" lon="6.36745">
        <ele>244</ele>
        <time>2021-11-24T13:40:07.000Z</time>
      </trkpt>
      <trkpt lat="43.5155" lon="6.36744">
        <ele>244</ele>
        <time>2021-11-24T13:40:08.000Z</time>
      </trkpt>
      <trkpt lat="43.51549" lon="6.36743">
        <ele>244</ele>
        <time>2021-11-24T13:40:09.000Z</time>
      </trkpt>
      <trkpt lat="43.51549" lon="6.36742">
        <ele>244</ele>
        <time>2021-11-24T13:40:10.000Z</time>
      </trkpt>
      <trkpt lat="43.51548" lon="6.36741">
        <ele>244</ele>
        <time>2021-11-24T13:40:11.000Z</time>
      </trkpt>
      <trkpt lat="43.51548" lon="6.3674">
        <ele>244</ele>
        <time>2021-11-24T13:40:12.000Z</time>
      </trkpt>
      <trkpt lat="43.51548" lon="6.36739">
        <ele>244</ele>
        <time>2021-11-24T13:40:13.000Z</time>
      </trkpt>
      <trkpt lat="43.51547" lon="6.36738">
        <ele>244</ele>
        <time>2021-11-24T13:40:14.000Z</time>
      </trkpt>
      <trkpt lat="43.51547" lon="6.36737">
        <ele>244</ele>
        <time>2021-11-24T13:40:15.000Z</time>
      </trkpt>
      <trkpt lat="43.51546" lon="6.36736">
        <ele>244</ele>
        <time>2021-11-24T13:40:16.000Z</time>
      </trkpt>
      <trkpt lat="43.51546" lon="6.36735">
        <ele>244</ele>
        <time>2021-11-24T13:40:17.000Z</time>
      </trkpt>
      <trkpt lat="43.51545" lon="6.36734">
        <ele>244</ele>
        <time>2021-11-24T13:40:18.000Z</time>
      </trkpt>
      <trkpt lat="43.51545" lon="6.36733">
        <ele>243</ele>
        <time>2021-11-24T13:40:19.000Z</time>
      </trkpt>
      <trkpt lat="43.51545" lon="6.36732">
        <ele>243</ele>
        <time>2021-11-24T13:40:20.000Z</time>
      </trkpt>
      <trkpt lat="43.51545" lon="6.3673">
        <ele>243</ele>
        <time>2021-11-24T13:40:21.000Z</time>
      </trkpt>
      <trkpt lat="43.51544" lon="6.36729">
        <ele>243</ele>
        <time>2021-11-24T13:40:22.000Z</time>
      </trkpt>
      <trkpt lat="43.51544" lon="6.36728">
        <ele>243</ele>
        <time>2021-11-24T13:40:23.000Z</time>
      </trkpt>
      <trkpt lat="43.51544" lon="6.36727">
        <ele>243</ele>
        <time>2021-11-24T13:40:24.000Z</time>
      </trkpt>
      <trkpt lat="43.51544" lon="6.36726">
        <ele>243</ele>
        <time>2021-11-24T13:40:25.000Z</time>
      </trkpt>
      <trkpt lat="43.51544" lon="6.36725">
        <ele>243</ele>
        <time>2021-11-24T13:40:26.000Z</time>
      </trkpt>
      <trkpt lat="43.51544" lon="6.36724">
        <ele>243</ele>
        <time>2021-11-24T13:40:27.000Z</time>
      </trkpt>
      <trkpt lat="43.51544" lon="6.36724">
        <ele>243</ele>
        <time>2021-11-24T13:40:28.000Z</time>
      </trkpt>
      <trkpt lat="43.51544" lon="6.36722">
        <ele>244</ele>
        <time>2021-11-24T13:40:29.000Z</time>
      </trkpt>
      <trkpt lat="43.51544" lon="6.36722">
        <ele>244</ele>
        <time>2021-11-24T13:40:30.000Z</time>
      </trkpt>
      <trkpt lat="43.51544" lon="6.36721">
        <ele>244</ele>
        <time>2021-11-24T13:40:31.000Z</time>
      </trkpt>
      <trkpt lat="43.51544" lon="6.3672">
        <ele>244</ele>
        <time>2021-11-24T13:40:32.000Z</time>
      </trkpt>
      <trkpt lat="43.51545" lon="6.36719">
        <ele>244</ele>
        <time>2021-11-24T13:40:33.000Z</time>
      </trkpt>
      <trkpt lat="43.51545" lon="6.36718">
        <ele>244</ele>
        <time>2021-11-24T13:40:34.000Z</time>
      </trkpt>
      <trkpt lat="43.51546" lon="6.36718">
        <ele>244</ele>
        <time>2021-11-24T13:40:35.000Z</time>
      </trkpt>
      <trkpt lat="43.51546" lon="6.36718">
        <ele>244</ele>
        <time>2021-11-24T13:40:36.000Z</time>
      </trkpt>
      <trkpt lat="43.51547" lon="6.36718">
        <ele>244</ele>
        <time>2021-11-24T13:40:37.000Z</time>
      </trkpt>
      <trkpt lat="43.51548" lon="6.36718">
        <ele>244</ele>
        <time>2021-11-24T13:40:38.000Z</time>
      </trkpt>
      <trkpt lat="43.51548" lon="6.36718">
        <ele>244</ele>
        <time>2021-11-24T13:40:39.000Z</time>
      </trkpt>
      <trkpt lat="43.51549" lon="6.36718">
        <ele>245</ele>
        <time>2021-11-24T13:40:40.000Z</time>
      </trkpt>
      <trkpt lat="43.51549" lon="6.36719">
        <ele>245</ele>
        <time>2021-11-24T13:40:41.000Z</time>
      </trkpt>
      <trkpt lat="43.5155" lon="6.3672">
        <ele>245</ele>
        <time>2021-11-24T13:40:42.000Z</time>
      </trkpt>
      <trkpt lat="43.5155" lon="6.3672">
        <ele>246</ele>
        <time>2021-11-24T13:40:43.000Z</time>
      </trkpt>
      <trkpt lat="43.5155" lon="6.36721">
        <ele>246</ele>
        <time>2021-11-24T13:40:44.000Z</time>
      </trkpt>
      <trkpt lat="43.5155" lon="6.36722">
        <ele>246</ele>
        <time>2021-11-24T13:40:45.000Z</time>
      </trkpt>
      <trkpt lat="43.51551" lon="6.36723">
        <ele>246</ele>
        <time>2021-11-24T13:40:46.000Z</time>
      </trkpt>
      <trkpt lat="43.51551" lon="6.36724">
        <ele>246</ele>
        <time>2021-11-24T13:40:47.000Z</time>
      </trkpt>
      <trkpt lat="43.51552" lon="6.36725">
        <ele>246</ele>
        <time>2021-11-24T13:40:48.000Z</time>
      </trkpt>
      <trkpt lat="43.51552" lon="6.36725">
        <ele>247</ele>
        <time>2021-11-24T13:40:49.000Z</time>
      </trkpt>
      <trkpt lat="43.51553" lon="6.36726">
        <ele>247</ele>
        <time>2021-11-24T13:40:50.000Z</time>
      </trkpt>
      <trkpt lat="43.51554" lon="6.36727">
        <ele>248</ele>
        <time>2021-11-24T13:40:51.000Z</time>
      </trkpt>
      <trkpt lat="43.51554" lon="6.36728">
        <ele>248</ele>
        <time>2021-11-24T13:40:52.000Z</time>
      </trkpt>
      <trkpt lat="43.51555" lon="6.36728">
        <ele>249</ele>
        <time>2021-11-24T13:40:53.000Z</time>
      </trkpt>
      <trkpt lat="43.51556" lon="6.36729">
        <ele>249</ele>
        <time>2021-11-24T13:40:54.000Z</time>
      </trkpt>
      <trkpt lat="43.51557" lon="6.3673">
        <ele>249</ele>
        <time>2021-11-24T13:40:55.000Z</time>
      </trkpt>
      <trkpt lat="43.51557" lon="6.36731">
        <ele>249</ele>
        <time>2021-11-24T13:40:56.000Z</time>
      </trkpt>
      <trkpt lat="43.51558" lon="6.36732">
        <ele>250</ele>
        <time>2021-11-24T13:40:57.000Z</time>
      </trkpt>
      <trkpt lat="43.51559" lon="6.36733">
        <ele>250</ele>
        <time>2021-11-24T13:40:58.000Z</time>
      </trkpt>
      <trkpt lat="43.5156" lon="6.36733">
        <ele>250</ele>
        <time>2021-11-24T13:40:59.000Z</time>
      </trkpt>
      <trkpt lat="43.51561" lon="6.36734">
        <ele>250</ele>
        <time>2021-11-24T13:41:00.000Z</time>
      </trkpt>
      <trkpt lat="43.51561" lon="6.36735">
        <ele>250</ele>
        <time>2021-11-24T13:41:01.000Z</time>
      </trkpt>
      <trkpt lat="43.51562" lon="6.36735">
        <ele>252</ele>
        <time>2021-11-24T13:41:02.000Z</time>
      </trkpt>
      <trkpt lat="43.51563" lon="6.36736">
        <ele>252</ele>
        <time>2021-11-24T13:41:03.000Z</time>
      </trkpt>
      <trkpt lat="43.51564" lon="6.36737">
        <ele>252</ele>
        <time>2021-11-24T13:41:04.000Z</time>
      </trkpt>
      <trkpt lat="43.51565" lon="6.36738">
        <ele>252</ele>
        <time>2021-11-24T13:41:05.000Z</time>
      </trkpt>
      <trkpt lat="43.51566" lon="6.36739">
        <ele>252</ele>
        <time>2021-11-24T13:41:06.000Z</time>
      </trkpt>
      <trkpt lat="43.51567" lon="6.36739">
        <ele>253</ele>
        <time>2021-11-24T13:41:07.000Z</time>
      </trkpt>
      <trkpt lat="43.51568" lon="6.3674">
        <ele>253</ele>
        <time>2021-11-24T13:41:08.000Z</time>
      </trkpt>
      <trkpt lat="43.51568" lon="6.36741">
        <ele>253</ele>
        <time>2021-11-24T13:41:09.000Z</time>
      </trkpt>
      <trkpt lat="43.51569" lon="6.36742">
        <ele>253</ele>
        <time>2021-11-24T13:41:10.000Z</time>
      </trkpt>
      <trkpt lat="43.5157" lon="6.36743">
        <ele>253</ele>
        <time>2021-11-24T13:41:11.000Z</time>
      </trkpt>
      <trkpt lat="43.51571" lon="6.36744">
        <ele>254</ele>
        <time>2021-11-24T13:41:12.000Z</time>
      </trkpt>
      <trkpt lat="43.51572" lon="6.36745">
        <ele>254</ele>
        <time>2021-11-24T13:41:13.000Z</time>
      </trkpt>
      <trkpt lat="43.51573" lon="6.36746">
        <ele>255</ele>
        <time>2021-11-24T13:41:14.000Z</time>
      </trkpt>
      <trkpt lat="43.51574" lon="6.36746">
        <ele>255</ele>
        <time>2021-11-24T13:41:15.000Z</time>
      </trkpt>
      <trkpt lat="43.51574" lon="6.36747">
        <ele>255</ele>
        <time>2021-11-24T13:41:16.000Z</time>
      </trkpt>
      <trkpt lat="43.51575" lon="6.36748">
        <ele>255</ele>
        <time>2021-11-24T13:41:17.000Z</time>
      </trkpt>
      <trkpt lat="43.51576" lon="6.36748">
        <ele>255</ele>
        <time>2021-11-24T13:41:18.000Z</time>
      </trkpt>
      <trkpt lat="43.51577" lon="6.36749">
        <ele>255</ele>
        <time>2021-11-24T13:41:19.000Z</time>
      </trkpt>
      <trkpt lat="43.51578" lon="6.3675">
        <ele>256</ele>
        <time>2021-11-24T13:41:20.000Z</time>
      </trkpt>
      <trkpt lat="43.51579" lon="6.36751">
        <ele>256</ele>
        <time>2021-11-24T13:41:21.000Z</time>
      </trkpt>
      <trkpt lat="43.5158" lon="6.36751">
        <ele>256</ele>
        <time>2021-11-24T13:41:22.000Z</time>
      </trkpt>
      <trkpt lat="43.51581" lon="6.36752">
        <ele>256</ele>
        <time>2021-11-24T13:41:23.000Z</time>
      </trkpt>
      <trkpt lat="43.51581" lon="6.36753">
        <ele>256</ele>
        <time>2021-11-24T13:41:24.000Z</time>
      </trkpt>
      <trkpt lat="43.51582" lon="6.36754">
        <ele>256</ele>
        <time>2021-11-24T13:41:25.000Z</time>
      </trkpt>
      <trkpt lat="43.51583" lon="6.36754">
        <ele>257</ele>
        <time>2021-11-24T13:41:26.000Z</time>
      </trkpt>
      <trkpt lat="43.51584" lon="6.36755">
        <ele>258</ele>
        <time>2021-11-24T13:41:27.000Z</time>
      </trkpt>
      <trkpt lat="43.51585" lon="6.36756">
        <ele>258</ele>
        <time>2021-11-24T13:41:28.000Z</time>
      </trkpt>
      <trkpt lat="43.51586" lon="6.36757">
        <ele>258</ele>
        <time>2021-11-24T13:41:29.000Z</time>
      </trkpt>
      <trkpt lat="43.51587" lon="6.36758">
        <ele>258</ele>
        <time>2021-11-24T13:41:30.000Z</time>
      </trkpt>
      <trkpt lat="43.51588" lon="6.36758">
        <ele>258</ele>
        <time>2021-11-24T13:41:31.000Z</time>
      </trkpt>
      <trkpt lat="43.51588" lon="6.36759">
        <ele>258</ele>
        <time>2021-11-24T13:41:32.000Z</time>
      </trkpt>
      <trkpt lat="43.51589" lon="6.3676">
        <ele>258</ele>
        <time>2021-11-24T13:41:33.000Z</time>
      </trkpt>
      <trkpt lat="43.5159" lon="6.36761">
        <ele>259</ele>
        <time>2021-11-24T13:41:34.000Z</time>
      </trkpt>
      <trkpt lat="43.51591" lon="6.36761">
        <ele>259</ele>
        <time>2021-11-24T13:41:35.000Z</time>
      </trkpt>
      <trkpt lat="43.51592" lon="6.36763">
        <ele>260</ele>
        <time>2021-11-24T13:41:36.000Z</time>
      </trkpt>
      <trkpt lat="43.51593" lon="6.36764">
        <ele>261</ele>
        <time>2021-11-24T13:41:37.000Z</time>
      </trkpt>
      <trkpt lat="43.51593" lon="6.36765">
        <ele>261</ele>
        <time>2021-11-24T13:41:38.000Z</time>
      </trkpt>
      <trkpt lat="43.51594" lon="6.36766">
        <ele>261</ele>
        <time>2021-11-24T13:41:39.000Z</time>
      </trkpt>
      <trkpt lat="43.51595" lon="6.36767">
        <ele>261</ele>
        <time>2021-11-24T13:41:40.000Z</time>
      </trkpt>
      <trkpt lat="43.51596" lon="6.36768">
        <ele>261</ele>
        <time>2021-11-24T13:41:41.000Z</time>
      </trkpt>
      <trkpt lat="43.51598" lon="6.36768">
        <ele>261</ele>
        <time>2021-11-24T13:41:42.000Z</time>
      </trkpt>
      <trkpt lat="43.51599" lon="6.36769">
        <ele>261</ele>
        <time>2021-11-24T13:41:43.000Z</time>
      </trkpt>
      <trkpt lat="43.516" lon="6.3677">
        <ele>261</ele>
        <time>2021-11-24T13:41:44.000Z</time>
      </trkpt>
      <trkpt lat="43.51601" lon="6.3677">
        <ele>262</ele>
        <time>2021-11-24T13:41:45.000Z</time>
      </trkpt>
      <trkpt lat="43.51602" lon="6.36771">
        <ele>262</ele>
        <time>2021-11-24T13:41:46.000Z</time>
      </trkpt>
      <trkpt lat="43.51602" lon="6.36772">
        <ele>262</ele>
        <time>2021-11-24T13:41:47.000Z</time>
      </trkpt>
      <trkpt lat="43.51604" lon="6.36772">
        <ele>262</ele>
        <time>2021-11-24T13:41:48.000Z</time>
      </trkpt>
      <trkpt lat="43.51605" lon="6.36773">
        <ele>262</ele>
        <time>2021-11-24T13:41:49.000Z</time>
      </trkpt>
      <trkpt lat="43.51606" lon="6.36774">
        <ele>262</ele>
        <time>2021-11-24T13:41:50.000Z</time>
      </trkpt>
      <trkpt lat="43.51607" lon="6.36774">
        <ele>262</ele>
        <time>2021-11-24T13:41:51.000Z</time>
      </trkpt>
      <trkpt lat="43.51608" lon="6.36775">
        <ele>261</ele>
        <time>2021-11-24T13:41:52.000Z</time>
      </trkpt>
      <trkpt lat="43.51609" lon="6.36776">
        <ele>261</ele>
        <time>2021-11-24T13:41:53.000Z</time>
      </trkpt>
      <trkpt lat="43.5161" lon="6.36777">
        <ele>261</ele>
        <time>2021-11-24T13:41:54.000Z</time>
      </trkpt>
      <trkpt lat="43.51611" lon="6.36777">
        <ele>261</ele>
        <time>2021-11-24T13:41:55.000Z</time>
      </trkpt>
      <trkpt lat="43.51612" lon="6.36778">
        <ele>261</ele>
        <time>2021-11-24T13:41:56.000Z</time>
      </trkpt>
      <trkpt lat="43.51613" lon="6.36778">
        <ele>261</ele>
        <time>2021-11-24T13:41:57.000Z</time>
      </trkpt>
      <trkpt lat="43.51614" lon="6.36779">
        <ele>261</ele>
        <time>2021-11-24T13:41:58.000Z</time>
      </trkpt>
      <trkpt lat="43.51615" lon="6.3678">
        <ele>261</ele>
        <time>2021-11-24T13:41:59.000Z</time>
      </trkpt>
      <trkpt lat="43.51616" lon="6.3678">
        <ele>261</ele>
        <time>2021-11-24T13:42:00.000Z</time>
      </trkpt>
      <trkpt lat="43.51617" lon="6.36781">
        <ele>261</ele>
        <time>2021-11-24T13:42:01.000Z</time>
      </trkpt>
      <trkpt lat="43.51618" lon="6.36782">
        <ele>261</ele>
        <time>2021-11-24T13:42:02.000Z</time>
      </trkpt>
      <trkpt lat="43.51619" lon="6.36782">
        <ele>261</ele>
        <time>2021-11-24T13:42:03.000Z</time>
      </trkpt>
      <trkpt lat="43.5162" lon="6.36783">
        <ele>261</ele>
        <time>2021-11-24T13:42:04.000Z</time>
      </trkpt>
      <trkpt lat="43.51621" lon="6.36784">
        <ele>261</ele>
        <time>2021-11-24T13:42:05.000Z</time>
      </trkpt>
      <trkpt lat="43.51622" lon="6.36785">
        <ele>261</ele>
        <time>2021-11-24T13:42:06.000Z</time>
      </trkpt>
      <trkpt lat="43.51623" lon="6.36786">
        <ele>261</ele>
        <time>2021-11-24T13:42:07.000Z</time>
      </trkpt>
      <trkpt lat="43.51624" lon="6.36787">
        <ele>261</ele>
        <time>2021-11-24T13:42:08.000Z</time>
      </trkpt>
      <trkpt lat="43.51624" lon="6.36788">
        <ele>260</ele>
        <time>2021-11-24T13:42:09.000Z</time>
      </trkpt>
      <trkpt lat="43.51625" lon="6.36788">
        <ele>260</ele>
        <time>2021-11-24T13:42:10.000Z</time>
      </trkpt>
      <trkpt lat="43.51626" lon="6.36789">
        <ele>260</ele>
        <time>2021-11-24T13:42:11.000Z</time>
      </trkpt>
      <trkpt lat="43.51626" lon="6.3679">
        <ele>260</ele>
        <time>2021-11-24T13:42:12.000Z</time>
      </trkpt>
      <trkpt lat="43.51627" lon="6.36791">
        <ele>260</ele>
        <time>2021-11-24T13:42:13.000Z</time>
      </trkpt>
      <trkpt lat="43.51628" lon="6.36792">
        <ele>260</ele>
        <time>2021-11-24T13:42:14.000Z</time>
      </trkpt>
      <trkpt lat="43.51629" lon="6.36793">
        <ele>259</ele>
        <time>2021-11-24T13:42:15.000Z</time>
      </trkpt>
      <trkpt lat="43.5163" lon="6.36794">
        <ele>259</ele>
        <time>2021-11-24T13:42:16.000Z</time>
      </trkpt>
      <trkpt lat="43.51631" lon="6.36795">
        <ele>259</ele>
        <time>2021-11-24T13:42:17.000Z</time>
      </trkpt>
      <trkpt lat="43.51631" lon="6.36796">
        <ele>259</ele>
        <time>2021-11-24T13:42:18.000Z</time>
      </trkpt>
      <trkpt lat="43.51632" lon="6.36797">
        <ele>259</ele>
        <time>2021-11-24T13:42:19.000Z</time>
      </trkpt>
      <trkpt lat="43.51633" lon="6.36797">
        <ele>259</ele>
        <time>2021-11-24T13:42:20.000Z</time>
      </trkpt>
      <trkpt lat="43.51634" lon="6.36798">
        <ele>259</ele>
        <time>2021-11-24T13:42:21.000Z</time>
      </trkpt>
      <trkpt lat="43.51635" lon="6.36799">
        <ele>259</ele>
        <time>2021-11-24T13:42:22.000Z</time>
      </trkpt>
      <trkpt lat="43.51636" lon="6.368">
        <ele>259</ele>
        <time>2021-11-24T13:42:23.000Z</time>
      </trkpt>
      <trkpt lat="43.51637" lon="6.36802">
        <ele>259</ele>
        <time>2021-11-24T13:42:24.000Z</time>
      </trkpt>
      <trkpt lat="43.51638" lon="6.36803">
        <ele>259</ele>
        <time>2021-11-24T13:42:25.000Z</time>
      </trkpt>
      <trkpt lat="43.51639" lon="6.36803">
        <ele>259</ele>
        <time>2021-11-24T13:42:26.000Z</time>
      </trkpt>
      <trkpt lat="43.51639" lon="6.36804">
        <ele>259</ele>
        <time>2021-11-24T13:42:27.000Z</time>
      </trkpt>
      <trkpt lat="43.5164" lon="6.36805">
        <ele>259</ele>
        <time>2021-11-24T13:42:28.000Z</time>
      </trkpt>
      <trkpt lat="43.5164" lon="6.36806">
        <ele>259</ele>
        <time>2021-11-24T13:42:29.000Z</time>
      </trkpt>
      <trkpt lat="43.5164" lon="6.36807">
        <ele>259</ele>
        <time>2021-11-24T13:42:30.000Z</time>
      </trkpt>
      <trkpt lat="43.51641" lon="6.36808">
        <ele>259</ele>
        <time>2021-11-24T13:42:31.000Z</time>
      </trkpt>
      <trkpt lat="43.51641" lon="6.36808">
        <ele>259</ele>
        <time>2021-11-24T13:42:32.000Z</time>
      </trkpt>
      <trkpt lat="43.51642" lon="6.36809">
        <ele>259</ele>
        <time>2021-11-24T13:42:33.000Z</time>
      </trkpt>
      <trkpt lat="43.51643" lon="6.36809">
        <ele>259</ele>
        <time>2021-11-24T13:42:34.000Z</time>
      </trkpt>
      <trkpt lat="43.51643" lon="6.3681">
        <ele>259</ele>
        <time>2021-11-24T13:42:35.000Z</time>
      </trkpt>
      <trkpt lat="43.51644" lon="6.3681">
        <ele>259</ele>
        <time>2021-11-24T13:42:36.000Z</time>
      </trkpt>
      <trkpt lat="43.51644" lon="6.36811">
        <ele>259</ele>
        <time>2021-11-24T13:42:37.000Z</time>
      </trkpt>
      <trkpt lat="43.51645" lon="6.36811">
        <ele>258</ele>
        <time>2021-11-24T13:42:38.000Z</time>
      </trkpt>
      <trkpt lat="43.51646" lon="6.36812">
        <ele>258</ele>
        <time>2021-11-24T13:42:39.000Z</time>
      </trkpt>
      <trkpt lat="43.51648" lon="6.36812">
        <ele>258</ele>
        <time>2021-11-24T13:42:40.000Z</time>
      </trkpt>
      <trkpt lat="43.51649" lon="6.36812">
        <ele>257</ele>
        <time>2021-11-24T13:42:41.000Z</time>
      </trkpt>
      <trkpt lat="43.51651" lon="6.36812">
        <ele>257</ele>
        <time>2021-11-24T13:42:42.000Z</time>
      </trkpt>
      <trkpt lat="43.51652" lon="6.36812">
        <ele>257</ele>
        <time>2021-11-24T13:42:43.000Z</time>
      </trkpt>
      <trkpt lat="43.51653" lon="6.36813">
        <ele>257</ele>
        <time>2021-11-24T13:42:44.000Z</time>
      </trkpt>
      <trkpt lat="43.51654" lon="6.36814">
        <ele>257</ele>
        <time>2021-11-24T13:42:45.000Z</time>
      </trkpt>
      <trkpt lat="43.51655" lon="6.36814">
        <ele>257</ele>
        <time>2021-11-24T13:42:46.000Z</time>
      </trkpt>
      <trkpt lat="43.51656" lon="6.36815">
        <ele>257</ele>
        <time>2021-11-24T13:42:47.000Z</time>
      </trkpt>
      <trkpt lat="43.51657" lon="6.36816">
        <ele>257</ele>
        <time>2021-11-24T13:42:48.000Z</time>
      </trkpt>
      <trkpt lat="43.51658" lon="6.36816">
        <ele>257</ele>
        <time>2021-11-24T13:42:49.000Z</time>
      </trkpt>
      <trkpt lat="43.51659" lon="6.36816">
        <ele>257</ele>
        <time>2021-11-24T13:42:50.000Z</time>
      </trkpt>
      <trkpt lat="43.51661" lon="6.36817">
        <ele>257</ele>
        <time>2021-11-24T13:42:51.000Z</time>
      </trkpt>
      <trkpt lat="43.51661" lon="6.36816">
        <ele>257</ele>
        <time>2021-11-24T13:42:52.000Z</time>
      </trkpt>
      <trkpt lat="43.51663" lon="6.36816">
        <ele>257</ele>
        <time>2021-11-24T13:42:53.000Z</time>
      </trkpt>
      <trkpt lat="43.51664" lon="6.36816">
        <ele>256</ele>
        <time>2021-11-24T13:42:54.000Z</time>
      </trkpt>
      <trkpt lat="43.51665" lon="6.36816">
        <ele>256</ele>
        <time>2021-11-24T13:42:55.000Z</time>
      </trkpt>
      <trkpt lat="43.51666" lon="6.36817">
        <ele>256</ele>
        <time>2021-11-24T13:42:56.000Z</time>
      </trkpt>
      <trkpt lat="43.51667" lon="6.36818">
        <ele>256</ele>
        <time>2021-11-24T13:42:57.000Z</time>
      </trkpt>
      <trkpt lat="43.51667" lon="6.3682">
        <ele>256</ele>
        <time>2021-11-24T13:42:58.000Z</time>
      </trkpt>
      <trkpt lat="43.51668" lon="6.36821">
        <ele>256</ele>
        <time>2021-11-24T13:42:59.000Z</time>
      </trkpt>
      <trkpt lat="43.51669" lon="6.3682">
        <ele>255</ele>
        <time>2021-11-24T13:43:00.000Z</time>
      </trkpt>
      <trkpt lat="43.5167" lon="6.36821">
        <ele>255</ele>
        <time>2021-11-24T13:43:01.000Z</time>
      </trkpt>
      <trkpt lat="43.51671" lon="6.36821">
        <ele>255</ele>
        <time>2021-11-24T13:43:02.000Z</time>
      </trkpt>
      <trkpt lat="43.51671" lon="6.36822">
        <ele>255</ele>
        <time>2021-11-24T13:43:03.000Z</time>
      </trkpt>
      <trkpt lat="43.51672" lon="6.36823">
        <ele>255</ele>
        <time>2021-11-24T13:43:04.000Z</time>
      </trkpt>
      <trkpt lat="43.51673" lon="6.36823">
        <ele>255</ele>
        <time>2021-11-24T13:43:05.000Z</time>
      </trkpt>
      <trkpt lat="43.51674" lon="6.36823">
        <ele>255</ele>
        <time>2021-11-24T13:43:06.000Z</time>
      </trkpt>
      <trkpt lat="43.51675" lon="6.36823">
        <ele>255</ele>
        <time>2021-11-24T13:43:07.000Z</time>
      </trkpt>
      <trkpt lat="43.51676" lon="6.36823">
        <ele>255</ele>
        <time>2021-11-24T13:43:08.000Z</time>
      </trkpt>
      <trkpt lat="43.51677" lon="6.36823">
        <ele>255</ele>
        <time>2021-11-24T13:43:09.000Z</time>
      </trkpt>
      <trkpt lat="43.51678" lon="6.36823">
        <ele>255</ele>
        <time>2021-11-24T13:43:10.000Z</time>
      </trkpt>
      <trkpt lat="43.51679" lon="6.36823">
        <ele>255</ele>
        <time>2021-11-24T13:43:11.000Z</time>
      </trkpt>
      <trkpt lat="43.5168" lon="6.36821">
        <ele>255</ele>
        <time>2021-11-24T13:43:12.000Z</time>
      </trkpt>
      <trkpt lat="43.51681" lon="6.36819">
        <ele>255</ele>
        <time>2021-11-24T13:43:13.000Z</time>
      </trkpt>
      <trkpt lat="43.51682" lon="6.36818">
        <ele>255</ele>
        <time>2021-11-24T13:43:14.000Z</time>
      </trkpt>
      <trkpt lat="43.51683" lon="6.36817">
        <ele>255</ele>
        <time>2021-11-24T13:43:15.000Z</time>
      </trkpt>
      <trkpt lat="43.51684" lon="6.36816">
        <ele>255</ele>
        <time>2021-11-24T13:43:16.000Z</time>
      </trkpt>
      <trkpt lat="43.51685" lon="6.36815">
        <ele>255</ele>
        <time>2021-11-24T13:43:17.000Z</time>
      </trkpt>
      <trkpt lat="43.51686" lon="6.36815">
        <ele>255</ele>
        <time>2021-11-24T13:43:18.000Z</time>
      </trkpt>
      <trkpt lat="43.51687" lon="6.36814">
        <ele>255</ele>
        <time>2021-11-24T13:43:19.000Z</time>
      </trkpt>
      <trkpt lat="43.51688" lon="6.36814">
        <ele>255</ele>
        <time>2021-11-24T13:43:20.000Z</time>
      </trkpt>
      <trkpt lat="43.51689" lon="6.36814">
        <ele>255</ele>
        <time>2021-11-24T13:43:21.000Z</time>
      </trkpt>
      <trkpt lat="43.5169" lon="6.36814">
        <ele>255</ele>
        <time>2021-11-24T13:43:22.000Z</time>
      </trkpt>
      <trkpt lat="43.51691" lon="6.36814">
        <ele>255</ele>
        <time>2021-11-24T13:43:23.000Z</time>
      </trkpt>
      <trkpt lat="43.51692" lon="6.36813">
        <ele>255</ele>
        <time>2021-11-24T13:43:24.000Z</time>
      </trkpt>
      <trkpt lat="43.51693" lon="6.36813">
        <ele>255</ele>
        <time>2021-11-24T13:43:25.000Z</time>
      </trkpt>
      <trkpt lat="43.51694" lon="6.36813">
        <ele>254</ele>
        <time>2021-11-24T13:43:26.000Z</time>
      </trkpt>
      <trkpt lat="43.51695" lon="6.36813">
        <ele>254</ele>
        <time>2021-11-24T13:43:27.000Z</time>
      </trkpt>
      <trkpt lat="43.51696" lon="6.36813">
        <ele>254</ele>
        <time>2021-11-24T13:43:28.000Z</time>
      </trkpt>
      <trkpt lat="43.51697" lon="6.36812">
        <ele>254</ele>
        <time>2021-11-24T13:43:29.000Z</time>
      </trkpt>
      <trkpt lat="43.51697" lon="6.36811">
        <ele>254</ele>
        <time>2021-11-24T13:43:30.000Z</time>
      </trkpt>
      <trkpt lat="43.51698" lon="6.3681">
        <ele>254</ele>
        <time>2021-11-24T13:43:31.000Z</time>
      </trkpt>
      <trkpt lat="43.51699" lon="6.3681">
        <ele>254</ele>
        <time>2021-11-24T13:43:32.000Z</time>
      </trkpt>
      <trkpt lat="43.51699" lon="6.3681">
        <ele>254</ele>
        <time>2021-11-24T13:43:33.000Z</time>
      </trkpt>
      <trkpt lat="43.517" lon="6.3681">
        <ele>254</ele>
        <time>2021-11-24T13:43:34.000Z</time>
      </trkpt>
      <trkpt lat="43.51701" lon="6.36809">
        <ele>254</ele>
        <time>2021-11-24T13:43:35.000Z</time>
      </trkpt>
      <trkpt lat="43.51702" lon="6.36809">
        <ele>253</ele>
        <time>2021-11-24T13:43:36.000Z</time>
      </trkpt>
      <trkpt lat="43.51703" lon="6.36808">
        <ele>253</ele>
        <time>2021-11-24T13:43:37.000Z</time>
      </trkpt>
      <trkpt lat="43.51704" lon="6.36808">
        <ele>253</ele>
        <time>2021-11-24T13:43:38.000Z</time>
      </trkpt>
      <trkpt lat="43.51705" lon="6.36807">
        <ele>252</ele>
        <time>2021-11-24T13:43:39.000Z</time>
      </trkpt>
      <trkpt lat="43.51706" lon="6.36806">
        <ele>252</ele>
        <time>2021-11-24T13:43:40.000Z</time>
      </trkpt>
      <trkpt lat="43.51708" lon="6.36806">
        <ele>252</ele>
        <time>2021-11-24T13:43:41.000Z</time>
      </trkpt>
      <trkpt lat="43.51709" lon="6.36804">
        <ele>252</ele>
        <time>2021-11-24T13:43:42.000Z</time>
      </trkpt>
      <trkpt lat="43.5171" lon="6.36802">
        <ele>252</ele>
        <time>2021-11-24T13:43:43.000Z</time>
      </trkpt>
      <trkpt lat="43.51711" lon="6.36802">
        <ele>251</ele>
        <time>2021-11-24T13:43:44.000Z</time>
      </trkpt>
      <trkpt lat="43.51712" lon="6.36801">
        <ele>251</ele>
        <time>2021-11-24T13:43:45.000Z</time>
      </trkpt>
      <trkpt lat="43.51713" lon="6.36801">
        <ele>251</ele>
        <time>2021-11-24T13:43:46.000Z</time>
      </trkpt>
      <trkpt lat="43.51714" lon="6.36801">
        <ele>251</ele>
        <time>2021-11-24T13:43:47.000Z</time>
      </trkpt>
      <trkpt lat="43.51714" lon="6.36801">
        <ele>251</ele>
        <time>2021-11-24T13:43:48.000Z</time>
      </trkpt>
      <trkpt lat="43.51715" lon="6.36801">
        <ele>251</ele>
        <time>2021-11-24T13:43:49.000Z</time>
      </trkpt>
      <trkpt lat="43.51715" lon="6.36801">
        <ele>251</ele>
        <time>2021-11-24T13:43:50.000Z</time>
      </trkpt>
      <trkpt lat="43.51716" lon="6.36801">
        <ele>251</ele>
        <time>2021-11-24T13:43:51.000Z</time>
      </trkpt>
      <trkpt lat="43.51716" lon="6.36801">
        <ele>251</ele>
        <time>2021-11-24T13:43:52.000Z</time>
      </trkpt>
      <trkpt lat="43.51716" lon="6.36801">
        <ele>251</ele>
        <time>2021-11-24T13:43:53.000Z</time>
      </trkpt>
      <trkpt lat="43.51716" lon="6.36801">
        <ele>251</ele>
        <time>2021-11-24T13:43:54.000Z</time>
      </trkpt>
      <trkpt lat="43.51717" lon="6.36801">
        <ele>251</ele>
        <time>2021-11-24T13:43:55.000Z</time>
      </trkpt>
      <trkpt lat="43.51717" lon="6.36801">
        <ele>251</ele>
        <time>2021-11-24T13:43:56.000Z</time>
      </trkpt>
      <trkpt lat="43.51717" lon="6.36801">
        <ele>251</ele>
        <time>2021-11-24T13:43:57.000Z</time>
      </trkpt>
      <trkpt lat="43.51717" lon="6.368">
        <ele>251</ele>
        <time>2021-11-24T13:43:58.000Z</time>
      </trkpt>
      <trkpt lat="43.51717" lon="6.368">
        <ele>251</ele>
        <time>2021-11-24T13:43:59.000Z</time>
      </trkpt>
      <trkpt lat="43.51718" lon="6.368">
        <ele>251</ele>
        <time>2021-11-24T13:44:00.000Z</time>
      </trkpt>
      <trkpt lat="43.51718" lon="6.368">
        <ele>251</ele>
        <time>2021-11-24T13:44:01.000Z</time>
      </trkpt>
      <trkpt lat="43.51717" lon="6.368">
        <ele>251</ele>
        <time>2021-11-24T13:44:02.000Z</time>
      </trkpt>
      <trkpt lat="43.51717" lon="6.36799">
        <ele>251</ele>
        <time>2021-11-24T13:44:03.000Z</time>
      </trkpt>
      <trkpt lat="43.51717" lon="6.36799">
        <ele>251</ele>
        <time>2021-11-24T13:44:04.000Z</time>
      </trkpt>
      <trkpt lat="43.51717" lon="6.36799">
        <ele>251</ele>
        <time>2021-11-24T13:44:05.000Z</time>
      </trkpt>
      <trkpt lat="43.51717" lon="6.36799">
        <ele>251</ele>
        <time>2021-11-24T13:44:06.000Z</time>
      </trkpt>
      <trkpt lat="43.51717" lon="6.36799">
        <ele>251</ele>
        <time>2021-11-24T13:44:07.000Z</time>
      </trkpt>
      <trkpt lat="43.51717" lon="6.36799">
        <ele>251</ele>
        <time>2021-11-24T13:44:08.000Z</time>
      </trkpt>
      <trkpt lat="43.51717" lon="6.36799">
        <ele>251</ele>
        <time>2021-11-24T13:44:09.000Z</time>
      </trkpt>
      <trkpt lat="43.51717" lon="6.36799">
        <ele>251</ele>
        <time>2021-11-24T13:44:10.000Z</time>
      </trkpt>
      <trkpt lat="43.51717" lon="6.36799">
        <ele>251</ele>
        <time>2021-11-24T13:44:11.000Z</time>
      </trkpt>
      <trkpt lat="43.51717" lon="6.36799">
        <ele>251</ele>
        <time>2021-11-24T13:44:12.000Z</time>
      </trkpt>
      <trkpt lat="43.51717" lon="6.36799">
        <ele>251</ele>
        <time>2021-11-24T13:44:13.000Z</time>
      </trkpt>
      <trkpt lat="43.51717" lon="6.36799">
        <ele>251</ele>
        <time>2021-11-24T13:44:14.000Z</time>
      </trkpt>
      <trkpt lat="43.51717" lon="6.36799">
        <ele>251</ele>
        <time>2021-11-24T13:44:15.000Z</time>
      </trkpt>
      <trkpt lat="43.51714" lon="6.36797">
        <ele>251</ele>
        <time>2021-11-24T13:44:16.000Z</time>
      </trkpt>
      <trkpt lat="43.51714" lon="6.36797">
        <ele>251</ele>
        <time>2021-11-24T13:44:17.000Z</time>
      </trkpt>
      <trkpt lat="43.51713" lon="6.36797">
        <ele>251</ele>
        <time>2021-11-24T13:44:18.000Z</time>
      </trkpt>
      <trkpt lat="43.51713" lon="6.36797">
        <ele>251</ele>
        <time>2021-11-24T13:44:19.000Z</time>
      </trkpt>
      <trkpt lat="43.51713" lon="6.36797">
        <ele>251</ele>
        <time>2021-11-24T13:44:20.000Z</time>
      </trkpt>
      <trkpt lat="43.51713" lon="6.36797">
        <ele>251</ele>
        <time>2021-11-24T13:44:21.000Z</time>
      </trkpt>
      <trkpt lat="43.51713" lon="6.36797">
        <ele>251</ele>
        <time>2021-11-24T13:44:22.000Z</time>
      </trkpt>
      <trkpt lat="43.51713" lon="6.36797">
        <ele>251</ele>
        <time>2021-11-24T13:44:23.000Z</time>
      </trkpt>
      <trkpt lat="43.51713" lon="6.36797">
        <ele>251</ele>
        <time>2021-11-24T13:44:24.000Z</time>
      </trkpt>
      <trkpt lat="43.51713" lon="6.36797">
        <ele>251</ele>
        <time>2021-11-24T13:44:25.000Z</time>
      </trkpt>
      <trkpt lat="43.51713" lon="6.36797">
        <ele>251</ele>
        <time>2021-11-24T13:44:26.000Z</time>
      </trkpt>
      <trkpt lat="43.51713" lon="6.36797">
        <ele>251</ele>
        <time>2021-11-24T13:44:27.000Z</time>
      </trkpt>
      <trkpt lat="43.51713" lon="6.36797">
        <ele>251</ele>
        <time>2021-11-24T13:44:28.000Z</time>
      </trkpt>
      <trkpt lat="43.51713" lon="6.36797">
        <ele>251</ele>
        <time>2021-11-24T13:44:29.000Z</time>
      </trkpt>
      <trkpt lat="43.51713" lon="6.36797">
        <ele>251</ele>
        <time>2021-11-24T13:44:30.000Z</time>
      </trkpt>
      <trkpt lat="43.51713" lon="6.36797">
        <ele>251</ele>
        <time>2021-11-24T13:44:31.000Z</time>
      </trkpt>
      <trkpt lat="43.51713" lon="6.36797">
        <ele>251</ele>
        <time>2021-11-24T13:44:32.000Z</time>
      </trkpt>
      <trkpt lat="43.51713" lon="6.36797">
        <ele>251</ele>
        <time>2021-11-24T13:44:33.000Z</time>
      </trkpt>
      <trkpt lat="43.51713" lon="6.36797">
        <ele>251</ele>
        <time>2021-11-24T13:44:34.000Z</time>
      </trkpt>
      <trkpt lat="43.51713" lon="6.36797">
        <ele>251</ele>
        <time>2021-11-24T13:44:35.000Z</time>
      </trkpt>
      <trkpt lat="43.51713" lon="6.36797">
        <ele>251</ele>
        <time>2021-11-24T13:44:36.000Z</time>
      </trkpt>
      <trkpt lat="43.51713" lon="6.36797">
        <ele>251</ele>
        <time>2021-11-24T13:44:37.000Z</time>
      </trkpt>
      <trkpt lat="43.51713" lon="6.36797">
        <ele>251</ele>
        <time>2021-11-24T13:44:38.000Z</time>
      </trkpt>
      <trkpt lat="43.51713" lon="6.36797">
        <ele>251</ele>
        <time>2021-11-24T13:44:39.000Z</time>
      </trkpt>
      <trkpt lat="43.51713" lon="6.36797">
        <ele>251</ele>
        <time>2021-11-24T13:44:40.000Z</time>
      </trkpt>
      <trkpt lat="43.51713" lon="6.36797">
        <ele>251</ele>
        <time>2021-11-24T13:44:41.000Z</time>
      </trkpt>
      <trkpt lat="43.51713" lon="6.36797">
        <ele>251</ele>
        <time>2021-11-24T13:44:42.000Z</time>
      </trkpt>
      <trkpt lat="43.51713" lon="6.36797">
        <ele>251</ele>
        <time>2021-11-24T13:44:43.000Z</time>
      </trkpt>
      <trkpt lat="43.51713" lon="6.36797">
        <ele>251</ele>
        <time>2021-11-24T13:44:44.000Z</time>
      </trkpt>
      <trkpt lat="43.51713" lon="6.36797">
        <ele>251</ele>
        <time>2021-11-24T13:44:45.000Z</time>
      </trkpt>
      <trkpt lat="43.51713" lon="6.36797">
        <ele>251</ele>
        <time>2021-11-24T13:44:46.000Z</time>
      </trkpt>
      <trkpt lat="43.51713" lon="6.36797">
        <ele>251</ele>
        <time>2021-11-24T13:44:47.000Z</time>
      </trkpt>
      <trkpt lat="43.51713" lon="6.36797">
        <ele>251</ele>
        <time>2021-11-24T13:44:48.000Z</time>
      </trkpt>
      <trkpt lat="43.51713" lon="6.36797">
        <ele>251</ele>
        <time>2021-11-24T13:44:49.000Z</time>
      </trkpt>
      <trkpt lat="43.51713" lon="6.36797">
        <ele>251</ele>
        <time>2021-11-24T13:44:50.000Z</time>
      </trkpt>
      <trkpt lat="43.51713" lon="6.36797">
        <ele>251</ele>
        <time>2021-11-24T13:44:51.000Z</time>
      </trkpt>
      <trkpt lat="43.51713" lon="6.36797">
        <ele>251</ele>
        <time>2021-11-24T13:44:52.000Z</time>
      </trkpt>
      <trkpt lat="43.51713" lon="6.36797">
        <ele>251</ele>
        <time>2021-11-24T13:44:53.000Z</time>
      </trkpt>
      <trkpt lat="43.51713" lon="6.36797">
        <ele>251</ele>
        <time>2021-11-24T13:44:54.000Z</time>
      </trkpt>
      <trkpt lat="43.51713" lon="6.36797">
        <ele>251</ele>
        <time>2021-11-24T13:44:55.000Z</time>
      </trkpt>
      <trkpt lat="43.51713" lon="6.36797">
        <ele>251</ele>
        <time>2021-11-24T13:44:56.000Z</time>
      </trkpt>
      <trkpt lat="43.51713" lon="6.36797">
        <ele>251</ele>
        <time>2021-11-24T13:44:57.000Z</time>
      </trkpt>
      <trkpt lat="43.51713" lon="6.36797">
        <ele>251</ele>
        <time>2021-11-24T13:44:58.000Z</time>
      </trkpt>
      <trkpt lat="43.51713" lon="6.36797">
        <ele>251</ele>
        <time>2021-11-24T13:44:59.000Z</time>
      </trkpt>
      <trkpt lat="43.51713" lon="6.36797">
        <ele>251</ele>
        <time>2021-11-24T13:45:00.000Z</time>
      </trkpt>
      <trkpt lat="43.51713" lon="6.36797">
        <ele>251</ele>
        <time>2021-11-24T13:45:01.000Z</time>
      </trkpt>
      <trkpt lat="43.51713" lon="6.36797">
        <ele>251</ele>
        <time>2021-11-24T13:45:02.000Z</time>
      </trkpt>
      <trkpt lat="43.51713" lon="6.36797">
        <ele>251</ele>
        <time>2021-11-24T13:45:03.000Z</time>
      </trkpt>
      <trkpt lat="43.51713" lon="6.36797">
        <ele>251</ele>
        <time>2021-11-24T13:45:04.000Z</time>
      </trkpt>
      <trkpt lat="43.51713" lon="6.36797">
        <ele>251</ele>
        <time>2021-11-24T13:45:05.000Z</time>
      </trkpt>
      <trkpt lat="43.51713" lon="6.36797">
        <ele>251</ele>
        <time>2021-11-24T13:45:06.000Z</time>
      </trkpt>
      <trkpt lat="43.51713" lon="6.36797">
        <ele>251</ele>
        <time>2021-11-24T13:45:07.000Z</time>
      </trkpt>
      <trkpt lat="43.51713" lon="6.36797">
        <ele>251</ele>
        <time>2021-11-24T13:45:08.000Z</time>
      </trkpt>
      <trkpt lat="43.51713" lon="6.36797">
        <ele>251</ele>
        <time>2021-11-24T13:45:09.000Z</time>
      </trkpt>
      <trkpt lat="43.51713" lon="6.36797">
        <ele>251</ele>
        <time>2021-11-24T13:45:10.000Z</time>
      </trkpt>
      <trkpt lat="43.51713" lon="6.36797">
        <ele>251</ele>
        <time>2021-11-24T13:45:11.000Z</time>
      </trkpt>
      <trkpt lat="43.51713" lon="6.36797">
        <ele>251</ele>
        <time>2021-11-24T13:45:12.000Z</time>
      </trkpt>
      <trkpt lat="43.51713" lon="6.36797">
        <ele>251</ele>
        <time>2021-11-24T13:45:13.000Z</time>
      </trkpt>
      <trkpt lat="43.51713" lon="6.36797">
        <ele>251</ele>
        <time>2021-11-24T13:45:14.000Z</time>
      </trkpt>
      <trkpt lat="43.51713" lon="6.36797">
        <ele>251</ele>
        <time>2021-11-24T13:45:15.000Z</time>
      </trkpt>
      <trkpt lat="43.51713" lon="6.36797">
        <ele>251</ele>
        <time>2021-11-24T13:45:16.000Z</time>
      </trkpt>
      <trkpt lat="43.51713" lon="6.36797">
        <ele>251</ele>
        <time>2021-11-24T13:45:17.000Z</time>
      </trkpt>
      <trkpt lat="43.51713" lon="6.36797">
        <ele>251</ele>
        <time>2021-11-24T13:45:18.000Z</time>
      </trkpt>
      <trkpt lat="43.51713" lon="6.36797">
        <ele>251</ele>
        <time>2021-11-24T13:45:19.000Z</time>
      </trkpt>
      <trkpt lat="43.51713" lon="6.36797">
        <ele>251</ele>
        <time>2021-11-24T13:45:20.000Z</time>
      </trkpt>
      <trkpt lat="43.51713" lon="6.36797">
        <ele>251</ele>
        <time>2021-11-24T13:45:21.000Z</time>
      </trkpt>
      <trkpt lat="43.51713" lon="6.36797">
        <ele>251</ele>
        <time>2021-11-24T13:45:22.000Z</time>
      </trkpt>
      <trkpt lat="43.51713" lon="6.36797">
        <ele>251</ele>
        <time>2021-11-24T13:45:23.000Z</time>
      </trkpt>
      <trkpt lat="43.51713" lon="6.36797">
        <ele>251</ele>
        <time>2021-11-24T13:45:24.000Z</time>
      </trkpt>
      <trkpt lat="43.51713" lon="6.36797">
        <ele>251</ele>
        <time>2021-11-24T13:45:25.000Z</time>
      </trkpt>
      <trkpt lat="43.51713" lon="6.36797">
        <ele>251</ele>
        <time>2021-11-24T13:45:26.000Z</time>
      </trkpt>
      <trkpt lat="43.51713" lon="6.36797">
        <ele>251</ele>
        <time>2021-11-24T13:45:27.000Z</time>
      </trkpt>
      <trkpt lat="43.51713" lon="6.36797">
        <ele>251</ele>
        <time>2021-11-24T13:45:28.000Z</time>
      </trkpt>
      <trkpt lat="43.51713" lon="6.36797">
        <ele>251</ele>
        <time>2021-11-24T13:45:29.000Z</time>
      </trkpt>
      <trkpt lat="43.51713" lon="6.36797">
        <ele>251</ele>
        <time>2021-11-24T13:45:30.000Z</time>
      </trkpt>
      <trkpt lat="43.51713" lon="6.36797">
        <ele>251</ele>
        <time>2021-11-24T13:45:31.000Z</time>
      </trkpt>
      <trkpt lat="43.51713" lon="6.36797">
        <ele>251</ele>
        <time>2021-11-24T13:45:32.000Z</time>
      </trkpt>
      <trkpt lat="43.51713" lon="6.36797">
        <ele>251</ele>
        <time>2021-11-24T13:45:33.000Z</time>
      </trkpt>
      <trkpt lat="43.51713" lon="6.36797">
        <ele>251</ele>
        <time>2021-11-24T13:45:34.000Z</time>
      </trkpt>
      <trkpt lat="43.51713" lon="6.36797">
        <ele>251</ele>
        <time>2021-11-24T13:45:35.000Z</time>
      </trkpt>
      <trkpt lat="43.51713" lon="6.36797">
        <ele>251</ele>
        <time>2021-11-24T13:45:36.000Z</time>
      </trkpt>
      <trkpt lat="43.51713" lon="6.36797">
        <ele>251</ele>
        <time>2021-11-24T13:45:37.000Z</time>
      </trkpt>
      <trkpt lat="43.51713" lon="6.36797">
        <ele>251</ele>
        <time>2021-11-24T13:45:38.000Z</time>
      </trkpt>
      <trkpt lat="43.51713" lon="6.36797">
        <ele>251</ele>
        <time>2021-11-24T13:45:39.000Z</time>
      </trkpt>
      <trkpt lat="43.51712" lon="6.36792">
        <ele>251</ele>
        <time>2021-11-24T13:45:40.000Z</time>
      </trkpt>
      <trkpt lat="43.51712" lon="6.36792">
        <ele>251</ele>
        <time>2021-11-24T13:45:41.000Z</time>
      </trkpt>
      <trkpt lat="43.51712" lon="6.36792">
        <ele>251</ele>
        <time>2021-11-24T13:45:42.000Z</time>
      </trkpt>
      <trkpt lat="43.51712" lon="6.36792">
        <ele>251</ele>
        <time>2021-11-24T13:45:43.000Z</time>
      </trkpt>
      <trkpt lat="43.51712" lon="6.36792">
        <ele>251</ele>
        <time>2021-11-24T13:45:44.000Z</time>
      </trkpt>
      <trkpt lat="43.51712" lon="6.36792">
        <ele>251</ele>
        <time>2021-11-24T13:45:45.000Z</time>
      </trkpt>
      <trkpt lat="43.51712" lon="6.36792">
        <ele>251</ele>
        <time>2021-11-24T13:45:46.000Z</time>
      </trkpt>
      <trkpt lat="43.51712" lon="6.36792">
        <ele>251</ele>
        <time>2021-11-24T13:45:47.000Z</time>
      </trkpt>
      <trkpt lat="43.51712" lon="6.36792">
        <ele>251</ele>
        <time>2021-11-24T13:45:48.000Z</time>
      </trkpt>
      <trkpt lat="43.51712" lon="6.36792">
        <ele>251</ele>
        <time>2021-11-24T13:45:49.000Z</time>
      </trkpt>
      <trkpt lat="43.51712" lon="6.36792">
        <ele>251</ele>
        <time>2021-11-24T13:45:50.000Z</time>
      </trkpt>
      <trkpt lat="43.51712" lon="6.36792">
        <ele>251</ele>
        <time>2021-11-24T13:45:51.000Z</time>
      </trkpt>
      <trkpt lat="43.51712" lon="6.36792">
        <ele>251</ele>
        <time>2021-11-24T13:45:52.000Z</time>
      </trkpt>
      <trkpt lat="43.51712" lon="6.36792">
        <ele>251</ele>
        <time>2021-11-24T13:45:53.000Z</time>
      </trkpt>
      <trkpt lat="43.51712" lon="6.36792">
        <ele>251</ele>
        <time>2021-11-24T13:45:54.000Z</time>
      </trkpt>
      <trkpt lat="43.51712" lon="6.36792">
        <ele>251</ele>
        <time>2021-11-24T13:45:55.000Z</time>
      </trkpt>
      <trkpt lat="43.51712" lon="6.36792">
        <ele>251</ele>
        <time>2021-11-24T13:45:56.000Z</time>
      </trkpt>
      <trkpt lat="43.51712" lon="6.36792">
        <ele>251</ele>
        <time>2021-11-24T13:45:57.000Z</time>
      </trkpt>
      <trkpt lat="43.51712" lon="6.36792">
        <ele>251</ele>
        <time>2021-11-24T13:45:58.000Z</time>
      </trkpt>
      <trkpt lat="43.51712" lon="6.36792">
        <ele>251</ele>
        <time>2021-11-24T13:45:59.000Z</time>
      </trkpt>
      <trkpt lat="43.51712" lon="6.36792">
        <ele>251</ele>
        <time>2021-11-24T13:46:00.000Z</time>
      </trkpt>
      <trkpt lat="43.51712" lon="6.36792">
        <ele>251</ele>
        <time>2021-11-24T13:46:01.000Z</time>
      </trkpt>
      <trkpt lat="43.51712" lon="6.36792">
        <ele>251</ele>
        <time>2021-11-24T13:46:02.000Z</time>
      </trkpt>
      <trkpt lat="43.51712" lon="6.36792">
        <ele>251</ele>
        <time>2021-11-24T13:46:03.000Z</time>
      </trkpt>
      <trkpt lat="43.51712" lon="6.36792">
        <ele>251</ele>
        <time>2021-11-24T13:46:04.000Z</time>
      </trkpt>
      <trkpt lat="43.51712" lon="6.36792">
        <ele>251</ele>
        <time>2021-11-24T13:46:05.000Z</time>
      </trkpt>
      <trkpt lat="43.51712" lon="6.36792">
        <ele>251</ele>
        <time>2021-11-24T13:46:06.000Z</time>
      </trkpt>
      <trkpt lat="43.51712" lon="6.36792">
        <ele>251</ele>
        <time>2021-11-24T13:46:07.000Z</time>
      </trkpt>
      <trkpt lat="43.51712" lon="6.36792">
        <ele>251</ele>
        <time>2021-11-24T13:46:08.000Z</time>
      </trkpt>
      <trkpt lat="43.51712" lon="6.36792">
        <ele>251</ele>
        <time>2021-11-24T13:46:09.000Z</time>
      </trkpt>
      <trkpt lat="43.51712" lon="6.36792">
        <ele>251</ele>
        <time>2021-11-24T13:46:10.000Z</time>
      </trkpt>
      <trkpt lat="43.51712" lon="6.36792">
        <ele>251</ele>
        <time>2021-11-24T13:46:11.000Z</time>
      </trkpt>
      <trkpt lat="43.51712" lon="6.36792">
        <ele>251</ele>
        <time>2021-11-24T13:46:12.000Z</time>
      </trkpt>
      <trkpt lat="43.51712" lon="6.36792">
        <ele>251</ele>
        <time>2021-11-24T13:46:13.000Z</time>
      </trkpt>
      <trkpt lat="43.51712" lon="6.36792">
        <ele>251</ele>
        <time>2021-11-24T13:46:14.000Z</time>
      </trkpt>
      <trkpt lat="43.51712" lon="6.36792">
        <ele>251</ele>
        <time>2021-11-24T13:46:15.000Z</time>
      </trkpt>
      <trkpt lat="43.51712" lon="6.36792">
        <ele>251</ele>
        <time>2021-11-24T13:46:16.000Z</time>
      </trkpt>
      <trkpt lat="43.51712" lon="6.36792">
        <ele>251</ele>
        <time>2021-11-24T13:46:17.000Z</time>
      </trkpt>
      <trkpt lat="43.51712" lon="6.36792">
        <ele>251</ele>
        <time>2021-11-24T13:46:18.000Z</time>
      </trkpt>
      <trkpt lat="43.51712" lon="6.36792">
        <ele>251</ele>
        <time>2021-11-24T13:46:19.000Z</time>
      </trkpt>
      <trkpt lat="43.51712" lon="6.36792">
        <ele>251</ele>
        <time>2021-11-24T13:46:20.000Z</time>
      </trkpt>
      <trkpt lat="43.51712" lon="6.36792">
        <ele>251</ele>
        <time>2021-11-24T13:46:21.000Z</time>
      </trkpt>
      <trkpt lat="43.51712" lon="6.36792">
        <ele>251</ele>
        <time>2021-11-24T13:46:22.000Z</time>
      </trkpt>
      <trkpt lat="43.51712" lon="6.36792">
        <ele>251</ele>
        <time>2021-11-24T13:46:23.000Z</time>
      </trkpt>
      <trkpt lat="43.51712" lon="6.36792">
        <ele>251</ele>
        <time>2021-11-24T13:46:24.000Z</time>
      </trkpt>
      <trkpt lat="43.51712" lon="6.36792">
        <ele>251</ele>
        <time>2021-11-24T13:46:25.000Z</time>
      </trkpt>
      <trkpt lat="43.51712" lon="6.36792">
        <ele>251</ele>
        <time>2021-11-24T13:46:26.000Z</time>
      </trkpt>
      <trkpt lat="43.51712" lon="6.36792">
        <ele>251</ele>
        <time>2021-11-24T13:46:27.000Z</time>
      </trkpt>
      <trkpt lat="43.51712" lon="6.36792">
        <ele>251</ele>
        <time>2021-11-24T13:46:28.000Z</time>
      </trkpt>
      <trkpt lat="43.51712" lon="6.36792">
        <ele>251</ele>
        <time>2021-11-24T13:46:29.000Z</time>
      </trkpt>
      <trkpt lat="43.51712" lon="6.36792">
        <ele>251</ele>
        <time>2021-11-24T13:46:30.000Z</time>
      </trkpt>
      <trkpt lat="43.51712" lon="6.36792">
        <ele>251</ele>
        <time>2021-11-24T13:46:31.000Z</time>
      </trkpt>
      <trkpt lat="43.51712" lon="6.36792">
        <ele>251</ele>
        <time>2021-11-24T13:46:32.000Z</time>
      </trkpt>
      <trkpt lat="43.51712" lon="6.36792">
        <ele>251</ele>
        <time>2021-11-24T13:46:33.000Z</time>
      </trkpt>
      <trkpt lat="43.51712" lon="6.36792">
        <ele>251</ele>
        <time>2021-11-24T13:46:34.000Z</time>
      </trkpt>
      <trkpt lat="43.51712" lon="6.36792">
        <ele>251</ele>
        <time>2021-11-24T13:46:35.000Z</time>
      </trkpt>
      <trkpt lat="43.51712" lon="6.36792">
        <ele>251</ele>
        <time>2021-11-24T13:46:36.000Z</time>
      </trkpt>
      <trkpt lat="43.51712" lon="6.36792">
        <ele>251</ele>
        <time>2021-11-24T13:46:37.000Z</time>
      </trkpt>
      <trkpt lat="43.51712" lon="6.36792">
        <ele>251</ele>
        <time>2021-11-24T13:46:38.000Z</time>
      </trkpt>
      <trkpt lat="43.51712" lon="6.36792">
        <ele>251</ele>
        <time>2021-11-24T13:46:39.000Z</time>
      </trkpt>
      <trkpt lat="43.51712" lon="6.36792">
        <ele>251</ele>
        <time>2021-11-24T13:46:40.000Z</time>
      </trkpt>
      <trkpt lat="43.51712" lon="6.36792">
        <ele>251</ele>
        <time>2021-11-24T13:46:41.000Z</time>
      </trkpt>
      <trkpt lat="43.51712" lon="6.36792">
        <ele>251</ele>
        <time>2021-11-24T13:46:42.000Z</time>
      </trkpt>
      <trkpt lat="43.51712" lon="6.36792">
        <ele>251</ele>
        <time>2021-11-24T13:46:43.000Z</time>
      </trkpt>
      <trkpt lat="43.51712" lon="6.36792">
        <ele>251</ele>
        <time>2021-11-24T13:46:44.000Z</time>
      </trkpt>
      <trkpt lat="43.51712" lon="6.36792">
        <ele>251</ele>
        <time>2021-11-24T13:46:45.000Z</time>
      </trkpt>
      <trkpt lat="43.51712" lon="6.36792">
        <ele>251</ele>
        <time>2021-11-24T13:46:46.000Z</time>
      </trkpt>
      <trkpt lat="43.51712" lon="6.36792">
        <ele>251</ele>
        <time>2021-11-24T13:46:47.000Z</time>
      </trkpt>
      <trkpt lat="43.51712" lon="6.36792">
        <ele>251</ele>
        <time>2021-11-24T13:46:48.000Z</time>
      </trkpt>
      <trkpt lat="43.51712" lon="6.36792">
        <ele>251</ele>
        <time>2021-11-24T13:46:49.000Z</time>
      </trkpt>
      <trkpt lat="43.51712" lon="6.36792">
        <ele>251</ele>
        <time>2021-11-24T13:46:50.000Z</time>
      </trkpt>
      <trkpt lat="43.51712" lon="6.36792">
        <ele>251</ele>
        <time>2021-11-24T13:46:51.000Z</time>
      </trkpt>
      <trkpt lat="43.51712" lon="6.36792">
        <ele>251</ele>
        <time>2021-11-24T13:46:52.000Z</time>
      </trkpt>
      <trkpt lat="43.51712" lon="6.36792">
        <ele>251</ele>
        <time>2021-11-24T13:46:53.000Z</time>
      </trkpt>
      <trkpt lat="43.51712" lon="6.36792">
        <ele>251</ele>
        <time>2021-11-24T13:46:54.000Z</time>
      </trkpt>
      <trkpt lat="43.51712" lon="6.36792">
        <ele>251</ele>
        <time>2021-11-24T13:46:55.000Z</time>
      </trkpt>
      <trkpt lat="43.51712" lon="6.36792">
        <ele>251</ele>
        <time>2021-11-24T13:46:56.000Z</time>
      </trkpt>
      <trkpt lat="43.51712" lon="6.36792">
        <ele>251</ele>
        <time>2021-11-24T13:46:57.000Z</time>
      </trkpt>
      <trkpt lat="43.51712" lon="6.36792">
        <ele>251</ele>
        <time>2021-11-24T13:46:58.000Z</time>
      </trkpt>
      <trkpt lat="43.51712" lon="6.36792">
        <ele>251</ele>
        <time>2021-11-24T13:46:59.000Z</time>
      </trkpt>
      <trkpt lat="43.51712" lon="6.36792">
        <ele>251</ele>
        <time>2021-11-24T13:47:00.000Z</time>
      </trkpt>
      <trkpt lat="43.51712" lon="6.36792">
        <ele>251</ele>
        <time>2021-11-24T13:47:01.000Z</time>
      </trkpt>
      <trkpt lat="43.51712" lon="6.36792">
        <ele>251</ele>
        <time>2021-11-24T13:47:02.000Z</time>
      </trkpt>
      <trkpt lat="43.51712" lon="6.36792">
        <ele>251</ele>
        <time>2021-11-24T13:47:03.000Z</time>
      </trkpt>
      <trkpt lat="43.51712" lon="6.36792">
        <ele>251</ele>
        <time>2021-11-24T13:47:04.000Z</time>
      </trkpt>
      <trkpt lat="43.51712" lon="6.36792">
        <ele>251</ele>
        <time>2021-11-24T13:47:05.000Z</time>
      </trkpt>
      <trkpt lat="43.51712" lon="6.36792">
        <ele>251</ele>
        <time>2021-11-24T13:47:06.000Z</time>
      </trkpt>
      <trkpt lat="43.51712" lon="6.36792">
        <ele>251</ele>
        <time>2021-11-24T13:47:07.000Z</time>
      </trkpt>
      <trkpt lat="43.51712" lon="6.36792">
        <ele>251</ele>
        <time>2021-11-24T13:47:08.000Z</time>
      </trkpt>
      <trkpt lat="43.51712" lon="6.36792">
        <ele>251</ele>
        <time>2021-11-24T13:47:09.000Z</time>
      </trkpt>
      <trkpt lat="43.51712" lon="6.36792">
        <ele>251</ele>
        <time>2021-11-24T13:47:10.000Z</time>
      </trkpt>
      <trkpt lat="43.51712" lon="6.36792">
        <ele>251</ele>
        <time>2021-11-24T13:47:11.000Z</time>
      </trkpt>
      <trkpt lat="43.51712" lon="6.36792">
        <ele>251</ele>
        <time>2021-11-24T13:47:12.000Z</time>
      </trkpt>
      <trkpt lat="43.51712" lon="6.36792">
        <ele>251</ele>
        <time>2021-11-24T13:47:13.000Z</time>
      </trkpt>
      <trkpt lat="43.51712" lon="6.36792">
        <ele>251</ele>
        <time>2021-11-24T13:47:14.000Z</time>
      </trkpt>
      <trkpt lat="43.51712" lon="6.36792">
        <ele>251</ele>
        <time>2021-11-24T13:47:15.000Z</time>
      </trkpt>
      <trkpt lat="43.51712" lon="6.36792">
        <ele>251</ele>
        <time>2021-11-24T13:47:16.000Z</time>
      </trkpt>
      <trkpt lat="43.51712" lon="6.36792">
        <ele>251</ele>
        <time>2021-11-24T13:47:17.000Z</time>
      </trkpt>
      <trkpt lat="43.51712" lon="6.36792">
        <ele>251</ele>
        <time>2021-11-24T13:47:18.000Z</time>
      </trkpt>
      <trkpt lat="43.51712" lon="6.36792">
        <ele>251</ele>
        <time>2021-11-24T13:47:19.000Z</time>
      </trkpt>
      <trkpt lat="43.51712" lon="6.36792">
        <ele>251</ele>
        <time>2021-11-24T13:47:20.000Z</time>
      </trkpt>
      <trkpt lat="43.51712" lon="6.36792">
        <ele>251</ele>
        <time>2021-11-24T13:47:21.000Z</time>
      </trkpt>
      <trkpt lat="43.51712" lon="6.36792">
        <ele>251</ele>
        <time>2021-11-24T13:47:22.000Z</time>
      </trkpt>
      <trkpt lat="43.51712" lon="6.36792">
        <ele>251</ele>
        <time>2021-11-24T13:47:23.000Z</time>
      </trkpt>
      <trkpt lat="43.51712" lon="6.36792">
        <ele>251</ele>
        <time>2021-11-24T13:47:24.000Z</time>
      </trkpt>
      <trkpt lat="43.51712" lon="6.36792">
        <ele>251</ele>
        <time>2021-11-24T13:47:25.000Z</time>
      </trkpt>
      <trkpt lat="43.51712" lon="6.36792">
        <ele>251</ele>
        <time>2021-11-24T13:47:26.000Z</time>
      </trkpt>
      <trkpt lat="43.51712" lon="6.36792">
        <ele>251</ele>
        <time>2021-11-24T13:47:27.000Z</time>
      </trkpt>
      <trkpt lat="43.51712" lon="6.36792">
        <ele>251</ele>
        <time>2021-11-24T13:47:28.000Z</time>
      </trkpt>
      <trkpt lat="43.51712" lon="6.36792">
        <ele>251</ele>
        <time>2021-11-24T13:47:29.000Z</time>
      </trkpt>
      <trkpt lat="43.51712" lon="6.36792">
        <ele>251</ele>
        <time>2021-11-24T13:47:30.000Z</time>
      </trkpt>
      <trkpt lat="43.51712" lon="6.36792">
        <ele>251</ele>
        <time>2021-11-24T13:47:31.000Z</time>
      </trkpt>
      <trkpt lat="43.51712" lon="6.36792">
        <ele>251</ele>
        <time>2021-11-24T13:47:32.000Z</time>
      </trkpt>
      <trkpt lat="43.51712" lon="6.36792">
        <ele>251</ele>
        <time>2021-11-24T13:47:33.000Z</time>
      </trkpt>
      <trkpt lat="43.51712" lon="6.36792">
        <ele>251</ele>
        <time>2021-11-24T13:47:34.000Z</time>
      </trkpt>
      <trkpt lat="43.51712" lon="6.36792">
        <ele>251</ele>
        <time>2021-11-24T13:47:35.000Z</time>
      </trkpt>
      <trkpt lat="43.51712" lon="6.36792">
        <ele>251</ele>
        <time>2021-11-24T13:47:36.000Z</time>
      </trkpt>
      <trkpt lat="43.51712" lon="6.36792">
        <ele>251</ele>
        <time>2021-11-24T13:47:37.000Z</time>
      </trkpt>
      <trkpt lat="43.51712" lon="6.36792">
        <ele>251</ele>
        <time>2021-11-24T13:47:38.000Z</time>
      </trkpt>
      <trkpt lat="43.51712" lon="6.36792">
        <ele>251</ele>
        <time>2021-11-24T13:47:39.000Z</time>
      </trkpt>
      <trkpt lat="43.51712" lon="6.36792">
        <ele>251</ele>
        <time>2021-11-24T13:47:40.000Z</time>
      </trkpt>
      <trkpt lat="43.51712" lon="6.36792">
        <ele>251</ele>
        <time>2021-11-24T13:47:41.000Z</time>
      </trkpt>
      <trkpt lat="43.51712" lon="6.36792">
        <ele>251</ele>
        <time>2021-11-24T13:47:42.000Z</time>
      </trkpt>
      <trkpt lat="43.51712" lon="6.36792">
        <ele>251</ele>
        <time>2021-11-24T13:47:43.000Z</time>
      </trkpt>
      <trkpt lat="43.51712" lon="6.36792">
        <ele>251</ele>
        <time>2021-11-24T13:47:44.000Z</time>
      </trkpt>
      <trkpt lat="43.51712" lon="6.36792">
        <ele>251</ele>
        <time>2021-11-24T13:47:45.000Z</time>
      </trkpt>
      <trkpt lat="43.51712" lon="6.36792">
        <ele>251</ele>
        <time>2021-11-24T13:47:46.000Z</time>
      </trkpt>
      <trkpt lat="43.51712" lon="6.36792">
        <ele>251</ele>
        <time>2021-11-24T13:47:47.000Z</time>
      </trkpt>
      <trkpt lat="43.51712" lon="6.36792">
        <ele>251</ele>
        <time>2021-11-24T13:47:48.000Z</time>
      </trkpt>
      <trkpt lat="43.51712" lon="6.36792">
        <ele>251</ele>
        <time>2021-11-24T13:47:49.000Z</time>
      </trkpt>
      <trkpt lat="43.51712" lon="6.36792">
        <ele>251</ele>
        <time>2021-11-24T13:47:50.000Z</time>
      </trkpt>
      <trkpt lat="43.51712" lon="6.36792">
        <ele>251</ele>
        <time>2021-11-24T13:47:51.000Z</time>
      </trkpt>
      <trkpt lat="43.51712" lon="6.36792">
        <ele>251</ele>
        <time>2021-11-24T13:47:52.000Z</time>
      </trkpt>
      <trkpt lat="43.51712" lon="6.36792">
        <ele>251</ele>
        <time>2021-11-24T13:47:53.000Z</time>
      </trkpt>
      <trkpt lat="43.51712" lon="6.36792">
        <ele>251</ele>
        <time>2021-11-24T13:47:54.000Z</time>
      </trkpt>
      <trkpt lat="43.51712" lon="6.36792">
        <ele>251</ele>
        <time>2021-11-24T13:47:55.000Z</time>
      </trkpt>
      <trkpt lat="43.51712" lon="6.36792">
        <ele>251</ele>
        <time>2021-11-24T13:47:56.000Z</time>
      </trkpt>
      <trkpt lat="43.51712" lon="6.36792">
        <ele>251</ele>
        <time>2021-11-24T13:47:57.000Z</time>
      </trkpt>
      <trkpt lat="43.51712" lon="6.36792">
        <ele>251</ele>
        <time>2021-11-24T13:47:58.000Z</time>
      </trkpt>
      <trkpt lat="43.51712" lon="6.36792">
        <ele>251</ele>
        <time>2021-11-24T13:47:59.000Z</time>
      </trkpt>
      <trkpt lat="43.51712" lon="6.36792">
        <ele>251</ele>
        <time>2021-11-24T13:48:00.000Z</time>
      </trkpt>
      <trkpt lat="43.51712" lon="6.36792">
        <ele>251</ele>
        <time>2021-11-24T13:48:01.000Z</time>
      </trkpt>
      <trkpt lat="43.51712" lon="6.36792">
        <ele>251</ele>
        <time>2021-11-24T13:48:02.000Z</time>
      </trkpt>
      <trkpt lat="43.51712" lon="6.36792">
        <ele>251</ele>
        <time>2021-11-24T13:48:03.000Z</time>
      </trkpt>
      <trkpt lat="43.51712" lon="6.36792">
        <ele>251</ele>
        <time>2021-11-24T13:48:04.000Z</time>
      </trkpt>
      <trkpt lat="43.51712" lon="6.36792">
        <ele>251</ele>
        <time>2021-11-24T13:48:05.000Z</time>
      </trkpt>
      <trkpt lat="43.51712" lon="6.36792">
        <ele>251</ele>
        <time>2021-11-24T13:48:06.000Z</time>
      </trkpt>
      <trkpt lat="43.51712" lon="6.36792">
        <ele>251</ele>
        <time>2021-11-24T13:48:07.000Z</time>
      </trkpt>
      <trkpt lat="43.51712" lon="6.36792">
        <ele>251</ele>
        <time>2021-11-24T13:48:08.000Z</time>
      </trkpt>
      <trkpt lat="43.51712" lon="6.36792">
        <ele>251</ele>
        <time>2021-11-24T13:48:09.000Z</time>
      </trkpt>
      <trkpt lat="43.51712" lon="6.36792">
        <ele>251</ele>
        <time>2021-11-24T13:48:10.000Z</time>
      </trkpt>
      <trkpt lat="43.51712" lon="6.36792">
        <ele>251</ele>
        <time>2021-11-24T13:48:11.000Z</time>
      </trkpt>
      <trkpt lat="43.51712" lon="6.36792">
        <ele>251</ele>
        <time>2021-11-24T13:48:12.000Z</time>
      </trkpt>
      <trkpt lat="43.51712" lon="6.36792">
        <ele>251</ele>
        <time>2021-11-24T13:48:13.000Z</time>
      </trkpt>
      <trkpt lat="43.51712" lon="6.36792">
        <ele>251</ele>
        <time>2021-11-24T13:48:14.000Z</time>
      </trkpt>
      <trkpt lat="43.51712" lon="6.36792">
        <ele>251</ele>
        <time>2021-11-24T13:48:15.000Z</time>
      </trkpt>
      <trkpt lat="43.51712" lon="6.36792">
        <ele>251</ele>
        <time>2021-11-24T13:48:16.000Z</time>
      </trkpt>
      <trkpt lat="43.51712" lon="6.36792">
        <ele>251</ele>
        <time>2021-11-24T13:48:17.000Z</time>
      </trkpt>
      <trkpt lat="43.51712" lon="6.36791">
        <ele>251</ele>
        <time>2021-11-24T13:48:18.000Z</time>
      </trkpt>
      <trkpt lat="43.51712" lon="6.36791">
        <ele>251</ele>
        <time>2021-11-24T13:48:19.000Z</time>
      </trkpt>
      <trkpt lat="43.51712" lon="6.36791">
        <ele>251</ele>
        <time>2021-11-24T13:48:20.000Z</time>
      </trkpt>
      <trkpt lat="43.51713" lon="6.3679">
        <ele>251</ele>
        <time>2021-11-24T13:48:21.000Z</time>
      </trkpt>
      <trkpt lat="43.51713" lon="6.3679">
        <ele>251</ele>
        <time>2021-11-24T13:48:22.000Z</time>
      </trkpt>
      <trkpt lat="43.51713" lon="6.36789">
        <ele>251</ele>
        <time>2021-11-24T13:48:23.000Z</time>
      </trkpt>
      <trkpt lat="43.51714" lon="6.36788">
        <ele>251</ele>
        <time>2021-11-24T13:48:24.000Z</time>
      </trkpt>
      <trkpt lat="43.51714" lon="6.36787">
        <ele>251</ele>
        <time>2021-11-24T13:48:25.000Z</time>
      </trkpt>
      <trkpt lat="43.51715" lon="6.36786">
        <ele>251</ele>
        <time>2021-11-24T13:48:26.000Z</time>
      </trkpt>
      <trkpt lat="43.51716" lon="6.36785">
        <ele>251</ele>
        <time>2021-11-24T13:48:27.000Z</time>
      </trkpt>
      <trkpt lat="43.51716" lon="6.36784">
        <ele>251</ele>
        <time>2021-11-24T13:48:28.000Z</time>
      </trkpt>
      <trkpt lat="43.51717" lon="6.36783">
        <ele>251</ele>
        <time>2021-11-24T13:48:29.000Z</time>
      </trkpt>
      <trkpt lat="43.51717" lon="6.36782">
        <ele>251</ele>
        <time>2021-11-24T13:48:30.000Z</time>
      </trkpt>
      <trkpt lat="43.51718" lon="6.36781">
        <ele>250</ele>
        <time>2021-11-24T13:48:31.000Z</time>
      </trkpt>
      <trkpt lat="43.51718" lon="6.3678">
        <ele>250</ele>
        <time>2021-11-24T13:48:32.000Z</time>
      </trkpt>
      <trkpt lat="43.51718" lon="6.36779">
        <ele>250</ele>
        <time>2021-11-24T13:48:33.000Z</time>
      </trkpt>
      <trkpt lat="43.51718" lon="6.36778">
        <ele>250</ele>
        <time>2021-11-24T13:48:34.000Z</time>
      </trkpt>
      <trkpt lat="43.51719" lon="6.36777">
        <ele>250</ele>
        <time>2021-11-24T13:48:35.000Z</time>
      </trkpt>
      <trkpt lat="43.51719" lon="6.36776">
        <ele>250</ele>
        <time>2021-11-24T13:48:36.000Z</time>
      </trkpt>
      <trkpt lat="43.51719" lon="6.36775">
        <ele>250</ele>
        <time>2021-11-24T13:48:37.000Z</time>
      </trkpt>
      <trkpt lat="43.51719" lon="6.36774">
        <ele>250</ele>
        <time>2021-11-24T13:48:38.000Z</time>
      </trkpt>
      <trkpt lat="43.51719" lon="6.36773">
        <ele>250</ele>
        <time>2021-11-24T13:48:39.000Z</time>
      </trkpt>
      <trkpt lat="43.5172" lon="6.36771">
        <ele>250</ele>
        <time>2021-11-24T13:48:40.000Z</time>
      </trkpt>
      <trkpt lat="43.5172" lon="6.36769">
        <ele>250</ele>
        <time>2021-11-24T13:48:41.000Z</time>
      </trkpt>
      <trkpt lat="43.51721" lon="6.36767">
        <ele>250</ele>
        <time>2021-11-24T13:48:42.000Z</time>
      </trkpt>
      <trkpt lat="43.51721" lon="6.36766">
        <ele>250</ele>
        <time>2021-11-24T13:48:43.000Z</time>
      </trkpt>
      <trkpt lat="43.51721" lon="6.36764">
        <ele>250</ele>
        <time>2021-11-24T13:48:44.000Z</time>
      </trkpt>
      <trkpt lat="43.51721" lon="6.36763">
        <ele>250</ele>
        <time>2021-11-24T13:48:45.000Z</time>
      </trkpt>
      <trkpt lat="43.51721" lon="6.36762">
        <ele>250</ele>
        <time>2021-11-24T13:48:46.000Z</time>
      </trkpt>
      <trkpt lat="43.5172" lon="6.36761">
        <ele>250</ele>
        <time>2021-11-24T13:48:47.000Z</time>
      </trkpt>
      <trkpt lat="43.5172" lon="6.3676">
        <ele>250</ele>
        <time>2021-11-24T13:48:48.000Z</time>
      </trkpt>
      <trkpt lat="43.5172" lon="6.36759">
        <ele>250</ele>
        <time>2021-11-24T13:48:49.000Z</time>
      </trkpt>
      <trkpt lat="43.5172" lon="6.36758">
        <ele>250</ele>
        <time>2021-11-24T13:48:50.000Z</time>
      </trkpt>
      <trkpt lat="43.5172" lon="6.36756">
        <ele>250</ele>
        <time>2021-11-24T13:48:51.000Z</time>
      </trkpt>
      <trkpt lat="43.5172" lon="6.36755">
        <ele>250</ele>
        <time>2021-11-24T13:48:52.000Z</time>
      </trkpt>
      <trkpt lat="43.51719" lon="6.36754">
        <ele>250</ele>
        <time>2021-11-24T13:48:53.000Z</time>
      </trkpt>
      <trkpt lat="43.51719" lon="6.36752">
        <ele>250</ele>
        <time>2021-11-24T13:48:54.000Z</time>
      </trkpt>
      <trkpt lat="43.51718" lon="6.3675">
        <ele>249</ele>
        <time>2021-11-24T13:48:55.000Z</time>
      </trkpt>
      <trkpt lat="43.51717" lon="6.36749">
        <ele>249</ele>
        <time>2021-11-24T13:48:56.000Z</time>
      </trkpt>
      <trkpt lat="43.51717" lon="6.36749">
        <ele>249</ele>
        <time>2021-11-24T13:48:57.000Z</time>
      </trkpt>
      <trkpt lat="43.51716" lon="6.3675">
        <ele>249</ele>
        <time>2021-11-24T13:48:58.000Z</time>
      </trkpt>
      <trkpt lat="43.51715" lon="6.36751">
        <ele>249</ele>
        <time>2021-11-24T13:48:59.000Z</time>
      </trkpt>
      <trkpt lat="43.51714" lon="6.36752">
        <ele>249</ele>
        <time>2021-11-24T13:49:00.000Z</time>
      </trkpt>
      <trkpt lat="43.51714" lon="6.36752">
        <ele>249</ele>
        <time>2021-11-24T13:49:01.000Z</time>
      </trkpt>
      <trkpt lat="43.51713" lon="6.36753">
        <ele>249</ele>
        <time>2021-11-24T13:49:02.000Z</time>
      </trkpt>
      <trkpt lat="43.51713" lon="6.36754">
        <ele>249</ele>
        <time>2021-11-24T13:49:03.000Z</time>
      </trkpt>
      <trkpt lat="43.51712" lon="6.36755">
        <ele>249</ele>
        <time>2021-11-24T13:49:04.000Z</time>
      </trkpt>
      <trkpt lat="43.51712" lon="6.36756">
        <ele>249</ele>
        <time>2021-11-24T13:49:05.000Z</time>
      </trkpt>
      <trkpt lat="43.51711" lon="6.36757">
        <ele>249</ele>
        <time>2021-11-24T13:49:06.000Z</time>
      </trkpt>
      <trkpt lat="43.51711" lon="6.36758">
        <ele>249</ele>
        <time>2021-11-24T13:49:07.000Z</time>
      </trkpt>
      <trkpt lat="43.5171" lon="6.3676">
        <ele>250</ele>
        <time>2021-11-24T13:49:08.000Z</time>
      </trkpt>
      <trkpt lat="43.5171" lon="6.36761">
        <ele>250</ele>
        <time>2021-11-24T13:49:09.000Z</time>
      </trkpt>
      <trkpt lat="43.51709" lon="6.36763">
        <ele>251</ele>
        <time>2021-11-24T13:49:10.000Z</time>
      </trkpt>
      <trkpt lat="43.51708" lon="6.36764">
        <ele>251</ele>
        <time>2021-11-24T13:49:11.000Z</time>
      </trkpt>
      <trkpt lat="43.51708" lon="6.36766">
        <ele>251</ele>
        <time>2021-11-24T13:49:12.000Z</time>
      </trkpt>
      <trkpt lat="43.51707" lon="6.36767">
        <ele>251</ele>
        <time>2021-11-24T13:49:13.000Z</time>
      </trkpt>
      <trkpt lat="43.51707" lon="6.36768">
        <ele>251</ele>
        <time>2021-11-24T13:49:14.000Z</time>
      </trkpt>
      <trkpt lat="43.51706" lon="6.36769">
        <ele>251</ele>
        <time>2021-11-24T13:49:15.000Z</time>
      </trkpt>
      <trkpt lat="43.51704" lon="6.36771">
        <ele>252</ele>
        <time>2021-11-24T13:49:16.000Z</time>
      </trkpt>
      <trkpt lat="43.51703" lon="6.36772">
        <ele>252</ele>
        <time>2021-11-24T13:49:17.000Z</time>
      </trkpt>
      <trkpt lat="43.51702" lon="6.36774">
        <ele>252</ele>
        <time>2021-11-24T13:49:18.000Z</time>
      </trkpt>
      <trkpt lat="43.51701" lon="6.36775">
        <ele>252</ele>
        <time>2021-11-24T13:49:19.000Z</time>
      </trkpt>
      <trkpt lat="43.517" lon="6.36776">
        <ele>252</ele>
        <time>2021-11-24T13:49:20.000Z</time>
      </trkpt>
      <trkpt lat="43.51699" lon="6.36777">
        <ele>252</ele>
        <time>2021-11-24T13:49:21.000Z</time>
      </trkpt>
      <trkpt lat="43.51698" lon="6.36778">
        <ele>252</ele>
        <time>2021-11-24T13:49:22.000Z</time>
      </trkpt>
      <trkpt lat="43.51697" lon="6.36778">
        <ele>253</ele>
        <time>2021-11-24T13:49:23.000Z</time>
      </trkpt>
      <trkpt lat="43.51696" lon="6.36779">
        <ele>253</ele>
        <time>2021-11-24T13:49:24.000Z</time>
      </trkpt>
      <trkpt lat="43.51695" lon="6.3678">
        <ele>254</ele>
        <time>2021-11-24T13:49:25.000Z</time>
      </trkpt>
      <trkpt lat="43.51695" lon="6.3678">
        <ele>254</ele>
        <time>2021-11-24T13:49:26.000Z</time>
      </trkpt>
      <trkpt lat="43.51694" lon="6.3678">
        <ele>254</ele>
        <time>2021-11-24T13:49:27.000Z</time>
      </trkpt>
      <trkpt lat="43.51693" lon="6.36779">
        <ele>254</ele>
        <time>2021-11-24T13:49:28.000Z</time>
      </trkpt>
      <trkpt lat="43.51694" lon="6.36779">
        <ele>255</ele>
        <time>2021-11-24T13:49:29.000Z</time>
      </trkpt>
      <trkpt lat="43.51694" lon="6.36778">
        <ele>255</ele>
        <time>2021-11-24T13:49:30.000Z</time>
      </trkpt>
      <trkpt lat="43.51694" lon="6.36777">
        <ele>255</ele>
        <time>2021-11-24T13:49:31.000Z</time>
      </trkpt>
      <trkpt lat="43.51694" lon="6.36777">
        <ele>255</ele>
        <time>2021-11-24T13:49:32.000Z</time>
      </trkpt>
      <trkpt lat="43.51694" lon="6.36776">
        <ele>255</ele>
        <time>2021-11-24T13:49:33.000Z</time>
      </trkpt>
      <trkpt lat="43.51694" lon="6.36776">
        <ele>255</ele>
        <time>2021-11-24T13:49:34.000Z</time>
      </trkpt>
      <trkpt lat="43.51694" lon="6.36775">
        <ele>255</ele>
        <time>2021-11-24T13:49:35.000Z</time>
      </trkpt>
      <trkpt lat="43.51695" lon="6.36775">
        <ele>255</ele>
        <time>2021-11-24T13:49:36.000Z</time>
      </trkpt>
      <trkpt lat="43.51695" lon="6.36774">
        <ele>255</ele>
        <time>2021-11-24T13:49:37.000Z</time>
      </trkpt>
      <trkpt lat="43.51695" lon="6.36773">
        <ele>255</ele>
        <time>2021-11-24T13:49:38.000Z</time>
      </trkpt>
      <trkpt lat="43.51696" lon="6.36773">
        <ele>255</ele>
        <time>2021-11-24T13:49:39.000Z</time>
      </trkpt>
      <trkpt lat="43.51696" lon="6.36772">
        <ele>255</ele>
        <time>2021-11-24T13:49:40.000Z</time>
      </trkpt>
      <trkpt lat="43.51696" lon="6.36771">
        <ele>255</ele>
        <time>2021-11-24T13:49:41.000Z</time>
      </trkpt>
      <trkpt lat="43.51697" lon="6.3677">
        <ele>255</ele>
        <time>2021-11-24T13:49:42.000Z</time>
      </trkpt>
      <trkpt lat="43.51697" lon="6.36769">
        <ele>254</ele>
        <time>2021-11-24T13:49:43.000Z</time>
      </trkpt>
      <trkpt lat="43.51697" lon="6.36768">
        <ele>254</ele>
        <time>2021-11-24T13:49:44.000Z</time>
      </trkpt>
      <trkpt lat="43.51697" lon="6.36768">
        <ele>254</ele>
        <time>2021-11-24T13:49:45.000Z</time>
      </trkpt>
      <trkpt lat="43.51697" lon="6.36767">
        <ele>254</ele>
        <time>2021-11-24T13:49:46.000Z</time>
      </trkpt>
      <trkpt lat="43.51698" lon="6.36766">
        <ele>254</ele>
        <time>2021-11-24T13:49:47.000Z</time>
      </trkpt>
      <trkpt lat="43.51698" lon="6.36765">
        <ele>254</ele>
        <time>2021-11-24T13:49:48.000Z</time>
      </trkpt>
      <trkpt lat="43.51698" lon="6.36763">
        <ele>254</ele>
        <time>2021-11-24T13:49:49.000Z</time>
      </trkpt>
      <trkpt lat="43.51698" lon="6.36762">
        <ele>254</ele>
        <time>2021-11-24T13:49:50.000Z</time>
      </trkpt>
      <trkpt lat="43.51699" lon="6.36761">
        <ele>254</ele>
        <time>2021-11-24T13:49:51.000Z</time>
      </trkpt>
      <trkpt lat="43.51699" lon="6.3676">
        <ele>254</ele>
        <time>2021-11-24T13:49:52.000Z</time>
      </trkpt>
      <trkpt lat="43.51699" lon="6.36759">
        <ele>254</ele>
        <time>2021-11-24T13:49:53.000Z</time>
      </trkpt>
      <trkpt lat="43.51699" lon="6.36758">
        <ele>255</ele>
        <time>2021-11-24T13:49:54.000Z</time>
      </trkpt>
      <trkpt lat="43.517" lon="6.36756">
        <ele>255</ele>
        <time>2021-11-24T13:49:55.000Z</time>
      </trkpt>
      <trkpt lat="43.517" lon="6.36754">
        <ele>255</ele>
        <time>2021-11-24T13:49:56.000Z</time>
      </trkpt>
      <trkpt lat="43.517" lon="6.36753">
        <ele>256</ele>
        <time>2021-11-24T13:49:57.000Z</time>
      </trkpt>
      <trkpt lat="43.517" lon="6.36751">
        <ele>256</ele>
        <time>2021-11-24T13:49:58.000Z</time>
      </trkpt>
      <trkpt lat="43.51701" lon="6.3675">
        <ele>256</ele>
        <time>2021-11-24T13:49:59.000Z</time>
      </trkpt>
      <trkpt lat="43.51701" lon="6.36749">
        <ele>257</ele>
        <time>2021-11-24T13:50:00.000Z</time>
      </trkpt>
      <trkpt lat="43.51701" lon="6.36748">
        <ele>257</ele>
        <time>2021-11-24T13:50:01.000Z</time>
      </trkpt>
      <trkpt lat="43.51701" lon="6.36746">
        <ele>257</ele>
        <time>2021-11-24T13:50:02.000Z</time>
      </trkpt>
      <trkpt lat="43.51701" lon="6.36746">
        <ele>257</ele>
        <time>2021-11-24T13:50:03.000Z</time>
      </trkpt>
      <trkpt lat="43.51701" lon="6.36745">
        <ele>257</ele>
        <time>2021-11-24T13:50:04.000Z</time>
      </trkpt>
      <trkpt lat="43.51701" lon="6.36744">
        <ele>257</ele>
        <time>2021-11-24T13:50:05.000Z</time>
      </trkpt>
      <trkpt lat="43.51701" lon="6.36743">
        <ele>257</ele>
        <time>2021-11-24T13:50:06.000Z</time>
      </trkpt>
      <trkpt lat="43.51701" lon="6.36743">
        <ele>257</ele>
        <time>2021-11-24T13:50:07.000Z</time>
      </trkpt>
      <trkpt lat="43.51701" lon="6.36742">
        <ele>257</ele>
        <time>2021-11-24T13:50:08.000Z</time>
      </trkpt>
      <trkpt lat="43.51701" lon="6.36741">
        <ele>257</ele>
        <time>2021-11-24T13:50:09.000Z</time>
      </trkpt>
      <trkpt lat="43.51701" lon="6.3674">
        <ele>257</ele>
        <time>2021-11-24T13:50:10.000Z</time>
      </trkpt>
      <trkpt lat="43.51701" lon="6.36739">
        <ele>257</ele>
        <time>2021-11-24T13:50:11.000Z</time>
      </trkpt>
      <trkpt lat="43.51702" lon="6.36739">
        <ele>257</ele>
        <time>2021-11-24T13:50:12.000Z</time>
      </trkpt>
      <trkpt lat="43.51702" lon="6.36739">
        <ele>257</ele>
        <time>2021-11-24T13:50:13.000Z</time>
      </trkpt>
      <trkpt lat="43.51702" lon="6.36738">
        <ele>257</ele>
        <time>2021-11-24T13:50:14.000Z</time>
      </trkpt>
      <trkpt lat="43.51702" lon="6.36738">
        <ele>257</ele>
        <time>2021-11-24T13:50:15.000Z</time>
      </trkpt>
      <trkpt lat="43.51702" lon="6.36737">
        <ele>257</ele>
        <time>2021-11-24T13:50:16.000Z</time>
      </trkpt>
      <trkpt lat="43.51702" lon="6.36737">
        <ele>257</ele>
        <time>2021-11-24T13:50:17.000Z</time>
      </trkpt>
      <trkpt lat="43.51702" lon="6.36737">
        <ele>257</ele>
        <time>2021-11-24T13:50:18.000Z</time>
      </trkpt>
      <trkpt lat="43.51702" lon="6.36736">
        <ele>257</ele>
        <time>2021-11-24T13:50:19.000Z</time>
      </trkpt>
      <trkpt lat="43.51701" lon="6.36736">
        <ele>257</ele>
        <time>2021-11-24T13:50:20.000Z</time>
      </trkpt>
      <trkpt lat="43.51701" lon="6.36735">
        <ele>257</ele>
        <time>2021-11-24T13:50:21.000Z</time>
      </trkpt>
      <trkpt lat="43.51701" lon="6.36733">
        <ele>256</ele>
        <time>2021-11-24T13:50:22.000Z</time>
      </trkpt>
      <trkpt lat="43.517" lon="6.36732">
        <ele>256</ele>
        <time>2021-11-24T13:50:23.000Z</time>
      </trkpt>
      <trkpt lat="43.517" lon="6.36731">
        <ele>256</ele>
        <time>2021-11-24T13:50:24.000Z</time>
      </trkpt>
      <trkpt lat="43.51701" lon="6.3673">
        <ele>256</ele>
        <time>2021-11-24T13:50:25.000Z</time>
      </trkpt>
      <trkpt lat="43.51701" lon="6.36729">
        <ele>256</ele>
        <time>2021-11-24T13:50:26.000Z</time>
      </trkpt>
      <trkpt lat="43.51702" lon="6.36728">
        <ele>256</ele>
        <time>2021-11-24T13:50:27.000Z</time>
      </trkpt>
      <trkpt lat="43.51702" lon="6.36727">
        <ele>256</ele>
        <time>2021-11-24T13:50:28.000Z</time>
      </trkpt>
      <trkpt lat="43.51702" lon="6.36726">
        <ele>256</ele>
        <time>2021-11-24T13:50:29.000Z</time>
      </trkpt>
      <trkpt lat="43.51702" lon="6.36725">
        <ele>256</ele>
        <time>2021-11-24T13:50:30.000Z</time>
      </trkpt>
      <trkpt lat="43.51702" lon="6.36723">
        <ele>256</ele>
        <time>2021-11-24T13:50:31.000Z</time>
      </trkpt>
      <trkpt lat="43.51702" lon="6.36721">
        <ele>256</ele>
        <time>2021-11-24T13:50:32.000Z</time>
      </trkpt>
      <trkpt lat="43.51702" lon="6.3672">
        <ele>256</ele>
        <time>2021-11-24T13:50:33.000Z</time>
      </trkpt>
      <trkpt lat="43.51702" lon="6.36719">
        <ele>256</ele>
        <time>2021-11-24T13:50:34.000Z</time>
      </trkpt>
      <trkpt lat="43.51702" lon="6.36717">
        <ele>256</ele>
        <time>2021-11-24T13:50:35.000Z</time>
      </trkpt>
      <trkpt lat="43.51701" lon="6.36716">
        <ele>255</ele>
        <time>2021-11-24T13:50:36.000Z</time>
      </trkpt>
      <trkpt lat="43.51701" lon="6.36715">
        <ele>255</ele>
        <time>2021-11-24T13:50:37.000Z</time>
      </trkpt>
      <trkpt lat="43.51701" lon="6.36714">
        <ele>255</ele>
        <time>2021-11-24T13:50:38.000Z</time>
      </trkpt>
      <trkpt lat="43.517" lon="6.36712">
        <ele>255</ele>
        <time>2021-11-24T13:50:39.000Z</time>
      </trkpt>
      <trkpt lat="43.517" lon="6.36711">
        <ele>255</ele>
        <time>2021-11-24T13:50:40.000Z</time>
      </trkpt>
      <trkpt lat="43.51699" lon="6.36709">
        <ele>255</ele>
        <time>2021-11-24T13:50:41.000Z</time>
      </trkpt>
      <trkpt lat="43.51699" lon="6.36708">
        <ele>255</ele>
        <time>2021-11-24T13:50:42.000Z</time>
      </trkpt>
      <trkpt lat="43.51698" lon="6.36707">
        <ele>255</ele>
        <time>2021-11-24T13:50:43.000Z</time>
      </trkpt>
      <trkpt lat="43.51698" lon="6.36705">
        <ele>255</ele>
        <time>2021-11-24T13:50:44.000Z</time>
      </trkpt>
      <trkpt lat="43.51698" lon="6.36704">
        <ele>255</ele>
        <time>2021-11-24T13:50:45.000Z</time>
      </trkpt>
      <trkpt lat="43.51697" lon="6.36703">
        <ele>255</ele>
        <time>2021-11-24T13:50:46.000Z</time>
      </trkpt>
      <trkpt lat="43.51697" lon="6.36702">
        <ele>255</ele>
        <time>2021-11-24T13:50:47.000Z</time>
      </trkpt>
      <trkpt lat="43.51696" lon="6.367">
        <ele>255</ele>
        <time>2021-11-24T13:50:48.000Z</time>
      </trkpt>
      <trkpt lat="43.51695" lon="6.36699">
        <ele>255</ele>
        <time>2021-11-24T13:50:49.000Z</time>
      </trkpt>
      <trkpt lat="43.51695" lon="6.36698">
        <ele>255</ele>
        <time>2021-11-24T13:50:50.000Z</time>
      </trkpt>
      <trkpt lat="43.51694" lon="6.36698">
        <ele>255</ele>
        <time>2021-11-24T13:50:51.000Z</time>
      </trkpt>
      <trkpt lat="43.51694" lon="6.36697">
        <ele>255</ele>
        <time>2021-11-24T13:50:52.000Z</time>
      </trkpt>
      <trkpt lat="43.51693" lon="6.36696">
        <ele>255</ele>
        <time>2021-11-24T13:50:53.000Z</time>
      </trkpt>
      <trkpt lat="43.51693" lon="6.36695">
        <ele>255</ele>
        <time>2021-11-24T13:50:54.000Z</time>
      </trkpt>
      <trkpt lat="43.51693" lon="6.36695">
        <ele>255</ele>
        <time>2021-11-24T13:50:55.000Z</time>
      </trkpt>
      <trkpt lat="43.51692" lon="6.36694">
        <ele>255</ele>
        <time>2021-11-24T13:50:56.000Z</time>
      </trkpt>
      <trkpt lat="43.51692" lon="6.36693">
        <ele>255</ele>
        <time>2021-11-24T13:50:57.000Z</time>
      </trkpt>
      <trkpt lat="43.51691" lon="6.36692">
        <ele>255</ele>
        <time>2021-11-24T13:50:58.000Z</time>
      </trkpt>
      <trkpt lat="43.51691" lon="6.36691">
        <ele>255</ele>
        <time>2021-11-24T13:50:59.000Z</time>
      </trkpt>
      <trkpt lat="43.51691" lon="6.3669">
        <ele>254</ele>
        <time>2021-11-24T13:51:00.000Z</time>
      </trkpt>
      <trkpt lat="43.5169" lon="6.36689">
        <ele>254</ele>
        <time>2021-11-24T13:51:01.000Z</time>
      </trkpt>
      <trkpt lat="43.5169" lon="6.36688">
        <ele>254</ele>
        <time>2021-11-24T13:51:02.000Z</time>
      </trkpt>
      <trkpt lat="43.51689" lon="6.36687">
        <ele>254</ele>
        <time>2021-11-24T13:51:03.000Z</time>
      </trkpt>
      <trkpt lat="43.51689" lon="6.36685">
        <ele>254</ele>
        <time>2021-11-24T13:51:04.000Z</time>
      </trkpt>
      <trkpt lat="43.51688" lon="6.36684">
        <ele>254</ele>
        <time>2021-11-24T13:51:05.000Z</time>
      </trkpt>
      <trkpt lat="43.51688" lon="6.36683">
        <ele>254</ele>
        <time>2021-11-24T13:51:06.000Z</time>
      </trkpt>
      <trkpt lat="43.51688" lon="6.36682">
        <ele>254</ele>
        <time>2021-11-24T13:51:07.000Z</time>
      </trkpt>
      <trkpt lat="43.51688" lon="6.36681">
        <ele>254</ele>
        <time>2021-11-24T13:51:08.000Z</time>
      </trkpt>
      <trkpt lat="43.51688" lon="6.3668">
        <ele>255</ele>
        <time>2021-11-24T13:51:09.000Z</time>
      </trkpt>
      <trkpt lat="43.51688" lon="6.36679">
        <ele>255</ele>
        <time>2021-11-24T13:51:10.000Z</time>
      </trkpt>
      <trkpt lat="43.51686" lon="6.36678">
        <ele>255</ele>
        <time>2021-11-24T13:51:11.000Z</time>
      </trkpt>
      <trkpt lat="43.51685" lon="6.36678">
        <ele>255</ele>
        <time>2021-11-24T13:51:12.000Z</time>
      </trkpt>
      <trkpt lat="43.51684" lon="6.36678">
        <ele>255</ele>
        <time>2021-11-24T13:51:13.000Z</time>
      </trkpt>
      <trkpt lat="43.51682" lon="6.36678">
        <ele>256</ele>
        <time>2021-11-24T13:51:14.000Z</time>
      </trkpt>
      <trkpt lat="43.51681" lon="6.36677">
        <ele>257</ele>
        <time>2021-11-24T13:51:15.000Z</time>
      </trkpt>
      <trkpt lat="43.5168" lon="6.36677">
        <ele>258</ele>
        <time>2021-11-24T13:51:16.000Z</time>
      </trkpt>
      <trkpt lat="43.51679" lon="6.36676">
        <ele>258</ele>
        <time>2021-11-24T13:51:17.000Z</time>
      </trkpt>
      <trkpt lat="43.51678" lon="6.36676">
        <ele>258</ele>
        <time>2021-11-24T13:51:18.000Z</time>
      </trkpt>
      <trkpt lat="43.51677" lon="6.36675">
        <ele>258</ele>
        <time>2021-11-24T13:51:19.000Z</time>
      </trkpt>
      <trkpt lat="43.51675" lon="6.36675">
        <ele>259</ele>
        <time>2021-11-24T13:51:20.000Z</time>
      </trkpt>
      <trkpt lat="43.51673" lon="6.36675">
        <ele>259</ele>
        <time>2021-11-24T13:51:21.000Z</time>
      </trkpt>
      <trkpt lat="43.51672" lon="6.36675">
        <ele>259</ele>
        <time>2021-11-24T13:51:22.000Z</time>
      </trkpt>
      <trkpt lat="43.51671" lon="6.36675">
        <ele>259</ele>
        <time>2021-11-24T13:51:23.000Z</time>
      </trkpt>
      <trkpt lat="43.51669" lon="6.36675">
        <ele>259</ele>
        <time>2021-11-24T13:51:24.000Z</time>
      </trkpt>
      <trkpt lat="43.51668" lon="6.36675">
        <ele>260</ele>
        <time>2021-11-24T13:51:25.000Z</time>
      </trkpt>
      <trkpt lat="43.51666" lon="6.36674">
        <ele>261</ele>
        <time>2021-11-24T13:51:26.000Z</time>
      </trkpt>
      <trkpt lat="43.51665" lon="6.36674">
        <ele>261</ele>
        <time>2021-11-24T13:51:27.000Z</time>
      </trkpt>
      <trkpt lat="43.51664" lon="6.36674">
        <ele>261</ele>
        <time>2021-11-24T13:51:28.000Z</time>
      </trkpt>
      <trkpt lat="43.51662" lon="6.36674">
        <ele>261</ele>
        <time>2021-11-24T13:51:29.000Z</time>
      </trkpt>
      <trkpt lat="43.51661" lon="6.36674">
        <ele>261</ele>
        <time>2021-11-24T13:51:30.000Z</time>
      </trkpt>
      <trkpt lat="43.5166" lon="6.36674">
        <ele>261</ele>
        <time>2021-11-24T13:51:31.000Z</time>
      </trkpt>
      <trkpt lat="43.51659" lon="6.36674">
        <ele>262</ele>
        <time>2021-11-24T13:51:32.000Z</time>
      </trkpt>
      <trkpt lat="43.51658" lon="6.36674">
        <ele>261</ele>
        <time>2021-11-24T13:51:33.000Z</time>
      </trkpt>
      <trkpt lat="43.51657" lon="6.36674">
        <ele>261</ele>
        <time>2021-11-24T13:51:34.000Z</time>
      </trkpt>
      <trkpt lat="43.51656" lon="6.36674">
        <ele>261</ele>
        <time>2021-11-24T13:51:35.000Z</time>
      </trkpt>
      <trkpt lat="43.51655" lon="6.36673">
        <ele>261</ele>
        <time>2021-11-24T13:51:36.000Z</time>
      </trkpt>
      <trkpt lat="43.51655" lon="6.36672">
        <ele>261</ele>
        <time>2021-11-24T13:51:37.000Z</time>
      </trkpt>
      <trkpt lat="43.51654" lon="6.36672">
        <ele>261</ele>
        <time>2021-11-24T13:51:38.000Z</time>
      </trkpt>
      <trkpt lat="43.51653" lon="6.36672">
        <ele>261</ele>
        <time>2021-11-24T13:51:39.000Z</time>
      </trkpt>
      <trkpt lat="43.51652" lon="6.36672">
        <ele>261</ele>
        <time>2021-11-24T13:51:40.000Z</time>
      </trkpt>
      <trkpt lat="43.51651" lon="6.36671">
        <ele>261</ele>
        <time>2021-11-24T13:51:41.000Z</time>
      </trkpt>
      <trkpt lat="43.5165" lon="6.36671">
        <ele>261</ele>
        <time>2021-11-24T13:51:42.000Z</time>
      </trkpt>
      <trkpt lat="43.51649" lon="6.36671">
        <ele>261</ele>
        <time>2021-11-24T13:51:43.000Z</time>
      </trkpt>
      <trkpt lat="43.51647" lon="6.36671">
        <ele>261</ele>
        <time>2021-11-24T13:51:44.000Z</time>
      </trkpt>
      <trkpt lat="43.51646" lon="6.36672">
        <ele>261</ele>
        <time>2021-11-24T13:51:45.000Z</time>
      </trkpt>
      <trkpt lat="43.51645" lon="6.36672">
        <ele>261</ele>
        <time>2021-11-24T13:51:46.000Z</time>
      </trkpt>
      <trkpt lat="43.51644" lon="6.36672">
        <ele>261</ele>
        <time>2021-11-24T13:51:47.000Z</time>
      </trkpt>
      <trkpt lat="43.51642" lon="6.36671">
        <ele>261</ele>
        <time>2021-11-24T13:51:48.000Z</time>
      </trkpt>
      <trkpt lat="43.51641" lon="6.36671">
        <ele>261</ele>
        <time>2021-11-24T13:51:49.000Z</time>
      </trkpt>
      <trkpt lat="43.5164" lon="6.36671">
        <ele>261</ele>
        <time>2021-11-24T13:51:50.000Z</time>
      </trkpt>
      <trkpt lat="43.51638" lon="6.3667">
        <ele>261</ele>
        <time>2021-11-24T13:51:51.000Z</time>
      </trkpt>
      <trkpt lat="43.51637" lon="6.3667">
        <ele>262</ele>
        <time>2021-11-24T13:51:52.000Z</time>
      </trkpt>
      <trkpt lat="43.51636" lon="6.3667">
        <ele>262</ele>
        <time>2021-11-24T13:51:53.000Z</time>
      </trkpt>
      <trkpt lat="43.51635" lon="6.3667">
        <ele>263</ele>
        <time>2021-11-24T13:51:54.000Z</time>
      </trkpt>
      <trkpt lat="43.51633" lon="6.3667">
        <ele>263</ele>
        <time>2021-11-24T13:51:55.000Z</time>
      </trkpt>
      <trkpt lat="43.51632" lon="6.3667">
        <ele>263</ele>
        <time>2021-11-24T13:51:56.000Z</time>
      </trkpt>
      <trkpt lat="43.51631" lon="6.36669">
        <ele>263</ele>
        <time>2021-11-24T13:51:57.000Z</time>
      </trkpt>
      <trkpt lat="43.5163" lon="6.36669">
        <ele>263</ele>
        <time>2021-11-24T13:51:58.000Z</time>
      </trkpt>
      <trkpt lat="43.51629" lon="6.36668">
        <ele>264</ele>
        <time>2021-11-24T13:51:59.000Z</time>
      </trkpt>
      <trkpt lat="43.51628" lon="6.36667">
        <ele>264</ele>
        <time>2021-11-24T13:52:00.000Z</time>
      </trkpt>
      <trkpt lat="43.51627" lon="6.36667">
        <ele>264</ele>
        <time>2021-11-24T13:52:01.000Z</time>
      </trkpt>
      <trkpt lat="43.51626" lon="6.36666">
        <ele>265</ele>
        <time>2021-11-24T13:52:02.000Z</time>
      </trkpt>
      <trkpt lat="43.51625" lon="6.36665">
        <ele>265</ele>
        <time>2021-11-24T13:52:03.000Z</time>
      </trkpt>
      <trkpt lat="43.51624" lon="6.36664">
        <ele>265</ele>
        <time>2021-11-24T13:52:04.000Z</time>
      </trkpt>
      <trkpt lat="43.51623" lon="6.36663">
        <ele>265</ele>
        <time>2021-11-24T13:52:05.000Z</time>
      </trkpt>
      <trkpt lat="43.51622" lon="6.36662">
        <ele>265</ele>
        <time>2021-11-24T13:52:06.000Z</time>
      </trkpt>
      <trkpt lat="43.51621" lon="6.36661">
        <ele>265</ele>
        <time>2021-11-24T13:52:07.000Z</time>
      </trkpt>
      <trkpt lat="43.5162" lon="6.3666">
        <ele>265</ele>
        <time>2021-11-24T13:52:08.000Z</time>
      </trkpt>
      <trkpt lat="43.51619" lon="6.36659">
        <ele>265</ele>
        <time>2021-11-24T13:52:09.000Z</time>
      </trkpt>
      <trkpt lat="43.51618" lon="6.36659">
        <ele>265</ele>
        <time>2021-11-24T13:52:10.000Z</time>
      </trkpt>
      <trkpt lat="43.51618" lon="6.36658">
        <ele>265</ele>
        <time>2021-11-24T13:52:11.000Z</time>
      </trkpt>
      <trkpt lat="43.51617" lon="6.36657">
        <ele>265</ele>
        <time>2021-11-24T13:52:12.000Z</time>
      </trkpt>
      <trkpt lat="43.51616" lon="6.36656">
        <ele>265</ele>
        <time>2021-11-24T13:52:13.000Z</time>
      </trkpt>
      <trkpt lat="43.51616" lon="6.36655">
        <ele>265</ele>
        <time>2021-11-24T13:52:14.000Z</time>
      </trkpt>
      <trkpt lat="43.51615" lon="6.36653">
        <ele>265</ele>
        <time>2021-11-24T13:52:15.000Z</time>
      </trkpt>
      <trkpt lat="43.51614" lon="6.36652">
        <ele>265</ele>
        <time>2021-11-24T13:52:16.000Z</time>
      </trkpt>
      <trkpt lat="43.51613" lon="6.3665">
        <ele>265</ele>
        <time>2021-11-24T13:52:17.000Z</time>
      </trkpt>
      <trkpt lat="43.51613" lon="6.36649">
        <ele>265</ele>
        <time>2021-11-24T13:52:18.000Z</time>
      </trkpt>
      <trkpt lat="43.51612" lon="6.36647">
        <ele>265</ele>
        <time>2021-11-24T13:52:19.000Z</time>
      </trkpt>
      <trkpt lat="43.51612" lon="6.36645">
        <ele>265</ele>
        <time>2021-11-24T13:52:20.000Z</time>
      </trkpt>
      <trkpt lat="43.51611" lon="6.36644">
        <ele>265</ele>
        <time>2021-11-24T13:52:21.000Z</time>
      </trkpt>
      <trkpt lat="43.51611" lon="6.36642">
        <ele>265</ele>
        <time>2021-11-24T13:52:22.000Z</time>
      </trkpt>
      <trkpt lat="43.51611" lon="6.36641">
        <ele>265</ele>
        <time>2021-11-24T13:52:23.000Z</time>
      </trkpt>
      <trkpt lat="43.5161" lon="6.3664">
        <ele>265</ele>
        <time>2021-11-24T13:52:24.000Z</time>
      </trkpt>
      <trkpt lat="43.5161" lon="6.36638">
        <ele>265</ele>
        <time>2021-11-24T13:52:25.000Z</time>
      </trkpt>
      <trkpt lat="43.5161" lon="6.36637">
        <ele>264</ele>
        <time>2021-11-24T13:52:26.000Z</time>
      </trkpt>
      <trkpt lat="43.5161" lon="6.36636">
        <ele>264</ele>
        <time>2021-11-24T13:52:27.000Z</time>
      </trkpt>
      <trkpt lat="43.5161" lon="6.36634">
        <ele>264</ele>
        <time>2021-11-24T13:52:28.000Z</time>
      </trkpt>
      <trkpt lat="43.5161" lon="6.36633">
        <ele>264</ele>
        <time>2021-11-24T13:52:29.000Z</time>
      </trkpt>
      <trkpt lat="43.51609" lon="6.36631">
        <ele>264</ele>
        <time>2021-11-24T13:52:30.000Z</time>
      </trkpt>
      <trkpt lat="43.51609" lon="6.3663">
        <ele>264</ele>
        <time>2021-11-24T13:52:31.000Z</time>
      </trkpt>
      <trkpt lat="43.51609" lon="6.36629">
        <ele>264</ele>
        <time>2021-11-24T13:52:32.000Z</time>
      </trkpt>
      <trkpt lat="43.51609" lon="6.36627">
        <ele>264</ele>
        <time>2021-11-24T13:52:33.000Z</time>
      </trkpt>
      <trkpt lat="43.51609" lon="6.36626">
        <ele>264</ele>
        <time>2021-11-24T13:52:34.000Z</time>
      </trkpt>
      <trkpt lat="43.51609" lon="6.36624">
        <ele>264</ele>
        <time>2021-11-24T13:52:35.000Z</time>
      </trkpt>
      <trkpt lat="43.51609" lon="6.36622">
        <ele>264</ele>
        <time>2021-11-24T13:52:36.000Z</time>
      </trkpt>
      <trkpt lat="43.5161" lon="6.3662">
        <ele>264</ele>
        <time>2021-11-24T13:52:37.000Z</time>
      </trkpt>
      <trkpt lat="43.5161" lon="6.36619">
        <ele>264</ele>
        <time>2021-11-24T13:52:38.000Z</time>
      </trkpt>
      <trkpt lat="43.5161" lon="6.36617">
        <ele>264</ele>
        <time>2021-11-24T13:52:39.000Z</time>
      </trkpt>
      <trkpt lat="43.51611" lon="6.36616">
        <ele>264</ele>
        <time>2021-11-24T13:52:40.000Z</time>
      </trkpt>
      <trkpt lat="43.51611" lon="6.36615">
        <ele>265</ele>
        <time>2021-11-24T13:52:41.000Z</time>
      </trkpt>
      <trkpt lat="43.51612" lon="6.36614">
        <ele>265</ele>
        <time>2021-11-24T13:52:42.000Z</time>
      </trkpt>
      <trkpt lat="43.51612" lon="6.36612">
        <ele>265</ele>
        <time>2021-11-24T13:52:43.000Z</time>
      </trkpt>
      <trkpt lat="43.51612" lon="6.3661">
        <ele>265</ele>
        <time>2021-11-24T13:52:44.000Z</time>
      </trkpt>
      <trkpt lat="43.51612" lon="6.36609">
        <ele>265</ele>
        <time>2021-11-24T13:52:45.000Z</time>
      </trkpt>
      <trkpt lat="43.51612" lon="6.36607">
        <ele>265</ele>
        <time>2021-11-24T13:52:46.000Z</time>
      </trkpt>
      <trkpt lat="43.51612" lon="6.36606">
        <ele>265</ele>
        <time>2021-11-24T13:52:47.000Z</time>
      </trkpt>
      <trkpt lat="43.51612" lon="6.36605">
        <ele>265</ele>
        <time>2021-11-24T13:52:48.000Z</time>
      </trkpt>
      <trkpt lat="43.51613" lon="6.36604">
        <ele>265</ele>
        <time>2021-11-24T13:52:49.000Z</time>
      </trkpt>
      <trkpt lat="43.51613" lon="6.36603">
        <ele>265</ele>
        <time>2021-11-24T13:52:50.000Z</time>
      </trkpt>
      <trkpt lat="43.51613" lon="6.36601">
        <ele>265</ele>
        <time>2021-11-24T13:52:51.000Z</time>
      </trkpt>
      <trkpt lat="43.51614" lon="6.366">
        <ele>265</ele>
        <time>2021-11-24T13:52:52.000Z</time>
      </trkpt>
      <trkpt lat="43.51614" lon="6.36599">
        <ele>264</ele>
        <time>2021-11-24T13:52:53.000Z</time>
      </trkpt>
      <trkpt lat="43.51615" lon="6.36598">
        <ele>264</ele>
        <time>2021-11-24T13:52:54.000Z</time>
      </trkpt>
      <trkpt lat="43.51615" lon="6.36598">
        <ele>264</ele>
        <time>2021-11-24T13:52:55.000Z</time>
      </trkpt>
      <trkpt lat="43.51616" lon="6.36597">
        <ele>264</ele>
        <time>2021-11-24T13:52:56.000Z</time>
      </trkpt>
      <trkpt lat="43.51617" lon="6.36597">
        <ele>263</ele>
        <time>2021-11-24T13:52:57.000Z</time>
      </trkpt>
      <trkpt lat="43.51617" lon="6.36597">
        <ele>264</ele>
        <time>2021-11-24T13:52:58.000Z</time>
      </trkpt>
      <trkpt lat="43.51618" lon="6.36598">
        <ele>264</ele>
        <time>2021-11-24T13:52:59.000Z</time>
      </trkpt>
      <trkpt lat="43.51618" lon="6.36598">
        <ele>264</ele>
        <time>2021-11-24T13:53:00.000Z</time>
      </trkpt>
      <trkpt lat="43.51619" lon="6.36598">
        <ele>265</ele>
        <time>2021-11-24T13:53:01.000Z</time>
      </trkpt>
      <trkpt lat="43.5162" lon="6.36598">
        <ele>265</ele>
        <time>2021-11-24T13:53:02.000Z</time>
      </trkpt>
      <trkpt lat="43.51621" lon="6.36598">
        <ele>265</ele>
        <time>2021-11-24T13:53:03.000Z</time>
      </trkpt>
      <trkpt lat="43.51622" lon="6.36597">
        <ele>265</ele>
        <time>2021-11-24T13:53:04.000Z</time>
      </trkpt>
      <trkpt lat="43.51622" lon="6.36597">
        <ele>265</ele>
        <time>2021-11-24T13:53:05.000Z</time>
      </trkpt>
      <trkpt lat="43.51624" lon="6.36597">
        <ele>265</ele>
        <time>2021-11-24T13:53:06.000Z</time>
      </trkpt>
      <trkpt lat="43.51625" lon="6.36597">
        <ele>265</ele>
        <time>2021-11-24T13:53:07.000Z</time>
      </trkpt>
      <trkpt lat="43.51626" lon="6.36597">
        <ele>266</ele>
        <time>2021-11-24T13:53:08.000Z</time>
      </trkpt>
      <trkpt lat="43.51626" lon="6.36597">
        <ele>266</ele>
        <time>2021-11-24T13:53:09.000Z</time>
      </trkpt>
      <trkpt lat="43.51627" lon="6.36597">
        <ele>266</ele>
        <time>2021-11-24T13:53:10.000Z</time>
      </trkpt>
      <trkpt lat="43.51628" lon="6.36596">
        <ele>266</ele>
        <time>2021-11-24T13:53:11.000Z</time>
      </trkpt>
      <trkpt lat="43.51629" lon="6.36596">
        <ele>266</ele>
        <time>2021-11-24T13:53:12.000Z</time>
      </trkpt>
      <trkpt lat="43.5163" lon="6.36596">
        <ele>265</ele>
        <time>2021-11-24T13:53:13.000Z</time>
      </trkpt>
      <trkpt lat="43.51632" lon="6.36596">
        <ele>265</ele>
        <time>2021-11-24T13:53:14.000Z</time>
      </trkpt>
      <trkpt lat="43.51633" lon="6.36596">
        <ele>265</ele>
        <time>2021-11-24T13:53:15.000Z</time>
      </trkpt>
      <trkpt lat="43.51634" lon="6.36595">
        <ele>265</ele>
        <time>2021-11-24T13:53:16.000Z</time>
      </trkpt>
      <trkpt lat="43.51634" lon="6.36594">
        <ele>265</ele>
        <time>2021-11-24T13:53:17.000Z</time>
      </trkpt>
      <trkpt lat="43.51635" lon="6.36593">
        <ele>265</ele>
        <time>2021-11-24T13:53:18.000Z</time>
      </trkpt>
      <trkpt lat="43.51636" lon="6.36593">
        <ele>265</ele>
        <time>2021-11-24T13:53:19.000Z</time>
      </trkpt>
      <trkpt lat="43.51637" lon="6.36593">
        <ele>265</ele>
        <time>2021-11-24T13:53:20.000Z</time>
      </trkpt>
      <trkpt lat="43.51638" lon="6.36592">
        <ele>265</ele>
        <time>2021-11-24T13:53:21.000Z</time>
      </trkpt>
      <trkpt lat="43.51639" lon="6.36592">
        <ele>264</ele>
        <time>2021-11-24T13:53:22.000Z</time>
      </trkpt>
      <trkpt lat="43.5164" lon="6.36592">
        <ele>264</ele>
        <time>2021-11-24T13:53:23.000Z</time>
      </trkpt>
      <trkpt lat="43.51641" lon="6.36591">
        <ele>264</ele>
        <time>2021-11-24T13:53:24.000Z</time>
      </trkpt>
      <trkpt lat="43.51642" lon="6.36591">
        <ele>264</ele>
        <time>2021-11-24T13:53:25.000Z</time>
      </trkpt>
      <trkpt lat="43.51642" lon="6.3659">
        <ele>264</ele>
        <time>2021-11-24T13:53:26.000Z</time>
      </trkpt>
      <trkpt lat="43.51643" lon="6.3659">
        <ele>264</ele>
        <time>2021-11-24T13:53:27.000Z</time>
      </trkpt>
      <trkpt lat="43.51644" lon="6.36589">
        <ele>264</ele>
        <time>2021-11-24T13:53:28.000Z</time>
      </trkpt>
      <trkpt lat="43.51644" lon="6.36589">
        <ele>264</ele>
        <time>2021-11-24T13:53:29.000Z</time>
      </trkpt>
      <trkpt lat="43.51645" lon="6.36588">
        <ele>264</ele>
        <time>2021-11-24T13:53:30.000Z</time>
      </trkpt>
      <trkpt lat="43.51645" lon="6.36588">
        <ele>264</ele>
        <time>2021-11-24T13:53:31.000Z</time>
      </trkpt>
      <trkpt lat="43.51645" lon="6.36588">
        <ele>264</ele>
        <time>2021-11-24T13:53:32.000Z</time>
      </trkpt>
      <trkpt lat="43.51645" lon="6.36587">
        <ele>264</ele>
        <time>2021-11-24T13:53:33.000Z</time>
      </trkpt>
      <trkpt lat="43.51645" lon="6.36587">
        <ele>264</ele>
        <time>2021-11-24T13:53:34.000Z</time>
      </trkpt>
      <trkpt lat="43.51645" lon="6.36587">
        <ele>264</ele>
        <time>2021-11-24T13:53:35.000Z</time>
      </trkpt>
      <trkpt lat="43.51645" lon="6.36587">
        <ele>264</ele>
        <time>2021-11-24T13:53:36.000Z</time>
      </trkpt>
      <trkpt lat="43.51645" lon="6.36587">
        <ele>264</ele>
        <time>2021-11-24T13:53:37.000Z</time>
      </trkpt>
      <trkpt lat="43.51645" lon="6.36587">
        <ele>264</ele>
        <time>2021-11-24T13:53:38.000Z</time>
      </trkpt>
      <trkpt lat="43.51645" lon="6.36587">
        <ele>264</ele>
        <time>2021-11-24T13:53:39.000Z</time>
      </trkpt>
      <trkpt lat="43.51645" lon="6.36587">
        <ele>264</ele>
        <time>2021-11-24T13:53:40.000Z</time>
      </trkpt>
      <trkpt lat="43.51645" lon="6.36587">
        <ele>264</ele>
        <time>2021-11-24T13:53:41.000Z</time>
      </trkpt>
      <trkpt lat="43.51645" lon="6.36587">
        <ele>264</ele>
        <time>2021-11-24T13:53:42.000Z</time>
      </trkpt>
      <trkpt lat="43.51645" lon="6.36587">
        <ele>264</ele>
        <time>2021-11-24T13:53:43.000Z</time>
      </trkpt>
      <trkpt lat="43.51645" lon="6.36587">
        <ele>264</ele>
        <time>2021-11-24T13:53:44.000Z</time>
      </trkpt>
      <trkpt lat="43.51645" lon="6.36587">
        <ele>264</ele>
        <time>2021-11-24T13:53:45.000Z</time>
      </trkpt>
      <trkpt lat="43.51645" lon="6.36587">
        <ele>264</ele>
        <time>2021-11-24T13:53:46.000Z</time>
      </trkpt>
      <trkpt lat="43.51645" lon="6.36587">
        <ele>264</ele>
        <time>2021-11-24T13:53:47.000Z</time>
      </trkpt>
      <trkpt lat="43.51645" lon="6.36587">
        <ele>264</ele>
        <time>2021-11-24T13:53:48.000Z</time>
      </trkpt>
      <trkpt lat="43.51645" lon="6.36587">
        <ele>264</ele>
        <time>2021-11-24T13:53:49.000Z</time>
      </trkpt>
      <trkpt lat="43.51645" lon="6.36587">
        <ele>264</ele>
        <time>2021-11-24T13:53:50.000Z</time>
      </trkpt>
      <trkpt lat="43.51645" lon="6.36587">
        <ele>264</ele>
        <time>2021-11-24T13:53:51.000Z</time>
      </trkpt>
      <trkpt lat="43.51645" lon="6.36587">
        <ele>264</ele>
        <time>2021-11-24T13:53:52.000Z</time>
      </trkpt>
      <trkpt lat="43.51645" lon="6.36587">
        <ele>264</ele>
        <time>2021-11-24T13:53:53.000Z</time>
      </trkpt>
      <trkpt lat="43.51645" lon="6.36587">
        <ele>264</ele>
        <time>2021-11-24T13:53:54.000Z</time>
      </trkpt>
      <trkpt lat="43.51645" lon="6.36587">
        <ele>264</ele>
        <time>2021-11-24T13:53:55.000Z</time>
      </trkpt>
      <trkpt lat="43.51645" lon="6.36587">
        <ele>264</ele>
        <time>2021-11-24T13:53:56.000Z</time>
      </trkpt>
      <trkpt lat="43.51645" lon="6.36587">
        <ele>264</ele>
        <time>2021-11-24T13:53:57.000Z</time>
      </trkpt>
      <trkpt lat="43.51645" lon="6.36587">
        <ele>264</ele>
        <time>2021-11-24T13:53:58.000Z</time>
      </trkpt>
      <trkpt lat="43.51645" lon="6.36587">
        <ele>264</ele>
        <time>2021-11-24T13:53:59.000Z</time>
      </trkpt>
      <trkpt lat="43.51645" lon="6.36587">
        <ele>264</ele>
        <time>2021-11-24T13:54:00.000Z</time>
      </trkpt>
      <trkpt lat="43.51645" lon="6.36587">
        <ele>264</ele>
        <time>2021-11-24T13:54:01.000Z</time>
      </trkpt>
      <trkpt lat="43.51645" lon="6.36587">
        <ele>264</ele>
        <time>2021-11-24T13:54:02.000Z</time>
      </trkpt>
      <trkpt lat="43.51645" lon="6.36587">
        <ele>264</ele>
        <time>2021-11-24T13:54:03.000Z</time>
      </trkpt>
      <trkpt lat="43.51645" lon="6.36587">
        <ele>264</ele>
        <time>2021-11-24T13:54:04.000Z</time>
      </trkpt>
      <trkpt lat="43.51645" lon="6.36587">
        <ele>264</ele>
        <time>2021-11-24T13:54:05.000Z</time>
      </trkpt>
      <trkpt lat="43.51645" lon="6.36587">
        <ele>264</ele>
        <time>2021-11-24T13:54:06.000Z</time>
      </trkpt>
      <trkpt lat="43.51645" lon="6.36587">
        <ele>264</ele>
        <time>2021-11-24T13:54:07.000Z</time>
      </trkpt>
      <trkpt lat="43.51645" lon="6.36587">
        <ele>264</ele>
        <time>2021-11-24T13:54:08.000Z</time>
      </trkpt>
      <trkpt lat="43.5164" lon="6.36588">
        <ele>264</ele>
        <time>2021-11-24T13:54:09.000Z</time>
      </trkpt>
      <trkpt lat="43.5164" lon="6.36588">
        <ele>264</ele>
        <time>2021-11-24T13:54:10.000Z</time>
      </trkpt>
      <trkpt lat="43.51641" lon="6.36589">
        <ele>264</ele>
        <time>2021-11-24T13:54:11.000Z</time>
      </trkpt>
      <trkpt lat="43.51641" lon="6.3659">
        <ele>264</ele>
        <time>2021-11-24T13:54:12.000Z</time>
      </trkpt>
      <trkpt lat="43.51642" lon="6.3659">
        <ele>264</ele>
        <time>2021-11-24T13:54:13.000Z</time>
      </trkpt>
      <trkpt lat="43.51642" lon="6.36591">
        <ele>264</ele>
        <time>2021-11-24T13:54:14.000Z</time>
      </trkpt>
      <trkpt lat="43.51643" lon="6.36591">
        <ele>264</ele>
        <time>2021-11-24T13:54:15.000Z</time>
      </trkpt>
      <trkpt lat="43.51644" lon="6.36592">
        <ele>264</ele>
        <time>2021-11-24T13:54:16.000Z</time>
      </trkpt>
      <trkpt lat="43.51644" lon="6.36592">
        <ele>264</ele>
        <time>2021-11-24T13:54:17.000Z</time>
      </trkpt>
      <trkpt lat="43.51645" lon="6.36592">
        <ele>264</ele>
        <time>2021-11-24T13:54:18.000Z</time>
      </trkpt>
      <trkpt lat="43.51645" lon="6.36591">
        <ele>264</ele>
        <time>2021-11-24T13:54:19.000Z</time>
      </trkpt>
      <trkpt lat="43.51646" lon="6.36591">
        <ele>264</ele>
        <time>2021-11-24T13:54:20.000Z</time>
      </trkpt>
      <trkpt lat="43.51646" lon="6.3659">
        <ele>264</ele>
        <time>2021-11-24T13:54:21.000Z</time>
      </trkpt>
      <trkpt lat="43.51647" lon="6.3659">
        <ele>264</ele>
        <time>2021-11-24T13:54:22.000Z</time>
      </trkpt>
      <trkpt lat="43.51647" lon="6.3659">
        <ele>264</ele>
        <time>2021-11-24T13:54:23.000Z</time>
      </trkpt>
      <trkpt lat="43.51647" lon="6.3659">
        <ele>264</ele>
        <time>2021-11-24T13:54:24.000Z</time>
      </trkpt>
      <trkpt lat="43.51647" lon="6.3659">
        <ele>264</ele>
        <time>2021-11-24T13:54:25.000Z</time>
      </trkpt>
      <trkpt lat="43.51647" lon="6.3659">
        <ele>264</ele>
        <time>2021-11-24T13:54:26.000Z</time>
      </trkpt>
      <trkpt lat="43.51647" lon="6.3659">
        <ele>264</ele>
        <time>2021-11-24T13:54:27.000Z</time>
      </trkpt>
      <trkpt lat="43.51647" lon="6.3659">
        <ele>264</ele>
        <time>2021-11-24T13:54:28.000Z</time>
      </trkpt>
      <trkpt lat="43.51647" lon="6.3659">
        <ele>264</ele>
        <time>2021-11-24T13:54:29.000Z</time>
      </trkpt>
      <trkpt lat="43.51647" lon="6.3659">
        <ele>264</ele>
        <time>2021-11-24T13:54:30.000Z</time>
      </trkpt>
      <trkpt lat="43.51647" lon="6.3659">
        <ele>264</ele>
        <time>2021-11-24T13:54:31.000Z</time>
      </trkpt>
      <trkpt lat="43.51647" lon="6.3659">
        <ele>264</ele>
        <time>2021-11-24T13:54:32.000Z</time>
      </trkpt>
      <trkpt lat="43.51647" lon="6.3659">
        <ele>264</ele>
        <time>2021-11-24T13:54:33.000Z</time>
      </trkpt>
      <trkpt lat="43.51647" lon="6.3659">
        <ele>264</ele>
        <time>2021-11-24T13:54:34.000Z</time>
      </trkpt>
      <trkpt lat="43.51648" lon="6.3659">
        <ele>264</ele>
        <time>2021-11-24T13:54:35.000Z</time>
      </trkpt>
      <trkpt lat="43.51648" lon="6.3659">
        <ele>264</ele>
        <time>2021-11-24T13:54:36.000Z</time>
      </trkpt>
      <trkpt lat="43.51648" lon="6.3659">
        <ele>264</ele>
        <time>2021-11-24T13:54:37.000Z</time>
      </trkpt>
      <trkpt lat="43.51648" lon="6.36591">
        <ele>264</ele>
        <time>2021-11-24T13:54:38.000Z</time>
      </trkpt>
      <trkpt lat="43.51648" lon="6.36591">
        <ele>264</ele>
        <time>2021-11-24T13:54:39.000Z</time>
      </trkpt>
      <trkpt lat="43.51649" lon="6.36591">
        <ele>265</ele>
        <time>2021-11-24T13:54:40.000Z</time>
      </trkpt>
      <trkpt lat="43.51649" lon="6.36591">
        <ele>265</ele>
        <time>2021-11-24T13:54:41.000Z</time>
      </trkpt>
      <trkpt lat="43.51649" lon="6.36591">
        <ele>265</ele>
        <time>2021-11-24T13:54:42.000Z</time>
      </trkpt>
      <trkpt lat="43.51649" lon="6.36591">
        <ele>265</ele>
        <time>2021-11-24T13:54:43.000Z</time>
      </trkpt>
      <trkpt lat="43.51649" lon="6.36591">
        <ele>265</ele>
        <time>2021-11-24T13:54:44.000Z</time>
      </trkpt>
      <trkpt lat="43.51649" lon="6.36591">
        <ele>265</ele>
        <time>2021-11-24T13:54:45.000Z</time>
      </trkpt>
      <trkpt lat="43.51649" lon="6.3659">
        <ele>265</ele>
        <time>2021-11-24T13:54:46.000Z</time>
      </trkpt>
      <trkpt lat="43.51648" lon="6.3659">
        <ele>265</ele>
        <time>2021-11-24T13:54:47.000Z</time>
      </trkpt>
      <trkpt lat="43.51648" lon="6.3659">
        <ele>265</ele>
        <time>2021-11-24T13:54:48.000Z</time>
      </trkpt>
      <trkpt lat="43.51648" lon="6.3659">
        <ele>265</ele>
        <time>2021-11-24T13:54:49.000Z</time>
      </trkpt>
      <trkpt lat="43.51648" lon="6.36589">
        <ele>265</ele>
        <time>2021-11-24T13:54:50.000Z</time>
      </trkpt>
      <trkpt lat="43.51648" lon="6.36589">
        <ele>265</ele>
        <time>2021-11-24T13:54:51.000Z</time>
      </trkpt>
      <trkpt lat="43.51648" lon="6.36589">
        <ele>265</ele>
        <time>2021-11-24T13:54:52.000Z</time>
      </trkpt>
      <trkpt lat="43.51648" lon="6.36589">
        <ele>265</ele>
        <time>2021-11-24T13:54:53.000Z</time>
      </trkpt>
      <trkpt lat="43.51648" lon="6.36589">
        <ele>265</ele>
        <time>2021-11-24T13:54:54.000Z</time>
      </trkpt>
      <trkpt lat="43.51648" lon="6.36589">
        <ele>265</ele>
        <time>2021-11-24T13:54:55.000Z</time>
      </trkpt>
      <trkpt lat="43.51648" lon="6.36589">
        <ele>265</ele>
        <time>2021-11-24T13:54:56.000Z</time>
      </trkpt>
      <trkpt lat="43.51647" lon="6.36589">
        <ele>265</ele>
        <time>2021-11-24T13:54:57.000Z</time>
      </trkpt>
      <trkpt lat="43.51647" lon="6.36589">
        <ele>265</ele>
        <time>2021-11-24T13:54:58.000Z</time>
      </trkpt>
      <trkpt lat="43.51647" lon="6.36589">
        <ele>265</ele>
        <time>2021-11-24T13:54:59.000Z</time>
      </trkpt>
      <trkpt lat="43.51647" lon="6.36588">
        <ele>265</ele>
        <time>2021-11-24T13:55:00.000Z</time>
      </trkpt>
      <trkpt lat="43.51648" lon="6.36588">
        <ele>265</ele>
        <time>2021-11-24T13:55:01.000Z</time>
      </trkpt>
      <trkpt lat="43.51648" lon="6.36588">
        <ele>265</ele>
        <time>2021-11-24T13:55:02.000Z</time>
      </trkpt>
      <trkpt lat="43.51648" lon="6.36588">
        <ele>265</ele>
        <time>2021-11-24T13:55:03.000Z</time>
      </trkpt>
      <trkpt lat="43.51648" lon="6.36587">
        <ele>265</ele>
        <time>2021-11-24T13:55:04.000Z</time>
      </trkpt>
      <trkpt lat="43.51649" lon="6.36587">
        <ele>265</ele>
        <time>2021-11-24T13:55:05.000Z</time>
      </trkpt>
      <trkpt lat="43.51649" lon="6.36587">
        <ele>265</ele>
        <time>2021-11-24T13:55:06.000Z</time>
      </trkpt>
      <trkpt lat="43.51649" lon="6.36587">
        <ele>265</ele>
        <time>2021-11-24T13:55:07.000Z</time>
      </trkpt>
      <trkpt lat="43.51649" lon="6.36587">
        <ele>265</ele>
        <time>2021-11-24T13:55:08.000Z</time>
      </trkpt>
      <trkpt lat="43.51649" lon="6.36587">
        <ele>265</ele>
        <time>2021-11-24T13:55:09.000Z</time>
      </trkpt>
      <trkpt lat="43.51649" lon="6.36587">
        <ele>265</ele>
        <time>2021-11-24T13:55:10.000Z</time>
      </trkpt>
      <trkpt lat="43.5165" lon="6.36587">
        <ele>265</ele>
        <time>2021-11-24T13:55:11.000Z</time>
      </trkpt>
      <trkpt lat="43.5165" lon="6.36586">
        <ele>265</ele>
        <time>2021-11-24T13:55:12.000Z</time>
      </trkpt>
      <trkpt lat="43.51651" lon="6.36586">
        <ele>265</ele>
        <time>2021-11-24T13:55:13.000Z</time>
      </trkpt>
      <trkpt lat="43.51651" lon="6.36586">
        <ele>265</ele>
        <time>2021-11-24T13:55:14.000Z</time>
      </trkpt>
      <trkpt lat="43.51652" lon="6.36585">
        <ele>265</ele>
        <time>2021-11-24T13:55:15.000Z</time>
      </trkpt>
      <trkpt lat="43.51654" lon="6.36585">
        <ele>265</ele>
        <time>2021-11-24T13:55:16.000Z</time>
      </trkpt>
      <trkpt lat="43.51655" lon="6.36585">
        <ele>265</ele>
        <time>2021-11-24T13:55:17.000Z</time>
      </trkpt>
      <trkpt lat="43.51656" lon="6.36585">
        <ele>265</ele>
        <time>2021-11-24T13:55:18.000Z</time>
      </trkpt>
      <trkpt lat="43.51656" lon="6.36585">
        <ele>265</ele>
        <time>2021-11-24T13:55:19.000Z</time>
      </trkpt>
      <trkpt lat="43.51657" lon="6.36585">
        <ele>265</ele>
        <time>2021-11-24T13:55:20.000Z</time>
      </trkpt>
      <trkpt lat="43.51658" lon="6.36584">
        <ele>265</ele>
        <time>2021-11-24T13:55:21.000Z</time>
      </trkpt>
      <trkpt lat="43.51658" lon="6.36584">
        <ele>265</ele>
        <time>2021-11-24T13:55:22.000Z</time>
      </trkpt>
      <trkpt lat="43.51659" lon="6.36584">
        <ele>265</ele>
        <time>2021-11-24T13:55:23.000Z</time>
      </trkpt>
      <trkpt lat="43.5166" lon="6.36583">
        <ele>265</ele>
        <time>2021-11-24T13:55:24.000Z</time>
      </trkpt>
      <trkpt lat="43.51661" lon="6.36583">
        <ele>265</ele>
        <time>2021-11-24T13:55:25.000Z</time>
      </trkpt>
      <trkpt lat="43.51662" lon="6.36582">
        <ele>265</ele>
        <time>2021-11-24T13:55:26.000Z</time>
      </trkpt>
      <trkpt lat="43.51663" lon="6.36582">
        <ele>265</ele>
        <time>2021-11-24T13:55:27.000Z</time>
      </trkpt>
      <trkpt lat="43.51665" lon="6.36582">
        <ele>265</ele>
        <time>2021-11-24T13:55:28.000Z</time>
      </trkpt>
      <trkpt lat="43.51666" lon="6.36581">
        <ele>265</ele>
        <time>2021-11-24T13:55:29.000Z</time>
      </trkpt>
      <trkpt lat="43.51668" lon="6.3658">
        <ele>265</ele>
        <time>2021-11-24T13:55:30.000Z</time>
      </trkpt>
      <trkpt lat="43.51672" lon="6.36579">
        <ele>265</ele>
        <time>2021-11-24T13:55:31.000Z</time>
      </trkpt>
      <trkpt lat="43.51673" lon="6.36578">
        <ele>265</ele>
        <time>2021-11-24T13:55:32.000Z</time>
      </trkpt>
      <trkpt lat="43.51674" lon="6.36577">
        <ele>265</ele>
        <time>2021-11-24T13:55:33.000Z</time>
      </trkpt>
      <trkpt lat="43.51675" lon="6.36577">
        <ele>265</ele>
        <time>2021-11-24T13:55:34.000Z</time>
      </trkpt>
      <trkpt lat="43.51675" lon="6.36576">
        <ele>265</ele>
        <time>2021-11-24T13:55:35.000Z</time>
      </trkpt>
      <trkpt lat="43.51676" lon="6.36576">
        <ele>265</ele>
        <time>2021-11-24T13:55:36.000Z</time>
      </trkpt>
      <trkpt lat="43.51676" lon="6.36576">
        <ele>265</ele>
        <time>2021-11-24T13:55:37.000Z</time>
      </trkpt>
      <trkpt lat="43.51676" lon="6.36576">
        <ele>265</ele>
        <time>2021-11-24T13:55:38.000Z</time>
      </trkpt>
      <trkpt lat="43.51677" lon="6.36575">
        <ele>265</ele>
        <time>2021-11-24T13:55:39.000Z</time>
      </trkpt>
      <trkpt lat="43.51678" lon="6.36574">
        <ele>265</ele>
        <time>2021-11-24T13:55:40.000Z</time>
      </trkpt>
      <trkpt lat="43.51679" lon="6.36572">
        <ele>265</ele>
        <time>2021-11-24T13:55:41.000Z</time>
      </trkpt>
      <trkpt lat="43.51679" lon="6.3657">
        <ele>265</ele>
        <time>2021-11-24T13:55:42.000Z</time>
      </trkpt>
      <trkpt lat="43.5168" lon="6.36568">
        <ele>265</ele>
        <time>2021-11-24T13:55:43.000Z</time>
      </trkpt>
      <trkpt lat="43.5168" lon="6.36567">
        <ele>265</ele>
        <time>2021-11-24T13:55:44.000Z</time>
      </trkpt>
      <trkpt lat="43.51681" lon="6.36565">
        <ele>264</ele>
        <time>2021-11-24T13:55:45.000Z</time>
      </trkpt>
      <trkpt lat="43.51681" lon="6.36564">
        <ele>264</ele>
        <time>2021-11-24T13:55:46.000Z</time>
      </trkpt>
      <trkpt lat="43.51682" lon="6.36562">
        <ele>264</ele>
        <time>2021-11-24T13:55:47.000Z</time>
      </trkpt>
      <trkpt lat="43.51682" lon="6.36562">
        <ele>264</ele>
        <time>2021-11-24T13:55:48.000Z</time>
      </trkpt>
      <trkpt lat="43.51682" lon="6.36561">
        <ele>264</ele>
        <time>2021-11-24T13:55:49.000Z</time>
      </trkpt>
      <trkpt lat="43.51682" lon="6.3656">
        <ele>265</ele>
        <time>2021-11-24T13:55:50.000Z</time>
      </trkpt>
      <trkpt lat="43.51682" lon="6.36559">
        <ele>265</ele>
        <time>2021-11-24T13:55:51.000Z</time>
      </trkpt>
      <trkpt lat="43.51682" lon="6.36558">
        <ele>265</ele>
        <time>2021-11-24T13:55:52.000Z</time>
      </trkpt>
      <trkpt lat="43.51683" lon="6.36557">
        <ele>265</ele>
        <time>2021-11-24T13:55:53.000Z</time>
      </trkpt>
      <trkpt lat="43.51684" lon="6.36556">
        <ele>265</ele>
        <time>2021-11-24T13:55:54.000Z</time>
      </trkpt>
      <trkpt lat="43.51685" lon="6.36554">
        <ele>265</ele>
        <time>2021-11-24T13:55:55.000Z</time>
      </trkpt>
      <trkpt lat="43.51685" lon="6.36552">
        <ele>265</ele>
        <time>2021-11-24T13:55:56.000Z</time>
      </trkpt>
      <trkpt lat="43.51685" lon="6.3655">
        <ele>265</ele>
        <time>2021-11-24T13:55:57.000Z</time>
      </trkpt>
      <trkpt lat="43.51686" lon="6.36549">
        <ele>265</ele>
        <time>2021-11-24T13:55:58.000Z</time>
      </trkpt>
      <trkpt lat="43.51686" lon="6.36548">
        <ele>265</ele>
        <time>2021-11-24T13:55:59.000Z</time>
      </trkpt>
      <trkpt lat="43.51686" lon="6.36547">
        <ele>266</ele>
        <time>2021-11-24T13:56:00.000Z</time>
      </trkpt>
      <trkpt lat="43.51686" lon="6.36545">
        <ele>266</ele>
        <time>2021-11-24T13:56:01.000Z</time>
      </trkpt>
      <trkpt lat="43.51686" lon="6.36543">
        <ele>266</ele>
        <time>2021-11-24T13:56:02.000Z</time>
      </trkpt>
      <trkpt lat="43.51686" lon="6.36541">
        <ele>266</ele>
        <time>2021-11-24T13:56:03.000Z</time>
      </trkpt>
      <trkpt lat="43.51686" lon="6.3654">
        <ele>266</ele>
        <time>2021-11-24T13:56:04.000Z</time>
      </trkpt>
      <trkpt lat="43.51686" lon="6.36539">
        <ele>266</ele>
        <time>2021-11-24T13:56:05.000Z</time>
      </trkpt>
      <trkpt lat="43.51686" lon="6.36538">
        <ele>266</ele>
        <time>2021-11-24T13:56:06.000Z</time>
      </trkpt>
      <trkpt lat="43.51686" lon="6.36537">
        <ele>266</ele>
        <time>2021-11-24T13:56:07.000Z</time>
      </trkpt>
      <trkpt lat="43.51686" lon="6.36537">
        <ele>267</ele>
        <time>2021-11-24T13:56:08.000Z</time>
      </trkpt>
      <trkpt lat="43.51686" lon="6.36536">
        <ele>267</ele>
        <time>2021-11-24T13:56:09.000Z</time>
      </trkpt>
      <trkpt lat="43.51686" lon="6.36535">
        <ele>267</ele>
        <time>2021-11-24T13:56:10.000Z</time>
      </trkpt>
      <trkpt lat="43.51686" lon="6.36534">
        <ele>267</ele>
        <time>2021-11-24T13:56:11.000Z</time>
      </trkpt>
      <trkpt lat="43.51686" lon="6.36533">
        <ele>267</ele>
        <time>2021-11-24T13:56:12.000Z</time>
      </trkpt>
      <trkpt lat="43.51685" lon="6.36532">
        <ele>267</ele>
        <time>2021-11-24T13:56:13.000Z</time>
      </trkpt>
      <trkpt lat="43.51685" lon="6.36532">
        <ele>267</ele>
        <time>2021-11-24T13:56:14.000Z</time>
      </trkpt>
      <trkpt lat="43.51684" lon="6.36531">
        <ele>267</ele>
        <time>2021-11-24T13:56:15.000Z</time>
      </trkpt>
      <trkpt lat="43.51684" lon="6.3653">
        <ele>267</ele>
        <time>2021-11-24T13:56:16.000Z</time>
      </trkpt>
      <trkpt lat="43.51683" lon="6.36529">
        <ele>268</ele>
        <time>2021-11-24T13:56:17.000Z</time>
      </trkpt>
      <trkpt lat="43.51682" lon="6.36528">
        <ele>268</ele>
        <time>2021-11-24T13:56:18.000Z</time>
      </trkpt>
      <trkpt lat="43.51681" lon="6.36527">
        <ele>268</ele>
        <time>2021-11-24T13:56:19.000Z</time>
      </trkpt>
      <trkpt lat="43.51679" lon="6.36526">
        <ele>268</ele>
        <time>2021-11-24T13:56:20.000Z</time>
      </trkpt>
      <trkpt lat="43.51678" lon="6.36525">
        <ele>268</ele>
        <time>2021-11-24T13:56:21.000Z</time>
      </trkpt>
      <trkpt lat="43.51677" lon="6.36524">
        <ele>268</ele>
        <time>2021-11-24T13:56:22.000Z</time>
      </trkpt>
      <trkpt lat="43.51675" lon="6.36523">
        <ele>268</ele>
        <time>2021-11-24T13:56:23.000Z</time>
      </trkpt>
      <trkpt lat="43.51674" lon="6.36523">
        <ele>268</ele>
        <time>2021-11-24T13:56:24.000Z</time>
      </trkpt>
      <trkpt lat="43.51673" lon="6.36522">
        <ele>268</ele>
        <time>2021-11-24T13:56:25.000Z</time>
      </trkpt>
      <trkpt lat="43.51672" lon="6.36521">
        <ele>268</ele>
        <time>2021-11-24T13:56:26.000Z</time>
      </trkpt>
      <trkpt lat="43.51671" lon="6.36521">
        <ele>268</ele>
        <time>2021-11-24T13:56:27.000Z</time>
      </trkpt>
      <trkpt lat="43.5167" lon="6.3652">
        <ele>268</ele>
        <time>2021-11-24T13:56:28.000Z</time>
      </trkpt>
      <trkpt lat="43.51669" lon="6.36519">
        <ele>268</ele>
        <time>2021-11-24T13:56:29.000Z</time>
      </trkpt>
      <trkpt lat="43.51668" lon="6.36519">
        <ele>268</ele>
        <time>2021-11-24T13:56:30.000Z</time>
      </trkpt>
      <trkpt lat="43.51668" lon="6.36518">
        <ele>268</ele>
        <time>2021-11-24T13:56:31.000Z</time>
      </trkpt>
      <trkpt lat="43.51667" lon="6.36517">
        <ele>268</ele>
        <time>2021-11-24T13:56:32.000Z</time>
      </trkpt>
      <trkpt lat="43.51666" lon="6.36516">
        <ele>268</ele>
        <time>2021-11-24T13:56:33.000Z</time>
      </trkpt>
      <trkpt lat="43.51666" lon="6.36516">
        <ele>267</ele>
        <time>2021-11-24T13:56:34.000Z</time>
      </trkpt>
      <trkpt lat="43.51666" lon="6.36516">
        <ele>267</ele>
        <time>2021-11-24T13:56:35.000Z</time>
      </trkpt>
      <trkpt lat="43.51665" lon="6.36515">
        <ele>267</ele>
        <time>2021-11-24T13:56:36.000Z</time>
      </trkpt>
      <trkpt lat="43.51665" lon="6.36515">
        <ele>267</ele>
        <time>2021-11-24T13:56:37.000Z</time>
      </trkpt>
      <trkpt lat="43.51665" lon="6.36515">
        <ele>267</ele>
        <time>2021-11-24T13:56:38.000Z</time>
      </trkpt>
      <trkpt lat="43.51664" lon="6.36514">
        <ele>268</ele>
        <time>2021-11-24T13:56:39.000Z</time>
      </trkpt>
      <trkpt lat="43.51664" lon="6.36514">
        <ele>268</ele>
        <time>2021-11-24T13:56:40.000Z</time>
      </trkpt>
      <trkpt lat="43.51664" lon="6.36514">
        <ele>268</ele>
        <time>2021-11-24T13:56:41.000Z</time>
      </trkpt>
      <trkpt lat="43.51663" lon="6.36513">
        <ele>268</ele>
        <time>2021-11-24T13:56:42.000Z</time>
      </trkpt>
      <trkpt lat="43.51663" lon="6.36513">
        <ele>268</ele>
        <time>2021-11-24T13:56:43.000Z</time>
      </trkpt>
      <trkpt lat="43.51663" lon="6.36513">
        <ele>268</ele>
        <time>2021-11-24T13:56:44.000Z</time>
      </trkpt>
      <trkpt lat="43.51662" lon="6.36512">
        <ele>268</ele>
        <time>2021-11-24T13:56:45.000Z</time>
      </trkpt>
      <trkpt lat="43.51662" lon="6.36512">
        <ele>268</ele>
        <time>2021-11-24T13:56:46.000Z</time>
      </trkpt>
      <trkpt lat="43.51661" lon="6.36511">
        <ele>268</ele>
        <time>2021-11-24T13:56:47.000Z</time>
      </trkpt>
      <trkpt lat="43.51661" lon="6.36511">
        <ele>268</ele>
        <time>2021-11-24T13:56:48.000Z</time>
      </trkpt>
      <trkpt lat="43.5166" lon="6.3651">
        <ele>268</ele>
        <time>2021-11-24T13:56:49.000Z</time>
      </trkpt>
      <trkpt lat="43.5166" lon="6.3651">
        <ele>268</ele>
        <time>2021-11-24T13:56:50.000Z</time>
      </trkpt>
      <trkpt lat="43.5166" lon="6.3651">
        <ele>268</ele>
        <time>2021-11-24T13:56:51.000Z</time>
      </trkpt>
      <trkpt lat="43.51659" lon="6.36509">
        <ele>268</ele>
        <time>2021-11-24T13:56:52.000Z</time>
      </trkpt>
      <trkpt lat="43.51659" lon="6.36509">
        <ele>268</ele>
        <time>2021-11-24T13:56:53.000Z</time>
      </trkpt>
      <trkpt lat="43.51659" lon="6.36508">
        <ele>268</ele>
        <time>2021-11-24T13:56:54.000Z</time>
      </trkpt>
      <trkpt lat="43.51658" lon="6.36507">
        <ele>268</ele>
        <time>2021-11-24T13:56:55.000Z</time>
      </trkpt>
      <trkpt lat="43.51657" lon="6.36506">
        <ele>268</ele>
        <time>2021-11-24T13:56:56.000Z</time>
      </trkpt>
      <trkpt lat="43.51657" lon="6.36505">
        <ele>268</ele>
        <time>2021-11-24T13:56:57.000Z</time>
      </trkpt>
      <trkpt lat="43.51656" lon="6.36505">
        <ele>268</ele>
        <time>2021-11-24T13:56:58.000Z</time>
      </trkpt>
      <trkpt lat="43.51656" lon="6.36504">
        <ele>268</ele>
        <time>2021-11-24T13:56:59.000Z</time>
      </trkpt>
      <trkpt lat="43.51656" lon="6.36504">
        <ele>268</ele>
        <time>2021-11-24T13:57:00.000Z</time>
      </trkpt>
      <trkpt lat="43.51655" lon="6.36503">
        <ele>268</ele>
        <time>2021-11-24T13:57:01.000Z</time>
      </trkpt>
      <trkpt lat="43.51655" lon="6.36503">
        <ele>268</ele>
        <time>2021-11-24T13:57:02.000Z</time>
      </trkpt>
      <trkpt lat="43.51655" lon="6.36502">
        <ele>267</ele>
        <time>2021-11-24T13:57:03.000Z</time>
      </trkpt>
      <trkpt lat="43.51654" lon="6.36501">
        <ele>267</ele>
        <time>2021-11-24T13:57:04.000Z</time>
      </trkpt>
      <trkpt lat="43.51653" lon="6.365">
        <ele>267</ele>
        <time>2021-11-24T13:57:05.000Z</time>
      </trkpt>
      <trkpt lat="43.51653" lon="6.36499">
        <ele>267</ele>
        <time>2021-11-24T13:57:06.000Z</time>
      </trkpt>
      <trkpt lat="43.51652" lon="6.36498">
        <ele>267</ele>
        <time>2021-11-24T13:57:07.000Z</time>
      </trkpt>
      <trkpt lat="43.51652" lon="6.36497">
        <ele>267</ele>
        <time>2021-11-24T13:57:08.000Z</time>
      </trkpt>
      <trkpt lat="43.51651" lon="6.36496">
        <ele>267</ele>
        <time>2021-11-24T13:57:09.000Z</time>
      </trkpt>
      <trkpt lat="43.51651" lon="6.36495">
        <ele>267</ele>
        <time>2021-11-24T13:57:10.000Z</time>
      </trkpt>
      <trkpt lat="43.51651" lon="6.36494">
        <ele>267</ele>
        <time>2021-11-24T13:57:11.000Z</time>
      </trkpt>
      <trkpt lat="43.5165" lon="6.36494">
        <ele>267</ele>
        <time>2021-11-24T13:57:12.000Z</time>
      </trkpt>
      <trkpt lat="43.5165" lon="6.36493">
        <ele>267</ele>
        <time>2021-11-24T13:57:13.000Z</time>
      </trkpt>
      <trkpt lat="43.51649" lon="6.36492">
        <ele>267</ele>
        <time>2021-11-24T13:57:14.000Z</time>
      </trkpt>
      <trkpt lat="43.51649" lon="6.36492">
        <ele>268</ele>
        <time>2021-11-24T13:57:15.000Z</time>
      </trkpt>
      <trkpt lat="43.51649" lon="6.36491">
        <ele>268</ele>
        <time>2021-11-24T13:57:16.000Z</time>
      </trkpt>
      <trkpt lat="43.51649" lon="6.36491">
        <ele>268</ele>
        <time>2021-11-24T13:57:17.000Z</time>
      </trkpt>
      <trkpt lat="43.51649" lon="6.3649">
        <ele>268</ele>
        <time>2021-11-24T13:57:18.000Z</time>
      </trkpt>
      <trkpt lat="43.51648" lon="6.3649">
        <ele>268</ele>
        <time>2021-11-24T13:57:19.000Z</time>
      </trkpt>
      <trkpt lat="43.51648" lon="6.3649">
        <ele>268</ele>
        <time>2021-11-24T13:57:20.000Z</time>
      </trkpt>
      <trkpt lat="43.51648" lon="6.3649">
        <ele>268</ele>
        <time>2021-11-24T13:57:21.000Z</time>
      </trkpt>
      <trkpt lat="43.51648" lon="6.36489">
        <ele>268</ele>
        <time>2021-11-24T13:57:22.000Z</time>
      </trkpt>
      <trkpt lat="43.51648" lon="6.36489">
        <ele>268</ele>
        <time>2021-11-24T13:57:23.000Z</time>
      </trkpt>
      <trkpt lat="43.51648" lon="6.36489">
        <ele>268</ele>
        <time>2021-11-24T13:57:24.000Z</time>
      </trkpt>
      <trkpt lat="43.51648" lon="6.36489">
        <ele>268</ele>
        <time>2021-11-24T13:57:25.000Z</time>
      </trkpt>
      <trkpt lat="43.51648" lon="6.36488">
        <ele>268</ele>
        <time>2021-11-24T13:57:26.000Z</time>
      </trkpt>
      <trkpt lat="43.51647" lon="6.36488">
        <ele>268</ele>
        <time>2021-11-24T13:57:27.000Z</time>
      </trkpt>
      <trkpt lat="43.51647" lon="6.36487">
        <ele>267</ele>
        <time>2021-11-24T13:57:28.000Z</time>
      </trkpt>
      <trkpt lat="43.51647" lon="6.36485">
        <ele>267</ele>
        <time>2021-11-24T13:57:29.000Z</time>
      </trkpt>
      <trkpt lat="43.51647" lon="6.36484">
        <ele>266</ele>
        <time>2021-11-24T13:57:30.000Z</time>
      </trkpt>
      <trkpt lat="43.51646" lon="6.36483">
        <ele>266</ele>
        <time>2021-11-24T13:57:31.000Z</time>
      </trkpt>
      <trkpt lat="43.51646" lon="6.36481">
        <ele>265</ele>
        <time>2021-11-24T13:57:32.000Z</time>
      </trkpt>
      <trkpt lat="43.51646" lon="6.3648">
        <ele>265</ele>
        <time>2021-11-24T13:57:33.000Z</time>
      </trkpt>
      <trkpt lat="43.51646" lon="6.36477">
        <ele>264</ele>
        <time>2021-11-24T13:57:34.000Z</time>
      </trkpt>
      <trkpt lat="43.51646" lon="6.36475">
        <ele>264</ele>
        <time>2021-11-24T13:57:35.000Z</time>
      </trkpt>
      <trkpt lat="43.51645" lon="6.36472">
        <ele>264</ele>
        <time>2021-11-24T13:57:36.000Z</time>
      </trkpt>
      <trkpt lat="43.51646" lon="6.3647">
        <ele>264</ele>
        <time>2021-11-24T13:57:37.000Z</time>
      </trkpt>
      <trkpt lat="43.51646" lon="6.36469">
        <ele>264</ele>
        <time>2021-11-24T13:57:38.000Z</time>
      </trkpt>
      <trkpt lat="43.51646" lon="6.36468">
        <ele>264</ele>
        <time>2021-11-24T13:57:39.000Z</time>
      </trkpt>
      <trkpt lat="43.51646" lon="6.36467">
        <ele>265</ele>
        <time>2021-11-24T13:57:40.000Z</time>
      </trkpt>
      <trkpt lat="43.51646" lon="6.36466">
        <ele>265</ele>
        <time>2021-11-24T13:57:41.000Z</time>
      </trkpt>
      <trkpt lat="43.51646" lon="6.36465">
        <ele>266</ele>
        <time>2021-11-24T13:57:42.000Z</time>
      </trkpt>
      <trkpt lat="43.51646" lon="6.36464">
        <ele>266</ele>
        <time>2021-11-24T13:57:43.000Z</time>
      </trkpt>
      <trkpt lat="43.51647" lon="6.36463">
        <ele>266</ele>
        <time>2021-11-24T13:57:44.000Z</time>
      </trkpt>
      <trkpt lat="43.51647" lon="6.36462">
        <ele>267</ele>
        <time>2021-11-24T13:57:45.000Z</time>
      </trkpt>
      <trkpt lat="43.51647" lon="6.36461">
        <ele>267</ele>
        <time>2021-11-24T13:57:46.000Z</time>
      </trkpt>
      <trkpt lat="43.51648" lon="6.3646">
        <ele>267</ele>
        <time>2021-11-24T13:57:47.000Z</time>
      </trkpt>
      <trkpt lat="43.51648" lon="6.36458">
        <ele>269</ele>
        <time>2021-11-24T13:57:48.000Z</time>
      </trkpt>
      <trkpt lat="43.51649" lon="6.36457">
        <ele>270</ele>
        <time>2021-11-24T13:57:49.000Z</time>
      </trkpt>
      <trkpt lat="43.51649" lon="6.36456">
        <ele>270</ele>
        <time>2021-11-24T13:57:50.000Z</time>
      </trkpt>
      <trkpt lat="43.51649" lon="6.36455">
        <ele>271</ele>
        <time>2021-11-24T13:57:51.000Z</time>
      </trkpt>
      <trkpt lat="43.5165" lon="6.36454">
        <ele>271</ele>
        <time>2021-11-24T13:57:52.000Z</time>
      </trkpt>
      <trkpt lat="43.5165" lon="6.36452">
        <ele>271</ele>
        <time>2021-11-24T13:57:53.000Z</time>
      </trkpt>
      <trkpt lat="43.5165" lon="6.3645">
        <ele>272</ele>
        <time>2021-11-24T13:57:54.000Z</time>
      </trkpt>
      <trkpt lat="43.5165" lon="6.36449">
        <ele>272</ele>
        <time>2021-11-24T13:57:55.000Z</time>
      </trkpt>
      <trkpt lat="43.5165" lon="6.36447">
        <ele>272</ele>
        <time>2021-11-24T13:57:56.000Z</time>
      </trkpt>
      <trkpt lat="43.51649" lon="6.36446">
        <ele>272</ele>
        <time>2021-11-24T13:57:57.000Z</time>
      </trkpt>
      <trkpt lat="43.51649" lon="6.36445">
        <ele>273</ele>
        <time>2021-11-24T13:57:58.000Z</time>
      </trkpt>
      <trkpt lat="43.51649" lon="6.36444">
        <ele>273</ele>
        <time>2021-11-24T13:57:59.000Z</time>
      </trkpt>
      <trkpt lat="43.51649" lon="6.36444">
        <ele>273</ele>
        <time>2021-11-24T13:58:00.000Z</time>
      </trkpt>
      <trkpt lat="43.51649" lon="6.36443">
        <ele>273</ele>
        <time>2021-11-24T13:58:01.000Z</time>
      </trkpt>
      <trkpt lat="43.51649" lon="6.36442">
        <ele>273</ele>
        <time>2021-11-24T13:58:02.000Z</time>
      </trkpt>
      <trkpt lat="43.51648" lon="6.36441">
        <ele>273</ele>
        <time>2021-11-24T13:58:03.000Z</time>
      </trkpt>
      <trkpt lat="43.51648" lon="6.36438">
        <ele>273</ele>
        <time>2021-11-24T13:58:04.000Z</time>
      </trkpt>
      <trkpt lat="43.51647" lon="6.36437">
        <ele>273</ele>
        <time>2021-11-24T13:58:05.000Z</time>
      </trkpt>
      <trkpt lat="43.51647" lon="6.36435">
        <ele>273</ele>
        <time>2021-11-24T13:58:06.000Z</time>
      </trkpt>
      <trkpt lat="43.51647" lon="6.36434">
        <ele>273</ele>
        <time>2021-11-24T13:58:07.000Z</time>
      </trkpt>
      <trkpt lat="43.51647" lon="6.36433">
        <ele>273</ele>
        <time>2021-11-24T13:58:08.000Z</time>
      </trkpt>
      <trkpt lat="43.51647" lon="6.36432">
        <ele>273</ele>
        <time>2021-11-24T13:58:09.000Z</time>
      </trkpt>
      <trkpt lat="43.51647" lon="6.36431">
        <ele>273</ele>
        <time>2021-11-24T13:58:10.000Z</time>
      </trkpt>
      <trkpt lat="43.51647" lon="6.36431">
        <ele>273</ele>
        <time>2021-11-24T13:58:11.000Z</time>
      </trkpt>
      <trkpt lat="43.51647" lon="6.3643">
        <ele>273</ele>
        <time>2021-11-24T13:58:12.000Z</time>
      </trkpt>
      <trkpt lat="43.51647" lon="6.3643">
        <ele>273</ele>
        <time>2021-11-24T13:58:13.000Z</time>
      </trkpt>
      <trkpt lat="43.51647" lon="6.3643">
        <ele>273</ele>
        <time>2021-11-24T13:58:14.000Z</time>
      </trkpt>
      <trkpt lat="43.51647" lon="6.3643">
        <ele>273</ele>
        <time>2021-11-24T13:58:15.000Z</time>
      </trkpt>
      <trkpt lat="43.51647" lon="6.3643">
        <ele>273</ele>
        <time>2021-11-24T13:58:16.000Z</time>
      </trkpt>
      <trkpt lat="43.51647" lon="6.36429">
        <ele>273</ele>
        <time>2021-11-24T13:58:17.000Z</time>
      </trkpt>
      <trkpt lat="43.51648" lon="6.36428">
        <ele>273</ele>
        <time>2021-11-24T13:58:18.000Z</time>
      </trkpt>
      <trkpt lat="43.51648" lon="6.36427">
        <ele>273</ele>
        <time>2021-11-24T13:58:19.000Z</time>
      </trkpt>
      <trkpt lat="43.51648" lon="6.36426">
        <ele>273</ele>
        <time>2021-11-24T13:58:20.000Z</time>
      </trkpt>
      <trkpt lat="43.51648" lon="6.36425">
        <ele>273</ele>
        <time>2021-11-24T13:58:21.000Z</time>
      </trkpt>
      <trkpt lat="43.51647" lon="6.36424">
        <ele>273</ele>
        <time>2021-11-24T13:58:22.000Z</time>
      </trkpt>
      <trkpt lat="43.51647" lon="6.36423">
        <ele>273</ele>
        <time>2021-11-24T13:58:23.000Z</time>
      </trkpt>
      <trkpt lat="43.51647" lon="6.36422">
        <ele>273</ele>
        <time>2021-11-24T13:58:24.000Z</time>
      </trkpt>
      <trkpt lat="43.51646" lon="6.3642">
        <ele>273</ele>
        <time>2021-11-24T13:58:25.000Z</time>
      </trkpt>
      <trkpt lat="43.51645" lon="6.36418">
        <ele>273</ele>
        <time>2021-11-24T13:58:26.000Z</time>
      </trkpt>
      <trkpt lat="43.51643" lon="6.36415">
        <ele>273</ele>
        <time>2021-11-24T13:58:27.000Z</time>
      </trkpt>
      <trkpt lat="43.51642" lon="6.36413">
        <ele>273</ele>
        <time>2021-11-24T13:58:28.000Z</time>
      </trkpt>
      <trkpt lat="43.51641" lon="6.36411">
        <ele>273</ele>
        <time>2021-11-24T13:58:29.000Z</time>
      </trkpt>
      <trkpt lat="43.51641" lon="6.36409">
        <ele>273</ele>
        <time>2021-11-24T13:58:30.000Z</time>
      </trkpt>
      <trkpt lat="43.5164" lon="6.36408">
        <ele>273</ele>
        <time>2021-11-24T13:58:31.000Z</time>
      </trkpt>
      <trkpt lat="43.51639" lon="6.36407">
        <ele>273</ele>
        <time>2021-11-24T13:58:32.000Z</time>
      </trkpt>
      <trkpt lat="43.51639" lon="6.36405">
        <ele>273</ele>
        <time>2021-11-24T13:58:33.000Z</time>
      </trkpt>
      <trkpt lat="43.51638" lon="6.36404">
        <ele>273</ele>
        <time>2021-11-24T13:58:34.000Z</time>
      </trkpt>
      <trkpt lat="43.51638" lon="6.36402">
        <ele>273</ele>
        <time>2021-11-24T13:58:35.000Z</time>
      </trkpt>
      <trkpt lat="43.51637" lon="6.36401">
        <ele>273</ele>
        <time>2021-11-24T13:58:36.000Z</time>
      </trkpt>
      <trkpt lat="43.51637" lon="6.36399">
        <ele>273</ele>
        <time>2021-11-24T13:58:37.000Z</time>
      </trkpt>
      <trkpt lat="43.51637" lon="6.36398">
        <ele>273</ele>
        <time>2021-11-24T13:58:38.000Z</time>
      </trkpt>
      <trkpt lat="43.51636" lon="6.36397">
        <ele>273</ele>
        <time>2021-11-24T13:58:39.000Z</time>
      </trkpt>
      <trkpt lat="43.51636" lon="6.36397">
        <ele>273</ele>
        <time>2021-11-24T13:58:40.000Z</time>
      </trkpt>
      <trkpt lat="43.51636" lon="6.36397">
        <ele>273</ele>
        <time>2021-11-24T13:58:41.000Z</time>
      </trkpt>
      <trkpt lat="43.51636" lon="6.36397">
        <ele>273</ele>
        <time>2021-11-24T13:58:42.000Z</time>
      </trkpt>
      <trkpt lat="43.51636" lon="6.36397">
        <ele>273</ele>
        <time>2021-11-24T13:58:43.000Z</time>
      </trkpt>
      <trkpt lat="43.51636" lon="6.36397">
        <ele>273</ele>
        <time>2021-11-24T13:58:44.000Z</time>
      </trkpt>
      <trkpt lat="43.51636" lon="6.36396">
        <ele>273</ele>
        <time>2021-11-24T13:58:45.000Z</time>
      </trkpt>
      <trkpt lat="43.51636" lon="6.36396">
        <ele>273</ele>
        <time>2021-11-24T13:58:46.000Z</time>
      </trkpt>
      <trkpt lat="43.51636" lon="6.36396">
        <ele>273</ele>
        <time>2021-11-24T13:58:47.000Z</time>
      </trkpt>
      <trkpt lat="43.51636" lon="6.36395">
        <ele>273</ele>
        <time>2021-11-24T13:58:48.000Z</time>
      </trkpt>
      <trkpt lat="43.51636" lon="6.36395">
        <ele>273</ele>
        <time>2021-11-24T13:58:49.000Z</time>
      </trkpt>
      <trkpt lat="43.51636" lon="6.36394">
        <ele>273</ele>
        <time>2021-11-24T13:58:50.000Z</time>
      </trkpt>
      <trkpt lat="43.51636" lon="6.36393">
        <ele>274</ele>
        <time>2021-11-24T13:58:51.000Z</time>
      </trkpt>
      <trkpt lat="43.51636" lon="6.36393">
        <ele>274</ele>
        <time>2021-11-24T13:58:52.000Z</time>
      </trkpt>
      <trkpt lat="43.51636" lon="6.36392">
        <ele>274</ele>
        <time>2021-11-24T13:58:53.000Z</time>
      </trkpt>
      <trkpt lat="43.51636" lon="6.36392">
        <ele>274</ele>
        <time>2021-11-24T13:58:54.000Z</time>
      </trkpt>
      <trkpt lat="43.51636" lon="6.36392">
        <ele>274</ele>
        <time>2021-11-24T13:58:55.000Z</time>
      </trkpt>
      <trkpt lat="43.51635" lon="6.36391">
        <ele>274</ele>
        <time>2021-11-24T13:58:56.000Z</time>
      </trkpt>
      <trkpt lat="43.51635" lon="6.36391">
        <ele>274</ele>
        <time>2021-11-24T13:58:57.000Z</time>
      </trkpt>
      <trkpt lat="43.51635" lon="6.3639">
        <ele>274</ele>
        <time>2021-11-24T13:58:58.000Z</time>
      </trkpt>
      <trkpt lat="43.51635" lon="6.36389">
        <ele>274</ele>
        <time>2021-11-24T13:58:59.000Z</time>
      </trkpt>
      <trkpt lat="43.51634" lon="6.36389">
        <ele>275</ele>
        <time>2021-11-24T13:59:00.000Z</time>
      </trkpt>
      <trkpt lat="43.51634" lon="6.36388">
        <ele>275</ele>
        <time>2021-11-24T13:59:01.000Z</time>
      </trkpt>
      <trkpt lat="43.51634" lon="6.36388">
        <ele>275</ele>
        <time>2021-11-24T13:59:02.000Z</time>
      </trkpt>
      <trkpt lat="43.51634" lon="6.36388">
        <ele>275</ele>
        <time>2021-11-24T13:59:03.000Z</time>
      </trkpt>
      <trkpt lat="43.51633" lon="6.36387">
        <ele>275</ele>
        <time>2021-11-24T13:59:04.000Z</time>
      </trkpt>
      <trkpt lat="43.51633" lon="6.36387">
        <ele>275</ele>
        <time>2021-11-24T13:59:05.000Z</time>
      </trkpt>
      <trkpt lat="43.51632" lon="6.36386">
        <ele>275</ele>
        <time>2021-11-24T13:59:06.000Z</time>
      </trkpt>
      <trkpt lat="43.51631" lon="6.36385">
        <ele>275</ele>
        <time>2021-11-24T13:59:07.000Z</time>
      </trkpt>
      <trkpt lat="43.51631" lon="6.36385">
        <ele>276</ele>
        <time>2021-11-24T13:59:08.000Z</time>
      </trkpt>
      <trkpt lat="43.5163" lon="6.36384">
        <ele>276</ele>
        <time>2021-11-24T13:59:09.000Z</time>
      </trkpt>
      <trkpt lat="43.5163" lon="6.36383">
        <ele>276</ele>
        <time>2021-11-24T13:59:10.000Z</time>
      </trkpt>
      <trkpt lat="43.51629" lon="6.36382">
        <ele>277</ele>
        <time>2021-11-24T13:59:11.000Z</time>
      </trkpt>
      <trkpt lat="43.51628" lon="6.36381">
        <ele>277</ele>
        <time>2021-11-24T13:59:12.000Z</time>
      </trkpt>
      <trkpt lat="43.51627" lon="6.3638">
        <ele>277</ele>
        <time>2021-11-24T13:59:13.000Z</time>
      </trkpt>
      <trkpt lat="43.51626" lon="6.36379">
        <ele>277</ele>
        <time>2021-11-24T13:59:14.000Z</time>
      </trkpt>
      <trkpt lat="43.51624" lon="6.36379">
        <ele>278</ele>
        <time>2021-11-24T13:59:15.000Z</time>
      </trkpt>
      <trkpt lat="43.51623" lon="6.36379">
        <ele>278</ele>
        <time>2021-11-24T13:59:16.000Z</time>
      </trkpt>
      <trkpt lat="43.51622" lon="6.36379">
        <ele>278</ele>
        <time>2021-11-24T13:59:17.000Z</time>
      </trkpt>
      <trkpt lat="43.51621" lon="6.36379">
        <ele>278</ele>
        <time>2021-11-24T13:59:18.000Z</time>
      </trkpt>
      <trkpt lat="43.51621" lon="6.36379">
        <ele>278</ele>
        <time>2021-11-24T13:59:19.000Z</time>
      </trkpt>
      <trkpt lat="43.5162" lon="6.36379">
        <ele>279</ele>
        <time>2021-11-24T13:59:20.000Z</time>
      </trkpt>
      <trkpt lat="43.51619" lon="6.36379">
        <ele>279</ele>
        <time>2021-11-24T13:59:21.000Z</time>
      </trkpt>
      <trkpt lat="43.51618" lon="6.36379">
        <ele>280</ele>
        <time>2021-11-24T13:59:22.000Z</time>
      </trkpt>
      <trkpt lat="43.51618" lon="6.36379">
        <ele>280</ele>
        <time>2021-11-24T13:59:23.000Z</time>
      </trkpt>
      <trkpt lat="43.51617" lon="6.36379">
        <ele>280</ele>
        <time>2021-11-24T13:59:24.000Z</time>
      </trkpt>
      <trkpt lat="43.51616" lon="6.36379">
        <ele>280</ele>
        <time>2021-11-24T13:59:25.000Z</time>
      </trkpt>
      <trkpt lat="43.51615" lon="6.36379">
        <ele>280</ele>
        <time>2021-11-24T13:59:26.000Z</time>
      </trkpt>
      <trkpt lat="43.51613" lon="6.36378">
        <ele>280</ele>
        <time>2021-11-24T13:59:27.000Z</time>
      </trkpt>
      <trkpt lat="43.51611" lon="6.36377">
        <ele>280</ele>
        <time>2021-11-24T13:59:28.000Z</time>
      </trkpt>
      <trkpt lat="43.5161" lon="6.36376">
        <ele>280</ele>
        <time>2021-11-24T13:59:29.000Z</time>
      </trkpt>
      <trkpt lat="43.51608" lon="6.36376">
        <ele>280</ele>
        <time>2021-11-24T13:59:30.000Z</time>
      </trkpt>
      <trkpt lat="43.51607" lon="6.36375">
        <ele>280</ele>
        <time>2021-11-24T13:59:31.000Z</time>
      </trkpt>
      <trkpt lat="43.51606" lon="6.36375">
        <ele>280</ele>
        <time>2021-11-24T13:59:32.000Z</time>
      </trkpt>
      <trkpt lat="43.51605" lon="6.36375">
        <ele>280</ele>
        <time>2021-11-24T13:59:33.000Z</time>
      </trkpt>
      <trkpt lat="43.51603" lon="6.36374">
        <ele>280</ele>
        <time>2021-11-24T13:59:34.000Z</time>
      </trkpt>
      <trkpt lat="43.51601" lon="6.36374">
        <ele>280</ele>
        <time>2021-11-24T13:59:35.000Z</time>
      </trkpt>
      <trkpt lat="43.516" lon="6.36374">
        <ele>280</ele>
        <time>2021-11-24T13:59:36.000Z</time>
      </trkpt>
      <trkpt lat="43.51599" lon="6.36374">
        <ele>280</ele>
        <time>2021-11-24T13:59:37.000Z</time>
      </trkpt>
      <trkpt lat="43.51597" lon="6.36373">
        <ele>280</ele>
        <time>2021-11-24T13:59:38.000Z</time>
      </trkpt>
      <trkpt lat="43.51596" lon="6.36372">
        <ele>280</ele>
        <time>2021-11-24T13:59:39.000Z</time>
      </trkpt>
      <trkpt lat="43.51595" lon="6.36371">
        <ele>281</ele>
        <time>2021-11-24T13:59:40.000Z</time>
      </trkpt>
      <trkpt lat="43.51594" lon="6.3637">
        <ele>281</ele>
        <time>2021-11-24T13:59:41.000Z</time>
      </trkpt>
      <trkpt lat="43.51593" lon="6.3637">
        <ele>281</ele>
        <time>2021-11-24T13:59:42.000Z</time>
      </trkpt>
      <trkpt lat="43.51592" lon="6.36369">
        <ele>281</ele>
        <time>2021-11-24T13:59:43.000Z</time>
      </trkpt>
      <trkpt lat="43.51591" lon="6.36368">
        <ele>281</ele>
        <time>2021-11-24T13:59:44.000Z</time>
      </trkpt>
      <trkpt lat="43.5159" lon="6.36367">
        <ele>281</ele>
        <time>2021-11-24T13:59:45.000Z</time>
      </trkpt>
      <trkpt lat="43.51589" lon="6.36366">
        <ele>281</ele>
        <time>2021-11-24T13:59:46.000Z</time>
      </trkpt>
      <trkpt lat="43.51589" lon="6.36365">
        <ele>281</ele>
        <time>2021-11-24T13:59:47.000Z</time>
      </trkpt>
      <trkpt lat="43.51588" lon="6.36363">
        <ele>280</ele>
        <time>2021-11-24T13:59:48.000Z</time>
      </trkpt>
      <trkpt lat="43.51588" lon="6.36362">
        <ele>280</ele>
        <time>2021-11-24T13:59:49.000Z</time>
      </trkpt>
      <trkpt lat="43.51587" lon="6.36361">
        <ele>280</ele>
        <time>2021-11-24T13:59:50.000Z</time>
      </trkpt>
      <trkpt lat="43.51587" lon="6.3636">
        <ele>280</ele>
        <time>2021-11-24T13:59:51.000Z</time>
      </trkpt>
      <trkpt lat="43.51586" lon="6.36359">
        <ele>280</ele>
        <time>2021-11-24T13:59:52.000Z</time>
      </trkpt>
      <trkpt lat="43.51585" lon="6.36357">
        <ele>280</ele>
        <time>2021-11-24T13:59:53.000Z</time>
      </trkpt>
      <trkpt lat="43.51585" lon="6.36356">
        <ele>280</ele>
        <time>2021-11-24T13:59:54.000Z</time>
      </trkpt>
      <trkpt lat="43.51585" lon="6.36354">
        <ele>280</ele>
        <time>2021-11-24T13:59:55.000Z</time>
      </trkpt>
      <trkpt lat="43.51584" lon="6.36353">
        <ele>280</ele>
        <time>2021-11-24T13:59:56.000Z</time>
      </trkpt>
      <trkpt lat="43.51584" lon="6.36352">
        <ele>279</ele>
        <time>2021-11-24T13:59:57.000Z</time>
      </trkpt>
      <trkpt lat="43.51583" lon="6.3635">
        <ele>279</ele>
        <time>2021-11-24T13:59:58.000Z</time>
      </trkpt>
      <trkpt lat="43.51583" lon="6.36349">
        <ele>279</ele>
        <time>2021-11-24T13:59:59.000Z</time>
      </trkpt>
      <trkpt lat="43.51583" lon="6.36348">
        <ele>279</ele>
        <time>2021-11-24T14:00:00.000Z</time>
      </trkpt>
      <trkpt lat="43.51583" lon="6.36347">
        <ele>279</ele>
        <time>2021-11-24T14:00:01.000Z</time>
      </trkpt>
      <trkpt lat="43.51583" lon="6.36346">
        <ele>279</ele>
        <time>2021-11-24T14:00:02.000Z</time>
      </trkpt>
      <trkpt lat="43.51583" lon="6.36345">
        <ele>279</ele>
        <time>2021-11-24T14:00:03.000Z</time>
      </trkpt>
      <trkpt lat="43.51582" lon="6.36343">
        <ele>279</ele>
        <time>2021-11-24T14:00:04.000Z</time>
      </trkpt>
      <trkpt lat="43.51582" lon="6.36342">
        <ele>278</ele>
        <time>2021-11-24T14:00:05.000Z</time>
      </trkpt>
      <trkpt lat="43.51581" lon="6.36341">
        <ele>278</ele>
        <time>2021-11-24T14:00:06.000Z</time>
      </trkpt>
      <trkpt lat="43.51581" lon="6.3634">
        <ele>279</ele>
        <time>2021-11-24T14:00:07.000Z</time>
      </trkpt>
      <trkpt lat="43.51581" lon="6.36339">
        <ele>279</ele>
        <time>2021-11-24T14:00:08.000Z</time>
      </trkpt>
      <trkpt lat="43.5158" lon="6.36338">
        <ele>279</ele>
        <time>2021-11-24T14:00:09.000Z</time>
      </trkpt>
      <trkpt lat="43.5158" lon="6.36337">
        <ele>279</ele>
        <time>2021-11-24T14:00:10.000Z</time>
      </trkpt>
      <trkpt lat="43.51579" lon="6.36335">
        <ele>279</ele>
        <time>2021-11-24T14:00:11.000Z</time>
      </trkpt>
      <trkpt lat="43.51579" lon="6.36334">
        <ele>279</ele>
        <time>2021-11-24T14:00:12.000Z</time>
      </trkpt>
      <trkpt lat="43.51579" lon="6.36333">
        <ele>280</ele>
        <time>2021-11-24T14:00:13.000Z</time>
      </trkpt>
      <trkpt lat="43.51578" lon="6.36331">
        <ele>280</ele>
        <time>2021-11-24T14:00:14.000Z</time>
      </trkpt>
      <trkpt lat="43.51578" lon="6.3633">
        <ele>280</ele>
        <time>2021-11-24T14:00:15.000Z</time>
      </trkpt>
      <trkpt lat="43.51578" lon="6.36329">
        <ele>280</ele>
        <time>2021-11-24T14:00:16.000Z</time>
      </trkpt>
      <trkpt lat="43.51577" lon="6.36327">
        <ele>281</ele>
        <time>2021-11-24T14:00:17.000Z</time>
      </trkpt>
      <trkpt lat="43.51576" lon="6.36325">
        <ele>281</ele>
        <time>2021-11-24T14:00:18.000Z</time>
      </trkpt>
      <trkpt lat="43.51576" lon="6.36323">
        <ele>281</ele>
        <time>2021-11-24T14:00:19.000Z</time>
      </trkpt>
      <trkpt lat="43.51575" lon="6.36322">
        <ele>282</ele>
        <time>2021-11-24T14:00:20.000Z</time>
      </trkpt>
      <trkpt lat="43.51575" lon="6.3632">
        <ele>282</ele>
        <time>2021-11-24T14:00:21.000Z</time>
      </trkpt>
      <trkpt lat="43.51574" lon="6.36319">
        <ele>282</ele>
        <time>2021-11-24T14:00:22.000Z</time>
      </trkpt>
      <trkpt lat="43.51574" lon="6.36318">
        <ele>282</ele>
        <time>2021-11-24T14:00:23.000Z</time>
      </trkpt>
      <trkpt lat="43.51573" lon="6.36317">
        <ele>282</ele>
        <time>2021-11-24T14:00:24.000Z</time>
      </trkpt>
      <trkpt lat="43.51573" lon="6.36316">
        <ele>283</ele>
        <time>2021-11-24T14:00:25.000Z</time>
      </trkpt>
      <trkpt lat="43.51572" lon="6.36314">
        <ele>283</ele>
        <time>2021-11-24T14:00:26.000Z</time>
      </trkpt>
      <trkpt lat="43.51572" lon="6.36313">
        <ele>283</ele>
        <time>2021-11-24T14:00:27.000Z</time>
      </trkpt>
      <trkpt lat="43.51572" lon="6.36312">
        <ele>283</ele>
        <time>2021-11-24T14:00:28.000Z</time>
      </trkpt>
      <trkpt lat="43.51571" lon="6.36311">
        <ele>283</ele>
        <time>2021-11-24T14:00:29.000Z</time>
      </trkpt>
      <trkpt lat="43.51571" lon="6.36309">
        <ele>283</ele>
        <time>2021-11-24T14:00:30.000Z</time>
      </trkpt>
      <trkpt lat="43.51571" lon="6.36308">
        <ele>283</ele>
        <time>2021-11-24T14:00:31.000Z</time>
      </trkpt>
      <trkpt lat="43.51571" lon="6.36306">
        <ele>283</ele>
        <time>2021-11-24T14:00:32.000Z</time>
      </trkpt>
      <trkpt lat="43.5157" lon="6.36305">
        <ele>283</ele>
        <time>2021-11-24T14:00:33.000Z</time>
      </trkpt>
      <trkpt lat="43.5157" lon="6.36303">
        <ele>283</ele>
        <time>2021-11-24T14:00:34.000Z</time>
      </trkpt>
      <trkpt lat="43.5157" lon="6.36302">
        <ele>283</ele>
        <time>2021-11-24T14:00:35.000Z</time>
      </trkpt>
      <trkpt lat="43.5157" lon="6.363">
        <ele>283</ele>
        <time>2021-11-24T14:00:36.000Z</time>
      </trkpt>
      <trkpt lat="43.5157" lon="6.36298">
        <ele>283</ele>
        <time>2021-11-24T14:00:37.000Z</time>
      </trkpt>
      <trkpt lat="43.5157" lon="6.36297">
        <ele>283</ele>
        <time>2021-11-24T14:00:38.000Z</time>
      </trkpt>
      <trkpt lat="43.5157" lon="6.36295">
        <ele>283</ele>
        <time>2021-11-24T14:00:39.000Z</time>
      </trkpt>
      <trkpt lat="43.5157" lon="6.36294">
        <ele>283</ele>
        <time>2021-11-24T14:00:40.000Z</time>
      </trkpt>
      <trkpt lat="43.5157" lon="6.36292">
        <ele>283</ele>
        <time>2021-11-24T14:00:41.000Z</time>
      </trkpt>
      <trkpt lat="43.5157" lon="6.36291">
        <ele>283</ele>
        <time>2021-11-24T14:00:42.000Z</time>
      </trkpt>
      <trkpt lat="43.5157" lon="6.3629">
        <ele>283</ele>
        <time>2021-11-24T14:00:43.000Z</time>
      </trkpt>
      <trkpt lat="43.5157" lon="6.36289">
        <ele>283</ele>
        <time>2021-11-24T14:00:44.000Z</time>
      </trkpt>
      <trkpt lat="43.5157" lon="6.36288">
        <ele>283</ele>
        <time>2021-11-24T14:00:45.000Z</time>
      </trkpt>
      <trkpt lat="43.5157" lon="6.36287">
        <ele>284</ele>
        <time>2021-11-24T14:00:46.000Z</time>
      </trkpt>
      <trkpt lat="43.5157" lon="6.36286">
        <ele>284</ele>
        <time>2021-11-24T14:00:47.000Z</time>
      </trkpt>
      <trkpt lat="43.5157" lon="6.36284">
        <ele>284</ele>
        <time>2021-11-24T14:00:48.000Z</time>
      </trkpt>
      <trkpt lat="43.5157" lon="6.36283">
        <ele>284</ele>
        <time>2021-11-24T14:00:49.000Z</time>
      </trkpt>
      <trkpt lat="43.5157" lon="6.36281">
        <ele>284</ele>
        <time>2021-11-24T14:00:50.000Z</time>
      </trkpt>
      <trkpt lat="43.5157" lon="6.3628">
        <ele>284</ele>
        <time>2021-11-24T14:00:51.000Z</time>
      </trkpt>
      <trkpt lat="43.51569" lon="6.36279">
        <ele>284</ele>
        <time>2021-11-24T14:00:52.000Z</time>
      </trkpt>
      <trkpt lat="43.51569" lon="6.36277">
        <ele>285</ele>
        <time>2021-11-24T14:00:53.000Z</time>
      </trkpt>
      <trkpt lat="43.51569" lon="6.36276">
        <ele>285</ele>
        <time>2021-11-24T14:00:54.000Z</time>
      </trkpt>
      <trkpt lat="43.51569" lon="6.36274">
        <ele>285</ele>
        <time>2021-11-24T14:00:55.000Z</time>
      </trkpt>
      <trkpt lat="43.51569" lon="6.36273">
        <ele>285</ele>
        <time>2021-11-24T14:00:56.000Z</time>
      </trkpt>
      <trkpt lat="43.51568" lon="6.36272">
        <ele>285</ele>
        <time>2021-11-24T14:00:57.000Z</time>
      </trkpt>
      <trkpt lat="43.51568" lon="6.36271">
        <ele>286</ele>
        <time>2021-11-24T14:00:58.000Z</time>
      </trkpt>
      <trkpt lat="43.51568" lon="6.3627">
        <ele>286</ele>
        <time>2021-11-24T14:00:59.000Z</time>
      </trkpt>
      <trkpt lat="43.51568" lon="6.36269">
        <ele>286</ele>
        <time>2021-11-24T14:01:00.000Z</time>
      </trkpt>
      <trkpt lat="43.51568" lon="6.36268">
        <ele>286</ele>
        <time>2021-11-24T14:01:01.000Z</time>
      </trkpt>
      <trkpt lat="43.51568" lon="6.36268">
        <ele>286</ele>
        <time>2021-11-24T14:01:02.000Z</time>
      </trkpt>
      <trkpt lat="43.51568" lon="6.36268">
        <ele>286</ele>
        <time>2021-11-24T14:01:03.000Z</time>
      </trkpt>
      <trkpt lat="43.51568" lon="6.36267">
        <ele>286</ele>
        <time>2021-11-24T14:01:04.000Z</time>
      </trkpt>
      <trkpt lat="43.51568" lon="6.36267">
        <ele>286</ele>
        <time>2021-11-24T14:01:05.000Z</time>
      </trkpt>
      <trkpt lat="43.51568" lon="6.36267">
        <ele>286</ele>
        <time>2021-11-24T14:01:06.000Z</time>
      </trkpt>
      <trkpt lat="43.51568" lon="6.36266">
        <ele>286</ele>
        <time>2021-11-24T14:01:07.000Z</time>
      </trkpt>
      <trkpt lat="43.51568" lon="6.36266">
        <ele>286</ele>
        <time>2021-11-24T14:01:08.000Z</time>
      </trkpt>
      <trkpt lat="43.51569" lon="6.36266">
        <ele>286</ele>
        <time>2021-11-24T14:01:09.000Z</time>
      </trkpt>
      <trkpt lat="43.5157" lon="6.36265">
        <ele>286</ele>
        <time>2021-11-24T14:01:10.000Z</time>
      </trkpt>
      <trkpt lat="43.5157" lon="6.36265">
        <ele>286</ele>
        <time>2021-11-24T14:01:11.000Z</time>
      </trkpt>
      <trkpt lat="43.5157" lon="6.36264">
        <ele>286</ele>
        <time>2021-11-24T14:01:12.000Z</time>
      </trkpt>
      <trkpt lat="43.5157" lon="6.36264">
        <ele>286</ele>
        <time>2021-11-24T14:01:13.000Z</time>
      </trkpt>
      <trkpt lat="43.51571" lon="6.36264">
        <ele>286</ele>
        <time>2021-11-24T14:01:14.000Z</time>
      </trkpt>
      <trkpt lat="43.51571" lon="6.36264">
        <ele>286</ele>
        <time>2021-11-24T14:01:15.000Z</time>
      </trkpt>
      <trkpt lat="43.51571" lon="6.36263">
        <ele>286</ele>
        <time>2021-11-24T14:01:16.000Z</time>
      </trkpt>
      <trkpt lat="43.51572" lon="6.36263">
        <ele>286</ele>
        <time>2021-11-24T14:01:17.000Z</time>
      </trkpt>
      <trkpt lat="43.51571" lon="6.36262">
        <ele>286</ele>
        <time>2021-11-24T14:01:18.000Z</time>
      </trkpt>
      <trkpt lat="43.51571" lon="6.36262">
        <ele>286</ele>
        <time>2021-11-24T14:01:19.000Z</time>
      </trkpt>
      <trkpt lat="43.5157" lon="6.36261">
        <ele>286</ele>
        <time>2021-11-24T14:01:20.000Z</time>
      </trkpt>
      <trkpt lat="43.51568" lon="6.3626">
        <ele>286</ele>
        <time>2021-11-24T14:01:21.000Z</time>
      </trkpt>
      <trkpt lat="43.51567" lon="6.36259">
        <ele>286</ele>
        <time>2021-11-24T14:01:22.000Z</time>
      </trkpt>
      <trkpt lat="43.51566" lon="6.36258">
        <ele>286</ele>
        <time>2021-11-24T14:01:23.000Z</time>
      </trkpt>
      <trkpt lat="43.51565" lon="6.36257">
        <ele>286</ele>
        <time>2021-11-24T14:01:24.000Z</time>
      </trkpt>
      <trkpt lat="43.51564" lon="6.36256">
        <ele>286</ele>
        <time>2021-11-24T14:01:25.000Z</time>
      </trkpt>
      <trkpt lat="43.51563" lon="6.36254">
        <ele>286</ele>
        <time>2021-11-24T14:01:26.000Z</time>
      </trkpt>
      <trkpt lat="43.51562" lon="6.36253">
        <ele>286</ele>
        <time>2021-11-24T14:01:27.000Z</time>
      </trkpt>
      <trkpt lat="43.51562" lon="6.36251">
        <ele>286</ele>
        <time>2021-11-24T14:01:28.000Z</time>
      </trkpt>
      <trkpt lat="43.51562" lon="6.3625">
        <ele>286</ele>
        <time>2021-11-24T14:01:29.000Z</time>
      </trkpt>
      <trkpt lat="43.51561" lon="6.36249">
        <ele>286</ele>
        <time>2021-11-24T14:01:30.000Z</time>
      </trkpt>
      <trkpt lat="43.51561" lon="6.36248">
        <ele>286</ele>
        <time>2021-11-24T14:01:31.000Z</time>
      </trkpt>
      <trkpt lat="43.51561" lon="6.36246">
        <ele>286</ele>
        <time>2021-11-24T14:01:32.000Z</time>
      </trkpt>
      <trkpt lat="43.51561" lon="6.36245">
        <ele>286</ele>
        <time>2021-11-24T14:01:33.000Z</time>
      </trkpt>
      <trkpt lat="43.51561" lon="6.36243">
        <ele>286</ele>
        <time>2021-11-24T14:01:34.000Z</time>
      </trkpt>
      <trkpt lat="43.5156" lon="6.36242">
        <ele>286</ele>
        <time>2021-11-24T14:01:35.000Z</time>
      </trkpt>
      <trkpt lat="43.5156" lon="6.3624">
        <ele>286</ele>
        <time>2021-11-24T14:01:36.000Z</time>
      </trkpt>
      <trkpt lat="43.5156" lon="6.36239">
        <ele>286</ele>
        <time>2021-11-24T14:01:37.000Z</time>
      </trkpt>
      <trkpt lat="43.51559" lon="6.36238">
        <ele>286</ele>
        <time>2021-11-24T14:01:38.000Z</time>
      </trkpt>
      <trkpt lat="43.51559" lon="6.36236">
        <ele>286</ele>
        <time>2021-11-24T14:01:39.000Z</time>
      </trkpt>
      <trkpt lat="43.51559" lon="6.36235">
        <ele>287</ele>
        <time>2021-11-24T14:01:40.000Z</time>
      </trkpt>
      <trkpt lat="43.51558" lon="6.36233">
        <ele>287</ele>
        <time>2021-11-24T14:01:41.000Z</time>
      </trkpt>
      <trkpt lat="43.51558" lon="6.36232">
        <ele>287</ele>
        <time>2021-11-24T14:01:42.000Z</time>
      </trkpt>
      <trkpt lat="43.51558" lon="6.3623">
        <ele>287</ele>
        <time>2021-11-24T14:01:43.000Z</time>
      </trkpt>
      <trkpt lat="43.51557" lon="6.36229">
        <ele>287</ele>
        <time>2021-11-24T14:01:44.000Z</time>
      </trkpt>
      <trkpt lat="43.51557" lon="6.36228">
        <ele>286</ele>
        <time>2021-11-24T14:01:45.000Z</time>
      </trkpt>
      <trkpt lat="43.51557" lon="6.36226">
        <ele>286</ele>
        <time>2021-11-24T14:01:46.000Z</time>
      </trkpt>
      <trkpt lat="43.51556" lon="6.36224">
        <ele>286</ele>
        <time>2021-11-24T14:01:47.000Z</time>
      </trkpt>
      <trkpt lat="43.51556" lon="6.36222">
        <ele>286</ele>
        <time>2021-11-24T14:01:48.000Z</time>
      </trkpt>
      <trkpt lat="43.51556" lon="6.36221">
        <ele>286</ele>
        <time>2021-11-24T14:01:49.000Z</time>
      </trkpt>
      <trkpt lat="43.51556" lon="6.36219">
        <ele>286</ele>
        <time>2021-11-24T14:01:50.000Z</time>
      </trkpt>
      <trkpt lat="43.51555" lon="6.36218">
        <ele>285</ele>
        <time>2021-11-24T14:01:51.000Z</time>
      </trkpt>
      <trkpt lat="43.51555" lon="6.36216">
        <ele>285</ele>
        <time>2021-11-24T14:01:52.000Z</time>
      </trkpt>
      <trkpt lat="43.51555" lon="6.36215">
        <ele>285</ele>
        <time>2021-11-24T14:01:53.000Z</time>
      </trkpt>
      <trkpt lat="43.51555" lon="6.36213">
        <ele>285</ele>
        <time>2021-11-24T14:01:54.000Z</time>
      </trkpt>
      <trkpt lat="43.51555" lon="6.36212">
        <ele>285</ele>
        <time>2021-11-24T14:01:55.000Z</time>
      </trkpt>
      <trkpt lat="43.51555" lon="6.3621">
        <ele>285</ele>
        <time>2021-11-24T14:01:56.000Z</time>
      </trkpt>
      <trkpt lat="43.51555" lon="6.36209">
        <ele>285</ele>
        <time>2021-11-24T14:01:57.000Z</time>
      </trkpt>
      <trkpt lat="43.51555" lon="6.36207">
        <ele>285</ele>
        <time>2021-11-24T14:01:58.000Z</time>
      </trkpt>
      <trkpt lat="43.51555" lon="6.36205">
        <ele>285</ele>
        <time>2021-11-24T14:01:59.000Z</time>
      </trkpt>
      <trkpt lat="43.51554" lon="6.36204">
        <ele>285</ele>
        <time>2021-11-24T14:02:00.000Z</time>
      </trkpt>
      <trkpt lat="43.51553" lon="6.36203">
        <ele>285</ele>
        <time>2021-11-24T14:02:01.000Z</time>
      </trkpt>
      <trkpt lat="43.51553" lon="6.36201">
        <ele>285</ele>
        <time>2021-11-24T14:02:02.000Z</time>
      </trkpt>
      <trkpt lat="43.51553" lon="6.362">
        <ele>285</ele>
        <time>2021-11-24T14:02:03.000Z</time>
      </trkpt>
      <trkpt lat="43.51553" lon="6.36199">
        <ele>285</ele>
        <time>2021-11-24T14:02:04.000Z</time>
      </trkpt>
      <trkpt lat="43.51553" lon="6.36197">
        <ele>285</ele>
        <time>2021-11-24T14:02:05.000Z</time>
      </trkpt>
      <trkpt lat="43.51553" lon="6.36196">
        <ele>285</ele>
        <time>2021-11-24T14:02:06.000Z</time>
      </trkpt>
      <trkpt lat="43.51553" lon="6.36195">
        <ele>285</ele>
        <time>2021-11-24T14:02:07.000Z</time>
      </trkpt>
      <trkpt lat="43.51553" lon="6.36194">
        <ele>285</ele>
        <time>2021-11-24T14:02:08.000Z</time>
      </trkpt>
      <trkpt lat="43.51553" lon="6.36193">
        <ele>285</ele>
        <time>2021-11-24T14:02:09.000Z</time>
      </trkpt>
      <trkpt lat="43.51553" lon="6.36192">
        <ele>285</ele>
        <time>2021-11-24T14:02:10.000Z</time>
      </trkpt>
      <trkpt lat="43.51553" lon="6.36191">
        <ele>285</ele>
        <time>2021-11-24T14:02:11.000Z</time>
      </trkpt>
      <trkpt lat="43.51553" lon="6.36189">
        <ele>285</ele>
        <time>2021-11-24T14:02:12.000Z</time>
      </trkpt>
      <trkpt lat="43.51553" lon="6.36189">
        <ele>285</ele>
        <time>2021-11-24T14:02:13.000Z</time>
      </trkpt>
      <trkpt lat="43.51553" lon="6.36187">
        <ele>285</ele>
        <time>2021-11-24T14:02:14.000Z</time>
      </trkpt>
      <trkpt lat="43.51553" lon="6.36186">
        <ele>285</ele>
        <time>2021-11-24T14:02:15.000Z</time>
      </trkpt>
      <trkpt lat="43.51553" lon="6.36185">
        <ele>285</ele>
        <time>2021-11-24T14:02:16.000Z</time>
      </trkpt>
      <trkpt lat="43.51553" lon="6.36183">
        <ele>285</ele>
        <time>2021-11-24T14:02:17.000Z</time>
      </trkpt>
      <trkpt lat="43.51553" lon="6.36181">
        <ele>285</ele>
        <time>2021-11-24T14:02:18.000Z</time>
      </trkpt>
      <trkpt lat="43.51553" lon="6.3618">
        <ele>285</ele>
        <time>2021-11-24T14:02:19.000Z</time>
      </trkpt>
      <trkpt lat="43.51554" lon="6.36179">
        <ele>285</ele>
        <time>2021-11-24T14:02:20.000Z</time>
      </trkpt>
      <trkpt lat="43.51554" lon="6.36177">
        <ele>285</ele>
        <time>2021-11-24T14:02:21.000Z</time>
      </trkpt>
      <trkpt lat="43.51554" lon="6.36176">
        <ele>285</ele>
        <time>2021-11-24T14:02:22.000Z</time>
      </trkpt>
      <trkpt lat="43.51554" lon="6.36174">
        <ele>285</ele>
        <time>2021-11-24T14:02:23.000Z</time>
      </trkpt>
      <trkpt lat="43.51554" lon="6.36172">
        <ele>284</ele>
        <time>2021-11-24T14:02:24.000Z</time>
      </trkpt>
      <trkpt lat="43.51553" lon="6.36171">
        <ele>284</ele>
        <time>2021-11-24T14:02:25.000Z</time>
      </trkpt>
      <trkpt lat="43.51553" lon="6.36169">
        <ele>284</ele>
        <time>2021-11-24T14:02:26.000Z</time>
      </trkpt>
      <trkpt lat="43.51553" lon="6.36168">
        <ele>284</ele>
        <time>2021-11-24T14:02:27.000Z</time>
      </trkpt>
      <trkpt lat="43.51552" lon="6.36167">
        <ele>284</ele>
        <time>2021-11-24T14:02:28.000Z</time>
      </trkpt>
      <trkpt lat="43.51551" lon="6.36165">
        <ele>284</ele>
        <time>2021-11-24T14:02:29.000Z</time>
      </trkpt>
      <trkpt lat="43.5155" lon="6.36164">
        <ele>284</ele>
        <time>2021-11-24T14:02:30.000Z</time>
      </trkpt>
      <trkpt lat="43.51549" lon="6.36163">
        <ele>284</ele>
        <time>2021-11-24T14:02:31.000Z</time>
      </trkpt>
      <trkpt lat="43.51548" lon="6.36162">
        <ele>284</ele>
        <time>2021-11-24T14:02:32.000Z</time>
      </trkpt>
      <trkpt lat="43.51547" lon="6.36161">
        <ele>284</ele>
        <time>2021-11-24T14:02:33.000Z</time>
      </trkpt>
      <trkpt lat="43.51546" lon="6.3616">
        <ele>284</ele>
        <time>2021-11-24T14:02:34.000Z</time>
      </trkpt>
      <trkpt lat="43.51545" lon="6.36159">
        <ele>284</ele>
        <time>2021-11-24T14:02:35.000Z</time>
      </trkpt>
      <trkpt lat="43.51544" lon="6.36158">
        <ele>284</ele>
        <time>2021-11-24T14:02:36.000Z</time>
      </trkpt>
      <trkpt lat="43.51544" lon="6.36158">
        <ele>284</ele>
        <time>2021-11-24T14:02:37.000Z</time>
      </trkpt>
      <trkpt lat="43.51543" lon="6.36158">
        <ele>284</ele>
        <time>2021-11-24T14:02:38.000Z</time>
      </trkpt>
      <trkpt lat="43.51542" lon="6.36158">
        <ele>284</ele>
        <time>2021-11-24T14:02:39.000Z</time>
      </trkpt>
      <trkpt lat="43.5154" lon="6.36158">
        <ele>284</ele>
        <time>2021-11-24T14:02:40.000Z</time>
      </trkpt>
      <trkpt lat="43.5154" lon="6.36159">
        <ele>284</ele>
        <time>2021-11-24T14:02:41.000Z</time>
      </trkpt>
      <trkpt lat="43.51539" lon="6.36159">
        <ele>284</ele>
        <time>2021-11-24T14:02:42.000Z</time>
      </trkpt>
      <trkpt lat="43.51538" lon="6.3616">
        <ele>284</ele>
        <time>2021-11-24T14:02:43.000Z</time>
      </trkpt>
      <trkpt lat="43.51537" lon="6.36161">
        <ele>284</ele>
        <time>2021-11-24T14:02:44.000Z</time>
      </trkpt>
      <trkpt lat="43.51536" lon="6.36162">
        <ele>284</ele>
        <time>2021-11-24T14:02:45.000Z</time>
      </trkpt>
      <trkpt lat="43.51535" lon="6.36163">
        <ele>284</ele>
        <time>2021-11-24T14:02:46.000Z</time>
      </trkpt>
      <trkpt lat="43.51535" lon="6.36164">
        <ele>285</ele>
        <time>2021-11-24T14:02:47.000Z</time>
      </trkpt>
      <trkpt lat="43.51534" lon="6.36165">
        <ele>285</ele>
        <time>2021-11-24T14:02:48.000Z</time>
      </trkpt>
      <trkpt lat="43.51533" lon="6.36166">
        <ele>285</ele>
        <time>2021-11-24T14:02:49.000Z</time>
      </trkpt>
      <trkpt lat="43.51533" lon="6.36166">
        <ele>285</ele>
        <time>2021-11-24T14:02:50.000Z</time>
      </trkpt>
      <trkpt lat="43.51532" lon="6.36167">
        <ele>285</ele>
        <time>2021-11-24T14:02:51.000Z</time>
      </trkpt>
      <trkpt lat="43.51531" lon="6.36168">
        <ele>285</ele>
        <time>2021-11-24T14:02:52.000Z</time>
      </trkpt>
      <trkpt lat="43.51531" lon="6.36169">
        <ele>285</ele>
        <time>2021-11-24T14:02:53.000Z</time>
      </trkpt>
      <trkpt lat="43.5153" lon="6.3617">
        <ele>285</ele>
        <time>2021-11-24T14:02:54.000Z</time>
      </trkpt>
      <trkpt lat="43.51529" lon="6.3617">
        <ele>285</ele>
        <time>2021-11-24T14:02:55.000Z</time>
      </trkpt>
      <trkpt lat="43.51529" lon="6.36171">
        <ele>285</ele>
        <time>2021-11-24T14:02:56.000Z</time>
      </trkpt>
      <trkpt lat="43.51528" lon="6.36171">
        <ele>285</ele>
        <time>2021-11-24T14:02:57.000Z</time>
      </trkpt>
      <trkpt lat="43.51527" lon="6.36171">
        <ele>285</ele>
        <time>2021-11-24T14:02:58.000Z</time>
      </trkpt>
      <trkpt lat="43.51527" lon="6.36172">
        <ele>285</ele>
        <time>2021-11-24T14:02:59.000Z</time>
      </trkpt>
      <trkpt lat="43.51526" lon="6.36172">
        <ele>285</ele>
        <time>2021-11-24T14:03:00.000Z</time>
      </trkpt>
      <trkpt lat="43.51526" lon="6.36173">
        <ele>285</ele>
        <time>2021-11-24T14:03:01.000Z</time>
      </trkpt>
      <trkpt lat="43.51525" lon="6.36173">
        <ele>285</ele>
        <time>2021-11-24T14:03:02.000Z</time>
      </trkpt>
      <trkpt lat="43.51525" lon="6.36174">
        <ele>285</ele>
        <time>2021-11-24T14:03:03.000Z</time>
      </trkpt>
      <trkpt lat="43.51524" lon="6.36175">
        <ele>285</ele>
        <time>2021-11-24T14:03:04.000Z</time>
      </trkpt>
      <trkpt lat="43.51524" lon="6.36176">
        <ele>285</ele>
        <time>2021-11-24T14:03:05.000Z</time>
      </trkpt>
      <trkpt lat="43.51523" lon="6.36177">
        <ele>285</ele>
        <time>2021-11-24T14:03:06.000Z</time>
      </trkpt>
      <trkpt lat="43.51522" lon="6.36178">
        <ele>285</ele>
        <time>2021-11-24T14:03:07.000Z</time>
      </trkpt>
      <trkpt lat="43.51521" lon="6.36178">
        <ele>285</ele>
        <time>2021-11-24T14:03:08.000Z</time>
      </trkpt>
      <trkpt lat="43.5152" lon="6.36179">
        <ele>285</ele>
        <time>2021-11-24T14:03:09.000Z</time>
      </trkpt>
      <trkpt lat="43.51519" lon="6.36179">
        <ele>285</ele>
        <time>2021-11-24T14:03:10.000Z</time>
      </trkpt>
      <trkpt lat="43.51519" lon="6.36179">
        <ele>285</ele>
        <time>2021-11-24T14:03:11.000Z</time>
      </trkpt>
      <trkpt lat="43.51518" lon="6.3618">
        <ele>285</ele>
        <time>2021-11-24T14:03:12.000Z</time>
      </trkpt>
      <trkpt lat="43.51517" lon="6.36181">
        <ele>285</ele>
        <time>2021-11-24T14:03:13.000Z</time>
      </trkpt>
      <trkpt lat="43.51516" lon="6.36181">
        <ele>285</ele>
        <time>2021-11-24T14:03:14.000Z</time>
      </trkpt>
      <trkpt lat="43.51516" lon="6.36182">
        <ele>285</ele>
        <time>2021-11-24T14:03:15.000Z</time>
      </trkpt>
      <trkpt lat="43.51515" lon="6.36183">
        <ele>285</ele>
        <time>2021-11-24T14:03:16.000Z</time>
      </trkpt>
      <trkpt lat="43.51513" lon="6.36183">
        <ele>284</ele>
        <time>2021-11-24T14:03:17.000Z</time>
      </trkpt>
      <trkpt lat="43.51512" lon="6.36184">
        <ele>284</ele>
        <time>2021-11-24T14:03:18.000Z</time>
      </trkpt>
      <trkpt lat="43.51511" lon="6.36185">
        <ele>284</ele>
        <time>2021-11-24T14:03:19.000Z</time>
      </trkpt>
      <trkpt lat="43.5151" lon="6.36185">
        <ele>284</ele>
        <time>2021-11-24T14:03:20.000Z</time>
      </trkpt>
      <trkpt lat="43.51509" lon="6.36186">
        <ele>284</ele>
        <time>2021-11-24T14:03:21.000Z</time>
      </trkpt>
      <trkpt lat="43.51508" lon="6.36187">
        <ele>284</ele>
        <time>2021-11-24T14:03:22.000Z</time>
      </trkpt>
      <trkpt lat="43.51507" lon="6.36188">
        <ele>284</ele>
        <time>2021-11-24T14:03:23.000Z</time>
      </trkpt>
      <trkpt lat="43.51506" lon="6.36189">
        <ele>284</ele>
        <time>2021-11-24T14:03:24.000Z</time>
      </trkpt>
      <trkpt lat="43.51504" lon="6.36189">
        <ele>283</ele>
        <time>2021-11-24T14:03:25.000Z</time>
      </trkpt>
      <trkpt lat="43.51503" lon="6.3619">
        <ele>283</ele>
        <time>2021-11-24T14:03:26.000Z</time>
      </trkpt>
      <trkpt lat="43.51502" lon="6.3619">
        <ele>283</ele>
        <time>2021-11-24T14:03:27.000Z</time>
      </trkpt>
      <trkpt lat="43.51501" lon="6.36191">
        <ele>283</ele>
        <time>2021-11-24T14:03:28.000Z</time>
      </trkpt>
      <trkpt lat="43.515" lon="6.36192">
        <ele>283</ele>
        <time>2021-11-24T14:03:29.000Z</time>
      </trkpt>
      <trkpt lat="43.51499" lon="6.36192">
        <ele>283</ele>
        <time>2021-11-24T14:03:30.000Z</time>
      </trkpt>
      <trkpt lat="43.51498" lon="6.36193">
        <ele>283</ele>
        <time>2021-11-24T14:03:31.000Z</time>
      </trkpt>
      <trkpt lat="43.51497" lon="6.36193">
        <ele>283</ele>
        <time>2021-11-24T14:03:32.000Z</time>
      </trkpt>
      <trkpt lat="43.51496" lon="6.36194">
        <ele>283</ele>
        <time>2021-11-24T14:03:33.000Z</time>
      </trkpt>
      <trkpt lat="43.51495" lon="6.36195">
        <ele>284</ele>
        <time>2021-11-24T14:03:34.000Z</time>
      </trkpt>
      <trkpt lat="43.51494" lon="6.36195">
        <ele>284</ele>
        <time>2021-11-24T14:03:35.000Z</time>
      </trkpt>
      <trkpt lat="43.51493" lon="6.36196">
        <ele>284</ele>
        <time>2021-11-24T14:03:36.000Z</time>
      </trkpt>
      <trkpt lat="43.51492" lon="6.36196">
        <ele>284</ele>
        <time>2021-11-24T14:03:37.000Z</time>
      </trkpt>
      <trkpt lat="43.51491" lon="6.36197">
        <ele>283</ele>
        <time>2021-11-24T14:03:38.000Z</time>
      </trkpt>
      <trkpt lat="43.5149" lon="6.36197">
        <ele>283</ele>
        <time>2021-11-24T14:03:39.000Z</time>
      </trkpt>
      <trkpt lat="43.51489" lon="6.36198">
        <ele>283</ele>
        <time>2021-11-24T14:03:40.000Z</time>
      </trkpt>
      <trkpt lat="43.51488" lon="6.36198">
        <ele>283</ele>
        <time>2021-11-24T14:03:41.000Z</time>
      </trkpt>
      <trkpt lat="43.51487" lon="6.36199">
        <ele>283</ele>
        <time>2021-11-24T14:03:42.000Z</time>
      </trkpt>
      <trkpt lat="43.51486" lon="6.36199">
        <ele>283</ele>
        <time>2021-11-24T14:03:43.000Z</time>
      </trkpt>
      <trkpt lat="43.51485" lon="6.362">
        <ele>283</ele>
        <time>2021-11-24T14:03:44.000Z</time>
      </trkpt>
      <trkpt lat="43.51486" lon="6.36203">
        <ele>283</ele>
        <time>2021-11-24T14:03:45.000Z</time>
      </trkpt>
      <trkpt lat="43.51486" lon="6.36205">
        <ele>283</ele>
        <time>2021-11-24T14:03:46.000Z</time>
      </trkpt>
      <trkpt lat="43.51486" lon="6.36206">
        <ele>283</ele>
        <time>2021-11-24T14:03:47.000Z</time>
      </trkpt>
      <trkpt lat="43.51485" lon="6.36207">
        <ele>284</ele>
        <time>2021-11-24T14:03:48.000Z</time>
      </trkpt>
      <trkpt lat="43.51485" lon="6.36207">
        <ele>284</ele>
        <time>2021-11-24T14:03:49.000Z</time>
      </trkpt>
      <trkpt lat="43.51484" lon="6.36207">
        <ele>284</ele>
        <time>2021-11-24T14:03:50.000Z</time>
      </trkpt>
      <trkpt lat="43.51483" lon="6.36206">
        <ele>284</ele>
        <time>2021-11-24T14:03:51.000Z</time>
      </trkpt>
      <trkpt lat="43.51483" lon="6.36206">
        <ele>284</ele>
        <time>2021-11-24T14:03:52.000Z</time>
      </trkpt>
      <trkpt lat="43.51482" lon="6.36206">
        <ele>284</ele>
        <time>2021-11-24T14:03:53.000Z</time>
      </trkpt>
      <trkpt lat="43.51482" lon="6.36206">
        <ele>284</ele>
        <time>2021-11-24T14:03:54.000Z</time>
      </trkpt>
      <trkpt lat="43.51482" lon="6.36206">
        <ele>284</ele>
        <time>2021-11-24T14:03:55.000Z</time>
      </trkpt>
      <trkpt lat="43.51481" lon="6.36206">
        <ele>284</ele>
        <time>2021-11-24T14:03:56.000Z</time>
      </trkpt>
      <trkpt lat="43.51481" lon="6.36206">
        <ele>284</ele>
        <time>2021-11-24T14:03:57.000Z</time>
      </trkpt>
      <trkpt lat="43.5148" lon="6.36205">
        <ele>284</ele>
        <time>2021-11-24T14:03:58.000Z</time>
      </trkpt>
      <trkpt lat="43.51479" lon="6.36205">
        <ele>284</ele>
        <time>2021-11-24T14:03:59.000Z</time>
      </trkpt>
      <trkpt lat="43.51478" lon="6.36205">
        <ele>284</ele>
        <time>2021-11-24T14:04:00.000Z</time>
      </trkpt>
      <trkpt lat="43.51477" lon="6.36205">
        <ele>284</ele>
        <time>2021-11-24T14:04:01.000Z</time>
      </trkpt>
      <trkpt lat="43.51476" lon="6.36205">
        <ele>284</ele>
        <time>2021-11-24T14:04:02.000Z</time>
      </trkpt>
      <trkpt lat="43.51475" lon="6.36205">
        <ele>284</ele>
        <time>2021-11-24T14:04:03.000Z</time>
      </trkpt>
      <trkpt lat="43.51474" lon="6.36205">
        <ele>285</ele>
        <time>2021-11-24T14:04:04.000Z</time>
      </trkpt>
      <trkpt lat="43.51474" lon="6.36205">
        <ele>285</ele>
        <time>2021-11-24T14:04:05.000Z</time>
      </trkpt>
      <trkpt lat="43.51473" lon="6.36204">
        <ele>285</ele>
        <time>2021-11-24T14:04:06.000Z</time>
      </trkpt>
      <trkpt lat="43.51473" lon="6.36204">
        <ele>285</ele>
        <time>2021-11-24T14:04:07.000Z</time>
      </trkpt>
      <trkpt lat="43.51472" lon="6.36204">
        <ele>285</ele>
        <time>2021-11-24T14:04:08.000Z</time>
      </trkpt>
      <trkpt lat="43.51471" lon="6.36204">
        <ele>285</ele>
        <time>2021-11-24T14:04:09.000Z</time>
      </trkpt>
      <trkpt lat="43.51471" lon="6.36204">
        <ele>285</ele>
        <time>2021-11-24T14:04:10.000Z</time>
      </trkpt>
      <trkpt lat="43.5147" lon="6.36203">
        <ele>285</ele>
        <time>2021-11-24T14:04:11.000Z</time>
      </trkpt>
      <trkpt lat="43.5147" lon="6.36203">
        <ele>285</ele>
        <time>2021-11-24T14:04:12.000Z</time>
      </trkpt>
      <trkpt lat="43.51469" lon="6.36203">
        <ele>285</ele>
        <time>2021-11-24T14:04:13.000Z</time>
      </trkpt>
      <trkpt lat="43.51469" lon="6.36203">
        <ele>285</ele>
        <time>2021-11-24T14:04:14.000Z</time>
      </trkpt>
      <trkpt lat="43.51469" lon="6.36203">
        <ele>285</ele>
        <time>2021-11-24T14:04:15.000Z</time>
      </trkpt>
      <trkpt lat="43.51469" lon="6.36203">
        <ele>285</ele>
        <time>2021-11-24T14:04:16.000Z</time>
      </trkpt>
      <trkpt lat="43.51468" lon="6.36203">
        <ele>285</ele>
        <time>2021-11-24T14:04:17.000Z</time>
      </trkpt>
      <trkpt lat="43.51468" lon="6.36203">
        <ele>285</ele>
        <time>2021-11-24T14:04:18.000Z</time>
      </trkpt>
      <trkpt lat="43.51468" lon="6.36203">
        <ele>285</ele>
        <time>2021-11-24T14:04:19.000Z</time>
      </trkpt>
      <trkpt lat="43.51468" lon="6.36203">
        <ele>285</ele>
        <time>2021-11-24T14:04:20.000Z</time>
      </trkpt>
      <trkpt lat="43.51468" lon="6.36203">
        <ele>285</ele>
        <time>2021-11-24T14:04:21.000Z</time>
      </trkpt>
      <trkpt lat="43.51468" lon="6.36203">
        <ele>285</ele>
        <time>2021-11-24T14:04:22.000Z</time>
      </trkpt>
      <trkpt lat="43.51467" lon="6.36203">
        <ele>285</ele>
        <time>2021-11-24T14:04:23.000Z</time>
      </trkpt>
      <trkpt lat="43.51467" lon="6.36203">
        <ele>285</ele>
        <time>2021-11-24T14:04:24.000Z</time>
      </trkpt>
      <trkpt lat="43.51467" lon="6.36203">
        <ele>285</ele>
        <time>2021-11-24T14:04:25.000Z</time>
      </trkpt>
      <trkpt lat="43.51467" lon="6.36203">
        <ele>285</ele>
        <time>2021-11-24T14:04:26.000Z</time>
      </trkpt>
      <trkpt lat="43.51467" lon="6.36202">
        <ele>285</ele>
        <time>2021-11-24T14:04:27.000Z</time>
      </trkpt>
      <trkpt lat="43.51467" lon="6.36202">
        <ele>285</ele>
        <time>2021-11-24T14:04:28.000Z</time>
      </trkpt>
      <trkpt lat="43.51467" lon="6.36202">
        <ele>285</ele>
        <time>2021-11-24T14:04:29.000Z</time>
      </trkpt>
      <trkpt lat="43.51467" lon="6.36202">
        <ele>285</ele>
        <time>2021-11-24T14:04:30.000Z</time>
      </trkpt>
      <trkpt lat="43.51467" lon="6.36202">
        <ele>285</ele>
        <time>2021-11-24T14:04:31.000Z</time>
      </trkpt>
      <trkpt lat="43.51467" lon="6.36202">
        <ele>285</ele>
        <time>2021-11-24T14:04:32.000Z</time>
      </trkpt>
      <trkpt lat="43.51467" lon="6.36202">
        <ele>285</ele>
        <time>2021-11-24T14:04:33.000Z</time>
      </trkpt>
      <trkpt lat="43.51467" lon="6.36202">
        <ele>285</ele>
        <time>2021-11-24T14:04:34.000Z</time>
      </trkpt>
      <trkpt lat="43.51467" lon="6.36202">
        <ele>285</ele>
        <time>2021-11-24T14:04:35.000Z</time>
      </trkpt>
      <trkpt lat="43.51467" lon="6.36202">
        <ele>285</ele>
        <time>2021-11-24T14:04:36.000Z</time>
      </trkpt>
      <trkpt lat="43.51467" lon="6.36202">
        <ele>285</ele>
        <time>2021-11-24T14:04:37.000Z</time>
      </trkpt>
      <trkpt lat="43.51467" lon="6.36202">
        <ele>285</ele>
        <time>2021-11-24T14:04:38.000Z</time>
      </trkpt>
      <trkpt lat="43.51467" lon="6.36201">
        <ele>285</ele>
        <time>2021-11-24T14:04:39.000Z</time>
      </trkpt>
      <trkpt lat="43.51467" lon="6.36201">
        <ele>285</ele>
        <time>2021-11-24T14:04:40.000Z</time>
      </trkpt>
      <trkpt lat="43.51467" lon="6.36201">
        <ele>286</ele>
        <time>2021-11-24T14:04:41.000Z</time>
      </trkpt>
      <trkpt lat="43.51467" lon="6.36201">
        <ele>286</ele>
        <time>2021-11-24T14:04:42.000Z</time>
      </trkpt>
      <trkpt lat="43.51467" lon="6.36201">
        <ele>286</ele>
        <time>2021-11-24T14:04:43.000Z</time>
      </trkpt>
      <trkpt lat="43.51468" lon="6.36201">
        <ele>286</ele>
        <time>2021-11-24T14:04:44.000Z</time>
      </trkpt>
      <trkpt lat="43.51468" lon="6.36201">
        <ele>286</ele>
        <time>2021-11-24T14:04:45.000Z</time>
      </trkpt>
      <trkpt lat="43.51468" lon="6.362">
        <ele>286</ele>
        <time>2021-11-24T14:04:46.000Z</time>
      </trkpt>
      <trkpt lat="43.51468" lon="6.362">
        <ele>286</ele>
        <time>2021-11-24T14:04:47.000Z</time>
      </trkpt>
      <trkpt lat="43.51468" lon="6.362">
        <ele>286</ele>
        <time>2021-11-24T14:04:48.000Z</time>
      </trkpt>
      <trkpt lat="43.51468" lon="6.36199">
        <ele>286</ele>
        <time>2021-11-24T14:04:49.000Z</time>
      </trkpt>
      <trkpt lat="43.51468" lon="6.36199">
        <ele>286</ele>
        <time>2021-11-24T14:04:50.000Z</time>
      </trkpt>
      <trkpt lat="43.51469" lon="6.36199">
        <ele>286</ele>
        <time>2021-11-24T14:04:51.000Z</time>
      </trkpt>
      <trkpt lat="43.51469" lon="6.36198">
        <ele>286</ele>
        <time>2021-11-24T14:04:52.000Z</time>
      </trkpt>
      <trkpt lat="43.51469" lon="6.36197">
        <ele>286</ele>
        <time>2021-11-24T14:04:53.000Z</time>
      </trkpt>
      <trkpt lat="43.51469" lon="6.36197">
        <ele>286</ele>
        <time>2021-11-24T14:04:54.000Z</time>
      </trkpt>
      <trkpt lat="43.51469" lon="6.36196">
        <ele>286</ele>
        <time>2021-11-24T14:04:55.000Z</time>
      </trkpt>
      <trkpt lat="43.51469" lon="6.36195">
        <ele>286</ele>
        <time>2021-11-24T14:04:56.000Z</time>
      </trkpt>
      <trkpt lat="43.51468" lon="6.36194">
        <ele>286</ele>
        <time>2021-11-24T14:04:57.000Z</time>
      </trkpt>
      <trkpt lat="43.51468" lon="6.36194">
        <ele>286</ele>
        <time>2021-11-24T14:04:58.000Z</time>
      </trkpt>
      <trkpt lat="43.51468" lon="6.36193">
        <ele>286</ele>
        <time>2021-11-24T14:04:59.000Z</time>
      </trkpt>
      <trkpt lat="43.51468" lon="6.36193">
        <ele>286</ele>
        <time>2021-11-24T14:05:00.000Z</time>
      </trkpt>
      <trkpt lat="43.51468" lon="6.36192">
        <ele>286</ele>
        <time>2021-11-24T14:05:01.000Z</time>
      </trkpt>
      <trkpt lat="43.51468" lon="6.36192">
        <ele>286</ele>
        <time>2021-11-24T14:05:02.000Z</time>
      </trkpt>
      <trkpt lat="43.51468" lon="6.36192">
        <ele>286</ele>
        <time>2021-11-24T14:05:03.000Z</time>
      </trkpt>
      <trkpt lat="43.51468" lon="6.36192">
        <ele>286</ele>
        <time>2021-11-24T14:05:04.000Z</time>
      </trkpt>
      <trkpt lat="43.51468" lon="6.36192">
        <ele>286</ele>
        <time>2021-11-24T14:05:05.000Z</time>
      </trkpt>
      <trkpt lat="43.51468" lon="6.36192">
        <ele>286</ele>
        <time>2021-11-24T14:05:06.000Z</time>
      </trkpt>
      <trkpt lat="43.51468" lon="6.36192">
        <ele>286</ele>
        <time>2021-11-24T14:05:07.000Z</time>
      </trkpt>
      <trkpt lat="43.51468" lon="6.36192">
        <ele>286</ele>
        <time>2021-11-24T14:05:08.000Z</time>
      </trkpt>
      <trkpt lat="43.51468" lon="6.36192">
        <ele>286</ele>
        <time>2021-11-24T14:05:09.000Z</time>
      </trkpt>
      <trkpt lat="43.51468" lon="6.36192">
        <ele>286</ele>
        <time>2021-11-24T14:05:10.000Z</time>
      </trkpt>
      <trkpt lat="43.51468" lon="6.36192">
        <ele>286</ele>
        <time>2021-11-24T14:05:11.000Z</time>
      </trkpt>
      <trkpt lat="43.51468" lon="6.36192">
        <ele>286</ele>
        <time>2021-11-24T14:05:12.000Z</time>
      </trkpt>
      <trkpt lat="43.51468" lon="6.36192">
        <ele>286</ele>
        <time>2021-11-24T14:05:13.000Z</time>
      </trkpt>
      <trkpt lat="43.51468" lon="6.36192">
        <ele>286</ele>
        <time>2021-11-24T14:05:14.000Z</time>
      </trkpt>
      <trkpt lat="43.51468" lon="6.36192">
        <ele>286</ele>
        <time>2021-11-24T14:05:15.000Z</time>
      </trkpt>
      <trkpt lat="43.51468" lon="6.36192">
        <ele>286</ele>
        <time>2021-11-24T14:05:16.000Z</time>
      </trkpt>
      <trkpt lat="43.51468" lon="6.36192">
        <ele>286</ele>
        <time>2021-11-24T14:05:17.000Z</time>
      </trkpt>
      <trkpt lat="43.51468" lon="6.36192">
        <ele>286</ele>
        <time>2021-11-24T14:05:18.000Z</time>
      </trkpt>
      <trkpt lat="43.51468" lon="6.36192">
        <ele>286</ele>
        <time>2021-11-24T14:05:19.000Z</time>
      </trkpt>
      <trkpt lat="43.51468" lon="6.36192">
        <ele>286</ele>
        <time>2021-11-24T14:05:20.000Z</time>
      </trkpt>
      <trkpt lat="43.51468" lon="6.36192">
        <ele>286</ele>
        <time>2021-11-24T14:05:21.000Z</time>
      </trkpt>
      <trkpt lat="43.51468" lon="6.36192">
        <ele>286</ele>
        <time>2021-11-24T14:05:22.000Z</time>
      </trkpt>
      <trkpt lat="43.51468" lon="6.36192">
        <ele>286</ele>
        <time>2021-11-24T14:05:23.000Z</time>
      </trkpt>
      <trkpt lat="43.51468" lon="6.36192">
        <ele>286</ele>
        <time>2021-11-24T14:05:24.000Z</time>
      </trkpt>
      <trkpt lat="43.51468" lon="6.36192">
        <ele>286</ele>
        <time>2021-11-24T14:05:25.000Z</time>
      </trkpt>
      <trkpt lat="43.51468" lon="6.36192">
        <ele>287</ele>
        <time>2021-11-24T14:05:26.000Z</time>
      </trkpt>
      <trkpt lat="43.51468" lon="6.36192">
        <ele>287</ele>
        <time>2021-11-24T14:05:27.000Z</time>
      </trkpt>
      <trkpt lat="43.51468" lon="6.36192">
        <ele>287</ele>
        <time>2021-11-24T14:05:28.000Z</time>
      </trkpt>
      <trkpt lat="43.51468" lon="6.36192">
        <ele>287</ele>
        <time>2021-11-24T14:05:29.000Z</time>
      </trkpt>
      <trkpt lat="43.51468" lon="6.36192">
        <ele>287</ele>
        <time>2021-11-24T14:05:30.000Z</time>
      </trkpt>
      <trkpt lat="43.51468" lon="6.36192">
        <ele>287</ele>
        <time>2021-11-24T14:05:31.000Z</time>
      </trkpt>
      <trkpt lat="43.51468" lon="6.36192">
        <ele>287</ele>
        <time>2021-11-24T14:05:32.000Z</time>
      </trkpt>
      <trkpt lat="43.51468" lon="6.36192">
        <ele>287</ele>
        <time>2021-11-24T14:05:33.000Z</time>
      </trkpt>
      <trkpt lat="43.51468" lon="6.36192">
        <ele>287</ele>
        <time>2021-11-24T14:05:34.000Z</time>
      </trkpt>
      <trkpt lat="43.51468" lon="6.36192">
        <ele>287</ele>
        <time>2021-11-24T14:05:35.000Z</time>
      </trkpt>
      <trkpt lat="43.51468" lon="6.36192">
        <ele>287</ele>
        <time>2021-11-24T14:05:36.000Z</time>
      </trkpt>
      <trkpt lat="43.51468" lon="6.36192">
        <ele>287</ele>
        <time>2021-11-24T14:05:37.000Z</time>
      </trkpt>
      <trkpt lat="43.51468" lon="6.36192">
        <ele>287</ele>
        <time>2021-11-24T14:05:38.000Z</time>
      </trkpt>
      <trkpt lat="43.51468" lon="6.36192">
        <ele>287</ele>
        <time>2021-11-24T14:05:39.000Z</time>
      </trkpt>
      <trkpt lat="43.51468" lon="6.36192">
        <ele>287</ele>
        <time>2021-11-24T14:05:40.000Z</time>
      </trkpt>
      <trkpt lat="43.51468" lon="6.36192">
        <ele>287</ele>
        <time>2021-11-24T14:05:41.000Z</time>
      </trkpt>
      <trkpt lat="43.51468" lon="6.36192">
        <ele>287</ele>
        <time>2021-11-24T14:05:42.000Z</time>
      </trkpt>
      <trkpt lat="43.51468" lon="6.36192">
        <ele>287</ele>
        <time>2021-11-24T14:05:43.000Z</time>
      </trkpt>
      <trkpt lat="43.51468" lon="6.36192">
        <ele>287</ele>
        <time>2021-11-24T14:05:44.000Z</time>
      </trkpt>
      <trkpt lat="43.51468" lon="6.36192">
        <ele>287</ele>
        <time>2021-11-24T14:05:45.000Z</time>
      </trkpt>
      <trkpt lat="43.51468" lon="6.36192">
        <ele>287</ele>
        <time>2021-11-24T14:05:46.000Z</time>
      </trkpt>
      <trkpt lat="43.51468" lon="6.36192">
        <ele>287</ele>
        <time>2021-11-24T14:05:47.000Z</time>
      </trkpt>
      <trkpt lat="43.51468" lon="6.36192">
        <ele>287</ele>
        <time>2021-11-24T14:05:48.000Z</time>
      </trkpt>
      <trkpt lat="43.51468" lon="6.36192">
        <ele>287</ele>
        <time>2021-11-24T14:05:49.000Z</time>
      </trkpt>
      <trkpt lat="43.51468" lon="6.36192">
        <ele>287</ele>
        <time>2021-11-24T14:05:50.000Z</time>
      </trkpt>
      <trkpt lat="43.51468" lon="6.36192">
        <ele>287</ele>
        <time>2021-11-24T14:05:51.000Z</time>
      </trkpt>
      <trkpt lat="43.51468" lon="6.36192">
        <ele>287</ele>
        <time>2021-11-24T14:05:52.000Z</time>
      </trkpt>
      <trkpt lat="43.51468" lon="6.36192">
        <ele>287</ele>
        <time>2021-11-24T14:05:53.000Z</time>
      </trkpt>
      <trkpt lat="43.51468" lon="6.36192">
        <ele>287</ele>
        <time>2021-11-24T14:05:54.000Z</time>
      </trkpt>
      <trkpt lat="43.51468" lon="6.36192">
        <ele>287</ele>
        <time>2021-11-24T14:05:55.000Z</time>
      </trkpt>
      <trkpt lat="43.51468" lon="6.36192">
        <ele>287</ele>
        <time>2021-11-24T14:05:56.000Z</time>
      </trkpt>
      <trkpt lat="43.51468" lon="6.36192">
        <ele>287</ele>
        <time>2021-11-24T14:05:57.000Z</time>
      </trkpt>
      <trkpt lat="43.51468" lon="6.36192">
        <ele>287</ele>
        <time>2021-11-24T14:05:58.000Z</time>
      </trkpt>
      <trkpt lat="43.51468" lon="6.36192">
        <ele>287</ele>
        <time>2021-11-24T14:05:59.000Z</time>
      </trkpt>
      <trkpt lat="43.51468" lon="6.36192">
        <ele>287</ele>
        <time>2021-11-24T14:06:00.000Z</time>
      </trkpt>
      <trkpt lat="43.51468" lon="6.36192">
        <ele>287</ele>
        <time>2021-11-24T14:06:01.000Z</time>
      </trkpt>
      <trkpt lat="43.51468" lon="6.36192">
        <ele>287</ele>
        <time>2021-11-24T14:06:02.000Z</time>
      </trkpt>
      <trkpt lat="43.51468" lon="6.36192">
        <ele>287</ele>
        <time>2021-11-24T14:06:03.000Z</time>
      </trkpt>
      <trkpt lat="43.51468" lon="6.36192">
        <ele>287</ele>
        <time>2021-11-24T14:06:04.000Z</time>
      </trkpt>
      <trkpt lat="43.51468" lon="6.36192">
        <ele>287</ele>
        <time>2021-11-24T14:06:05.000Z</time>
      </trkpt>
      <trkpt lat="43.51468" lon="6.3619">
        <ele>288</ele>
        <time>2021-11-24T14:06:06.000Z</time>
      </trkpt>
      <trkpt lat="43.51468" lon="6.3619">
        <ele>288</ele>
        <time>2021-11-24T14:06:07.000Z</time>
      </trkpt>
      <trkpt lat="43.51468" lon="6.3619">
        <ele>288</ele>
        <time>2021-11-24T14:06:08.000Z</time>
      </trkpt>
      <trkpt lat="43.51468" lon="6.3619">
        <ele>288</ele>
        <time>2021-11-24T14:06:09.000Z</time>
      </trkpt>
      <trkpt lat="43.51468" lon="6.3619">
        <ele>288</ele>
        <time>2021-11-24T14:06:10.000Z</time>
      </trkpt>
      <trkpt lat="43.51469" lon="6.3619">
        <ele>288</ele>
        <time>2021-11-24T14:06:11.000Z</time>
      </trkpt>
      <trkpt lat="43.5147" lon="6.3619">
        <ele>288</ele>
        <time>2021-11-24T14:06:12.000Z</time>
      </trkpt>
      <trkpt lat="43.5147" lon="6.3619">
        <ele>288</ele>
        <time>2021-11-24T14:06:13.000Z</time>
      </trkpt>
      <trkpt lat="43.5147" lon="6.3619">
        <ele>288</ele>
        <time>2021-11-24T14:06:14.000Z</time>
      </trkpt>
      <trkpt lat="43.5147" lon="6.3619">
        <ele>288</ele>
        <time>2021-11-24T14:06:15.000Z</time>
      </trkpt>
      <trkpt lat="43.5147" lon="6.3619">
        <ele>288</ele>
        <time>2021-11-24T14:06:16.000Z</time>
      </trkpt>
      <trkpt lat="43.51471" lon="6.36189">
        <ele>288</ele>
        <time>2021-11-24T14:06:17.000Z</time>
      </trkpt>
      <trkpt lat="43.51471" lon="6.36189">
        <ele>289</ele>
        <time>2021-11-24T14:06:18.000Z</time>
      </trkpt>
      <trkpt lat="43.51471" lon="6.36189">
        <ele>289</ele>
        <time>2021-11-24T14:06:19.000Z</time>
      </trkpt>
      <trkpt lat="43.51472" lon="6.36189">
        <ele>289</ele>
        <time>2021-11-24T14:06:20.000Z</time>
      </trkpt>
      <trkpt lat="43.51473" lon="6.36189">
        <ele>289</ele>
        <time>2021-11-24T14:06:21.000Z</time>
      </trkpt>
      <trkpt lat="43.51473" lon="6.36188">
        <ele>289</ele>
        <time>2021-11-24T14:06:22.000Z</time>
      </trkpt>
      <trkpt lat="43.51474" lon="6.36188">
        <ele>289</ele>
        <time>2021-11-24T14:06:23.000Z</time>
      </trkpt>
      <trkpt lat="43.51475" lon="6.36188">
        <ele>289</ele>
        <time>2021-11-24T14:06:24.000Z</time>
      </trkpt>
      <trkpt lat="43.51475" lon="6.36188">
        <ele>289</ele>
        <time>2021-11-24T14:06:25.000Z</time>
      </trkpt>
      <trkpt lat="43.51476" lon="6.36187">
        <ele>290</ele>
        <time>2021-11-24T14:06:26.000Z</time>
      </trkpt>
      <trkpt lat="43.51477" lon="6.36186">
        <ele>290</ele>
        <time>2021-11-24T14:06:27.000Z</time>
      </trkpt>
      <trkpt lat="43.51478" lon="6.36186">
        <ele>291</ele>
        <time>2021-11-24T14:06:28.000Z</time>
      </trkpt>
      <trkpt lat="43.51479" lon="6.36186">
        <ele>291</ele>
        <time>2021-11-24T14:06:29.000Z</time>
      </trkpt>
      <trkpt lat="43.51479" lon="6.36185">
        <ele>291</ele>
        <time>2021-11-24T14:06:30.000Z</time>
      </trkpt>
      <trkpt lat="43.5148" lon="6.36185">
        <ele>291</ele>
        <time>2021-11-24T14:06:31.000Z</time>
      </trkpt>
      <trkpt lat="43.5148" lon="6.36184">
        <ele>291</ele>
        <time>2021-11-24T14:06:32.000Z</time>
      </trkpt>
      <trkpt lat="43.51481" lon="6.36184">
        <ele>291</ele>
        <time>2021-11-24T14:06:33.000Z</time>
      </trkpt>
      <trkpt lat="43.51481" lon="6.36183">
        <ele>291</ele>
        <time>2021-11-24T14:06:34.000Z</time>
      </trkpt>
      <trkpt lat="43.51482" lon="6.36183">
        <ele>291</ele>
        <time>2021-11-24T14:06:35.000Z</time>
      </trkpt>
      <trkpt lat="43.51483" lon="6.36182">
        <ele>291</ele>
        <time>2021-11-24T14:06:36.000Z</time>
      </trkpt>
      <trkpt lat="43.51484" lon="6.36181">
        <ele>291</ele>
        <time>2021-11-24T14:06:37.000Z</time>
      </trkpt>
      <trkpt lat="43.51484" lon="6.3618">
        <ele>291</ele>
        <time>2021-11-24T14:06:38.000Z</time>
      </trkpt>
      <trkpt lat="43.51485" lon="6.36179">
        <ele>292</ele>
        <time>2021-11-24T14:06:39.000Z</time>
      </trkpt>
      <trkpt lat="43.51486" lon="6.36179">
        <ele>292</ele>
        <time>2021-11-24T14:06:40.000Z</time>
      </trkpt>
      <trkpt lat="43.51486" lon="6.36179">
        <ele>292</ele>
        <time>2021-11-24T14:06:41.000Z</time>
      </trkpt>
      <trkpt lat="43.51486" lon="6.36178">
        <ele>292</ele>
        <time>2021-11-24T14:06:42.000Z</time>
      </trkpt>
      <trkpt lat="43.51487" lon="6.36178">
        <ele>292</ele>
        <time>2021-11-24T14:06:43.000Z</time>
      </trkpt>
      <trkpt lat="43.51487" lon="6.36178">
        <ele>292</ele>
        <time>2021-11-24T14:06:44.000Z</time>
      </trkpt>
      <trkpt lat="43.51487" lon="6.36177">
        <ele>292</ele>
        <time>2021-11-24T14:06:45.000Z</time>
      </trkpt>
      <trkpt lat="43.51488" lon="6.36177">
        <ele>292</ele>
        <time>2021-11-24T14:06:46.000Z</time>
      </trkpt>
      <trkpt lat="43.51489" lon="6.36176">
        <ele>292</ele>
        <time>2021-11-24T14:06:47.000Z</time>
      </trkpt>
      <trkpt lat="43.51489" lon="6.36175">
        <ele>292</ele>
        <time>2021-11-24T14:06:48.000Z</time>
      </trkpt>
      <trkpt lat="43.5149" lon="6.36175">
        <ele>292</ele>
        <time>2021-11-24T14:06:49.000Z</time>
      </trkpt>
      <trkpt lat="43.5149" lon="6.36175">
        <ele>292</ele>
        <time>2021-11-24T14:06:50.000Z</time>
      </trkpt>
      <trkpt lat="43.5149" lon="6.36174">
        <ele>293</ele>
        <time>2021-11-24T14:06:51.000Z</time>
      </trkpt>
      <trkpt lat="43.5149" lon="6.36174">
        <ele>293</ele>
        <time>2021-11-24T14:06:52.000Z</time>
      </trkpt>
      <trkpt lat="43.5149" lon="6.36174">
        <ele>293</ele>
        <time>2021-11-24T14:06:53.000Z</time>
      </trkpt>
      <trkpt lat="43.51491" lon="6.36174">
        <ele>293</ele>
        <time>2021-11-24T14:06:54.000Z</time>
      </trkpt>
      <trkpt lat="43.51491" lon="6.36174">
        <ele>293</ele>
        <time>2021-11-24T14:06:55.000Z</time>
      </trkpt>
      <trkpt lat="43.51491" lon="6.36174">
        <ele>293</ele>
        <time>2021-11-24T14:06:56.000Z</time>
      </trkpt>
      <trkpt lat="43.51491" lon="6.36174">
        <ele>293</ele>
        <time>2021-11-24T14:06:57.000Z</time>
      </trkpt>
      <trkpt lat="43.51491" lon="6.36174">
        <ele>293</ele>
        <time>2021-11-24T14:06:58.000Z</time>
      </trkpt>
      <trkpt lat="43.51491" lon="6.36173">
        <ele>293</ele>
        <time>2021-11-24T14:06:59.000Z</time>
      </trkpt>
      <trkpt lat="43.51491" lon="6.36173">
        <ele>293</ele>
        <time>2021-11-24T14:07:00.000Z</time>
      </trkpt>
      <trkpt lat="43.51491" lon="6.36173">
        <ele>293</ele>
        <time>2021-11-24T14:07:01.000Z</time>
      </trkpt>
      <trkpt lat="43.51491" lon="6.36173">
        <ele>293</ele>
        <time>2021-11-24T14:07:02.000Z</time>
      </trkpt>
      <trkpt lat="43.51491" lon="6.36173">
        <ele>293</ele>
        <time>2021-11-24T14:07:03.000Z</time>
      </trkpt>
      <trkpt lat="43.51491" lon="6.36173">
        <ele>293</ele>
        <time>2021-11-24T14:07:04.000Z</time>
      </trkpt>
      <trkpt lat="43.51491" lon="6.36173">
        <ele>293</ele>
        <time>2021-11-24T14:07:05.000Z</time>
      </trkpt>
      <trkpt lat="43.51492" lon="6.36173">
        <ele>293</ele>
        <time>2021-11-24T14:07:06.000Z</time>
      </trkpt>
      <trkpt lat="43.51492" lon="6.36173">
        <ele>293</ele>
        <time>2021-11-24T14:07:07.000Z</time>
      </trkpt>
      <trkpt lat="43.51492" lon="6.36173">
        <ele>293</ele>
        <time>2021-11-24T14:07:08.000Z</time>
      </trkpt>
      <trkpt lat="43.51492" lon="6.36173">
        <ele>293</ele>
        <time>2021-11-24T14:07:09.000Z</time>
      </trkpt>
      <trkpt lat="43.51492" lon="6.36173">
        <ele>293</ele>
        <time>2021-11-24T14:07:10.000Z</time>
      </trkpt>
      <trkpt lat="43.51492" lon="6.36173">
        <ele>293</ele>
        <time>2021-11-24T14:07:11.000Z</time>
      </trkpt>
      <trkpt lat="43.51492" lon="6.36173">
        <ele>293</ele>
        <time>2021-11-24T14:07:12.000Z</time>
      </trkpt>
      <trkpt lat="43.51492" lon="6.36173">
        <ele>293</ele>
        <time>2021-11-24T14:07:13.000Z</time>
      </trkpt>
      <trkpt lat="43.51492" lon="6.36172">
        <ele>293</ele>
        <time>2021-11-24T14:07:14.000Z</time>
      </trkpt>
      <trkpt lat="43.51492" lon="6.36172">
        <ele>293</ele>
        <time>2021-11-24T14:07:15.000Z</time>
      </trkpt>
      <trkpt lat="43.51492" lon="6.36172">
        <ele>293</ele>
        <time>2021-11-24T14:07:16.000Z</time>
      </trkpt>
      <trkpt lat="43.51492" lon="6.36172">
        <ele>293</ele>
        <time>2021-11-24T14:07:17.000Z</time>
      </trkpt>
      <trkpt lat="43.51492" lon="6.36172">
        <ele>293</ele>
        <time>2021-11-24T14:07:18.000Z</time>
      </trkpt>
      <trkpt lat="43.51492" lon="6.36171">
        <ele>293</ele>
        <time>2021-11-24T14:07:19.000Z</time>
      </trkpt>
      <trkpt lat="43.51491" lon="6.36171">
        <ele>293</ele>
        <time>2021-11-24T14:07:20.000Z</time>
      </trkpt>
      <trkpt lat="43.51491" lon="6.3617">
        <ele>293</ele>
        <time>2021-11-24T14:07:21.000Z</time>
      </trkpt>
      <trkpt lat="43.51491" lon="6.36169">
        <ele>293</ele>
        <time>2021-11-24T14:07:22.000Z</time>
      </trkpt>
      <trkpt lat="43.51491" lon="6.36169">
        <ele>293</ele>
        <time>2021-11-24T14:07:23.000Z</time>
      </trkpt>
      <trkpt lat="43.5149" lon="6.36168">
        <ele>293</ele>
        <time>2021-11-24T14:07:24.000Z</time>
      </trkpt>
      <trkpt lat="43.5149" lon="6.36168">
        <ele>293</ele>
        <time>2021-11-24T14:07:25.000Z</time>
      </trkpt>
      <trkpt lat="43.51489" lon="6.36167">
        <ele>293</ele>
        <time>2021-11-24T14:07:26.000Z</time>
      </trkpt>
      <trkpt lat="43.51488" lon="6.36166">
        <ele>293</ele>
        <time>2021-11-24T14:07:27.000Z</time>
      </trkpt>
      <trkpt lat="43.51488" lon="6.36165">
        <ele>293</ele>
        <time>2021-11-24T14:07:28.000Z</time>
      </trkpt>
      <trkpt lat="43.51487" lon="6.36164">
        <ele>293</ele>
        <time>2021-11-24T14:07:29.000Z</time>
      </trkpt>
      <trkpt lat="43.51487" lon="6.36164">
        <ele>293</ele>
        <time>2021-11-24T14:07:30.000Z</time>
      </trkpt>
      <trkpt lat="43.51487" lon="6.36163">
        <ele>293</ele>
        <time>2021-11-24T14:07:31.000Z</time>
      </trkpt>
      <trkpt lat="43.51487" lon="6.36163">
        <ele>293</ele>
        <time>2021-11-24T14:07:32.000Z</time>
      </trkpt>
      <trkpt lat="43.51486" lon="6.36162">
        <ele>293</ele>
        <time>2021-11-24T14:07:33.000Z</time>
      </trkpt>
      <trkpt lat="43.51486" lon="6.36161">
        <ele>293</ele>
        <time>2021-11-24T14:07:34.000Z</time>
      </trkpt>
      <trkpt lat="43.51486" lon="6.36161">
        <ele>294</ele>
        <time>2021-11-24T14:07:35.000Z</time>
      </trkpt>
      <trkpt lat="43.51485" lon="6.3616">
        <ele>294</ele>
        <time>2021-11-24T14:07:36.000Z</time>
      </trkpt>
      <trkpt lat="43.51484" lon="6.36159">
        <ele>294</ele>
        <time>2021-11-24T14:07:37.000Z</time>
      </trkpt>
      <trkpt lat="43.51484" lon="6.36158">
        <ele>294</ele>
        <time>2021-11-24T14:07:38.000Z</time>
      </trkpt>
      <trkpt lat="43.51483" lon="6.36157">
        <ele>294</ele>
        <time>2021-11-24T14:07:39.000Z</time>
      </trkpt>
      <trkpt lat="43.51482" lon="6.36156">
        <ele>294</ele>
        <time>2021-11-24T14:07:40.000Z</time>
      </trkpt>
      <trkpt lat="43.51482" lon="6.36156">
        <ele>294</ele>
        <time>2021-11-24T14:07:41.000Z</time>
      </trkpt>
      <trkpt lat="43.51482" lon="6.36156">
        <ele>294</ele>
        <time>2021-11-24T14:07:42.000Z</time>
      </trkpt>
      <trkpt lat="43.51481" lon="6.36155">
        <ele>294</ele>
        <time>2021-11-24T14:07:43.000Z</time>
      </trkpt>
      <trkpt lat="43.51481" lon="6.36155">
        <ele>294</ele>
        <time>2021-11-24T14:07:44.000Z</time>
      </trkpt>
      <trkpt lat="43.51481" lon="6.36155">
        <ele>294</ele>
        <time>2021-11-24T14:07:45.000Z</time>
      </trkpt>
      <trkpt lat="43.51481" lon="6.36155">
        <ele>294</ele>
        <time>2021-11-24T14:07:46.000Z</time>
      </trkpt>
      <trkpt lat="43.51481" lon="6.36155">
        <ele>294</ele>
        <time>2021-11-24T14:07:47.000Z</time>
      </trkpt>
      <trkpt lat="43.51481" lon="6.36154">
        <ele>294</ele>
        <time>2021-11-24T14:07:48.000Z</time>
      </trkpt>
      <trkpt lat="43.51481" lon="6.36154">
        <ele>294</ele>
        <time>2021-11-24T14:07:49.000Z</time>
      </trkpt>
      <trkpt lat="43.51481" lon="6.36154">
        <ele>294</ele>
        <time>2021-11-24T14:07:50.000Z</time>
      </trkpt>
      <trkpt lat="43.51481" lon="6.36154">
        <ele>294</ele>
        <time>2021-11-24T14:07:51.000Z</time>
      </trkpt>
      <trkpt lat="43.51481" lon="6.36154">
        <ele>294</ele>
        <time>2021-11-24T14:07:52.000Z</time>
      </trkpt>
      <trkpt lat="43.51481" lon="6.36154">
        <ele>294</ele>
        <time>2021-11-24T14:07:53.000Z</time>
      </trkpt>
      <trkpt lat="43.51481" lon="6.36154">
        <ele>294</ele>
        <time>2021-11-24T14:07:54.000Z</time>
      </trkpt>
      <trkpt lat="43.5148" lon="6.36154">
        <ele>294</ele>
        <time>2021-11-24T14:07:55.000Z</time>
      </trkpt>
      <trkpt lat="43.5148" lon="6.36154">
        <ele>294</ele>
        <time>2021-11-24T14:07:56.000Z</time>
      </trkpt>
      <trkpt lat="43.5148" lon="6.36154">
        <ele>294</ele>
        <time>2021-11-24T14:07:57.000Z</time>
      </trkpt>
      <trkpt lat="43.5148" lon="6.36154">
        <ele>294</ele>
        <time>2021-11-24T14:07:58.000Z</time>
      </trkpt>
      <trkpt lat="43.5148" lon="6.36154">
        <ele>294</ele>
        <time>2021-11-24T14:07:59.000Z</time>
      </trkpt>
      <trkpt lat="43.5148" lon="6.36154">
        <ele>294</ele>
        <time>2021-11-24T14:08:00.000Z</time>
      </trkpt>
      <trkpt lat="43.5148" lon="6.36154">
        <ele>294</ele>
        <time>2021-11-24T14:08:01.000Z</time>
      </trkpt>
      <trkpt lat="43.5148" lon="6.36154">
        <ele>294</ele>
        <time>2021-11-24T14:08:02.000Z</time>
      </trkpt>
      <trkpt lat="43.5148" lon="6.36154">
        <ele>294</ele>
        <time>2021-11-24T14:08:03.000Z</time>
      </trkpt>
      <trkpt lat="43.5148" lon="6.36154">
        <ele>294</ele>
        <time>2021-11-24T14:08:04.000Z</time>
      </trkpt>
      <trkpt lat="43.5148" lon="6.36154">
        <ele>294</ele>
        <time>2021-11-24T14:08:05.000Z</time>
      </trkpt>
      <trkpt lat="43.5148" lon="6.36154">
        <ele>295</ele>
        <time>2021-11-24T14:08:06.000Z</time>
      </trkpt>
      <trkpt lat="43.5148" lon="6.36154">
        <ele>295</ele>
        <time>2021-11-24T14:08:07.000Z</time>
      </trkpt>
      <trkpt lat="43.5148" lon="6.36154">
        <ele>295</ele>
        <time>2021-11-24T14:08:08.000Z</time>
      </trkpt>
      <trkpt lat="43.5148" lon="6.36154">
        <ele>295</ele>
        <time>2021-11-24T14:08:09.000Z</time>
      </trkpt>
      <trkpt lat="43.5148" lon="6.36154">
        <ele>295</ele>
        <time>2021-11-24T14:08:10.000Z</time>
      </trkpt>
      <trkpt lat="43.5148" lon="6.36154">
        <ele>295</ele>
        <time>2021-11-24T14:08:11.000Z</time>
      </trkpt>
      <trkpt lat="43.5148" lon="6.36154">
        <ele>295</ele>
        <time>2021-11-24T14:08:12.000Z</time>
      </trkpt>
      <trkpt lat="43.5148" lon="6.36153">
        <ele>295</ele>
        <time>2021-11-24T14:08:13.000Z</time>
      </trkpt>
      <trkpt lat="43.5148" lon="6.36152">
        <ele>295</ele>
        <time>2021-11-24T14:08:14.000Z</time>
      </trkpt>
      <trkpt lat="43.5148" lon="6.36152">
        <ele>294</ele>
        <time>2021-11-24T14:08:15.000Z</time>
      </trkpt>
      <trkpt lat="43.5148" lon="6.36152">
        <ele>294</ele>
        <time>2021-11-24T14:08:16.000Z</time>
      </trkpt>
      <trkpt lat="43.5148" lon="6.36152">
        <ele>294</ele>
        <time>2021-11-24T14:08:17.000Z</time>
      </trkpt>
      <trkpt lat="43.5148" lon="6.36152">
        <ele>294</ele>
        <time>2021-11-24T14:08:18.000Z</time>
      </trkpt>
      <trkpt lat="43.51479" lon="6.36152">
        <ele>294</ele>
        <time>2021-11-24T14:08:19.000Z</time>
      </trkpt>
      <trkpt lat="43.51479" lon="6.36152">
        <ele>294</ele>
        <time>2021-11-24T14:08:20.000Z</time>
      </trkpt>
      <trkpt lat="43.51479" lon="6.36152">
        <ele>294</ele>
        <time>2021-11-24T14:08:21.000Z</time>
      </trkpt>
      <trkpt lat="43.51479" lon="6.36152">
        <ele>294</ele>
        <time>2021-11-24T14:08:22.000Z</time>
      </trkpt>
      <trkpt lat="43.51479" lon="6.36151">
        <ele>294</ele>
        <time>2021-11-24T14:08:23.000Z</time>
      </trkpt>
      <trkpt lat="43.51479" lon="6.36151">
        <ele>294</ele>
        <time>2021-11-24T14:08:24.000Z</time>
      </trkpt>
      <trkpt lat="43.51479" lon="6.36151">
        <ele>294</ele>
        <time>2021-11-24T14:08:25.000Z</time>
      </trkpt>
      <trkpt lat="43.51479" lon="6.36151">
        <ele>294</ele>
        <time>2021-11-24T14:08:26.000Z</time>
      </trkpt>
      <trkpt lat="43.51479" lon="6.36151">
        <ele>294</ele>
        <time>2021-11-24T14:08:27.000Z</time>
      </trkpt>
      <trkpt lat="43.51479" lon="6.36151">
        <ele>294</ele>
        <time>2021-11-24T14:08:28.000Z</time>
      </trkpt>
      <trkpt lat="43.51479" lon="6.36151">
        <ele>294</ele>
        <time>2021-11-24T14:08:29.000Z</time>
      </trkpt>
      <trkpt lat="43.51479" lon="6.36151">
        <ele>294</ele>
        <time>2021-11-24T14:08:30.000Z</time>
      </trkpt>
      <trkpt lat="43.51479" lon="6.36151">
        <ele>294</ele>
        <time>2021-11-24T14:08:31.000Z</time>
      </trkpt>
      <trkpt lat="43.51479" lon="6.3615">
        <ele>294</ele>
        <time>2021-11-24T14:08:32.000Z</time>
      </trkpt>
      <trkpt lat="43.51479" lon="6.3615">
        <ele>294</ele>
        <time>2021-11-24T14:08:33.000Z</time>
      </trkpt>
      <trkpt lat="43.51479" lon="6.36149">
        <ele>294</ele>
        <time>2021-11-24T14:08:34.000Z</time>
      </trkpt>
      <trkpt lat="43.51479" lon="6.36148">
        <ele>294</ele>
        <time>2021-11-24T14:08:35.000Z</time>
      </trkpt>
      <trkpt lat="43.51479" lon="6.36148">
        <ele>294</ele>
        <time>2021-11-24T14:08:36.000Z</time>
      </trkpt>
      <trkpt lat="43.51479" lon="6.36147">
        <ele>294</ele>
        <time>2021-11-24T14:08:37.000Z</time>
      </trkpt>
      <trkpt lat="43.51479" lon="6.36147">
        <ele>294</ele>
        <time>2021-11-24T14:08:38.000Z</time>
      </trkpt>
      <trkpt lat="43.51479" lon="6.36146">
        <ele>294</ele>
        <time>2021-11-24T14:08:39.000Z</time>
      </trkpt>
      <trkpt lat="43.51479" lon="6.36146">
        <ele>295</ele>
        <time>2021-11-24T14:08:40.000Z</time>
      </trkpt>
      <trkpt lat="43.51478" lon="6.36144">
        <ele>295</ele>
        <time>2021-11-24T14:08:41.000Z</time>
      </trkpt>
      <trkpt lat="43.51477" lon="6.36143">
        <ele>295</ele>
        <time>2021-11-24T14:08:42.000Z</time>
      </trkpt>
      <trkpt lat="43.51476" lon="6.36143">
        <ele>295</ele>
        <time>2021-11-24T14:08:43.000Z</time>
      </trkpt>
      <trkpt lat="43.51476" lon="6.36142">
        <ele>295</ele>
        <time>2021-11-24T14:08:44.000Z</time>
      </trkpt>
      <trkpt lat="43.51476" lon="6.36142">
        <ele>295</ele>
        <time>2021-11-24T14:08:45.000Z</time>
      </trkpt>
      <trkpt lat="43.51475" lon="6.36142">
        <ele>295</ele>
        <time>2021-11-24T14:08:46.000Z</time>
      </trkpt>
      <trkpt lat="43.51474" lon="6.36142">
        <ele>295</ele>
        <time>2021-11-24T14:08:47.000Z</time>
      </trkpt>
      <trkpt lat="43.51474" lon="6.36141">
        <ele>295</ele>
        <time>2021-11-24T14:08:48.000Z</time>
      </trkpt>
      <trkpt lat="43.51473" lon="6.36141">
        <ele>295</ele>
        <time>2021-11-24T14:08:49.000Z</time>
      </trkpt>
      <trkpt lat="43.51472" lon="6.3614">
        <ele>295</ele>
        <time>2021-11-24T14:08:50.000Z</time>
      </trkpt>
      <trkpt lat="43.51472" lon="6.3614">
        <ele>295</ele>
        <time>2021-11-24T14:08:51.000Z</time>
      </trkpt>
      <trkpt lat="43.5147" lon="6.36139">
        <ele>295</ele>
        <time>2021-11-24T14:08:52.000Z</time>
      </trkpt>
      <trkpt lat="43.51469" lon="6.36139">
        <ele>295</ele>
        <time>2021-11-24T14:08:53.000Z</time>
      </trkpt>
      <trkpt lat="43.51468" lon="6.36139">
        <ele>297</ele>
        <time>2021-11-24T14:08:54.000Z</time>
      </trkpt>
      <trkpt lat="43.51467" lon="6.36138">
        <ele>297</ele>
        <time>2021-11-24T14:08:55.000Z</time>
      </trkpt>
      <trkpt lat="43.51465" lon="6.36137">
        <ele>297</ele>
        <time>2021-11-24T14:08:56.000Z</time>
      </trkpt>
      <trkpt lat="43.51464" lon="6.36137">
        <ele>297</ele>
        <time>2021-11-24T14:08:57.000Z</time>
      </trkpt>
      <trkpt lat="43.51463" lon="6.36137">
        <ele>298</ele>
        <time>2021-11-24T14:08:58.000Z</time>
      </trkpt>
      <trkpt lat="43.51463" lon="6.36136">
        <ele>298</ele>
        <time>2021-11-24T14:08:59.000Z</time>
      </trkpt>
      <trkpt lat="43.51462" lon="6.36136">
        <ele>298</ele>
        <time>2021-11-24T14:09:00.000Z</time>
      </trkpt>
      <trkpt lat="43.51462" lon="6.36136">
        <ele>298</ele>
        <time>2021-11-24T14:09:01.000Z</time>
      </trkpt>
      <trkpt lat="43.51461" lon="6.36136">
        <ele>298</ele>
        <time>2021-11-24T14:09:02.000Z</time>
      </trkpt>
      <trkpt lat="43.51461" lon="6.36136">
        <ele>298</ele>
        <time>2021-11-24T14:09:03.000Z</time>
      </trkpt>
      <trkpt lat="43.51461" lon="6.36136">
        <ele>298</ele>
        <time>2021-11-24T14:09:04.000Z</time>
      </trkpt>
      <trkpt lat="43.5146" lon="6.36136">
        <ele>298</ele>
        <time>2021-11-24T14:09:05.000Z</time>
      </trkpt>
      <trkpt lat="43.51461" lon="6.36135">
        <ele>298</ele>
        <time>2021-11-24T14:09:06.000Z</time>
      </trkpt>
      <trkpt lat="43.51461" lon="6.36134">
        <ele>298</ele>
        <time>2021-11-24T14:09:07.000Z</time>
      </trkpt>
      <trkpt lat="43.51461" lon="6.36133">
        <ele>298</ele>
        <time>2021-11-24T14:09:08.000Z</time>
      </trkpt>
      <trkpt lat="43.51462" lon="6.36133">
        <ele>298</ele>
        <time>2021-11-24T14:09:09.000Z</time>
      </trkpt>
      <trkpt lat="43.51461" lon="6.36132">
        <ele>298</ele>
        <time>2021-11-24T14:09:10.000Z</time>
      </trkpt>
      <trkpt lat="43.51462" lon="6.36132">
        <ele>298</ele>
        <time>2021-11-24T14:09:11.000Z</time>
      </trkpt>
      <trkpt lat="43.51462" lon="6.36131">
        <ele>299</ele>
        <time>2021-11-24T14:09:12.000Z</time>
      </trkpt>
      <trkpt lat="43.51463" lon="6.3613">
        <ele>299</ele>
        <time>2021-11-24T14:09:13.000Z</time>
      </trkpt>
      <trkpt lat="43.51464" lon="6.36129">
        <ele>299</ele>
        <time>2021-11-24T14:09:14.000Z</time>
      </trkpt>
      <trkpt lat="43.51464" lon="6.36129">
        <ele>299</ele>
        <time>2021-11-24T14:09:15.000Z</time>
      </trkpt>
      <trkpt lat="43.51464" lon="6.36129">
        <ele>299</ele>
        <time>2021-11-24T14:09:16.000Z</time>
      </trkpt>
      <trkpt lat="43.51464" lon="6.36128">
        <ele>299</ele>
        <time>2021-11-24T14:09:17.000Z</time>
      </trkpt>
      <trkpt lat="43.51465" lon="6.36128">
        <ele>299</ele>
        <time>2021-11-24T14:09:18.000Z</time>
      </trkpt>
      <trkpt lat="43.51465" lon="6.36127">
        <ele>299</ele>
        <time>2021-11-24T14:09:19.000Z</time>
      </trkpt>
      <trkpt lat="43.51466" lon="6.36127">
        <ele>301</ele>
        <time>2021-11-24T14:09:20.000Z</time>
      </trkpt>
      <trkpt lat="43.51467" lon="6.36126">
        <ele>301</ele>
        <time>2021-11-24T14:09:21.000Z</time>
      </trkpt>
      <trkpt lat="43.51467" lon="6.36125">
        <ele>301</ele>
        <time>2021-11-24T14:09:22.000Z</time>
      </trkpt>
      <trkpt lat="43.51468" lon="6.36124">
        <ele>302</ele>
        <time>2021-11-24T14:09:23.000Z</time>
      </trkpt>
      <trkpt lat="43.51469" lon="6.36122">
        <ele>302</ele>
        <time>2021-11-24T14:09:24.000Z</time>
      </trkpt>
      <trkpt lat="43.51469" lon="6.36122">
        <ele>302</ele>
        <time>2021-11-24T14:09:25.000Z</time>
      </trkpt>
      <trkpt lat="43.51469" lon="6.36121">
        <ele>302</ele>
        <time>2021-11-24T14:09:26.000Z</time>
      </trkpt>
      <trkpt lat="43.5147" lon="6.36121">
        <ele>302</ele>
        <time>2021-11-24T14:09:27.000Z</time>
      </trkpt>
      <trkpt lat="43.5147" lon="6.3612">
        <ele>302</ele>
        <time>2021-11-24T14:09:28.000Z</time>
      </trkpt>
      <trkpt lat="43.5147" lon="6.3612">
        <ele>302</ele>
        <time>2021-11-24T14:09:29.000Z</time>
      </trkpt>
      <trkpt lat="43.51471" lon="6.36119">
        <ele>302</ele>
        <time>2021-11-24T14:09:30.000Z</time>
      </trkpt>
      <trkpt lat="43.51472" lon="6.36119">
        <ele>302</ele>
        <time>2021-11-24T14:09:31.000Z</time>
      </trkpt>
      <trkpt lat="43.51472" lon="6.36118">
        <ele>302</ele>
        <time>2021-11-24T14:09:32.000Z</time>
      </trkpt>
      <trkpt lat="43.51472" lon="6.36117">
        <ele>302</ele>
        <time>2021-11-24T14:09:33.000Z</time>
      </trkpt>
      <trkpt lat="43.51473" lon="6.36117">
        <ele>302</ele>
        <time>2021-11-24T14:09:34.000Z</time>
      </trkpt>
      <trkpt lat="43.51473" lon="6.36116">
        <ele>302</ele>
        <time>2021-11-24T14:09:35.000Z</time>
      </trkpt>
      <trkpt lat="43.51473" lon="6.36116">
        <ele>302</ele>
        <time>2021-11-24T14:09:36.000Z</time>
      </trkpt>
      <trkpt lat="43.51474" lon="6.36115">
        <ele>302</ele>
        <time>2021-11-24T14:09:37.000Z</time>
      </trkpt>
      <trkpt lat="43.51474" lon="6.36115">
        <ele>302</ele>
        <time>2021-11-24T14:09:38.000Z</time>
      </trkpt>
      <trkpt lat="43.51474" lon="6.36114">
        <ele>302</ele>
        <time>2021-11-24T14:09:39.000Z</time>
      </trkpt>
      <trkpt lat="43.51474" lon="6.36114">
        <ele>302</ele>
        <time>2021-11-24T14:09:40.000Z</time>
      </trkpt>
      <trkpt lat="43.51474" lon="6.36114">
        <ele>302</ele>
        <time>2021-11-24T14:09:41.000Z</time>
      </trkpt>
      <trkpt lat="43.51474" lon="6.36114">
        <ele>302</ele>
        <time>2021-11-24T14:09:42.000Z</time>
      </trkpt>
      <trkpt lat="43.51474" lon="6.36114">
        <ele>302</ele>
        <time>2021-11-24T14:09:43.000Z</time>
      </trkpt>
      <trkpt lat="43.51474" lon="6.36114">
        <ele>302</ele>
        <time>2021-11-24T14:09:44.000Z</time>
      </trkpt>
      <trkpt lat="43.51474" lon="6.36114">
        <ele>302</ele>
        <time>2021-11-24T14:09:45.000Z</time>
      </trkpt>
      <trkpt lat="43.51474" lon="6.36114">
        <ele>302</ele>
        <time>2021-11-24T14:09:46.000Z</time>
      </trkpt>
      <trkpt lat="43.51474" lon="6.36114">
        <ele>302</ele>
        <time>2021-11-24T14:09:47.000Z</time>
      </trkpt>
      <trkpt lat="43.51474" lon="6.36114">
        <ele>302</ele>
        <time>2021-11-24T14:09:48.000Z</time>
      </trkpt>
      <trkpt lat="43.51474" lon="6.36114">
        <ele>302</ele>
        <time>2021-11-24T14:09:49.000Z</time>
      </trkpt>
      <trkpt lat="43.51475" lon="6.36113">
        <ele>302</ele>
        <time>2021-11-24T14:09:50.000Z</time>
      </trkpt>
      <trkpt lat="43.51475" lon="6.36113">
        <ele>302</ele>
        <time>2021-11-24T14:09:51.000Z</time>
      </trkpt>
      <trkpt lat="43.51475" lon="6.36112">
        <ele>302</ele>
        <time>2021-11-24T14:09:52.000Z</time>
      </trkpt>
      <trkpt lat="43.51475" lon="6.36112">
        <ele>302</ele>
        <time>2021-11-24T14:09:53.000Z</time>
      </trkpt>
      <trkpt lat="43.51475" lon="6.36112">
        <ele>302</ele>
        <time>2021-11-24T14:09:54.000Z</time>
      </trkpt>
      <trkpt lat="43.51475" lon="6.36112">
        <ele>302</ele>
        <time>2021-11-24T14:09:55.000Z</time>
      </trkpt>
      <trkpt lat="43.51475" lon="6.36112">
        <ele>302</ele>
        <time>2021-11-24T14:09:56.000Z</time>
      </trkpt>
      <trkpt lat="43.51475" lon="6.36112">
        <ele>302</ele>
        <time>2021-11-24T14:09:57.000Z</time>
      </trkpt>
      <trkpt lat="43.51475" lon="6.36112">
        <ele>302</ele>
        <time>2021-11-24T14:09:58.000Z</time>
      </trkpt>
      <trkpt lat="43.51475" lon="6.36112">
        <ele>302</ele>
        <time>2021-11-24T14:09:59.000Z</time>
      </trkpt>
      <trkpt lat="43.51475" lon="6.36112">
        <ele>302</ele>
        <time>2021-11-24T14:10:00.000Z</time>
      </trkpt>
      <trkpt lat="43.51475" lon="6.36112">
        <ele>302</ele>
        <time>2021-11-24T14:10:01.000Z</time>
      </trkpt>
      <trkpt lat="43.51475" lon="6.36112">
        <ele>302</ele>
        <time>2021-11-24T14:10:02.000Z</time>
      </trkpt>
      <trkpt lat="43.51475" lon="6.36112">
        <ele>302</ele>
        <time>2021-11-24T14:10:03.000Z</time>
      </trkpt>
      <trkpt lat="43.51476" lon="6.36111">
        <ele>302</ele>
        <time>2021-11-24T14:10:04.000Z</time>
      </trkpt>
      <trkpt lat="43.51477" lon="6.36111">
        <ele>302</ele>
        <time>2021-11-24T14:10:05.000Z</time>
      </trkpt>
      <trkpt lat="43.51477" lon="6.3611">
        <ele>302</ele>
        <time>2021-11-24T14:10:06.000Z</time>
      </trkpt>
      <trkpt lat="43.51478" lon="6.36109">
        <ele>302</ele>
        <time>2021-11-24T14:10:07.000Z</time>
      </trkpt>
      <trkpt lat="43.51479" lon="6.36108">
        <ele>302</ele>
        <time>2021-11-24T14:10:08.000Z</time>
      </trkpt>
      <trkpt lat="43.51479" lon="6.36107">
        <ele>302</ele>
        <time>2021-11-24T14:10:09.000Z</time>
      </trkpt>
      <trkpt lat="43.5148" lon="6.36106">
        <ele>302</ele>
        <time>2021-11-24T14:10:10.000Z</time>
      </trkpt>
      <trkpt lat="43.5148" lon="6.36105">
        <ele>302</ele>
        <time>2021-11-24T14:10:11.000Z</time>
      </trkpt>
      <trkpt lat="43.51481" lon="6.36104">
        <ele>302</ele>
        <time>2021-11-24T14:10:12.000Z</time>
      </trkpt>
      <trkpt lat="43.51481" lon="6.36104">
        <ele>302</ele>
        <time>2021-11-24T14:10:13.000Z</time>
      </trkpt>
      <trkpt lat="43.51481" lon="6.36103">
        <ele>302</ele>
        <time>2021-11-24T14:10:14.000Z</time>
      </trkpt>
      <trkpt lat="43.51481" lon="6.36103">
        <ele>302</ele>
        <time>2021-11-24T14:10:15.000Z</time>
      </trkpt>
      <trkpt lat="43.51481" lon="6.36103">
        <ele>302</ele>
        <time>2021-11-24T14:10:16.000Z</time>
      </trkpt>
      <trkpt lat="43.51481" lon="6.36102">
        <ele>302</ele>
        <time>2021-11-24T14:10:17.000Z</time>
      </trkpt>
      <trkpt lat="43.51481" lon="6.36102">
        <ele>302</ele>
        <time>2021-11-24T14:10:18.000Z</time>
      </trkpt>
      <trkpt lat="43.51481" lon="6.36102">
        <ele>302</ele>
        <time>2021-11-24T14:10:19.000Z</time>
      </trkpt>
      <trkpt lat="43.51481" lon="6.36102">
        <ele>302</ele>
        <time>2021-11-24T14:10:20.000Z</time>
      </trkpt>
      <trkpt lat="43.51481" lon="6.36101">
        <ele>302</ele>
        <time>2021-11-24T14:10:21.000Z</time>
      </trkpt>
      <trkpt lat="43.51481" lon="6.36101">
        <ele>302</ele>
        <time>2021-11-24T14:10:22.000Z</time>
      </trkpt>
      <trkpt lat="43.51481" lon="6.36101">
        <ele>302</ele>
        <time>2021-11-24T14:10:23.000Z</time>
      </trkpt>
      <trkpt lat="43.51481" lon="6.36101">
        <ele>302</ele>
        <time>2021-11-24T14:10:24.000Z</time>
      </trkpt>
      <trkpt lat="43.51481" lon="6.36101">
        <ele>302</ele>
        <time>2021-11-24T14:10:25.000Z</time>
      </trkpt>
      <trkpt lat="43.51481" lon="6.36101">
        <ele>302</ele>
        <time>2021-11-24T14:10:26.000Z</time>
      </trkpt>
      <trkpt lat="43.51481" lon="6.361">
        <ele>302</ele>
        <time>2021-11-24T14:10:27.000Z</time>
      </trkpt>
      <trkpt lat="43.51481" lon="6.36099">
        <ele>302</ele>
        <time>2021-11-24T14:10:28.000Z</time>
      </trkpt>
      <trkpt lat="43.5148" lon="6.36099">
        <ele>302</ele>
        <time>2021-11-24T14:10:29.000Z</time>
      </trkpt>
      <trkpt lat="43.5148" lon="6.36098">
        <ele>302</ele>
        <time>2021-11-24T14:10:30.000Z</time>
      </trkpt>
      <trkpt lat="43.5148" lon="6.36097">
        <ele>302</ele>
        <time>2021-11-24T14:10:31.000Z</time>
      </trkpt>
      <trkpt lat="43.51479" lon="6.36096">
        <ele>302</ele>
        <time>2021-11-24T14:10:32.000Z</time>
      </trkpt>
      <trkpt lat="43.51479" lon="6.36094">
        <ele>303</ele>
        <time>2021-11-24T14:10:33.000Z</time>
      </trkpt>
      <trkpt lat="43.51478" lon="6.36093">
        <ele>303</ele>
        <time>2021-11-24T14:10:34.000Z</time>
      </trkpt>
      <trkpt lat="43.51477" lon="6.36091">
        <ele>303</ele>
        <time>2021-11-24T14:10:35.000Z</time>
      </trkpt>
      <trkpt lat="43.51476" lon="6.3609">
        <ele>305</ele>
        <time>2021-11-24T14:10:36.000Z</time>
      </trkpt>
      <trkpt lat="43.51476" lon="6.36089">
        <ele>305</ele>
        <time>2021-11-24T14:10:37.000Z</time>
      </trkpt>
      <trkpt lat="43.51475" lon="6.36088">
        <ele>306</ele>
        <time>2021-11-24T14:10:38.000Z</time>
      </trkpt>
      <trkpt lat="43.51474" lon="6.36087">
        <ele>306</ele>
        <time>2021-11-24T14:10:39.000Z</time>
      </trkpt>
      <trkpt lat="43.51474" lon="6.36087">
        <ele>308</ele>
        <time>2021-11-24T14:10:40.000Z</time>
      </trkpt>
      <trkpt lat="43.51474" lon="6.36086">
        <ele>308</ele>
        <time>2021-11-24T14:10:41.000Z</time>
      </trkpt>
      <trkpt lat="43.51473" lon="6.36085">
        <ele>308</ele>
        <time>2021-11-24T14:10:42.000Z</time>
      </trkpt>
      <trkpt lat="43.51473" lon="6.36085">
        <ele>309</ele>
        <time>2021-11-24T14:10:43.000Z</time>
      </trkpt>
      <trkpt lat="43.51472" lon="6.36084">
        <ele>309</ele>
        <time>2021-11-24T14:10:44.000Z</time>
      </trkpt>
      <trkpt lat="43.51472" lon="6.36083">
        <ele>309</ele>
        <time>2021-11-24T14:10:45.000Z</time>
      </trkpt>
      <trkpt lat="43.51472" lon="6.36083">
        <ele>309</ele>
        <time>2021-11-24T14:10:46.000Z</time>
      </trkpt>
      <trkpt lat="43.51471" lon="6.36082">
        <ele>309</ele>
        <time>2021-11-24T14:10:47.000Z</time>
      </trkpt>
      <trkpt lat="43.51471" lon="6.36081">
        <ele>309</ele>
        <time>2021-11-24T14:10:48.000Z</time>
      </trkpt>
      <trkpt lat="43.5147" lon="6.3608">
        <ele>310</ele>
        <time>2021-11-24T14:10:49.000Z</time>
      </trkpt>
      <trkpt lat="43.5147" lon="6.36079">
        <ele>310</ele>
        <time>2021-11-24T14:10:50.000Z</time>
      </trkpt>
      <trkpt lat="43.51469" lon="6.36079">
        <ele>310</ele>
        <time>2021-11-24T14:10:51.000Z</time>
      </trkpt>
      <trkpt lat="43.51469" lon="6.36078">
        <ele>310</ele>
        <time>2021-11-24T14:10:52.000Z</time>
      </trkpt>
      <trkpt lat="43.51469" lon="6.36078">
        <ele>310</ele>
        <time>2021-11-24T14:10:53.000Z</time>
      </trkpt>
      <trkpt lat="43.51468" lon="6.36078">
        <ele>310</ele>
        <time>2021-11-24T14:10:54.000Z</time>
      </trkpt>
      <trkpt lat="43.51467" lon="6.36077">
        <ele>310</ele>
        <time>2021-11-24T14:10:55.000Z</time>
      </trkpt>
      <trkpt lat="43.51466" lon="6.36077">
        <ele>311</ele>
        <time>2021-11-24T14:10:56.000Z</time>
      </trkpt>
      <trkpt lat="43.51466" lon="6.36076">
        <ele>311</ele>
        <time>2021-11-24T14:10:57.000Z</time>
      </trkpt>
      <trkpt lat="43.51465" lon="6.36076">
        <ele>311</ele>
        <time>2021-11-24T14:10:58.000Z</time>
      </trkpt>
      <trkpt lat="43.51465" lon="6.36076">
        <ele>311</ele>
        <time>2021-11-24T14:10:59.000Z</time>
      </trkpt>
      <trkpt lat="43.51465" lon="6.36075">
        <ele>311</ele>
        <time>2021-11-24T14:11:00.000Z</time>
      </trkpt>
      <trkpt lat="43.51465" lon="6.36075">
        <ele>311</ele>
        <time>2021-11-24T14:11:01.000Z</time>
      </trkpt>
      <trkpt lat="43.51464" lon="6.36075">
        <ele>311</ele>
        <time>2021-11-24T14:11:02.000Z</time>
      </trkpt>
      <trkpt lat="43.51464" lon="6.36074">
        <ele>311</ele>
        <time>2021-11-24T14:11:03.000Z</time>
      </trkpt>
      <trkpt lat="43.51464" lon="6.36074">
        <ele>311</ele>
        <time>2021-11-24T14:11:04.000Z</time>
      </trkpt>
      <trkpt lat="43.51464" lon="6.36074">
        <ele>311</ele>
        <time>2021-11-24T14:11:05.000Z</time>
      </trkpt>
      <trkpt lat="43.51464" lon="6.36074">
        <ele>311</ele>
        <time>2021-11-24T14:11:06.000Z</time>
      </trkpt>
      <trkpt lat="43.51464" lon="6.36074">
        <ele>311</ele>
        <time>2021-11-24T14:11:07.000Z</time>
      </trkpt>
      <trkpt lat="43.51464" lon="6.36073">
        <ele>311</ele>
        <time>2021-11-24T14:11:08.000Z</time>
      </trkpt>
      <trkpt lat="43.51464" lon="6.36073">
        <ele>311</ele>
        <time>2021-11-24T14:11:09.000Z</time>
      </trkpt>
      <trkpt lat="43.51464" lon="6.36073">
        <ele>311</ele>
        <time>2021-11-24T14:11:10.000Z</time>
      </trkpt>
      <trkpt lat="43.51463" lon="6.36073">
        <ele>311</ele>
        <time>2021-11-24T14:11:11.000Z</time>
      </trkpt>
      <trkpt lat="43.51463" lon="6.36073">
        <ele>311</ele>
        <time>2021-11-24T14:11:12.000Z</time>
      </trkpt>
      <trkpt lat="43.51463" lon="6.36073">
        <ele>311</ele>
        <time>2021-11-24T14:11:13.000Z</time>
      </trkpt>
      <trkpt lat="43.51463" lon="6.36073">
        <ele>311</ele>
        <time>2021-11-24T14:11:14.000Z</time>
      </trkpt>
      <trkpt lat="43.51463" lon="6.36073">
        <ele>311</ele>
        <time>2021-11-24T14:11:15.000Z</time>
      </trkpt>
      <trkpt lat="43.51463" lon="6.36073">
        <ele>311</ele>
        <time>2021-11-24T14:11:16.000Z</time>
      </trkpt>
      <trkpt lat="43.51463" lon="6.36072">
        <ele>311</ele>
        <time>2021-11-24T14:11:17.000Z</time>
      </trkpt>
      <trkpt lat="43.51463" lon="6.36072">
        <ele>311</ele>
        <time>2021-11-24T14:11:18.000Z</time>
      </trkpt>
      <trkpt lat="43.51463" lon="6.36072">
        <ele>311</ele>
        <time>2021-11-24T14:11:19.000Z</time>
      </trkpt>
      <trkpt lat="43.51463" lon="6.36072">
        <ele>311</ele>
        <time>2021-11-24T14:11:20.000Z</time>
      </trkpt>
      <trkpt lat="43.51463" lon="6.36072">
        <ele>311</ele>
        <time>2021-11-24T14:11:21.000Z</time>
      </trkpt>
      <trkpt lat="43.51463" lon="6.36072">
        <ele>311</ele>
        <time>2021-11-24T14:11:22.000Z</time>
      </trkpt>
      <trkpt lat="43.51463" lon="6.36072">
        <ele>311</ele>
        <time>2021-11-24T14:11:23.000Z</time>
      </trkpt>
      <trkpt lat="43.51463" lon="6.36072">
        <ele>311</ele>
        <time>2021-11-24T14:11:24.000Z</time>
      </trkpt>
      <trkpt lat="43.51463" lon="6.36072">
        <ele>311</ele>
        <time>2021-11-24T14:11:25.000Z</time>
      </trkpt>
      <trkpt lat="43.51463" lon="6.36072">
        <ele>311</ele>
        <time>2021-11-24T14:11:26.000Z</time>
      </trkpt>
      <trkpt lat="43.51463" lon="6.36072">
        <ele>311</ele>
        <time>2021-11-24T14:11:27.000Z</time>
      </trkpt>
      <trkpt lat="43.51463" lon="6.36072">
        <ele>311</ele>
        <time>2021-11-24T14:11:28.000Z</time>
      </trkpt>
      <trkpt lat="43.51463" lon="6.36072">
        <ele>311</ele>
        <time>2021-11-24T14:11:29.000Z</time>
      </trkpt>
      <trkpt lat="43.51463" lon="6.36072">
        <ele>311</ele>
        <time>2021-11-24T14:11:30.000Z</time>
      </trkpt>
      <trkpt lat="43.51463" lon="6.36072">
        <ele>311</ele>
        <time>2021-11-24T14:11:31.000Z</time>
      </trkpt>
      <trkpt lat="43.51463" lon="6.36072">
        <ele>311</ele>
        <time>2021-11-24T14:11:32.000Z</time>
      </trkpt>
      <trkpt lat="43.51463" lon="6.36072">
        <ele>311</ele>
        <time>2021-11-24T14:11:33.000Z</time>
      </trkpt>
      <trkpt lat="43.51463" lon="6.36072">
        <ele>311</ele>
        <time>2021-11-24T14:11:34.000Z</time>
      </trkpt>
      <trkpt lat="43.51463" lon="6.36072">
        <ele>311</ele>
        <time>2021-11-24T14:11:35.000Z</time>
      </trkpt>
      <trkpt lat="43.51463" lon="6.36072">
        <ele>311</ele>
        <time>2021-11-24T14:11:36.000Z</time>
      </trkpt>
      <trkpt lat="43.51463" lon="6.36072">
        <ele>311</ele>
        <time>2021-11-24T14:11:37.000Z</time>
      </trkpt>
      <trkpt lat="43.51463" lon="6.36072">
        <ele>311</ele>
        <time>2021-11-24T14:11:38.000Z</time>
      </trkpt>
      <trkpt lat="43.51463" lon="6.36072">
        <ele>311</ele>
        <time>2021-11-24T14:11:39.000Z</time>
      </trkpt>
      <trkpt lat="43.51463" lon="6.36072">
        <ele>311</ele>
        <time>2021-11-24T14:11:40.000Z</time>
      </trkpt>
      <trkpt lat="43.51463" lon="6.36072">
        <ele>311</ele>
        <time>2021-11-24T14:11:41.000Z</time>
      </trkpt>
      <trkpt lat="43.51463" lon="6.36072">
        <ele>311</ele>
        <time>2021-11-24T14:11:42.000Z</time>
      </trkpt>
      <trkpt lat="43.51463" lon="6.36072">
        <ele>311</ele>
        <time>2021-11-24T14:11:43.000Z</time>
      </trkpt>
      <trkpt lat="43.51463" lon="6.36072">
        <ele>311</ele>
        <time>2021-11-24T14:11:44.000Z</time>
      </trkpt>
      <trkpt lat="43.51463" lon="6.36072">
        <ele>311</ele>
        <time>2021-11-24T14:11:45.000Z</time>
      </trkpt>
      <trkpt lat="43.51463" lon="6.36072">
        <ele>311</ele>
        <time>2021-11-24T14:11:46.000Z</time>
      </trkpt>
      <trkpt lat="43.51463" lon="6.36072">
        <ele>311</ele>
        <time>2021-11-24T14:11:47.000Z</time>
      </trkpt>
      <trkpt lat="43.51463" lon="6.36072">
        <ele>311</ele>
        <time>2021-11-24T14:11:48.000Z</time>
      </trkpt>
      <trkpt lat="43.51463" lon="6.36072">
        <ele>311</ele>
        <time>2021-11-24T14:11:49.000Z</time>
      </trkpt>
      <trkpt lat="43.51463" lon="6.36072">
        <ele>311</ele>
        <time>2021-11-24T14:11:50.000Z</time>
      </trkpt>
      <trkpt lat="43.51463" lon="6.36072">
        <ele>311</ele>
        <time>2021-11-24T14:11:51.000Z</time>
      </trkpt>
      <trkpt lat="43.51463" lon="6.36072">
        <ele>311</ele>
        <time>2021-11-24T14:11:52.000Z</time>
      </trkpt>
      <trkpt lat="43.51463" lon="6.36072">
        <ele>311</ele>
        <time>2021-11-24T14:11:53.000Z</time>
      </trkpt>
      <trkpt lat="43.51463" lon="6.36072">
        <ele>311</ele>
        <time>2021-11-24T14:11:54.000Z</time>
      </trkpt>
      <trkpt lat="43.51463" lon="6.36072">
        <ele>311</ele>
        <time>2021-11-24T14:11:55.000Z</time>
      </trkpt>
      <trkpt lat="43.51464" lon="6.36069">
        <ele>311</ele>
        <time>2021-11-24T14:11:56.000Z</time>
      </trkpt>
      <trkpt lat="43.51464" lon="6.36069">
        <ele>311</ele>
        <time>2021-11-24T14:11:57.000Z</time>
      </trkpt>
      <trkpt lat="43.51464" lon="6.36069">
        <ele>311</ele>
        <time>2021-11-24T14:11:58.000Z</time>
      </trkpt>
      <trkpt lat="43.51464" lon="6.36069">
        <ele>311</ele>
        <time>2021-11-24T14:11:59.000Z</time>
      </trkpt>
      <trkpt lat="43.51464" lon="6.36069">
        <ele>311</ele>
        <time>2021-11-24T14:12:00.000Z</time>
      </trkpt>
      <trkpt lat="43.51464" lon="6.36069">
        <ele>311</ele>
        <time>2021-11-24T14:12:01.000Z</time>
      </trkpt>
      <trkpt lat="43.51464" lon="6.36069">
        <ele>311</ele>
        <time>2021-11-24T14:12:02.000Z</time>
      </trkpt>
      <trkpt lat="43.51464" lon="6.36069">
        <ele>311</ele>
        <time>2021-11-24T14:12:03.000Z</time>
      </trkpt>
      <trkpt lat="43.51464" lon="6.36069">
        <ele>311</ele>
        <time>2021-11-24T14:12:04.000Z</time>
      </trkpt>
      <trkpt lat="43.51463" lon="6.36069">
        <ele>311</ele>
        <time>2021-11-24T14:12:05.000Z</time>
      </trkpt>
      <trkpt lat="43.51463" lon="6.36069">
        <ele>311</ele>
        <time>2021-11-24T14:12:06.000Z</time>
      </trkpt>
      <trkpt lat="43.51463" lon="6.36069">
        <ele>311</ele>
        <time>2021-11-24T14:12:07.000Z</time>
      </trkpt>
      <trkpt lat="43.51463" lon="6.36069">
        <ele>311</ele>
        <time>2021-11-24T14:12:08.000Z</time>
      </trkpt>
      <trkpt lat="43.51463" lon="6.36069">
        <ele>311</ele>
        <time>2021-11-24T14:12:09.000Z</time>
      </trkpt>
      <trkpt lat="43.51464" lon="6.36068">
        <ele>311</ele>
        <time>2021-11-24T14:12:10.000Z</time>
      </trkpt>
      <trkpt lat="43.51464" lon="6.36068">
        <ele>311</ele>
        <time>2021-11-24T14:12:11.000Z</time>
      </trkpt>
      <trkpt lat="43.51464" lon="6.36068">
        <ele>311</ele>
        <time>2021-11-24T14:12:12.000Z</time>
      </trkpt>
      <trkpt lat="43.51464" lon="6.36068">
        <ele>311</ele>
        <time>2021-11-24T14:12:13.000Z</time>
      </trkpt>
      <trkpt lat="43.51464" lon="6.36068">
        <ele>311</ele>
        <time>2021-11-24T14:12:14.000Z</time>
      </trkpt>
      <trkpt lat="43.51464" lon="6.36068">
        <ele>311</ele>
        <time>2021-11-24T14:12:15.000Z</time>
      </trkpt>
      <trkpt lat="43.51464" lon="6.36068">
        <ele>311</ele>
        <time>2021-11-24T14:12:16.000Z</time>
      </trkpt>
      <trkpt lat="43.51464" lon="6.36068">
        <ele>311</ele>
        <time>2021-11-24T14:12:17.000Z</time>
      </trkpt>
      <trkpt lat="43.51464" lon="6.36068">
        <ele>311</ele>
        <time>2021-11-24T14:12:18.000Z</time>
      </trkpt>
      <trkpt lat="43.51464" lon="6.36068">
        <ele>311</ele>
        <time>2021-11-24T14:12:19.000Z</time>
      </trkpt>
      <trkpt lat="43.51464" lon="6.36068">
        <ele>311</ele>
        <time>2021-11-24T14:12:20.000Z</time>
      </trkpt>
      <trkpt lat="43.51464" lon="6.36068">
        <ele>311</ele>
        <time>2021-11-24T14:12:21.000Z</time>
      </trkpt>
      <trkpt lat="43.51464" lon="6.36068">
        <ele>311</ele>
        <time>2021-11-24T14:12:22.000Z</time>
      </trkpt>
      <trkpt lat="43.51464" lon="6.36068">
        <ele>311</ele>
        <time>2021-11-24T14:12:23.000Z</time>
      </trkpt>
      <trkpt lat="43.51464" lon="6.36068">
        <ele>311</ele>
        <time>2021-11-24T14:12:24.000Z</time>
      </trkpt>
      <trkpt lat="43.51464" lon="6.36068">
        <ele>311</ele>
        <time>2021-11-24T14:12:25.000Z</time>
      </trkpt>
      <trkpt lat="43.51464" lon="6.36068">
        <ele>311</ele>
        <time>2021-11-24T14:12:26.000Z</time>
      </trkpt>
      <trkpt lat="43.51464" lon="6.36068">
        <ele>311</ele>
        <time>2021-11-24T14:12:27.000Z</time>
      </trkpt>
      <trkpt lat="43.51464" lon="6.36068">
        <ele>311</ele>
        <time>2021-11-24T14:12:28.000Z</time>
      </trkpt>
      <trkpt lat="43.51464" lon="6.36068">
        <ele>311</ele>
        <time>2021-11-24T14:12:29.000Z</time>
      </trkpt>
      <trkpt lat="43.51464" lon="6.36068">
        <ele>311</ele>
        <time>2021-11-24T14:12:30.000Z</time>
      </trkpt>
      <trkpt lat="43.51464" lon="6.36068">
        <ele>311</ele>
        <time>2021-11-24T14:12:31.000Z</time>
      </trkpt>
      <trkpt lat="43.51464" lon="6.36068">
        <ele>311</ele>
        <time>2021-11-24T14:12:32.000Z</time>
      </trkpt>
      <trkpt lat="43.51464" lon="6.36068">
        <ele>311</ele>
        <time>2021-11-24T14:12:33.000Z</time>
      </trkpt>
      <trkpt lat="43.51464" lon="6.36068">
        <ele>311</ele>
        <time>2021-11-24T14:12:34.000Z</time>
      </trkpt>
      <trkpt lat="43.51464" lon="6.36068">
        <ele>311</ele>
        <time>2021-11-24T14:12:35.000Z</time>
      </trkpt>
      <trkpt lat="43.51464" lon="6.36068">
        <ele>311</ele>
        <time>2021-11-24T14:12:36.000Z</time>
      </trkpt>
      <trkpt lat="43.51464" lon="6.36068">
        <ele>311</ele>
        <time>2021-11-24T14:12:37.000Z</time>
      </trkpt>
      <trkpt lat="43.51464" lon="6.36068">
        <ele>311</ele>
        <time>2021-11-24T14:12:38.000Z</time>
      </trkpt>
      <trkpt lat="43.51464" lon="6.36068">
        <ele>311</ele>
        <time>2021-11-24T14:12:39.000Z</time>
      </trkpt>
      <trkpt lat="43.51464" lon="6.36068">
        <ele>311</ele>
        <time>2021-11-24T14:12:40.000Z</time>
      </trkpt>
      <trkpt lat="43.51464" lon="6.36068">
        <ele>311</ele>
        <time>2021-11-24T14:12:41.000Z</time>
      </trkpt>
      <trkpt lat="43.51464" lon="6.36068">
        <ele>311</ele>
        <time>2021-11-24T14:12:42.000Z</time>
      </trkpt>
      <trkpt lat="43.51464" lon="6.36068">
        <ele>311</ele>
        <time>2021-11-24T14:12:43.000Z</time>
      </trkpt>
      <trkpt lat="43.51464" lon="6.36068">
        <ele>311</ele>
        <time>2021-11-24T14:12:44.000Z</time>
      </trkpt>
      <trkpt lat="43.51464" lon="6.36068">
        <ele>311</ele>
        <time>2021-11-24T14:12:45.000Z</time>
      </trkpt>
      <trkpt lat="43.51464" lon="6.36068">
        <ele>311</ele>
        <time>2021-11-24T14:12:46.000Z</time>
      </trkpt>
      <trkpt lat="43.51466" lon="6.36067">
        <ele>311</ele>
        <time>2021-11-24T14:12:47.000Z</time>
      </trkpt>
      <trkpt lat="43.51467" lon="6.36066">
        <ele>311</ele>
        <time>2021-11-24T14:12:48.000Z</time>
      </trkpt>
      <trkpt lat="43.51467" lon="6.36065">
        <ele>311</ele>
        <time>2021-11-24T14:12:49.000Z</time>
      </trkpt>
      <trkpt lat="43.51467" lon="6.36064">
        <ele>311</ele>
        <time>2021-11-24T14:12:50.000Z</time>
      </trkpt>
      <trkpt lat="43.51468" lon="6.36063">
        <ele>311</ele>
        <time>2021-11-24T14:12:51.000Z</time>
      </trkpt>
      <trkpt lat="43.51468" lon="6.36062">
        <ele>311</ele>
        <time>2021-11-24T14:12:52.000Z</time>
      </trkpt>
      <trkpt lat="43.51468" lon="6.36062">
        <ele>312</ele>
        <time>2021-11-24T14:12:53.000Z</time>
      </trkpt>
      <trkpt lat="43.51468" lon="6.36061">
        <ele>312</ele>
        <time>2021-11-24T14:12:54.000Z</time>
      </trkpt>
      <trkpt lat="43.51468" lon="6.3606">
        <ele>312</ele>
        <time>2021-11-24T14:12:55.000Z</time>
      </trkpt>
      <trkpt lat="43.51468" lon="6.3606">
        <ele>312</ele>
        <time>2021-11-24T14:12:56.000Z</time>
      </trkpt>
      <trkpt lat="43.51468" lon="6.3606">
        <ele>312</ele>
        <time>2021-11-24T14:12:57.000Z</time>
      </trkpt>
      <trkpt lat="43.51468" lon="6.36059">
        <ele>312</ele>
        <time>2021-11-24T14:12:58.000Z</time>
      </trkpt>
      <trkpt lat="43.51468" lon="6.36059">
        <ele>312</ele>
        <time>2021-11-24T14:12:59.000Z</time>
      </trkpt>
      <trkpt lat="43.51468" lon="6.36058">
        <ele>312</ele>
        <time>2021-11-24T14:13:00.000Z</time>
      </trkpt>
      <trkpt lat="43.51469" lon="6.36058">
        <ele>312</ele>
        <time>2021-11-24T14:13:01.000Z</time>
      </trkpt>
      <trkpt lat="43.51469" lon="6.36057">
        <ele>312</ele>
        <time>2021-11-24T14:13:02.000Z</time>
      </trkpt>
      <trkpt lat="43.51469" lon="6.36056">
        <ele>312</ele>
        <time>2021-11-24T14:13:03.000Z</time>
      </trkpt>
      <trkpt lat="43.51469" lon="6.36055">
        <ele>312</ele>
        <time>2021-11-24T14:13:04.000Z</time>
      </trkpt>
      <trkpt lat="43.51469" lon="6.36054">
        <ele>312</ele>
        <time>2021-11-24T14:13:05.000Z</time>
      </trkpt>
      <trkpt lat="43.5147" lon="6.36054">
        <ele>312</ele>
        <time>2021-11-24T14:13:06.000Z</time>
      </trkpt>
      <trkpt lat="43.5147" lon="6.36053">
        <ele>312</ele>
        <time>2021-11-24T14:13:07.000Z</time>
      </trkpt>
      <trkpt lat="43.5147" lon="6.36053">
        <ele>312</ele>
        <time>2021-11-24T14:13:08.000Z</time>
      </trkpt>
      <trkpt lat="43.5147" lon="6.36052">
        <ele>311</ele>
        <time>2021-11-24T14:13:09.000Z</time>
      </trkpt>
      <trkpt lat="43.5147" lon="6.36051">
        <ele>311</ele>
        <time>2021-11-24T14:13:10.000Z</time>
      </trkpt>
      <trkpt lat="43.51471" lon="6.36051">
        <ele>311</ele>
        <time>2021-11-24T14:13:11.000Z</time>
      </trkpt>
      <trkpt lat="43.51471" lon="6.3605">
        <ele>311</ele>
        <time>2021-11-24T14:13:12.000Z</time>
      </trkpt>
      <trkpt lat="43.51471" lon="6.36049">
        <ele>311</ele>
        <time>2021-11-24T14:13:13.000Z</time>
      </trkpt>
      <trkpt lat="43.51472" lon="6.36048">
        <ele>311</ele>
        <time>2021-11-24T14:13:14.000Z</time>
      </trkpt>
      <trkpt lat="43.51472" lon="6.36048">
        <ele>311</ele>
        <time>2021-11-24T14:13:15.000Z</time>
      </trkpt>
      <trkpt lat="43.51472" lon="6.36047">
        <ele>311</ele>
        <time>2021-11-24T14:13:16.000Z</time>
      </trkpt>
      <trkpt lat="43.51472" lon="6.36047">
        <ele>311</ele>
        <time>2021-11-24T14:13:17.000Z</time>
      </trkpt>
      <trkpt lat="43.51472" lon="6.36047">
        <ele>311</ele>
        <time>2021-11-24T14:13:18.000Z</time>
      </trkpt>
      <trkpt lat="43.51473" lon="6.36046">
        <ele>311</ele>
        <time>2021-11-24T14:13:19.000Z</time>
      </trkpt>
      <trkpt lat="43.51473" lon="6.36046">
        <ele>311</ele>
        <time>2021-11-24T14:13:20.000Z</time>
      </trkpt>
      <trkpt lat="43.51473" lon="6.36046">
        <ele>311</ele>
        <time>2021-11-24T14:13:21.000Z</time>
      </trkpt>
      <trkpt lat="43.51473" lon="6.36046">
        <ele>311</ele>
        <time>2021-11-24T14:13:22.000Z</time>
      </trkpt>
      <trkpt lat="43.51473" lon="6.36045">
        <ele>311</ele>
        <time>2021-11-24T14:13:23.000Z</time>
      </trkpt>
      <trkpt lat="43.51473" lon="6.36045">
        <ele>311</ele>
        <time>2021-11-24T14:13:24.000Z</time>
      </trkpt>
      <trkpt lat="43.51473" lon="6.36045">
        <ele>311</ele>
        <time>2021-11-24T14:13:25.000Z</time>
      </trkpt>
      <trkpt lat="43.51473" lon="6.36045">
        <ele>311</ele>
        <time>2021-11-24T14:13:26.000Z</time>
      </trkpt>
      <trkpt lat="43.51473" lon="6.36045">
        <ele>311</ele>
        <time>2021-11-24T14:13:27.000Z</time>
      </trkpt>
      <trkpt lat="43.51473" lon="6.36044">
        <ele>311</ele>
        <time>2021-11-24T14:13:28.000Z</time>
      </trkpt>
      <trkpt lat="43.51474" lon="6.36042">
        <ele>311</ele>
        <time>2021-11-24T14:13:29.000Z</time>
      </trkpt>
      <trkpt lat="43.51474" lon="6.3604">
        <ele>311</ele>
        <time>2021-11-24T14:13:30.000Z</time>
      </trkpt>
      <trkpt lat="43.51475" lon="6.36037">
        <ele>311</ele>
        <time>2021-11-24T14:13:31.000Z</time>
      </trkpt>
      <trkpt lat="43.51476" lon="6.36036">
        <ele>311</ele>
        <time>2021-11-24T14:13:32.000Z</time>
      </trkpt>
      <trkpt lat="43.51476" lon="6.36036">
        <ele>311</ele>
        <time>2021-11-24T14:13:33.000Z</time>
      </trkpt>
      <trkpt lat="43.51477" lon="6.36035">
        <ele>311</ele>
        <time>2021-11-24T14:13:34.000Z</time>
      </trkpt>
      <trkpt lat="43.51477" lon="6.36035">
        <ele>311</ele>
        <time>2021-11-24T14:13:35.000Z</time>
      </trkpt>
      <trkpt lat="43.51477" lon="6.36035">
        <ele>311</ele>
        <time>2021-11-24T14:13:36.000Z</time>
      </trkpt>
      <trkpt lat="43.51477" lon="6.36035">
        <ele>311</ele>
        <time>2021-11-24T14:13:37.000Z</time>
      </trkpt>
      <trkpt lat="43.51477" lon="6.36035">
        <ele>311</ele>
        <time>2021-11-24T14:13:38.000Z</time>
      </trkpt>
      <trkpt lat="43.51478" lon="6.36035">
        <ele>311</ele>
        <time>2021-11-24T14:13:39.000Z</time>
      </trkpt>
      <trkpt lat="43.51478" lon="6.36035">
        <ele>311</ele>
        <time>2021-11-24T14:13:40.000Z</time>
      </trkpt>
      <trkpt lat="43.51478" lon="6.36035">
        <ele>311</ele>
        <time>2021-11-24T14:13:41.000Z</time>
      </trkpt>
      <trkpt lat="43.51478" lon="6.36035">
        <ele>311</ele>
        <time>2021-11-24T14:13:42.000Z</time>
      </trkpt>
      <trkpt lat="43.51478" lon="6.36035">
        <ele>311</ele>
        <time>2021-11-24T14:13:43.000Z</time>
      </trkpt>
      <trkpt lat="43.51478" lon="6.36035">
        <ele>311</ele>
        <time>2021-11-24T14:13:44.000Z</time>
      </trkpt>
      <trkpt lat="43.51478" lon="6.36035">
        <ele>311</ele>
        <time>2021-11-24T14:13:45.000Z</time>
      </trkpt>
      <trkpt lat="43.51478" lon="6.36035">
        <ele>311</ele>
        <time>2021-11-24T14:13:46.000Z</time>
      </trkpt>
      <trkpt lat="43.51478" lon="6.36035">
        <ele>311</ele>
        <time>2021-11-24T14:13:47.000Z</time>
      </trkpt>
      <trkpt lat="43.51478" lon="6.36035">
        <ele>311</ele>
        <time>2021-11-24T14:13:48.000Z</time>
      </trkpt>
      <trkpt lat="43.51478" lon="6.36035">
        <ele>311</ele>
        <time>2021-11-24T14:13:49.000Z</time>
      </trkpt>
      <trkpt lat="43.51478" lon="6.36034">
        <ele>311</ele>
        <time>2021-11-24T14:13:50.000Z</time>
      </trkpt>
      <trkpt lat="43.51479" lon="6.36033">
        <ele>311</ele>
        <time>2021-11-24T14:13:51.000Z</time>
      </trkpt>
      <trkpt lat="43.5148" lon="6.36031">
        <ele>311</ele>
        <time>2021-11-24T14:13:52.000Z</time>
      </trkpt>
      <trkpt lat="43.5148" lon="6.36029">
        <ele>312</ele>
        <time>2021-11-24T14:13:53.000Z</time>
      </trkpt>
      <trkpt lat="43.51481" lon="6.36028">
        <ele>312</ele>
        <time>2021-11-24T14:13:54.000Z</time>
      </trkpt>
      <trkpt lat="43.51481" lon="6.36026">
        <ele>312</ele>
        <time>2021-11-24T14:13:55.000Z</time>
      </trkpt>
      <trkpt lat="43.51481" lon="6.36024">
        <ele>312</ele>
        <time>2021-11-24T14:13:56.000Z</time>
      </trkpt>
      <trkpt lat="43.51481" lon="6.36022">
        <ele>312</ele>
        <time>2021-11-24T14:13:57.000Z</time>
      </trkpt>
      <trkpt lat="43.51481" lon="6.36021">
        <ele>312</ele>
        <time>2021-11-24T14:13:58.000Z</time>
      </trkpt>
      <trkpt lat="43.51481" lon="6.3602">
        <ele>312</ele>
        <time>2021-11-24T14:13:59.000Z</time>
      </trkpt>
      <trkpt lat="43.51481" lon="6.36018">
        <ele>313</ele>
        <time>2021-11-24T14:14:00.000Z</time>
      </trkpt>
      <trkpt lat="43.51482" lon="6.36016">
        <ele>314</ele>
        <time>2021-11-24T14:14:01.000Z</time>
      </trkpt>
      <trkpt lat="43.51483" lon="6.36013">
        <ele>314</ele>
        <time>2021-11-24T14:14:02.000Z</time>
      </trkpt>
      <trkpt lat="43.51484" lon="6.36011">
        <ele>314</ele>
        <time>2021-11-24T14:14:03.000Z</time>
      </trkpt>
      <trkpt lat="43.51484" lon="6.3601">
        <ele>314</ele>
        <time>2021-11-24T14:14:04.000Z</time>
      </trkpt>
      <trkpt lat="43.51484" lon="6.36009">
        <ele>315</ele>
        <time>2021-11-24T14:14:05.000Z</time>
      </trkpt>
      <trkpt lat="43.51485" lon="6.36008">
        <ele>315</ele>
        <time>2021-11-24T14:14:06.000Z</time>
      </trkpt>
      <trkpt lat="43.51485" lon="6.36006">
        <ele>315</ele>
        <time>2021-11-24T14:14:07.000Z</time>
      </trkpt>
      <trkpt lat="43.51486" lon="6.36005">
        <ele>316</ele>
        <time>2021-11-24T14:14:08.000Z</time>
      </trkpt>
      <trkpt lat="43.51486" lon="6.36003">
        <ele>316</ele>
        <time>2021-11-24T14:14:09.000Z</time>
      </trkpt>
      <trkpt lat="43.51487" lon="6.36003">
        <ele>317</ele>
        <time>2021-11-24T14:14:10.000Z</time>
      </trkpt>
      <trkpt lat="43.51487" lon="6.36002">
        <ele>317</ele>
        <time>2021-11-24T14:14:11.000Z</time>
      </trkpt>
      <trkpt lat="43.51487" lon="6.36001">
        <ele>317</ele>
        <time>2021-11-24T14:14:12.000Z</time>
      </trkpt>
      <trkpt lat="43.51488" lon="6.36">
        <ele>317</ele>
        <time>2021-11-24T14:14:13.000Z</time>
      </trkpt>
      <trkpt lat="43.51488" lon="6.35999">
        <ele>317</ele>
        <time>2021-11-24T14:14:14.000Z</time>
      </trkpt>
      <trkpt lat="43.51488" lon="6.35997">
        <ele>317</ele>
        <time>2021-11-24T14:14:15.000Z</time>
      </trkpt>
      <trkpt lat="43.51488" lon="6.35996">
        <ele>317</ele>
        <time>2021-11-24T14:14:16.000Z</time>
      </trkpt>
      <trkpt lat="43.51488" lon="6.35995">
        <ele>317</ele>
        <time>2021-11-24T14:14:17.000Z</time>
      </trkpt>
      <trkpt lat="43.51488" lon="6.35994">
        <ele>318</ele>
        <time>2021-11-24T14:14:18.000Z</time>
      </trkpt>
      <trkpt lat="43.51488" lon="6.35993">
        <ele>318</ele>
        <time>2021-11-24T14:14:19.000Z</time>
      </trkpt>
      <trkpt lat="43.51488" lon="6.35992">
        <ele>318</ele>
        <time>2021-11-24T14:14:20.000Z</time>
      </trkpt>
      <trkpt lat="43.51488" lon="6.35991">
        <ele>318</ele>
        <time>2021-11-24T14:14:21.000Z</time>
      </trkpt>
      <trkpt lat="43.51488" lon="6.3599">
        <ele>319</ele>
        <time>2021-11-24T14:14:22.000Z</time>
      </trkpt>
      <trkpt lat="43.51488" lon="6.35989">
        <ele>319</ele>
        <time>2021-11-24T14:14:23.000Z</time>
      </trkpt>
      <trkpt lat="43.51487" lon="6.35988">
        <ele>319</ele>
        <time>2021-11-24T14:14:24.000Z</time>
      </trkpt>
      <trkpt lat="43.51487" lon="6.35987">
        <ele>319</ele>
        <time>2021-11-24T14:14:25.000Z</time>
      </trkpt>
      <trkpt lat="43.51487" lon="6.35987">
        <ele>319</ele>
        <time>2021-11-24T14:14:26.000Z</time>
      </trkpt>
      <trkpt lat="43.51487" lon="6.35986">
        <ele>319</ele>
        <time>2021-11-24T14:14:27.000Z</time>
      </trkpt>
      <trkpt lat="43.51486" lon="6.35986">
        <ele>320</ele>
        <time>2021-11-24T14:14:28.000Z</time>
      </trkpt>
      <trkpt lat="43.51485" lon="6.35985">
        <ele>320</ele>
        <time>2021-11-24T14:14:29.000Z</time>
      </trkpt>
      <trkpt lat="43.51485" lon="6.35985">
        <ele>320</ele>
        <time>2021-11-24T14:14:30.000Z</time>
      </trkpt>
      <trkpt lat="43.51484" lon="6.35985">
        <ele>320</ele>
        <time>2021-11-24T14:14:31.000Z</time>
      </trkpt>
      <trkpt lat="43.51484" lon="6.35985">
        <ele>320</ele>
        <time>2021-11-24T14:14:32.000Z</time>
      </trkpt>
      <trkpt lat="43.51484" lon="6.35985">
        <ele>320</ele>
        <time>2021-11-24T14:14:33.000Z</time>
      </trkpt>
      <trkpt lat="43.51484" lon="6.35985">
        <ele>320</ele>
        <time>2021-11-24T14:14:34.000Z</time>
      </trkpt>
      <trkpt lat="43.51483" lon="6.35985">
        <ele>321</ele>
        <time>2021-11-24T14:14:35.000Z</time>
      </trkpt>
      <trkpt lat="43.51483" lon="6.35985">
        <ele>321</ele>
        <time>2021-11-24T14:14:36.000Z</time>
      </trkpt>
      <trkpt lat="43.51483" lon="6.35985">
        <ele>321</ele>
        <time>2021-11-24T14:14:37.000Z</time>
      </trkpt>
      <trkpt lat="43.51483" lon="6.35985">
        <ele>321</ele>
        <time>2021-11-24T14:14:38.000Z</time>
      </trkpt>
      <trkpt lat="43.51483" lon="6.35985">
        <ele>321</ele>
        <time>2021-11-24T14:14:39.000Z</time>
      </trkpt>
      <trkpt lat="43.51483" lon="6.35985">
        <ele>321</ele>
        <time>2021-11-24T14:14:40.000Z</time>
      </trkpt>
      <trkpt lat="43.51483" lon="6.35985">
        <ele>321</ele>
        <time>2021-11-24T14:14:41.000Z</time>
      </trkpt>
      <trkpt lat="43.51483" lon="6.35985">
        <ele>321</ele>
        <time>2021-11-24T14:14:42.000Z</time>
      </trkpt>
      <trkpt lat="43.51483" lon="6.35985">
        <ele>321</ele>
        <time>2021-11-24T14:14:43.000Z</time>
      </trkpt>
      <trkpt lat="43.51483" lon="6.35985">
        <ele>321</ele>
        <time>2021-11-24T14:14:44.000Z</time>
      </trkpt>
      <trkpt lat="43.51483" lon="6.35985">
        <ele>321</ele>
        <time>2021-11-24T14:14:45.000Z</time>
      </trkpt>
      <trkpt lat="43.51483" lon="6.35985">
        <ele>321</ele>
        <time>2021-11-24T14:14:46.000Z</time>
      </trkpt>
      <trkpt lat="43.51483" lon="6.35985">
        <ele>321</ele>
        <time>2021-11-24T14:14:47.000Z</time>
      </trkpt>
      <trkpt lat="43.51483" lon="6.35985">
        <ele>321</ele>
        <time>2021-11-24T14:14:48.000Z</time>
      </trkpt>
      <trkpt lat="43.51483" lon="6.35985">
        <ele>321</ele>
        <time>2021-11-24T14:14:49.000Z</time>
      </trkpt>
      <trkpt lat="43.51483" lon="6.35985">
        <ele>321</ele>
        <time>2021-11-24T14:14:50.000Z</time>
      </trkpt>
      <trkpt lat="43.51483" lon="6.35985">
        <ele>321</ele>
        <time>2021-11-24T14:14:51.000Z</time>
      </trkpt>
      <trkpt lat="43.51483" lon="6.35985">
        <ele>321</ele>
        <time>2021-11-24T14:14:52.000Z</time>
      </trkpt>
      <trkpt lat="43.51483" lon="6.35985">
        <ele>321</ele>
        <time>2021-11-24T14:14:53.000Z</time>
      </trkpt>
      <trkpt lat="43.51483" lon="6.35985">
        <ele>321</ele>
        <time>2021-11-24T14:14:54.000Z</time>
      </trkpt>
      <trkpt lat="43.51483" lon="6.35985">
        <ele>321</ele>
        <time>2021-11-24T14:14:55.000Z</time>
      </trkpt>
      <trkpt lat="43.51483" lon="6.35985">
        <ele>321</ele>
        <time>2021-11-24T14:14:56.000Z</time>
      </trkpt>
      <trkpt lat="43.51483" lon="6.35985">
        <ele>321</ele>
        <time>2021-11-24T14:14:57.000Z</time>
      </trkpt>
      <trkpt lat="43.51483" lon="6.35985">
        <ele>321</ele>
        <time>2021-11-24T14:14:58.000Z</time>
      </trkpt>
      <trkpt lat="43.51482" lon="6.35984">
        <ele>322</ele>
        <time>2021-11-24T14:14:59.000Z</time>
      </trkpt>
      <trkpt lat="43.51482" lon="6.35984">
        <ele>322</ele>
        <time>2021-11-24T14:15:00.000Z</time>
      </trkpt>
      <trkpt lat="43.51482" lon="6.35983">
        <ele>322</ele>
        <time>2021-11-24T14:15:01.000Z</time>
      </trkpt>
      <trkpt lat="43.51482" lon="6.35983">
        <ele>322</ele>
        <time>2021-11-24T14:15:02.000Z</time>
      </trkpt>
      <trkpt lat="43.51482" lon="6.35983">
        <ele>322</ele>
        <time>2021-11-24T14:15:03.000Z</time>
      </trkpt>
      <trkpt lat="43.51481" lon="6.35982">
        <ele>322</ele>
        <time>2021-11-24T14:15:04.000Z</time>
      </trkpt>
      <trkpt lat="43.51481" lon="6.35982">
        <ele>322</ele>
        <time>2021-11-24T14:15:05.000Z</time>
      </trkpt>
      <trkpt lat="43.5148" lon="6.35981">
        <ele>322</ele>
        <time>2021-11-24T14:15:06.000Z</time>
      </trkpt>
      <trkpt lat="43.51479" lon="6.3598">
        <ele>322</ele>
        <time>2021-11-24T14:15:07.000Z</time>
      </trkpt>
      <trkpt lat="43.51478" lon="6.3598">
        <ele>322</ele>
        <time>2021-11-24T14:15:08.000Z</time>
      </trkpt>
      <trkpt lat="43.51477" lon="6.35979">
        <ele>322</ele>
        <time>2021-11-24T14:15:09.000Z</time>
      </trkpt>
      <trkpt lat="43.51476" lon="6.35979">
        <ele>323</ele>
        <time>2021-11-24T14:15:10.000Z</time>
      </trkpt>
      <trkpt lat="43.51475" lon="6.35979">
        <ele>323</ele>
        <time>2021-11-24T14:15:11.000Z</time>
      </trkpt>
      <trkpt lat="43.51475" lon="6.35979">
        <ele>323</ele>
        <time>2021-11-24T14:15:12.000Z</time>
      </trkpt>
      <trkpt lat="43.51474" lon="6.35979">
        <ele>323</ele>
        <time>2021-11-24T14:15:13.000Z</time>
      </trkpt>
      <trkpt lat="43.51474" lon="6.35978">
        <ele>323</ele>
        <time>2021-11-24T14:15:14.000Z</time>
      </trkpt>
      <trkpt lat="43.51473" lon="6.35978">
        <ele>323</ele>
        <time>2021-11-24T14:15:15.000Z</time>
      </trkpt>
      <trkpt lat="43.51471" lon="6.35977">
        <ele>323</ele>
        <time>2021-11-24T14:15:16.000Z</time>
      </trkpt>
      <trkpt lat="43.5147" lon="6.35977">
        <ele>324</ele>
        <time>2021-11-24T14:15:17.000Z</time>
      </trkpt>
      <trkpt lat="43.51469" lon="6.35976">
        <ele>324</ele>
        <time>2021-11-24T14:15:18.000Z</time>
      </trkpt>
      <trkpt lat="43.51468" lon="6.35976">
        <ele>324</ele>
        <time>2021-11-24T14:15:19.000Z</time>
      </trkpt>
      <trkpt lat="43.51467" lon="6.35975">
        <ele>324</ele>
        <time>2021-11-24T14:15:20.000Z</time>
      </trkpt>
      <trkpt lat="43.51466" lon="6.35974">
        <ele>324</ele>
        <time>2021-11-24T14:15:21.000Z</time>
      </trkpt>
      <trkpt lat="43.51465" lon="6.35974">
        <ele>324</ele>
        <time>2021-11-24T14:15:22.000Z</time>
      </trkpt>
      <trkpt lat="43.51463" lon="6.35973">
        <ele>324</ele>
        <time>2021-11-24T14:15:23.000Z</time>
      </trkpt>
      <trkpt lat="43.51462" lon="6.35972">
        <ele>325</ele>
        <time>2021-11-24T14:15:24.000Z</time>
      </trkpt>
      <trkpt lat="43.5146" lon="6.35972">
        <ele>325</ele>
        <time>2021-11-24T14:15:25.000Z</time>
      </trkpt>
      <trkpt lat="43.51458" lon="6.35971">
        <ele>325</ele>
        <time>2021-11-24T14:15:26.000Z</time>
      </trkpt>
      <trkpt lat="43.51457" lon="6.3597">
        <ele>325</ele>
        <time>2021-11-24T14:15:27.000Z</time>
      </trkpt>
      <trkpt lat="43.51456" lon="6.35969">
        <ele>325</ele>
        <time>2021-11-24T14:15:28.000Z</time>
      </trkpt>
      <trkpt lat="43.51456" lon="6.35969">
        <ele>325</ele>
        <time>2021-11-24T14:15:29.000Z</time>
      </trkpt>
      <trkpt lat="43.51455" lon="6.35968">
        <ele>325</ele>
        <time>2021-11-24T14:15:30.000Z</time>
      </trkpt>
      <trkpt lat="43.51455" lon="6.35968">
        <ele>326</ele>
        <time>2021-11-24T14:15:31.000Z</time>
      </trkpt>
      <trkpt lat="43.51455" lon="6.35967">
        <ele>326</ele>
        <time>2021-11-24T14:15:32.000Z</time>
      </trkpt>
      <trkpt lat="43.51455" lon="6.35967">
        <ele>326</ele>
        <time>2021-11-24T14:15:33.000Z</time>
      </trkpt>
      <trkpt lat="43.51454" lon="6.35967">
        <ele>326</ele>
        <time>2021-11-24T14:15:34.000Z</time>
      </trkpt>
      <trkpt lat="43.51454" lon="6.35966">
        <ele>326</ele>
        <time>2021-11-24T14:15:35.000Z</time>
      </trkpt>
      <trkpt lat="43.51454" lon="6.35966">
        <ele>326</ele>
        <time>2021-11-24T14:15:36.000Z</time>
      </trkpt>
      <trkpt lat="43.51454" lon="6.35966">
        <ele>326</ele>
        <time>2021-11-24T14:15:37.000Z</time>
      </trkpt>
      <trkpt lat="43.51454" lon="6.35966">
        <ele>326</ele>
        <time>2021-11-24T14:15:38.000Z</time>
      </trkpt>
      <trkpt lat="43.51454" lon="6.35966">
        <ele>326</ele>
        <time>2021-11-24T14:15:39.000Z</time>
      </trkpt>
      <trkpt lat="43.51453" lon="6.35965">
        <ele>326</ele>
        <time>2021-11-24T14:15:40.000Z</time>
      </trkpt>
      <trkpt lat="43.51453" lon="6.35965">
        <ele>326</ele>
        <time>2021-11-24T14:15:41.000Z</time>
      </trkpt>
      <trkpt lat="43.51453" lon="6.35965">
        <ele>326</ele>
        <time>2021-11-24T14:15:42.000Z</time>
      </trkpt>
      <trkpt lat="43.51453" lon="6.35965">
        <ele>326</ele>
        <time>2021-11-24T14:15:43.000Z</time>
      </trkpt>
      <trkpt lat="43.51453" lon="6.35965">
        <ele>326</ele>
        <time>2021-11-24T14:15:44.000Z</time>
      </trkpt>
      <trkpt lat="43.51453" lon="6.35965">
        <ele>326</ele>
        <time>2021-11-24T14:15:45.000Z</time>
      </trkpt>
      <trkpt lat="43.51453" lon="6.35965">
        <ele>326</ele>
        <time>2021-11-24T14:15:46.000Z</time>
      </trkpt>
      <trkpt lat="43.51453" lon="6.35965">
        <ele>326</ele>
        <time>2021-11-24T14:15:47.000Z</time>
      </trkpt>
      <trkpt lat="43.51453" lon="6.35965">
        <ele>326</ele>
        <time>2021-11-24T14:15:48.000Z</time>
      </trkpt>
      <trkpt lat="43.51452" lon="6.35964">
        <ele>326</ele>
        <time>2021-11-24T14:15:49.000Z</time>
      </trkpt>
      <trkpt lat="43.51452" lon="6.35963">
        <ele>326</ele>
        <time>2021-11-24T14:15:50.000Z</time>
      </trkpt>
      <trkpt lat="43.51453" lon="6.35961">
        <ele>326</ele>
        <time>2021-11-24T14:15:51.000Z</time>
      </trkpt>
      <trkpt lat="43.51453" lon="6.3596">
        <ele>326</ele>
        <time>2021-11-24T14:15:52.000Z</time>
      </trkpt>
      <trkpt lat="43.51453" lon="6.35958">
        <ele>326</ele>
        <time>2021-11-24T14:15:53.000Z</time>
      </trkpt>
      <trkpt lat="43.51453" lon="6.35956">
        <ele>326</ele>
        <time>2021-11-24T14:15:54.000Z</time>
      </trkpt>
      <trkpt lat="43.51454" lon="6.35954">
        <ele>326</ele>
        <time>2021-11-24T14:15:55.000Z</time>
      </trkpt>
      <trkpt lat="43.51453" lon="6.35952">
        <ele>326</ele>
        <time>2021-11-24T14:15:56.000Z</time>
      </trkpt>
      <trkpt lat="43.51453" lon="6.35951">
        <ele>326</ele>
        <time>2021-11-24T14:15:57.000Z</time>
      </trkpt>
      <trkpt lat="43.51453" lon="6.35949">
        <ele>325</ele>
        <time>2021-11-24T14:15:58.000Z</time>
      </trkpt>
      <trkpt lat="43.51453" lon="6.35947">
        <ele>325</ele>
        <time>2021-11-24T14:15:59.000Z</time>
      </trkpt>
      <trkpt lat="43.51452" lon="6.35946">
        <ele>325</ele>
        <time>2021-11-24T14:16:00.000Z</time>
      </trkpt>
      <trkpt lat="43.51452" lon="6.35945">
        <ele>325</ele>
        <time>2021-11-24T14:16:01.000Z</time>
      </trkpt>
      <trkpt lat="43.51452" lon="6.35944">
        <ele>325</ele>
        <time>2021-11-24T14:16:02.000Z</time>
      </trkpt>
      <trkpt lat="43.51451" lon="6.35943">
        <ele>325</ele>
        <time>2021-11-24T14:16:03.000Z</time>
      </trkpt>
      <trkpt lat="43.51451" lon="6.35942">
        <ele>326</ele>
        <time>2021-11-24T14:16:04.000Z</time>
      </trkpt>
      <trkpt lat="43.51451" lon="6.35941">
        <ele>326</ele>
        <time>2021-11-24T14:16:05.000Z</time>
      </trkpt>
      <trkpt lat="43.51451" lon="6.3594">
        <ele>326</ele>
        <time>2021-11-24T14:16:06.000Z</time>
      </trkpt>
      <trkpt lat="43.5145" lon="6.35939">
        <ele>326</ele>
        <time>2021-11-24T14:16:07.000Z</time>
      </trkpt>
      <trkpt lat="43.5145" lon="6.35938">
        <ele>327</ele>
        <time>2021-11-24T14:16:08.000Z</time>
      </trkpt>
      <trkpt lat="43.51449" lon="6.35937">
        <ele>327</ele>
        <time>2021-11-24T14:16:09.000Z</time>
      </trkpt>
      <trkpt lat="43.51449" lon="6.35935">
        <ele>327</ele>
        <time>2021-11-24T14:16:10.000Z</time>
      </trkpt>
      <trkpt lat="43.51448" lon="6.35934">
        <ele>327</ele>
        <time>2021-11-24T14:16:11.000Z</time>
      </trkpt>
      <trkpt lat="43.51448" lon="6.35933">
        <ele>327</ele>
        <time>2021-11-24T14:16:12.000Z</time>
      </trkpt>
      <trkpt lat="43.51447" lon="6.35933">
        <ele>327</ele>
        <time>2021-11-24T14:16:13.000Z</time>
      </trkpt>
      <trkpt lat="43.51447" lon="6.35932">
        <ele>327</ele>
        <time>2021-11-24T14:16:14.000Z</time>
      </trkpt>
      <trkpt lat="43.51447" lon="6.35931">
        <ele>327</ele>
        <time>2021-11-24T14:16:15.000Z</time>
      </trkpt>
      <trkpt lat="43.51446" lon="6.35931">
        <ele>327</ele>
        <time>2021-11-24T14:16:16.000Z</time>
      </trkpt>
      <trkpt lat="43.51446" lon="6.3593">
        <ele>328</ele>
        <time>2021-11-24T14:16:17.000Z</time>
      </trkpt>
      <trkpt lat="43.51446" lon="6.35929">
        <ele>328</ele>
        <time>2021-11-24T14:16:18.000Z</time>
      </trkpt>
      <trkpt lat="43.51445" lon="6.35928">
        <ele>329</ele>
        <time>2021-11-24T14:16:19.000Z</time>
      </trkpt>
      <trkpt lat="43.51443" lon="6.35927">
        <ele>329</ele>
        <time>2021-11-24T14:16:20.000Z</time>
      </trkpt>
      <trkpt lat="43.51442" lon="6.35926">
        <ele>329</ele>
        <time>2021-11-24T14:16:21.000Z</time>
      </trkpt>
      <trkpt lat="43.51441" lon="6.35926">
        <ele>330</ele>
        <time>2021-11-24T14:16:22.000Z</time>
      </trkpt>
      <trkpt lat="43.51441" lon="6.35926">
        <ele>330</ele>
        <time>2021-11-24T14:16:23.000Z</time>
      </trkpt>
      <trkpt lat="43.5144" lon="6.35926">
        <ele>330</ele>
        <time>2021-11-24T14:16:24.000Z</time>
      </trkpt>
      <trkpt lat="43.5144" lon="6.35926">
        <ele>331</ele>
        <time>2021-11-24T14:16:25.000Z</time>
      </trkpt>
      <trkpt lat="43.5144" lon="6.35926">
        <ele>331</ele>
        <time>2021-11-24T14:16:26.000Z</time>
      </trkpt>
      <trkpt lat="43.51439" lon="6.35926">
        <ele>331</ele>
        <time>2021-11-24T14:16:27.000Z</time>
      </trkpt>
      <trkpt lat="43.51439" lon="6.35927">
        <ele>331</ele>
        <time>2021-11-24T14:16:28.000Z</time>
      </trkpt>
      <trkpt lat="43.51438" lon="6.35927">
        <ele>331</ele>
        <time>2021-11-24T14:16:29.000Z</time>
      </trkpt>
      <trkpt lat="43.51438" lon="6.35927">
        <ele>333</ele>
        <time>2021-11-24T14:16:30.000Z</time>
      </trkpt>
      <trkpt lat="43.51437" lon="6.35928">
        <ele>333</ele>
        <time>2021-11-24T14:16:31.000Z</time>
      </trkpt>
      <trkpt lat="43.51436" lon="6.35928">
        <ele>334</ele>
        <time>2021-11-24T14:16:32.000Z</time>
      </trkpt>
      <trkpt lat="43.51435" lon="6.35929">
        <ele>334</ele>
        <time>2021-11-24T14:16:33.000Z</time>
      </trkpt>
      <trkpt lat="43.51434" lon="6.35929">
        <ele>334</ele>
        <time>2021-11-24T14:16:34.000Z</time>
      </trkpt>
      <trkpt lat="43.51433" lon="6.35928">
        <ele>334</ele>
        <time>2021-11-24T14:16:35.000Z</time>
      </trkpt>
      <trkpt lat="43.51432" lon="6.35928">
        <ele>334</ele>
        <time>2021-11-24T14:16:36.000Z</time>
      </trkpt>
      <trkpt lat="43.51431" lon="6.35928">
        <ele>334</ele>
        <time>2021-11-24T14:16:37.000Z</time>
      </trkpt>
      <trkpt lat="43.51431" lon="6.35928">
        <ele>334</ele>
        <time>2021-11-24T14:16:38.000Z</time>
      </trkpt>
      <trkpt lat="43.5143" lon="6.35927">
        <ele>334</ele>
        <time>2021-11-24T14:16:39.000Z</time>
      </trkpt>
      <trkpt lat="43.5143" lon="6.35927">
        <ele>334</ele>
        <time>2021-11-24T14:16:40.000Z</time>
      </trkpt>
      <trkpt lat="43.51429" lon="6.35927">
        <ele>334</ele>
        <time>2021-11-24T14:16:41.000Z</time>
      </trkpt>
      <trkpt lat="43.51429" lon="6.35927">
        <ele>335</ele>
        <time>2021-11-24T14:16:42.000Z</time>
      </trkpt>
      <trkpt lat="43.51429" lon="6.35927">
        <ele>335</ele>
        <time>2021-11-24T14:16:43.000Z</time>
      </trkpt>
      <trkpt lat="43.51428" lon="6.35927">
        <ele>335</ele>
        <time>2021-11-24T14:16:44.000Z</time>
      </trkpt>
      <trkpt lat="43.51428" lon="6.35927">
        <ele>335</ele>
        <time>2021-11-24T14:16:45.000Z</time>
      </trkpt>
      <trkpt lat="43.51428" lon="6.35927">
        <ele>335</ele>
        <time>2021-11-24T14:16:46.000Z</time>
      </trkpt>
      <trkpt lat="43.51428" lon="6.35927">
        <ele>335</ele>
        <time>2021-11-24T14:16:47.000Z</time>
      </trkpt>
      <trkpt lat="43.51428" lon="6.35927">
        <ele>335</ele>
        <time>2021-11-24T14:16:48.000Z</time>
      </trkpt>
      <trkpt lat="43.51428" lon="6.35927">
        <ele>335</ele>
        <time>2021-11-24T14:16:49.000Z</time>
      </trkpt>
      <trkpt lat="43.51428" lon="6.35927">
        <ele>335</ele>
        <time>2021-11-24T14:16:50.000Z</time>
      </trkpt>
      <trkpt lat="43.51428" lon="6.35927">
        <ele>335</ele>
        <time>2021-11-24T14:16:51.000Z</time>
      </trkpt>
      <trkpt lat="43.51428" lon="6.35927">
        <ele>335</ele>
        <time>2021-11-24T14:16:52.000Z</time>
      </trkpt>
      <trkpt lat="43.51428" lon="6.35927">
        <ele>335</ele>
        <time>2021-11-24T14:16:53.000Z</time>
      </trkpt>
      <trkpt lat="43.51428" lon="6.35927">
        <ele>335</ele>
        <time>2021-11-24T14:16:54.000Z</time>
      </trkpt>
      <trkpt lat="43.51428" lon="6.35927">
        <ele>335</ele>
        <time>2021-11-24T14:16:55.000Z</time>
      </trkpt>
      <trkpt lat="43.51428" lon="6.35927">
        <ele>335</ele>
        <time>2021-11-24T14:16:56.000Z</time>
      </trkpt>
      <trkpt lat="43.51428" lon="6.35927">
        <ele>335</ele>
        <time>2021-11-24T14:16:57.000Z</time>
      </trkpt>
      <trkpt lat="43.51428" lon="6.35927">
        <ele>335</ele>
        <time>2021-11-24T14:16:58.000Z</time>
      </trkpt>
      <trkpt lat="43.51428" lon="6.35927">
        <ele>335</ele>
        <time>2021-11-24T14:16:59.000Z</time>
      </trkpt>
      <trkpt lat="43.51428" lon="6.35927">
        <ele>335</ele>
        <time>2021-11-24T14:17:00.000Z</time>
      </trkpt>
      <trkpt lat="43.51428" lon="6.35927">
        <ele>335</ele>
        <time>2021-11-24T14:17:01.000Z</time>
      </trkpt>
      <trkpt lat="43.51428" lon="6.35927">
        <ele>335</ele>
        <time>2021-11-24T14:17:02.000Z</time>
      </trkpt>
      <trkpt lat="43.51428" lon="6.35927">
        <ele>335</ele>
        <time>2021-11-24T14:17:03.000Z</time>
      </trkpt>
      <trkpt lat="43.51428" lon="6.35927">
        <ele>335</ele>
        <time>2021-11-24T14:17:04.000Z</time>
      </trkpt>
      <trkpt lat="43.51428" lon="6.35927">
        <ele>335</ele>
        <time>2021-11-24T14:17:05.000Z</time>
      </trkpt>
      <trkpt lat="43.51428" lon="6.35927">
        <ele>335</ele>
        <time>2021-11-24T14:17:06.000Z</time>
      </trkpt>
      <trkpt lat="43.51428" lon="6.35927">
        <ele>335</ele>
        <time>2021-11-24T14:17:07.000Z</time>
      </trkpt>
      <trkpt lat="43.51428" lon="6.35927">
        <ele>335</ele>
        <time>2021-11-24T14:17:08.000Z</time>
      </trkpt>
      <trkpt lat="43.51428" lon="6.35927">
        <ele>335</ele>
        <time>2021-11-24T14:17:09.000Z</time>
      </trkpt>
      <trkpt lat="43.51428" lon="6.35927">
        <ele>335</ele>
        <time>2021-11-24T14:17:10.000Z</time>
      </trkpt>
      <trkpt lat="43.51428" lon="6.35927">
        <ele>335</ele>
        <time>2021-11-24T14:17:11.000Z</time>
      </trkpt>
      <trkpt lat="43.51428" lon="6.35927">
        <ele>335</ele>
        <time>2021-11-24T14:17:12.000Z</time>
      </trkpt>
      <trkpt lat="43.51428" lon="6.35927">
        <ele>335</ele>
        <time>2021-11-24T14:17:13.000Z</time>
      </trkpt>
      <trkpt lat="43.51428" lon="6.35927">
        <ele>335</ele>
        <time>2021-11-24T14:17:14.000Z</time>
      </trkpt>
      <trkpt lat="43.51428" lon="6.35927">
        <ele>335</ele>
        <time>2021-11-24T14:17:15.000Z</time>
      </trkpt>
      <trkpt lat="43.51428" lon="6.35927">
        <ele>335</ele>
        <time>2021-11-24T14:17:16.000Z</time>
      </trkpt>
      <trkpt lat="43.51428" lon="6.35927">
        <ele>335</ele>
        <time>2021-11-24T14:17:17.000Z</time>
      </trkpt>
      <trkpt lat="43.51428" lon="6.35927">
        <ele>335</ele>
        <time>2021-11-24T14:17:18.000Z</time>
      </trkpt>
      <trkpt lat="43.51428" lon="6.35927">
        <ele>335</ele>
        <time>2021-11-24T14:17:19.000Z</time>
      </trkpt>
      <trkpt lat="43.51428" lon="6.35927">
        <ele>335</ele>
        <time>2021-11-24T14:17:20.000Z</time>
      </trkpt>
      <trkpt lat="43.51428" lon="6.35927">
        <ele>335</ele>
        <time>2021-11-24T14:17:21.000Z</time>
      </trkpt>
      <trkpt lat="43.51428" lon="6.35927">
        <ele>335</ele>
        <time>2021-11-24T14:17:22.000Z</time>
      </trkpt>
      <trkpt lat="43.51428" lon="6.35927">
        <ele>335</ele>
        <time>2021-11-24T14:17:23.000Z</time>
      </trkpt>
      <trkpt lat="43.51428" lon="6.35927">
        <ele>335</ele>
        <time>2021-11-24T14:17:24.000Z</time>
      </trkpt>
      <trkpt lat="43.51428" lon="6.35927">
        <ele>335</ele>
        <time>2021-11-24T14:17:25.000Z</time>
      </trkpt>
      <trkpt lat="43.51428" lon="6.35927">
        <ele>335</ele>
        <time>2021-11-24T14:17:26.000Z</time>
      </trkpt>
      <trkpt lat="43.51428" lon="6.35927">
        <ele>335</ele>
        <time>2021-11-24T14:17:27.000Z</time>
      </trkpt>
      <trkpt lat="43.51428" lon="6.35927">
        <ele>335</ele>
        <time>2021-11-24T14:17:28.000Z</time>
      </trkpt>
      <trkpt lat="43.51428" lon="6.35927">
        <ele>335</ele>
        <time>2021-11-24T14:17:29.000Z</time>
      </trkpt>
      <trkpt lat="43.51428" lon="6.35927">
        <ele>335</ele>
        <time>2021-11-24T14:17:30.000Z</time>
      </trkpt>
      <trkpt lat="43.51428" lon="6.35927">
        <ele>335</ele>
        <time>2021-11-24T14:17:31.000Z</time>
      </trkpt>
      <trkpt lat="43.51428" lon="6.35927">
        <ele>335</ele>
        <time>2021-11-24T14:17:32.000Z</time>
      </trkpt>
      <trkpt lat="43.51428" lon="6.35927">
        <ele>335</ele>
        <time>2021-11-24T14:17:33.000Z</time>
      </trkpt>
      <trkpt lat="43.51428" lon="6.35927">
        <ele>335</ele>
        <time>2021-11-24T14:17:34.000Z</time>
      </trkpt>
      <trkpt lat="43.51428" lon="6.35927">
        <ele>335</ele>
        <time>2021-11-24T14:17:35.000Z</time>
      </trkpt>
      <trkpt lat="43.51428" lon="6.35927">
        <ele>335</ele>
        <time>2021-11-24T14:17:36.000Z</time>
      </trkpt>
      <trkpt lat="43.51428" lon="6.35927">
        <ele>335</ele>
        <time>2021-11-24T14:17:37.000Z</time>
      </trkpt>
      <trkpt lat="43.51428" lon="6.35927">
        <ele>335</ele>
        <time>2021-11-24T14:17:38.000Z</time>
      </trkpt>
      <trkpt lat="43.51428" lon="6.35927">
        <ele>335</ele>
        <time>2021-11-24T14:17:39.000Z</time>
      </trkpt>
      <trkpt lat="43.51428" lon="6.35927">
        <ele>335</ele>
        <time>2021-11-24T14:17:40.000Z</time>
      </trkpt>
      <trkpt lat="43.51428" lon="6.35927">
        <ele>335</ele>
        <time>2021-11-24T14:17:41.000Z</time>
      </trkpt>
      <trkpt lat="43.51428" lon="6.35927">
        <ele>335</ele>
        <time>2021-11-24T14:17:42.000Z</time>
      </trkpt>
      <trkpt lat="43.51428" lon="6.35927">
        <ele>335</ele>
        <time>2021-11-24T14:17:43.000Z</time>
      </trkpt>
      <trkpt lat="43.51428" lon="6.35927">
        <ele>335</ele>
        <time>2021-11-24T14:17:44.000Z</time>
      </trkpt>
      <trkpt lat="43.51428" lon="6.35927">
        <ele>335</ele>
        <time>2021-11-24T14:17:45.000Z</time>
      </trkpt>
      <trkpt lat="43.51428" lon="6.35927">
        <ele>335</ele>
        <time>2021-11-24T14:17:46.000Z</time>
      </trkpt>
      <trkpt lat="43.51428" lon="6.35927">
        <ele>335</ele>
        <time>2021-11-24T14:17:47.000Z</time>
      </trkpt>
      <trkpt lat="43.51426" lon="6.35926">
        <ele>335</ele>
        <time>2021-11-24T14:17:48.000Z</time>
      </trkpt>
      <trkpt lat="43.51425" lon="6.35926">
        <ele>335</ele>
        <time>2021-11-24T14:17:49.000Z</time>
      </trkpt>
      <trkpt lat="43.51425" lon="6.35925">
        <ele>335</ele>
        <time>2021-11-24T14:17:50.000Z</time>
      </trkpt>
      <trkpt lat="43.51425" lon="6.35925">
        <ele>335</ele>
        <time>2021-11-24T14:17:51.000Z</time>
      </trkpt>
      <trkpt lat="43.51425" lon="6.35925">
        <ele>335</ele>
        <time>2021-11-24T14:17:52.000Z</time>
      </trkpt>
      <trkpt lat="43.51425" lon="6.35925">
        <ele>335</ele>
        <time>2021-11-24T14:17:53.000Z</time>
      </trkpt>
      <trkpt lat="43.51425" lon="6.35925">
        <ele>335</ele>
        <time>2021-11-24T14:17:54.000Z</time>
      </trkpt>
      <trkpt lat="43.51425" lon="6.35925">
        <ele>335</ele>
        <time>2021-11-24T14:17:55.000Z</time>
      </trkpt>
      <trkpt lat="43.51425" lon="6.35924">
        <ele>335</ele>
        <time>2021-11-24T14:17:56.000Z</time>
      </trkpt>
      <trkpt lat="43.51425" lon="6.35924">
        <ele>335</ele>
        <time>2021-11-24T14:17:57.000Z</time>
      </trkpt>
      <trkpt lat="43.51425" lon="6.35924">
        <ele>335</ele>
        <time>2021-11-24T14:17:58.000Z</time>
      </trkpt>
      <trkpt lat="43.51425" lon="6.35924">
        <ele>335</ele>
        <time>2021-11-24T14:17:59.000Z</time>
      </trkpt>
      <trkpt lat="43.51425" lon="6.35924">
        <ele>335</ele>
        <time>2021-11-24T14:18:00.000Z</time>
      </trkpt>
      <trkpt lat="43.51425" lon="6.35924">
        <ele>335</ele>
        <time>2021-11-24T14:18:01.000Z</time>
      </trkpt>
      <trkpt lat="43.51425" lon="6.35924">
        <ele>335</ele>
        <time>2021-11-24T14:18:02.000Z</time>
      </trkpt>
      <trkpt lat="43.51425" lon="6.35924">
        <ele>335</ele>
        <time>2021-11-24T14:18:03.000Z</time>
      </trkpt>
      <trkpt lat="43.51425" lon="6.35924">
        <ele>335</ele>
        <time>2021-11-24T14:18:04.000Z</time>
      </trkpt>
      <trkpt lat="43.51425" lon="6.35924">
        <ele>335</ele>
        <time>2021-11-24T14:18:05.000Z</time>
      </trkpt>
      <trkpt lat="43.51425" lon="6.35924">
        <ele>335</ele>
        <time>2021-11-24T14:18:06.000Z</time>
      </trkpt>
      <trkpt lat="43.51425" lon="6.35924">
        <ele>335</ele>
        <time>2021-11-24T14:18:07.000Z</time>
      </trkpt>
      <trkpt lat="43.51425" lon="6.35924">
        <ele>335</ele>
        <time>2021-11-24T14:18:08.000Z</time>
      </trkpt>
      <trkpt lat="43.51425" lon="6.35924">
        <ele>335</ele>
        <time>2021-11-24T14:18:09.000Z</time>
      </trkpt>
      <trkpt lat="43.51425" lon="6.35924">
        <ele>335</ele>
        <time>2021-11-24T14:18:10.000Z</time>
      </trkpt>
      <trkpt lat="43.51425" lon="6.35924">
        <ele>335</ele>
        <time>2021-11-24T14:18:11.000Z</time>
      </trkpt>
      <trkpt lat="43.51425" lon="6.35924">
        <ele>335</ele>
        <time>2021-11-24T14:18:12.000Z</time>
      </trkpt>
      <trkpt lat="43.51425" lon="6.35924">
        <ele>335</ele>
        <time>2021-11-24T14:18:13.000Z</time>
      </trkpt>
      <trkpt lat="43.51425" lon="6.35924">
        <ele>335</ele>
        <time>2021-11-24T14:18:14.000Z</time>
      </trkpt>
      <trkpt lat="43.51425" lon="6.35924">
        <ele>335</ele>
        <time>2021-11-24T14:18:15.000Z</time>
      </trkpt>
      <trkpt lat="43.51425" lon="6.35924">
        <ele>335</ele>
        <time>2021-11-24T14:18:16.000Z</time>
      </trkpt>
      <trkpt lat="43.51425" lon="6.35924">
        <ele>335</ele>
        <time>2021-11-24T14:18:17.000Z</time>
      </trkpt>
      <trkpt lat="43.51425" lon="6.35924">
        <ele>335</ele>
        <time>2021-11-24T14:18:18.000Z</time>
      </trkpt>
      <trkpt lat="43.51425" lon="6.35924">
        <ele>335</ele>
        <time>2021-11-24T14:18:19.000Z</time>
      </trkpt>
      <trkpt lat="43.51425" lon="6.35924">
        <ele>335</ele>
        <time>2021-11-24T14:18:20.000Z</time>
      </trkpt>
      <trkpt lat="43.51425" lon="6.35924">
        <ele>335</ele>
        <time>2021-11-24T14:18:21.000Z</time>
      </trkpt>
      <trkpt lat="43.51425" lon="6.35924">
        <ele>335</ele>
        <time>2021-11-24T14:18:22.000Z</time>
      </trkpt>
      <trkpt lat="43.51425" lon="6.35924">
        <ele>335</ele>
        <time>2021-11-24T14:18:23.000Z</time>
      </trkpt>
      <trkpt lat="43.51425" lon="6.35924">
        <ele>335</ele>
        <time>2021-11-24T14:18:24.000Z</time>
      </trkpt>
      <trkpt lat="43.51425" lon="6.35924">
        <ele>335</ele>
        <time>2021-11-24T14:18:25.000Z</time>
      </trkpt>
      <trkpt lat="43.51425" lon="6.35924">
        <ele>335</ele>
        <time>2021-11-24T14:18:26.000Z</time>
      </trkpt>
      <trkpt lat="43.51425" lon="6.35924">
        <ele>335</ele>
        <time>2021-11-24T14:18:27.000Z</time>
      </trkpt>
      <trkpt lat="43.51425" lon="6.35924">
        <ele>335</ele>
        <time>2021-11-24T14:18:28.000Z</time>
      </trkpt>
      <trkpt lat="43.51425" lon="6.35924">
        <ele>335</ele>
        <time>2021-11-24T14:18:29.000Z</time>
      </trkpt>
      <trkpt lat="43.51425" lon="6.35924">
        <ele>335</ele>
        <time>2021-11-24T14:18:30.000Z</time>
      </trkpt>
      <trkpt lat="43.51425" lon="6.35924">
        <ele>335</ele>
        <time>2021-11-24T14:18:31.000Z</time>
      </trkpt>
      <trkpt lat="43.51425" lon="6.35924">
        <ele>335</ele>
        <time>2021-11-24T14:18:32.000Z</time>
      </trkpt>
      <trkpt lat="43.51425" lon="6.35924">
        <ele>335</ele>
        <time>2021-11-24T14:18:33.000Z</time>
      </trkpt>
      <trkpt lat="43.51425" lon="6.35924">
        <ele>335</ele>
        <time>2021-11-24T14:18:34.000Z</time>
      </trkpt>
      <trkpt lat="43.51425" lon="6.35924">
        <ele>335</ele>
        <time>2021-11-24T14:18:35.000Z</time>
      </trkpt>
      <trkpt lat="43.51425" lon="6.35924">
        <ele>335</ele>
        <time>2021-11-24T14:18:36.000Z</time>
      </trkpt>
      <trkpt lat="43.51425" lon="6.35924">
        <ele>335</ele>
        <time>2021-11-24T14:18:37.000Z</time>
      </trkpt>
      <trkpt lat="43.51425" lon="6.35924">
        <ele>335</ele>
        <time>2021-11-24T14:18:38.000Z</time>
      </trkpt>
      <trkpt lat="43.51425" lon="6.35924">
        <ele>335</ele>
        <time>2021-11-24T14:18:39.000Z</time>
      </trkpt>
      <trkpt lat="43.51425" lon="6.35924">
        <ele>335</ele>
        <time>2021-11-24T14:18:40.000Z</time>
      </trkpt>
      <trkpt lat="43.51425" lon="6.35924">
        <ele>335</ele>
        <time>2021-11-24T14:18:41.000Z</time>
      </trkpt>
      <trkpt lat="43.51425" lon="6.35924">
        <ele>335</ele>
        <time>2021-11-24T14:18:42.000Z</time>
      </trkpt>
      <trkpt lat="43.51425" lon="6.35924">
        <ele>335</ele>
        <time>2021-11-24T14:18:43.000Z</time>
      </trkpt>
      <trkpt lat="43.51425" lon="6.35924">
        <ele>335</ele>
        <time>2021-11-24T14:18:44.000Z</time>
      </trkpt>
      <trkpt lat="43.51425" lon="6.35924">
        <ele>335</ele>
        <time>2021-11-24T14:18:45.000Z</time>
      </trkpt>
      <trkpt lat="43.51425" lon="6.35924">
        <ele>335</ele>
        <time>2021-11-24T14:18:46.000Z</time>
      </trkpt>
      <trkpt lat="43.51425" lon="6.35924">
        <ele>335</ele>
        <time>2021-11-24T14:18:47.000Z</time>
      </trkpt>
      <trkpt lat="43.51425" lon="6.35924">
        <ele>335</ele>
        <time>2021-11-24T14:18:48.000Z</time>
      </trkpt>
      <trkpt lat="43.51425" lon="6.35924">
        <ele>335</ele>
        <time>2021-11-24T14:18:49.000Z</time>
      </trkpt>
      <trkpt lat="43.51425" lon="6.35924">
        <ele>335</ele>
        <time>2021-11-24T14:18:50.000Z</time>
      </trkpt>
      <trkpt lat="43.51425" lon="6.35924">
        <ele>335</ele>
        <time>2021-11-24T14:18:51.000Z</time>
      </trkpt>
      <trkpt lat="43.51425" lon="6.35924">
        <ele>335</ele>
        <time>2021-11-24T14:18:52.000Z</time>
      </trkpt>
      <trkpt lat="43.51425" lon="6.35924">
        <ele>335</ele>
        <time>2021-11-24T14:18:53.000Z</time>
      </trkpt>
      <trkpt lat="43.51425" lon="6.35924">
        <ele>335</ele>
        <time>2021-11-24T14:18:54.000Z</time>
      </trkpt>
      <trkpt lat="43.51425" lon="6.35924">
        <ele>335</ele>
        <time>2021-11-24T14:18:55.000Z</time>
      </trkpt>
      <trkpt lat="43.51425" lon="6.35924">
        <ele>335</ele>
        <time>2021-11-24T14:18:56.000Z</time>
      </trkpt>
      <trkpt lat="43.51425" lon="6.35924">
        <ele>335</ele>
        <time>2021-11-24T14:18:57.000Z</time>
      </trkpt>
      <trkpt lat="43.51425" lon="6.35924">
        <ele>335</ele>
        <time>2021-11-24T14:18:58.000Z</time>
      </trkpt>
      <trkpt lat="43.51425" lon="6.35924">
        <ele>334</ele>
        <time>2021-11-24T14:18:59.000Z</time>
      </trkpt>
      <trkpt lat="43.51425" lon="6.35924">
        <ele>334</ele>
        <time>2021-11-24T14:19:00.000Z</time>
      </trkpt>
      <trkpt lat="43.51425" lon="6.35924">
        <ele>334</ele>
        <time>2021-11-24T14:19:01.000Z</time>
      </trkpt>
      <trkpt lat="43.51425" lon="6.35924">
        <ele>334</ele>
        <time>2021-11-24T14:19:02.000Z</time>
      </trkpt>
      <trkpt lat="43.51425" lon="6.35924">
        <ele>334</ele>
        <time>2021-11-24T14:19:03.000Z</time>
      </trkpt>
      <trkpt lat="43.51425" lon="6.35924">
        <ele>334</ele>
        <time>2021-11-24T14:19:04.000Z</time>
      </trkpt>
      <trkpt lat="43.51425" lon="6.35924">
        <ele>334</ele>
        <time>2021-11-24T14:19:05.000Z</time>
      </trkpt>
      <trkpt lat="43.51425" lon="6.35924">
        <ele>334</ele>
        <time>2021-11-24T14:19:06.000Z</time>
      </trkpt>
      <trkpt lat="43.51425" lon="6.35924">
        <ele>334</ele>
        <time>2021-11-24T14:19:07.000Z</time>
      </trkpt>
      <trkpt lat="43.51425" lon="6.35924">
        <ele>334</ele>
        <time>2021-11-24T14:19:08.000Z</time>
      </trkpt>
      <trkpt lat="43.51425" lon="6.35924">
        <ele>334</ele>
        <time>2021-11-24T14:19:09.000Z</time>
      </trkpt>
      <trkpt lat="43.51424" lon="6.35924">
        <ele>334</ele>
        <time>2021-11-24T14:19:10.000Z</time>
      </trkpt>
      <trkpt lat="43.51424" lon="6.35924">
        <ele>334</ele>
        <time>2021-11-24T14:19:11.000Z</time>
      </trkpt>
      <trkpt lat="43.51424" lon="6.35924">
        <ele>334</ele>
        <time>2021-11-24T14:19:12.000Z</time>
      </trkpt>
      <trkpt lat="43.51424" lon="6.35924">
        <ele>334</ele>
        <time>2021-11-24T14:19:13.000Z</time>
      </trkpt>
      <trkpt lat="43.51424" lon="6.35924">
        <ele>334</ele>
        <time>2021-11-24T14:19:14.000Z</time>
      </trkpt>
      <trkpt lat="43.51424" lon="6.35924">
        <ele>334</ele>
        <time>2021-11-24T14:19:15.000Z</time>
      </trkpt>
      <trkpt lat="43.51424" lon="6.35924">
        <ele>334</ele>
        <time>2021-11-24T14:19:16.000Z</time>
      </trkpt>
      <trkpt lat="43.51424" lon="6.35924">
        <ele>334</ele>
        <time>2021-11-24T14:19:17.000Z</time>
      </trkpt>
      <trkpt lat="43.51424" lon="6.35924">
        <ele>334</ele>
        <time>2021-11-24T14:19:18.000Z</time>
      </trkpt>
      <trkpt lat="43.51424" lon="6.35924">
        <ele>334</ele>
        <time>2021-11-24T14:19:19.000Z</time>
      </trkpt>
      <trkpt lat="43.51424" lon="6.35924">
        <ele>334</ele>
        <time>2021-11-24T14:19:20.000Z</time>
      </trkpt>
      <trkpt lat="43.51424" lon="6.35924">
        <ele>334</ele>
        <time>2021-11-24T14:19:21.000Z</time>
      </trkpt>
      <trkpt lat="43.51424" lon="6.35924">
        <ele>334</ele>
        <time>2021-11-24T14:19:22.000Z</time>
      </trkpt>
      <trkpt lat="43.51424" lon="6.35924">
        <ele>334</ele>
        <time>2021-11-24T14:19:23.000Z</time>
      </trkpt>
      <trkpt lat="43.51424" lon="6.35924">
        <ele>334</ele>
        <time>2021-11-24T14:19:24.000Z</time>
      </trkpt>
      <trkpt lat="43.51424" lon="6.35924">
        <ele>334</ele>
        <time>2021-11-24T14:19:25.000Z</time>
      </trkpt>
      <trkpt lat="43.51424" lon="6.35924">
        <ele>334</ele>
        <time>2021-11-24T14:19:26.000Z</time>
      </trkpt>
      <trkpt lat="43.51424" lon="6.35924">
        <ele>334</ele>
        <time>2021-11-24T14:19:27.000Z</time>
      </trkpt>
      <trkpt lat="43.51424" lon="6.35924">
        <ele>334</ele>
        <time>2021-11-24T14:19:28.000Z</time>
      </trkpt>
      <trkpt lat="43.51424" lon="6.35924">
        <ele>334</ele>
        <time>2021-11-24T14:19:29.000Z</time>
      </trkpt>
      <trkpt lat="43.51424" lon="6.35924">
        <ele>334</ele>
        <time>2021-11-24T14:19:30.000Z</time>
      </trkpt>
      <trkpt lat="43.51424" lon="6.35924">
        <ele>334</ele>
        <time>2021-11-24T14:19:31.000Z</time>
      </trkpt>
      <trkpt lat="43.51424" lon="6.35924">
        <ele>334</ele>
        <time>2021-11-24T14:19:32.000Z</time>
      </trkpt>
      <trkpt lat="43.51424" lon="6.35924">
        <ele>334</ele>
        <time>2021-11-24T14:19:33.000Z</time>
      </trkpt>
      <trkpt lat="43.51424" lon="6.35924">
        <ele>334</ele>
        <time>2021-11-24T14:19:34.000Z</time>
      </trkpt>
      <trkpt lat="43.51424" lon="6.35924">
        <ele>334</ele>
        <time>2021-11-24T14:19:35.000Z</time>
      </trkpt>
      <trkpt lat="43.51424" lon="6.35924">
        <ele>334</ele>
        <time>2021-11-24T14:19:36.000Z</time>
      </trkpt>
      <trkpt lat="43.51424" lon="6.35924">
        <ele>334</ele>
        <time>2021-11-24T14:19:37.000Z</time>
      </trkpt>
      <trkpt lat="43.51424" lon="6.35924">
        <ele>334</ele>
        <time>2021-11-24T14:19:38.000Z</time>
      </trkpt>
      <trkpt lat="43.51424" lon="6.35924">
        <ele>334</ele>
        <time>2021-11-24T14:19:39.000Z</time>
      </trkpt>
      <trkpt lat="43.51424" lon="6.35924">
        <ele>334</ele>
        <time>2021-11-24T14:19:40.000Z</time>
      </trkpt>
      <trkpt lat="43.51424" lon="6.35924">
        <ele>334</ele>
        <time>2021-11-24T14:19:41.000Z</time>
      </trkpt>
      <trkpt lat="43.51424" lon="6.35924">
        <ele>334</ele>
        <time>2021-11-24T14:19:42.000Z</time>
      </trkpt>
      <trkpt lat="43.51424" lon="6.35924">
        <ele>334</ele>
        <time>2021-11-24T14:19:43.000Z</time>
      </trkpt>
      <trkpt lat="43.51424" lon="6.35924">
        <ele>334</ele>
        <time>2021-11-24T14:19:44.000Z</time>
      </trkpt>
      <trkpt lat="43.51424" lon="6.35924">
        <ele>334</ele>
        <time>2021-11-24T14:19:45.000Z</time>
      </trkpt>
      <trkpt lat="43.51424" lon="6.35924">
        <ele>334</ele>
        <time>2021-11-24T14:19:46.000Z</time>
      </trkpt>
      <trkpt lat="43.51424" lon="6.35924">
        <ele>334</ele>
        <time>2021-11-24T14:19:47.000Z</time>
      </trkpt>
      <trkpt lat="43.51424" lon="6.35924">
        <ele>334</ele>
        <time>2021-11-24T14:19:48.000Z</time>
      </trkpt>
      <trkpt lat="43.51424" lon="6.35924">
        <ele>334</ele>
        <time>2021-11-24T14:19:49.000Z</time>
      </trkpt>
      <trkpt lat="43.51424" lon="6.35924">
        <ele>334</ele>
        <time>2021-11-24T14:19:50.000Z</time>
      </trkpt>
      <trkpt lat="43.51424" lon="6.35924">
        <ele>334</ele>
        <time>2021-11-24T14:19:51.000Z</time>
      </trkpt>
      <trkpt lat="43.51424" lon="6.35924">
        <ele>334</ele>
        <time>2021-11-24T14:19:52.000Z</time>
      </trkpt>
      <trkpt lat="43.51424" lon="6.35924">
        <ele>334</ele>
        <time>2021-11-24T14:19:53.000Z</time>
      </trkpt>
      <trkpt lat="43.51424" lon="6.35924">
        <ele>334</ele>
        <time>2021-11-24T14:19:54.000Z</time>
      </trkpt>
      <trkpt lat="43.51424" lon="6.35924">
        <ele>334</ele>
        <time>2021-11-24T14:19:55.000Z</time>
      </trkpt>
      <trkpt lat="43.51424" lon="6.35924">
        <ele>334</ele>
        <time>2021-11-24T14:19:56.000Z</time>
      </trkpt>
      <trkpt lat="43.51424" lon="6.35924">
        <ele>334</ele>
        <time>2021-11-24T14:19:57.000Z</time>
      </trkpt>
      <trkpt lat="43.51424" lon="6.35924">
        <ele>334</ele>
        <time>2021-11-24T14:19:58.000Z</time>
      </trkpt>
      <trkpt lat="43.51424" lon="6.35924">
        <ele>334</ele>
        <time>2021-11-24T14:19:59.000Z</time>
      </trkpt>
      <trkpt lat="43.51424" lon="6.35924">
        <ele>334</ele>
        <time>2021-11-24T14:20:00.000Z</time>
      </trkpt>
      <trkpt lat="43.51424" lon="6.35924">
        <ele>334</ele>
        <time>2021-11-24T14:20:01.000Z</time>
      </trkpt>
      <trkpt lat="43.51424" lon="6.35924">
        <ele>334</ele>
        <time>2021-11-24T14:20:02.000Z</time>
      </trkpt>
      <trkpt lat="43.51424" lon="6.35924">
        <ele>334</ele>
        <time>2021-11-24T14:20:03.000Z</time>
      </trkpt>
      <trkpt lat="43.51424" lon="6.35924">
        <ele>334</ele>
        <time>2021-11-24T14:20:04.000Z</time>
      </trkpt>
      <trkpt lat="43.51424" lon="6.35924">
        <ele>334</ele>
        <time>2021-11-24T14:20:05.000Z</time>
      </trkpt>
      <trkpt lat="43.51424" lon="6.35924">
        <ele>334</ele>
        <time>2021-11-24T14:20:06.000Z</time>
      </trkpt>
      <trkpt lat="43.51424" lon="6.35924">
        <ele>334</ele>
        <time>2021-11-24T14:20:07.000Z</time>
      </trkpt>
      <trkpt lat="43.51424" lon="6.35924">
        <ele>334</ele>
        <time>2021-11-24T14:20:08.000Z</time>
      </trkpt>
      <trkpt lat="43.51424" lon="6.35924">
        <ele>334</ele>
        <time>2021-11-24T14:20:09.000Z</time>
      </trkpt>
      <trkpt lat="43.51424" lon="6.35924">
        <ele>334</ele>
        <time>2021-11-24T14:20:10.000Z</time>
      </trkpt>
      <trkpt lat="43.51424" lon="6.35924">
        <ele>334</ele>
        <time>2021-11-24T14:20:11.000Z</time>
      </trkpt>
      <trkpt lat="43.51424" lon="6.35924">
        <ele>334</ele>
        <time>2021-11-24T14:20:12.000Z</time>
      </trkpt>
      <trkpt lat="43.51424" lon="6.35924">
        <ele>334</ele>
        <time>2021-11-24T14:20:13.000Z</time>
      </trkpt>
      <trkpt lat="43.51424" lon="6.35924">
        <ele>334</ele>
        <time>2021-11-24T14:20:14.000Z</time>
      </trkpt>
      <trkpt lat="43.51424" lon="6.35924">
        <ele>334</ele>
        <time>2021-11-24T14:20:15.000Z</time>
      </trkpt>
      <trkpt lat="43.51424" lon="6.35924">
        <ele>334</ele>
        <time>2021-11-24T14:20:16.000Z</time>
      </trkpt>
      <trkpt lat="43.51424" lon="6.35924">
        <ele>334</ele>
        <time>2021-11-24T14:20:17.000Z</time>
      </trkpt>
      <trkpt lat="43.51424" lon="6.35924">
        <ele>334</ele>
        <time>2021-11-24T14:20:18.000Z</time>
      </trkpt>
      <trkpt lat="43.51424" lon="6.35924">
        <ele>334</ele>
        <time>2021-11-24T14:20:19.000Z</time>
      </trkpt>
      <trkpt lat="43.51424" lon="6.35924">
        <ele>334</ele>
        <time>2021-11-24T14:20:20.000Z</time>
      </trkpt>
      <trkpt lat="43.51424" lon="6.35924">
        <ele>334</ele>
        <time>2021-11-24T14:20:21.000Z</time>
      </trkpt>
      <trkpt lat="43.51424" lon="6.35924">
        <ele>334</ele>
        <time>2021-11-24T14:20:22.000Z</time>
      </trkpt>
      <trkpt lat="43.51424" lon="6.35924">
        <ele>334</ele>
        <time>2021-11-24T14:20:23.000Z</time>
      </trkpt>
      <trkpt lat="43.51424" lon="6.35924">
        <ele>334</ele>
        <time>2021-11-24T14:20:24.000Z</time>
      </trkpt>
      <trkpt lat="43.51424" lon="6.35924">
        <ele>334</ele>
        <time>2021-11-24T14:20:25.000Z</time>
      </trkpt>
      <trkpt lat="43.51424" lon="6.35924">
        <ele>334</ele>
        <time>2021-11-24T14:20:26.000Z</time>
      </trkpt>
      <trkpt lat="43.51424" lon="6.35924">
        <ele>334</ele>
        <time>2021-11-24T14:20:27.000Z</time>
      </trkpt>
      <trkpt lat="43.51425" lon="6.35924">
        <ele>334</ele>
        <time>2021-11-24T14:20:28.000Z</time>
      </trkpt>
      <trkpt lat="43.51426" lon="6.35924">
        <ele>334</ele>
        <time>2021-11-24T14:20:29.000Z</time>
      </trkpt>
      <trkpt lat="43.51427" lon="6.35925">
        <ele>334</ele>
        <time>2021-11-24T14:20:30.000Z</time>
      </trkpt>
      <trkpt lat="43.51427" lon="6.35924">
        <ele>334</ele>
        <time>2021-11-24T14:20:31.000Z</time>
      </trkpt>
      <trkpt lat="43.51428" lon="6.35925">
        <ele>334</ele>
        <time>2021-11-24T14:20:32.000Z</time>
      </trkpt>
      <trkpt lat="43.51429" lon="6.35925">
        <ele>334</ele>
        <time>2021-11-24T14:20:33.000Z</time>
      </trkpt>
      <trkpt lat="43.5143" lon="6.35924">
        <ele>334</ele>
        <time>2021-11-24T14:20:34.000Z</time>
      </trkpt>
      <trkpt lat="43.5143" lon="6.35925">
        <ele>334</ele>
        <time>2021-11-24T14:20:35.000Z</time>
      </trkpt>
      <trkpt lat="43.51431" lon="6.35925">
        <ele>334</ele>
        <time>2021-11-24T14:20:36.000Z</time>
      </trkpt>
      <trkpt lat="43.51432" lon="6.35925">
        <ele>334</ele>
        <time>2021-11-24T14:20:37.000Z</time>
      </trkpt>
      <trkpt lat="43.51433" lon="6.35924">
        <ele>334</ele>
        <time>2021-11-24T14:20:38.000Z</time>
      </trkpt>
      <trkpt lat="43.51434" lon="6.35923">
        <ele>334</ele>
        <time>2021-11-24T14:20:39.000Z</time>
      </trkpt>
      <trkpt lat="43.51435" lon="6.35923">
        <ele>334</ele>
        <time>2021-11-24T14:20:40.000Z</time>
      </trkpt>
      <trkpt lat="43.51436" lon="6.35922">
        <ele>334</ele>
        <time>2021-11-24T14:20:41.000Z</time>
      </trkpt>
      <trkpt lat="43.51436" lon="6.35922">
        <ele>334</ele>
        <time>2021-11-24T14:20:42.000Z</time>
      </trkpt>
      <trkpt lat="43.51437" lon="6.35921">
        <ele>334</ele>
        <time>2021-11-24T14:20:43.000Z</time>
      </trkpt>
      <trkpt lat="43.51438" lon="6.3592">
        <ele>334</ele>
        <time>2021-11-24T14:20:44.000Z</time>
      </trkpt>
      <trkpt lat="43.51438" lon="6.3592">
        <ele>334</ele>
        <time>2021-11-24T14:20:45.000Z</time>
      </trkpt>
      <trkpt lat="43.51438" lon="6.3592">
        <ele>334</ele>
        <time>2021-11-24T14:20:46.000Z</time>
      </trkpt>
      <trkpt lat="43.51438" lon="6.3592">
        <ele>334</ele>
        <time>2021-11-24T14:20:47.000Z</time>
      </trkpt>
      <trkpt lat="43.51439" lon="6.3592">
        <ele>334</ele>
        <time>2021-11-24T14:20:48.000Z</time>
      </trkpt>
      <trkpt lat="43.5144" lon="6.3592">
        <ele>334</ele>
        <time>2021-11-24T14:20:49.000Z</time>
      </trkpt>
      <trkpt lat="43.51441" lon="6.35921">
        <ele>334</ele>
        <time>2021-11-24T14:20:50.000Z</time>
      </trkpt>
      <trkpt lat="43.51442" lon="6.35921">
        <ele>334</ele>
        <time>2021-11-24T14:20:51.000Z</time>
      </trkpt>
      <trkpt lat="43.51443" lon="6.35922">
        <ele>334</ele>
        <time>2021-11-24T14:20:52.000Z</time>
      </trkpt>
      <trkpt lat="43.51444" lon="6.35923">
        <ele>334</ele>
        <time>2021-11-24T14:20:53.000Z</time>
      </trkpt>
      <trkpt lat="43.51446" lon="6.35923">
        <ele>334</ele>
        <time>2021-11-24T14:20:54.000Z</time>
      </trkpt>
      <trkpt lat="43.51447" lon="6.35923">
        <ele>334</ele>
        <time>2021-11-24T14:20:55.000Z</time>
      </trkpt>
      <trkpt lat="43.51448" lon="6.35924">
        <ele>334</ele>
        <time>2021-11-24T14:20:56.000Z</time>
      </trkpt>
      <trkpt lat="43.51448" lon="6.35924">
        <ele>334</ele>
        <time>2021-11-24T14:20:57.000Z</time>
      </trkpt>
      <trkpt lat="43.51449" lon="6.35924">
        <ele>334</ele>
        <time>2021-11-24T14:20:58.000Z</time>
      </trkpt>
      <trkpt lat="43.5145" lon="6.35924">
        <ele>334</ele>
        <time>2021-11-24T14:20:59.000Z</time>
      </trkpt>
      <trkpt lat="43.5145" lon="6.35923">
        <ele>334</ele>
        <time>2021-11-24T14:21:00.000Z</time>
      </trkpt>
      <trkpt lat="43.5145" lon="6.35923">
        <ele>334</ele>
        <time>2021-11-24T14:21:01.000Z</time>
      </trkpt>
      <trkpt lat="43.5145" lon="6.35923">
        <ele>334</ele>
        <time>2021-11-24T14:21:02.000Z</time>
      </trkpt>
      <trkpt lat="43.5145" lon="6.35923">
        <ele>334</ele>
        <time>2021-11-24T14:21:03.000Z</time>
      </trkpt>
      <trkpt lat="43.5145" lon="6.35923">
        <ele>334</ele>
        <time>2021-11-24T14:21:04.000Z</time>
      </trkpt>
      <trkpt lat="43.5145" lon="6.35923">
        <ele>334</ele>
        <time>2021-11-24T14:21:05.000Z</time>
      </trkpt>
      <trkpt lat="43.5145" lon="6.35923">
        <ele>334</ele>
        <time>2021-11-24T14:21:06.000Z</time>
      </trkpt>
      <trkpt lat="43.51451" lon="6.35918">
        <ele>334</ele>
        <time>2021-11-24T14:21:07.000Z</time>
      </trkpt>
      <trkpt lat="43.51451" lon="6.35918">
        <ele>334</ele>
        <time>2021-11-24T14:21:08.000Z</time>
      </trkpt>
      <trkpt lat="43.51451" lon="6.35917">
        <ele>334</ele>
        <time>2021-11-24T14:21:09.000Z</time>
      </trkpt>
      <trkpt lat="43.51452" lon="6.35917">
        <ele>334</ele>
        <time>2021-11-24T14:21:10.000Z</time>
      </trkpt>
      <trkpt lat="43.51452" lon="6.35915">
        <ele>334</ele>
        <time>2021-11-24T14:21:11.000Z</time>
      </trkpt>
      <trkpt lat="43.51453" lon="6.35913">
        <ele>334</ele>
        <time>2021-11-24T14:21:12.000Z</time>
      </trkpt>
      <trkpt lat="43.51454" lon="6.35911">
        <ele>334</ele>
        <time>2021-11-24T14:21:13.000Z</time>
      </trkpt>
      <trkpt lat="43.51454" lon="6.3591">
        <ele>335</ele>
        <time>2021-11-24T14:21:14.000Z</time>
      </trkpt>
      <trkpt lat="43.51455" lon="6.35909">
        <ele>335</ele>
        <time>2021-11-24T14:21:15.000Z</time>
      </trkpt>
      <trkpt lat="43.51455" lon="6.35908">
        <ele>335</ele>
        <time>2021-11-24T14:21:16.000Z</time>
      </trkpt>
      <trkpt lat="43.51455" lon="6.35907">
        <ele>335</ele>
        <time>2021-11-24T14:21:17.000Z</time>
      </trkpt>
      <trkpt lat="43.51455" lon="6.35906">
        <ele>335</ele>
        <time>2021-11-24T14:21:18.000Z</time>
      </trkpt>
      <trkpt lat="43.51456" lon="6.35905">
        <ele>335</ele>
        <time>2021-11-24T14:21:19.000Z</time>
      </trkpt>
      <trkpt lat="43.51456" lon="6.35903">
        <ele>335</ele>
        <time>2021-11-24T14:21:20.000Z</time>
      </trkpt>
      <trkpt lat="43.51456" lon="6.35902">
        <ele>335</ele>
        <time>2021-11-24T14:21:21.000Z</time>
      </trkpt>
      <trkpt lat="43.51456" lon="6.35901">
        <ele>335</ele>
        <time>2021-11-24T14:21:22.000Z</time>
      </trkpt>
      <trkpt lat="43.51456" lon="6.359">
        <ele>334</ele>
        <time>2021-11-24T14:21:23.000Z</time>
      </trkpt>
      <trkpt lat="43.51457" lon="6.35899">
        <ele>334</ele>
        <time>2021-11-24T14:21:24.000Z</time>
      </trkpt>
      <trkpt lat="43.51457" lon="6.35898">
        <ele>334</ele>
        <time>2021-11-24T14:21:25.000Z</time>
      </trkpt>
      <trkpt lat="43.51457" lon="6.35897">
        <ele>334</ele>
        <time>2021-11-24T14:21:26.000Z</time>
      </trkpt>
      <trkpt lat="43.51457" lon="6.35896">
        <ele>334</ele>
        <time>2021-11-24T14:21:27.000Z</time>
      </trkpt>
      <trkpt lat="43.51458" lon="6.35895">
        <ele>334</ele>
        <time>2021-11-24T14:21:28.000Z</time>
      </trkpt>
      <trkpt lat="43.51458" lon="6.35894">
        <ele>334</ele>
        <time>2021-11-24T14:21:29.000Z</time>
      </trkpt>
      <trkpt lat="43.51459" lon="6.35892">
        <ele>334</ele>
        <time>2021-11-24T14:21:30.000Z</time>
      </trkpt>
      <trkpt lat="43.51459" lon="6.35891">
        <ele>333</ele>
        <time>2021-11-24T14:21:31.000Z</time>
      </trkpt>
      <trkpt lat="43.51459" lon="6.3589">
        <ele>333</ele>
        <time>2021-11-24T14:21:32.000Z</time>
      </trkpt>
      <trkpt lat="43.51459" lon="6.35889">
        <ele>333</ele>
        <time>2021-11-24T14:21:33.000Z</time>
      </trkpt>
      <trkpt lat="43.5146" lon="6.35888">
        <ele>333</ele>
        <time>2021-11-24T14:21:34.000Z</time>
      </trkpt>
      <trkpt lat="43.5146" lon="6.35888">
        <ele>333</ele>
        <time>2021-11-24T14:21:35.000Z</time>
      </trkpt>
      <trkpt lat="43.5146" lon="6.35887">
        <ele>333</ele>
        <time>2021-11-24T14:21:36.000Z</time>
      </trkpt>
      <trkpt lat="43.5146" lon="6.35886">
        <ele>333</ele>
        <time>2021-11-24T14:21:37.000Z</time>
      </trkpt>
      <trkpt lat="43.51461" lon="6.35885">
        <ele>333</ele>
        <time>2021-11-24T14:21:38.000Z</time>
      </trkpt>
      <trkpt lat="43.51461" lon="6.35884">
        <ele>333</ele>
        <time>2021-11-24T14:21:39.000Z</time>
      </trkpt>
      <trkpt lat="43.51461" lon="6.35883">
        <ele>333</ele>
        <time>2021-11-24T14:21:40.000Z</time>
      </trkpt>
      <trkpt lat="43.51462" lon="6.35882">
        <ele>333</ele>
        <time>2021-11-24T14:21:41.000Z</time>
      </trkpt>
      <trkpt lat="43.51463" lon="6.35881">
        <ele>333</ele>
        <time>2021-11-24T14:21:42.000Z</time>
      </trkpt>
      <trkpt lat="43.51464" lon="6.35879">
        <ele>333</ele>
        <time>2021-11-24T14:21:43.000Z</time>
      </trkpt>
      <trkpt lat="43.51465" lon="6.35877">
        <ele>333</ele>
        <time>2021-11-24T14:21:44.000Z</time>
      </trkpt>
      <trkpt lat="43.51466" lon="6.35875">
        <ele>333</ele>
        <time>2021-11-24T14:21:45.000Z</time>
      </trkpt>
      <trkpt lat="43.51467" lon="6.35874">
        <ele>333</ele>
        <time>2021-11-24T14:21:46.000Z</time>
      </trkpt>
      <trkpt lat="43.51468" lon="6.35872">
        <ele>333</ele>
        <time>2021-11-24T14:21:47.000Z</time>
      </trkpt>
      <trkpt lat="43.51469" lon="6.35871">
        <ele>333</ele>
        <time>2021-11-24T14:21:48.000Z</time>
      </trkpt>
      <trkpt lat="43.5147" lon="6.35869">
        <ele>333</ele>
        <time>2021-11-24T14:21:49.000Z</time>
      </trkpt>
      <trkpt lat="43.5147" lon="6.35868">
        <ele>333</ele>
        <time>2021-11-24T14:21:50.000Z</time>
      </trkpt>
      <trkpt lat="43.5147" lon="6.35866">
        <ele>333</ele>
        <time>2021-11-24T14:21:51.000Z</time>
      </trkpt>
      <trkpt lat="43.51471" lon="6.35864">
        <ele>333</ele>
        <time>2021-11-24T14:21:52.000Z</time>
      </trkpt>
      <trkpt lat="43.51471" lon="6.35863">
        <ele>333</ele>
        <time>2021-11-24T14:21:53.000Z</time>
      </trkpt>
      <trkpt lat="43.51471" lon="6.35861">
        <ele>333</ele>
        <time>2021-11-24T14:21:54.000Z</time>
      </trkpt>
      <trkpt lat="43.51472" lon="6.3586">
        <ele>333</ele>
        <time>2021-11-24T14:21:55.000Z</time>
      </trkpt>
      <trkpt lat="43.51472" lon="6.35858">
        <ele>333</ele>
        <time>2021-11-24T14:21:56.000Z</time>
      </trkpt>
      <trkpt lat="43.51472" lon="6.35857">
        <ele>333</ele>
        <time>2021-11-24T14:21:57.000Z</time>
      </trkpt>
      <trkpt lat="43.51472" lon="6.35855">
        <ele>333</ele>
        <time>2021-11-24T14:21:58.000Z</time>
      </trkpt>
      <trkpt lat="43.51472" lon="6.35854">
        <ele>333</ele>
        <time>2021-11-24T14:21:59.000Z</time>
      </trkpt>
      <trkpt lat="43.51472" lon="6.35852">
        <ele>333</ele>
        <time>2021-11-24T14:22:00.000Z</time>
      </trkpt>
      <trkpt lat="43.51472" lon="6.35851">
        <ele>333</ele>
        <time>2021-11-24T14:22:01.000Z</time>
      </trkpt>
      <trkpt lat="43.51472" lon="6.35849">
        <ele>333</ele>
        <time>2021-11-24T14:22:02.000Z</time>
      </trkpt>
      <trkpt lat="43.51472" lon="6.35848">
        <ele>333</ele>
        <time>2021-11-24T14:22:03.000Z</time>
      </trkpt>
      <trkpt lat="43.51472" lon="6.35847">
        <ele>333</ele>
        <time>2021-11-24T14:22:04.000Z</time>
      </trkpt>
      <trkpt lat="43.51472" lon="6.35846">
        <ele>333</ele>
        <time>2021-11-24T14:22:05.000Z</time>
      </trkpt>
      <trkpt lat="43.51472" lon="6.35844">
        <ele>333</ele>
        <time>2021-11-24T14:22:06.000Z</time>
      </trkpt>
      <trkpt lat="43.51472" lon="6.35843">
        <ele>333</ele>
        <time>2021-11-24T14:22:07.000Z</time>
      </trkpt>
      <trkpt lat="43.51472" lon="6.35841">
        <ele>333</ele>
        <time>2021-11-24T14:22:08.000Z</time>
      </trkpt>
      <trkpt lat="43.51472" lon="6.3584">
        <ele>333</ele>
        <time>2021-11-24T14:22:09.000Z</time>
      </trkpt>
      <trkpt lat="43.51472" lon="6.35838">
        <ele>333</ele>
        <time>2021-11-24T14:22:10.000Z</time>
      </trkpt>
      <trkpt lat="43.51471" lon="6.35837">
        <ele>333</ele>
        <time>2021-11-24T14:22:11.000Z</time>
      </trkpt>
      <trkpt lat="43.51471" lon="6.35835">
        <ele>333</ele>
        <time>2021-11-24T14:22:12.000Z</time>
      </trkpt>
      <trkpt lat="43.51471" lon="6.35834">
        <ele>333</ele>
        <time>2021-11-24T14:22:13.000Z</time>
      </trkpt>
      <trkpt lat="43.51471" lon="6.35832">
        <ele>333</ele>
        <time>2021-11-24T14:22:14.000Z</time>
      </trkpt>
      <trkpt lat="43.51472" lon="6.35831">
        <ele>333</ele>
        <time>2021-11-24T14:22:15.000Z</time>
      </trkpt>
      <trkpt lat="43.51472" lon="6.3583">
        <ele>333</ele>
        <time>2021-11-24T14:22:16.000Z</time>
      </trkpt>
      <trkpt lat="43.51472" lon="6.35829">
        <ele>333</ele>
        <time>2021-11-24T14:22:17.000Z</time>
      </trkpt>
      <trkpt lat="43.51472" lon="6.35828">
        <ele>333</ele>
        <time>2021-11-24T14:22:18.000Z</time>
      </trkpt>
      <trkpt lat="43.51473" lon="6.35827">
        <ele>333</ele>
        <time>2021-11-24T14:22:19.000Z</time>
      </trkpt>
      <trkpt lat="43.51473" lon="6.35826">
        <ele>333</ele>
        <time>2021-11-24T14:22:20.000Z</time>
      </trkpt>
      <trkpt lat="43.51473" lon="6.35826">
        <ele>333</ele>
        <time>2021-11-24T14:22:21.000Z</time>
      </trkpt>
      <trkpt lat="43.51473" lon="6.35825">
        <ele>333</ele>
        <time>2021-11-24T14:22:22.000Z</time>
      </trkpt>
      <trkpt lat="43.51474" lon="6.35824">
        <ele>333</ele>
        <time>2021-11-24T14:22:23.000Z</time>
      </trkpt>
      <trkpt lat="43.51474" lon="6.35823">
        <ele>333</ele>
        <time>2021-11-24T14:22:24.000Z</time>
      </trkpt>
      <trkpt lat="43.51474" lon="6.35822">
        <ele>332</ele>
        <time>2021-11-24T14:22:25.000Z</time>
      </trkpt>
      <trkpt lat="43.51475" lon="6.35821">
        <ele>332</ele>
        <time>2021-11-24T14:22:26.000Z</time>
      </trkpt>
      <trkpt lat="43.51475" lon="6.3582">
        <ele>332</ele>
        <time>2021-11-24T14:22:27.000Z</time>
      </trkpt>
      <trkpt lat="43.51475" lon="6.35819">
        <ele>332</ele>
        <time>2021-11-24T14:22:28.000Z</time>
      </trkpt>
      <trkpt lat="43.51475" lon="6.35817">
        <ele>332</ele>
        <time>2021-11-24T14:22:29.000Z</time>
      </trkpt>
      <trkpt lat="43.51475" lon="6.35816">
        <ele>332</ele>
        <time>2021-11-24T14:22:30.000Z</time>
      </trkpt>
      <trkpt lat="43.51475" lon="6.35815">
        <ele>332</ele>
        <time>2021-11-24T14:22:31.000Z</time>
      </trkpt>
      <trkpt lat="43.51475" lon="6.35814">
        <ele>332</ele>
        <time>2021-11-24T14:22:32.000Z</time>
      </trkpt>
      <trkpt lat="43.51475" lon="6.35813">
        <ele>332</ele>
        <time>2021-11-24T14:22:33.000Z</time>
      </trkpt>
      <trkpt lat="43.51475" lon="6.35811">
        <ele>332</ele>
        <time>2021-11-24T14:22:34.000Z</time>
      </trkpt>
      <trkpt lat="43.51476" lon="6.3581">
        <ele>332</ele>
        <time>2021-11-24T14:22:35.000Z</time>
      </trkpt>
      <trkpt lat="43.51477" lon="6.35809">
        <ele>332</ele>
        <time>2021-11-24T14:22:36.000Z</time>
      </trkpt>
      <trkpt lat="43.51477" lon="6.35808">
        <ele>332</ele>
        <time>2021-11-24T14:22:37.000Z</time>
      </trkpt>
      <trkpt lat="43.51477" lon="6.35807">
        <ele>332</ele>
        <time>2021-11-24T14:22:38.000Z</time>
      </trkpt>
      <trkpt lat="43.51478" lon="6.35806">
        <ele>332</ele>
        <time>2021-11-24T14:22:39.000Z</time>
      </trkpt>
      <trkpt lat="43.51478" lon="6.35805">
        <ele>332</ele>
        <time>2021-11-24T14:22:40.000Z</time>
      </trkpt>
      <trkpt lat="43.51478" lon="6.35804">
        <ele>332</ele>
        <time>2021-11-24T14:22:41.000Z</time>
      </trkpt>
      <trkpt lat="43.51478" lon="6.35802">
        <ele>332</ele>
        <time>2021-11-24T14:22:42.000Z</time>
      </trkpt>
      <trkpt lat="43.51478" lon="6.35801">
        <ele>332</ele>
        <time>2021-11-24T14:22:43.000Z</time>
      </trkpt>
      <trkpt lat="43.51478" lon="6.35799">
        <ele>332</ele>
        <time>2021-11-24T14:22:44.000Z</time>
      </trkpt>
      <trkpt lat="43.51477" lon="6.35798">
        <ele>331</ele>
        <time>2021-11-24T14:22:45.000Z</time>
      </trkpt>
      <trkpt lat="43.51477" lon="6.35797">
        <ele>331</ele>
        <time>2021-11-24T14:22:46.000Z</time>
      </trkpt>
      <trkpt lat="43.51478" lon="6.35796">
        <ele>331</ele>
        <time>2021-11-24T14:22:47.000Z</time>
      </trkpt>
      <trkpt lat="43.51478" lon="6.35795">
        <ele>331</ele>
        <time>2021-11-24T14:22:48.000Z</time>
      </trkpt>
      <trkpt lat="43.51478" lon="6.35794">
        <ele>331</ele>
        <time>2021-11-24T14:22:49.000Z</time>
      </trkpt>
      <trkpt lat="43.51479" lon="6.35794">
        <ele>331</ele>
        <time>2021-11-24T14:22:50.000Z</time>
      </trkpt>
      <trkpt lat="43.5148" lon="6.35793">
        <ele>331</ele>
        <time>2021-11-24T14:22:51.000Z</time>
      </trkpt>
      <trkpt lat="43.5148" lon="6.35792">
        <ele>331</ele>
        <time>2021-11-24T14:22:52.000Z</time>
      </trkpt>
      <trkpt lat="43.51481" lon="6.35791">
        <ele>331</ele>
        <time>2021-11-24T14:22:53.000Z</time>
      </trkpt>
      <trkpt lat="43.51482" lon="6.35791">
        <ele>331</ele>
        <time>2021-11-24T14:22:54.000Z</time>
      </trkpt>
      <trkpt lat="43.51482" lon="6.3579">
        <ele>331</ele>
        <time>2021-11-24T14:22:55.000Z</time>
      </trkpt>
      <trkpt lat="43.51483" lon="6.35789">
        <ele>331</ele>
        <time>2021-11-24T14:22:56.000Z</time>
      </trkpt>
      <trkpt lat="43.51484" lon="6.35789">
        <ele>331</ele>
        <time>2021-11-24T14:22:57.000Z</time>
      </trkpt>
      <trkpt lat="43.51484" lon="6.35788">
        <ele>331</ele>
        <time>2021-11-24T14:22:58.000Z</time>
      </trkpt>
      <trkpt lat="43.51484" lon="6.35788">
        <ele>331</ele>
        <time>2021-11-24T14:22:59.000Z</time>
      </trkpt>
      <trkpt lat="43.51484" lon="6.35788">
        <ele>331</ele>
        <time>2021-11-24T14:23:00.000Z</time>
      </trkpt>
      <trkpt lat="43.51484" lon="6.35788">
        <ele>331</ele>
        <time>2021-11-24T14:23:01.000Z</time>
      </trkpt>
      <trkpt lat="43.51484" lon="6.35788">
        <ele>331</ele>
        <time>2021-11-24T14:23:02.000Z</time>
      </trkpt>
      <trkpt lat="43.51483" lon="6.35788">
        <ele>331</ele>
        <time>2021-11-24T14:23:03.000Z</time>
      </trkpt>
      <trkpt lat="43.51483" lon="6.35788">
        <ele>331</ele>
        <time>2021-11-24T14:23:04.000Z</time>
      </trkpt>
      <trkpt lat="43.51483" lon="6.35788">
        <ele>331</ele>
        <time>2021-11-24T14:23:05.000Z</time>
      </trkpt>
      <trkpt lat="43.51483" lon="6.35788">
        <ele>331</ele>
        <time>2021-11-24T14:23:06.000Z</time>
      </trkpt>
      <trkpt lat="43.51483" lon="6.35788">
        <ele>331</ele>
        <time>2021-11-24T14:23:07.000Z</time>
      </trkpt>
      <trkpt lat="43.51483" lon="6.35788">
        <ele>331</ele>
        <time>2021-11-24T14:23:08.000Z</time>
      </trkpt>
      <trkpt lat="43.51483" lon="6.35788">
        <ele>331</ele>
        <time>2021-11-24T14:23:09.000Z</time>
      </trkpt>
      <trkpt lat="43.51483" lon="6.35788">
        <ele>331</ele>
        <time>2021-11-24T14:23:10.000Z</time>
      </trkpt>
      <trkpt lat="43.51483" lon="6.35788">
        <ele>331</ele>
        <time>2021-11-24T14:23:11.000Z</time>
      </trkpt>
      <trkpt lat="43.51483" lon="6.35788">
        <ele>331</ele>
        <time>2021-11-24T14:23:12.000Z</time>
      </trkpt>
      <trkpt lat="43.51483" lon="6.35788">
        <ele>331</ele>
        <time>2021-11-24T14:23:13.000Z</time>
      </trkpt>
      <trkpt lat="43.51483" lon="6.35788">
        <ele>331</ele>
        <time>2021-11-24T14:23:14.000Z</time>
      </trkpt>
      <trkpt lat="43.51483" lon="6.35788">
        <ele>331</ele>
        <time>2021-11-24T14:23:15.000Z</time>
      </trkpt>
      <trkpt lat="43.51483" lon="6.35788">
        <ele>331</ele>
        <time>2021-11-24T14:23:16.000Z</time>
      </trkpt>
      <trkpt lat="43.51483" lon="6.35787">
        <ele>331</ele>
        <time>2021-11-24T14:23:17.000Z</time>
      </trkpt>
      <trkpt lat="43.51484" lon="6.35787">
        <ele>331</ele>
        <time>2021-11-24T14:23:18.000Z</time>
      </trkpt>
      <trkpt lat="43.51484" lon="6.35786">
        <ele>331</ele>
        <time>2021-11-24T14:23:19.000Z</time>
      </trkpt>
      <trkpt lat="43.51485" lon="6.35785">
        <ele>331</ele>
        <time>2021-11-24T14:23:20.000Z</time>
      </trkpt>
      <trkpt lat="43.51485" lon="6.35785">
        <ele>331</ele>
        <time>2021-11-24T14:23:21.000Z</time>
      </trkpt>
      <trkpt lat="43.51486" lon="6.35784">
        <ele>331</ele>
        <time>2021-11-24T14:23:22.000Z</time>
      </trkpt>
      <trkpt lat="43.51486" lon="6.35784">
        <ele>331</ele>
        <time>2021-11-24T14:23:23.000Z</time>
      </trkpt>
      <trkpt lat="43.51486" lon="6.35783">
        <ele>331</ele>
        <time>2021-11-24T14:23:24.000Z</time>
      </trkpt>
      <trkpt lat="43.51486" lon="6.35783">
        <ele>331</ele>
        <time>2021-11-24T14:23:25.000Z</time>
      </trkpt>
      <trkpt lat="43.51487" lon="6.35782">
        <ele>331</ele>
        <time>2021-11-24T14:23:26.000Z</time>
      </trkpt>
      <trkpt lat="43.51487" lon="6.35781">
        <ele>331</ele>
        <time>2021-11-24T14:23:27.000Z</time>
      </trkpt>
      <trkpt lat="43.51487" lon="6.35779">
        <ele>331</ele>
        <time>2021-11-24T14:23:28.000Z</time>
      </trkpt>
      <trkpt lat="43.51488" lon="6.35777">
        <ele>331</ele>
        <time>2021-11-24T14:23:29.000Z</time>
      </trkpt>
      <trkpt lat="43.51488" lon="6.35775">
        <ele>331</ele>
        <time>2021-11-24T14:23:30.000Z</time>
      </trkpt>
      <trkpt lat="43.51489" lon="6.35773">
        <ele>331</ele>
        <time>2021-11-24T14:23:31.000Z</time>
      </trkpt>
      <trkpt lat="43.51489" lon="6.35771">
        <ele>331</ele>
        <time>2021-11-24T14:23:32.000Z</time>
      </trkpt>
      <trkpt lat="43.51489" lon="6.3577">
        <ele>331</ele>
        <time>2021-11-24T14:23:33.000Z</time>
      </trkpt>
      <trkpt lat="43.5149" lon="6.35768">
        <ele>331</ele>
        <time>2021-11-24T14:23:34.000Z</time>
      </trkpt>
      <trkpt lat="43.5149" lon="6.35767">
        <ele>331</ele>
        <time>2021-11-24T14:23:35.000Z</time>
      </trkpt>
      <trkpt lat="43.51491" lon="6.35766">
        <ele>331</ele>
        <time>2021-11-24T14:23:36.000Z</time>
      </trkpt>
      <trkpt lat="43.51491" lon="6.35765">
        <ele>331</ele>
        <time>2021-11-24T14:23:37.000Z</time>
      </trkpt>
      <trkpt lat="43.51492" lon="6.35764">
        <ele>331</ele>
        <time>2021-11-24T14:23:38.000Z</time>
      </trkpt>
      <trkpt lat="43.51492" lon="6.35763">
        <ele>331</ele>
        <time>2021-11-24T14:23:39.000Z</time>
      </trkpt>
      <trkpt lat="43.51493" lon="6.35762">
        <ele>331</ele>
        <time>2021-11-24T14:23:40.000Z</time>
      </trkpt>
      <trkpt lat="43.51493" lon="6.35762">
        <ele>331</ele>
        <time>2021-11-24T14:23:41.000Z</time>
      </trkpt>
      <trkpt lat="43.51493" lon="6.35762">
        <ele>331</ele>
        <time>2021-11-24T14:23:42.000Z</time>
      </trkpt>
      <trkpt lat="43.51493" lon="6.35761">
        <ele>331</ele>
        <time>2021-11-24T14:23:43.000Z</time>
      </trkpt>
      <trkpt lat="43.51493" lon="6.35761">
        <ele>331</ele>
        <time>2021-11-24T14:23:44.000Z</time>
      </trkpt>
      <trkpt lat="43.51494" lon="6.35761">
        <ele>331</ele>
        <time>2021-11-24T14:23:45.000Z</time>
      </trkpt>
      <trkpt lat="43.51494" lon="6.3576">
        <ele>331</ele>
        <time>2021-11-24T14:23:46.000Z</time>
      </trkpt>
      <trkpt lat="43.51496" lon="6.35758">
        <ele>331</ele>
        <time>2021-11-24T14:23:47.000Z</time>
      </trkpt>
      <trkpt lat="43.51497" lon="6.35756">
        <ele>331</ele>
        <time>2021-11-24T14:23:48.000Z</time>
      </trkpt>
      <trkpt lat="43.51498" lon="6.35754">
        <ele>331</ele>
        <time>2021-11-24T14:23:49.000Z</time>
      </trkpt>
      <trkpt lat="43.51499" lon="6.35753">
        <ele>331</ele>
        <time>2021-11-24T14:23:50.000Z</time>
      </trkpt>
      <trkpt lat="43.515" lon="6.35752">
        <ele>331</ele>
        <time>2021-11-24T14:23:51.000Z</time>
      </trkpt>
      <trkpt lat="43.51501" lon="6.3575">
        <ele>331</ele>
        <time>2021-11-24T14:23:52.000Z</time>
      </trkpt>
      <trkpt lat="43.51501" lon="6.3575">
        <ele>331</ele>
        <time>2021-11-24T14:23:53.000Z</time>
      </trkpt>
      <trkpt lat="43.51501" lon="6.35749">
        <ele>331</ele>
        <time>2021-11-24T14:23:54.000Z</time>
      </trkpt>
      <trkpt lat="43.51502" lon="6.35748">
        <ele>331</ele>
        <time>2021-11-24T14:23:55.000Z</time>
      </trkpt>
      <trkpt lat="43.51502" lon="6.35747">
        <ele>331</ele>
        <time>2021-11-24T14:23:56.000Z</time>
      </trkpt>
      <trkpt lat="43.51503" lon="6.35746">
        <ele>331</ele>
        <time>2021-11-24T14:23:57.000Z</time>
      </trkpt>
      <trkpt lat="43.51503" lon="6.35745">
        <ele>331</ele>
        <time>2021-11-24T14:23:58.000Z</time>
      </trkpt>
      <trkpt lat="43.51503" lon="6.35745">
        <ele>331</ele>
        <time>2021-11-24T14:23:59.000Z</time>
      </trkpt>
      <trkpt lat="43.51503" lon="6.35744">
        <ele>331</ele>
        <time>2021-11-24T14:24:00.000Z</time>
      </trkpt>
      <trkpt lat="43.51503" lon="6.35744">
        <ele>331</ele>
        <time>2021-11-24T14:24:01.000Z</time>
      </trkpt>
      <trkpt lat="43.51504" lon="6.35743">
        <ele>331</ele>
        <time>2021-11-24T14:24:02.000Z</time>
      </trkpt>
      <trkpt lat="43.51504" lon="6.35742">
        <ele>331</ele>
        <time>2021-11-24T14:24:03.000Z</time>
      </trkpt>
      <trkpt lat="43.51505" lon="6.35741">
        <ele>331</ele>
        <time>2021-11-24T14:24:04.000Z</time>
      </trkpt>
      <trkpt lat="43.51506" lon="6.35738">
        <ele>330</ele>
        <time>2021-11-24T14:24:05.000Z</time>
      </trkpt>
      <trkpt lat="43.51508" lon="6.35736">
        <ele>330</ele>
        <time>2021-11-24T14:24:06.000Z</time>
      </trkpt>
      <trkpt lat="43.51509" lon="6.35734">
        <ele>330</ele>
        <time>2021-11-24T14:24:07.000Z</time>
      </trkpt>
      <trkpt lat="43.5151" lon="6.35733">
        <ele>331</ele>
        <time>2021-11-24T14:24:08.000Z</time>
      </trkpt>
      <trkpt lat="43.5151" lon="6.35732">
        <ele>331</ele>
        <time>2021-11-24T14:24:09.000Z</time>
      </trkpt>
      <trkpt lat="43.51511" lon="6.35732">
        <ele>331</ele>
        <time>2021-11-24T14:24:10.000Z</time>
      </trkpt>
      <trkpt lat="43.51512" lon="6.35731">
        <ele>331</ele>
        <time>2021-11-24T14:24:11.000Z</time>
      </trkpt>
      <trkpt lat="43.51513" lon="6.3573">
        <ele>331</ele>
        <time>2021-11-24T14:24:12.000Z</time>
      </trkpt>
      <trkpt lat="43.51514" lon="6.35729">
        <ele>331</ele>
        <time>2021-11-24T14:24:13.000Z</time>
      </trkpt>
      <trkpt lat="43.51516" lon="6.35728">
        <ele>332</ele>
        <time>2021-11-24T14:24:14.000Z</time>
      </trkpt>
      <trkpt lat="43.51517" lon="6.35727">
        <ele>332</ele>
        <time>2021-11-24T14:24:15.000Z</time>
      </trkpt>
      <trkpt lat="43.51518" lon="6.35726">
        <ele>332</ele>
        <time>2021-11-24T14:24:16.000Z</time>
      </trkpt>
      <trkpt lat="43.51519" lon="6.35725">
        <ele>332</ele>
        <time>2021-11-24T14:24:17.000Z</time>
      </trkpt>
      <trkpt lat="43.5152" lon="6.35724">
        <ele>332</ele>
        <time>2021-11-24T14:24:18.000Z</time>
      </trkpt>
      <trkpt lat="43.51521" lon="6.35723">
        <ele>333</ele>
        <time>2021-11-24T14:24:19.000Z</time>
      </trkpt>
      <trkpt lat="43.51522" lon="6.35722">
        <ele>333</ele>
        <time>2021-11-24T14:24:20.000Z</time>
      </trkpt>
      <trkpt lat="43.51523" lon="6.35721">
        <ele>333</ele>
        <time>2021-11-24T14:24:21.000Z</time>
      </trkpt>
      <trkpt lat="43.51524" lon="6.35719">
        <ele>333</ele>
        <time>2021-11-24T14:24:22.000Z</time>
      </trkpt>
      <trkpt lat="43.51525" lon="6.35716">
        <ele>333</ele>
        <time>2021-11-24T14:24:23.000Z</time>
      </trkpt>
      <trkpt lat="43.51525" lon="6.35714">
        <ele>333</ele>
        <time>2021-11-24T14:24:24.000Z</time>
      </trkpt>
      <trkpt lat="43.51526" lon="6.35713">
        <ele>333</ele>
        <time>2021-11-24T14:24:25.000Z</time>
      </trkpt>
      <trkpt lat="43.51527" lon="6.35711">
        <ele>334</ele>
        <time>2021-11-24T14:24:26.000Z</time>
      </trkpt>
      <trkpt lat="43.51528" lon="6.3571">
        <ele>334</ele>
        <time>2021-11-24T14:24:27.000Z</time>
      </trkpt>
      <trkpt lat="43.5153" lon="6.35708">
        <ele>334</ele>
        <time>2021-11-24T14:24:28.000Z</time>
      </trkpt>
      <trkpt lat="43.51531" lon="6.35708">
        <ele>334</ele>
        <time>2021-11-24T14:24:29.000Z</time>
      </trkpt>
      <trkpt lat="43.51532" lon="6.35707">
        <ele>334</ele>
        <time>2021-11-24T14:24:30.000Z</time>
      </trkpt>
      <trkpt lat="43.51533" lon="6.35707">
        <ele>334</ele>
        <time>2021-11-24T14:24:31.000Z</time>
      </trkpt>
      <trkpt lat="43.51534" lon="6.35707">
        <ele>334</ele>
        <time>2021-11-24T14:24:32.000Z</time>
      </trkpt>
      <trkpt lat="43.51535" lon="6.35706">
        <ele>334</ele>
        <time>2021-11-24T14:24:33.000Z</time>
      </trkpt>
      <trkpt lat="43.51536" lon="6.35706">
        <ele>334</ele>
        <time>2021-11-24T14:24:34.000Z</time>
      </trkpt>
      <trkpt lat="43.51538" lon="6.35706">
        <ele>334</ele>
        <time>2021-11-24T14:24:35.000Z</time>
      </trkpt>
      <trkpt lat="43.51539" lon="6.35707">
        <ele>334</ele>
        <time>2021-11-24T14:24:36.000Z</time>
      </trkpt>
      <trkpt lat="43.5154" lon="6.35707">
        <ele>335</ele>
        <time>2021-11-24T14:24:37.000Z</time>
      </trkpt>
      <trkpt lat="43.51541" lon="6.35707">
        <ele>335</ele>
        <time>2021-11-24T14:24:38.000Z</time>
      </trkpt>
      <trkpt lat="43.51542" lon="6.35708">
        <ele>335</ele>
        <time>2021-11-24T14:24:39.000Z</time>
      </trkpt>
      <trkpt lat="43.51543" lon="6.35708">
        <ele>335</ele>
        <time>2021-11-24T14:24:40.000Z</time>
      </trkpt>
      <trkpt lat="43.51544" lon="6.35708">
        <ele>335</ele>
        <time>2021-11-24T14:24:41.000Z</time>
      </trkpt>
      <trkpt lat="43.51545" lon="6.35709">
        <ele>335</ele>
        <time>2021-11-24T14:24:42.000Z</time>
      </trkpt>
      <trkpt lat="43.51546" lon="6.35709">
        <ele>335</ele>
        <time>2021-11-24T14:24:43.000Z</time>
      </trkpt>
      <trkpt lat="43.51548" lon="6.35709">
        <ele>335</ele>
        <time>2021-11-24T14:24:44.000Z</time>
      </trkpt>
      <trkpt lat="43.51549" lon="6.35709">
        <ele>335</ele>
        <time>2021-11-24T14:24:45.000Z</time>
      </trkpt>
      <trkpt lat="43.5155" lon="6.35709">
        <ele>335</ele>
        <time>2021-11-24T14:24:46.000Z</time>
      </trkpt>
      <trkpt lat="43.51551" lon="6.3571">
        <ele>335</ele>
        <time>2021-11-24T14:24:47.000Z</time>
      </trkpt>
      <trkpt lat="43.51552" lon="6.3571">
        <ele>335</ele>
        <time>2021-11-24T14:24:48.000Z</time>
      </trkpt>
      <trkpt lat="43.51553" lon="6.35711">
        <ele>335</ele>
        <time>2021-11-24T14:24:49.000Z</time>
      </trkpt>
      <trkpt lat="43.51554" lon="6.35712">
        <ele>335</ele>
        <time>2021-11-24T14:24:50.000Z</time>
      </trkpt>
      <trkpt lat="43.51555" lon="6.35713">
        <ele>335</ele>
        <time>2021-11-24T14:24:51.000Z</time>
      </trkpt>
      <trkpt lat="43.51556" lon="6.35714">
        <ele>335</ele>
        <time>2021-11-24T14:24:52.000Z</time>
      </trkpt>
      <trkpt lat="43.51557" lon="6.35714">
        <ele>335</ele>
        <time>2021-11-24T14:24:53.000Z</time>
      </trkpt>
      <trkpt lat="43.51558" lon="6.35715">
        <ele>334</ele>
        <time>2021-11-24T14:24:54.000Z</time>
      </trkpt>
      <trkpt lat="43.51559" lon="6.35716">
        <ele>334</ele>
        <time>2021-11-24T14:24:55.000Z</time>
      </trkpt>
      <trkpt lat="43.5156" lon="6.35717">
        <ele>334</ele>
        <time>2021-11-24T14:24:56.000Z</time>
      </trkpt>
      <trkpt lat="43.51561" lon="6.35717">
        <ele>334</ele>
        <time>2021-11-24T14:24:57.000Z</time>
      </trkpt>
      <trkpt lat="43.51562" lon="6.35717">
        <ele>334</ele>
        <time>2021-11-24T14:24:58.000Z</time>
      </trkpt>
      <trkpt lat="43.51563" lon="6.35718">
        <ele>334</ele>
        <time>2021-11-24T14:24:59.000Z</time>
      </trkpt>
      <trkpt lat="43.51565" lon="6.35718">
        <ele>334</ele>
        <time>2021-11-24T14:25:00.000Z</time>
      </trkpt>
      <trkpt lat="43.51566" lon="6.35719">
        <ele>335</ele>
        <time>2021-11-24T14:25:01.000Z</time>
      </trkpt>
      <trkpt lat="43.51566" lon="6.35719">
        <ele>335</ele>
        <time>2021-11-24T14:25:02.000Z</time>
      </trkpt>
      <trkpt lat="43.51567" lon="6.3572">
        <ele>335</ele>
        <time>2021-11-24T14:25:03.000Z</time>
      </trkpt>
      <trkpt lat="43.51568" lon="6.3572">
        <ele>335</ele>
        <time>2021-11-24T14:25:04.000Z</time>
      </trkpt>
      <trkpt lat="43.51569" lon="6.35721">
        <ele>335</ele>
        <time>2021-11-24T14:25:05.000Z</time>
      </trkpt>
      <trkpt lat="43.5157" lon="6.35722">
        <ele>334</ele>
        <time>2021-11-24T14:25:06.000Z</time>
      </trkpt>
      <trkpt lat="43.51571" lon="6.35723">
        <ele>334</ele>
        <time>2021-11-24T14:25:07.000Z</time>
      </trkpt>
      <trkpt lat="43.51572" lon="6.35723">
        <ele>334</ele>
        <time>2021-11-24T14:25:08.000Z</time>
      </trkpt>
      <trkpt lat="43.51573" lon="6.35723">
        <ele>334</ele>
        <time>2021-11-24T14:25:09.000Z</time>
      </trkpt>
      <trkpt lat="43.51575" lon="6.35722">
        <ele>334</ele>
        <time>2021-11-24T14:25:10.000Z</time>
      </trkpt>
      <trkpt lat="43.51576" lon="6.35722">
        <ele>334</ele>
        <time>2021-11-24T14:25:11.000Z</time>
      </trkpt>
      <trkpt lat="43.51578" lon="6.35722">
        <ele>334</ele>
        <time>2021-11-24T14:25:12.000Z</time>
      </trkpt>
      <trkpt lat="43.51579" lon="6.35722">
        <ele>334</ele>
        <time>2021-11-24T14:25:13.000Z</time>
      </trkpt>
      <trkpt lat="43.5158" lon="6.35721">
        <ele>334</ele>
        <time>2021-11-24T14:25:14.000Z</time>
      </trkpt>
      <trkpt lat="43.51581" lon="6.35721">
        <ele>334</ele>
        <time>2021-11-24T14:25:15.000Z</time>
      </trkpt>
      <trkpt lat="43.51582" lon="6.35721">
        <ele>334</ele>
        <time>2021-11-24T14:25:16.000Z</time>
      </trkpt>
      <trkpt lat="43.51583" lon="6.3572">
        <ele>334</ele>
        <time>2021-11-24T14:25:17.000Z</time>
      </trkpt>
      <trkpt lat="43.51584" lon="6.3572">
        <ele>334</ele>
        <time>2021-11-24T14:25:18.000Z</time>
      </trkpt>
      <trkpt lat="43.51585" lon="6.3572">
        <ele>334</ele>
        <time>2021-11-24T14:25:19.000Z</time>
      </trkpt>
      <trkpt lat="43.51586" lon="6.3572">
        <ele>334</ele>
        <time>2021-11-24T14:25:20.000Z</time>
      </trkpt>
      <trkpt lat="43.51586" lon="6.3572">
        <ele>334</ele>
        <time>2021-11-24T14:25:21.000Z</time>
      </trkpt>
      <trkpt lat="43.51587" lon="6.35721">
        <ele>334</ele>
        <time>2021-11-24T14:25:22.000Z</time>
      </trkpt>
      <trkpt lat="43.51588" lon="6.35721">
        <ele>334</ele>
        <time>2021-11-24T14:25:23.000Z</time>
      </trkpt>
      <trkpt lat="43.51589" lon="6.35721">
        <ele>334</ele>
        <time>2021-11-24T14:25:24.000Z</time>
      </trkpt>
      <trkpt lat="43.5159" lon="6.35722">
        <ele>334</ele>
        <time>2021-11-24T14:25:25.000Z</time>
      </trkpt>
      <trkpt lat="43.51591" lon="6.35723">
        <ele>334</ele>
        <time>2021-11-24T14:25:26.000Z</time>
      </trkpt>
      <trkpt lat="43.51592" lon="6.35724">
        <ele>334</ele>
        <time>2021-11-24T14:25:27.000Z</time>
      </trkpt>
      <trkpt lat="43.51593" lon="6.35725">
        <ele>334</ele>
        <time>2021-11-24T14:25:28.000Z</time>
      </trkpt>
      <trkpt lat="43.51594" lon="6.35726">
        <ele>334</ele>
        <time>2021-11-24T14:25:29.000Z</time>
      </trkpt>
      <trkpt lat="43.51595" lon="6.35727">
        <ele>334</ele>
        <time>2021-11-24T14:25:30.000Z</time>
      </trkpt>
      <trkpt lat="43.51595" lon="6.35728">
        <ele>334</ele>
        <time>2021-11-24T14:25:31.000Z</time>
      </trkpt>
      <trkpt lat="43.51596" lon="6.35728">
        <ele>334</ele>
        <time>2021-11-24T14:25:32.000Z</time>
      </trkpt>
      <trkpt lat="43.51597" lon="6.35729">
        <ele>334</ele>
        <time>2021-11-24T14:25:33.000Z</time>
      </trkpt>
      <trkpt lat="43.51598" lon="6.3573">
        <ele>333</ele>
        <time>2021-11-24T14:25:34.000Z</time>
      </trkpt>
      <trkpt lat="43.51599" lon="6.3573">
        <ele>332</ele>
        <time>2021-11-24T14:25:35.000Z</time>
      </trkpt>
      <trkpt lat="43.516" lon="6.3573">
        <ele>332</ele>
        <time>2021-11-24T14:25:36.000Z</time>
      </trkpt>
      <trkpt lat="43.51601" lon="6.35731">
        <ele>332</ele>
        <time>2021-11-24T14:25:37.000Z</time>
      </trkpt>
      <trkpt lat="43.51603" lon="6.35731">
        <ele>332</ele>
        <time>2021-11-24T14:25:38.000Z</time>
      </trkpt>
      <trkpt lat="43.51604" lon="6.35731">
        <ele>332</ele>
        <time>2021-11-24T14:25:39.000Z</time>
      </trkpt>
      <trkpt lat="43.51605" lon="6.3573">
        <ele>332</ele>
        <time>2021-11-24T14:25:40.000Z</time>
      </trkpt>
      <trkpt lat="43.51606" lon="6.3573">
        <ele>332</ele>
        <time>2021-11-24T14:25:41.000Z</time>
      </trkpt>
      <trkpt lat="43.51607" lon="6.3573">
        <ele>331</ele>
        <time>2021-11-24T14:25:42.000Z</time>
      </trkpt>
      <trkpt lat="43.51608" lon="6.3573">
        <ele>331</ele>
        <time>2021-11-24T14:25:43.000Z</time>
      </trkpt>
      <trkpt lat="43.51609" lon="6.3573">
        <ele>331</ele>
        <time>2021-11-24T14:25:44.000Z</time>
      </trkpt>
      <trkpt lat="43.5161" lon="6.3573">
        <ele>331</ele>
        <time>2021-11-24T14:25:45.000Z</time>
      </trkpt>
      <trkpt lat="43.51611" lon="6.3573">
        <ele>331</ele>
        <time>2021-11-24T14:25:46.000Z</time>
      </trkpt>
      <trkpt lat="43.51611" lon="6.3573">
        <ele>332</ele>
        <time>2021-11-24T14:25:47.000Z</time>
      </trkpt>
      <trkpt lat="43.51612" lon="6.3573">
        <ele>332</ele>
        <time>2021-11-24T14:25:48.000Z</time>
      </trkpt>
      <trkpt lat="43.51612" lon="6.35731">
        <ele>332</ele>
        <time>2021-11-24T14:25:49.000Z</time>
      </trkpt>
      <trkpt lat="43.51613" lon="6.35731">
        <ele>332</ele>
        <time>2021-11-24T14:25:50.000Z</time>
      </trkpt>
      <trkpt lat="43.51614" lon="6.35731">
        <ele>332</ele>
        <time>2021-11-24T14:25:51.000Z</time>
      </trkpt>
      <trkpt lat="43.51614" lon="6.35731">
        <ele>332</ele>
        <time>2021-11-24T14:25:52.000Z</time>
      </trkpt>
      <trkpt lat="43.51614" lon="6.35732">
        <ele>332</ele>
        <time>2021-11-24T14:25:53.000Z</time>
      </trkpt>
      <trkpt lat="43.51615" lon="6.35732">
        <ele>332</ele>
        <time>2021-11-24T14:25:54.000Z</time>
      </trkpt>
      <trkpt lat="43.51615" lon="6.35732">
        <ele>332</ele>
        <time>2021-11-24T14:25:55.000Z</time>
      </trkpt>
      <trkpt lat="43.51615" lon="6.35731">
        <ele>332</ele>
        <time>2021-11-24T14:25:56.000Z</time>
      </trkpt>
      <trkpt lat="43.51616" lon="6.35731">
        <ele>332</ele>
        <time>2021-11-24T14:25:57.000Z</time>
      </trkpt>
      <trkpt lat="43.51616" lon="6.35731">
        <ele>332</ele>
        <time>2021-11-24T14:25:58.000Z</time>
      </trkpt>
      <trkpt lat="43.51617" lon="6.35732">
        <ele>332</ele>
        <time>2021-11-24T14:25:59.000Z</time>
      </trkpt>
      <trkpt lat="43.51617" lon="6.35732">
        <ele>332</ele>
        <time>2021-11-24T14:26:00.000Z</time>
      </trkpt>
      <trkpt lat="43.51618" lon="6.35733">
        <ele>332</ele>
        <time>2021-11-24T14:26:01.000Z</time>
      </trkpt>
      <trkpt lat="43.51619" lon="6.35733">
        <ele>332</ele>
        <time>2021-11-24T14:26:02.000Z</time>
      </trkpt>
      <trkpt lat="43.5162" lon="6.35733">
        <ele>332</ele>
        <time>2021-11-24T14:26:03.000Z</time>
      </trkpt>
      <trkpt lat="43.51621" lon="6.35734">
        <ele>332</ele>
        <time>2021-11-24T14:26:04.000Z</time>
      </trkpt>
      <trkpt lat="43.51622" lon="6.35734">
        <ele>332</ele>
        <time>2021-11-24T14:26:05.000Z</time>
      </trkpt>
      <trkpt lat="43.51622" lon="6.35735">
        <ele>332</ele>
        <time>2021-11-24T14:26:06.000Z</time>
      </trkpt>
      <trkpt lat="43.51623" lon="6.35735">
        <ele>332</ele>
        <time>2021-11-24T14:26:07.000Z</time>
      </trkpt>
      <trkpt lat="43.51623" lon="6.35735">
        <ele>332</ele>
        <time>2021-11-24T14:26:08.000Z</time>
      </trkpt>
      <trkpt lat="43.51623" lon="6.35735">
        <ele>332</ele>
        <time>2021-11-24T14:26:09.000Z</time>
      </trkpt>
      <trkpt lat="43.51623" lon="6.35735">
        <ele>332</ele>
        <time>2021-11-24T14:26:10.000Z</time>
      </trkpt>
      <trkpt lat="43.51623" lon="6.35735">
        <ele>332</ele>
        <time>2021-11-24T14:26:11.000Z</time>
      </trkpt>
      <trkpt lat="43.51623" lon="6.35735">
        <ele>332</ele>
        <time>2021-11-24T14:26:12.000Z</time>
      </trkpt>
      <trkpt lat="43.51623" lon="6.35734">
        <ele>332</ele>
        <time>2021-11-24T14:26:13.000Z</time>
      </trkpt>
      <trkpt lat="43.51623" lon="6.35734">
        <ele>332</ele>
        <time>2021-11-24T14:26:14.000Z</time>
      </trkpt>
      <trkpt lat="43.51623" lon="6.35735">
        <ele>332</ele>
        <time>2021-11-24T14:26:15.000Z</time>
      </trkpt>
      <trkpt lat="43.51623" lon="6.35734">
        <ele>332</ele>
        <time>2021-11-24T14:26:16.000Z</time>
      </trkpt>
      <trkpt lat="43.51623" lon="6.35733">
        <ele>332</ele>
        <time>2021-11-24T14:26:17.000Z</time>
      </trkpt>
      <trkpt lat="43.51624" lon="6.35732">
        <ele>332</ele>
        <time>2021-11-24T14:26:18.000Z</time>
      </trkpt>
      <trkpt lat="43.51625" lon="6.35731">
        <ele>332</ele>
        <time>2021-11-24T14:26:19.000Z</time>
      </trkpt>
      <trkpt lat="43.51626" lon="6.35728">
        <ele>332</ele>
        <time>2021-11-24T14:26:20.000Z</time>
      </trkpt>
      <trkpt lat="43.51626" lon="6.35727">
        <ele>332</ele>
        <time>2021-11-24T14:26:21.000Z</time>
      </trkpt>
      <trkpt lat="43.51627" lon="6.35726">
        <ele>332</ele>
        <time>2021-11-24T14:26:22.000Z</time>
      </trkpt>
      <trkpt lat="43.51627" lon="6.35726">
        <ele>332</ele>
        <time>2021-11-24T14:26:23.000Z</time>
      </trkpt>
      <trkpt lat="43.51628" lon="6.35726">
        <ele>332</ele>
        <time>2021-11-24T14:26:24.000Z</time>
      </trkpt>
      <trkpt lat="43.51629" lon="6.35726">
        <ele>332</ele>
        <time>2021-11-24T14:26:25.000Z</time>
      </trkpt>
      <trkpt lat="43.51631" lon="6.35726">
        <ele>332</ele>
        <time>2021-11-24T14:26:26.000Z</time>
      </trkpt>
      <trkpt lat="43.51632" lon="6.35727">
        <ele>332</ele>
        <time>2021-11-24T14:26:27.000Z</time>
      </trkpt>
      <trkpt lat="43.51633" lon="6.35727">
        <ele>332</ele>
        <time>2021-11-24T14:26:28.000Z</time>
      </trkpt>
      <trkpt lat="43.51634" lon="6.35727">
        <ele>332</ele>
        <time>2021-11-24T14:26:29.000Z</time>
      </trkpt>
      <trkpt lat="43.51634" lon="6.35728">
        <ele>332</ele>
        <time>2021-11-24T14:26:30.000Z</time>
      </trkpt>
      <trkpt lat="43.51635" lon="6.35728">
        <ele>332</ele>
        <time>2021-11-24T14:26:31.000Z</time>
      </trkpt>
      <trkpt lat="43.51636" lon="6.35729">
        <ele>332</ele>
        <time>2021-11-24T14:26:32.000Z</time>
      </trkpt>
      <trkpt lat="43.51637" lon="6.35729">
        <ele>332</ele>
        <time>2021-11-24T14:26:33.000Z</time>
      </trkpt>
      <trkpt lat="43.51638" lon="6.3573">
        <ele>332</ele>
        <time>2021-11-24T14:26:34.000Z</time>
      </trkpt>
      <trkpt lat="43.51639" lon="6.3573">
        <ele>332</ele>
        <time>2021-11-24T14:26:35.000Z</time>
      </trkpt>
      <trkpt lat="43.5164" lon="6.35731">
        <ele>332</ele>
        <time>2021-11-24T14:26:36.000Z</time>
      </trkpt>
      <trkpt lat="43.51642" lon="6.35731">
        <ele>332</ele>
        <time>2021-11-24T14:26:37.000Z</time>
      </trkpt>
      <trkpt lat="43.51643" lon="6.35731">
        <ele>331</ele>
        <time>2021-11-24T14:26:38.000Z</time>
      </trkpt>
      <trkpt lat="43.51644" lon="6.35732">
        <ele>331</ele>
        <time>2021-11-24T14:26:39.000Z</time>
      </trkpt>
      <trkpt lat="43.51645" lon="6.35733">
        <ele>331</ele>
        <time>2021-11-24T14:26:40.000Z</time>
      </trkpt>
      <trkpt lat="43.51646" lon="6.35733">
        <ele>331</ele>
        <time>2021-11-24T14:26:41.000Z</time>
      </trkpt>
      <trkpt lat="43.51648" lon="6.35734">
        <ele>331</ele>
        <time>2021-11-24T14:26:42.000Z</time>
      </trkpt>
      <trkpt lat="43.51649" lon="6.35735">
        <ele>331</ele>
        <time>2021-11-24T14:26:43.000Z</time>
      </trkpt>
      <trkpt lat="43.5165" lon="6.35736">
        <ele>331</ele>
        <time>2021-11-24T14:26:44.000Z</time>
      </trkpt>
      <trkpt lat="43.51651" lon="6.35736">
        <ele>331</ele>
        <time>2021-11-24T14:26:45.000Z</time>
      </trkpt>
      <trkpt lat="43.51651" lon="6.35737">
        <ele>331</ele>
        <time>2021-11-24T14:26:46.000Z</time>
      </trkpt>
      <trkpt lat="43.51652" lon="6.35738">
        <ele>330</ele>
        <time>2021-11-24T14:26:47.000Z</time>
      </trkpt>
      <trkpt lat="43.51653" lon="6.35739">
        <ele>330</ele>
        <time>2021-11-24T14:26:48.000Z</time>
      </trkpt>
      <trkpt lat="43.51654" lon="6.3574">
        <ele>330</ele>
        <time>2021-11-24T14:26:49.000Z</time>
      </trkpt>
      <trkpt lat="43.51656" lon="6.35742">
        <ele>330</ele>
        <time>2021-11-24T14:26:50.000Z</time>
      </trkpt>
      <trkpt lat="43.51657" lon="6.35743">
        <ele>330</ele>
        <time>2021-11-24T14:26:51.000Z</time>
      </trkpt>
      <trkpt lat="43.51658" lon="6.35744">
        <ele>330</ele>
        <time>2021-11-24T14:26:52.000Z</time>
      </trkpt>
      <trkpt lat="43.51659" lon="6.35745">
        <ele>329</ele>
        <time>2021-11-24T14:26:53.000Z</time>
      </trkpt>
      <trkpt lat="43.5166" lon="6.35746">
        <ele>329</ele>
        <time>2021-11-24T14:26:54.000Z</time>
      </trkpt>
      <trkpt lat="43.51661" lon="6.35747">
        <ele>329</ele>
        <time>2021-11-24T14:26:55.000Z</time>
      </trkpt>
      <trkpt lat="43.51662" lon="6.35747">
        <ele>329</ele>
        <time>2021-11-24T14:26:56.000Z</time>
      </trkpt>
      <trkpt lat="43.51662" lon="6.35747">
        <ele>329</ele>
        <time>2021-11-24T14:26:57.000Z</time>
      </trkpt>
      <trkpt lat="43.51663" lon="6.35747">
        <ele>329</ele>
        <time>2021-11-24T14:26:58.000Z</time>
      </trkpt>
      <trkpt lat="43.51663" lon="6.35747">
        <ele>329</ele>
        <time>2021-11-24T14:26:59.000Z</time>
      </trkpt>
      <trkpt lat="43.51663" lon="6.35747">
        <ele>329</ele>
        <time>2021-11-24T14:27:00.000Z</time>
      </trkpt>
      <trkpt lat="43.51663" lon="6.35747">
        <ele>329</ele>
        <time>2021-11-24T14:27:01.000Z</time>
      </trkpt>
      <trkpt lat="43.51663" lon="6.35748">
        <ele>329</ele>
        <time>2021-11-24T14:27:02.000Z</time>
      </trkpt>
      <trkpt lat="43.51664" lon="6.35748">
        <ele>329</ele>
        <time>2021-11-24T14:27:03.000Z</time>
      </trkpt>
      <trkpt lat="43.51664" lon="6.35748">
        <ele>329</ele>
        <time>2021-11-24T14:27:04.000Z</time>
      </trkpt>
      <trkpt lat="43.51664" lon="6.35749">
        <ele>329</ele>
        <time>2021-11-24T14:27:05.000Z</time>
      </trkpt>
      <trkpt lat="43.51665" lon="6.3575">
        <ele>329</ele>
        <time>2021-11-24T14:27:06.000Z</time>
      </trkpt>
      <trkpt lat="43.51665" lon="6.3575">
        <ele>329</ele>
        <time>2021-11-24T14:27:07.000Z</time>
      </trkpt>
      <trkpt lat="43.51665" lon="6.3575">
        <ele>329</ele>
        <time>2021-11-24T14:27:08.000Z</time>
      </trkpt>
      <trkpt lat="43.51666" lon="6.35751">
        <ele>329</ele>
        <time>2021-11-24T14:27:09.000Z</time>
      </trkpt>
      <trkpt lat="43.51667" lon="6.35751">
        <ele>329</ele>
        <time>2021-11-24T14:27:10.000Z</time>
      </trkpt>
      <trkpt lat="43.51668" lon="6.35751">
        <ele>329</ele>
        <time>2021-11-24T14:27:11.000Z</time>
      </trkpt>
      <trkpt lat="43.51668" lon="6.35749">
        <ele>329</ele>
        <time>2021-11-24T14:27:12.000Z</time>
      </trkpt>
      <trkpt lat="43.51669" lon="6.35748">
        <ele>329</ele>
        <time>2021-11-24T14:27:13.000Z</time>
      </trkpt>
      <trkpt lat="43.51669" lon="6.35746">
        <ele>329</ele>
        <time>2021-11-24T14:27:14.000Z</time>
      </trkpt>
      <trkpt lat="43.5167" lon="6.35744">
        <ele>329</ele>
        <time>2021-11-24T14:27:15.000Z</time>
      </trkpt>
      <trkpt lat="43.5167" lon="6.35743">
        <ele>329</ele>
        <time>2021-11-24T14:27:16.000Z</time>
      </trkpt>
      <trkpt lat="43.51671" lon="6.35742">
        <ele>329</ele>
        <time>2021-11-24T14:27:17.000Z</time>
      </trkpt>
      <trkpt lat="43.51672" lon="6.35741">
        <ele>329</ele>
        <time>2021-11-24T14:27:18.000Z</time>
      </trkpt>
      <trkpt lat="43.51673" lon="6.3574">
        <ele>329</ele>
        <time>2021-11-24T14:27:19.000Z</time>
      </trkpt>
      <trkpt lat="43.51673" lon="6.35738">
        <ele>329</ele>
        <time>2021-11-24T14:27:20.000Z</time>
      </trkpt>
      <trkpt lat="43.51673" lon="6.35736">
        <ele>329</ele>
        <time>2021-11-24T14:27:21.000Z</time>
      </trkpt>
      <trkpt lat="43.51673" lon="6.35736">
        <ele>329</ele>
        <time>2021-11-24T14:27:22.000Z</time>
      </trkpt>
      <trkpt lat="43.51672" lon="6.35736">
        <ele>329</ele>
        <time>2021-11-24T14:27:23.000Z</time>
      </trkpt>
      <trkpt lat="43.51672" lon="6.35735">
        <ele>329</ele>
        <time>2021-11-24T14:27:24.000Z</time>
      </trkpt>
      <trkpt lat="43.51673" lon="6.35735">
        <ele>329</ele>
        <time>2021-11-24T14:27:25.000Z</time>
      </trkpt>
      <trkpt lat="43.51673" lon="6.35734">
        <ele>329</ele>
        <time>2021-11-24T14:27:26.000Z</time>
      </trkpt>
      <trkpt lat="43.51673" lon="6.35732">
        <ele>329</ele>
        <time>2021-11-24T14:27:27.000Z</time>
      </trkpt>
      <trkpt lat="43.51673" lon="6.35732">
        <ele>329</ele>
        <time>2021-11-24T14:27:28.000Z</time>
      </trkpt>
      <trkpt lat="43.51673" lon="6.35731">
        <ele>329</ele>
        <time>2021-11-24T14:27:29.000Z</time>
      </trkpt>
      <trkpt lat="43.51673" lon="6.35731">
        <ele>329</ele>
        <time>2021-11-24T14:27:30.000Z</time>
      </trkpt>
      <trkpt lat="43.51673" lon="6.35731">
        <ele>329</ele>
        <time>2021-11-24T14:27:31.000Z</time>
      </trkpt>
      <trkpt lat="43.51673" lon="6.35731">
        <ele>329</ele>
        <time>2021-11-24T14:27:32.000Z</time>
      </trkpt>
      <trkpt lat="43.51673" lon="6.3573">
        <ele>329</ele>
        <time>2021-11-24T14:27:33.000Z</time>
      </trkpt>
      <trkpt lat="43.51673" lon="6.3573">
        <ele>329</ele>
        <time>2021-11-24T14:27:34.000Z</time>
      </trkpt>
      <trkpt lat="43.51673" lon="6.3573">
        <ele>329</ele>
        <time>2021-11-24T14:27:35.000Z</time>
      </trkpt>
      <trkpt lat="43.51673" lon="6.3573">
        <ele>329</ele>
        <time>2021-11-24T14:27:36.000Z</time>
      </trkpt>
      <trkpt lat="43.51673" lon="6.35729">
        <ele>329</ele>
        <time>2021-11-24T14:27:37.000Z</time>
      </trkpt>
      <trkpt lat="43.51673" lon="6.35729">
        <ele>329</ele>
        <time>2021-11-24T14:27:38.000Z</time>
      </trkpt>
      <trkpt lat="43.51673" lon="6.35728">
        <ele>329</ele>
        <time>2021-11-24T14:27:39.000Z</time>
      </trkpt>
      <trkpt lat="43.51673" lon="6.35728">
        <ele>329</ele>
        <time>2021-11-24T14:27:40.000Z</time>
      </trkpt>
      <trkpt lat="43.51673" lon="6.35728">
        <ele>329</ele>
        <time>2021-11-24T14:27:41.000Z</time>
      </trkpt>
      <trkpt lat="43.51673" lon="6.35728">
        <ele>329</ele>
        <time>2021-11-24T14:27:42.000Z</time>
      </trkpt>
      <trkpt lat="43.51673" lon="6.35728">
        <ele>329</ele>
        <time>2021-11-24T14:27:43.000Z</time>
      </trkpt>
      <trkpt lat="43.51673" lon="6.35727">
        <ele>329</ele>
        <time>2021-11-24T14:27:44.000Z</time>
      </trkpt>
      <trkpt lat="43.51673" lon="6.35727">
        <ele>329</ele>
        <time>2021-11-24T14:27:45.000Z</time>
      </trkpt>
      <trkpt lat="43.51674" lon="6.35727">
        <ele>329</ele>
        <time>2021-11-24T14:27:46.000Z</time>
      </trkpt>
      <trkpt lat="43.51674" lon="6.35727">
        <ele>329</ele>
        <time>2021-11-24T14:27:47.000Z</time>
      </trkpt>
      <trkpt lat="43.51674" lon="6.35727">
        <ele>329</ele>
        <time>2021-11-24T14:27:48.000Z</time>
      </trkpt>
      <trkpt lat="43.51674" lon="6.35727">
        <ele>329</ele>
        <time>2021-11-24T14:27:49.000Z</time>
      </trkpt>
      <trkpt lat="43.51674" lon="6.35727">
        <ele>329</ele>
        <time>2021-11-24T14:27:50.000Z</time>
      </trkpt>
      <trkpt lat="43.51674" lon="6.35727">
        <ele>329</ele>
        <time>2021-11-24T14:27:51.000Z</time>
      </trkpt>
      <trkpt lat="43.51674" lon="6.35727">
        <ele>329</ele>
        <time>2021-11-24T14:27:52.000Z</time>
      </trkpt>
      <trkpt lat="43.51674" lon="6.35727">
        <ele>329</ele>
        <time>2021-11-24T14:27:53.000Z</time>
      </trkpt>
      <trkpt lat="43.51674" lon="6.35727">
        <ele>329</ele>
        <time>2021-11-24T14:27:54.000Z</time>
      </trkpt>
      <trkpt lat="43.51674" lon="6.35727">
        <ele>329</ele>
        <time>2021-11-24T14:27:55.000Z</time>
      </trkpt>
      <trkpt lat="43.51674" lon="6.35727">
        <ele>329</ele>
        <time>2021-11-24T14:27:56.000Z</time>
      </trkpt>
      <trkpt lat="43.51674" lon="6.35727">
        <ele>329</ele>
        <time>2021-11-24T14:27:57.000Z</time>
      </trkpt>
      <trkpt lat="43.51674" lon="6.35727">
        <ele>329</ele>
        <time>2021-11-24T14:27:58.000Z</time>
      </trkpt>
      <trkpt lat="43.51674" lon="6.35726">
        <ele>329</ele>
        <time>2021-11-24T14:27:59.000Z</time>
      </trkpt>
      <trkpt lat="43.51674" lon="6.35725">
        <ele>329</ele>
        <time>2021-11-24T14:28:00.000Z</time>
      </trkpt>
      <trkpt lat="43.51674" lon="6.35725">
        <ele>329</ele>
        <time>2021-11-24T14:28:01.000Z</time>
      </trkpt>
      <trkpt lat="43.51674" lon="6.35725">
        <ele>329</ele>
        <time>2021-11-24T14:28:02.000Z</time>
      </trkpt>
      <trkpt lat="43.51674" lon="6.35725">
        <ele>329</ele>
        <time>2021-11-24T14:28:03.000Z</time>
      </trkpt>
      <trkpt lat="43.51674" lon="6.35725">
        <ele>329</ele>
        <time>2021-11-24T14:28:04.000Z</time>
      </trkpt>
      <trkpt lat="43.51674" lon="6.35725">
        <ele>329</ele>
        <time>2021-11-24T14:28:05.000Z</time>
      </trkpt>
      <trkpt lat="43.51674" lon="6.35725">
        <ele>329</ele>
        <time>2021-11-24T14:28:06.000Z</time>
      </trkpt>
      <trkpt lat="43.51674" lon="6.35725">
        <ele>329</ele>
        <time>2021-11-24T14:28:07.000Z</time>
      </trkpt>
      <trkpt lat="43.51674" lon="6.35725">
        <ele>329</ele>
        <time>2021-11-24T14:28:08.000Z</time>
      </trkpt>
      <trkpt lat="43.51674" lon="6.35725">
        <ele>329</ele>
        <time>2021-11-24T14:28:09.000Z</time>
      </trkpt>
      <trkpt lat="43.51674" lon="6.35725">
        <ele>329</ele>
        <time>2021-11-24T14:28:10.000Z</time>
      </trkpt>
      <trkpt lat="43.51674" lon="6.35725">
        <ele>329</ele>
        <time>2021-11-24T14:28:11.000Z</time>
      </trkpt>
      <trkpt lat="43.51674" lon="6.35726">
        <ele>329</ele>
        <time>2021-11-24T14:28:12.000Z</time>
      </trkpt>
      <trkpt lat="43.51674" lon="6.35726">
        <ele>329</ele>
        <time>2021-11-24T14:28:13.000Z</time>
      </trkpt>
      <trkpt lat="43.51674" lon="6.35727">
        <ele>329</ele>
        <time>2021-11-24T14:28:14.000Z</time>
      </trkpt>
      <trkpt lat="43.51674" lon="6.35727">
        <ele>329</ele>
        <time>2021-11-24T14:28:15.000Z</time>
      </trkpt>
      <trkpt lat="43.51674" lon="6.35727">
        <ele>329</ele>
        <time>2021-11-24T14:28:16.000Z</time>
      </trkpt>
      <trkpt lat="43.51674" lon="6.35727">
        <ele>329</ele>
        <time>2021-11-24T14:28:17.000Z</time>
      </trkpt>
      <trkpt lat="43.51674" lon="6.35728">
        <ele>329</ele>
        <time>2021-11-24T14:28:18.000Z</time>
      </trkpt>
      <trkpt lat="43.51675" lon="6.35729">
        <ele>329</ele>
        <time>2021-11-24T14:28:19.000Z</time>
      </trkpt>
      <trkpt lat="43.51675" lon="6.3573">
        <ele>329</ele>
        <time>2021-11-24T14:28:20.000Z</time>
      </trkpt>
      <trkpt lat="43.51675" lon="6.35731">
        <ele>329</ele>
        <time>2021-11-24T14:28:21.000Z</time>
      </trkpt>
      <trkpt lat="43.51676" lon="6.35732">
        <ele>329</ele>
        <time>2021-11-24T14:28:22.000Z</time>
      </trkpt>
      <trkpt lat="43.51676" lon="6.35733">
        <ele>329</ele>
        <time>2021-11-24T14:28:23.000Z</time>
      </trkpt>
      <trkpt lat="43.51677" lon="6.35735">
        <ele>329</ele>
        <time>2021-11-24T14:28:24.000Z</time>
      </trkpt>
      <trkpt lat="43.51678" lon="6.35737">
        <ele>329</ele>
        <time>2021-11-24T14:28:25.000Z</time>
      </trkpt>
      <trkpt lat="43.51679" lon="6.35739">
        <ele>329</ele>
        <time>2021-11-24T14:28:26.000Z</time>
      </trkpt>
      <trkpt lat="43.51679" lon="6.35741">
        <ele>329</ele>
        <time>2021-11-24T14:28:27.000Z</time>
      </trkpt>
      <trkpt lat="43.5168" lon="6.35742">
        <ele>328</ele>
        <time>2021-11-24T14:28:28.000Z</time>
      </trkpt>
      <trkpt lat="43.5168" lon="6.35744">
        <ele>328</ele>
        <time>2021-11-24T14:28:29.000Z</time>
      </trkpt>
      <trkpt lat="43.5168" lon="6.35744">
        <ele>328</ele>
        <time>2021-11-24T14:28:30.000Z</time>
      </trkpt>
      <trkpt lat="43.5168" lon="6.35745">
        <ele>328</ele>
        <time>2021-11-24T14:28:31.000Z</time>
      </trkpt>
      <trkpt lat="43.5168" lon="6.35745">
        <ele>328</ele>
        <time>2021-11-24T14:28:32.000Z</time>
      </trkpt>
      <trkpt lat="43.5168" lon="6.35746">
        <ele>328</ele>
        <time>2021-11-24T14:28:33.000Z</time>
      </trkpt>
      <trkpt lat="43.5168" lon="6.35746">
        <ele>328</ele>
        <time>2021-11-24T14:28:34.000Z</time>
      </trkpt>
      <trkpt lat="43.51681" lon="6.35747">
        <ele>328</ele>
        <time>2021-11-24T14:28:35.000Z</time>
      </trkpt>
      <trkpt lat="43.51681" lon="6.35748">
        <ele>328</ele>
        <time>2021-11-24T14:28:36.000Z</time>
      </trkpt>
      <trkpt lat="43.51682" lon="6.35749">
        <ele>327</ele>
        <time>2021-11-24T14:28:37.000Z</time>
      </trkpt>
      <trkpt lat="43.51683" lon="6.3575">
        <ele>327</ele>
        <time>2021-11-24T14:28:38.000Z</time>
      </trkpt>
      <trkpt lat="43.51684" lon="6.35752">
        <ele>327</ele>
        <time>2021-11-24T14:28:39.000Z</time>
      </trkpt>
      <trkpt lat="43.51686" lon="6.35754">
        <ele>327</ele>
        <time>2021-11-24T14:28:40.000Z</time>
      </trkpt>
      <trkpt lat="43.51687" lon="6.35756">
        <ele>327</ele>
        <time>2021-11-24T14:28:41.000Z</time>
      </trkpt>
      <trkpt lat="43.51689" lon="6.35757">
        <ele>327</ele>
        <time>2021-11-24T14:28:42.000Z</time>
      </trkpt>
      <trkpt lat="43.5169" lon="6.35758">
        <ele>327</ele>
        <time>2021-11-24T14:28:43.000Z</time>
      </trkpt>
      <trkpt lat="43.51691" lon="6.35758">
        <ele>326</ele>
        <time>2021-11-24T14:28:44.000Z</time>
      </trkpt>
      <trkpt lat="43.51692" lon="6.35759">
        <ele>326</ele>
        <time>2021-11-24T14:28:45.000Z</time>
      </trkpt>
      <trkpt lat="43.51693" lon="6.3576">
        <ele>326</ele>
        <time>2021-11-24T14:28:46.000Z</time>
      </trkpt>
      <trkpt lat="43.51694" lon="6.3576">
        <ele>326</ele>
        <time>2021-11-24T14:28:47.000Z</time>
      </trkpt>
      <trkpt lat="43.51695" lon="6.35761">
        <ele>326</ele>
        <time>2021-11-24T14:28:48.000Z</time>
      </trkpt>
      <trkpt lat="43.51696" lon="6.35761">
        <ele>326</ele>
        <time>2021-11-24T14:28:49.000Z</time>
      </trkpt>
      <trkpt lat="43.51697" lon="6.35761">
        <ele>325</ele>
        <time>2021-11-24T14:28:50.000Z</time>
      </trkpt>
      <trkpt lat="43.51699" lon="6.35762">
        <ele>325</ele>
        <time>2021-11-24T14:28:51.000Z</time>
      </trkpt>
      <trkpt lat="43.51701" lon="6.35763">
        <ele>325</ele>
        <time>2021-11-24T14:28:52.000Z</time>
      </trkpt>
      <trkpt lat="43.51703" lon="6.35763">
        <ele>325</ele>
        <time>2021-11-24T14:28:53.000Z</time>
      </trkpt>
      <trkpt lat="43.51705" lon="6.35764">
        <ele>325</ele>
        <time>2021-11-24T14:28:54.000Z</time>
      </trkpt>
      <trkpt lat="43.51706" lon="6.35764">
        <ele>325</ele>
        <time>2021-11-24T14:28:55.000Z</time>
      </trkpt>
      <trkpt lat="43.51708" lon="6.35764">
        <ele>325</ele>
        <time>2021-11-24T14:28:56.000Z</time>
      </trkpt>
      <trkpt lat="43.51709" lon="6.35764">
        <ele>325</ele>
        <time>2021-11-24T14:28:57.000Z</time>
      </trkpt>
      <trkpt lat="43.5171" lon="6.35764">
        <ele>325</ele>
        <time>2021-11-24T14:28:58.000Z</time>
      </trkpt>
      <trkpt lat="43.51711" lon="6.35764">
        <ele>325</ele>
        <time>2021-11-24T14:28:59.000Z</time>
      </trkpt>
      <trkpt lat="43.51712" lon="6.35763">
        <ele>325</ele>
        <time>2021-11-24T14:29:00.000Z</time>
      </trkpt>
      <trkpt lat="43.51713" lon="6.35762">
        <ele>325</ele>
        <time>2021-11-24T14:29:01.000Z</time>
      </trkpt>
      <trkpt lat="43.51714" lon="6.35761">
        <ele>325</ele>
        <time>2021-11-24T14:29:02.000Z</time>
      </trkpt>
      <trkpt lat="43.51715" lon="6.3576">
        <ele>325</ele>
        <time>2021-11-24T14:29:03.000Z</time>
      </trkpt>
      <trkpt lat="43.51716" lon="6.35759">
        <ele>325</ele>
        <time>2021-11-24T14:29:04.000Z</time>
      </trkpt>
      <trkpt lat="43.51717" lon="6.35758">
        <ele>325</ele>
        <time>2021-11-24T14:29:05.000Z</time>
      </trkpt>
      <trkpt lat="43.51718" lon="6.35757">
        <ele>325</ele>
        <time>2021-11-24T14:29:06.000Z</time>
      </trkpt>
      <trkpt lat="43.51719" lon="6.35756">
        <ele>325</ele>
        <time>2021-11-24T14:29:07.000Z</time>
      </trkpt>
      <trkpt lat="43.5172" lon="6.35756">
        <ele>325</ele>
        <time>2021-11-24T14:29:08.000Z</time>
      </trkpt>
      <trkpt lat="43.51721" lon="6.35755">
        <ele>325</ele>
        <time>2021-11-24T14:29:09.000Z</time>
      </trkpt>
      <trkpt lat="43.51721" lon="6.35754">
        <ele>325</ele>
        <time>2021-11-24T14:29:10.000Z</time>
      </trkpt>
      <trkpt lat="43.51722" lon="6.35753">
        <ele>325</ele>
        <time>2021-11-24T14:29:11.000Z</time>
      </trkpt>
      <trkpt lat="43.51722" lon="6.35751">
        <ele>325</ele>
        <time>2021-11-24T14:29:12.000Z</time>
      </trkpt>
      <trkpt lat="43.51723" lon="6.3575">
        <ele>325</ele>
        <time>2021-11-24T14:29:13.000Z</time>
      </trkpt>
      <trkpt lat="43.51723" lon="6.35749">
        <ele>325</ele>
        <time>2021-11-24T14:29:14.000Z</time>
      </trkpt>
      <trkpt lat="43.51723" lon="6.35748">
        <ele>325</ele>
        <time>2021-11-24T14:29:15.000Z</time>
      </trkpt>
      <trkpt lat="43.51723" lon="6.35747">
        <ele>325</ele>
        <time>2021-11-24T14:29:16.000Z</time>
      </trkpt>
      <trkpt lat="43.51724" lon="6.35747">
        <ele>325</ele>
        <time>2021-11-24T14:29:17.000Z</time>
      </trkpt>
      <trkpt lat="43.51724" lon="6.35745">
        <ele>325</ele>
        <time>2021-11-24T14:29:18.000Z</time>
      </trkpt>
      <trkpt lat="43.51725" lon="6.35744">
        <ele>325</ele>
        <time>2021-11-24T14:29:19.000Z</time>
      </trkpt>
      <trkpt lat="43.51725" lon="6.35743">
        <ele>325</ele>
        <time>2021-11-24T14:29:20.000Z</time>
      </trkpt>
      <trkpt lat="43.51725" lon="6.35742">
        <ele>325</ele>
        <time>2021-11-24T14:29:21.000Z</time>
      </trkpt>
      <trkpt lat="43.51726" lon="6.35741">
        <ele>325</ele>
        <time>2021-11-24T14:29:22.000Z</time>
      </trkpt>
      <trkpt lat="43.51726" lon="6.3574">
        <ele>325</ele>
        <time>2021-11-24T14:29:23.000Z</time>
      </trkpt>
      <trkpt lat="43.51726" lon="6.35739">
        <ele>325</ele>
        <time>2021-11-24T14:29:24.000Z</time>
      </trkpt>
      <trkpt lat="43.51726" lon="6.35737">
        <ele>325</ele>
        <time>2021-11-24T14:29:25.000Z</time>
      </trkpt>
      <trkpt lat="43.51727" lon="6.35736">
        <ele>325</ele>
        <time>2021-11-24T14:29:26.000Z</time>
      </trkpt>
      <trkpt lat="43.51727" lon="6.35735">
        <ele>325</ele>
        <time>2021-11-24T14:29:27.000Z</time>
      </trkpt>
      <trkpt lat="43.51727" lon="6.35733">
        <ele>325</ele>
        <time>2021-11-24T14:29:28.000Z</time>
      </trkpt>
      <trkpt lat="43.51728" lon="6.35732">
        <ele>325</ele>
        <time>2021-11-24T14:29:29.000Z</time>
      </trkpt>
      <trkpt lat="43.51728" lon="6.35731">
        <ele>325</ele>
        <time>2021-11-24T14:29:30.000Z</time>
      </trkpt>
      <trkpt lat="43.51729" lon="6.3573">
        <ele>325</ele>
        <time>2021-11-24T14:29:31.000Z</time>
      </trkpt>
      <trkpt lat="43.5173" lon="6.35729">
        <ele>325</ele>
        <time>2021-11-24T14:29:32.000Z</time>
      </trkpt>
      <trkpt lat="43.5173" lon="6.35728">
        <ele>325</ele>
        <time>2021-11-24T14:29:33.000Z</time>
      </trkpt>
      <trkpt lat="43.51731" lon="6.35727">
        <ele>325</ele>
        <time>2021-11-24T14:29:34.000Z</time>
      </trkpt>
      <trkpt lat="43.51732" lon="6.35726">
        <ele>325</ele>
        <time>2021-11-24T14:29:35.000Z</time>
      </trkpt>
      <trkpt lat="43.51732" lon="6.35725">
        <ele>325</ele>
        <time>2021-11-24T14:29:36.000Z</time>
      </trkpt>
      <trkpt lat="43.51732" lon="6.35724">
        <ele>325</ele>
        <time>2021-11-24T14:29:37.000Z</time>
      </trkpt>
      <trkpt lat="43.51733" lon="6.35723">
        <ele>325</ele>
        <time>2021-11-24T14:29:38.000Z</time>
      </trkpt>
      <trkpt lat="43.51733" lon="6.35721">
        <ele>325</ele>
        <time>2021-11-24T14:29:39.000Z</time>
      </trkpt>
      <trkpt lat="43.51733" lon="6.3572">
        <ele>325</ele>
        <time>2021-11-24T14:29:40.000Z</time>
      </trkpt>
      <trkpt lat="43.51733" lon="6.3572">
        <ele>325</ele>
        <time>2021-11-24T14:29:41.000Z</time>
      </trkpt>
      <trkpt lat="43.51732" lon="6.35719">
        <ele>325</ele>
        <time>2021-11-24T14:29:42.000Z</time>
      </trkpt>
      <trkpt lat="43.51732" lon="6.35719">
        <ele>325</ele>
        <time>2021-11-24T14:29:43.000Z</time>
      </trkpt>
      <trkpt lat="43.51732" lon="6.35718">
        <ele>325</ele>
        <time>2021-11-24T14:29:44.000Z</time>
      </trkpt>
      <trkpt lat="43.51732" lon="6.35718">
        <ele>325</ele>
        <time>2021-11-24T14:29:45.000Z</time>
      </trkpt>
      <trkpt lat="43.51732" lon="6.35717">
        <ele>325</ele>
        <time>2021-11-24T14:29:46.000Z</time>
      </trkpt>
      <trkpt lat="43.51732" lon="6.35717">
        <ele>325</ele>
        <time>2021-11-24T14:29:47.000Z</time>
      </trkpt>
      <trkpt lat="43.51732" lon="6.35717">
        <ele>325</ele>
        <time>2021-11-24T14:29:48.000Z</time>
      </trkpt>
      <trkpt lat="43.51732" lon="6.35716">
        <ele>325</ele>
        <time>2021-11-24T14:29:49.000Z</time>
      </trkpt>
      <trkpt lat="43.51732" lon="6.35716">
        <ele>325</ele>
        <time>2021-11-24T14:29:50.000Z</time>
      </trkpt>
      <trkpt lat="43.51732" lon="6.35716">
        <ele>325</ele>
        <time>2021-11-24T14:29:51.000Z</time>
      </trkpt>
      <trkpt lat="43.51732" lon="6.35716">
        <ele>325</ele>
        <time>2021-11-24T14:29:52.000Z</time>
      </trkpt>
      <trkpt lat="43.51732" lon="6.35716">
        <ele>325</ele>
        <time>2021-11-24T14:29:53.000Z</time>
      </trkpt>
      <trkpt lat="43.51732" lon="6.35716">
        <ele>325</ele>
        <time>2021-11-24T14:29:54.000Z</time>
      </trkpt>
      <trkpt lat="43.51732" lon="6.35716">
        <ele>325</ele>
        <time>2021-11-24T14:29:55.000Z</time>
      </trkpt>
      <trkpt lat="43.51732" lon="6.35716">
        <ele>325</ele>
        <time>2021-11-24T14:29:56.000Z</time>
      </trkpt>
      <trkpt lat="43.51732" lon="6.35716">
        <ele>325</ele>
        <time>2021-11-24T14:29:57.000Z</time>
      </trkpt>
      <trkpt lat="43.51732" lon="6.35716">
        <ele>325</ele>
        <time>2021-11-24T14:29:58.000Z</time>
      </trkpt>
      <trkpt lat="43.51732" lon="6.35716">
        <ele>325</ele>
        <time>2021-11-24T14:29:59.000Z</time>
      </trkpt>
      <trkpt lat="43.51732" lon="6.35716">
        <ele>325</ele>
        <time>2021-11-24T14:30:00.000Z</time>
      </trkpt>
      <trkpt lat="43.51732" lon="6.35716">
        <ele>325</ele>
        <time>2021-11-24T14:30:01.000Z</time>
      </trkpt>
      <trkpt lat="43.51732" lon="6.35716">
        <ele>325</ele>
        <time>2021-11-24T14:30:02.000Z</time>
      </trkpt>
      <trkpt lat="43.51732" lon="6.35716">
        <ele>325</ele>
        <time>2021-11-24T14:30:03.000Z</time>
      </trkpt>
      <trkpt lat="43.51732" lon="6.35716">
        <ele>325</ele>
        <time>2021-11-24T14:30:04.000Z</time>
      </trkpt>
      <trkpt lat="43.51732" lon="6.35716">
        <ele>325</ele>
        <time>2021-11-24T14:30:05.000Z</time>
      </trkpt>
      <trkpt lat="43.51732" lon="6.35716">
        <ele>325</ele>
        <time>2021-11-24T14:30:06.000Z</time>
      </trkpt>
      <trkpt lat="43.51732" lon="6.35716">
        <ele>325</ele>
        <time>2021-11-24T14:30:07.000Z</time>
      </trkpt>
      <trkpt lat="43.51732" lon="6.35716">
        <ele>325</ele>
        <time>2021-11-24T14:30:08.000Z</time>
      </trkpt>
      <trkpt lat="43.51732" lon="6.35716">
        <ele>325</ele>
        <time>2021-11-24T14:30:09.000Z</time>
      </trkpt>
      <trkpt lat="43.51732" lon="6.35716">
        <ele>325</ele>
        <time>2021-11-24T14:30:10.000Z</time>
      </trkpt>
      <trkpt lat="43.51732" lon="6.35716">
        <ele>325</ele>
        <time>2021-11-24T14:30:11.000Z</time>
      </trkpt>
      <trkpt lat="43.51732" lon="6.35716">
        <ele>325</ele>
        <time>2021-11-24T14:30:12.000Z</time>
      </trkpt>
      <trkpt lat="43.51732" lon="6.35716">
        <ele>325</ele>
        <time>2021-11-24T14:30:13.000Z</time>
      </trkpt>
      <trkpt lat="43.51732" lon="6.35716">
        <ele>325</ele>
        <time>2021-11-24T14:30:14.000Z</time>
      </trkpt>
      <trkpt lat="43.51732" lon="6.35716">
        <ele>325</ele>
        <time>2021-11-24T14:30:15.000Z</time>
      </trkpt>
      <trkpt lat="43.51732" lon="6.35716">
        <ele>325</ele>
        <time>2021-11-24T14:30:16.000Z</time>
      </trkpt>
      <trkpt lat="43.51732" lon="6.35714">
        <ele>325</ele>
        <time>2021-11-24T14:30:17.000Z</time>
      </trkpt>
      <trkpt lat="43.51732" lon="6.35714">
        <ele>325</ele>
        <time>2021-11-24T14:30:18.000Z</time>
      </trkpt>
      <trkpt lat="43.51733" lon="6.35715">
        <ele>325</ele>
        <time>2021-11-24T14:30:19.000Z</time>
      </trkpt>
      <trkpt lat="43.51733" lon="6.35715">
        <ele>325</ele>
        <time>2021-11-24T14:30:20.000Z</time>
      </trkpt>
      <trkpt lat="43.51734" lon="6.35716">
        <ele>325</ele>
        <time>2021-11-24T14:30:21.000Z</time>
      </trkpt>
      <trkpt lat="43.51735" lon="6.35716">
        <ele>325</ele>
        <time>2021-11-24T14:30:22.000Z</time>
      </trkpt>
      <trkpt lat="43.51736" lon="6.35716">
        <ele>325</ele>
        <time>2021-11-24T14:30:23.000Z</time>
      </trkpt>
      <trkpt lat="43.51737" lon="6.35717">
        <ele>325</ele>
        <time>2021-11-24T14:30:24.000Z</time>
      </trkpt>
      <trkpt lat="43.51737" lon="6.35717">
        <ele>325</ele>
        <time>2021-11-24T14:30:25.000Z</time>
      </trkpt>
      <trkpt lat="43.51738" lon="6.35717">
        <ele>325</ele>
        <time>2021-11-24T14:30:26.000Z</time>
      </trkpt>
      <trkpt lat="43.51738" lon="6.35718">
        <ele>325</ele>
        <time>2021-11-24T14:30:27.000Z</time>
      </trkpt>
      <trkpt lat="43.51739" lon="6.35719">
        <ele>325</ele>
        <time>2021-11-24T14:30:28.000Z</time>
      </trkpt>
      <trkpt lat="43.5174" lon="6.3572">
        <ele>325</ele>
        <time>2021-11-24T14:30:29.000Z</time>
      </trkpt>
      <trkpt lat="43.51741" lon="6.35721">
        <ele>325</ele>
        <time>2021-11-24T14:30:30.000Z</time>
      </trkpt>
      <trkpt lat="43.51741" lon="6.35722">
        <ele>325</ele>
        <time>2021-11-24T14:30:31.000Z</time>
      </trkpt>
      <trkpt lat="43.51742" lon="6.35722">
        <ele>325</ele>
        <time>2021-11-24T14:30:32.000Z</time>
      </trkpt>
      <trkpt lat="43.51742" lon="6.35723">
        <ele>326</ele>
        <time>2021-11-24T14:30:33.000Z</time>
      </trkpt>
      <trkpt lat="43.51742" lon="6.35723">
        <ele>326</ele>
        <time>2021-11-24T14:30:34.000Z</time>
      </trkpt>
      <trkpt lat="43.51742" lon="6.35723">
        <ele>326</ele>
        <time>2021-11-24T14:30:35.000Z</time>
      </trkpt>
      <trkpt lat="43.51742" lon="6.35723">
        <ele>326</ele>
        <time>2021-11-24T14:30:36.000Z</time>
      </trkpt>
      <trkpt lat="43.51743" lon="6.35724">
        <ele>326</ele>
        <time>2021-11-24T14:30:37.000Z</time>
      </trkpt>
      <trkpt lat="43.51743" lon="6.35724">
        <ele>326</ele>
        <time>2021-11-24T14:30:38.000Z</time>
      </trkpt>
      <trkpt lat="43.51743" lon="6.35725">
        <ele>326</ele>
        <time>2021-11-24T14:30:39.000Z</time>
      </trkpt>
      <trkpt lat="43.51744" lon="6.35727">
        <ele>326</ele>
        <time>2021-11-24T14:30:40.000Z</time>
      </trkpt>
      <trkpt lat="43.51744" lon="6.35729">
        <ele>326</ele>
        <time>2021-11-24T14:30:41.000Z</time>
      </trkpt>
      <trkpt lat="43.51745" lon="6.3573">
        <ele>326</ele>
        <time>2021-11-24T14:30:42.000Z</time>
      </trkpt>
      <trkpt lat="43.51745" lon="6.35731">
        <ele>326</ele>
        <time>2021-11-24T14:30:43.000Z</time>
      </trkpt>
      <trkpt lat="43.51745" lon="6.35733">
        <ele>327</ele>
        <time>2021-11-24T14:30:44.000Z</time>
      </trkpt>
      <trkpt lat="43.51746" lon="6.35734">
        <ele>327</ele>
        <time>2021-11-24T14:30:45.000Z</time>
      </trkpt>
      <trkpt lat="43.51746" lon="6.35735">
        <ele>327</ele>
        <time>2021-11-24T14:30:46.000Z</time>
      </trkpt>
      <trkpt lat="43.51746" lon="6.35736">
        <ele>327</ele>
        <time>2021-11-24T14:30:47.000Z</time>
      </trkpt>
      <trkpt lat="43.51746" lon="6.35737">
        <ele>327</ele>
        <time>2021-11-24T14:30:48.000Z</time>
      </trkpt>
      <trkpt lat="43.51747" lon="6.35738">
        <ele>327</ele>
        <time>2021-11-24T14:30:49.000Z</time>
      </trkpt>
      <trkpt lat="43.51747" lon="6.35739">
        <ele>327</ele>
        <time>2021-11-24T14:30:50.000Z</time>
      </trkpt>
      <trkpt lat="43.51747" lon="6.35742">
        <ele>327</ele>
        <time>2021-11-24T14:30:51.000Z</time>
      </trkpt>
      <trkpt lat="43.51747" lon="6.35744">
        <ele>328</ele>
        <time>2021-11-24T14:30:52.000Z</time>
      </trkpt>
      <trkpt lat="43.51748" lon="6.35746">
        <ele>328</ele>
        <time>2021-11-24T14:30:53.000Z</time>
      </trkpt>
      <trkpt lat="43.51749" lon="6.35748">
        <ele>328</ele>
        <time>2021-11-24T14:30:54.000Z</time>
      </trkpt>
      <trkpt lat="43.5175" lon="6.3575">
        <ele>328</ele>
        <time>2021-11-24T14:30:55.000Z</time>
      </trkpt>
      <trkpt lat="43.5175" lon="6.35752">
        <ele>328</ele>
        <time>2021-11-24T14:30:56.000Z</time>
      </trkpt>
      <trkpt lat="43.51751" lon="6.35754">
        <ele>328</ele>
        <time>2021-11-24T14:30:57.000Z</time>
      </trkpt>
      <trkpt lat="43.51752" lon="6.35755">
        <ele>328</ele>
        <time>2021-11-24T14:30:58.000Z</time>
      </trkpt>
      <trkpt lat="43.51753" lon="6.35757">
        <ele>329</ele>
        <time>2021-11-24T14:30:59.000Z</time>
      </trkpt>
      <trkpt lat="43.51753" lon="6.35758">
        <ele>329</ele>
        <time>2021-11-24T14:31:00.000Z</time>
      </trkpt>
      <trkpt lat="43.51754" lon="6.3576">
        <ele>330</ele>
        <time>2021-11-24T14:31:01.000Z</time>
      </trkpt>
      <trkpt lat="43.51755" lon="6.35762">
        <ele>330</ele>
        <time>2021-11-24T14:31:02.000Z</time>
      </trkpt>
      <trkpt lat="43.51756" lon="6.35764">
        <ele>330</ele>
        <time>2021-11-24T14:31:03.000Z</time>
      </trkpt>
      <trkpt lat="43.51756" lon="6.35765">
        <ele>330</ele>
        <time>2021-11-24T14:31:04.000Z</time>
      </trkpt>
      <trkpt lat="43.51757" lon="6.35766">
        <ele>330</ele>
        <time>2021-11-24T14:31:05.000Z</time>
      </trkpt>
      <trkpt lat="43.51758" lon="6.35767">
        <ele>330</ele>
        <time>2021-11-24T14:31:06.000Z</time>
      </trkpt>
      <trkpt lat="43.51758" lon="6.35769">
        <ele>330</ele>
        <time>2021-11-24T14:31:07.000Z</time>
      </trkpt>
      <trkpt lat="43.51759" lon="6.3577">
        <ele>330</ele>
        <time>2021-11-24T14:31:08.000Z</time>
      </trkpt>
      <trkpt lat="43.5176" lon="6.35771">
        <ele>330</ele>
        <time>2021-11-24T14:31:09.000Z</time>
      </trkpt>
      <trkpt lat="43.5176" lon="6.35773">
        <ele>330</ele>
        <time>2021-11-24T14:31:10.000Z</time>
      </trkpt>
      <trkpt lat="43.51761" lon="6.35774">
        <ele>330</ele>
        <time>2021-11-24T14:31:11.000Z</time>
      </trkpt>
      <trkpt lat="43.51761" lon="6.35776">
        <ele>330</ele>
        <time>2021-11-24T14:31:12.000Z</time>
      </trkpt>
      <trkpt lat="43.51762" lon="6.35777">
        <ele>330</ele>
        <time>2021-11-24T14:31:13.000Z</time>
      </trkpt>
      <trkpt lat="43.51762" lon="6.35779">
        <ele>329</ele>
        <time>2021-11-24T14:31:14.000Z</time>
      </trkpt>
      <trkpt lat="43.51763" lon="6.35781">
        <ele>329</ele>
        <time>2021-11-24T14:31:15.000Z</time>
      </trkpt>
      <trkpt lat="43.51764" lon="6.35782">
        <ele>329</ele>
        <time>2021-11-24T14:31:16.000Z</time>
      </trkpt>
      <trkpt lat="43.51764" lon="6.35783">
        <ele>329</ele>
        <time>2021-11-24T14:31:17.000Z</time>
      </trkpt>
      <trkpt lat="43.51765" lon="6.35785">
        <ele>329</ele>
        <time>2021-11-24T14:31:18.000Z</time>
      </trkpt>
      <trkpt lat="43.51766" lon="6.35786">
        <ele>329</ele>
        <time>2021-11-24T14:31:19.000Z</time>
      </trkpt>
      <trkpt lat="43.51767" lon="6.35787">
        <ele>330</ele>
        <time>2021-11-24T14:31:20.000Z</time>
      </trkpt>
      <trkpt lat="43.51767" lon="6.35788">
        <ele>330</ele>
        <time>2021-11-24T14:31:21.000Z</time>
      </trkpt>
      <trkpt lat="43.51768" lon="6.35789">
        <ele>330</ele>
        <time>2021-11-24T14:31:22.000Z</time>
      </trkpt>
      <trkpt lat="43.51769" lon="6.3579">
        <ele>330</ele>
        <time>2021-11-24T14:31:23.000Z</time>
      </trkpt>
      <trkpt lat="43.5177" lon="6.35791">
        <ele>330</ele>
        <time>2021-11-24T14:31:24.000Z</time>
      </trkpt>
      <trkpt lat="43.5177" lon="6.35792">
        <ele>330</ele>
        <time>2021-11-24T14:31:25.000Z</time>
      </trkpt>
      <trkpt lat="43.51771" lon="6.35793">
        <ele>330</ele>
        <time>2021-11-24T14:31:26.000Z</time>
      </trkpt>
      <trkpt lat="43.51772" lon="6.35794">
        <ele>330</ele>
        <time>2021-11-24T14:31:27.000Z</time>
      </trkpt>
      <trkpt lat="43.51772" lon="6.35795">
        <ele>330</ele>
        <time>2021-11-24T14:31:28.000Z</time>
      </trkpt>
      <trkpt lat="43.51773" lon="6.35796">
        <ele>330</ele>
        <time>2021-11-24T14:31:29.000Z</time>
      </trkpt>
      <trkpt lat="43.51774" lon="6.35797">
        <ele>330</ele>
        <time>2021-11-24T14:31:30.000Z</time>
      </trkpt>
      <trkpt lat="43.51775" lon="6.35798">
        <ele>330</ele>
        <time>2021-11-24T14:31:31.000Z</time>
      </trkpt>
      <trkpt lat="43.51775" lon="6.358">
        <ele>330</ele>
        <time>2021-11-24T14:31:32.000Z</time>
      </trkpt>
      <trkpt lat="43.51776" lon="6.35801">
        <ele>330</ele>
        <time>2021-11-24T14:31:33.000Z</time>
      </trkpt>
      <trkpt lat="43.51776" lon="6.35802">
        <ele>330</ele>
        <time>2021-11-24T14:31:34.000Z</time>
      </trkpt>
      <trkpt lat="43.51777" lon="6.35804">
        <ele>330</ele>
        <time>2021-11-24T14:31:35.000Z</time>
      </trkpt>
      <trkpt lat="43.51778" lon="6.35805">
        <ele>331</ele>
        <time>2021-11-24T14:31:36.000Z</time>
      </trkpt>
      <trkpt lat="43.51778" lon="6.35806">
        <ele>331</ele>
        <time>2021-11-24T14:31:37.000Z</time>
      </trkpt>
      <trkpt lat="43.51779" lon="6.35808">
        <ele>331</ele>
        <time>2021-11-24T14:31:38.000Z</time>
      </trkpt>
      <trkpt lat="43.5178" lon="6.35809">
        <ele>331</ele>
        <time>2021-11-24T14:31:39.000Z</time>
      </trkpt>
      <trkpt lat="43.5178" lon="6.3581">
        <ele>331</ele>
        <time>2021-11-24T14:31:40.000Z</time>
      </trkpt>
      <trkpt lat="43.51781" lon="6.35811">
        <ele>331</ele>
        <time>2021-11-24T14:31:41.000Z</time>
      </trkpt>
      <trkpt lat="43.51781" lon="6.35812">
        <ele>331</ele>
        <time>2021-11-24T14:31:42.000Z</time>
      </trkpt>
      <trkpt lat="43.51782" lon="6.35814">
        <ele>331</ele>
        <time>2021-11-24T14:31:43.000Z</time>
      </trkpt>
      <trkpt lat="43.51782" lon="6.35815">
        <ele>331</ele>
        <time>2021-11-24T14:31:44.000Z</time>
      </trkpt>
      <trkpt lat="43.51783" lon="6.35817">
        <ele>331</ele>
        <time>2021-11-24T14:31:45.000Z</time>
      </trkpt>
      <trkpt lat="43.51783" lon="6.35818">
        <ele>331</ele>
        <time>2021-11-24T14:31:46.000Z</time>
      </trkpt>
      <trkpt lat="43.51784" lon="6.3582">
        <ele>331</ele>
        <time>2021-11-24T14:31:47.000Z</time>
      </trkpt>
      <trkpt lat="43.51784" lon="6.35821">
        <ele>331</ele>
        <time>2021-11-24T14:31:48.000Z</time>
      </trkpt>
      <trkpt lat="43.51785" lon="6.35822">
        <ele>331</ele>
        <time>2021-11-24T14:31:49.000Z</time>
      </trkpt>
      <trkpt lat="43.51785" lon="6.35823">
        <ele>331</ele>
        <time>2021-11-24T14:31:50.000Z</time>
      </trkpt>
      <trkpt lat="43.51785" lon="6.35825">
        <ele>331</ele>
        <time>2021-11-24T14:31:51.000Z</time>
      </trkpt>
      <trkpt lat="43.51786" lon="6.35826">
        <ele>331</ele>
        <time>2021-11-24T14:31:52.000Z</time>
      </trkpt>
      <trkpt lat="43.51787" lon="6.35827">
        <ele>330</ele>
        <time>2021-11-24T14:31:53.000Z</time>
      </trkpt>
      <trkpt lat="43.51787" lon="6.35829">
        <ele>330</ele>
        <time>2021-11-24T14:31:54.000Z</time>
      </trkpt>
      <trkpt lat="43.51787" lon="6.3583">
        <ele>331</ele>
        <time>2021-11-24T14:31:55.000Z</time>
      </trkpt>
      <trkpt lat="43.51787" lon="6.35832">
        <ele>330</ele>
        <time>2021-11-24T14:31:56.000Z</time>
      </trkpt>
      <trkpt lat="43.51788" lon="6.35833">
        <ele>330</ele>
        <time>2021-11-24T14:31:57.000Z</time>
      </trkpt>
      <trkpt lat="43.51789" lon="6.35834">
        <ele>330</ele>
        <time>2021-11-24T14:31:58.000Z</time>
      </trkpt>
      <trkpt lat="43.51789" lon="6.35836">
        <ele>330</ele>
        <time>2021-11-24T14:31:59.000Z</time>
      </trkpt>
      <trkpt lat="43.5179" lon="6.35837">
        <ele>330</ele>
        <time>2021-11-24T14:32:00.000Z</time>
      </trkpt>
      <trkpt lat="43.51791" lon="6.35838">
        <ele>330</ele>
        <time>2021-11-24T14:32:01.000Z</time>
      </trkpt>
      <trkpt lat="43.51792" lon="6.35839">
        <ele>330</ele>
        <time>2021-11-24T14:32:02.000Z</time>
      </trkpt>
      <trkpt lat="43.51792" lon="6.3584">
        <ele>330</ele>
        <time>2021-11-24T14:32:03.000Z</time>
      </trkpt>
      <trkpt lat="43.51793" lon="6.35842">
        <ele>330</ele>
        <time>2021-11-24T14:32:04.000Z</time>
      </trkpt>
      <trkpt lat="43.51794" lon="6.35843">
        <ele>329</ele>
        <time>2021-11-24T14:32:05.000Z</time>
      </trkpt>
      <trkpt lat="43.51794" lon="6.35844">
        <ele>329</ele>
        <time>2021-11-24T14:32:06.000Z</time>
      </trkpt>
      <trkpt lat="43.51795" lon="6.35845">
        <ele>329</ele>
        <time>2021-11-24T14:32:07.000Z</time>
      </trkpt>
      <trkpt lat="43.51795" lon="6.35846">
        <ele>329</ele>
        <time>2021-11-24T14:32:08.000Z</time>
      </trkpt>
      <trkpt lat="43.51796" lon="6.35847">
        <ele>329</ele>
        <time>2021-11-24T14:32:09.000Z</time>
      </trkpt>
      <trkpt lat="43.51796" lon="6.35849">
        <ele>329</ele>
        <time>2021-11-24T14:32:10.000Z</time>
      </trkpt>
      <trkpt lat="43.51797" lon="6.3585">
        <ele>329</ele>
        <time>2021-11-24T14:32:11.000Z</time>
      </trkpt>
      <trkpt lat="43.51798" lon="6.35851">
        <ele>329</ele>
        <time>2021-11-24T14:32:12.000Z</time>
      </trkpt>
      <trkpt lat="43.51799" lon="6.35852">
        <ele>329</ele>
        <time>2021-11-24T14:32:13.000Z</time>
      </trkpt>
      <trkpt lat="43.51799" lon="6.35854">
        <ele>329</ele>
        <time>2021-11-24T14:32:14.000Z</time>
      </trkpt>
      <trkpt lat="43.518" lon="6.35855">
        <ele>329</ele>
        <time>2021-11-24T14:32:15.000Z</time>
      </trkpt>
      <trkpt lat="43.51801" lon="6.35856">
        <ele>329</ele>
        <time>2021-11-24T14:32:16.000Z</time>
      </trkpt>
      <trkpt lat="43.51802" lon="6.35857">
        <ele>329</ele>
        <time>2021-11-24T14:32:17.000Z</time>
      </trkpt>
      <trkpt lat="43.51803" lon="6.35857">
        <ele>329</ele>
        <time>2021-11-24T14:32:18.000Z</time>
      </trkpt>
      <trkpt lat="43.51804" lon="6.35858">
        <ele>329</ele>
        <time>2021-11-24T14:32:19.000Z</time>
      </trkpt>
      <trkpt lat="43.51804" lon="6.35859">
        <ele>328</ele>
        <time>2021-11-24T14:32:20.000Z</time>
      </trkpt>
      <trkpt lat="43.51805" lon="6.35859">
        <ele>328</ele>
        <time>2021-11-24T14:32:21.000Z</time>
      </trkpt>
      <trkpt lat="43.51806" lon="6.3586">
        <ele>328</ele>
        <time>2021-11-24T14:32:22.000Z</time>
      </trkpt>
      <trkpt lat="43.51808" lon="6.35861">
        <ele>328</ele>
        <time>2021-11-24T14:32:23.000Z</time>
      </trkpt>
      <trkpt lat="43.51809" lon="6.35862">
        <ele>328</ele>
        <time>2021-11-24T14:32:24.000Z</time>
      </trkpt>
      <trkpt lat="43.5181" lon="6.35862">
        <ele>328</ele>
        <time>2021-11-24T14:32:25.000Z</time>
      </trkpt>
      <trkpt lat="43.51811" lon="6.35862">
        <ele>328</ele>
        <time>2021-11-24T14:32:26.000Z</time>
      </trkpt>
      <trkpt lat="43.51812" lon="6.35862">
        <ele>328</ele>
        <time>2021-11-24T14:32:27.000Z</time>
      </trkpt>
      <trkpt lat="43.51813" lon="6.35862">
        <ele>327</ele>
        <time>2021-11-24T14:32:28.000Z</time>
      </trkpt>
      <trkpt lat="43.51814" lon="6.35862">
        <ele>327</ele>
        <time>2021-11-24T14:32:29.000Z</time>
      </trkpt>
      <trkpt lat="43.51815" lon="6.35863">
        <ele>327</ele>
        <time>2021-11-24T14:32:30.000Z</time>
      </trkpt>
      <trkpt lat="43.51816" lon="6.35863">
        <ele>327</ele>
        <time>2021-11-24T14:32:31.000Z</time>
      </trkpt>
      <trkpt lat="43.51817" lon="6.35863">
        <ele>327</ele>
        <time>2021-11-24T14:32:32.000Z</time>
      </trkpt>
      <trkpt lat="43.51818" lon="6.35863">
        <ele>327</ele>
        <time>2021-11-24T14:32:33.000Z</time>
      </trkpt>
      <trkpt lat="43.51819" lon="6.35864">
        <ele>327</ele>
        <time>2021-11-24T14:32:34.000Z</time>
      </trkpt>
      <trkpt lat="43.5182" lon="6.35864">
        <ele>326</ele>
        <time>2021-11-24T14:32:35.000Z</time>
      </trkpt>
      <trkpt lat="43.51821" lon="6.35864">
        <ele>326</ele>
        <time>2021-11-24T14:32:36.000Z</time>
      </trkpt>
      <trkpt lat="43.51822" lon="6.35864">
        <ele>326</ele>
        <time>2021-11-24T14:32:37.000Z</time>
      </trkpt>
      <trkpt lat="43.51823" lon="6.35865">
        <ele>325</ele>
        <time>2021-11-24T14:32:38.000Z</time>
      </trkpt>
      <trkpt lat="43.51824" lon="6.35865">
        <ele>325</ele>
        <time>2021-11-24T14:32:39.000Z</time>
      </trkpt>
      <trkpt lat="43.51825" lon="6.35865">
        <ele>325</ele>
        <time>2021-11-24T14:32:40.000Z</time>
      </trkpt>
      <trkpt lat="43.51826" lon="6.35866">
        <ele>325</ele>
        <time>2021-11-24T14:32:41.000Z</time>
      </trkpt>
      <trkpt lat="43.51827" lon="6.35867">
        <ele>325</ele>
        <time>2021-11-24T14:32:42.000Z</time>
      </trkpt>
      <trkpt lat="43.51828" lon="6.35868">
        <ele>325</ele>
        <time>2021-11-24T14:32:43.000Z</time>
      </trkpt>
      <trkpt lat="43.51829" lon="6.35869">
        <ele>324</ele>
        <time>2021-11-24T14:32:44.000Z</time>
      </trkpt>
      <trkpt lat="43.5183" lon="6.3587">
        <ele>324</ele>
        <time>2021-11-24T14:32:45.000Z</time>
      </trkpt>
      <trkpt lat="43.51831" lon="6.35872">
        <ele>323</ele>
        <time>2021-11-24T14:32:46.000Z</time>
      </trkpt>
      <trkpt lat="43.51831" lon="6.35873">
        <ele>323</ele>
        <time>2021-11-24T14:32:47.000Z</time>
      </trkpt>
      <trkpt lat="43.51832" lon="6.35875">
        <ele>323</ele>
        <time>2021-11-24T14:32:48.000Z</time>
      </trkpt>
      <trkpt lat="43.51832" lon="6.35876">
        <ele>323</ele>
        <time>2021-11-24T14:32:49.000Z</time>
      </trkpt>
      <trkpt lat="43.51833" lon="6.35877">
        <ele>323</ele>
        <time>2021-11-24T14:32:50.000Z</time>
      </trkpt>
      <trkpt lat="43.51833" lon="6.35878">
        <ele>323</ele>
        <time>2021-11-24T14:32:51.000Z</time>
      </trkpt>
      <trkpt lat="43.51833" lon="6.35879">
        <ele>323</ele>
        <time>2021-11-24T14:32:52.000Z</time>
      </trkpt>
      <trkpt lat="43.51834" lon="6.35879">
        <ele>323</ele>
        <time>2021-11-24T14:32:53.000Z</time>
      </trkpt>
      <trkpt lat="43.51834" lon="6.3588">
        <ele>323</ele>
        <time>2021-11-24T14:32:54.000Z</time>
      </trkpt>
      <trkpt lat="43.51835" lon="6.35881">
        <ele>323</ele>
        <time>2021-11-24T14:32:55.000Z</time>
      </trkpt>
      <trkpt lat="43.51835" lon="6.35882">
        <ele>323</ele>
        <time>2021-11-24T14:32:56.000Z</time>
      </trkpt>
      <trkpt lat="43.51835" lon="6.35883">
        <ele>323</ele>
        <time>2021-11-24T14:32:57.000Z</time>
      </trkpt>
      <trkpt lat="43.51836" lon="6.35884">
        <ele>322</ele>
        <time>2021-11-24T14:32:58.000Z</time>
      </trkpt>
      <trkpt lat="43.51836" lon="6.35885">
        <ele>322</ele>
        <time>2021-11-24T14:32:59.000Z</time>
      </trkpt>
      <trkpt lat="43.51836" lon="6.35887">
        <ele>322</ele>
        <time>2021-11-24T14:33:00.000Z</time>
      </trkpt>
      <trkpt lat="43.51836" lon="6.35888">
        <ele>322</ele>
        <time>2021-11-24T14:33:01.000Z</time>
      </trkpt>
      <trkpt lat="43.51837" lon="6.35889">
        <ele>322</ele>
        <time>2021-11-24T14:33:02.000Z</time>
      </trkpt>
      <trkpt lat="43.51837" lon="6.3589">
        <ele>322</ele>
        <time>2021-11-24T14:33:03.000Z</time>
      </trkpt>
      <trkpt lat="43.51837" lon="6.35891">
        <ele>322</ele>
        <time>2021-11-24T14:33:04.000Z</time>
      </trkpt>
      <trkpt lat="43.51837" lon="6.35892">
        <ele>322</ele>
        <time>2021-11-24T14:33:05.000Z</time>
      </trkpt>
      <trkpt lat="43.51837" lon="6.35893">
        <ele>322</ele>
        <time>2021-11-24T14:33:06.000Z</time>
      </trkpt>
      <trkpt lat="43.51838" lon="6.35894">
        <ele>322</ele>
        <time>2021-11-24T14:33:07.000Z</time>
      </trkpt>
      <trkpt lat="43.51838" lon="6.35895">
        <ele>322</ele>
        <time>2021-11-24T14:33:08.000Z</time>
      </trkpt>
      <trkpt lat="43.51838" lon="6.35896">
        <ele>322</ele>
        <time>2021-11-24T14:33:09.000Z</time>
      </trkpt>
      <trkpt lat="43.51838" lon="6.35897">
        <ele>322</ele>
        <time>2021-11-24T14:33:10.000Z</time>
      </trkpt>
      <trkpt lat="43.51838" lon="6.35898">
        <ele>322</ele>
        <time>2021-11-24T14:33:11.000Z</time>
      </trkpt>
      <trkpt lat="43.51838" lon="6.359">
        <ele>322</ele>
        <time>2021-11-24T14:33:12.000Z</time>
      </trkpt>
      <trkpt lat="43.51838" lon="6.35901">
        <ele>322</ele>
        <time>2021-11-24T14:33:13.000Z</time>
      </trkpt>
      <trkpt lat="43.51838" lon="6.35903">
        <ele>322</ele>
        <time>2021-11-24T14:33:14.000Z</time>
      </trkpt>
      <trkpt lat="43.51837" lon="6.35904">
        <ele>322</ele>
        <time>2021-11-24T14:33:15.000Z</time>
      </trkpt>
      <trkpt lat="43.51837" lon="6.35906">
        <ele>321</ele>
        <time>2021-11-24T14:33:16.000Z</time>
      </trkpt>
      <trkpt lat="43.51836" lon="6.35907">
        <ele>321</ele>
        <time>2021-11-24T14:33:17.000Z</time>
      </trkpt>
      <trkpt lat="43.51836" lon="6.35909">
        <ele>320</ele>
        <time>2021-11-24T14:33:18.000Z</time>
      </trkpt>
      <trkpt lat="43.51835" lon="6.3591">
        <ele>320</ele>
        <time>2021-11-24T14:33:19.000Z</time>
      </trkpt>
      <trkpt lat="43.51835" lon="6.35912">
        <ele>320</ele>
        <time>2021-11-24T14:33:20.000Z</time>
      </trkpt>
      <trkpt lat="43.51834" lon="6.35913">
        <ele>320</ele>
        <time>2021-11-24T14:33:21.000Z</time>
      </trkpt>
      <trkpt lat="43.51834" lon="6.35915">
        <ele>320</ele>
        <time>2021-11-24T14:33:22.000Z</time>
      </trkpt>
      <trkpt lat="43.51833" lon="6.35916">
        <ele>320</ele>
        <time>2021-11-24T14:33:23.000Z</time>
      </trkpt>
      <trkpt lat="43.51833" lon="6.35918">
        <ele>320</ele>
        <time>2021-11-24T14:33:24.000Z</time>
      </trkpt>
      <trkpt lat="43.51832" lon="6.35919">
        <ele>320</ele>
        <time>2021-11-24T14:33:25.000Z</time>
      </trkpt>
      <trkpt lat="43.51831" lon="6.3592">
        <ele>320</ele>
        <time>2021-11-24T14:33:26.000Z</time>
      </trkpt>
      <trkpt lat="43.5183" lon="6.35922">
        <ele>320</ele>
        <time>2021-11-24T14:33:27.000Z</time>
      </trkpt>
      <trkpt lat="43.51829" lon="6.35923">
        <ele>320</ele>
        <time>2021-11-24T14:33:28.000Z</time>
      </trkpt>
      <trkpt lat="43.51829" lon="6.35924">
        <ele>320</ele>
        <time>2021-11-24T14:33:29.000Z</time>
      </trkpt>
      <trkpt lat="43.51828" lon="6.35925">
        <ele>320</ele>
        <time>2021-11-24T14:33:30.000Z</time>
      </trkpt>
      <trkpt lat="43.51827" lon="6.35927">
        <ele>320</ele>
        <time>2021-11-24T14:33:31.000Z</time>
      </trkpt>
      <trkpt lat="43.51827" lon="6.35928">
        <ele>321</ele>
        <time>2021-11-24T14:33:32.000Z</time>
      </trkpt>
      <trkpt lat="43.51826" lon="6.35929">
        <ele>321</ele>
        <time>2021-11-24T14:33:33.000Z</time>
      </trkpt>
      <trkpt lat="43.51826" lon="6.35931">
        <ele>321</ele>
        <time>2021-11-24T14:33:34.000Z</time>
      </trkpt>
      <trkpt lat="43.51825" lon="6.35932">
        <ele>321</ele>
        <time>2021-11-24T14:33:35.000Z</time>
      </trkpt>
      <trkpt lat="43.51825" lon="6.35934">
        <ele>321</ele>
        <time>2021-11-24T14:33:36.000Z</time>
      </trkpt>
      <trkpt lat="43.51824" lon="6.35935">
        <ele>321</ele>
        <time>2021-11-24T14:33:37.000Z</time>
      </trkpt>
      <trkpt lat="43.51824" lon="6.35937">
        <ele>322</ele>
        <time>2021-11-24T14:33:38.000Z</time>
      </trkpt>
      <trkpt lat="43.51823" lon="6.35939">
        <ele>322</ele>
        <time>2021-11-24T14:33:39.000Z</time>
      </trkpt>
      <trkpt lat="43.51823" lon="6.3594">
        <ele>322</ele>
        <time>2021-11-24T14:33:40.000Z</time>
      </trkpt>
      <trkpt lat="43.51822" lon="6.35942">
        <ele>322</ele>
        <time>2021-11-24T14:33:41.000Z</time>
      </trkpt>
      <trkpt lat="43.51822" lon="6.35943">
        <ele>322</ele>
        <time>2021-11-24T14:33:42.000Z</time>
      </trkpt>
      <trkpt lat="43.51821" lon="6.35944">
        <ele>322</ele>
        <time>2021-11-24T14:33:43.000Z</time>
      </trkpt>
      <trkpt lat="43.51821" lon="6.35946">
        <ele>322</ele>
        <time>2021-11-24T14:33:44.000Z</time>
      </trkpt>
      <trkpt lat="43.5182" lon="6.35947">
        <ele>322</ele>
        <time>2021-11-24T14:33:45.000Z</time>
      </trkpt>
      <trkpt lat="43.51819" lon="6.35948">
        <ele>322</ele>
        <time>2021-11-24T14:33:46.000Z</time>
      </trkpt>
      <trkpt lat="43.51819" lon="6.3595">
        <ele>322</ele>
        <time>2021-11-24T14:33:47.000Z</time>
      </trkpt>
      <trkpt lat="43.51818" lon="6.35951">
        <ele>323</ele>
        <time>2021-11-24T14:33:48.000Z</time>
      </trkpt>
      <trkpt lat="43.51817" lon="6.35953">
        <ele>323</ele>
        <time>2021-11-24T14:33:49.000Z</time>
      </trkpt>
      <trkpt lat="43.51817" lon="6.35954">
        <ele>323</ele>
        <time>2021-11-24T14:33:50.000Z</time>
      </trkpt>
      <trkpt lat="43.51816" lon="6.35955">
        <ele>323</ele>
        <time>2021-11-24T14:33:51.000Z</time>
      </trkpt>
      <trkpt lat="43.51816" lon="6.35956">
        <ele>323</ele>
        <time>2021-11-24T14:33:52.000Z</time>
      </trkpt>
      <trkpt lat="43.51815" lon="6.35957">
        <ele>323</ele>
        <time>2021-11-24T14:33:53.000Z</time>
      </trkpt>
      <trkpt lat="43.51814" lon="6.35959">
        <ele>323</ele>
        <time>2021-11-24T14:33:54.000Z</time>
      </trkpt>
      <trkpt lat="43.51813" lon="6.3596">
        <ele>324</ele>
        <time>2021-11-24T14:33:55.000Z</time>
      </trkpt>
      <trkpt lat="43.51813" lon="6.35961">
        <ele>324</ele>
        <time>2021-11-24T14:33:56.000Z</time>
      </trkpt>
      <trkpt lat="43.51812" lon="6.35962">
        <ele>324</ele>
        <time>2021-11-24T14:33:57.000Z</time>
      </trkpt>
      <trkpt lat="43.51811" lon="6.35963">
        <ele>324</ele>
        <time>2021-11-24T14:33:58.000Z</time>
      </trkpt>
      <trkpt lat="43.5181" lon="6.35965">
        <ele>324</ele>
        <time>2021-11-24T14:33:59.000Z</time>
      </trkpt>
      <trkpt lat="43.51809" lon="6.35965">
        <ele>324</ele>
        <time>2021-11-24T14:34:00.000Z</time>
      </trkpt>
      <trkpt lat="43.51808" lon="6.35966">
        <ele>324</ele>
        <time>2021-11-24T14:34:01.000Z</time>
      </trkpt>
      <trkpt lat="43.51808" lon="6.35968">
        <ele>324</ele>
        <time>2021-11-24T14:34:02.000Z</time>
      </trkpt>
      <trkpt lat="43.51807" lon="6.35969">
        <ele>324</ele>
        <time>2021-11-24T14:34:03.000Z</time>
      </trkpt>
      <trkpt lat="43.51806" lon="6.3597">
        <ele>324</ele>
        <time>2021-11-24T14:34:04.000Z</time>
      </trkpt>
      <trkpt lat="43.51805" lon="6.35972">
        <ele>324</ele>
        <time>2021-11-24T14:34:05.000Z</time>
      </trkpt>
      <trkpt lat="43.51804" lon="6.35973">
        <ele>324</ele>
        <time>2021-11-24T14:34:06.000Z</time>
      </trkpt>
      <trkpt lat="43.51803" lon="6.35974">
        <ele>324</ele>
        <time>2021-11-24T14:34:07.000Z</time>
      </trkpt>
      <trkpt lat="43.51803" lon="6.35976">
        <ele>324</ele>
        <time>2021-11-24T14:34:08.000Z</time>
      </trkpt>
      <trkpt lat="43.51802" lon="6.35977">
        <ele>324</ele>
        <time>2021-11-24T14:34:09.000Z</time>
      </trkpt>
      <trkpt lat="43.51802" lon="6.35979">
        <ele>324</ele>
        <time>2021-11-24T14:34:10.000Z</time>
      </trkpt>
      <trkpt lat="43.51801" lon="6.35981">
        <ele>324</ele>
        <time>2021-11-24T14:34:11.000Z</time>
      </trkpt>
      <trkpt lat="43.51801" lon="6.35982">
        <ele>324</ele>
        <time>2021-11-24T14:34:12.000Z</time>
      </trkpt>
      <trkpt lat="43.518" lon="6.35984">
        <ele>324</ele>
        <time>2021-11-24T14:34:13.000Z</time>
      </trkpt>
      <trkpt lat="43.518" lon="6.35985">
        <ele>324</ele>
        <time>2021-11-24T14:34:14.000Z</time>
      </trkpt>
      <trkpt lat="43.518" lon="6.35987">
        <ele>324</ele>
        <time>2021-11-24T14:34:15.000Z</time>
      </trkpt>
      <trkpt lat="43.518" lon="6.35988">
        <ele>324</ele>
        <time>2021-11-24T14:34:16.000Z</time>
      </trkpt>
      <trkpt lat="43.518" lon="6.3599">
        <ele>324</ele>
        <time>2021-11-24T14:34:17.000Z</time>
      </trkpt>
      <trkpt lat="43.51799" lon="6.35992">
        <ele>325</ele>
        <time>2021-11-24T14:34:18.000Z</time>
      </trkpt>
      <trkpt lat="43.51799" lon="6.35993">
        <ele>325</ele>
        <time>2021-11-24T14:34:19.000Z</time>
      </trkpt>
      <trkpt lat="43.51799" lon="6.35995">
        <ele>325</ele>
        <time>2021-11-24T14:34:20.000Z</time>
      </trkpt>
      <trkpt lat="43.51799" lon="6.35997">
        <ele>325</ele>
        <time>2021-11-24T14:34:21.000Z</time>
      </trkpt>
      <trkpt lat="43.51799" lon="6.35999">
        <ele>325</ele>
        <time>2021-11-24T14:34:22.000Z</time>
      </trkpt>
      <trkpt lat="43.51799" lon="6.36">
        <ele>325</ele>
        <time>2021-11-24T14:34:23.000Z</time>
      </trkpt>
      <trkpt lat="43.51798" lon="6.36002">
        <ele>325</ele>
        <time>2021-11-24T14:34:24.000Z</time>
      </trkpt>
      <trkpt lat="43.51798" lon="6.36003">
        <ele>325</ele>
        <time>2021-11-24T14:34:25.000Z</time>
      </trkpt>
      <trkpt lat="43.51797" lon="6.36005">
        <ele>325</ele>
        <time>2021-11-24T14:34:26.000Z</time>
      </trkpt>
      <trkpt lat="43.51797" lon="6.36007">
        <ele>325</ele>
        <time>2021-11-24T14:34:27.000Z</time>
      </trkpt>
      <trkpt lat="43.51797" lon="6.36008">
        <ele>325</ele>
        <time>2021-11-24T14:34:28.000Z</time>
      </trkpt>
      <trkpt lat="43.51796" lon="6.3601">
        <ele>325</ele>
        <time>2021-11-24T14:34:29.000Z</time>
      </trkpt>
      <trkpt lat="43.51795" lon="6.36012">
        <ele>324</ele>
        <time>2021-11-24T14:34:30.000Z</time>
      </trkpt>
      <trkpt lat="43.51795" lon="6.36013">
        <ele>324</ele>
        <time>2021-11-24T14:34:31.000Z</time>
      </trkpt>
      <trkpt lat="43.51795" lon="6.36015">
        <ele>324</ele>
        <time>2021-11-24T14:34:32.000Z</time>
      </trkpt>
      <trkpt lat="43.51794" lon="6.36017">
        <ele>325</ele>
        <time>2021-11-24T14:34:33.000Z</time>
      </trkpt>
      <trkpt lat="43.51794" lon="6.36018">
        <ele>325</ele>
        <time>2021-11-24T14:34:34.000Z</time>
      </trkpt>
      <trkpt lat="43.51793" lon="6.3602">
        <ele>325</ele>
        <time>2021-11-24T14:34:35.000Z</time>
      </trkpt>
      <trkpt lat="43.51793" lon="6.36022">
        <ele>325</ele>
        <time>2021-11-24T14:34:36.000Z</time>
      </trkpt>
      <trkpt lat="43.51792" lon="6.36023">
        <ele>325</ele>
        <time>2021-11-24T14:34:37.000Z</time>
      </trkpt>
      <trkpt lat="43.51792" lon="6.36025">
        <ele>325</ele>
        <time>2021-11-24T14:34:38.000Z</time>
      </trkpt>
      <trkpt lat="43.51791" lon="6.36026">
        <ele>325</ele>
        <time>2021-11-24T14:34:39.000Z</time>
      </trkpt>
      <trkpt lat="43.51791" lon="6.36028">
        <ele>325</ele>
        <time>2021-11-24T14:34:40.000Z</time>
      </trkpt>
      <trkpt lat="43.51791" lon="6.36029">
        <ele>325</ele>
        <time>2021-11-24T14:34:41.000Z</time>
      </trkpt>
      <trkpt lat="43.51791" lon="6.3603">
        <ele>326</ele>
        <time>2021-11-24T14:34:42.000Z</time>
      </trkpt>
      <trkpt lat="43.5179" lon="6.36032">
        <ele>326</ele>
        <time>2021-11-24T14:34:43.000Z</time>
      </trkpt>
      <trkpt lat="43.5179" lon="6.36033">
        <ele>326</ele>
        <time>2021-11-24T14:34:44.000Z</time>
      </trkpt>
      <trkpt lat="43.5179" lon="6.36034">
        <ele>326</ele>
        <time>2021-11-24T14:34:45.000Z</time>
      </trkpt>
      <trkpt lat="43.5179" lon="6.36036">
        <ele>326</ele>
        <time>2021-11-24T14:34:46.000Z</time>
      </trkpt>
      <trkpt lat="43.51789" lon="6.36036">
        <ele>326</ele>
        <time>2021-11-24T14:34:47.000Z</time>
      </trkpt>
      <trkpt lat="43.51789" lon="6.36037">
        <ele>326</ele>
        <time>2021-11-24T14:34:48.000Z</time>
      </trkpt>
      <trkpt lat="43.51789" lon="6.36038">
        <ele>325</ele>
        <time>2021-11-24T14:34:49.000Z</time>
      </trkpt>
      <trkpt lat="43.51788" lon="6.36039">
        <ele>325</ele>
        <time>2021-11-24T14:34:50.000Z</time>
      </trkpt>
      <trkpt lat="43.51788" lon="6.36039">
        <ele>325</ele>
        <time>2021-11-24T14:34:51.000Z</time>
      </trkpt>
      <trkpt lat="43.51788" lon="6.3604">
        <ele>325</ele>
        <time>2021-11-24T14:34:52.000Z</time>
      </trkpt>
      <trkpt lat="43.51788" lon="6.36041">
        <ele>325</ele>
        <time>2021-11-24T14:34:53.000Z</time>
      </trkpt>
      <trkpt lat="43.51788" lon="6.36042">
        <ele>325</ele>
        <time>2021-11-24T14:34:54.000Z</time>
      </trkpt>
      <trkpt lat="43.51788" lon="6.36042">
        <ele>325</ele>
        <time>2021-11-24T14:34:55.000Z</time>
      </trkpt>
      <trkpt lat="43.51789" lon="6.36043">
        <ele>325</ele>
        <time>2021-11-24T14:34:56.000Z</time>
      </trkpt>
      <trkpt lat="43.51789" lon="6.36043">
        <ele>325</ele>
        <time>2021-11-24T14:34:57.000Z</time>
      </trkpt>
      <trkpt lat="43.51789" lon="6.36044">
        <ele>325</ele>
        <time>2021-11-24T14:34:58.000Z</time>
      </trkpt>
      <trkpt lat="43.51789" lon="6.36045">
        <ele>325</ele>
        <time>2021-11-24T14:34:59.000Z</time>
      </trkpt>
      <trkpt lat="43.5179" lon="6.36046">
        <ele>325</ele>
        <time>2021-11-24T14:35:00.000Z</time>
      </trkpt>
      <trkpt lat="43.5179" lon="6.36046">
        <ele>325</ele>
        <time>2021-11-24T14:35:01.000Z</time>
      </trkpt>
      <trkpt lat="43.5179" lon="6.36046">
        <ele>325</ele>
        <time>2021-11-24T14:35:02.000Z</time>
      </trkpt>
      <trkpt lat="43.5179" lon="6.36046">
        <ele>325</ele>
        <time>2021-11-24T14:35:03.000Z</time>
      </trkpt>
      <trkpt lat="43.51789" lon="6.36045">
        <ele>325</ele>
        <time>2021-11-24T14:35:04.000Z</time>
      </trkpt>
      <trkpt lat="43.51789" lon="6.36046">
        <ele>325</ele>
        <time>2021-11-24T14:35:05.000Z</time>
      </trkpt>
      <trkpt lat="43.51788" lon="6.36046">
        <ele>325</ele>
        <time>2021-11-24T14:35:06.000Z</time>
      </trkpt>
      <trkpt lat="43.51788" lon="6.36048">
        <ele>325</ele>
        <time>2021-11-24T14:35:07.000Z</time>
      </trkpt>
      <trkpt lat="43.51788" lon="6.36049">
        <ele>326</ele>
        <time>2021-11-24T14:35:08.000Z</time>
      </trkpt>
      <trkpt lat="43.51788" lon="6.3605">
        <ele>326</ele>
        <time>2021-11-24T14:35:09.000Z</time>
      </trkpt>
      <trkpt lat="43.51788" lon="6.36051">
        <ele>326</ele>
        <time>2021-11-24T14:35:10.000Z</time>
      </trkpt>
      <trkpt lat="43.51789" lon="6.36052">
        <ele>326</ele>
        <time>2021-11-24T14:35:11.000Z</time>
      </trkpt>
      <trkpt lat="43.51789" lon="6.36053">
        <ele>326</ele>
        <time>2021-11-24T14:35:12.000Z</time>
      </trkpt>
      <trkpt lat="43.5179" lon="6.36054">
        <ele>326</ele>
        <time>2021-11-24T14:35:13.000Z</time>
      </trkpt>
      <trkpt lat="43.5179" lon="6.36054">
        <ele>326</ele>
        <time>2021-11-24T14:35:14.000Z</time>
      </trkpt>
      <trkpt lat="43.5179" lon="6.36054">
        <ele>326</ele>
        <time>2021-11-24T14:35:15.000Z</time>
      </trkpt>
      <trkpt lat="43.5179" lon="6.36055">
        <ele>326</ele>
        <time>2021-11-24T14:35:16.000Z</time>
      </trkpt>
      <trkpt lat="43.5179" lon="6.36055">
        <ele>326</ele>
        <time>2021-11-24T14:35:17.000Z</time>
      </trkpt>
      <trkpt lat="43.5179" lon="6.36055">
        <ele>326</ele>
        <time>2021-11-24T14:35:18.000Z</time>
      </trkpt>
      <trkpt lat="43.5179" lon="6.36055">
        <ele>326</ele>
        <time>2021-11-24T14:35:19.000Z</time>
      </trkpt>
      <trkpt lat="43.5179" lon="6.36055">
        <ele>326</ele>
        <time>2021-11-24T14:35:20.000Z</time>
      </trkpt>
      <trkpt lat="43.5179" lon="6.36055">
        <ele>326</ele>
        <time>2021-11-24T14:35:21.000Z</time>
      </trkpt>
      <trkpt lat="43.5179" lon="6.36055">
        <ele>326</ele>
        <time>2021-11-24T14:35:22.000Z</time>
      </trkpt>
      <trkpt lat="43.5179" lon="6.36055">
        <ele>326</ele>
        <time>2021-11-24T14:35:23.000Z</time>
      </trkpt>
      <trkpt lat="43.5179" lon="6.36055">
        <ele>326</ele>
        <time>2021-11-24T14:35:24.000Z</time>
      </trkpt>
      <trkpt lat="43.5179" lon="6.36055">
        <ele>326</ele>
        <time>2021-11-24T14:35:25.000Z</time>
      </trkpt>
      <trkpt lat="43.5179" lon="6.36055">
        <ele>326</ele>
        <time>2021-11-24T14:35:26.000Z</time>
      </trkpt>
      <trkpt lat="43.5179" lon="6.36055">
        <ele>326</ele>
        <time>2021-11-24T14:35:27.000Z</time>
      </trkpt>
      <trkpt lat="43.5179" lon="6.36055">
        <ele>326</ele>
        <time>2021-11-24T14:35:28.000Z</time>
      </trkpt>
      <trkpt lat="43.5179" lon="6.36055">
        <ele>326</ele>
        <time>2021-11-24T14:35:29.000Z</time>
      </trkpt>
      <trkpt lat="43.5179" lon="6.36055">
        <ele>326</ele>
        <time>2021-11-24T14:35:30.000Z</time>
      </trkpt>
      <trkpt lat="43.5179" lon="6.36055">
        <ele>326</ele>
        <time>2021-11-24T14:35:31.000Z</time>
      </trkpt>
      <trkpt lat="43.5179" lon="6.36055">
        <ele>326</ele>
        <time>2021-11-24T14:35:32.000Z</time>
      </trkpt>
      <trkpt lat="43.5179" lon="6.36055">
        <ele>326</ele>
        <time>2021-11-24T14:35:33.000Z</time>
      </trkpt>
      <trkpt lat="43.5179" lon="6.36055">
        <ele>326</ele>
        <time>2021-11-24T14:35:34.000Z</time>
      </trkpt>
      <trkpt lat="43.5179" lon="6.36055">
        <ele>326</ele>
        <time>2021-11-24T14:35:35.000Z</time>
      </trkpt>
      <trkpt lat="43.51788" lon="6.36052">
        <ele>326</ele>
        <time>2021-11-24T14:35:36.000Z</time>
      </trkpt>
      <trkpt lat="43.51788" lon="6.36052">
        <ele>326</ele>
        <time>2021-11-24T14:35:37.000Z</time>
      </trkpt>
      <trkpt lat="43.51788" lon="6.36053">
        <ele>326</ele>
        <time>2021-11-24T14:35:38.000Z</time>
      </trkpt>
      <trkpt lat="43.51787" lon="6.36054">
        <ele>326</ele>
        <time>2021-11-24T14:35:39.000Z</time>
      </trkpt>
      <trkpt lat="43.51787" lon="6.36055">
        <ele>326</ele>
        <time>2021-11-24T14:35:40.000Z</time>
      </trkpt>
      <trkpt lat="43.51787" lon="6.36056">
        <ele>326</ele>
        <time>2021-11-24T14:35:41.000Z</time>
      </trkpt>
      <trkpt lat="43.51786" lon="6.36056">
        <ele>326</ele>
        <time>2021-11-24T14:35:42.000Z</time>
      </trkpt>
      <trkpt lat="43.51786" lon="6.36057">
        <ele>326</ele>
        <time>2021-11-24T14:35:43.000Z</time>
      </trkpt>
      <trkpt lat="43.51786" lon="6.36058">
        <ele>326</ele>
        <time>2021-11-24T14:35:44.000Z</time>
      </trkpt>
      <trkpt lat="43.51785" lon="6.36059">
        <ele>326</ele>
        <time>2021-11-24T14:35:45.000Z</time>
      </trkpt>
      <trkpt lat="43.51785" lon="6.3606">
        <ele>326</ele>
        <time>2021-11-24T14:35:46.000Z</time>
      </trkpt>
      <trkpt lat="43.51784" lon="6.36061">
        <ele>326</ele>
        <time>2021-11-24T14:35:47.000Z</time>
      </trkpt>
      <trkpt lat="43.51784" lon="6.36062">
        <ele>326</ele>
        <time>2021-11-24T14:35:48.000Z</time>
      </trkpt>
      <trkpt lat="43.51783" lon="6.36063">
        <ele>326</ele>
        <time>2021-11-24T14:35:49.000Z</time>
      </trkpt>
      <trkpt lat="43.51783" lon="6.36064">
        <ele>326</ele>
        <time>2021-11-24T14:35:50.000Z</time>
      </trkpt>
      <trkpt lat="43.51782" lon="6.36065">
        <ele>325</ele>
        <time>2021-11-24T14:35:51.000Z</time>
      </trkpt>
      <trkpt lat="43.51781" lon="6.36067">
        <ele>325</ele>
        <time>2021-11-24T14:35:52.000Z</time>
      </trkpt>
      <trkpt lat="43.5178" lon="6.36068">
        <ele>325</ele>
        <time>2021-11-24T14:35:53.000Z</time>
      </trkpt>
      <trkpt lat="43.5178" lon="6.36069">
        <ele>325</ele>
        <time>2021-11-24T14:35:54.000Z</time>
      </trkpt>
      <trkpt lat="43.5178" lon="6.3607">
        <ele>325</ele>
        <time>2021-11-24T14:35:55.000Z</time>
      </trkpt>
      <trkpt lat="43.5178" lon="6.3607">
        <ele>325</ele>
        <time>2021-11-24T14:35:56.000Z</time>
      </trkpt>
      <trkpt lat="43.5178" lon="6.3607">
        <ele>325</ele>
        <time>2021-11-24T14:35:57.000Z</time>
      </trkpt>
      <trkpt lat="43.5178" lon="6.36071">
        <ele>325</ele>
        <time>2021-11-24T14:35:58.000Z</time>
      </trkpt>
      <trkpt lat="43.5178" lon="6.36071">
        <ele>325</ele>
        <time>2021-11-24T14:35:59.000Z</time>
      </trkpt>
      <trkpt lat="43.5178" lon="6.36072">
        <ele>325</ele>
        <time>2021-11-24T14:36:00.000Z</time>
      </trkpt>
      <trkpt lat="43.51779" lon="6.36072">
        <ele>325</ele>
        <time>2021-11-24T14:36:01.000Z</time>
      </trkpt>
      <trkpt lat="43.51779" lon="6.36073">
        <ele>325</ele>
        <time>2021-11-24T14:36:02.000Z</time>
      </trkpt>
      <trkpt lat="43.51778" lon="6.36074">
        <ele>325</ele>
        <time>2021-11-24T14:36:03.000Z</time>
      </trkpt>
      <trkpt lat="43.51778" lon="6.36075">
        <ele>325</ele>
        <time>2021-11-24T14:36:04.000Z</time>
      </trkpt>
      <trkpt lat="43.51777" lon="6.36076">
        <ele>325</ele>
        <time>2021-11-24T14:36:05.000Z</time>
      </trkpt>
      <trkpt lat="43.51777" lon="6.36078">
        <ele>325</ele>
        <time>2021-11-24T14:36:06.000Z</time>
      </trkpt>
      <trkpt lat="43.51776" lon="6.3608">
        <ele>325</ele>
        <time>2021-11-24T14:36:07.000Z</time>
      </trkpt>
      <trkpt lat="43.51776" lon="6.36083">
        <ele>325</ele>
        <time>2021-11-24T14:36:08.000Z</time>
      </trkpt>
      <trkpt lat="43.51775" lon="6.36085">
        <ele>325</ele>
        <time>2021-11-24T14:36:09.000Z</time>
      </trkpt>
      <trkpt lat="43.51775" lon="6.36088">
        <ele>325</ele>
        <time>2021-11-24T14:36:10.000Z</time>
      </trkpt>
      <trkpt lat="43.51774" lon="6.3609">
        <ele>325</ele>
        <time>2021-11-24T14:36:11.000Z</time>
      </trkpt>
      <trkpt lat="43.51774" lon="6.36092">
        <ele>325</ele>
        <time>2021-11-24T14:36:12.000Z</time>
      </trkpt>
      <trkpt lat="43.51774" lon="6.36094">
        <ele>325</ele>
        <time>2021-11-24T14:36:13.000Z</time>
      </trkpt>
      <trkpt lat="43.51774" lon="6.36095">
        <ele>325</ele>
        <time>2021-11-24T14:36:14.000Z</time>
      </trkpt>
      <trkpt lat="43.51775" lon="6.36097">
        <ele>324</ele>
        <time>2021-11-24T14:36:15.000Z</time>
      </trkpt>
      <trkpt lat="43.51775" lon="6.36099">
        <ele>324</ele>
        <time>2021-11-24T14:36:16.000Z</time>
      </trkpt>
      <trkpt lat="43.51775" lon="6.36102">
        <ele>324</ele>
        <time>2021-11-24T14:36:17.000Z</time>
      </trkpt>
      <trkpt lat="43.51776" lon="6.36104">
        <ele>323</ele>
        <time>2021-11-24T14:36:18.000Z</time>
      </trkpt>
      <trkpt lat="43.51776" lon="6.36105">
        <ele>323</ele>
        <time>2021-11-24T14:36:19.000Z</time>
      </trkpt>
      <trkpt lat="43.51777" lon="6.36106">
        <ele>323</ele>
        <time>2021-11-24T14:36:20.000Z</time>
      </trkpt>
      <trkpt lat="43.51777" lon="6.36107">
        <ele>323</ele>
        <time>2021-11-24T14:36:21.000Z</time>
      </trkpt>
      <trkpt lat="43.51777" lon="6.36109">
        <ele>322</ele>
        <time>2021-11-24T14:36:22.000Z</time>
      </trkpt>
      <trkpt lat="43.51778" lon="6.3611">
        <ele>322</ele>
        <time>2021-11-24T14:36:23.000Z</time>
      </trkpt>
      <trkpt lat="43.51778" lon="6.36111">
        <ele>322</ele>
        <time>2021-11-24T14:36:24.000Z</time>
      </trkpt>
      <trkpt lat="43.51778" lon="6.36112">
        <ele>322</ele>
        <time>2021-11-24T14:36:25.000Z</time>
      </trkpt>
      <trkpt lat="43.51779" lon="6.36113">
        <ele>322</ele>
        <time>2021-11-24T14:36:26.000Z</time>
      </trkpt>
      <trkpt lat="43.51779" lon="6.36114">
        <ele>322</ele>
        <time>2021-11-24T14:36:27.000Z</time>
      </trkpt>
      <trkpt lat="43.5178" lon="6.36115">
        <ele>322</ele>
        <time>2021-11-24T14:36:28.000Z</time>
      </trkpt>
      <trkpt lat="43.5178" lon="6.36116">
        <ele>322</ele>
        <time>2021-11-24T14:36:29.000Z</time>
      </trkpt>
      <trkpt lat="43.51781" lon="6.36118">
        <ele>322</ele>
        <time>2021-11-24T14:36:30.000Z</time>
      </trkpt>
      <trkpt lat="43.51781" lon="6.36119">
        <ele>322</ele>
        <time>2021-11-24T14:36:31.000Z</time>
      </trkpt>
      <trkpt lat="43.51782" lon="6.3612">
        <ele>322</ele>
        <time>2021-11-24T14:36:32.000Z</time>
      </trkpt>
      <trkpt lat="43.51783" lon="6.36121">
        <ele>322</ele>
        <time>2021-11-24T14:36:33.000Z</time>
      </trkpt>
      <trkpt lat="43.51784" lon="6.36122">
        <ele>322</ele>
        <time>2021-11-24T14:36:34.000Z</time>
      </trkpt>
      <trkpt lat="43.51786" lon="6.36124">
        <ele>322</ele>
        <time>2021-11-24T14:36:35.000Z</time>
      </trkpt>
      <trkpt lat="43.51786" lon="6.36125">
        <ele>322</ele>
        <time>2021-11-24T14:36:36.000Z</time>
      </trkpt>
      <trkpt lat="43.51787" lon="6.36126">
        <ele>322</ele>
        <time>2021-11-24T14:36:37.000Z</time>
      </trkpt>
      <trkpt lat="43.51788" lon="6.36128">
        <ele>322</ele>
        <time>2021-11-24T14:36:38.000Z</time>
      </trkpt>
      <trkpt lat="43.51789" lon="6.36129">
        <ele>322</ele>
        <time>2021-11-24T14:36:39.000Z</time>
      </trkpt>
      <trkpt lat="43.51789" lon="6.36131">
        <ele>321</ele>
        <time>2021-11-24T14:36:40.000Z</time>
      </trkpt>
      <trkpt lat="43.5179" lon="6.36132">
        <ele>321</ele>
        <time>2021-11-24T14:36:41.000Z</time>
      </trkpt>
      <trkpt lat="43.51791" lon="6.36134">
        <ele>321</ele>
        <time>2021-11-24T14:36:42.000Z</time>
      </trkpt>
      <trkpt lat="43.51791" lon="6.36135">
        <ele>321</ele>
        <time>2021-11-24T14:36:43.000Z</time>
      </trkpt>
      <trkpt lat="43.51792" lon="6.36137">
        <ele>321</ele>
        <time>2021-11-24T14:36:44.000Z</time>
      </trkpt>
      <trkpt lat="43.51793" lon="6.36137">
        <ele>320</ele>
        <time>2021-11-24T14:36:45.000Z</time>
      </trkpt>
      <trkpt lat="43.51793" lon="6.36138">
        <ele>319</ele>
        <time>2021-11-24T14:36:46.000Z</time>
      </trkpt>
      <trkpt lat="43.51794" lon="6.36139">
        <ele>319</ele>
        <time>2021-11-24T14:36:47.000Z</time>
      </trkpt>
      <trkpt lat="43.51794" lon="6.3614">
        <ele>319</ele>
        <time>2021-11-24T14:36:48.000Z</time>
      </trkpt>
      <trkpt lat="43.51795" lon="6.3614">
        <ele>319</ele>
        <time>2021-11-24T14:36:49.000Z</time>
      </trkpt>
      <trkpt lat="43.51795" lon="6.36141">
        <ele>319</ele>
        <time>2021-11-24T14:36:50.000Z</time>
      </trkpt>
      <trkpt lat="43.51796" lon="6.36142">
        <ele>318</ele>
        <time>2021-11-24T14:36:51.000Z</time>
      </trkpt>
      <trkpt lat="43.51796" lon="6.36144">
        <ele>318</ele>
        <time>2021-11-24T14:36:52.000Z</time>
      </trkpt>
      <trkpt lat="43.51796" lon="6.36145">
        <ele>318</ele>
        <time>2021-11-24T14:36:53.000Z</time>
      </trkpt>
      <trkpt lat="43.51796" lon="6.36146">
        <ele>318</ele>
        <time>2021-11-24T14:36:54.000Z</time>
      </trkpt>
      <trkpt lat="43.51797" lon="6.36147">
        <ele>318</ele>
        <time>2021-11-24T14:36:55.000Z</time>
      </trkpt>
      <trkpt lat="43.51798" lon="6.36148">
        <ele>318</ele>
        <time>2021-11-24T14:36:56.000Z</time>
      </trkpt>
      <trkpt lat="43.51798" lon="6.36149">
        <ele>318</ele>
        <time>2021-11-24T14:36:57.000Z</time>
      </trkpt>
      <trkpt lat="43.51798" lon="6.3615">
        <ele>317</ele>
        <time>2021-11-24T14:36:58.000Z</time>
      </trkpt>
      <trkpt lat="43.51799" lon="6.36151">
        <ele>317</ele>
        <time>2021-11-24T14:36:59.000Z</time>
      </trkpt>
      <trkpt lat="43.51799" lon="6.36153">
        <ele>317</ele>
        <time>2021-11-24T14:37:00.000Z</time>
      </trkpt>
      <trkpt lat="43.518" lon="6.36154">
        <ele>317</ele>
        <time>2021-11-24T14:37:01.000Z</time>
      </trkpt>
      <trkpt lat="43.518" lon="6.36155">
        <ele>317</ele>
        <time>2021-11-24T14:37:02.000Z</time>
      </trkpt>
      <trkpt lat="43.51801" lon="6.36156">
        <ele>318</ele>
        <time>2021-11-24T14:37:03.000Z</time>
      </trkpt>
      <trkpt lat="43.51801" lon="6.36157">
        <ele>318</ele>
        <time>2021-11-24T14:37:04.000Z</time>
      </trkpt>
      <trkpt lat="43.51801" lon="6.36158">
        <ele>318</ele>
        <time>2021-11-24T14:37:05.000Z</time>
      </trkpt>
      <trkpt lat="43.51802" lon="6.36159">
        <ele>317</ele>
        <time>2021-11-24T14:37:06.000Z</time>
      </trkpt>
      <trkpt lat="43.51803" lon="6.3616">
        <ele>317</ele>
        <time>2021-11-24T14:37:07.000Z</time>
      </trkpt>
      <trkpt lat="43.51803" lon="6.36162">
        <ele>317</ele>
        <time>2021-11-24T14:37:08.000Z</time>
      </trkpt>
      <trkpt lat="43.51804" lon="6.36163">
        <ele>317</ele>
        <time>2021-11-24T14:37:09.000Z</time>
      </trkpt>
      <trkpt lat="43.51804" lon="6.36164">
        <ele>317</ele>
        <time>2021-11-24T14:37:10.000Z</time>
      </trkpt>
      <trkpt lat="43.51805" lon="6.36165">
        <ele>317</ele>
        <time>2021-11-24T14:37:11.000Z</time>
      </trkpt>
      <trkpt lat="43.51805" lon="6.36166">
        <ele>317</ele>
        <time>2021-11-24T14:37:12.000Z</time>
      </trkpt>
      <trkpt lat="43.51806" lon="6.36167">
        <ele>317</ele>
        <time>2021-11-24T14:37:13.000Z</time>
      </trkpt>
      <trkpt lat="43.51807" lon="6.36168">
        <ele>317</ele>
        <time>2021-11-24T14:37:14.000Z</time>
      </trkpt>
      <trkpt lat="43.51807" lon="6.36169">
        <ele>316</ele>
        <time>2021-11-24T14:37:15.000Z</time>
      </trkpt>
      <trkpt lat="43.51808" lon="6.3617">
        <ele>316</ele>
        <time>2021-11-24T14:37:16.000Z</time>
      </trkpt>
      <trkpt lat="43.51809" lon="6.36171">
        <ele>316</ele>
        <time>2021-11-24T14:37:17.000Z</time>
      </trkpt>
      <trkpt lat="43.51809" lon="6.36172">
        <ele>316</ele>
        <time>2021-11-24T14:37:18.000Z</time>
      </trkpt>
      <trkpt lat="43.5181" lon="6.36173">
        <ele>316</ele>
        <time>2021-11-24T14:37:19.000Z</time>
      </trkpt>
      <trkpt lat="43.5181" lon="6.36174">
        <ele>316</ele>
        <time>2021-11-24T14:37:20.000Z</time>
      </trkpt>
      <trkpt lat="43.51811" lon="6.36176">
        <ele>316</ele>
        <time>2021-11-24T14:37:21.000Z</time>
      </trkpt>
      <trkpt lat="43.51811" lon="6.36177">
        <ele>316</ele>
        <time>2021-11-24T14:37:22.000Z</time>
      </trkpt>
      <trkpt lat="43.51812" lon="6.36178">
        <ele>316</ele>
        <time>2021-11-24T14:37:23.000Z</time>
      </trkpt>
      <trkpt lat="43.51812" lon="6.36179">
        <ele>315</ele>
        <time>2021-11-24T14:37:24.000Z</time>
      </trkpt>
      <trkpt lat="43.51813" lon="6.36181">
        <ele>315</ele>
        <time>2021-11-24T14:37:25.000Z</time>
      </trkpt>
      <trkpt lat="43.51813" lon="6.36182">
        <ele>314</ele>
        <time>2021-11-24T14:37:26.000Z</time>
      </trkpt>
      <trkpt lat="43.51814" lon="6.36183">
        <ele>314</ele>
        <time>2021-11-24T14:37:27.000Z</time>
      </trkpt>
      <trkpt lat="43.51814" lon="6.36185">
        <ele>314</ele>
        <time>2021-11-24T14:37:28.000Z</time>
      </trkpt>
      <trkpt lat="43.51814" lon="6.36187">
        <ele>314</ele>
        <time>2021-11-24T14:37:29.000Z</time>
      </trkpt>
      <trkpt lat="43.51814" lon="6.36188">
        <ele>314</ele>
        <time>2021-11-24T14:37:30.000Z</time>
      </trkpt>
      <trkpt lat="43.51814" lon="6.36189">
        <ele>314</ele>
        <time>2021-11-24T14:37:31.000Z</time>
      </trkpt>
      <trkpt lat="43.51814" lon="6.36191">
        <ele>313</ele>
        <time>2021-11-24T14:37:32.000Z</time>
      </trkpt>
      <trkpt lat="43.51814" lon="6.36192">
        <ele>313</ele>
        <time>2021-11-24T14:37:33.000Z</time>
      </trkpt>
      <trkpt lat="43.51814" lon="6.36193">
        <ele>312</ele>
        <time>2021-11-24T14:37:34.000Z</time>
      </trkpt>
      <trkpt lat="43.51814" lon="6.36194">
        <ele>313</ele>
        <time>2021-11-24T14:37:35.000Z</time>
      </trkpt>
      <trkpt lat="43.51814" lon="6.36195">
        <ele>313</ele>
        <time>2021-11-24T14:37:36.000Z</time>
      </trkpt>
      <trkpt lat="43.51814" lon="6.36196">
        <ele>313</ele>
        <time>2021-11-24T14:37:37.000Z</time>
      </trkpt>
      <trkpt lat="43.51815" lon="6.36197">
        <ele>313</ele>
        <time>2021-11-24T14:37:38.000Z</time>
      </trkpt>
      <trkpt lat="43.51815" lon="6.36198">
        <ele>312</ele>
        <time>2021-11-24T14:37:39.000Z</time>
      </trkpt>
      <trkpt lat="43.51815" lon="6.36199">
        <ele>312</ele>
        <time>2021-11-24T14:37:40.000Z</time>
      </trkpt>
      <trkpt lat="43.51816" lon="6.362">
        <ele>312</ele>
        <time>2021-11-24T14:37:41.000Z</time>
      </trkpt>
      <trkpt lat="43.51816" lon="6.36201">
        <ele>312</ele>
        <time>2021-11-24T14:37:42.000Z</time>
      </trkpt>
      <trkpt lat="43.51816" lon="6.36202">
        <ele>312</ele>
        <time>2021-11-24T14:37:43.000Z</time>
      </trkpt>
      <trkpt lat="43.51817" lon="6.36202">
        <ele>312</ele>
        <time>2021-11-24T14:37:44.000Z</time>
      </trkpt>
      <trkpt lat="43.51817" lon="6.36203">
        <ele>312</ele>
        <time>2021-11-24T14:37:45.000Z</time>
      </trkpt>
      <trkpt lat="43.51818" lon="6.36204">
        <ele>312</ele>
        <time>2021-11-24T14:37:46.000Z</time>
      </trkpt>
      <trkpt lat="43.51818" lon="6.36205">
        <ele>311</ele>
        <time>2021-11-24T14:37:47.000Z</time>
      </trkpt>
      <trkpt lat="43.51819" lon="6.36207">
        <ele>311</ele>
        <time>2021-11-24T14:37:48.000Z</time>
      </trkpt>
      <trkpt lat="43.5182" lon="6.36208">
        <ele>311</ele>
        <time>2021-11-24T14:37:49.000Z</time>
      </trkpt>
      <trkpt lat="43.5182" lon="6.36209">
        <ele>311</ele>
        <time>2021-11-24T14:37:50.000Z</time>
      </trkpt>
      <trkpt lat="43.51821" lon="6.3621">
        <ele>311</ele>
        <time>2021-11-24T14:37:51.000Z</time>
      </trkpt>
      <trkpt lat="43.51821" lon="6.36211">
        <ele>311</ele>
        <time>2021-11-24T14:37:52.000Z</time>
      </trkpt>
      <trkpt lat="43.51822" lon="6.36212">
        <ele>311</ele>
        <time>2021-11-24T14:37:53.000Z</time>
      </trkpt>
      <trkpt lat="43.51822" lon="6.36213">
        <ele>310</ele>
        <time>2021-11-24T14:37:54.000Z</time>
      </trkpt>
      <trkpt lat="43.51823" lon="6.36215">
        <ele>310</ele>
        <time>2021-11-24T14:37:55.000Z</time>
      </trkpt>
      <trkpt lat="43.51823" lon="6.36216">
        <ele>310</ele>
        <time>2021-11-24T14:37:56.000Z</time>
      </trkpt>
      <trkpt lat="43.51824" lon="6.36217">
        <ele>310</ele>
        <time>2021-11-24T14:37:57.000Z</time>
      </trkpt>
      <trkpt lat="43.51824" lon="6.36218">
        <ele>310</ele>
        <time>2021-11-24T14:37:58.000Z</time>
      </trkpt>
      <trkpt lat="43.51825" lon="6.36219">
        <ele>310</ele>
        <time>2021-11-24T14:37:59.000Z</time>
      </trkpt>
      <trkpt lat="43.51826" lon="6.3622">
        <ele>310</ele>
        <time>2021-11-24T14:38:00.000Z</time>
      </trkpt>
      <trkpt lat="43.51826" lon="6.36221">
        <ele>310</ele>
        <time>2021-11-24T14:38:01.000Z</time>
      </trkpt>
      <trkpt lat="43.51827" lon="6.36222">
        <ele>310</ele>
        <time>2021-11-24T14:38:02.000Z</time>
      </trkpt>
      <trkpt lat="43.51827" lon="6.36223">
        <ele>310</ele>
        <time>2021-11-24T14:38:03.000Z</time>
      </trkpt>
      <trkpt lat="43.51828" lon="6.36225">
        <ele>310</ele>
        <time>2021-11-24T14:38:04.000Z</time>
      </trkpt>
      <trkpt lat="43.51828" lon="6.36226">
        <ele>310</ele>
        <time>2021-11-24T14:38:05.000Z</time>
      </trkpt>
      <trkpt lat="43.51829" lon="6.36227">
        <ele>310</ele>
        <time>2021-11-24T14:38:06.000Z</time>
      </trkpt>
      <trkpt lat="43.51829" lon="6.36229">
        <ele>310</ele>
        <time>2021-11-24T14:38:07.000Z</time>
      </trkpt>
      <trkpt lat="43.5183" lon="6.3623">
        <ele>309</ele>
        <time>2021-11-24T14:38:08.000Z</time>
      </trkpt>
      <trkpt lat="43.51831" lon="6.36231">
        <ele>309</ele>
        <time>2021-11-24T14:38:09.000Z</time>
      </trkpt>
      <trkpt lat="43.51832" lon="6.36232">
        <ele>309</ele>
        <time>2021-11-24T14:38:10.000Z</time>
      </trkpt>
      <trkpt lat="43.51832" lon="6.36233">
        <ele>309</ele>
        <time>2021-11-24T14:38:11.000Z</time>
      </trkpt>
      <trkpt lat="43.51833" lon="6.36234">
        <ele>309</ele>
        <time>2021-11-24T14:38:12.000Z</time>
      </trkpt>
      <trkpt lat="43.51834" lon="6.36235">
        <ele>309</ele>
        <time>2021-11-24T14:38:13.000Z</time>
      </trkpt>
      <trkpt lat="43.51835" lon="6.36236">
        <ele>309</ele>
        <time>2021-11-24T14:38:14.000Z</time>
      </trkpt>
      <trkpt lat="43.51835" lon="6.36237">
        <ele>309</ele>
        <time>2021-11-24T14:38:15.000Z</time>
      </trkpt>
      <trkpt lat="43.51836" lon="6.36238">
        <ele>309</ele>
        <time>2021-11-24T14:38:16.000Z</time>
      </trkpt>
      <trkpt lat="43.51837" lon="6.36239">
        <ele>309</ele>
        <time>2021-11-24T14:38:17.000Z</time>
      </trkpt>
      <trkpt lat="43.51838" lon="6.36241">
        <ele>308</ele>
        <time>2021-11-24T14:38:18.000Z</time>
      </trkpt>
      <trkpt lat="43.51839" lon="6.36242">
        <ele>308</ele>
        <time>2021-11-24T14:38:19.000Z</time>
      </trkpt>
      <trkpt lat="43.5184" lon="6.36243">
        <ele>308</ele>
        <time>2021-11-24T14:38:20.000Z</time>
      </trkpt>
      <trkpt lat="43.51842" lon="6.36243">
        <ele>308</ele>
        <time>2021-11-24T14:38:21.000Z</time>
      </trkpt>
      <trkpt lat="43.51843" lon="6.36244">
        <ele>308</ele>
        <time>2021-11-24T14:38:22.000Z</time>
      </trkpt>
      <trkpt lat="43.51844" lon="6.36245">
        <ele>308</ele>
        <time>2021-11-24T14:38:23.000Z</time>
      </trkpt>
      <trkpt lat="43.51845" lon="6.36245">
        <ele>308</ele>
        <time>2021-11-24T14:38:24.000Z</time>
      </trkpt>
      <trkpt lat="43.51846" lon="6.36245">
        <ele>307</ele>
        <time>2021-11-24T14:38:25.000Z</time>
      </trkpt>
      <trkpt lat="43.51847" lon="6.36246">
        <ele>307</ele>
        <time>2021-11-24T14:38:26.000Z</time>
      </trkpt>
      <trkpt lat="43.51848" lon="6.36246">
        <ele>307</ele>
        <time>2021-11-24T14:38:27.000Z</time>
      </trkpt>
      <trkpt lat="43.51849" lon="6.36247">
        <ele>307</ele>
        <time>2021-11-24T14:38:28.000Z</time>
      </trkpt>
      <trkpt lat="43.51851" lon="6.36247">
        <ele>307</ele>
        <time>2021-11-24T14:38:29.000Z</time>
      </trkpt>
      <trkpt lat="43.51852" lon="6.36247">
        <ele>307</ele>
        <time>2021-11-24T14:38:30.000Z</time>
      </trkpt>
      <trkpt lat="43.51853" lon="6.36247">
        <ele>307</ele>
        <time>2021-11-24T14:38:31.000Z</time>
      </trkpt>
      <trkpt lat="43.51854" lon="6.36247">
        <ele>307</ele>
        <time>2021-11-24T14:38:32.000Z</time>
      </trkpt>
      <trkpt lat="43.51855" lon="6.36248">
        <ele>307</ele>
        <time>2021-11-24T14:38:33.000Z</time>
      </trkpt>
      <trkpt lat="43.51856" lon="6.36248">
        <ele>306</ele>
        <time>2021-11-24T14:38:34.000Z</time>
      </trkpt>
      <trkpt lat="43.51857" lon="6.36248">
        <ele>306</ele>
        <time>2021-11-24T14:38:35.000Z</time>
      </trkpt>
      <trkpt lat="43.51859" lon="6.36249">
        <ele>306</ele>
        <time>2021-11-24T14:38:36.000Z</time>
      </trkpt>
      <trkpt lat="43.5186" lon="6.36249">
        <ele>306</ele>
        <time>2021-11-24T14:38:37.000Z</time>
      </trkpt>
      <trkpt lat="43.51861" lon="6.36249">
        <ele>306</ele>
        <time>2021-11-24T14:38:38.000Z</time>
      </trkpt>
      <trkpt lat="43.51862" lon="6.3625">
        <ele>306</ele>
        <time>2021-11-24T14:38:39.000Z</time>
      </trkpt>
      <trkpt lat="43.51863" lon="6.3625">
        <ele>306</ele>
        <time>2021-11-24T14:38:40.000Z</time>
      </trkpt>
      <trkpt lat="43.51864" lon="6.3625">
        <ele>306</ele>
        <time>2021-11-24T14:38:41.000Z</time>
      </trkpt>
      <trkpt lat="43.51865" lon="6.3625">
        <ele>306</ele>
        <time>2021-11-24T14:38:42.000Z</time>
      </trkpt>
      <trkpt lat="43.51866" lon="6.36251">
        <ele>305</ele>
        <time>2021-11-24T14:38:43.000Z</time>
      </trkpt>
      <trkpt lat="43.51867" lon="6.36251">
        <ele>306</ele>
        <time>2021-11-24T14:38:44.000Z</time>
      </trkpt>
      <trkpt lat="43.51868" lon="6.36251">
        <ele>306</ele>
        <time>2021-11-24T14:38:45.000Z</time>
      </trkpt>
      <trkpt lat="43.51869" lon="6.36252">
        <ele>306</ele>
        <time>2021-11-24T14:38:46.000Z</time>
      </trkpt>
      <trkpt lat="43.5187" lon="6.36252">
        <ele>306</ele>
        <time>2021-11-24T14:38:47.000Z</time>
      </trkpt>
      <trkpt lat="43.51871" lon="6.36252">
        <ele>306</ele>
        <time>2021-11-24T14:38:48.000Z</time>
      </trkpt>
      <trkpt lat="43.51872" lon="6.36253">
        <ele>306</ele>
        <time>2021-11-24T14:38:49.000Z</time>
      </trkpt>
      <trkpt lat="43.51872" lon="6.36254">
        <ele>306</ele>
        <time>2021-11-24T14:38:50.000Z</time>
      </trkpt>
      <trkpt lat="43.51873" lon="6.36255">
        <ele>306</ele>
        <time>2021-11-24T14:38:51.000Z</time>
      </trkpt>
      <trkpt lat="43.51874" lon="6.36256">
        <ele>306</ele>
        <time>2021-11-24T14:38:52.000Z</time>
      </trkpt>
      <trkpt lat="43.51875" lon="6.36257">
        <ele>306</ele>
        <time>2021-11-24T14:38:53.000Z</time>
      </trkpt>
      <trkpt lat="43.51876" lon="6.36257">
        <ele>306</ele>
        <time>2021-11-24T14:38:54.000Z</time>
      </trkpt>
      <trkpt lat="43.51876" lon="6.36258">
        <ele>306</ele>
        <time>2021-11-24T14:38:55.000Z</time>
      </trkpt>
      <trkpt lat="43.51877" lon="6.36259">
        <ele>306</ele>
        <time>2021-11-24T14:38:56.000Z</time>
      </trkpt>
      <trkpt lat="43.51878" lon="6.3626">
        <ele>306</ele>
        <time>2021-11-24T14:38:57.000Z</time>
      </trkpt>
      <trkpt lat="43.51878" lon="6.36261">
        <ele>306</ele>
        <time>2021-11-24T14:38:58.000Z</time>
      </trkpt>
      <trkpt lat="43.51878" lon="6.36262">
        <ele>306</ele>
        <time>2021-11-24T14:38:59.000Z</time>
      </trkpt>
      <trkpt lat="43.51878" lon="6.36263">
        <ele>306</ele>
        <time>2021-11-24T14:39:00.000Z</time>
      </trkpt>
      <trkpt lat="43.51879" lon="6.36264">
        <ele>306</ele>
        <time>2021-11-24T14:39:01.000Z</time>
      </trkpt>
      <trkpt lat="43.51878" lon="6.36264">
        <ele>306</ele>
        <time>2021-11-24T14:39:02.000Z</time>
      </trkpt>
      <trkpt lat="43.51878" lon="6.36265">
        <ele>306</ele>
        <time>2021-11-24T14:39:03.000Z</time>
      </trkpt>
      <trkpt lat="43.51878" lon="6.36265">
        <ele>306</ele>
        <time>2021-11-24T14:39:04.000Z</time>
      </trkpt>
      <trkpt lat="43.51878" lon="6.36265">
        <ele>305</ele>
        <time>2021-11-24T14:39:05.000Z</time>
      </trkpt>
      <trkpt lat="43.51878" lon="6.36265">
        <ele>305</ele>
        <time>2021-11-24T14:39:06.000Z</time>
      </trkpt>
      <trkpt lat="43.51878" lon="6.36265">
        <ele>305</ele>
        <time>2021-11-24T14:39:07.000Z</time>
      </trkpt>
      <trkpt lat="43.51878" lon="6.36265">
        <ele>305</ele>
        <time>2021-11-24T14:39:08.000Z</time>
      </trkpt>
      <trkpt lat="43.51878" lon="6.36265">
        <ele>305</ele>
        <time>2021-11-24T14:39:09.000Z</time>
      </trkpt>
      <trkpt lat="43.51878" lon="6.36265">
        <ele>305</ele>
        <time>2021-11-24T14:39:10.000Z</time>
      </trkpt>
      <trkpt lat="43.51878" lon="6.36265">
        <ele>305</ele>
        <time>2021-11-24T14:39:11.000Z</time>
      </trkpt>
      <trkpt lat="43.51878" lon="6.36265">
        <ele>305</ele>
        <time>2021-11-24T14:39:12.000Z</time>
      </trkpt>
      <trkpt lat="43.51878" lon="6.36265">
        <ele>305</ele>
        <time>2021-11-24T14:39:13.000Z</time>
      </trkpt>
      <trkpt lat="43.51878" lon="6.36265">
        <ele>305</ele>
        <time>2021-11-24T14:39:14.000Z</time>
      </trkpt>
      <trkpt lat="43.51878" lon="6.36265">
        <ele>305</ele>
        <time>2021-11-24T14:39:15.000Z</time>
      </trkpt>
      <trkpt lat="43.51878" lon="6.36265">
        <ele>305</ele>
        <time>2021-11-24T14:39:16.000Z</time>
      </trkpt>
      <trkpt lat="43.51878" lon="6.36265">
        <ele>305</ele>
        <time>2021-11-24T14:39:17.000Z</time>
      </trkpt>
      <trkpt lat="43.51878" lon="6.36263">
        <ele>305</ele>
        <time>2021-11-24T14:39:18.000Z</time>
      </trkpt>
      <trkpt lat="43.51879" lon="6.36263">
        <ele>305</ele>
        <time>2021-11-24T14:39:19.000Z</time>
      </trkpt>
      <trkpt lat="43.51878" lon="6.36263">
        <ele>305</ele>
        <time>2021-11-24T14:39:20.000Z</time>
      </trkpt>
      <trkpt lat="43.51878" lon="6.36263">
        <ele>305</ele>
        <time>2021-11-24T14:39:21.000Z</time>
      </trkpt>
      <trkpt lat="43.51878" lon="6.36263">
        <ele>305</ele>
        <time>2021-11-24T14:39:22.000Z</time>
      </trkpt>
      <trkpt lat="43.51877" lon="6.36263">
        <ele>305</ele>
        <time>2021-11-24T14:39:23.000Z</time>
      </trkpt>
      <trkpt lat="43.51877" lon="6.36262">
        <ele>305</ele>
        <time>2021-11-24T14:39:24.000Z</time>
      </trkpt>
      <trkpt lat="43.51876" lon="6.36261">
        <ele>305</ele>
        <time>2021-11-24T14:39:25.000Z</time>
      </trkpt>
      <trkpt lat="43.51875" lon="6.36261">
        <ele>305</ele>
        <time>2021-11-24T14:39:26.000Z</time>
      </trkpt>
      <trkpt lat="43.51875" lon="6.3626">
        <ele>305</ele>
        <time>2021-11-24T14:39:27.000Z</time>
      </trkpt>
      <trkpt lat="43.51875" lon="6.3626">
        <ele>305</ele>
        <time>2021-11-24T14:39:28.000Z</time>
      </trkpt>
      <trkpt lat="43.51875" lon="6.3626">
        <ele>305</ele>
        <time>2021-11-24T14:39:29.000Z</time>
      </trkpt>
      <trkpt lat="43.51875" lon="6.3626">
        <ele>305</ele>
        <time>2021-11-24T14:39:30.000Z</time>
      </trkpt>
      <trkpt lat="43.51875" lon="6.3626">
        <ele>305</ele>
        <time>2021-11-24T14:39:31.000Z</time>
      </trkpt>
      <trkpt lat="43.51875" lon="6.3626">
        <ele>305</ele>
        <time>2021-11-24T14:39:32.000Z</time>
      </trkpt>
      <trkpt lat="43.51876" lon="6.36261">
        <ele>305</ele>
        <time>2021-11-24T14:39:33.000Z</time>
      </trkpt>
      <trkpt lat="43.51876" lon="6.36261">
        <ele>305</ele>
        <time>2021-11-24T14:39:34.000Z</time>
      </trkpt>
      <trkpt lat="43.51877" lon="6.36261">
        <ele>305</ele>
        <time>2021-11-24T14:39:35.000Z</time>
      </trkpt>
      <trkpt lat="43.51877" lon="6.36262">
        <ele>305</ele>
        <time>2021-11-24T14:39:36.000Z</time>
      </trkpt>
      <trkpt lat="43.51878" lon="6.36263">
        <ele>305</ele>
        <time>2021-11-24T14:39:37.000Z</time>
      </trkpt>
      <trkpt lat="43.51878" lon="6.36265">
        <ele>305</ele>
        <time>2021-11-24T14:39:38.000Z</time>
      </trkpt>
      <trkpt lat="43.51879" lon="6.36266">
        <ele>305</ele>
        <time>2021-11-24T14:39:39.000Z</time>
      </trkpt>
      <trkpt lat="43.51879" lon="6.36267">
        <ele>305</ele>
        <time>2021-11-24T14:39:40.000Z</time>
      </trkpt>
      <trkpt lat="43.5188" lon="6.36268">
        <ele>305</ele>
        <time>2021-11-24T14:39:41.000Z</time>
      </trkpt>
      <trkpt lat="43.51881" lon="6.3627">
        <ele>305</ele>
        <time>2021-11-24T14:39:42.000Z</time>
      </trkpt>
      <trkpt lat="43.51881" lon="6.36271">
        <ele>305</ele>
        <time>2021-11-24T14:39:43.000Z</time>
      </trkpt>
      <trkpt lat="43.51882" lon="6.36273">
        <ele>305</ele>
        <time>2021-11-24T14:39:44.000Z</time>
      </trkpt>
      <trkpt lat="43.51882" lon="6.36274">
        <ele>305</ele>
        <time>2021-11-24T14:39:45.000Z</time>
      </trkpt>
      <trkpt lat="43.5188" lon="6.36274">
        <ele>305</ele>
        <time>2021-11-24T14:39:46.000Z</time>
      </trkpt>
      <trkpt lat="43.5188" lon="6.36273">
        <ele>305</ele>
        <time>2021-11-24T14:39:47.000Z</time>
      </trkpt>
      <trkpt lat="43.51879" lon="6.36271">
        <ele>305</ele>
        <time>2021-11-24T14:39:48.000Z</time>
      </trkpt>
      <trkpt lat="43.51879" lon="6.3627">
        <ele>305</ele>
        <time>2021-11-24T14:39:49.000Z</time>
      </trkpt>
      <trkpt lat="43.51879" lon="6.36269">
        <ele>305</ele>
        <time>2021-11-24T14:39:50.000Z</time>
      </trkpt>
      <trkpt lat="43.51879" lon="6.36268">
        <ele>305</ele>
        <time>2021-11-24T14:39:51.000Z</time>
      </trkpt>
      <trkpt lat="43.51879" lon="6.36268">
        <ele>305</ele>
        <time>2021-11-24T14:39:52.000Z</time>
      </trkpt>
      <trkpt lat="43.51879" lon="6.36268">
        <ele>305</ele>
        <time>2021-11-24T14:39:53.000Z</time>
      </trkpt>
      <trkpt lat="43.51879" lon="6.36268">
        <ele>305</ele>
        <time>2021-11-24T14:39:54.000Z</time>
      </trkpt>
      <trkpt lat="43.51879" lon="6.36268">
        <ele>305</ele>
        <time>2021-11-24T14:39:55.000Z</time>
      </trkpt>
      <trkpt lat="43.51881" lon="6.36268">
        <ele>305</ele>
        <time>2021-11-24T14:39:56.000Z</time>
      </trkpt>
      <trkpt lat="43.51881" lon="6.36269">
        <ele>305</ele>
        <time>2021-11-24T14:39:57.000Z</time>
      </trkpt>
      <trkpt lat="43.51882" lon="6.36269">
        <ele>305</ele>
        <time>2021-11-24T14:39:58.000Z</time>
      </trkpt>
      <trkpt lat="43.51882" lon="6.36269">
        <ele>305</ele>
        <time>2021-11-24T14:39:59.000Z</time>
      </trkpt>
      <trkpt lat="43.51883" lon="6.36269">
        <ele>305</ele>
        <time>2021-11-24T14:40:00.000Z</time>
      </trkpt>
      <trkpt lat="43.51884" lon="6.36269">
        <ele>305</ele>
        <time>2021-11-24T14:40:01.000Z</time>
      </trkpt>
      <trkpt lat="43.51885" lon="6.3627">
        <ele>305</ele>
        <time>2021-11-24T14:40:02.000Z</time>
      </trkpt>
      <trkpt lat="43.51886" lon="6.36271">
        <ele>304</ele>
        <time>2021-11-24T14:40:03.000Z</time>
      </trkpt>
      <trkpt lat="43.51888" lon="6.36273">
        <ele>304</ele>
        <time>2021-11-24T14:40:04.000Z</time>
      </trkpt>
      <trkpt lat="43.51889" lon="6.36276">
        <ele>304</ele>
        <time>2021-11-24T14:40:05.000Z</time>
      </trkpt>
      <trkpt lat="43.5189" lon="6.36278">
        <ele>304</ele>
        <time>2021-11-24T14:40:06.000Z</time>
      </trkpt>
      <trkpt lat="43.51891" lon="6.36279">
        <ele>304</ele>
        <time>2021-11-24T14:40:07.000Z</time>
      </trkpt>
      <trkpt lat="43.51892" lon="6.3628">
        <ele>303</ele>
        <time>2021-11-24T14:40:08.000Z</time>
      </trkpt>
      <trkpt lat="43.51893" lon="6.36282">
        <ele>303</ele>
        <time>2021-11-24T14:40:09.000Z</time>
      </trkpt>
      <trkpt lat="43.51893" lon="6.36283">
        <ele>303</ele>
        <time>2021-11-24T14:40:10.000Z</time>
      </trkpt>
      <trkpt lat="43.51893" lon="6.36283">
        <ele>303</ele>
        <time>2021-11-24T14:40:11.000Z</time>
      </trkpt>
      <trkpt lat="43.51894" lon="6.36284">
        <ele>303</ele>
        <time>2021-11-24T14:40:12.000Z</time>
      </trkpt>
      <trkpt lat="43.51894" lon="6.36284">
        <ele>303</ele>
        <time>2021-11-24T14:40:13.000Z</time>
      </trkpt>
      <trkpt lat="43.51894" lon="6.36284">
        <ele>303</ele>
        <time>2021-11-24T14:40:14.000Z</time>
      </trkpt>
      <trkpt lat="43.51894" lon="6.36285">
        <ele>303</ele>
        <time>2021-11-24T14:40:15.000Z</time>
      </trkpt>
      <trkpt lat="43.51894" lon="6.36285">
        <ele>303</ele>
        <time>2021-11-24T14:40:16.000Z</time>
      </trkpt>
      <trkpt lat="43.51895" lon="6.36286">
        <ele>302</ele>
        <time>2021-11-24T14:40:17.000Z</time>
      </trkpt>
      <trkpt lat="43.51895" lon="6.36288">
        <ele>302</ele>
        <time>2021-11-24T14:40:18.000Z</time>
      </trkpt>
      <trkpt lat="43.51897" lon="6.36291">
        <ele>302</ele>
        <time>2021-11-24T14:40:19.000Z</time>
      </trkpt>
      <trkpt lat="43.51897" lon="6.36293">
        <ele>301</ele>
        <time>2021-11-24T14:40:20.000Z</time>
      </trkpt>
      <trkpt lat="43.51898" lon="6.36295">
        <ele>301</ele>
        <time>2021-11-24T14:40:21.000Z</time>
      </trkpt>
      <trkpt lat="43.51899" lon="6.36296">
        <ele>301</ele>
        <time>2021-11-24T14:40:22.000Z</time>
      </trkpt>
      <trkpt lat="43.51899" lon="6.36298">
        <ele>301</ele>
        <time>2021-11-24T14:40:23.000Z</time>
      </trkpt>
      <trkpt lat="43.51899" lon="6.36299">
        <ele>301</ele>
        <time>2021-11-24T14:40:24.000Z</time>
      </trkpt>
      <trkpt lat="43.519" lon="6.363">
        <ele>301</ele>
        <time>2021-11-24T14:40:25.000Z</time>
      </trkpt>
      <trkpt lat="43.519" lon="6.36303">
        <ele>300</ele>
        <time>2021-11-24T14:40:26.000Z</time>
      </trkpt>
      <trkpt lat="43.519" lon="6.36305">
        <ele>300</ele>
        <time>2021-11-24T14:40:27.000Z</time>
      </trkpt>
      <trkpt lat="43.519" lon="6.36307">
        <ele>300</ele>
        <time>2021-11-24T14:40:28.000Z</time>
      </trkpt>
      <trkpt lat="43.519" lon="6.36309">
        <ele>300</ele>
        <time>2021-11-24T14:40:29.000Z</time>
      </trkpt>
      <trkpt lat="43.519" lon="6.36311">
        <ele>300</ele>
        <time>2021-11-24T14:40:30.000Z</time>
      </trkpt>
      <trkpt lat="43.519" lon="6.36313">
        <ele>300</ele>
        <time>2021-11-24T14:40:31.000Z</time>
      </trkpt>
      <trkpt lat="43.519" lon="6.36316">
        <ele>300</ele>
        <time>2021-11-24T14:40:32.000Z</time>
      </trkpt>
      <trkpt lat="43.519" lon="6.36318">
        <ele>300</ele>
        <time>2021-11-24T14:40:33.000Z</time>
      </trkpt>
      <trkpt lat="43.51901" lon="6.36319">
        <ele>299</ele>
        <time>2021-11-24T14:40:34.000Z</time>
      </trkpt>
      <trkpt lat="43.519" lon="6.36321">
        <ele>299</ele>
        <time>2021-11-24T14:40:35.000Z</time>
      </trkpt>
      <trkpt lat="43.519" lon="6.36323">
        <ele>299</ele>
        <time>2021-11-24T14:40:36.000Z</time>
      </trkpt>
      <trkpt lat="43.51899" lon="6.36324">
        <ele>299</ele>
        <time>2021-11-24T14:40:37.000Z</time>
      </trkpt>
      <trkpt lat="43.51899" lon="6.36325">
        <ele>299</ele>
        <time>2021-11-24T14:40:38.000Z</time>
      </trkpt>
      <trkpt lat="43.51898" lon="6.36327">
        <ele>298</ele>
        <time>2021-11-24T14:40:39.000Z</time>
      </trkpt>
      <trkpt lat="43.51899" lon="6.36328">
        <ele>298</ele>
        <time>2021-11-24T14:40:40.000Z</time>
      </trkpt>
      <trkpt lat="43.51899" lon="6.3633">
        <ele>298</ele>
        <time>2021-11-24T14:40:41.000Z</time>
      </trkpt>
      <trkpt lat="43.51899" lon="6.36331">
        <ele>298</ele>
        <time>2021-11-24T14:40:42.000Z</time>
      </trkpt>
      <trkpt lat="43.51898" lon="6.36332">
        <ele>298</ele>
        <time>2021-11-24T14:40:43.000Z</time>
      </trkpt>
      <trkpt lat="43.51896" lon="6.36333">
        <ele>298</ele>
        <time>2021-11-24T14:40:44.000Z</time>
      </trkpt>
      <trkpt lat="43.51896" lon="6.36336">
        <ele>298</ele>
        <time>2021-11-24T14:40:45.000Z</time>
      </trkpt>
      <trkpt lat="43.51896" lon="6.36338">
        <ele>298</ele>
        <time>2021-11-24T14:40:46.000Z</time>
      </trkpt>
      <trkpt lat="43.51895" lon="6.3634">
        <ele>298</ele>
        <time>2021-11-24T14:40:47.000Z</time>
      </trkpt>
      <trkpt lat="43.51895" lon="6.36341">
        <ele>298</ele>
        <time>2021-11-24T14:40:48.000Z</time>
      </trkpt>
      <trkpt lat="43.51894" lon="6.36343">
        <ele>298</ele>
        <time>2021-11-24T14:40:49.000Z</time>
      </trkpt>
      <trkpt lat="43.51893" lon="6.36344">
        <ele>298</ele>
        <time>2021-11-24T14:40:50.000Z</time>
      </trkpt>
      <trkpt lat="43.51892" lon="6.36346">
        <ele>298</ele>
        <time>2021-11-24T14:40:51.000Z</time>
      </trkpt>
      <trkpt lat="43.51891" lon="6.36348">
        <ele>297</ele>
        <time>2021-11-24T14:40:52.000Z</time>
      </trkpt>
      <trkpt lat="43.5189" lon="6.36349">
        <ele>297</ele>
        <time>2021-11-24T14:40:53.000Z</time>
      </trkpt>
      <trkpt lat="43.51889" lon="6.36351">
        <ele>297</ele>
        <time>2021-11-24T14:40:54.000Z</time>
      </trkpt>
      <trkpt lat="43.51887" lon="6.36352">
        <ele>296</ele>
        <time>2021-11-24T14:40:55.000Z</time>
      </trkpt>
      <trkpt lat="43.51886" lon="6.36353">
        <ele>296</ele>
        <time>2021-11-24T14:40:56.000Z</time>
      </trkpt>
      <trkpt lat="43.51885" lon="6.36354">
        <ele>296</ele>
        <time>2021-11-24T14:40:57.000Z</time>
      </trkpt>
      <trkpt lat="43.51884" lon="6.36354">
        <ele>296</ele>
        <time>2021-11-24T14:40:58.000Z</time>
      </trkpt>
      <trkpt lat="43.51883" lon="6.36355">
        <ele>296</ele>
        <time>2021-11-24T14:40:59.000Z</time>
      </trkpt>
      <trkpt lat="43.51882" lon="6.36356">
        <ele>295</ele>
        <time>2021-11-24T14:41:00.000Z</time>
      </trkpt>
      <trkpt lat="43.51881" lon="6.36357">
        <ele>294</ele>
        <time>2021-11-24T14:41:01.000Z</time>
      </trkpt>
      <trkpt lat="43.5188" lon="6.36358">
        <ele>294</ele>
        <time>2021-11-24T14:41:02.000Z</time>
      </trkpt>
      <trkpt lat="43.51879" lon="6.36358">
        <ele>294</ele>
        <time>2021-11-24T14:41:03.000Z</time>
      </trkpt>
      <trkpt lat="43.51878" lon="6.36359">
        <ele>293</ele>
        <time>2021-11-24T14:41:04.000Z</time>
      </trkpt>
      <trkpt lat="43.51877" lon="6.36359">
        <ele>293</ele>
        <time>2021-11-24T14:41:05.000Z</time>
      </trkpt>
      <trkpt lat="43.51876" lon="6.3636">
        <ele>293</ele>
        <time>2021-11-24T14:41:06.000Z</time>
      </trkpt>
      <trkpt lat="43.51875" lon="6.3636">
        <ele>293</ele>
        <time>2021-11-24T14:41:07.000Z</time>
      </trkpt>
      <trkpt lat="43.51874" lon="6.36361">
        <ele>292</ele>
        <time>2021-11-24T14:41:08.000Z</time>
      </trkpt>
      <trkpt lat="43.51873" lon="6.36362">
        <ele>292</ele>
        <time>2021-11-24T14:41:09.000Z</time>
      </trkpt>
      <trkpt lat="43.51871" lon="6.36362">
        <ele>292</ele>
        <time>2021-11-24T14:41:10.000Z</time>
      </trkpt>
      <trkpt lat="43.5187" lon="6.36363">
        <ele>292</ele>
        <time>2021-11-24T14:41:11.000Z</time>
      </trkpt>
      <trkpt lat="43.51869" lon="6.36364">
        <ele>292</ele>
        <time>2021-11-24T14:41:12.000Z</time>
      </trkpt>
      <trkpt lat="43.51868" lon="6.36365">
        <ele>292</ele>
        <time>2021-11-24T14:41:13.000Z</time>
      </trkpt>
      <trkpt lat="43.51867" lon="6.36366">
        <ele>292</ele>
        <time>2021-11-24T14:41:14.000Z</time>
      </trkpt>
      <trkpt lat="43.51867" lon="6.36366">
        <ele>292</ele>
        <time>2021-11-24T14:41:15.000Z</time>
      </trkpt>
      <trkpt lat="43.51866" lon="6.36368">
        <ele>292</ele>
        <time>2021-11-24T14:41:16.000Z</time>
      </trkpt>
      <trkpt lat="43.51865" lon="6.36369">
        <ele>292</ele>
        <time>2021-11-24T14:41:17.000Z</time>
      </trkpt>
      <trkpt lat="43.51863" lon="6.3637">
        <ele>292</ele>
        <time>2021-11-24T14:41:18.000Z</time>
      </trkpt>
      <trkpt lat="43.51862" lon="6.36371">
        <ele>292</ele>
        <time>2021-11-24T14:41:19.000Z</time>
      </trkpt>
      <trkpt lat="43.51861" lon="6.36373">
        <ele>292</ele>
        <time>2021-11-24T14:41:20.000Z</time>
      </trkpt>
      <trkpt lat="43.5186" lon="6.36374">
        <ele>292</ele>
        <time>2021-11-24T14:41:21.000Z</time>
      </trkpt>
      <trkpt lat="43.5186" lon="6.36375">
        <ele>292</ele>
        <time>2021-11-24T14:41:22.000Z</time>
      </trkpt>
      <trkpt lat="43.51859" lon="6.36376">
        <ele>291</ele>
        <time>2021-11-24T14:41:23.000Z</time>
      </trkpt>
      <trkpt lat="43.51858" lon="6.36378">
        <ele>291</ele>
        <time>2021-11-24T14:41:24.000Z</time>
      </trkpt>
      <trkpt lat="43.51857" lon="6.36379">
        <ele>291</ele>
        <time>2021-11-24T14:41:25.000Z</time>
      </trkpt>
      <trkpt lat="43.51856" lon="6.3638">
        <ele>291</ele>
        <time>2021-11-24T14:41:26.000Z</time>
      </trkpt>
      <trkpt lat="43.51855" lon="6.36381">
        <ele>290</ele>
        <time>2021-11-24T14:41:27.000Z</time>
      </trkpt>
      <trkpt lat="43.51855" lon="6.36382">
        <ele>290</ele>
        <time>2021-11-24T14:41:28.000Z</time>
      </trkpt>
      <trkpt lat="43.51854" lon="6.36384">
        <ele>290</ele>
        <time>2021-11-24T14:41:29.000Z</time>
      </trkpt>
      <trkpt lat="43.51853" lon="6.36385">
        <ele>290</ele>
        <time>2021-11-24T14:41:30.000Z</time>
      </trkpt>
      <trkpt lat="43.51852" lon="6.36386">
        <ele>289</ele>
        <time>2021-11-24T14:41:31.000Z</time>
      </trkpt>
      <trkpt lat="43.51851" lon="6.36387">
        <ele>289</ele>
        <time>2021-11-24T14:41:32.000Z</time>
      </trkpt>
      <trkpt lat="43.5185" lon="6.36388">
        <ele>289</ele>
        <time>2021-11-24T14:41:33.000Z</time>
      </trkpt>
      <trkpt lat="43.5185" lon="6.36389">
        <ele>289</ele>
        <time>2021-11-24T14:41:34.000Z</time>
      </trkpt>
      <trkpt lat="43.51849" lon="6.36391">
        <ele>289</ele>
        <time>2021-11-24T14:41:35.000Z</time>
      </trkpt>
      <trkpt lat="43.51848" lon="6.36392">
        <ele>289</ele>
        <time>2021-11-24T14:41:36.000Z</time>
      </trkpt>
      <trkpt lat="43.51847" lon="6.36393">
        <ele>289</ele>
        <time>2021-11-24T14:41:37.000Z</time>
      </trkpt>
      <trkpt lat="43.51847" lon="6.36394">
        <ele>289</ele>
        <time>2021-11-24T14:41:38.000Z</time>
      </trkpt>
      <trkpt lat="43.51846" lon="6.36394">
        <ele>288</ele>
        <time>2021-11-24T14:41:39.000Z</time>
      </trkpt>
      <trkpt lat="43.51845" lon="6.36395">
        <ele>288</ele>
        <time>2021-11-24T14:41:40.000Z</time>
      </trkpt>
      <trkpt lat="43.51844" lon="6.36396">
        <ele>288</ele>
        <time>2021-11-24T14:41:41.000Z</time>
      </trkpt>
      <trkpt lat="43.51843" lon="6.36396">
        <ele>288</ele>
        <time>2021-11-24T14:41:42.000Z</time>
      </trkpt>
      <trkpt lat="43.51842" lon="6.36397">
        <ele>288</ele>
        <time>2021-11-24T14:41:43.000Z</time>
      </trkpt>
      <trkpt lat="43.51841" lon="6.36397">
        <ele>288</ele>
        <time>2021-11-24T14:41:44.000Z</time>
      </trkpt>
      <trkpt lat="43.5184" lon="6.36397">
        <ele>288</ele>
        <time>2021-11-24T14:41:45.000Z</time>
      </trkpt>
      <trkpt lat="43.5184" lon="6.36398">
        <ele>288</ele>
        <time>2021-11-24T14:41:46.000Z</time>
      </trkpt>
      <trkpt lat="43.51839" lon="6.36398">
        <ele>288</ele>
        <time>2021-11-24T14:41:47.000Z</time>
      </trkpt>
      <trkpt lat="43.51838" lon="6.36398">
        <ele>288</ele>
        <time>2021-11-24T14:41:48.000Z</time>
      </trkpt>
      <trkpt lat="43.51837" lon="6.36398">
        <ele>287</ele>
        <time>2021-11-24T14:41:49.000Z</time>
      </trkpt>
      <trkpt lat="43.51836" lon="6.36398">
        <ele>287</ele>
        <time>2021-11-24T14:41:50.000Z</time>
      </trkpt>
      <trkpt lat="43.51835" lon="6.36398">
        <ele>287</ele>
        <time>2021-11-24T14:41:51.000Z</time>
      </trkpt>
      <trkpt lat="43.51834" lon="6.36399">
        <ele>287</ele>
        <time>2021-11-24T14:41:52.000Z</time>
      </trkpt>
      <trkpt lat="43.51834" lon="6.36399">
        <ele>287</ele>
        <time>2021-11-24T14:41:53.000Z</time>
      </trkpt>
      <trkpt lat="43.51833" lon="6.36398">
        <ele>287</ele>
        <time>2021-11-24T14:41:54.000Z</time>
      </trkpt>
      <trkpt lat="43.51832" lon="6.36398">
        <ele>287</ele>
        <time>2021-11-24T14:41:55.000Z</time>
      </trkpt>
      <trkpt lat="43.51831" lon="6.36399">
        <ele>287</ele>
        <time>2021-11-24T14:41:56.000Z</time>
      </trkpt>
      <trkpt lat="43.51831" lon="6.36399">
        <ele>287</ele>
        <time>2021-11-24T14:41:57.000Z</time>
      </trkpt>
      <trkpt lat="43.5183" lon="6.36399">
        <ele>287</ele>
        <time>2021-11-24T14:41:58.000Z</time>
      </trkpt>
      <trkpt lat="43.51829" lon="6.36399">
        <ele>287</ele>
        <time>2021-11-24T14:41:59.000Z</time>
      </trkpt>
      <trkpt lat="43.51828" lon="6.36401">
        <ele>287</ele>
        <time>2021-11-24T14:42:00.000Z</time>
      </trkpt>
      <trkpt lat="43.51828" lon="6.36401">
        <ele>287</ele>
        <time>2021-11-24T14:42:01.000Z</time>
      </trkpt>
      <trkpt lat="43.51827" lon="6.36402">
        <ele>287</ele>
        <time>2021-11-24T14:42:02.000Z</time>
      </trkpt>
      <trkpt lat="43.51827" lon="6.36402">
        <ele>287</ele>
        <time>2021-11-24T14:42:03.000Z</time>
      </trkpt>
      <trkpt lat="43.51826" lon="6.36402">
        <ele>287</ele>
        <time>2021-11-24T14:42:04.000Z</time>
      </trkpt>
      <trkpt lat="43.51825" lon="6.36401">
        <ele>288</ele>
        <time>2021-11-24T14:42:05.000Z</time>
      </trkpt>
      <trkpt lat="43.51824" lon="6.36401">
        <ele>288</ele>
        <time>2021-11-24T14:42:06.000Z</time>
      </trkpt>
      <trkpt lat="43.51823" lon="6.36401">
        <ele>288</ele>
        <time>2021-11-24T14:42:07.000Z</time>
      </trkpt>
      <trkpt lat="43.51822" lon="6.36401">
        <ele>288</ele>
        <time>2021-11-24T14:42:08.000Z</time>
      </trkpt>
      <trkpt lat="43.5182" lon="6.36401">
        <ele>288</ele>
        <time>2021-11-24T14:42:09.000Z</time>
      </trkpt>
      <trkpt lat="43.51819" lon="6.36401">
        <ele>288</ele>
        <time>2021-11-24T14:42:10.000Z</time>
      </trkpt>
      <trkpt lat="43.51818" lon="6.36402">
        <ele>288</ele>
        <time>2021-11-24T14:42:11.000Z</time>
      </trkpt>
      <trkpt lat="43.51816" lon="6.36402">
        <ele>289</ele>
        <time>2021-11-24T14:42:12.000Z</time>
      </trkpt>
      <trkpt lat="43.51815" lon="6.36402">
        <ele>289</ele>
        <time>2021-11-24T14:42:13.000Z</time>
      </trkpt>
      <trkpt lat="43.51814" lon="6.36402">
        <ele>289</ele>
        <time>2021-11-24T14:42:14.000Z</time>
      </trkpt>
      <trkpt lat="43.51812" lon="6.36402">
        <ele>289</ele>
        <time>2021-11-24T14:42:15.000Z</time>
      </trkpt>
      <trkpt lat="43.51811" lon="6.36402">
        <ele>289</ele>
        <time>2021-11-24T14:42:16.000Z</time>
      </trkpt>
      <trkpt lat="43.5181" lon="6.36403">
        <ele>289</ele>
        <time>2021-11-24T14:42:17.000Z</time>
      </trkpt>
      <trkpt lat="43.51809" lon="6.36403">
        <ele>289</ele>
        <time>2021-11-24T14:42:18.000Z</time>
      </trkpt>
      <trkpt lat="43.51808" lon="6.36403">
        <ele>289</ele>
        <time>2021-11-24T14:42:19.000Z</time>
      </trkpt>
      <trkpt lat="43.51807" lon="6.36404">
        <ele>288</ele>
        <time>2021-11-24T14:42:20.000Z</time>
      </trkpt>
      <trkpt lat="43.51806" lon="6.36405">
        <ele>288</ele>
        <time>2021-11-24T14:42:21.000Z</time>
      </trkpt>
      <trkpt lat="43.51805" lon="6.36405">
        <ele>288</ele>
        <time>2021-11-24T14:42:22.000Z</time>
      </trkpt>
      <trkpt lat="43.51804" lon="6.36406">
        <ele>288</ele>
        <time>2021-11-24T14:42:23.000Z</time>
      </trkpt>
      <trkpt lat="43.51803" lon="6.36406">
        <ele>288</ele>
        <time>2021-11-24T14:42:24.000Z</time>
      </trkpt>
      <trkpt lat="43.51802" lon="6.36406">
        <ele>288</ele>
        <time>2021-11-24T14:42:25.000Z</time>
      </trkpt>
      <trkpt lat="43.51802" lon="6.36407">
        <ele>287</ele>
        <time>2021-11-24T14:42:26.000Z</time>
      </trkpt>
      <trkpt lat="43.51801" lon="6.36408">
        <ele>287</ele>
        <time>2021-11-24T14:42:27.000Z</time>
      </trkpt>
      <trkpt lat="43.51801" lon="6.36409">
        <ele>287</ele>
        <time>2021-11-24T14:42:28.000Z</time>
      </trkpt>
      <trkpt lat="43.518" lon="6.36409">
        <ele>287</ele>
        <time>2021-11-24T14:42:29.000Z</time>
      </trkpt>
      <trkpt lat="43.518" lon="6.36409">
        <ele>287</ele>
        <time>2021-11-24T14:42:30.000Z</time>
      </trkpt>
      <trkpt lat="43.51799" lon="6.36408">
        <ele>287</ele>
        <time>2021-11-24T14:42:31.000Z</time>
      </trkpt>
      <trkpt lat="43.51799" lon="6.36409">
        <ele>287</ele>
        <time>2021-11-24T14:42:32.000Z</time>
      </trkpt>
      <trkpt lat="43.51799" lon="6.36409">
        <ele>287</ele>
        <time>2021-11-24T14:42:33.000Z</time>
      </trkpt>
      <trkpt lat="43.51799" lon="6.3641">
        <ele>287</ele>
        <time>2021-11-24T14:42:34.000Z</time>
      </trkpt>
      <trkpt lat="43.51799" lon="6.36411">
        <ele>287</ele>
        <time>2021-11-24T14:42:35.000Z</time>
      </trkpt>
      <trkpt lat="43.51799" lon="6.36411">
        <ele>287</ele>
        <time>2021-11-24T14:42:36.000Z</time>
      </trkpt>
      <trkpt lat="43.518" lon="6.36412">
        <ele>287</ele>
        <time>2021-11-24T14:42:37.000Z</time>
      </trkpt>
      <trkpt lat="43.518" lon="6.36412">
        <ele>287</ele>
        <time>2021-11-24T14:42:38.000Z</time>
      </trkpt>
      <trkpt lat="43.518" lon="6.36412">
        <ele>287</ele>
        <time>2021-11-24T14:42:39.000Z</time>
      </trkpt>
      <trkpt lat="43.518" lon="6.36412">
        <ele>287</ele>
        <time>2021-11-24T14:42:40.000Z</time>
      </trkpt>
      <trkpt lat="43.518" lon="6.36412">
        <ele>287</ele>
        <time>2021-11-24T14:42:41.000Z</time>
      </trkpt>
      <trkpt lat="43.518" lon="6.36412">
        <ele>287</ele>
        <time>2021-11-24T14:42:42.000Z</time>
      </trkpt>
      <trkpt lat="43.518" lon="6.36412">
        <ele>287</ele>
        <time>2021-11-24T14:42:43.000Z</time>
      </trkpt>
      <trkpt lat="43.51801" lon="6.36412">
        <ele>287</ele>
        <time>2021-11-24T14:42:44.000Z</time>
      </trkpt>
      <trkpt lat="43.51801" lon="6.36412">
        <ele>287</ele>
        <time>2021-11-24T14:42:45.000Z</time>
      </trkpt>
      <trkpt lat="43.51801" lon="6.36412">
        <ele>287</ele>
        <time>2021-11-24T14:42:46.000Z</time>
      </trkpt>
      <trkpt lat="43.51801" lon="6.36413">
        <ele>287</ele>
        <time>2021-11-24T14:42:47.000Z</time>
      </trkpt>
      <trkpt lat="43.51801" lon="6.36413">
        <ele>287</ele>
        <time>2021-11-24T14:42:48.000Z</time>
      </trkpt>
      <trkpt lat="43.51802" lon="6.36414">
        <ele>287</ele>
        <time>2021-11-24T14:42:49.000Z</time>
      </trkpt>
      <trkpt lat="43.51802" lon="6.36414">
        <ele>287</ele>
        <time>2021-11-24T14:42:50.000Z</time>
      </trkpt>
      <trkpt lat="43.51803" lon="6.36415">
        <ele>287</ele>
        <time>2021-11-24T14:42:51.000Z</time>
      </trkpt>
      <trkpt lat="43.51803" lon="6.36416">
        <ele>287</ele>
        <time>2021-11-24T14:42:52.000Z</time>
      </trkpt>
      <trkpt lat="43.51804" lon="6.36417">
        <ele>287</ele>
        <time>2021-11-24T14:42:53.000Z</time>
      </trkpt>
      <trkpt lat="43.51805" lon="6.36418">
        <ele>287</ele>
        <time>2021-11-24T14:42:54.000Z</time>
      </trkpt>
      <trkpt lat="43.51806" lon="6.36419">
        <ele>287</ele>
        <time>2021-11-24T14:42:55.000Z</time>
      </trkpt>
      <trkpt lat="43.51806" lon="6.3642">
        <ele>287</ele>
        <time>2021-11-24T14:42:56.000Z</time>
      </trkpt>
      <trkpt lat="43.51807" lon="6.36421">
        <ele>287</ele>
        <time>2021-11-24T14:42:57.000Z</time>
      </trkpt>
      <trkpt lat="43.51808" lon="6.36423">
        <ele>287</ele>
        <time>2021-11-24T14:42:58.000Z</time>
      </trkpt>
      <trkpt lat="43.51809" lon="6.36424">
        <ele>287</ele>
        <time>2021-11-24T14:42:59.000Z</time>
      </trkpt>
      <trkpt lat="43.5181" lon="6.36425">
        <ele>287</ele>
        <time>2021-11-24T14:43:00.000Z</time>
      </trkpt>
      <trkpt lat="43.51811" lon="6.36427">
        <ele>287</ele>
        <time>2021-11-24T14:43:01.000Z</time>
      </trkpt>
      <trkpt lat="43.5181" lon="6.36428">
        <ele>287</ele>
        <time>2021-11-24T14:43:02.000Z</time>
      </trkpt>
      <trkpt lat="43.51809" lon="6.36429">
        <ele>287</ele>
        <time>2021-11-24T14:43:03.000Z</time>
      </trkpt>
      <trkpt lat="43.51809" lon="6.3643">
        <ele>287</ele>
        <time>2021-11-24T14:43:04.000Z</time>
      </trkpt>
      <trkpt lat="43.51808" lon="6.3643">
        <ele>287</ele>
        <time>2021-11-24T14:43:05.000Z</time>
      </trkpt>
      <trkpt lat="43.51808" lon="6.36431">
        <ele>287</ele>
        <time>2021-11-24T14:43:06.000Z</time>
      </trkpt>
      <trkpt lat="43.51808" lon="6.36431">
        <ele>287</ele>
        <time>2021-11-24T14:43:07.000Z</time>
      </trkpt>
      <trkpt lat="43.51809" lon="6.36432">
        <ele>287</ele>
        <time>2021-11-24T14:43:08.000Z</time>
      </trkpt>
      <trkpt lat="43.5181" lon="6.36432">
        <ele>287</ele>
        <time>2021-11-24T14:43:09.000Z</time>
      </trkpt>
      <trkpt lat="43.51811" lon="6.36433">
        <ele>287</ele>
        <time>2021-11-24T14:43:10.000Z</time>
      </trkpt>
      <trkpt lat="43.51813" lon="6.36433">
        <ele>287</ele>
        <time>2021-11-24T14:43:11.000Z</time>
      </trkpt>
      <trkpt lat="43.51814" lon="6.36434">
        <ele>286</ele>
        <time>2021-11-24T14:43:12.000Z</time>
      </trkpt>
      <trkpt lat="43.51815" lon="6.36435">
        <ele>286</ele>
        <time>2021-11-24T14:43:13.000Z</time>
      </trkpt>
      <trkpt lat="43.51816" lon="6.36436">
        <ele>286</ele>
        <time>2021-11-24T14:43:14.000Z</time>
      </trkpt>
      <trkpt lat="43.51817" lon="6.36436">
        <ele>286</ele>
        <time>2021-11-24T14:43:15.000Z</time>
      </trkpt>
      <trkpt lat="43.51818" lon="6.36437">
        <ele>286</ele>
        <time>2021-11-24T14:43:16.000Z</time>
      </trkpt>
      <trkpt lat="43.51819" lon="6.36438">
        <ele>286</ele>
        <time>2021-11-24T14:43:17.000Z</time>
      </trkpt>
      <trkpt lat="43.51821" lon="6.36439">
        <ele>286</ele>
        <time>2021-11-24T14:43:18.000Z</time>
      </trkpt>
      <trkpt lat="43.51821" lon="6.3644">
        <ele>286</ele>
        <time>2021-11-24T14:43:19.000Z</time>
      </trkpt>
      <trkpt lat="43.51823" lon="6.3644">
        <ele>286</ele>
        <time>2021-11-24T14:43:20.000Z</time>
      </trkpt>
      <trkpt lat="43.51824" lon="6.36441">
        <ele>286</ele>
        <time>2021-11-24T14:43:21.000Z</time>
      </trkpt>
      <trkpt lat="43.51825" lon="6.36442">
        <ele>286</ele>
        <time>2021-11-24T14:43:22.000Z</time>
      </trkpt>
      <trkpt lat="43.51826" lon="6.36442">
        <ele>286</ele>
        <time>2021-11-24T14:43:23.000Z</time>
      </trkpt>
      <trkpt lat="43.51827" lon="6.36442">
        <ele>286</ele>
        <time>2021-11-24T14:43:24.000Z</time>
      </trkpt>
      <trkpt lat="43.51829" lon="6.36442">
        <ele>286</ele>
        <time>2021-11-24T14:43:25.000Z</time>
      </trkpt>
      <trkpt lat="43.5183" lon="6.36441">
        <ele>286</ele>
        <time>2021-11-24T14:43:26.000Z</time>
      </trkpt>
      <trkpt lat="43.51832" lon="6.36441">
        <ele>286</ele>
        <time>2021-11-24T14:43:27.000Z</time>
      </trkpt>
      <trkpt lat="43.51833" lon="6.36442">
        <ele>286</ele>
        <time>2021-11-24T14:43:28.000Z</time>
      </trkpt>
      <trkpt lat="43.51834" lon="6.36443">
        <ele>286</ele>
        <time>2021-11-24T14:43:29.000Z</time>
      </trkpt>
      <trkpt lat="43.51835" lon="6.36444">
        <ele>286</ele>
        <time>2021-11-24T14:43:30.000Z</time>
      </trkpt>
      <trkpt lat="43.51836" lon="6.36445">
        <ele>286</ele>
        <time>2021-11-24T14:43:31.000Z</time>
      </trkpt>
      <trkpt lat="43.51837" lon="6.36446">
        <ele>286</ele>
        <time>2021-11-24T14:43:32.000Z</time>
      </trkpt>
      <trkpt lat="43.51839" lon="6.36447">
        <ele>286</ele>
        <time>2021-11-24T14:43:33.000Z</time>
      </trkpt>
      <trkpt lat="43.5184" lon="6.36447">
        <ele>286</ele>
        <time>2021-11-24T14:43:34.000Z</time>
      </trkpt>
      <trkpt lat="43.51841" lon="6.36448">
        <ele>286</ele>
        <time>2021-11-24T14:43:35.000Z</time>
      </trkpt>
      <trkpt lat="43.51842" lon="6.36448">
        <ele>286</ele>
        <time>2021-11-24T14:43:36.000Z</time>
      </trkpt>
      <trkpt lat="43.51843" lon="6.36449">
        <ele>286</ele>
        <time>2021-11-24T14:43:37.000Z</time>
      </trkpt>
      <trkpt lat="43.51844" lon="6.3645">
        <ele>286</ele>
        <time>2021-11-24T14:43:38.000Z</time>
      </trkpt>
      <trkpt lat="43.51845" lon="6.3645">
        <ele>286</ele>
        <time>2021-11-24T14:43:39.000Z</time>
      </trkpt>
      <trkpt lat="43.51846" lon="6.36451">
        <ele>285</ele>
        <time>2021-11-24T14:43:40.000Z</time>
      </trkpt>
      <trkpt lat="43.51847" lon="6.36452">
        <ele>285</ele>
        <time>2021-11-24T14:43:41.000Z</time>
      </trkpt>
      <trkpt lat="43.51848" lon="6.36453">
        <ele>285</ele>
        <time>2021-11-24T14:43:42.000Z</time>
      </trkpt>
      <trkpt lat="43.5185" lon="6.36453">
        <ele>285</ele>
        <time>2021-11-24T14:43:43.000Z</time>
      </trkpt>
      <trkpt lat="43.51851" lon="6.36454">
        <ele>285</ele>
        <time>2021-11-24T14:43:44.000Z</time>
      </trkpt>
      <trkpt lat="43.51852" lon="6.36454">
        <ele>285</ele>
        <time>2021-11-24T14:43:45.000Z</time>
      </trkpt>
      <trkpt lat="43.51853" lon="6.36454">
        <ele>285</ele>
        <time>2021-11-24T14:43:46.000Z</time>
      </trkpt>
      <trkpt lat="43.51854" lon="6.36455">
        <ele>285</ele>
        <time>2021-11-24T14:43:47.000Z</time>
      </trkpt>
      <trkpt lat="43.51856" lon="6.36455">
        <ele>285</ele>
        <time>2021-11-24T14:43:48.000Z</time>
      </trkpt>
      <trkpt lat="43.51857" lon="6.36456">
        <ele>285</ele>
        <time>2021-11-24T14:43:49.000Z</time>
      </trkpt>
      <trkpt lat="43.51858" lon="6.36457">
        <ele>285</ele>
        <time>2021-11-24T14:43:50.000Z</time>
      </trkpt>
      <trkpt lat="43.51859" lon="6.36457">
        <ele>285</ele>
        <time>2021-11-24T14:43:51.000Z</time>
      </trkpt>
      <trkpt lat="43.5186" lon="6.36458">
        <ele>285</ele>
        <time>2021-11-24T14:43:52.000Z</time>
      </trkpt>
      <trkpt lat="43.51861" lon="6.36459">
        <ele>285</ele>
        <time>2021-11-24T14:43:53.000Z</time>
      </trkpt>
      <trkpt lat="43.51862" lon="6.3646">
        <ele>285</ele>
        <time>2021-11-24T14:43:54.000Z</time>
      </trkpt>
      <trkpt lat="43.51863" lon="6.36461">
        <ele>285</ele>
        <time>2021-11-24T14:43:55.000Z</time>
      </trkpt>
      <trkpt lat="43.51864" lon="6.36462">
        <ele>285</ele>
        <time>2021-11-24T14:43:56.000Z</time>
      </trkpt>
      <trkpt lat="43.51866" lon="6.36463">
        <ele>285</ele>
        <time>2021-11-24T14:43:57.000Z</time>
      </trkpt>
      <trkpt lat="43.51867" lon="6.36463">
        <ele>285</ele>
        <time>2021-11-24T14:43:58.000Z</time>
      </trkpt>
      <trkpt lat="43.51869" lon="6.36464">
        <ele>285</ele>
        <time>2021-11-24T14:43:59.000Z</time>
      </trkpt>
      <trkpt lat="43.51871" lon="6.36465">
        <ele>285</ele>
        <time>2021-11-24T14:44:00.000Z</time>
      </trkpt>
      <trkpt lat="43.51872" lon="6.36465">
        <ele>285</ele>
        <time>2021-11-24T14:44:01.000Z</time>
      </trkpt>
      <trkpt lat="43.51873" lon="6.36466">
        <ele>285</ele>
        <time>2021-11-24T14:44:02.000Z</time>
      </trkpt>
      <trkpt lat="43.51874" lon="6.36467">
        <ele>285</ele>
        <time>2021-11-24T14:44:03.000Z</time>
      </trkpt>
      <trkpt lat="43.51875" lon="6.36469">
        <ele>285</ele>
        <time>2021-11-24T14:44:04.000Z</time>
      </trkpt>
      <trkpt lat="43.51876" lon="6.3647">
        <ele>285</ele>
        <time>2021-11-24T14:44:05.000Z</time>
      </trkpt>
      <trkpt lat="43.51876" lon="6.3647">
        <ele>284</ele>
        <time>2021-11-24T14:44:06.000Z</time>
      </trkpt>
      <trkpt lat="43.51877" lon="6.36471">
        <ele>284</ele>
        <time>2021-11-24T14:44:07.000Z</time>
      </trkpt>
      <trkpt lat="43.51878" lon="6.36471">
        <ele>284</ele>
        <time>2021-11-24T14:44:08.000Z</time>
      </trkpt>
      <trkpt lat="43.51878" lon="6.36472">
        <ele>284</ele>
        <time>2021-11-24T14:44:09.000Z</time>
      </trkpt>
      <trkpt lat="43.51878" lon="6.36472">
        <ele>284</ele>
        <time>2021-11-24T14:44:10.000Z</time>
      </trkpt>
      <trkpt lat="43.51879" lon="6.36472">
        <ele>284</ele>
        <time>2021-11-24T14:44:11.000Z</time>
      </trkpt>
      <trkpt lat="43.51879" lon="6.36472">
        <ele>284</ele>
        <time>2021-11-24T14:44:12.000Z</time>
      </trkpt>
      <trkpt lat="43.5188" lon="6.36472">
        <ele>284</ele>
        <time>2021-11-24T14:44:13.000Z</time>
      </trkpt>
      <trkpt lat="43.51881" lon="6.36472">
        <ele>284</ele>
        <time>2021-11-24T14:44:14.000Z</time>
      </trkpt>
      <trkpt lat="43.51881" lon="6.36473">
        <ele>284</ele>
        <time>2021-11-24T14:44:15.000Z</time>
      </trkpt>
      <trkpt lat="43.51881" lon="6.36474">
        <ele>283</ele>
        <time>2021-11-24T14:44:16.000Z</time>
      </trkpt>
      <trkpt lat="43.51882" lon="6.36474">
        <ele>283</ele>
        <time>2021-11-24T14:44:17.000Z</time>
      </trkpt>
      <trkpt lat="43.51883" lon="6.36475">
        <ele>283</ele>
        <time>2021-11-24T14:44:18.000Z</time>
      </trkpt>
      <trkpt lat="43.51883" lon="6.36476">
        <ele>283</ele>
        <time>2021-11-24T14:44:19.000Z</time>
      </trkpt>
      <trkpt lat="43.51884" lon="6.36477">
        <ele>283</ele>
        <time>2021-11-24T14:44:20.000Z</time>
      </trkpt>
      <trkpt lat="43.51884" lon="6.36477">
        <ele>283</ele>
        <time>2021-11-24T14:44:21.000Z</time>
      </trkpt>
      <trkpt lat="43.51885" lon="6.36479">
        <ele>283</ele>
        <time>2021-11-24T14:44:22.000Z</time>
      </trkpt>
      <trkpt lat="43.51885" lon="6.3648">
        <ele>283</ele>
        <time>2021-11-24T14:44:23.000Z</time>
      </trkpt>
      <trkpt lat="43.51885" lon="6.36481">
        <ele>283</ele>
        <time>2021-11-24T14:44:24.000Z</time>
      </trkpt>
      <trkpt lat="43.51885" lon="6.36482">
        <ele>283</ele>
        <time>2021-11-24T14:44:25.000Z</time>
      </trkpt>
      <trkpt lat="43.51885" lon="6.36483">
        <ele>283</ele>
        <time>2021-11-24T14:44:26.000Z</time>
      </trkpt>
      <trkpt lat="43.51885" lon="6.36485">
        <ele>283</ele>
        <time>2021-11-24T14:44:27.000Z</time>
      </trkpt>
      <trkpt lat="43.51885" lon="6.36486">
        <ele>283</ele>
        <time>2021-11-24T14:44:28.000Z</time>
      </trkpt>
      <trkpt lat="43.51885" lon="6.36487">
        <ele>282</ele>
        <time>2021-11-24T14:44:29.000Z</time>
      </trkpt>
      <trkpt lat="43.51885" lon="6.36489">
        <ele>282</ele>
        <time>2021-11-24T14:44:30.000Z</time>
      </trkpt>
      <trkpt lat="43.51885" lon="6.3649">
        <ele>282</ele>
        <time>2021-11-24T14:44:31.000Z</time>
      </trkpt>
      <trkpt lat="43.51885" lon="6.36491">
        <ele>282</ele>
        <time>2021-11-24T14:44:32.000Z</time>
      </trkpt>
      <trkpt lat="43.51884" lon="6.36491">
        <ele>282</ele>
        <time>2021-11-24T14:44:33.000Z</time>
      </trkpt>
      <trkpt lat="43.51884" lon="6.36492">
        <ele>282</ele>
        <time>2021-11-24T14:44:34.000Z</time>
      </trkpt>
      <trkpt lat="43.51883" lon="6.36493">
        <ele>282</ele>
        <time>2021-11-24T14:44:35.000Z</time>
      </trkpt>
      <trkpt lat="43.51883" lon="6.36493">
        <ele>282</ele>
        <time>2021-11-24T14:44:36.000Z</time>
      </trkpt>
      <trkpt lat="43.51882" lon="6.36493">
        <ele>282</ele>
        <time>2021-11-24T14:44:37.000Z</time>
      </trkpt>
      <trkpt lat="43.51881" lon="6.36493">
        <ele>282</ele>
        <time>2021-11-24T14:44:38.000Z</time>
      </trkpt>
      <trkpt lat="43.5188" lon="6.36493">
        <ele>282</ele>
        <time>2021-11-24T14:44:39.000Z</time>
      </trkpt>
      <trkpt lat="43.51879" lon="6.36493">
        <ele>282</ele>
        <time>2021-11-24T14:44:40.000Z</time>
      </trkpt>
      <trkpt lat="43.51878" lon="6.36493">
        <ele>282</ele>
        <time>2021-11-24T14:44:41.000Z</time>
      </trkpt>
      <trkpt lat="43.51877" lon="6.36493">
        <ele>281</ele>
        <time>2021-11-24T14:44:42.000Z</time>
      </trkpt>
      <trkpt lat="43.51876" lon="6.36493">
        <ele>281</ele>
        <time>2021-11-24T14:44:43.000Z</time>
      </trkpt>
      <trkpt lat="43.51876" lon="6.36493">
        <ele>281</ele>
        <time>2021-11-24T14:44:44.000Z</time>
      </trkpt>
      <trkpt lat="43.51875" lon="6.36493">
        <ele>281</ele>
        <time>2021-11-24T14:44:45.000Z</time>
      </trkpt>
      <trkpt lat="43.51874" lon="6.36494">
        <ele>281</ele>
        <time>2021-11-24T14:44:46.000Z</time>
      </trkpt>
      <trkpt lat="43.51874" lon="6.36494">
        <ele>281</ele>
        <time>2021-11-24T14:44:47.000Z</time>
      </trkpt>
      <trkpt lat="43.51873" lon="6.36495">
        <ele>281</ele>
        <time>2021-11-24T14:44:48.000Z</time>
      </trkpt>
      <trkpt lat="43.51872" lon="6.36496">
        <ele>280</ele>
        <time>2021-11-24T14:44:49.000Z</time>
      </trkpt>
      <trkpt lat="43.51872" lon="6.36496">
        <ele>280</ele>
        <time>2021-11-24T14:44:50.000Z</time>
      </trkpt>
      <trkpt lat="43.51872" lon="6.36497">
        <ele>280</ele>
        <time>2021-11-24T14:44:51.000Z</time>
      </trkpt>
      <trkpt lat="43.51872" lon="6.36498">
        <ele>280</ele>
        <time>2021-11-24T14:44:52.000Z</time>
      </trkpt>
      <trkpt lat="43.51873" lon="6.36499">
        <ele>280</ele>
        <time>2021-11-24T14:44:53.000Z</time>
      </trkpt>
      <trkpt lat="43.51874" lon="6.365">
        <ele>280</ele>
        <time>2021-11-24T14:44:54.000Z</time>
      </trkpt>
      <trkpt lat="43.51875" lon="6.36501">
        <ele>280</ele>
        <time>2021-11-24T14:44:55.000Z</time>
      </trkpt>
      <trkpt lat="43.51876" lon="6.36502">
        <ele>280</ele>
        <time>2021-11-24T14:44:56.000Z</time>
      </trkpt>
      <trkpt lat="43.51876" lon="6.36503">
        <ele>280</ele>
        <time>2021-11-24T14:44:57.000Z</time>
      </trkpt>
      <trkpt lat="43.51877" lon="6.36504">
        <ele>280</ele>
        <time>2021-11-24T14:44:58.000Z</time>
      </trkpt>
      <trkpt lat="43.51878" lon="6.36505">
        <ele>280</ele>
        <time>2021-11-24T14:44:59.000Z</time>
      </trkpt>
      <trkpt lat="43.51878" lon="6.36506">
        <ele>280</ele>
        <time>2021-11-24T14:45:00.000Z</time>
      </trkpt>
      <trkpt lat="43.51878" lon="6.36507">
        <ele>280</ele>
        <time>2021-11-24T14:45:01.000Z</time>
      </trkpt>
      <trkpt lat="43.51879" lon="6.36508">
        <ele>280</ele>
        <time>2021-11-24T14:45:02.000Z</time>
      </trkpt>
      <trkpt lat="43.51879" lon="6.36509">
        <ele>280</ele>
        <time>2021-11-24T14:45:03.000Z</time>
      </trkpt>
      <trkpt lat="43.5188" lon="6.36509">
        <ele>280</ele>
        <time>2021-11-24T14:45:04.000Z</time>
      </trkpt>
      <trkpt lat="43.5188" lon="6.3651">
        <ele>280</ele>
        <time>2021-11-24T14:45:05.000Z</time>
      </trkpt>
      <trkpt lat="43.5188" lon="6.3651">
        <ele>280</ele>
        <time>2021-11-24T14:45:06.000Z</time>
      </trkpt>
      <trkpt lat="43.51881" lon="6.3651">
        <ele>280</ele>
        <time>2021-11-24T14:45:07.000Z</time>
      </trkpt>
      <trkpt lat="43.51881" lon="6.3651">
        <ele>280</ele>
        <time>2021-11-24T14:45:08.000Z</time>
      </trkpt>
      <trkpt lat="43.51881" lon="6.36511">
        <ele>280</ele>
        <time>2021-11-24T14:45:09.000Z</time>
      </trkpt>
      <trkpt lat="43.51881" lon="6.36511">
        <ele>280</ele>
        <time>2021-11-24T14:45:10.000Z</time>
      </trkpt>
      <trkpt lat="43.51881" lon="6.36512">
        <ele>280</ele>
        <time>2021-11-24T14:45:11.000Z</time>
      </trkpt>
      <trkpt lat="43.51881" lon="6.36512">
        <ele>280</ele>
        <time>2021-11-24T14:45:12.000Z</time>
      </trkpt>
      <trkpt lat="43.51881" lon="6.36513">
        <ele>280</ele>
        <time>2021-11-24T14:45:13.000Z</time>
      </trkpt>
      <trkpt lat="43.51882" lon="6.36513">
        <ele>280</ele>
        <time>2021-11-24T14:45:14.000Z</time>
      </trkpt>
      <trkpt lat="43.51882" lon="6.36513">
        <ele>280</ele>
        <time>2021-11-24T14:45:15.000Z</time>
      </trkpt>
      <trkpt lat="43.51881" lon="6.36514">
        <ele>280</ele>
        <time>2021-11-24T14:45:16.000Z</time>
      </trkpt>
      <trkpt lat="43.51881" lon="6.36514">
        <ele>280</ele>
        <time>2021-11-24T14:45:17.000Z</time>
      </trkpt>
      <trkpt lat="43.51882" lon="6.36514">
        <ele>280</ele>
        <time>2021-11-24T14:45:18.000Z</time>
      </trkpt>
      <trkpt lat="43.51882" lon="6.36514">
        <ele>280</ele>
        <time>2021-11-24T14:45:19.000Z</time>
      </trkpt>
      <trkpt lat="43.51882" lon="6.36514">
        <ele>280</ele>
        <time>2021-11-24T14:45:20.000Z</time>
      </trkpt>
      <trkpt lat="43.51882" lon="6.36515">
        <ele>280</ele>
        <time>2021-11-24T14:45:21.000Z</time>
      </trkpt>
      <trkpt lat="43.51883" lon="6.36515">
        <ele>280</ele>
        <time>2021-11-24T14:45:22.000Z</time>
      </trkpt>
      <trkpt lat="43.51883" lon="6.36516">
        <ele>280</ele>
        <time>2021-11-24T14:45:23.000Z</time>
      </trkpt>
      <trkpt lat="43.51882" lon="6.36517">
        <ele>280</ele>
        <time>2021-11-24T14:45:24.000Z</time>
      </trkpt>
      <trkpt lat="43.51882" lon="6.36518">
        <ele>280</ele>
        <time>2021-11-24T14:45:25.000Z</time>
      </trkpt>
      <trkpt lat="43.51882" lon="6.36519">
        <ele>279</ele>
        <time>2021-11-24T14:45:26.000Z</time>
      </trkpt>
      <trkpt lat="43.51882" lon="6.3652">
        <ele>279</ele>
        <time>2021-11-24T14:45:27.000Z</time>
      </trkpt>
      <trkpt lat="43.51882" lon="6.36521">
        <ele>279</ele>
        <time>2021-11-24T14:45:28.000Z</time>
      </trkpt>
      <trkpt lat="43.51881" lon="6.3652">
        <ele>279</ele>
        <time>2021-11-24T14:45:29.000Z</time>
      </trkpt>
      <trkpt lat="43.51881" lon="6.36521">
        <ele>279</ele>
        <time>2021-11-24T14:45:30.000Z</time>
      </trkpt>
      <trkpt lat="43.51882" lon="6.36522">
        <ele>279</ele>
        <time>2021-11-24T14:45:31.000Z</time>
      </trkpt>
      <trkpt lat="43.51882" lon="6.36522">
        <ele>279</ele>
        <time>2021-11-24T14:45:32.000Z</time>
      </trkpt>
      <trkpt lat="43.51883" lon="6.36523">
        <ele>279</ele>
        <time>2021-11-24T14:45:33.000Z</time>
      </trkpt>
      <trkpt lat="43.51883" lon="6.36524">
        <ele>279</ele>
        <time>2021-11-24T14:45:34.000Z</time>
      </trkpt>
      <trkpt lat="43.51884" lon="6.36524">
        <ele>279</ele>
        <time>2021-11-24T14:45:35.000Z</time>
      </trkpt>
      <trkpt lat="43.51884" lon="6.36525">
        <ele>279</ele>
        <time>2021-11-24T14:45:36.000Z</time>
      </trkpt>
      <trkpt lat="43.51884" lon="6.36526">
        <ele>279</ele>
        <time>2021-11-24T14:45:37.000Z</time>
      </trkpt>
      <trkpt lat="43.51885" lon="6.36527">
        <ele>279</ele>
        <time>2021-11-24T14:45:38.000Z</time>
      </trkpt>
      <trkpt lat="43.51886" lon="6.36528">
        <ele>279</ele>
        <time>2021-11-24T14:45:39.000Z</time>
      </trkpt>
      <trkpt lat="43.51887" lon="6.36529">
        <ele>279</ele>
        <time>2021-11-24T14:45:40.000Z</time>
      </trkpt>
      <trkpt lat="43.51888" lon="6.3653">
        <ele>279</ele>
        <time>2021-11-24T14:45:41.000Z</time>
      </trkpt>
      <trkpt lat="43.51889" lon="6.36531">
        <ele>279</ele>
        <time>2021-11-24T14:45:42.000Z</time>
      </trkpt>
      <trkpt lat="43.5189" lon="6.36532">
        <ele>278</ele>
        <time>2021-11-24T14:45:43.000Z</time>
      </trkpt>
      <trkpt lat="43.51891" lon="6.36533">
        <ele>278</ele>
        <time>2021-11-24T14:45:44.000Z</time>
      </trkpt>
      <trkpt lat="43.51893" lon="6.36533">
        <ele>278</ele>
        <time>2021-11-24T14:45:45.000Z</time>
      </trkpt>
      <trkpt lat="43.51894" lon="6.36532">
        <ele>278</ele>
        <time>2021-11-24T14:45:46.000Z</time>
      </trkpt>
      <trkpt lat="43.51895" lon="6.36531">
        <ele>278</ele>
        <time>2021-11-24T14:45:47.000Z</time>
      </trkpt>
      <trkpt lat="43.51896" lon="6.36531">
        <ele>278</ele>
        <time>2021-11-24T14:45:48.000Z</time>
      </trkpt>
      <trkpt lat="43.51897" lon="6.36531">
        <ele>278</ele>
        <time>2021-11-24T14:45:49.000Z</time>
      </trkpt>
      <trkpt lat="43.51899" lon="6.36531">
        <ele>278</ele>
        <time>2021-11-24T14:45:50.000Z</time>
      </trkpt>
      <trkpt lat="43.519" lon="6.36531">
        <ele>278</ele>
        <time>2021-11-24T14:45:51.000Z</time>
      </trkpt>
      <trkpt lat="43.51901" lon="6.36531">
        <ele>278</ele>
        <time>2021-11-24T14:45:52.000Z</time>
      </trkpt>
      <trkpt lat="43.51902" lon="6.36531">
        <ele>277</ele>
        <time>2021-11-24T14:45:53.000Z</time>
      </trkpt>
      <trkpt lat="43.51902" lon="6.36531">
        <ele>277</ele>
        <time>2021-11-24T14:45:54.000Z</time>
      </trkpt>
      <trkpt lat="43.51903" lon="6.36531">
        <ele>277</ele>
        <time>2021-11-24T14:45:55.000Z</time>
      </trkpt>
      <trkpt lat="43.51903" lon="6.36532">
        <ele>277</ele>
        <time>2021-11-24T14:45:56.000Z</time>
      </trkpt>
      <trkpt lat="43.51902" lon="6.36532">
        <ele>277</ele>
        <time>2021-11-24T14:45:57.000Z</time>
      </trkpt>
      <trkpt lat="43.51902" lon="6.36533">
        <ele>277</ele>
        <time>2021-11-24T14:45:58.000Z</time>
      </trkpt>
      <trkpt lat="43.51901" lon="6.36533">
        <ele>277</ele>
        <time>2021-11-24T14:45:59.000Z</time>
      </trkpt>
      <trkpt lat="43.519" lon="6.36533">
        <ele>277</ele>
        <time>2021-11-24T14:46:00.000Z</time>
      </trkpt>
      <trkpt lat="43.519" lon="6.36533">
        <ele>277</ele>
        <time>2021-11-24T14:46:01.000Z</time>
      </trkpt>
      <trkpt lat="43.519" lon="6.36534">
        <ele>277</ele>
        <time>2021-11-24T14:46:02.000Z</time>
      </trkpt>
      <trkpt lat="43.519" lon="6.36535">
        <ele>277</ele>
        <time>2021-11-24T14:46:03.000Z</time>
      </trkpt>
      <trkpt lat="43.51901" lon="6.36536">
        <ele>277</ele>
        <time>2021-11-24T14:46:04.000Z</time>
      </trkpt>
      <trkpt lat="43.51902" lon="6.36536">
        <ele>277</ele>
        <time>2021-11-24T14:46:05.000Z</time>
      </trkpt>
      <trkpt lat="43.51903" lon="6.36537">
        <ele>277</ele>
        <time>2021-11-24T14:46:06.000Z</time>
      </trkpt>
      <trkpt lat="43.51904" lon="6.36538">
        <ele>277</ele>
        <time>2021-11-24T14:46:07.000Z</time>
      </trkpt>
      <trkpt lat="43.51905" lon="6.36538">
        <ele>277</ele>
        <time>2021-11-24T14:46:08.000Z</time>
      </trkpt>
      <trkpt lat="43.51905" lon="6.36539">
        <ele>277</ele>
        <time>2021-11-24T14:46:09.000Z</time>
      </trkpt>
      <trkpt lat="43.51906" lon="6.3654">
        <ele>277</ele>
        <time>2021-11-24T14:46:10.000Z</time>
      </trkpt>
      <trkpt lat="43.51907" lon="6.3654">
        <ele>277</ele>
        <time>2021-11-24T14:46:11.000Z</time>
      </trkpt>
      <trkpt lat="43.51908" lon="6.36541">
        <ele>277</ele>
        <time>2021-11-24T14:46:12.000Z</time>
      </trkpt>
      <trkpt lat="43.51908" lon="6.36542">
        <ele>277</ele>
        <time>2021-11-24T14:46:13.000Z</time>
      </trkpt>
      <trkpt lat="43.51909" lon="6.36543">
        <ele>277</ele>
        <time>2021-11-24T14:46:14.000Z</time>
      </trkpt>
      <trkpt lat="43.5191" lon="6.36544">
        <ele>277</ele>
        <time>2021-11-24T14:46:15.000Z</time>
      </trkpt>
      <trkpt lat="43.51911" lon="6.36545">
        <ele>277</ele>
        <time>2021-11-24T14:46:16.000Z</time>
      </trkpt>
      <trkpt lat="43.51911" lon="6.36546">
        <ele>277</ele>
        <time>2021-11-24T14:46:17.000Z</time>
      </trkpt>
      <trkpt lat="43.51912" lon="6.36547">
        <ele>277</ele>
        <time>2021-11-24T14:46:18.000Z</time>
      </trkpt>
      <trkpt lat="43.51913" lon="6.36547">
        <ele>277</ele>
        <time>2021-11-24T14:46:19.000Z</time>
      </trkpt>
      <trkpt lat="43.51914" lon="6.36547">
        <ele>277</ele>
        <time>2021-11-24T14:46:20.000Z</time>
      </trkpt>
      <trkpt lat="43.51916" lon="6.36547">
        <ele>277</ele>
        <time>2021-11-24T14:46:21.000Z</time>
      </trkpt>
      <trkpt lat="43.51918" lon="6.36547">
        <ele>277</ele>
        <time>2021-11-24T14:46:22.000Z</time>
      </trkpt>
      <trkpt lat="43.51919" lon="6.36548">
        <ele>277</ele>
        <time>2021-11-24T14:46:23.000Z</time>
      </trkpt>
      <trkpt lat="43.5192" lon="6.36549">
        <ele>276</ele>
        <time>2021-11-24T14:46:24.000Z</time>
      </trkpt>
      <trkpt lat="43.5192" lon="6.3655">
        <ele>276</ele>
        <time>2021-11-24T14:46:25.000Z</time>
      </trkpt>
      <trkpt lat="43.5192" lon="6.36551">
        <ele>276</ele>
        <time>2021-11-24T14:46:26.000Z</time>
      </trkpt>
      <trkpt lat="43.5192" lon="6.36552">
        <ele>276</ele>
        <time>2021-11-24T14:46:27.000Z</time>
      </trkpt>
      <trkpt lat="43.5192" lon="6.36553">
        <ele>276</ele>
        <time>2021-11-24T14:46:28.000Z</time>
      </trkpt>
      <trkpt lat="43.51921" lon="6.36553">
        <ele>276</ele>
        <time>2021-11-24T14:46:29.000Z</time>
      </trkpt>
      <trkpt lat="43.51921" lon="6.36554">
        <ele>276</ele>
        <time>2021-11-24T14:46:30.000Z</time>
      </trkpt>
      <trkpt lat="43.51922" lon="6.36554">
        <ele>276</ele>
        <time>2021-11-24T14:46:31.000Z</time>
      </trkpt>
      <trkpt lat="43.51923" lon="6.36555">
        <ele>276</ele>
        <time>2021-11-24T14:46:32.000Z</time>
      </trkpt>
      <trkpt lat="43.51923" lon="6.36555">
        <ele>276</ele>
        <time>2021-11-24T14:46:33.000Z</time>
      </trkpt>
      <trkpt lat="43.51924" lon="6.36556">
        <ele>276</ele>
        <time>2021-11-24T14:46:34.000Z</time>
      </trkpt>
      <trkpt lat="43.51924" lon="6.36557">
        <ele>276</ele>
        <time>2021-11-24T14:46:35.000Z</time>
      </trkpt>
      <trkpt lat="43.51924" lon="6.36557">
        <ele>276</ele>
        <time>2021-11-24T14:46:36.000Z</time>
      </trkpt>
      <trkpt lat="43.51923" lon="6.36558">
        <ele>276</ele>
        <time>2021-11-24T14:46:37.000Z</time>
      </trkpt>
      <trkpt lat="43.51923" lon="6.36558">
        <ele>276</ele>
        <time>2021-11-24T14:46:38.000Z</time>
      </trkpt>
      <trkpt lat="43.51922" lon="6.36558">
        <ele>276</ele>
        <time>2021-11-24T14:46:39.000Z</time>
      </trkpt>
      <trkpt lat="43.51922" lon="6.36559">
        <ele>276</ele>
        <time>2021-11-24T14:46:40.000Z</time>
      </trkpt>
      <trkpt lat="43.51922" lon="6.36559">
        <ele>276</ele>
        <time>2021-11-24T14:46:41.000Z</time>
      </trkpt>
      <trkpt lat="43.51922" lon="6.3656">
        <ele>276</ele>
        <time>2021-11-24T14:46:42.000Z</time>
      </trkpt>
      <trkpt lat="43.51922" lon="6.36561">
        <ele>275</ele>
        <time>2021-11-24T14:46:43.000Z</time>
      </trkpt>
      <trkpt lat="43.51922" lon="6.36562">
        <ele>275</ele>
        <time>2021-11-24T14:46:44.000Z</time>
      </trkpt>
      <trkpt lat="43.51922" lon="6.36562">
        <ele>275</ele>
        <time>2021-11-24T14:46:45.000Z</time>
      </trkpt>
      <trkpt lat="43.51923" lon="6.36563">
        <ele>275</ele>
        <time>2021-11-24T14:46:46.000Z</time>
      </trkpt>
      <trkpt lat="43.51923" lon="6.36564">
        <ele>275</ele>
        <time>2021-11-24T14:46:47.000Z</time>
      </trkpt>
      <trkpt lat="43.51924" lon="6.36564">
        <ele>275</ele>
        <time>2021-11-24T14:46:48.000Z</time>
      </trkpt>
      <trkpt lat="43.51924" lon="6.36565">
        <ele>275</ele>
        <time>2021-11-24T14:46:49.000Z</time>
      </trkpt>
      <trkpt lat="43.51925" lon="6.36566">
        <ele>275</ele>
        <time>2021-11-24T14:46:50.000Z</time>
      </trkpt>
      <trkpt lat="43.51925" lon="6.36566">
        <ele>275</ele>
        <time>2021-11-24T14:46:51.000Z</time>
      </trkpt>
      <trkpt lat="43.51926" lon="6.36566">
        <ele>275</ele>
        <time>2021-11-24T14:46:52.000Z</time>
      </trkpt>
      <trkpt lat="43.51927" lon="6.36565">
        <ele>275</ele>
        <time>2021-11-24T14:46:53.000Z</time>
      </trkpt>
      <trkpt lat="43.51928" lon="6.36565">
        <ele>275</ele>
        <time>2021-11-24T14:46:54.000Z</time>
      </trkpt>
      <trkpt lat="43.51928" lon="6.36566">
        <ele>275</ele>
        <time>2021-11-24T14:46:55.000Z</time>
      </trkpt>
      <trkpt lat="43.51928" lon="6.36566">
        <ele>275</ele>
        <time>2021-11-24T14:46:56.000Z</time>
      </trkpt>
      <trkpt lat="43.51929" lon="6.36567">
        <ele>275</ele>
        <time>2021-11-24T14:46:57.000Z</time>
      </trkpt>
      <trkpt lat="43.51929" lon="6.36568">
        <ele>275</ele>
        <time>2021-11-24T14:46:58.000Z</time>
      </trkpt>
      <trkpt lat="43.51929" lon="6.36569">
        <ele>275</ele>
        <time>2021-11-24T14:46:59.000Z</time>
      </trkpt>
      <trkpt lat="43.5193" lon="6.3657">
        <ele>274</ele>
        <time>2021-11-24T14:47:00.000Z</time>
      </trkpt>
      <trkpt lat="43.51931" lon="6.36571">
        <ele>274</ele>
        <time>2021-11-24T14:47:01.000Z</time>
      </trkpt>
      <trkpt lat="43.51932" lon="6.36573">
        <ele>274</ele>
        <time>2021-11-24T14:47:02.000Z</time>
      </trkpt>
      <trkpt lat="43.51932" lon="6.36575">
        <ele>273</ele>
        <time>2021-11-24T14:47:03.000Z</time>
      </trkpt>
      <trkpt lat="43.51933" lon="6.36577">
        <ele>273</ele>
        <time>2021-11-24T14:47:04.000Z</time>
      </trkpt>
      <trkpt lat="43.51935" lon="6.3658">
        <ele>273</ele>
        <time>2021-11-24T14:47:05.000Z</time>
      </trkpt>
      <trkpt lat="43.51936" lon="6.36582">
        <ele>273</ele>
        <time>2021-11-24T14:47:06.000Z</time>
      </trkpt>
      <trkpt lat="43.51937" lon="6.36583">
        <ele>273</ele>
        <time>2021-11-24T14:47:07.000Z</time>
      </trkpt>
      <trkpt lat="43.51937" lon="6.36584">
        <ele>273</ele>
        <time>2021-11-24T14:47:08.000Z</time>
      </trkpt>
      <trkpt lat="43.51937" lon="6.36584">
        <ele>273</ele>
        <time>2021-11-24T14:47:09.000Z</time>
      </trkpt>
      <trkpt lat="43.51938" lon="6.36584">
        <ele>273</ele>
        <time>2021-11-24T14:47:10.000Z</time>
      </trkpt>
      <trkpt lat="43.51938" lon="6.36585">
        <ele>273</ele>
        <time>2021-11-24T14:47:11.000Z</time>
      </trkpt>
      <trkpt lat="43.51938" lon="6.36585">
        <ele>272</ele>
        <time>2021-11-24T14:47:12.000Z</time>
      </trkpt>
      <trkpt lat="43.51938" lon="6.36585">
        <ele>272</ele>
        <time>2021-11-24T14:47:13.000Z</time>
      </trkpt>
      <trkpt lat="43.51938" lon="6.36585">
        <ele>272</ele>
        <time>2021-11-24T14:47:14.000Z</time>
      </trkpt>
      <trkpt lat="43.51938" lon="6.36585">
        <ele>272</ele>
        <time>2021-11-24T14:47:15.000Z</time>
      </trkpt>
      <trkpt lat="43.51938" lon="6.36585">
        <ele>272</ele>
        <time>2021-11-24T14:47:16.000Z</time>
      </trkpt>
      <trkpt lat="43.5194" lon="6.36587">
        <ele>272</ele>
        <time>2021-11-24T14:47:17.000Z</time>
      </trkpt>
      <trkpt lat="43.5194" lon="6.36588">
        <ele>272</ele>
        <time>2021-11-24T14:47:18.000Z</time>
      </trkpt>
      <trkpt lat="43.5194" lon="6.36589">
        <ele>272</ele>
        <time>2021-11-24T14:47:19.000Z</time>
      </trkpt>
      <trkpt lat="43.5194" lon="6.36591">
        <ele>272</ele>
        <time>2021-11-24T14:47:20.000Z</time>
      </trkpt>
      <trkpt lat="43.51939" lon="6.36593">
        <ele>272</ele>
        <time>2021-11-24T14:47:21.000Z</time>
      </trkpt>
      <trkpt lat="43.51939" lon="6.36596">
        <ele>272</ele>
        <time>2021-11-24T14:47:22.000Z</time>
      </trkpt>
      <trkpt lat="43.51939" lon="6.36597">
        <ele>271</ele>
        <time>2021-11-24T14:47:23.000Z</time>
      </trkpt>
      <trkpt lat="43.51938" lon="6.36599">
        <ele>271</ele>
        <time>2021-11-24T14:47:24.000Z</time>
      </trkpt>
      <trkpt lat="43.51938" lon="6.36599">
        <ele>271</ele>
        <time>2021-11-24T14:47:25.000Z</time>
      </trkpt>
      <trkpt lat="43.51937" lon="6.366">
        <ele>271</ele>
        <time>2021-11-24T14:47:26.000Z</time>
      </trkpt>
      <trkpt lat="43.51937" lon="6.366">
        <ele>271</ele>
        <time>2021-11-24T14:47:27.000Z</time>
      </trkpt>
      <trkpt lat="43.51936" lon="6.366">
        <ele>271</ele>
        <time>2021-11-24T14:47:28.000Z</time>
      </trkpt>
      <trkpt lat="43.51936" lon="6.366">
        <ele>271</ele>
        <time>2021-11-24T14:47:29.000Z</time>
      </trkpt>
      <trkpt lat="43.51935" lon="6.366">
        <ele>271</ele>
        <time>2021-11-24T14:47:30.000Z</time>
      </trkpt>
      <trkpt lat="43.51935" lon="6.366">
        <ele>271</ele>
        <time>2021-11-24T14:47:31.000Z</time>
      </trkpt>
      <trkpt lat="43.51934" lon="6.366">
        <ele>271</ele>
        <time>2021-11-24T14:47:32.000Z</time>
      </trkpt>
      <trkpt lat="43.51934" lon="6.366">
        <ele>271</ele>
        <time>2021-11-24T14:47:33.000Z</time>
      </trkpt>
      <trkpt lat="43.51933" lon="6.36599">
        <ele>271</ele>
        <time>2021-11-24T14:47:34.000Z</time>
      </trkpt>
      <trkpt lat="43.51933" lon="6.36599">
        <ele>271</ele>
        <time>2021-11-24T14:47:35.000Z</time>
      </trkpt>
      <trkpt lat="43.51933" lon="6.36599">
        <ele>271</ele>
        <time>2021-11-24T14:47:36.000Z</time>
      </trkpt>
      <trkpt lat="43.51933" lon="6.36599">
        <ele>271</ele>
        <time>2021-11-24T14:47:37.000Z</time>
      </trkpt>
      <trkpt lat="43.51932" lon="6.366">
        <ele>271</ele>
        <time>2021-11-24T14:47:38.000Z</time>
      </trkpt>
      <trkpt lat="43.51932" lon="6.366">
        <ele>271</ele>
        <time>2021-11-24T14:47:39.000Z</time>
      </trkpt>
      <trkpt lat="43.51932" lon="6.366">
        <ele>271</ele>
        <time>2021-11-24T14:47:40.000Z</time>
      </trkpt>
      <trkpt lat="43.51932" lon="6.366">
        <ele>271</ele>
        <time>2021-11-24T14:47:41.000Z</time>
      </trkpt>
      <trkpt lat="43.51932" lon="6.366">
        <ele>271</ele>
        <time>2021-11-24T14:47:42.000Z</time>
      </trkpt>
      <trkpt lat="43.51932" lon="6.366">
        <ele>271</ele>
        <time>2021-11-24T14:47:43.000Z</time>
      </trkpt>
      <trkpt lat="43.51931" lon="6.366">
        <ele>271</ele>
        <time>2021-11-24T14:47:44.000Z</time>
      </trkpt>
      <trkpt lat="43.51931" lon="6.366">
        <ele>271</ele>
        <time>2021-11-24T14:47:45.000Z</time>
      </trkpt>
      <trkpt lat="43.51931" lon="6.366">
        <ele>270</ele>
        <time>2021-11-24T14:47:46.000Z</time>
      </trkpt>
      <trkpt lat="43.51931" lon="6.366">
        <ele>270</ele>
        <time>2021-11-24T14:47:47.000Z</time>
      </trkpt>
      <trkpt lat="43.51931" lon="6.366">
        <ele>270</ele>
        <time>2021-11-24T14:47:48.000Z</time>
      </trkpt>
      <trkpt lat="43.51931" lon="6.366">
        <ele>270</ele>
        <time>2021-11-24T14:47:49.000Z</time>
      </trkpt>
      <trkpt lat="43.51931" lon="6.36601">
        <ele>270</ele>
        <time>2021-11-24T14:47:50.000Z</time>
      </trkpt>
      <trkpt lat="43.51931" lon="6.36602">
        <ele>270</ele>
        <time>2021-11-24T14:47:51.000Z</time>
      </trkpt>
      <trkpt lat="43.51931" lon="6.36603">
        <ele>270</ele>
        <time>2021-11-24T14:47:52.000Z</time>
      </trkpt>
      <trkpt lat="43.51931" lon="6.36605">
        <ele>270</ele>
        <time>2021-11-24T14:47:53.000Z</time>
      </trkpt>
      <trkpt lat="43.51931" lon="6.36606">
        <ele>270</ele>
        <time>2021-11-24T14:47:54.000Z</time>
      </trkpt>
      <trkpt lat="43.51932" lon="6.36608">
        <ele>270</ele>
        <time>2021-11-24T14:47:55.000Z</time>
      </trkpt>
      <trkpt lat="43.51932" lon="6.36609">
        <ele>270</ele>
        <time>2021-11-24T14:47:56.000Z</time>
      </trkpt>
      <trkpt lat="43.51933" lon="6.3661">
        <ele>270</ele>
        <time>2021-11-24T14:47:57.000Z</time>
      </trkpt>
      <trkpt lat="43.51933" lon="6.36612">
        <ele>270</ele>
        <time>2021-11-24T14:47:58.000Z</time>
      </trkpt>
      <trkpt lat="43.51933" lon="6.36613">
        <ele>270</ele>
        <time>2021-11-24T14:47:59.000Z</time>
      </trkpt>
      <trkpt lat="43.51934" lon="6.36614">
        <ele>270</ele>
        <time>2021-11-24T14:48:00.000Z</time>
      </trkpt>
      <trkpt lat="43.51934" lon="6.36615">
        <ele>270</ele>
        <time>2021-11-24T14:48:01.000Z</time>
      </trkpt>
      <trkpt lat="43.51934" lon="6.36615">
        <ele>269</ele>
        <time>2021-11-24T14:48:02.000Z</time>
      </trkpt>
      <trkpt lat="43.51934" lon="6.36616">
        <ele>269</ele>
        <time>2021-11-24T14:48:03.000Z</time>
      </trkpt>
      <trkpt lat="43.51935" lon="6.36616">
        <ele>269</ele>
        <time>2021-11-24T14:48:04.000Z</time>
      </trkpt>
      <trkpt lat="43.51935" lon="6.36617">
        <ele>270</ele>
        <time>2021-11-24T14:48:05.000Z</time>
      </trkpt>
      <trkpt lat="43.51936" lon="6.36618">
        <ele>270</ele>
        <time>2021-11-24T14:48:06.000Z</time>
      </trkpt>
      <trkpt lat="43.51937" lon="6.3662">
        <ele>270</ele>
        <time>2021-11-24T14:48:07.000Z</time>
      </trkpt>
      <trkpt lat="43.51938" lon="6.36623">
        <ele>270</ele>
        <time>2021-11-24T14:48:08.000Z</time>
      </trkpt>
      <trkpt lat="43.5194" lon="6.36626">
        <ele>270</ele>
        <time>2021-11-24T14:48:09.000Z</time>
      </trkpt>
      <trkpt lat="43.5194" lon="6.36627">
        <ele>270</ele>
        <time>2021-11-24T14:48:10.000Z</time>
      </trkpt>
      <trkpt lat="43.51941" lon="6.36629">
        <ele>270</ele>
        <time>2021-11-24T14:48:11.000Z</time>
      </trkpt>
      <trkpt lat="43.51941" lon="6.3663">
        <ele>270</ele>
        <time>2021-11-24T14:48:12.000Z</time>
      </trkpt>
      <trkpt lat="43.51942" lon="6.36631">
        <ele>269</ele>
        <time>2021-11-24T14:48:13.000Z</time>
      </trkpt>
      <trkpt lat="43.51942" lon="6.36631">
        <ele>269</ele>
        <time>2021-11-24T14:48:14.000Z</time>
      </trkpt>
      <trkpt lat="43.51942" lon="6.36632">
        <ele>269</ele>
        <time>2021-11-24T14:48:15.000Z</time>
      </trkpt>
      <trkpt lat="43.51942" lon="6.36632">
        <ele>269</ele>
        <time>2021-11-24T14:48:16.000Z</time>
      </trkpt>
      <trkpt lat="43.51942" lon="6.36633">
        <ele>269</ele>
        <time>2021-11-24T14:48:17.000Z</time>
      </trkpt>
      <trkpt lat="43.51941" lon="6.36634">
        <ele>269</ele>
        <time>2021-11-24T14:48:18.000Z</time>
      </trkpt>
      <trkpt lat="43.51941" lon="6.36634">
        <ele>269</ele>
        <time>2021-11-24T14:48:19.000Z</time>
      </trkpt>
      <trkpt lat="43.5194" lon="6.36635">
        <ele>269</ele>
        <time>2021-11-24T14:48:20.000Z</time>
      </trkpt>
      <trkpt lat="43.51939" lon="6.36636">
        <ele>269</ele>
        <time>2021-11-24T14:48:21.000Z</time>
      </trkpt>
      <trkpt lat="43.51938" lon="6.36638">
        <ele>269</ele>
        <time>2021-11-24T14:48:22.000Z</time>
      </trkpt>
      <trkpt lat="43.51936" lon="6.36639">
        <ele>268</ele>
        <time>2021-11-24T14:48:23.000Z</time>
      </trkpt>
      <trkpt lat="43.51935" lon="6.3664">
        <ele>268</ele>
        <time>2021-11-24T14:48:24.000Z</time>
      </trkpt>
      <trkpt lat="43.51934" lon="6.36641">
        <ele>268</ele>
        <time>2021-11-24T14:48:25.000Z</time>
      </trkpt>
      <trkpt lat="43.51933" lon="6.36642">
        <ele>268</ele>
        <time>2021-11-24T14:48:26.000Z</time>
      </trkpt>
      <trkpt lat="43.51931" lon="6.36643">
        <ele>268</ele>
        <time>2021-11-24T14:48:27.000Z</time>
      </trkpt>
      <trkpt lat="43.5193" lon="6.36644">
        <ele>267</ele>
        <time>2021-11-24T14:48:28.000Z</time>
      </trkpt>
      <trkpt lat="43.51928" lon="6.36645">
        <ele>266</ele>
        <time>2021-11-24T14:48:29.000Z</time>
      </trkpt>
      <trkpt lat="43.51926" lon="6.36647">
        <ele>266</ele>
        <time>2021-11-24T14:48:30.000Z</time>
      </trkpt>
      <trkpt lat="43.51925" lon="6.36648">
        <ele>265</ele>
        <time>2021-11-24T14:48:31.000Z</time>
      </trkpt>
      <trkpt lat="43.51924" lon="6.3665">
        <ele>265</ele>
        <time>2021-11-24T14:48:32.000Z</time>
      </trkpt>
      <trkpt lat="43.51924" lon="6.36651">
        <ele>265</ele>
        <time>2021-11-24T14:48:33.000Z</time>
      </trkpt>
      <trkpt lat="43.51923" lon="6.36652">
        <ele>265</ele>
        <time>2021-11-24T14:48:34.000Z</time>
      </trkpt>
      <trkpt lat="43.51922" lon="6.36654">
        <ele>264</ele>
        <time>2021-11-24T14:48:35.000Z</time>
      </trkpt>
      <trkpt lat="43.51922" lon="6.36656">
        <ele>263</ele>
        <time>2021-11-24T14:48:36.000Z</time>
      </trkpt>
      <trkpt lat="43.51921" lon="6.36657">
        <ele>263</ele>
        <time>2021-11-24T14:48:37.000Z</time>
      </trkpt>
      <trkpt lat="43.5192" lon="6.36659">
        <ele>262</ele>
        <time>2021-11-24T14:48:38.000Z</time>
      </trkpt>
      <trkpt lat="43.51919" lon="6.36661">
        <ele>262</ele>
        <time>2021-11-24T14:48:39.000Z</time>
      </trkpt>
      <trkpt lat="43.51919" lon="6.36663">
        <ele>262</ele>
        <time>2021-11-24T14:48:40.000Z</time>
      </trkpt>
      <trkpt lat="43.51919" lon="6.36665">
        <ele>262</ele>
        <time>2021-11-24T14:48:41.000Z</time>
      </trkpt>
      <trkpt lat="43.5192" lon="6.36667">
        <ele>262</ele>
        <time>2021-11-24T14:48:42.000Z</time>
      </trkpt>
      <trkpt lat="43.51921" lon="6.36668">
        <ele>261</ele>
        <time>2021-11-24T14:48:43.000Z</time>
      </trkpt>
      <trkpt lat="43.51922" lon="6.3667">
        <ele>261</ele>
        <time>2021-11-24T14:48:44.000Z</time>
      </trkpt>
      <trkpt lat="43.51922" lon="6.36671">
        <ele>261</ele>
        <time>2021-11-24T14:48:45.000Z</time>
      </trkpt>
      <trkpt lat="43.51922" lon="6.36672">
        <ele>261</ele>
        <time>2021-11-24T14:48:46.000Z</time>
      </trkpt>
      <trkpt lat="43.51921" lon="6.36672">
        <ele>260</ele>
        <time>2021-11-24T14:48:47.000Z</time>
      </trkpt>
      <trkpt lat="43.5192" lon="6.36673">
        <ele>260</ele>
        <time>2021-11-24T14:48:48.000Z</time>
      </trkpt>
      <trkpt lat="43.51919" lon="6.36673">
        <ele>260</ele>
        <time>2021-11-24T14:48:49.000Z</time>
      </trkpt>
      <trkpt lat="43.51918" lon="6.36674">
        <ele>260</ele>
        <time>2021-11-24T14:48:50.000Z</time>
      </trkpt>
      <trkpt lat="43.51917" lon="6.36674">
        <ele>260</ele>
        <time>2021-11-24T14:48:51.000Z</time>
      </trkpt>
      <trkpt lat="43.51917" lon="6.36675">
        <ele>260</ele>
        <time>2021-11-24T14:48:52.000Z</time>
      </trkpt>
      <trkpt lat="43.51916" lon="6.36675">
        <ele>260</ele>
        <time>2021-11-24T14:48:53.000Z</time>
      </trkpt>
      <trkpt lat="43.51914" lon="6.36675">
        <ele>260</ele>
        <time>2021-11-24T14:48:54.000Z</time>
      </trkpt>
      <trkpt lat="43.51915" lon="6.36677">
        <ele>260</ele>
        <time>2021-11-24T14:48:55.000Z</time>
      </trkpt>
      <trkpt lat="43.51915" lon="6.36678">
        <ele>260</ele>
        <time>2021-11-24T14:48:56.000Z</time>
      </trkpt>
      <trkpt lat="43.51915" lon="6.36679">
        <ele>260</ele>
        <time>2021-11-24T14:48:57.000Z</time>
      </trkpt>
      <trkpt lat="43.51916" lon="6.36679">
        <ele>260</ele>
        <time>2021-11-24T14:48:58.000Z</time>
      </trkpt>
      <trkpt lat="43.51916" lon="6.36679">
        <ele>260</ele>
        <time>2021-11-24T14:48:59.000Z</time>
      </trkpt>
      <trkpt lat="43.51916" lon="6.3668">
        <ele>260</ele>
        <time>2021-11-24T14:49:00.000Z</time>
      </trkpt>
      <trkpt lat="43.51916" lon="6.3668">
        <ele>260</ele>
        <time>2021-11-24T14:49:01.000Z</time>
      </trkpt>
      <trkpt lat="43.51916" lon="6.3668">
        <ele>260</ele>
        <time>2021-11-24T14:49:02.000Z</time>
      </trkpt>
      <trkpt lat="43.51915" lon="6.3668">
        <ele>260</ele>
        <time>2021-11-24T14:49:03.000Z</time>
      </trkpt>
      <trkpt lat="43.51915" lon="6.3668">
        <ele>260</ele>
        <time>2021-11-24T14:49:04.000Z</time>
      </trkpt>
      <trkpt lat="43.51913" lon="6.36681">
        <ele>260</ele>
        <time>2021-11-24T14:49:05.000Z</time>
      </trkpt>
      <trkpt lat="43.51912" lon="6.36681">
        <ele>260</ele>
        <time>2021-11-24T14:49:06.000Z</time>
      </trkpt>
      <trkpt lat="43.51909" lon="6.36683">
        <ele>260</ele>
        <time>2021-11-24T14:49:07.000Z</time>
      </trkpt>
      <trkpt lat="43.51908" lon="6.36685">
        <ele>261</ele>
        <time>2021-11-24T14:49:08.000Z</time>
      </trkpt>
      <trkpt lat="43.51907" lon="6.36686">
        <ele>261</ele>
        <time>2021-11-24T14:49:09.000Z</time>
      </trkpt>
      <trkpt lat="43.51907" lon="6.36687">
        <ele>261</ele>
        <time>2021-11-24T14:49:10.000Z</time>
      </trkpt>
      <trkpt lat="43.51906" lon="6.36688">
        <ele>261</ele>
        <time>2021-11-24T14:49:11.000Z</time>
      </trkpt>
      <trkpt lat="43.51905" lon="6.36689">
        <ele>262</ele>
        <time>2021-11-24T14:49:12.000Z</time>
      </trkpt>
      <trkpt lat="43.51905" lon="6.3669">
        <ele>262</ele>
        <time>2021-11-24T14:49:13.000Z</time>
      </trkpt>
      <trkpt lat="43.51905" lon="6.36691">
        <ele>262</ele>
        <time>2021-11-24T14:49:14.000Z</time>
      </trkpt>
      <trkpt lat="43.51904" lon="6.36692">
        <ele>262</ele>
        <time>2021-11-24T14:49:15.000Z</time>
      </trkpt>
      <trkpt lat="43.51904" lon="6.36693">
        <ele>262</ele>
        <time>2021-11-24T14:49:16.000Z</time>
      </trkpt>
      <trkpt lat="43.51904" lon="6.36694">
        <ele>262</ele>
        <time>2021-11-24T14:49:17.000Z</time>
      </trkpt>
      <trkpt lat="43.51903" lon="6.36694">
        <ele>262</ele>
        <time>2021-11-24T14:49:18.000Z</time>
      </trkpt>
      <trkpt lat="43.51903" lon="6.36695">
        <ele>262</ele>
        <time>2021-11-24T14:49:19.000Z</time>
      </trkpt>
      <trkpt lat="43.51903" lon="6.36696">
        <ele>262</ele>
        <time>2021-11-24T14:49:20.000Z</time>
      </trkpt>
      <trkpt lat="43.51903" lon="6.36696">
        <ele>262</ele>
        <time>2021-11-24T14:49:21.000Z</time>
      </trkpt>
      <trkpt lat="43.51902" lon="6.36697">
        <ele>262</ele>
        <time>2021-11-24T14:49:22.000Z</time>
      </trkpt>
      <trkpt lat="43.51902" lon="6.36698">
        <ele>261</ele>
        <time>2021-11-24T14:49:23.000Z</time>
      </trkpt>
      <trkpt lat="43.51901" lon="6.36699">
        <ele>261</ele>
        <time>2021-11-24T14:49:24.000Z</time>
      </trkpt>
      <trkpt lat="43.51901" lon="6.367">
        <ele>261</ele>
        <time>2021-11-24T14:49:25.000Z</time>
      </trkpt>
      <trkpt lat="43.51901" lon="6.36702">
        <ele>261</ele>
        <time>2021-11-24T14:49:26.000Z</time>
      </trkpt>
      <trkpt lat="43.51901" lon="6.36704">
        <ele>261</ele>
        <time>2021-11-24T14:49:27.000Z</time>
      </trkpt>
      <trkpt lat="43.51902" lon="6.36706">
        <ele>261</ele>
        <time>2021-11-24T14:49:28.000Z</time>
      </trkpt>
      <trkpt lat="43.51902" lon="6.36707">
        <ele>261</ele>
        <time>2021-11-24T14:49:29.000Z</time>
      </trkpt>
      <trkpt lat="43.51902" lon="6.36708">
        <ele>262</ele>
        <time>2021-11-24T14:49:30.000Z</time>
      </trkpt>
      <trkpt lat="43.51902" lon="6.36709">
        <ele>262</ele>
        <time>2021-11-24T14:49:31.000Z</time>
      </trkpt>
      <trkpt lat="43.51902" lon="6.36709">
        <ele>262</ele>
        <time>2021-11-24T14:49:32.000Z</time>
      </trkpt>
      <trkpt lat="43.51902" lon="6.3671">
        <ele>262</ele>
        <time>2021-11-24T14:49:33.000Z</time>
      </trkpt>
      <trkpt lat="43.51903" lon="6.36711">
        <ele>262</ele>
        <time>2021-11-24T14:49:34.000Z</time>
      </trkpt>
      <trkpt lat="43.51903" lon="6.36711">
        <ele>262</ele>
        <time>2021-11-24T14:49:35.000Z</time>
      </trkpt>
      <trkpt lat="43.51903" lon="6.36712">
        <ele>262</ele>
        <time>2021-11-24T14:49:36.000Z</time>
      </trkpt>
      <trkpt lat="43.51903" lon="6.36712">
        <ele>262</ele>
        <time>2021-11-24T14:49:37.000Z</time>
      </trkpt>
      <trkpt lat="43.51903" lon="6.36713">
        <ele>262</ele>
        <time>2021-11-24T14:49:38.000Z</time>
      </trkpt>
      <trkpt lat="43.51903" lon="6.36714">
        <ele>262</ele>
        <time>2021-11-24T14:49:39.000Z</time>
      </trkpt>
      <trkpt lat="43.51904" lon="6.36714">
        <ele>263</ele>
        <time>2021-11-24T14:49:40.000Z</time>
      </trkpt>
      <trkpt lat="43.51906" lon="6.36715">
        <ele>263</ele>
        <time>2021-11-24T14:49:41.000Z</time>
      </trkpt>
      <trkpt lat="43.51908" lon="6.36715">
        <ele>263</ele>
        <time>2021-11-24T14:49:42.000Z</time>
      </trkpt>
      <trkpt lat="43.5191" lon="6.36715">
        <ele>263</ele>
        <time>2021-11-24T14:49:43.000Z</time>
      </trkpt>
      <trkpt lat="43.51912" lon="6.36716">
        <ele>262</ele>
        <time>2021-11-24T14:49:44.000Z</time>
      </trkpt>
      <trkpt lat="43.51914" lon="6.36715">
        <ele>262</ele>
        <time>2021-11-24T14:49:45.000Z</time>
      </trkpt>
      <trkpt lat="43.51916" lon="6.36715">
        <ele>262</ele>
        <time>2021-11-24T14:49:46.000Z</time>
      </trkpt>
      <trkpt lat="43.51917" lon="6.36715">
        <ele>262</ele>
        <time>2021-11-24T14:49:47.000Z</time>
      </trkpt>
      <trkpt lat="43.51917" lon="6.36715">
        <ele>262</ele>
        <time>2021-11-24T14:49:48.000Z</time>
      </trkpt>
      <trkpt lat="43.51918" lon="6.36715">
        <ele>262</ele>
        <time>2021-11-24T14:49:49.000Z</time>
      </trkpt>
      <trkpt lat="43.51919" lon="6.36715">
        <ele>262</ele>
        <time>2021-11-24T14:49:50.000Z</time>
      </trkpt>
      <trkpt lat="43.5192" lon="6.36715">
        <ele>262</ele>
        <time>2021-11-24T14:49:51.000Z</time>
      </trkpt>
      <trkpt lat="43.51921" lon="6.36715">
        <ele>262</ele>
        <time>2021-11-24T14:49:52.000Z</time>
      </trkpt>
      <trkpt lat="43.51922" lon="6.36715">
        <ele>262</ele>
        <time>2021-11-24T14:49:53.000Z</time>
      </trkpt>
      <trkpt lat="43.51924" lon="6.36715">
        <ele>262</ele>
        <time>2021-11-24T14:49:54.000Z</time>
      </trkpt>
      <trkpt lat="43.51925" lon="6.36714">
        <ele>262</ele>
        <time>2021-11-24T14:49:55.000Z</time>
      </trkpt>
      <trkpt lat="43.51927" lon="6.36714">
        <ele>262</ele>
        <time>2021-11-24T14:49:56.000Z</time>
      </trkpt>
      <trkpt lat="43.5193" lon="6.36714">
        <ele>261</ele>
        <time>2021-11-24T14:49:57.000Z</time>
      </trkpt>
      <trkpt lat="43.51933" lon="6.36713">
        <ele>261</ele>
        <time>2021-11-24T14:49:58.000Z</time>
      </trkpt>
      <trkpt lat="43.51936" lon="6.36712">
        <ele>261</ele>
        <time>2021-11-24T14:49:59.000Z</time>
      </trkpt>
      <trkpt lat="43.51939" lon="6.36712">
        <ele>260</ele>
        <time>2021-11-24T14:50:00.000Z</time>
      </trkpt>
      <trkpt lat="43.5194" lon="6.36712">
        <ele>260</ele>
        <time>2021-11-24T14:50:01.000Z</time>
      </trkpt>
      <trkpt lat="43.51942" lon="6.36712">
        <ele>260</ele>
        <time>2021-11-24T14:50:02.000Z</time>
      </trkpt>
      <trkpt lat="43.51943" lon="6.36712">
        <ele>260</ele>
        <time>2021-11-24T14:50:03.000Z</time>
      </trkpt>
      <trkpt lat="43.51945" lon="6.36712">
        <ele>260</ele>
        <time>2021-11-24T14:50:04.000Z</time>
      </trkpt>
      <trkpt lat="43.51946" lon="6.36712">
        <ele>260</ele>
        <time>2021-11-24T14:50:05.000Z</time>
      </trkpt>
      <trkpt lat="43.51947" lon="6.36712">
        <ele>260</ele>
        <time>2021-11-24T14:50:06.000Z</time>
      </trkpt>
      <trkpt lat="43.51948" lon="6.36711">
        <ele>259</ele>
        <time>2021-11-24T14:50:07.000Z</time>
      </trkpt>
      <trkpt lat="43.51949" lon="6.3671">
        <ele>259</ele>
        <time>2021-11-24T14:50:08.000Z</time>
      </trkpt>
      <trkpt lat="43.5195" lon="6.36709">
        <ele>259</ele>
        <time>2021-11-24T14:50:09.000Z</time>
      </trkpt>
      <trkpt lat="43.51951" lon="6.36708">
        <ele>259</ele>
        <time>2021-11-24T14:50:10.000Z</time>
      </trkpt>
      <trkpt lat="43.51952" lon="6.36708">
        <ele>259</ele>
        <time>2021-11-24T14:50:11.000Z</time>
      </trkpt>
      <trkpt lat="43.51953" lon="6.36708">
        <ele>258</ele>
        <time>2021-11-24T14:50:12.000Z</time>
      </trkpt>
      <trkpt lat="43.51954" lon="6.36707">
        <ele>258</ele>
        <time>2021-11-24T14:50:13.000Z</time>
      </trkpt>
      <trkpt lat="43.51956" lon="6.36706">
        <ele>258</ele>
        <time>2021-11-24T14:50:14.000Z</time>
      </trkpt>
      <trkpt lat="43.51957" lon="6.36706">
        <ele>258</ele>
        <time>2021-11-24T14:50:15.000Z</time>
      </trkpt>
      <trkpt lat="43.51958" lon="6.36706">
        <ele>258</ele>
        <time>2021-11-24T14:50:16.000Z</time>
      </trkpt>
      <trkpt lat="43.51959" lon="6.36706">
        <ele>258</ele>
        <time>2021-11-24T14:50:17.000Z</time>
      </trkpt>
      <trkpt lat="43.5196" lon="6.36706">
        <ele>257</ele>
        <time>2021-11-24T14:50:18.000Z</time>
      </trkpt>
      <trkpt lat="43.51961" lon="6.36706">
        <ele>257</ele>
        <time>2021-11-24T14:50:19.000Z</time>
      </trkpt>
      <trkpt lat="43.51962" lon="6.36706">
        <ele>257</ele>
        <time>2021-11-24T14:50:20.000Z</time>
      </trkpt>
      <trkpt lat="43.51964" lon="6.36706">
        <ele>256</ele>
        <time>2021-11-24T14:50:21.000Z</time>
      </trkpt>
      <trkpt lat="43.51965" lon="6.36705">
        <ele>256</ele>
        <time>2021-11-24T14:50:22.000Z</time>
      </trkpt>
      <trkpt lat="43.51965" lon="6.36705">
        <ele>256</ele>
        <time>2021-11-24T14:50:23.000Z</time>
      </trkpt>
      <trkpt lat="43.51967" lon="6.36705">
        <ele>256</ele>
        <time>2021-11-24T14:50:24.000Z</time>
      </trkpt>
      <trkpt lat="43.51968" lon="6.36704">
        <ele>256</ele>
        <time>2021-11-24T14:50:25.000Z</time>
      </trkpt>
      <trkpt lat="43.51969" lon="6.36704">
        <ele>256</ele>
        <time>2021-11-24T14:50:26.000Z</time>
      </trkpt>
      <trkpt lat="43.5197" lon="6.36704">
        <ele>256</ele>
        <time>2021-11-24T14:50:27.000Z</time>
      </trkpt>
      <trkpt lat="43.51971" lon="6.36703">
        <ele>256</ele>
        <time>2021-11-24T14:50:28.000Z</time>
      </trkpt>
      <trkpt lat="43.51973" lon="6.36703">
        <ele>256</ele>
        <time>2021-11-24T14:50:29.000Z</time>
      </trkpt>
      <trkpt lat="43.51974" lon="6.36703">
        <ele>255</ele>
        <time>2021-11-24T14:50:30.000Z</time>
      </trkpt>
      <trkpt lat="43.51975" lon="6.36703">
        <ele>255</ele>
        <time>2021-11-24T14:50:31.000Z</time>
      </trkpt>
      <trkpt lat="43.51976" lon="6.36702">
        <ele>255</ele>
        <time>2021-11-24T14:50:32.000Z</time>
      </trkpt>
      <trkpt lat="43.51978" lon="6.36702">
        <ele>255</ele>
        <time>2021-11-24T14:50:33.000Z</time>
      </trkpt>
      <trkpt lat="43.51979" lon="6.36702">
        <ele>255</ele>
        <time>2021-11-24T14:50:34.000Z</time>
      </trkpt>
      <trkpt lat="43.5198" lon="6.36701">
        <ele>255</ele>
        <time>2021-11-24T14:50:35.000Z</time>
      </trkpt>
      <trkpt lat="43.51981" lon="6.36701">
        <ele>255</ele>
        <time>2021-11-24T14:50:36.000Z</time>
      </trkpt>
      <trkpt lat="43.51982" lon="6.36701">
        <ele>254</ele>
        <time>2021-11-24T14:50:37.000Z</time>
      </trkpt>
      <trkpt lat="43.51983" lon="6.367">
        <ele>254</ele>
        <time>2021-11-24T14:50:38.000Z</time>
      </trkpt>
      <trkpt lat="43.51984" lon="6.367">
        <ele>253</ele>
        <time>2021-11-24T14:50:39.000Z</time>
      </trkpt>
      <trkpt lat="43.51985" lon="6.367">
        <ele>253</ele>
        <time>2021-11-24T14:50:40.000Z</time>
      </trkpt>
      <trkpt lat="43.51987" lon="6.367">
        <ele>253</ele>
        <time>2021-11-24T14:50:41.000Z</time>
      </trkpt>
      <trkpt lat="43.51988" lon="6.36699">
        <ele>253</ele>
        <time>2021-11-24T14:50:42.000Z</time>
      </trkpt>
      <trkpt lat="43.51989" lon="6.36698">
        <ele>252</ele>
        <time>2021-11-24T14:50:43.000Z</time>
      </trkpt>
      <trkpt lat="43.5199" lon="6.36698">
        <ele>252</ele>
        <time>2021-11-24T14:50:44.000Z</time>
      </trkpt>
      <trkpt lat="43.51991" lon="6.36697">
        <ele>252</ele>
        <time>2021-11-24T14:50:45.000Z</time>
      </trkpt>
      <trkpt lat="43.51993" lon="6.36696">
        <ele>252</ele>
        <time>2021-11-24T14:50:46.000Z</time>
      </trkpt>
      <trkpt lat="43.51994" lon="6.36695">
        <ele>251</ele>
        <time>2021-11-24T14:50:47.000Z</time>
      </trkpt>
      <trkpt lat="43.51995" lon="6.36694">
        <ele>251</ele>
        <time>2021-11-24T14:50:48.000Z</time>
      </trkpt>
      <trkpt lat="43.51996" lon="6.36693">
        <ele>251</ele>
        <time>2021-11-24T14:50:49.000Z</time>
      </trkpt>
      <trkpt lat="43.51997" lon="6.36692">
        <ele>251</ele>
        <time>2021-11-24T14:50:50.000Z</time>
      </trkpt>
      <trkpt lat="43.51998" lon="6.36691">
        <ele>252</ele>
        <time>2021-11-24T14:50:51.000Z</time>
      </trkpt>
      <trkpt lat="43.52" lon="6.36691">
        <ele>252</ele>
        <time>2021-11-24T14:50:52.000Z</time>
      </trkpt>
      <trkpt lat="43.52001" lon="6.36691">
        <ele>252</ele>
        <time>2021-11-24T14:50:53.000Z</time>
      </trkpt>
      <trkpt lat="43.52002" lon="6.36692">
        <ele>252</ele>
        <time>2021-11-24T14:50:54.000Z</time>
      </trkpt>
      <trkpt lat="43.52003" lon="6.36692">
        <ele>252</ele>
        <time>2021-11-24T14:50:55.000Z</time>
      </trkpt>
      <trkpt lat="43.52004" lon="6.36693">
        <ele>252</ele>
        <time>2021-11-24T14:50:56.000Z</time>
      </trkpt>
      <trkpt lat="43.52004" lon="6.36694">
        <ele>252</ele>
        <time>2021-11-24T14:50:57.000Z</time>
      </trkpt>
      <trkpt lat="43.52005" lon="6.36695">
        <ele>252</ele>
        <time>2021-11-24T14:50:58.000Z</time>
      </trkpt>
      <trkpt lat="43.52005" lon="6.36696">
        <ele>252</ele>
        <time>2021-11-24T14:50:59.000Z</time>
      </trkpt>
      <trkpt lat="43.52006" lon="6.36697">
        <ele>252</ele>
        <time>2021-11-24T14:51:00.000Z</time>
      </trkpt>
      <trkpt lat="43.52007" lon="6.36698">
        <ele>252</ele>
        <time>2021-11-24T14:51:01.000Z</time>
      </trkpt>
      <trkpt lat="43.52008" lon="6.36699">
        <ele>252</ele>
        <time>2021-11-24T14:51:02.000Z</time>
      </trkpt>
      <trkpt lat="43.52009" lon="6.36699">
        <ele>252</ele>
        <time>2021-11-24T14:51:03.000Z</time>
      </trkpt>
      <trkpt lat="43.52009" lon="6.367">
        <ele>252</ele>
        <time>2021-11-24T14:51:04.000Z</time>
      </trkpt>
      <trkpt lat="43.5201" lon="6.367">
        <ele>252</ele>
        <time>2021-11-24T14:51:05.000Z</time>
      </trkpt>
      <trkpt lat="43.5201" lon="6.36701">
        <ele>252</ele>
        <time>2021-11-24T14:51:06.000Z</time>
      </trkpt>
      <trkpt lat="43.52011" lon="6.36702">
        <ele>252</ele>
        <time>2021-11-24T14:51:07.000Z</time>
      </trkpt>
      <trkpt lat="43.52011" lon="6.36703">
        <ele>252</ele>
        <time>2021-11-24T14:51:08.000Z</time>
      </trkpt>
      <trkpt lat="43.52012" lon="6.36704">
        <ele>252</ele>
        <time>2021-11-24T14:51:09.000Z</time>
      </trkpt>
      <trkpt lat="43.52013" lon="6.36705">
        <ele>252</ele>
        <time>2021-11-24T14:51:10.000Z</time>
      </trkpt>
      <trkpt lat="43.52014" lon="6.36706">
        <ele>252</ele>
        <time>2021-11-24T14:51:11.000Z</time>
      </trkpt>
      <trkpt lat="43.52014" lon="6.36706">
        <ele>252</ele>
        <time>2021-11-24T14:51:12.000Z</time>
      </trkpt>
      <trkpt lat="43.52015" lon="6.36707">
        <ele>252</ele>
        <time>2021-11-24T14:51:13.000Z</time>
      </trkpt>
      <trkpt lat="43.52016" lon="6.36708">
        <ele>252</ele>
        <time>2021-11-24T14:51:14.000Z</time>
      </trkpt>
      <trkpt lat="43.52017" lon="6.36708">
        <ele>251</ele>
        <time>2021-11-24T14:51:15.000Z</time>
      </trkpt>
      <trkpt lat="43.52018" lon="6.36709">
        <ele>251</ele>
        <time>2021-11-24T14:51:16.000Z</time>
      </trkpt>
      <trkpt lat="43.52019" lon="6.3671">
        <ele>251</ele>
        <time>2021-11-24T14:51:17.000Z</time>
      </trkpt>
      <trkpt lat="43.5202" lon="6.36711">
        <ele>251</ele>
        <time>2021-11-24T14:51:18.000Z</time>
      </trkpt>
      <trkpt lat="43.52021" lon="6.36711">
        <ele>251</ele>
        <time>2021-11-24T14:51:19.000Z</time>
      </trkpt>
      <trkpt lat="43.52022" lon="6.36712">
        <ele>251</ele>
        <time>2021-11-24T14:51:20.000Z</time>
      </trkpt>
      <trkpt lat="43.52024" lon="6.36713">
        <ele>252</ele>
        <time>2021-11-24T14:51:21.000Z</time>
      </trkpt>
      <trkpt lat="43.52025" lon="6.36713">
        <ele>252</ele>
        <time>2021-11-24T14:51:22.000Z</time>
      </trkpt>
      <trkpt lat="43.52026" lon="6.36713">
        <ele>252</ele>
        <time>2021-11-24T14:51:23.000Z</time>
      </trkpt>
      <trkpt lat="43.52027" lon="6.36713">
        <ele>252</ele>
        <time>2021-11-24T14:51:24.000Z</time>
      </trkpt>
      <trkpt lat="43.52028" lon="6.36713">
        <ele>252</ele>
        <time>2021-11-24T14:51:25.000Z</time>
      </trkpt>
      <trkpt lat="43.52029" lon="6.36712">
        <ele>252</ele>
        <time>2021-11-24T14:51:26.000Z</time>
      </trkpt>
      <trkpt lat="43.5203" lon="6.36712">
        <ele>251</ele>
        <time>2021-11-24T14:51:27.000Z</time>
      </trkpt>
      <trkpt lat="43.52031" lon="6.3671">
        <ele>251</ele>
        <time>2021-11-24T14:51:28.000Z</time>
      </trkpt>
      <trkpt lat="43.52031" lon="6.36709">
        <ele>251</ele>
        <time>2021-11-24T14:51:29.000Z</time>
      </trkpt>
      <trkpt lat="43.52032" lon="6.36708">
        <ele>251</ele>
        <time>2021-11-24T14:51:30.000Z</time>
      </trkpt>
      <trkpt lat="43.52033" lon="6.36706">
        <ele>251</ele>
        <time>2021-11-24T14:51:31.000Z</time>
      </trkpt>
      <trkpt lat="43.52035" lon="6.36705">
        <ele>251</ele>
        <time>2021-11-24T14:51:32.000Z</time>
      </trkpt>
      <trkpt lat="43.52036" lon="6.36704">
        <ele>251</ele>
        <time>2021-11-24T14:51:33.000Z</time>
      </trkpt>
      <trkpt lat="43.52037" lon="6.36703">
        <ele>251</ele>
        <time>2021-11-24T14:51:34.000Z</time>
      </trkpt>
      <trkpt lat="43.52038" lon="6.36702">
        <ele>251</ele>
        <time>2021-11-24T14:51:35.000Z</time>
      </trkpt>
      <trkpt lat="43.52039" lon="6.36702">
        <ele>251</ele>
        <time>2021-11-24T14:51:36.000Z</time>
      </trkpt>
      <trkpt lat="43.52039" lon="6.36701">
        <ele>251</ele>
        <time>2021-11-24T14:51:37.000Z</time>
      </trkpt>
      <trkpt lat="43.5204" lon="6.36701">
        <ele>251</ele>
        <time>2021-11-24T14:51:38.000Z</time>
      </trkpt>
      <trkpt lat="43.52041" lon="6.36701">
        <ele>251</ele>
        <time>2021-11-24T14:51:39.000Z</time>
      </trkpt>
      <trkpt lat="43.52042" lon="6.367">
        <ele>251</ele>
        <time>2021-11-24T14:51:40.000Z</time>
      </trkpt>
      <trkpt lat="43.52043" lon="6.367">
        <ele>251</ele>
        <time>2021-11-24T14:51:41.000Z</time>
      </trkpt>
      <trkpt lat="43.52044" lon="6.367">
        <ele>251</ele>
        <time>2021-11-24T14:51:42.000Z</time>
      </trkpt>
      <trkpt lat="43.52044" lon="6.367">
        <ele>251</ele>
        <time>2021-11-24T14:51:43.000Z</time>
      </trkpt>
      <trkpt lat="43.52044" lon="6.367">
        <ele>251</ele>
        <time>2021-11-24T14:51:44.000Z</time>
      </trkpt>
      <trkpt lat="43.52045" lon="6.367">
        <ele>251</ele>
        <time>2021-11-24T14:51:45.000Z</time>
      </trkpt>
      <trkpt lat="43.52045" lon="6.367">
        <ele>251</ele>
        <time>2021-11-24T14:51:46.000Z</time>
      </trkpt>
      <trkpt lat="43.52046" lon="6.367">
        <ele>251</ele>
        <time>2021-11-24T14:51:47.000Z</time>
      </trkpt>
      <trkpt lat="43.52046" lon="6.367">
        <ele>251</ele>
        <time>2021-11-24T14:51:48.000Z</time>
      </trkpt>
      <trkpt lat="43.52047" lon="6.36701">
        <ele>251</ele>
        <time>2021-11-24T14:51:49.000Z</time>
      </trkpt>
      <trkpt lat="43.52048" lon="6.36702">
        <ele>251</ele>
        <time>2021-11-24T14:51:50.000Z</time>
      </trkpt>
      <trkpt lat="43.52048" lon="6.36702">
        <ele>251</ele>
        <time>2021-11-24T14:51:51.000Z</time>
      </trkpt>
      <trkpt lat="43.52049" lon="6.36703">
        <ele>251</ele>
        <time>2021-11-24T14:51:52.000Z</time>
      </trkpt>
      <trkpt lat="43.5205" lon="6.36703">
        <ele>251</ele>
        <time>2021-11-24T14:51:53.000Z</time>
      </trkpt>
      <trkpt lat="43.5205" lon="6.36703">
        <ele>251</ele>
        <time>2021-11-24T14:51:54.000Z</time>
      </trkpt>
      <trkpt lat="43.52051" lon="6.36704">
        <ele>251</ele>
        <time>2021-11-24T14:51:55.000Z</time>
      </trkpt>
      <trkpt lat="43.52052" lon="6.36704">
        <ele>251</ele>
        <time>2021-11-24T14:51:56.000Z</time>
      </trkpt>
      <trkpt lat="43.52052" lon="6.36701">
        <ele>251</ele>
        <time>2021-11-24T14:51:57.000Z</time>
      </trkpt>
      <trkpt lat="43.52052" lon="6.36699">
        <ele>251</ele>
        <time>2021-11-24T14:51:58.000Z</time>
      </trkpt>
      <trkpt lat="43.52052" lon="6.36699">
        <ele>251</ele>
        <time>2021-11-24T14:51:59.000Z</time>
      </trkpt>
      <trkpt lat="43.52053" lon="6.36699">
        <ele>250</ele>
        <time>2021-11-24T14:52:00.000Z</time>
      </trkpt>
      <trkpt lat="43.52053" lon="6.36699">
        <ele>250</ele>
        <time>2021-11-24T14:52:01.000Z</time>
      </trkpt>
      <trkpt lat="43.52053" lon="6.36699">
        <ele>250</ele>
        <time>2021-11-24T14:52:02.000Z</time>
      </trkpt>
      <trkpt lat="43.52054" lon="6.36699">
        <ele>250</ele>
        <time>2021-11-24T14:52:03.000Z</time>
      </trkpt>
      <trkpt lat="43.52054" lon="6.367">
        <ele>250</ele>
        <time>2021-11-24T14:52:04.000Z</time>
      </trkpt>
      <trkpt lat="43.52054" lon="6.367">
        <ele>250</ele>
        <time>2021-11-24T14:52:05.000Z</time>
      </trkpt>
      <trkpt lat="43.52054" lon="6.367">
        <ele>250</ele>
        <time>2021-11-24T14:52:06.000Z</time>
      </trkpt>
      <trkpt lat="43.52055" lon="6.36701">
        <ele>250</ele>
        <time>2021-11-24T14:52:07.000Z</time>
      </trkpt>
      <trkpt lat="43.52056" lon="6.36702">
        <ele>250</ele>
        <time>2021-11-24T14:52:08.000Z</time>
      </trkpt>
      <trkpt lat="43.52057" lon="6.36702">
        <ele>250</ele>
        <time>2021-11-24T14:52:09.000Z</time>
      </trkpt>
      <trkpt lat="43.52058" lon="6.36702">
        <ele>250</ele>
        <time>2021-11-24T14:52:10.000Z</time>
      </trkpt>
      <trkpt lat="43.52059" lon="6.36703">
        <ele>250</ele>
        <time>2021-11-24T14:52:11.000Z</time>
      </trkpt>
      <trkpt lat="43.5206" lon="6.36703">
        <ele>250</ele>
        <time>2021-11-24T14:52:12.000Z</time>
      </trkpt>
      <trkpt lat="43.52061" lon="6.36703">
        <ele>250</ele>
        <time>2021-11-24T14:52:13.000Z</time>
      </trkpt>
      <trkpt lat="43.52062" lon="6.36703">
        <ele>251</ele>
        <time>2021-11-24T14:52:14.000Z</time>
      </trkpt>
      <trkpt lat="43.52063" lon="6.36703">
        <ele>251</ele>
        <time>2021-11-24T14:52:15.000Z</time>
      </trkpt>
      <trkpt lat="43.52064" lon="6.36704">
        <ele>251</ele>
        <time>2021-11-24T14:52:16.000Z</time>
      </trkpt>
      <trkpt lat="43.52065" lon="6.36704">
        <ele>251</ele>
        <time>2021-11-24T14:52:17.000Z</time>
      </trkpt>
      <trkpt lat="43.52066" lon="6.36704">
        <ele>251</ele>
        <time>2021-11-24T14:52:18.000Z</time>
      </trkpt>
      <trkpt lat="43.52067" lon="6.36704">
        <ele>251</ele>
        <time>2021-11-24T14:52:19.000Z</time>
      </trkpt>
      <trkpt lat="43.52069" lon="6.36704">
        <ele>251</ele>
        <time>2021-11-24T14:52:20.000Z</time>
      </trkpt>
      <trkpt lat="43.5207" lon="6.36704">
        <ele>252</ele>
        <time>2021-11-24T14:52:21.000Z</time>
      </trkpt>
      <trkpt lat="43.52072" lon="6.36704">
        <ele>252</ele>
        <time>2021-11-24T14:52:22.000Z</time>
      </trkpt>
      <trkpt lat="43.52073" lon="6.36703">
        <ele>252</ele>
        <time>2021-11-24T14:52:23.000Z</time>
      </trkpt>
      <trkpt lat="43.52074" lon="6.36703">
        <ele>252</ele>
        <time>2021-11-24T14:52:24.000Z</time>
      </trkpt>
      <trkpt lat="43.52074" lon="6.36703">
        <ele>252</ele>
        <time>2021-11-24T14:52:25.000Z</time>
      </trkpt>
      <trkpt lat="43.52075" lon="6.36702">
        <ele>252</ele>
        <time>2021-11-24T14:52:26.000Z</time>
      </trkpt>
      <trkpt lat="43.52076" lon="6.36702">
        <ele>252</ele>
        <time>2021-11-24T14:52:27.000Z</time>
      </trkpt>
      <trkpt lat="43.52077" lon="6.36702">
        <ele>252</ele>
        <time>2021-11-24T14:52:28.000Z</time>
      </trkpt>
      <trkpt lat="43.52078" lon="6.36703">
        <ele>252</ele>
        <time>2021-11-24T14:52:29.000Z</time>
      </trkpt>
      <trkpt lat="43.52079" lon="6.36703">
        <ele>252</ele>
        <time>2021-11-24T14:52:30.000Z</time>
      </trkpt>
      <trkpt lat="43.52079" lon="6.36704">
        <ele>253</ele>
        <time>2021-11-24T14:52:31.000Z</time>
      </trkpt>
      <trkpt lat="43.5208" lon="6.36706">
        <ele>253</ele>
        <time>2021-11-24T14:52:32.000Z</time>
      </trkpt>
      <trkpt lat="43.52082" lon="6.36707">
        <ele>253</ele>
        <time>2021-11-24T14:52:33.000Z</time>
      </trkpt>
      <trkpt lat="43.52083" lon="6.36708">
        <ele>253</ele>
        <time>2021-11-24T14:52:34.000Z</time>
      </trkpt>
      <trkpt lat="43.52084" lon="6.36709">
        <ele>254</ele>
        <time>2021-11-24T14:52:35.000Z</time>
      </trkpt>
      <trkpt lat="43.52085" lon="6.36709">
        <ele>254</ele>
        <time>2021-11-24T14:52:36.000Z</time>
      </trkpt>
      <trkpt lat="43.52086" lon="6.3671">
        <ele>254</ele>
        <time>2021-11-24T14:52:37.000Z</time>
      </trkpt>
      <trkpt lat="43.52087" lon="6.36711">
        <ele>254</ele>
        <time>2021-11-24T14:52:38.000Z</time>
      </trkpt>
      <trkpt lat="43.52088" lon="6.36712">
        <ele>254</ele>
        <time>2021-11-24T14:52:39.000Z</time>
      </trkpt>
      <trkpt lat="43.52089" lon="6.36713">
        <ele>254</ele>
        <time>2021-11-24T14:52:40.000Z</time>
      </trkpt>
      <trkpt lat="43.5209" lon="6.36714">
        <ele>254</ele>
        <time>2021-11-24T14:52:41.000Z</time>
      </trkpt>
      <trkpt lat="43.52091" lon="6.36715">
        <ele>254</ele>
        <time>2021-11-24T14:52:42.000Z</time>
      </trkpt>
      <trkpt lat="43.52092" lon="6.36715">
        <ele>254</ele>
        <time>2021-11-24T14:52:43.000Z</time>
      </trkpt>
      <trkpt lat="43.52093" lon="6.36716">
        <ele>254</ele>
        <time>2021-11-24T14:52:44.000Z</time>
      </trkpt>
      <trkpt lat="43.52094" lon="6.36716">
        <ele>254</ele>
        <time>2021-11-24T14:52:45.000Z</time>
      </trkpt>
      <trkpt lat="43.52095" lon="6.36717">
        <ele>254</ele>
        <time>2021-11-24T14:52:46.000Z</time>
      </trkpt>
      <trkpt lat="43.52096" lon="6.36717">
        <ele>254</ele>
        <time>2021-11-24T14:52:47.000Z</time>
      </trkpt>
      <trkpt lat="43.52097" lon="6.36717">
        <ele>254</ele>
        <time>2021-11-24T14:52:48.000Z</time>
      </trkpt>
      <trkpt lat="43.52098" lon="6.36718">
        <ele>254</ele>
        <time>2021-11-24T14:52:49.000Z</time>
      </trkpt>
      <trkpt lat="43.52099" lon="6.36718">
        <ele>254</ele>
        <time>2021-11-24T14:52:50.000Z</time>
      </trkpt>
      <trkpt lat="43.52099" lon="6.36719">
        <ele>254</ele>
        <time>2021-11-24T14:52:51.000Z</time>
      </trkpt>
      <trkpt lat="43.52099" lon="6.3672">
        <ele>254</ele>
        <time>2021-11-24T14:52:52.000Z</time>
      </trkpt>
      <trkpt lat="43.521" lon="6.36721">
        <ele>254</ele>
        <time>2021-11-24T14:52:53.000Z</time>
      </trkpt>
      <trkpt lat="43.521" lon="6.36722">
        <ele>254</ele>
        <time>2021-11-24T14:52:54.000Z</time>
      </trkpt>
      <trkpt lat="43.521" lon="6.36723">
        <ele>254</ele>
        <time>2021-11-24T14:52:55.000Z</time>
      </trkpt>
      <trkpt lat="43.52101" lon="6.36724">
        <ele>254</ele>
        <time>2021-11-24T14:52:56.000Z</time>
      </trkpt>
      <trkpt lat="43.52102" lon="6.36724">
        <ele>254</ele>
        <time>2021-11-24T14:52:57.000Z</time>
      </trkpt>
      <trkpt lat="43.52103" lon="6.36724">
        <ele>254</ele>
        <time>2021-11-24T14:52:58.000Z</time>
      </trkpt>
      <trkpt lat="43.52104" lon="6.36723">
        <ele>254</ele>
        <time>2021-11-24T14:52:59.000Z</time>
      </trkpt>
      <trkpt lat="43.52105" lon="6.36723">
        <ele>254</ele>
        <time>2021-11-24T14:53:00.000Z</time>
      </trkpt>
      <trkpt lat="43.52106" lon="6.36723">
        <ele>254</ele>
        <time>2021-11-24T14:53:01.000Z</time>
      </trkpt>
      <trkpt lat="43.52107" lon="6.36724">
        <ele>254</ele>
        <time>2021-11-24T14:53:02.000Z</time>
      </trkpt>
      <trkpt lat="43.52108" lon="6.36724">
        <ele>254</ele>
        <time>2021-11-24T14:53:03.000Z</time>
      </trkpt>
      <trkpt lat="43.5211" lon="6.36725">
        <ele>254</ele>
        <time>2021-11-24T14:53:04.000Z</time>
      </trkpt>
      <trkpt lat="43.52111" lon="6.36725">
        <ele>254</ele>
        <time>2021-11-24T14:53:05.000Z</time>
      </trkpt>
      <trkpt lat="43.52112" lon="6.36726">
        <ele>255</ele>
        <time>2021-11-24T14:53:06.000Z</time>
      </trkpt>
      <trkpt lat="43.52113" lon="6.36726">
        <ele>254</ele>
        <time>2021-11-24T14:53:07.000Z</time>
      </trkpt>
      <trkpt lat="43.52114" lon="6.36726">
        <ele>254</ele>
        <time>2021-11-24T14:53:08.000Z</time>
      </trkpt>
      <trkpt lat="43.52115" lon="6.36726">
        <ele>254</ele>
        <time>2021-11-24T14:53:09.000Z</time>
      </trkpt>
      <trkpt lat="43.52116" lon="6.36727">
        <ele>255</ele>
        <time>2021-11-24T14:53:10.000Z</time>
      </trkpt>
      <trkpt lat="43.52117" lon="6.36727">
        <ele>255</ele>
        <time>2021-11-24T14:53:11.000Z</time>
      </trkpt>
      <trkpt lat="43.52118" lon="6.36727">
        <ele>255</ele>
        <time>2021-11-24T14:53:12.000Z</time>
      </trkpt>
      <trkpt lat="43.52119" lon="6.36728">
        <ele>255</ele>
        <time>2021-11-24T14:53:13.000Z</time>
      </trkpt>
      <trkpt lat="43.5212" lon="6.36728">
        <ele>256</ele>
        <time>2021-11-24T14:53:14.000Z</time>
      </trkpt>
      <trkpt lat="43.52121" lon="6.36729">
        <ele>256</ele>
        <time>2021-11-24T14:53:15.000Z</time>
      </trkpt>
      <trkpt lat="43.52122" lon="6.36729">
        <ele>256</ele>
        <time>2021-11-24T14:53:16.000Z</time>
      </trkpt>
      <trkpt lat="43.52123" lon="6.3673">
        <ele>256</ele>
        <time>2021-11-24T14:53:17.000Z</time>
      </trkpt>
      <trkpt lat="43.52124" lon="6.3673">
        <ele>256</ele>
        <time>2021-11-24T14:53:18.000Z</time>
      </trkpt>
      <trkpt lat="43.52125" lon="6.36731">
        <ele>257</ele>
        <time>2021-11-24T14:53:19.000Z</time>
      </trkpt>
      <trkpt lat="43.52126" lon="6.36731">
        <ele>257</ele>
        <time>2021-11-24T14:53:20.000Z</time>
      </trkpt>
      <trkpt lat="43.52127" lon="6.36732">
        <ele>257</ele>
        <time>2021-11-24T14:53:21.000Z</time>
      </trkpt>
      <trkpt lat="43.52128" lon="6.36732">
        <ele>258</ele>
        <time>2021-11-24T14:53:22.000Z</time>
      </trkpt>
      <trkpt lat="43.5213" lon="6.36732">
        <ele>258</ele>
        <time>2021-11-24T14:53:23.000Z</time>
      </trkpt>
      <trkpt lat="43.52131" lon="6.36732">
        <ele>259</ele>
        <time>2021-11-24T14:53:24.000Z</time>
      </trkpt>
      <trkpt lat="43.52132" lon="6.36732">
        <ele>259</ele>
        <time>2021-11-24T14:53:25.000Z</time>
      </trkpt>
      <trkpt lat="43.52133" lon="6.36732">
        <ele>259</ele>
        <time>2021-11-24T14:53:26.000Z</time>
      </trkpt>
      <trkpt lat="43.52134" lon="6.36732">
        <ele>259</ele>
        <time>2021-11-24T14:53:27.000Z</time>
      </trkpt>
      <trkpt lat="43.52135" lon="6.36732">
        <ele>259</ele>
        <time>2021-11-24T14:53:28.000Z</time>
      </trkpt>
      <trkpt lat="43.52136" lon="6.36732">
        <ele>259</ele>
        <time>2021-11-24T14:53:29.000Z</time>
      </trkpt>
      <trkpt lat="43.52138" lon="6.36732">
        <ele>259</ele>
        <time>2021-11-24T14:53:30.000Z</time>
      </trkpt>
      <trkpt lat="43.52139" lon="6.36733">
        <ele>259</ele>
        <time>2021-11-24T14:53:31.000Z</time>
      </trkpt>
      <trkpt lat="43.52141" lon="6.36733">
        <ele>259</ele>
        <time>2021-11-24T14:53:32.000Z</time>
      </trkpt>
      <trkpt lat="43.52142" lon="6.36733">
        <ele>259</ele>
        <time>2021-11-24T14:53:33.000Z</time>
      </trkpt>
      <trkpt lat="43.52143" lon="6.36733">
        <ele>258</ele>
        <time>2021-11-24T14:53:34.000Z</time>
      </trkpt>
      <trkpt lat="43.52144" lon="6.36733">
        <ele>258</ele>
        <time>2021-11-24T14:53:35.000Z</time>
      </trkpt>
      <trkpt lat="43.52145" lon="6.36733">
        <ele>258</ele>
        <time>2021-11-24T14:53:36.000Z</time>
      </trkpt>
      <trkpt lat="43.52146" lon="6.36733">
        <ele>258</ele>
        <time>2021-11-24T14:53:37.000Z</time>
      </trkpt>
      <trkpt lat="43.52147" lon="6.36732">
        <ele>258</ele>
        <time>2021-11-24T14:53:38.000Z</time>
      </trkpt>
      <trkpt lat="43.52148" lon="6.36732">
        <ele>258</ele>
        <time>2021-11-24T14:53:39.000Z</time>
      </trkpt>
      <trkpt lat="43.52148" lon="6.36732">
        <ele>258</ele>
        <time>2021-11-24T14:53:40.000Z</time>
      </trkpt>
      <trkpt lat="43.52149" lon="6.36732">
        <ele>258</ele>
        <time>2021-11-24T14:53:41.000Z</time>
      </trkpt>
      <trkpt lat="43.5215" lon="6.36732">
        <ele>258</ele>
        <time>2021-11-24T14:53:42.000Z</time>
      </trkpt>
      <trkpt lat="43.52151" lon="6.36732">
        <ele>258</ele>
        <time>2021-11-24T14:53:43.000Z</time>
      </trkpt>
      <trkpt lat="43.52152" lon="6.36732">
        <ele>258</ele>
        <time>2021-11-24T14:53:44.000Z</time>
      </trkpt>
      <trkpt lat="43.52153" lon="6.36732">
        <ele>258</ele>
        <time>2021-11-24T14:53:45.000Z</time>
      </trkpt>
      <trkpt lat="43.52153" lon="6.36732">
        <ele>259</ele>
        <time>2021-11-24T14:53:46.000Z</time>
      </trkpt>
      <trkpt lat="43.52154" lon="6.36732">
        <ele>259</ele>
        <time>2021-11-24T14:53:47.000Z</time>
      </trkpt>
      <trkpt lat="43.52155" lon="6.36732">
        <ele>259</ele>
        <time>2021-11-24T14:53:48.000Z</time>
      </trkpt>
      <trkpt lat="43.52156" lon="6.36732">
        <ele>259</ele>
        <time>2021-11-24T14:53:49.000Z</time>
      </trkpt>
      <trkpt lat="43.52157" lon="6.36732">
        <ele>259</ele>
        <time>2021-11-24T14:53:50.000Z</time>
      </trkpt>
      <trkpt lat="43.52158" lon="6.36733">
        <ele>259</ele>
        <time>2021-11-24T14:53:51.000Z</time>
      </trkpt>
      <trkpt lat="43.52159" lon="6.36733">
        <ele>259</ele>
        <time>2021-11-24T14:53:52.000Z</time>
      </trkpt>
      <trkpt lat="43.5216" lon="6.36733">
        <ele>259</ele>
        <time>2021-11-24T14:53:53.000Z</time>
      </trkpt>
      <trkpt lat="43.52161" lon="6.36734">
        <ele>259</ele>
        <time>2021-11-24T14:53:54.000Z</time>
      </trkpt>
      <trkpt lat="43.52162" lon="6.36734">
        <ele>259</ele>
        <time>2021-11-24T14:53:55.000Z</time>
      </trkpt>
      <trkpt lat="43.52163" lon="6.36733">
        <ele>259</ele>
        <time>2021-11-24T14:53:56.000Z</time>
      </trkpt>
      <trkpt lat="43.52163" lon="6.36731">
        <ele>259</ele>
        <time>2021-11-24T14:53:57.000Z</time>
      </trkpt>
      <trkpt lat="43.52164" lon="6.36731">
        <ele>259</ele>
        <time>2021-11-24T14:53:58.000Z</time>
      </trkpt>
      <trkpt lat="43.52165" lon="6.36731">
        <ele>259</ele>
        <time>2021-11-24T14:53:59.000Z</time>
      </trkpt>
      <trkpt lat="43.52166" lon="6.3673">
        <ele>259</ele>
        <time>2021-11-24T14:54:00.000Z</time>
      </trkpt>
      <trkpt lat="43.52166" lon="6.3673">
        <ele>259</ele>
        <time>2021-11-24T14:54:01.000Z</time>
      </trkpt>
      <trkpt lat="43.52167" lon="6.3673">
        <ele>260</ele>
        <time>2021-11-24T14:54:02.000Z</time>
      </trkpt>
      <trkpt lat="43.52168" lon="6.36729">
        <ele>260</ele>
        <time>2021-11-24T14:54:03.000Z</time>
      </trkpt>
      <trkpt lat="43.52168" lon="6.36729">
        <ele>260</ele>
        <time>2021-11-24T14:54:04.000Z</time>
      </trkpt>
      <trkpt lat="43.52168" lon="6.36728">
        <ele>260</ele>
        <time>2021-11-24T14:54:05.000Z</time>
      </trkpt>
      <trkpt lat="43.52169" lon="6.36728">
        <ele>260</ele>
        <time>2021-11-24T14:54:06.000Z</time>
      </trkpt>
      <trkpt lat="43.52169" lon="6.36728">
        <ele>260</ele>
        <time>2021-11-24T14:54:07.000Z</time>
      </trkpt>
      <trkpt lat="43.52169" lon="6.36728">
        <ele>260</ele>
        <time>2021-11-24T14:54:08.000Z</time>
      </trkpt>
      <trkpt lat="43.52169" lon="6.36728">
        <ele>260</ele>
        <time>2021-11-24T14:54:09.000Z</time>
      </trkpt>
      <trkpt lat="43.52169" lon="6.36728">
        <ele>260</ele>
        <time>2021-11-24T14:54:10.000Z</time>
      </trkpt>
      <trkpt lat="43.52169" lon="6.36727">
        <ele>260</ele>
        <time>2021-11-24T14:54:11.000Z</time>
      </trkpt>
      <trkpt lat="43.5217" lon="6.36727">
        <ele>260</ele>
        <time>2021-11-24T14:54:12.000Z</time>
      </trkpt>
      <trkpt lat="43.5217" lon="6.36727">
        <ele>260</ele>
        <time>2021-11-24T14:54:13.000Z</time>
      </trkpt>
      <trkpt lat="43.5217" lon="6.36726">
        <ele>260</ele>
        <time>2021-11-24T14:54:14.000Z</time>
      </trkpt>
      <trkpt lat="43.5217" lon="6.36726">
        <ele>260</ele>
        <time>2021-11-24T14:54:15.000Z</time>
      </trkpt>
      <trkpt lat="43.5217" lon="6.36726">
        <ele>260</ele>
        <time>2021-11-24T14:54:16.000Z</time>
      </trkpt>
      <trkpt lat="43.5217" lon="6.36726">
        <ele>260</ele>
        <time>2021-11-24T14:54:17.000Z</time>
      </trkpt>
      <trkpt lat="43.5217" lon="6.36726">
        <ele>260</ele>
        <time>2021-11-24T14:54:18.000Z</time>
      </trkpt>
      <trkpt lat="43.5217" lon="6.36726">
        <ele>260</ele>
        <time>2021-11-24T14:54:19.000Z</time>
      </trkpt>
      <trkpt lat="43.5217" lon="6.36726">
        <ele>260</ele>
        <time>2021-11-24T14:54:20.000Z</time>
      </trkpt>
      <trkpt lat="43.52172" lon="6.36725">
        <ele>260</ele>
        <time>2021-11-24T14:54:21.000Z</time>
      </trkpt>
      <trkpt lat="43.52174" lon="6.36724">
        <ele>260</ele>
        <time>2021-11-24T14:54:22.000Z</time>
      </trkpt>
      <trkpt lat="43.52174" lon="6.36725">
        <ele>260</ele>
        <time>2021-11-24T14:54:23.000Z</time>
      </trkpt>
      <trkpt lat="43.52175" lon="6.36725">
        <ele>260</ele>
        <time>2021-11-24T14:54:24.000Z</time>
      </trkpt>
      <trkpt lat="43.52175" lon="6.36726">
        <ele>260</ele>
        <time>2021-11-24T14:54:25.000Z</time>
      </trkpt>
      <trkpt lat="43.52176" lon="6.36727">
        <ele>260</ele>
        <time>2021-11-24T14:54:26.000Z</time>
      </trkpt>
      <trkpt lat="43.52177" lon="6.36727">
        <ele>260</ele>
        <time>2021-11-24T14:54:27.000Z</time>
      </trkpt>
      <trkpt lat="43.52178" lon="6.36728">
        <ele>260</ele>
        <time>2021-11-24T14:54:28.000Z</time>
      </trkpt>
      <trkpt lat="43.52179" lon="6.36729">
        <ele>260</ele>
        <time>2021-11-24T14:54:29.000Z</time>
      </trkpt>
      <trkpt lat="43.5218" lon="6.3673">
        <ele>260</ele>
        <time>2021-11-24T14:54:30.000Z</time>
      </trkpt>
      <trkpt lat="43.52181" lon="6.36731">
        <ele>259</ele>
        <time>2021-11-24T14:54:31.000Z</time>
      </trkpt>
      <trkpt lat="43.52182" lon="6.36732">
        <ele>259</ele>
        <time>2021-11-24T14:54:32.000Z</time>
      </trkpt>
      <trkpt lat="43.52183" lon="6.36733">
        <ele>259</ele>
        <time>2021-11-24T14:54:33.000Z</time>
      </trkpt>
      <trkpt lat="43.52184" lon="6.36733">
        <ele>259</ele>
        <time>2021-11-24T14:54:34.000Z</time>
      </trkpt>
      <trkpt lat="43.52185" lon="6.36734">
        <ele>259</ele>
        <time>2021-11-24T14:54:35.000Z</time>
      </trkpt>
      <trkpt lat="43.52186" lon="6.36734">
        <ele>259</ele>
        <time>2021-11-24T14:54:36.000Z</time>
      </trkpt>
      <trkpt lat="43.52187" lon="6.36734">
        <ele>259</ele>
        <time>2021-11-24T14:54:37.000Z</time>
      </trkpt>
      <trkpt lat="43.52189" lon="6.36734">
        <ele>259</ele>
        <time>2021-11-24T14:54:38.000Z</time>
      </trkpt>
      <trkpt lat="43.5219" lon="6.36735">
        <ele>259</ele>
        <time>2021-11-24T14:54:39.000Z</time>
      </trkpt>
      <trkpt lat="43.52191" lon="6.36735">
        <ele>259</ele>
        <time>2021-11-24T14:54:40.000Z</time>
      </trkpt>
      <trkpt lat="43.52191" lon="6.36735">
        <ele>258</ele>
        <time>2021-11-24T14:54:41.000Z</time>
      </trkpt>
      <trkpt lat="43.52192" lon="6.36735">
        <ele>258</ele>
        <time>2021-11-24T14:54:42.000Z</time>
      </trkpt>
      <trkpt lat="43.52194" lon="6.36735">
        <ele>258</ele>
        <time>2021-11-24T14:54:43.000Z</time>
      </trkpt>
      <trkpt lat="43.52195" lon="6.36736">
        <ele>258</ele>
        <time>2021-11-24T14:54:44.000Z</time>
      </trkpt>
      <trkpt lat="43.52197" lon="6.36736">
        <ele>258</ele>
        <time>2021-11-24T14:54:45.000Z</time>
      </trkpt>
      <trkpt lat="43.52198" lon="6.36737">
        <ele>258</ele>
        <time>2021-11-24T14:54:46.000Z</time>
      </trkpt>
      <trkpt lat="43.52199" lon="6.36737">
        <ele>258</ele>
        <time>2021-11-24T14:54:47.000Z</time>
      </trkpt>
      <trkpt lat="43.52201" lon="6.36738">
        <ele>258</ele>
        <time>2021-11-24T14:54:48.000Z</time>
      </trkpt>
      <trkpt lat="43.52202" lon="6.36739">
        <ele>258</ele>
        <time>2021-11-24T14:54:49.000Z</time>
      </trkpt>
      <trkpt lat="43.52203" lon="6.36739">
        <ele>258</ele>
        <time>2021-11-24T14:54:50.000Z</time>
      </trkpt>
      <trkpt lat="43.52204" lon="6.3674">
        <ele>258</ele>
        <time>2021-11-24T14:54:51.000Z</time>
      </trkpt>
      <trkpt lat="43.52205" lon="6.3674">
        <ele>258</ele>
        <time>2021-11-24T14:54:52.000Z</time>
      </trkpt>
      <trkpt lat="43.52206" lon="6.36741">
        <ele>258</ele>
        <time>2021-11-24T14:54:53.000Z</time>
      </trkpt>
      <trkpt lat="43.52206" lon="6.36741">
        <ele>258</ele>
        <time>2021-11-24T14:54:54.000Z</time>
      </trkpt>
      <trkpt lat="43.52206" lon="6.36741">
        <ele>258</ele>
        <time>2021-11-24T14:54:55.000Z</time>
      </trkpt>
      <trkpt lat="43.52206" lon="6.36741">
        <ele>258</ele>
        <time>2021-11-24T14:54:56.000Z</time>
      </trkpt>
      <trkpt lat="43.52206" lon="6.36741">
        <ele>258</ele>
        <time>2021-11-24T14:54:57.000Z</time>
      </trkpt>
      <trkpt lat="43.52209" lon="6.36743">
        <ele>258</ele>
        <time>2021-11-24T14:54:58.000Z</time>
      </trkpt>
      <trkpt lat="43.52209" lon="6.36744">
        <ele>258</ele>
        <time>2021-11-24T14:54:59.000Z</time>
      </trkpt>
      <trkpt lat="43.5221" lon="6.36744">
        <ele>258</ele>
        <time>2021-11-24T14:55:00.000Z</time>
      </trkpt>
      <trkpt lat="43.52211" lon="6.36745">
        <ele>258</ele>
        <time>2021-11-24T14:55:01.000Z</time>
      </trkpt>
      <trkpt lat="43.52211" lon="6.36746">
        <ele>258</ele>
        <time>2021-11-24T14:55:02.000Z</time>
      </trkpt>
      <trkpt lat="43.52212" lon="6.36747">
        <ele>258</ele>
        <time>2021-11-24T14:55:03.000Z</time>
      </trkpt>
      <trkpt lat="43.52213" lon="6.36747">
        <ele>258</ele>
        <time>2021-11-24T14:55:04.000Z</time>
      </trkpt>
      <trkpt lat="43.52213" lon="6.36747">
        <ele>258</ele>
        <time>2021-11-24T14:55:05.000Z</time>
      </trkpt>
      <trkpt lat="43.52213" lon="6.36748">
        <ele>258</ele>
        <time>2021-11-24T14:55:06.000Z</time>
      </trkpt>
      <trkpt lat="43.52213" lon="6.36748">
        <ele>257</ele>
        <time>2021-11-24T14:55:07.000Z</time>
      </trkpt>
      <trkpt lat="43.52213" lon="6.36748">
        <ele>257</ele>
        <time>2021-11-24T14:55:08.000Z</time>
      </trkpt>
      <trkpt lat="43.52214" lon="6.36748">
        <ele>257</ele>
        <time>2021-11-24T14:55:09.000Z</time>
      </trkpt>
      <trkpt lat="43.52214" lon="6.36749">
        <ele>257</ele>
        <time>2021-11-24T14:55:10.000Z</time>
      </trkpt>
      <trkpt lat="43.52215" lon="6.36749">
        <ele>257</ele>
        <time>2021-11-24T14:55:11.000Z</time>
      </trkpt>
      <trkpt lat="43.52216" lon="6.3675">
        <ele>257</ele>
        <time>2021-11-24T14:55:12.000Z</time>
      </trkpt>
      <trkpt lat="43.52217" lon="6.36751">
        <ele>257</ele>
        <time>2021-11-24T14:55:13.000Z</time>
      </trkpt>
      <trkpt lat="43.52218" lon="6.36752">
        <ele>257</ele>
        <time>2021-11-24T14:55:14.000Z</time>
      </trkpt>
      <trkpt lat="43.52219" lon="6.36753">
        <ele>257</ele>
        <time>2021-11-24T14:55:15.000Z</time>
      </trkpt>
      <trkpt lat="43.52219" lon="6.36753">
        <ele>257</ele>
        <time>2021-11-24T14:55:16.000Z</time>
      </trkpt>
      <trkpt lat="43.5222" lon="6.36754">
        <ele>257</ele>
        <time>2021-11-24T14:55:17.000Z</time>
      </trkpt>
      <trkpt lat="43.5222" lon="6.36754">
        <ele>257</ele>
        <time>2021-11-24T14:55:18.000Z</time>
      </trkpt>
      <trkpt lat="43.5222" lon="6.36754">
        <ele>257</ele>
        <time>2021-11-24T14:55:19.000Z</time>
      </trkpt>
      <trkpt lat="43.5222" lon="6.36754">
        <ele>257</ele>
        <time>2021-11-24T14:55:20.000Z</time>
      </trkpt>
      <trkpt lat="43.5222" lon="6.36754">
        <ele>257</ele>
        <time>2021-11-24T14:55:21.000Z</time>
      </trkpt>
      <trkpt lat="43.5222" lon="6.36754">
        <ele>257</ele>
        <time>2021-11-24T14:55:22.000Z</time>
      </trkpt>
      <trkpt lat="43.5222" lon="6.36754">
        <ele>257</ele>
        <time>2021-11-24T14:55:23.000Z</time>
      </trkpt>
      <trkpt lat="43.5222" lon="6.36754">
        <ele>257</ele>
        <time>2021-11-24T14:55:24.000Z</time>
      </trkpt>
      <trkpt lat="43.5222" lon="6.36755">
        <ele>257</ele>
        <time>2021-11-24T14:55:25.000Z</time>
      </trkpt>
      <trkpt lat="43.52221" lon="6.36755">
        <ele>257</ele>
        <time>2021-11-24T14:55:26.000Z</time>
      </trkpt>
      <trkpt lat="43.52221" lon="6.36755">
        <ele>257</ele>
        <time>2021-11-24T14:55:27.000Z</time>
      </trkpt>
      <trkpt lat="43.52221" lon="6.36755">
        <ele>257</ele>
        <time>2021-11-24T14:55:28.000Z</time>
      </trkpt>
      <trkpt lat="43.52221" lon="6.36755">
        <ele>257</ele>
        <time>2021-11-24T14:55:29.000Z</time>
      </trkpt>
      <trkpt lat="43.52221" lon="6.36756">
        <ele>257</ele>
        <time>2021-11-24T14:55:30.000Z</time>
      </trkpt>
      <trkpt lat="43.52221" lon="6.36756">
        <ele>257</ele>
        <time>2021-11-24T14:55:31.000Z</time>
      </trkpt>
      <trkpt lat="43.52221" lon="6.36756">
        <ele>257</ele>
        <time>2021-11-24T14:55:32.000Z</time>
      </trkpt>
      <trkpt lat="43.52221" lon="6.36756">
        <ele>257</ele>
        <time>2021-11-24T14:55:33.000Z</time>
      </trkpt>
      <trkpt lat="43.52221" lon="6.36756">
        <ele>257</ele>
        <time>2021-11-24T14:55:34.000Z</time>
      </trkpt>
      <trkpt lat="43.52221" lon="6.36756">
        <ele>257</ele>
        <time>2021-11-24T14:55:35.000Z</time>
      </trkpt>
      <trkpt lat="43.52221" lon="6.36756">
        <ele>257</ele>
        <time>2021-11-24T14:55:36.000Z</time>
      </trkpt>
      <trkpt lat="43.52221" lon="6.36756">
        <ele>257</ele>
        <time>2021-11-24T14:55:37.000Z</time>
      </trkpt>
      <trkpt lat="43.52221" lon="6.36756">
        <ele>257</ele>
        <time>2021-11-24T14:55:38.000Z</time>
      </trkpt>
      <trkpt lat="43.52221" lon="6.36756">
        <ele>257</ele>
        <time>2021-11-24T14:55:39.000Z</time>
      </trkpt>
      <trkpt lat="43.52221" lon="6.36756">
        <ele>257</ele>
        <time>2021-11-24T14:55:40.000Z</time>
      </trkpt>
      <trkpt lat="43.52221" lon="6.36756">
        <ele>257</ele>
        <time>2021-11-24T14:55:41.000Z</time>
      </trkpt>
      <trkpt lat="43.52221" lon="6.36756">
        <ele>257</ele>
        <time>2021-11-24T14:55:42.000Z</time>
      </trkpt>
      <trkpt lat="43.52221" lon="6.36756">
        <ele>257</ele>
        <time>2021-11-24T14:55:43.000Z</time>
      </trkpt>
      <trkpt lat="43.52221" lon="6.36756">
        <ele>257</ele>
        <time>2021-11-24T14:55:44.000Z</time>
      </trkpt>
      <trkpt lat="43.52221" lon="6.36756">
        <ele>257</ele>
        <time>2021-11-24T14:55:45.000Z</time>
      </trkpt>
      <trkpt lat="43.52221" lon="6.36756">
        <ele>257</ele>
        <time>2021-11-24T14:55:46.000Z</time>
      </trkpt>
      <trkpt lat="43.52221" lon="6.36756">
        <ele>257</ele>
        <time>2021-11-24T14:55:47.000Z</time>
      </trkpt>
      <trkpt lat="43.52221" lon="6.36756">
        <ele>257</ele>
        <time>2021-11-24T14:55:48.000Z</time>
      </trkpt>
      <trkpt lat="43.52221" lon="6.36756">
        <ele>257</ele>
        <time>2021-11-24T14:55:49.000Z</time>
      </trkpt>
      <trkpt lat="43.52221" lon="6.36757">
        <ele>257</ele>
        <time>2021-11-24T14:55:50.000Z</time>
      </trkpt>
      <trkpt lat="43.52224" lon="6.36758">
        <ele>258</ele>
        <time>2021-11-24T14:55:51.000Z</time>
      </trkpt>
      <trkpt lat="43.52225" lon="6.36759">
        <ele>258</ele>
        <time>2021-11-24T14:55:52.000Z</time>
      </trkpt>
      <trkpt lat="43.52227" lon="6.36759">
        <ele>258</ele>
        <time>2021-11-24T14:55:53.000Z</time>
      </trkpt>
      <trkpt lat="43.52228" lon="6.36759">
        <ele>258</ele>
        <time>2021-11-24T14:55:54.000Z</time>
      </trkpt>
      <trkpt lat="43.52229" lon="6.3676">
        <ele>259</ele>
        <time>2021-11-24T14:55:55.000Z</time>
      </trkpt>
      <trkpt lat="43.5223" lon="6.3676">
        <ele>259</ele>
        <time>2021-11-24T14:55:56.000Z</time>
      </trkpt>
      <trkpt lat="43.52231" lon="6.3676">
        <ele>259</ele>
        <time>2021-11-24T14:55:57.000Z</time>
      </trkpt>
      <trkpt lat="43.52232" lon="6.36761">
        <ele>259</ele>
        <time>2021-11-24T14:55:58.000Z</time>
      </trkpt>
      <trkpt lat="43.52233" lon="6.36761">
        <ele>259</ele>
        <time>2021-11-24T14:55:59.000Z</time>
      </trkpt>
      <trkpt lat="43.52234" lon="6.36761">
        <ele>259</ele>
        <time>2021-11-24T14:56:00.000Z</time>
      </trkpt>
      <trkpt lat="43.52236" lon="6.36761">
        <ele>259</ele>
        <time>2021-11-24T14:56:01.000Z</time>
      </trkpt>
      <trkpt lat="43.52237" lon="6.36762">
        <ele>259</ele>
        <time>2021-11-24T14:56:02.000Z</time>
      </trkpt>
      <trkpt lat="43.52238" lon="6.36763">
        <ele>259</ele>
        <time>2021-11-24T14:56:03.000Z</time>
      </trkpt>
      <trkpt lat="43.52239" lon="6.36764">
        <ele>259</ele>
        <time>2021-11-24T14:56:04.000Z</time>
      </trkpt>
      <trkpt lat="43.5224" lon="6.36765">
        <ele>259</ele>
        <time>2021-11-24T14:56:05.000Z</time>
      </trkpt>
      <trkpt lat="43.52241" lon="6.36766">
        <ele>259</ele>
        <time>2021-11-24T14:56:06.000Z</time>
      </trkpt>
      <trkpt lat="43.52242" lon="6.36766">
        <ele>259</ele>
        <time>2021-11-24T14:56:07.000Z</time>
      </trkpt>
      <trkpt lat="43.52244" lon="6.36767">
        <ele>259</ele>
        <time>2021-11-24T14:56:08.000Z</time>
      </trkpt>
      <trkpt lat="43.52245" lon="6.36767">
        <ele>259</ele>
        <time>2021-11-24T14:56:09.000Z</time>
      </trkpt>
      <trkpt lat="43.52246" lon="6.36768">
        <ele>259</ele>
        <time>2021-11-24T14:56:10.000Z</time>
      </trkpt>
      <trkpt lat="43.52247" lon="6.36768">
        <ele>259</ele>
        <time>2021-11-24T14:56:11.000Z</time>
      </trkpt>
      <trkpt lat="43.52249" lon="6.36768">
        <ele>259</ele>
        <time>2021-11-24T14:56:12.000Z</time>
      </trkpt>
      <trkpt lat="43.5225" lon="6.36769">
        <ele>259</ele>
        <time>2021-11-24T14:56:13.000Z</time>
      </trkpt>
      <trkpt lat="43.52251" lon="6.3677">
        <ele>259</ele>
        <time>2021-11-24T14:56:14.000Z</time>
      </trkpt>
      <trkpt lat="43.52252" lon="6.3677">
        <ele>259</ele>
        <time>2021-11-24T14:56:15.000Z</time>
      </trkpt>
      <trkpt lat="43.52253" lon="6.36771">
        <ele>259</ele>
        <time>2021-11-24T14:56:16.000Z</time>
      </trkpt>
      <trkpt lat="43.52254" lon="6.36771">
        <ele>258</ele>
        <time>2021-11-24T14:56:17.000Z</time>
      </trkpt>
      <trkpt lat="43.52255" lon="6.36771">
        <ele>258</ele>
        <time>2021-11-24T14:56:18.000Z</time>
      </trkpt>
      <trkpt lat="43.52256" lon="6.36771">
        <ele>258</ele>
        <time>2021-11-24T14:56:19.000Z</time>
      </trkpt>
      <trkpt lat="43.52257" lon="6.36772">
        <ele>258</ele>
        <time>2021-11-24T14:56:20.000Z</time>
      </trkpt>
      <trkpt lat="43.52258" lon="6.36772">
        <ele>258</ele>
        <time>2021-11-24T14:56:21.000Z</time>
      </trkpt>
      <trkpt lat="43.52259" lon="6.36772">
        <ele>258</ele>
        <time>2021-11-24T14:56:22.000Z</time>
      </trkpt>
      <trkpt lat="43.52259" lon="6.36772">
        <ele>258</ele>
        <time>2021-11-24T14:56:23.000Z</time>
      </trkpt>
      <trkpt lat="43.52259" lon="6.36772">
        <ele>258</ele>
        <time>2021-11-24T14:56:24.000Z</time>
      </trkpt>
      <trkpt lat="43.52259" lon="6.36772">
        <ele>258</ele>
        <time>2021-11-24T14:56:25.000Z</time>
      </trkpt>
      <trkpt lat="43.52262" lon="6.36774">
        <ele>258</ele>
        <time>2021-11-24T14:56:26.000Z</time>
      </trkpt>
      <trkpt lat="43.52263" lon="6.36774">
        <ele>258</ele>
        <time>2021-11-24T14:56:27.000Z</time>
      </trkpt>
      <trkpt lat="43.52265" lon="6.36774">
        <ele>258</ele>
        <time>2021-11-24T14:56:28.000Z</time>
      </trkpt>
      <trkpt lat="43.52266" lon="6.36775">
        <ele>258</ele>
        <time>2021-11-24T14:56:29.000Z</time>
      </trkpt>
      <trkpt lat="43.52267" lon="6.36775">
        <ele>258</ele>
        <time>2021-11-24T14:56:30.000Z</time>
      </trkpt>
      <trkpt lat="43.52268" lon="6.36776">
        <ele>258</ele>
        <time>2021-11-24T14:56:31.000Z</time>
      </trkpt>
      <trkpt lat="43.52269" lon="6.36776">
        <ele>258</ele>
        <time>2021-11-24T14:56:32.000Z</time>
      </trkpt>
      <trkpt lat="43.5227" lon="6.36777">
        <ele>258</ele>
        <time>2021-11-24T14:56:33.000Z</time>
      </trkpt>
      <trkpt lat="43.52271" lon="6.36777">
        <ele>259</ele>
        <time>2021-11-24T14:56:34.000Z</time>
      </trkpt>
      <trkpt lat="43.52272" lon="6.36778">
        <ele>259</ele>
        <time>2021-11-24T14:56:35.000Z</time>
      </trkpt>
      <trkpt lat="43.52273" lon="6.36778">
        <ele>259</ele>
        <time>2021-11-24T14:56:36.000Z</time>
      </trkpt>
      <trkpt lat="43.52274" lon="6.36779">
        <ele>259</ele>
        <time>2021-11-24T14:56:37.000Z</time>
      </trkpt>
      <trkpt lat="43.52275" lon="6.36779">
        <ele>259</ele>
        <time>2021-11-24T14:56:38.000Z</time>
      </trkpt>
      <trkpt lat="43.52276" lon="6.3678">
        <ele>259</ele>
        <time>2021-11-24T14:56:39.000Z</time>
      </trkpt>
      <trkpt lat="43.52277" lon="6.3678">
        <ele>259</ele>
        <time>2021-11-24T14:56:40.000Z</time>
      </trkpt>
      <trkpt lat="43.52278" lon="6.3678">
        <ele>259</ele>
        <time>2021-11-24T14:56:41.000Z</time>
      </trkpt>
      <trkpt lat="43.52279" lon="6.36781">
        <ele>259</ele>
        <time>2021-11-24T14:56:42.000Z</time>
      </trkpt>
      <trkpt lat="43.52281" lon="6.36782">
        <ele>259</ele>
        <time>2021-11-24T14:56:43.000Z</time>
      </trkpt>
      <trkpt lat="43.52282" lon="6.36783">
        <ele>260</ele>
        <time>2021-11-24T14:56:44.000Z</time>
      </trkpt>
      <trkpt lat="43.52284" lon="6.36784">
        <ele>260</ele>
        <time>2021-11-24T14:56:45.000Z</time>
      </trkpt>
      <trkpt lat="43.52285" lon="6.36784">
        <ele>260</ele>
        <time>2021-11-24T14:56:46.000Z</time>
      </trkpt>
      <trkpt lat="43.52286" lon="6.36785">
        <ele>260</ele>
        <time>2021-11-24T14:56:47.000Z</time>
      </trkpt>
      <trkpt lat="43.52287" lon="6.36786">
        <ele>260</ele>
        <time>2021-11-24T14:56:48.000Z</time>
      </trkpt>
      <trkpt lat="43.52288" lon="6.36786">
        <ele>260</ele>
        <time>2021-11-24T14:56:49.000Z</time>
      </trkpt>
      <trkpt lat="43.52289" lon="6.36787">
        <ele>260</ele>
        <time>2021-11-24T14:56:50.000Z</time>
      </trkpt>
      <trkpt lat="43.5229" lon="6.36787">
        <ele>260</ele>
        <time>2021-11-24T14:56:51.000Z</time>
      </trkpt>
      <trkpt lat="43.52291" lon="6.36787">
        <ele>260</ele>
        <time>2021-11-24T14:56:52.000Z</time>
      </trkpt>
      <trkpt lat="43.52292" lon="6.36788">
        <ele>260</ele>
        <time>2021-11-24T14:56:53.000Z</time>
      </trkpt>
      <trkpt lat="43.52293" lon="6.36789">
        <ele>260</ele>
        <time>2021-11-24T14:56:54.000Z</time>
      </trkpt>
      <trkpt lat="43.52294" lon="6.36789">
        <ele>260</ele>
        <time>2021-11-24T14:56:55.000Z</time>
      </trkpt>
      <trkpt lat="43.52295" lon="6.3679">
        <ele>260</ele>
        <time>2021-11-24T14:56:56.000Z</time>
      </trkpt>
      <trkpt lat="43.52296" lon="6.3679">
        <ele>260</ele>
        <time>2021-11-24T14:56:57.000Z</time>
      </trkpt>
      <trkpt lat="43.52297" lon="6.36791">
        <ele>260</ele>
        <time>2021-11-24T14:56:58.000Z</time>
      </trkpt>
      <trkpt lat="43.52297" lon="6.36792">
        <ele>260</ele>
        <time>2021-11-24T14:56:59.000Z</time>
      </trkpt>
      <trkpt lat="43.52298" lon="6.36793">
        <ele>260</ele>
        <time>2021-11-24T14:57:00.000Z</time>
      </trkpt>
      <trkpt lat="43.52299" lon="6.36794">
        <ele>261</ele>
        <time>2021-11-24T14:57:01.000Z</time>
      </trkpt>
      <trkpt lat="43.523" lon="6.36794">
        <ele>261</ele>
        <time>2021-11-24T14:57:02.000Z</time>
      </trkpt>
      <trkpt lat="43.523" lon="6.36796">
        <ele>261</ele>
        <time>2021-11-24T14:57:03.000Z</time>
      </trkpt>
      <trkpt lat="43.52301" lon="6.36797">
        <ele>261</ele>
        <time>2021-11-24T14:57:04.000Z</time>
      </trkpt>
      <trkpt lat="43.52302" lon="6.36798">
        <ele>261</ele>
        <time>2021-11-24T14:57:05.000Z</time>
      </trkpt>
      <trkpt lat="43.52302" lon="6.36799">
        <ele>261</ele>
        <time>2021-11-24T14:57:06.000Z</time>
      </trkpt>
      <trkpt lat="43.52303" lon="6.368">
        <ele>261</ele>
        <time>2021-11-24T14:57:07.000Z</time>
      </trkpt>
      <trkpt lat="43.52303" lon="6.36801">
        <ele>261</ele>
        <time>2021-11-24T14:57:08.000Z</time>
      </trkpt>
      <trkpt lat="43.52303" lon="6.36802">
        <ele>261</ele>
        <time>2021-11-24T14:57:09.000Z</time>
      </trkpt>
      <trkpt lat="43.52304" lon="6.36802">
        <ele>261</ele>
        <time>2021-11-24T14:57:10.000Z</time>
      </trkpt>
      <trkpt lat="43.52304" lon="6.36803">
        <ele>261</ele>
        <time>2021-11-24T14:57:11.000Z</time>
      </trkpt>
      <trkpt lat="43.52304" lon="6.36805">
        <ele>261</ele>
        <time>2021-11-24T14:57:12.000Z</time>
      </trkpt>
      <trkpt lat="43.52304" lon="6.36806">
        <ele>261</ele>
        <time>2021-11-24T14:57:13.000Z</time>
      </trkpt>
      <trkpt lat="43.52303" lon="6.36807">
        <ele>261</ele>
        <time>2021-11-24T14:57:14.000Z</time>
      </trkpt>
      <trkpt lat="43.52303" lon="6.36809">
        <ele>261</ele>
        <time>2021-11-24T14:57:15.000Z</time>
      </trkpt>
      <trkpt lat="43.52303" lon="6.3681">
        <ele>261</ele>
        <time>2021-11-24T14:57:16.000Z</time>
      </trkpt>
      <trkpt lat="43.52303" lon="6.36812">
        <ele>261</ele>
        <time>2021-11-24T14:57:17.000Z</time>
      </trkpt>
      <trkpt lat="43.52302" lon="6.36813">
        <ele>261</ele>
        <time>2021-11-24T14:57:18.000Z</time>
      </trkpt>
      <trkpt lat="43.52302" lon="6.36814">
        <ele>261</ele>
        <time>2021-11-24T14:57:19.000Z</time>
      </trkpt>
      <trkpt lat="43.52302" lon="6.36816">
        <ele>260</ele>
        <time>2021-11-24T14:57:20.000Z</time>
      </trkpt>
      <trkpt lat="43.52301" lon="6.36817">
        <ele>260</ele>
        <time>2021-11-24T14:57:21.000Z</time>
      </trkpt>
      <trkpt lat="43.52301" lon="6.36818">
        <ele>259</ele>
        <time>2021-11-24T14:57:22.000Z</time>
      </trkpt>
      <trkpt lat="43.523" lon="6.3682">
        <ele>259</ele>
        <time>2021-11-24T14:57:23.000Z</time>
      </trkpt>
      <trkpt lat="43.523" lon="6.36821">
        <ele>259</ele>
        <time>2021-11-24T14:57:24.000Z</time>
      </trkpt>
      <trkpt lat="43.52299" lon="6.36822">
        <ele>259</ele>
        <time>2021-11-24T14:57:25.000Z</time>
      </trkpt>
      <trkpt lat="43.52299" lon="6.36823">
        <ele>259</ele>
        <time>2021-11-24T14:57:26.000Z</time>
      </trkpt>
      <trkpt lat="43.52298" lon="6.36824">
        <ele>259</ele>
        <time>2021-11-24T14:57:27.000Z</time>
      </trkpt>
      <trkpt lat="43.52298" lon="6.36826">
        <ele>259</ele>
        <time>2021-11-24T14:57:28.000Z</time>
      </trkpt>
      <trkpt lat="43.52297" lon="6.36827">
        <ele>259</ele>
        <time>2021-11-24T14:57:29.000Z</time>
      </trkpt>
      <trkpt lat="43.52297" lon="6.36829">
        <ele>260</ele>
        <time>2021-11-24T14:57:30.000Z</time>
      </trkpt>
      <trkpt lat="43.52297" lon="6.3683">
        <ele>260</ele>
        <time>2021-11-24T14:57:31.000Z</time>
      </trkpt>
      <trkpt lat="43.52296" lon="6.36831">
        <ele>260</ele>
        <time>2021-11-24T14:57:32.000Z</time>
      </trkpt>
      <trkpt lat="43.52296" lon="6.36832">
        <ele>260</ele>
        <time>2021-11-24T14:57:33.000Z</time>
      </trkpt>
      <trkpt lat="43.52295" lon="6.36834">
        <ele>260</ele>
        <time>2021-11-24T14:57:34.000Z</time>
      </trkpt>
      <trkpt lat="43.52295" lon="6.36835">
        <ele>260</ele>
        <time>2021-11-24T14:57:35.000Z</time>
      </trkpt>
      <trkpt lat="43.52294" lon="6.36836">
        <ele>259</ele>
        <time>2021-11-24T14:57:36.000Z</time>
      </trkpt>
      <trkpt lat="43.52293" lon="6.36838">
        <ele>259</ele>
        <time>2021-11-24T14:57:37.000Z</time>
      </trkpt>
      <trkpt lat="43.52293" lon="6.36839">
        <ele>259</ele>
        <time>2021-11-24T14:57:38.000Z</time>
      </trkpt>
      <trkpt lat="43.52292" lon="6.3684">
        <ele>259</ele>
        <time>2021-11-24T14:57:39.000Z</time>
      </trkpt>
      <trkpt lat="43.52291" lon="6.36841">
        <ele>259</ele>
        <time>2021-11-24T14:57:40.000Z</time>
      </trkpt>
      <trkpt lat="43.52291" lon="6.36842">
        <ele>259</ele>
        <time>2021-11-24T14:57:41.000Z</time>
      </trkpt>
      <trkpt lat="43.5229" lon="6.36844">
        <ele>259</ele>
        <time>2021-11-24T14:57:42.000Z</time>
      </trkpt>
      <trkpt lat="43.52289" lon="6.36845">
        <ele>259</ele>
        <time>2021-11-24T14:57:43.000Z</time>
      </trkpt>
      <trkpt lat="43.52288" lon="6.36846">
        <ele>259</ele>
        <time>2021-11-24T14:57:44.000Z</time>
      </trkpt>
      <trkpt lat="43.52288" lon="6.36848">
        <ele>259</ele>
        <time>2021-11-24T14:57:45.000Z</time>
      </trkpt>
      <trkpt lat="43.52288" lon="6.36849">
        <ele>258</ele>
        <time>2021-11-24T14:57:46.000Z</time>
      </trkpt>
      <trkpt lat="43.52287" lon="6.36851">
        <ele>258</ele>
        <time>2021-11-24T14:57:47.000Z</time>
      </trkpt>
      <trkpt lat="43.52287" lon="6.36852">
        <ele>258</ele>
        <time>2021-11-24T14:57:48.000Z</time>
      </trkpt>
      <trkpt lat="43.52287" lon="6.36853">
        <ele>258</ele>
        <time>2021-11-24T14:57:49.000Z</time>
      </trkpt>
      <trkpt lat="43.52287" lon="6.36854">
        <ele>258</ele>
        <time>2021-11-24T14:57:50.000Z</time>
      </trkpt>
      <trkpt lat="43.52286" lon="6.36855">
        <ele>257</ele>
        <time>2021-11-24T14:57:51.000Z</time>
      </trkpt>
      <trkpt lat="43.52286" lon="6.36856">
        <ele>257</ele>
        <time>2021-11-24T14:57:52.000Z</time>
      </trkpt>
      <trkpt lat="43.52285" lon="6.36856">
        <ele>257</ele>
        <time>2021-11-24T14:57:53.000Z</time>
      </trkpt>
      <trkpt lat="43.52285" lon="6.36857">
        <ele>257</ele>
        <time>2021-11-24T14:57:54.000Z</time>
      </trkpt>
      <trkpt lat="43.52285" lon="6.36857">
        <ele>257</ele>
        <time>2021-11-24T14:57:55.000Z</time>
      </trkpt>
      <trkpt lat="43.52284" lon="6.36858">
        <ele>257</ele>
        <time>2021-11-24T14:57:56.000Z</time>
      </trkpt>
      <trkpt lat="43.52284" lon="6.3686">
        <ele>257</ele>
        <time>2021-11-24T14:57:57.000Z</time>
      </trkpt>
      <trkpt lat="43.52284" lon="6.36861">
        <ele>257</ele>
        <time>2021-11-24T14:57:58.000Z</time>
      </trkpt>
      <trkpt lat="43.52283" lon="6.36861">
        <ele>257</ele>
        <time>2021-11-24T14:57:59.000Z</time>
      </trkpt>
      <trkpt lat="43.52283" lon="6.36863">
        <ele>257</ele>
        <time>2021-11-24T14:58:00.000Z</time>
      </trkpt>
      <trkpt lat="43.52283" lon="6.36864">
        <ele>257</ele>
        <time>2021-11-24T14:58:01.000Z</time>
      </trkpt>
      <trkpt lat="43.52283" lon="6.36865">
        <ele>257</ele>
        <time>2021-11-24T14:58:02.000Z</time>
      </trkpt>
      <trkpt lat="43.52282" lon="6.36866">
        <ele>257</ele>
        <time>2021-11-24T14:58:03.000Z</time>
      </trkpt>
      <trkpt lat="43.52282" lon="6.36868">
        <ele>257</ele>
        <time>2021-11-24T14:58:04.000Z</time>
      </trkpt>
      <trkpt lat="43.52282" lon="6.36869">
        <ele>257</ele>
        <time>2021-11-24T14:58:05.000Z</time>
      </trkpt>
      <trkpt lat="43.52281" lon="6.3687">
        <ele>257</ele>
        <time>2021-11-24T14:58:06.000Z</time>
      </trkpt>
      <trkpt lat="43.52281" lon="6.36871">
        <ele>257</ele>
        <time>2021-11-24T14:58:07.000Z</time>
      </trkpt>
      <trkpt lat="43.52281" lon="6.36872">
        <ele>257</ele>
        <time>2021-11-24T14:58:08.000Z</time>
      </trkpt>
      <trkpt lat="43.5228" lon="6.36874">
        <ele>257</ele>
        <time>2021-11-24T14:58:09.000Z</time>
      </trkpt>
      <trkpt lat="43.5228" lon="6.36875">
        <ele>257</ele>
        <time>2021-11-24T14:58:10.000Z</time>
      </trkpt>
      <trkpt lat="43.52279" lon="6.36876">
        <ele>257</ele>
        <time>2021-11-24T14:58:11.000Z</time>
      </trkpt>
      <trkpt lat="43.52278" lon="6.36877">
        <ele>257</ele>
        <time>2021-11-24T14:58:12.000Z</time>
      </trkpt>
      <trkpt lat="43.52278" lon="6.36878">
        <ele>257</ele>
        <time>2021-11-24T14:58:13.000Z</time>
      </trkpt>
      <trkpt lat="43.52277" lon="6.36879">
        <ele>257</ele>
        <time>2021-11-24T14:58:14.000Z</time>
      </trkpt>
      <trkpt lat="43.52276" lon="6.3688">
        <ele>257</ele>
        <time>2021-11-24T14:58:15.000Z</time>
      </trkpt>
      <trkpt lat="43.52276" lon="6.36881">
        <ele>257</ele>
        <time>2021-11-24T14:58:16.000Z</time>
      </trkpt>
      <trkpt lat="43.52275" lon="6.36883">
        <ele>257</ele>
        <time>2021-11-24T14:58:17.000Z</time>
      </trkpt>
      <trkpt lat="43.52274" lon="6.36884">
        <ele>257</ele>
        <time>2021-11-24T14:58:18.000Z</time>
      </trkpt>
      <trkpt lat="43.52273" lon="6.36885">
        <ele>257</ele>
        <time>2021-11-24T14:58:19.000Z</time>
      </trkpt>
      <trkpt lat="43.52272" lon="6.36886">
        <ele>257</ele>
        <time>2021-11-24T14:58:20.000Z</time>
      </trkpt>
      <trkpt lat="43.52271" lon="6.36887">
        <ele>257</ele>
        <time>2021-11-24T14:58:21.000Z</time>
      </trkpt>
      <trkpt lat="43.5227" lon="6.36889">
        <ele>258</ele>
        <time>2021-11-24T14:58:22.000Z</time>
      </trkpt>
      <trkpt lat="43.52269" lon="6.36891">
        <ele>258</ele>
        <time>2021-11-24T14:58:23.000Z</time>
      </trkpt>
      <trkpt lat="43.52268" lon="6.36892">
        <ele>258</ele>
        <time>2021-11-24T14:58:24.000Z</time>
      </trkpt>
      <trkpt lat="43.52267" lon="6.36894">
        <ele>258</ele>
        <time>2021-11-24T14:58:25.000Z</time>
      </trkpt>
      <trkpt lat="43.52266" lon="6.36895">
        <ele>258</ele>
        <time>2021-11-24T14:58:26.000Z</time>
      </trkpt>
      <trkpt lat="43.52265" lon="6.36896">
        <ele>259</ele>
        <time>2021-11-24T14:58:27.000Z</time>
      </trkpt>
      <trkpt lat="43.52265" lon="6.36897">
        <ele>259</ele>
        <time>2021-11-24T14:58:28.000Z</time>
      </trkpt>
      <trkpt lat="43.52264" lon="6.36899">
        <ele>259</ele>
        <time>2021-11-24T14:58:29.000Z</time>
      </trkpt>
      <trkpt lat="43.52263" lon="6.369">
        <ele>259</ele>
        <time>2021-11-24T14:58:30.000Z</time>
      </trkpt>
      <trkpt lat="43.52262" lon="6.36901">
        <ele>260</ele>
        <time>2021-11-24T14:58:31.000Z</time>
      </trkpt>
      <trkpt lat="43.52261" lon="6.36902">
        <ele>260</ele>
        <time>2021-11-24T14:58:32.000Z</time>
      </trkpt>
      <trkpt lat="43.5226" lon="6.36903">
        <ele>260</ele>
        <time>2021-11-24T14:58:33.000Z</time>
      </trkpt>
      <trkpt lat="43.52259" lon="6.36904">
        <ele>260</ele>
        <time>2021-11-24T14:58:34.000Z</time>
      </trkpt>
      <trkpt lat="43.52259" lon="6.36905">
        <ele>260</ele>
        <time>2021-11-24T14:58:35.000Z</time>
      </trkpt>
      <trkpt lat="43.52258" lon="6.36907">
        <ele>260</ele>
        <time>2021-11-24T14:58:36.000Z</time>
      </trkpt>
      <trkpt lat="43.52257" lon="6.36908">
        <ele>261</ele>
        <time>2021-11-24T14:58:37.000Z</time>
      </trkpt>
      <trkpt lat="43.52257" lon="6.36909">
        <ele>261</ele>
        <time>2021-11-24T14:58:38.000Z</time>
      </trkpt>
      <trkpt lat="43.52256" lon="6.36911">
        <ele>261</ele>
        <time>2021-11-24T14:58:39.000Z</time>
      </trkpt>
      <trkpt lat="43.52255" lon="6.36912">
        <ele>261</ele>
        <time>2021-11-24T14:58:40.000Z</time>
      </trkpt>
      <trkpt lat="43.52254" lon="6.36913">
        <ele>261</ele>
        <time>2021-11-24T14:58:41.000Z</time>
      </trkpt>
      <trkpt lat="43.52254" lon="6.36915">
        <ele>261</ele>
        <time>2021-11-24T14:58:42.000Z</time>
      </trkpt>
      <trkpt lat="43.52253" lon="6.36916">
        <ele>261</ele>
        <time>2021-11-24T14:58:43.000Z</time>
      </trkpt>
      <trkpt lat="43.52252" lon="6.36917">
        <ele>260</ele>
        <time>2021-11-24T14:58:44.000Z</time>
      </trkpt>
      <trkpt lat="43.52251" lon="6.36918">
        <ele>260</ele>
        <time>2021-11-24T14:58:45.000Z</time>
      </trkpt>
      <trkpt lat="43.52251" lon="6.3692">
        <ele>260</ele>
        <time>2021-11-24T14:58:46.000Z</time>
      </trkpt>
      <trkpt lat="43.5225" lon="6.36921">
        <ele>260</ele>
        <time>2021-11-24T14:58:47.000Z</time>
      </trkpt>
      <trkpt lat="43.5225" lon="6.36922">
        <ele>260</ele>
        <time>2021-11-24T14:58:48.000Z</time>
      </trkpt>
      <trkpt lat="43.52249" lon="6.36923">
        <ele>260</ele>
        <time>2021-11-24T14:58:49.000Z</time>
      </trkpt>
      <trkpt lat="43.52248" lon="6.36924">
        <ele>259</ele>
        <time>2021-11-24T14:58:50.000Z</time>
      </trkpt>
      <trkpt lat="43.52247" lon="6.36925">
        <ele>259</ele>
        <time>2021-11-24T14:58:51.000Z</time>
      </trkpt>
      <trkpt lat="43.52246" lon="6.36926">
        <ele>259</ele>
        <time>2021-11-24T14:58:52.000Z</time>
      </trkpt>
      <trkpt lat="43.52246" lon="6.36927">
        <ele>259</ele>
        <time>2021-11-24T14:58:53.000Z</time>
      </trkpt>
      <trkpt lat="43.52245" lon="6.36928">
        <ele>259</ele>
        <time>2021-11-24T14:58:54.000Z</time>
      </trkpt>
      <trkpt lat="43.52244" lon="6.36929">
        <ele>259</ele>
        <time>2021-11-24T14:58:55.000Z</time>
      </trkpt>
      <trkpt lat="43.52244" lon="6.3693">
        <ele>259</ele>
        <time>2021-11-24T14:58:56.000Z</time>
      </trkpt>
      <trkpt lat="43.52243" lon="6.36931">
        <ele>259</ele>
        <time>2021-11-24T14:58:57.000Z</time>
      </trkpt>
      <trkpt lat="43.52243" lon="6.36933">
        <ele>259</ele>
        <time>2021-11-24T14:58:58.000Z</time>
      </trkpt>
      <trkpt lat="43.52243" lon="6.36934">
        <ele>259</ele>
        <time>2021-11-24T14:58:59.000Z</time>
      </trkpt>
      <trkpt lat="43.52243" lon="6.36936">
        <ele>259</ele>
        <time>2021-11-24T14:59:00.000Z</time>
      </trkpt>
      <trkpt lat="43.52242" lon="6.36937">
        <ele>259</ele>
        <time>2021-11-24T14:59:01.000Z</time>
      </trkpt>
      <trkpt lat="43.52242" lon="6.36938">
        <ele>259</ele>
        <time>2021-11-24T14:59:02.000Z</time>
      </trkpt>
      <trkpt lat="43.52242" lon="6.3694">
        <ele>258</ele>
        <time>2021-11-24T14:59:03.000Z</time>
      </trkpt>
      <trkpt lat="43.52242" lon="6.36941">
        <ele>258</ele>
        <time>2021-11-24T14:59:04.000Z</time>
      </trkpt>
      <trkpt lat="43.52241" lon="6.36942">
        <ele>258</ele>
        <time>2021-11-24T14:59:05.000Z</time>
      </trkpt>
      <trkpt lat="43.52241" lon="6.36944">
        <ele>258</ele>
        <time>2021-11-24T14:59:06.000Z</time>
      </trkpt>
      <trkpt lat="43.52241" lon="6.36945">
        <ele>258</ele>
        <time>2021-11-24T14:59:07.000Z</time>
      </trkpt>
      <trkpt lat="43.5224" lon="6.36946">
        <ele>258</ele>
        <time>2021-11-24T14:59:08.000Z</time>
      </trkpt>
      <trkpt lat="43.52239" lon="6.36948">
        <ele>258</ele>
        <time>2021-11-24T14:59:09.000Z</time>
      </trkpt>
      <trkpt lat="43.52238" lon="6.36948">
        <ele>256</ele>
        <time>2021-11-24T14:59:10.000Z</time>
      </trkpt>
      <trkpt lat="43.52237" lon="6.36949">
        <ele>256</ele>
        <time>2021-11-24T14:59:11.000Z</time>
      </trkpt>
      <trkpt lat="43.52236" lon="6.3695">
        <ele>256</ele>
        <time>2021-11-24T14:59:12.000Z</time>
      </trkpt>
      <trkpt lat="43.52235" lon="6.36951">
        <ele>256</ele>
        <time>2021-11-24T14:59:13.000Z</time>
      </trkpt>
      <trkpt lat="43.52234" lon="6.36952">
        <ele>256</ele>
        <time>2021-11-24T14:59:14.000Z</time>
      </trkpt>
      <trkpt lat="43.52233" lon="6.36953">
        <ele>256</ele>
        <time>2021-11-24T14:59:15.000Z</time>
      </trkpt>
      <trkpt lat="43.52232" lon="6.36954">
        <ele>256</ele>
        <time>2021-11-24T14:59:16.000Z</time>
      </trkpt>
      <trkpt lat="43.52231" lon="6.36955">
        <ele>256</ele>
        <time>2021-11-24T14:59:17.000Z</time>
      </trkpt>
      <trkpt lat="43.5223" lon="6.36955">
        <ele>255</ele>
        <time>2021-11-24T14:59:18.000Z</time>
      </trkpt>
      <trkpt lat="43.52229" lon="6.36955">
        <ele>255</ele>
        <time>2021-11-24T14:59:19.000Z</time>
      </trkpt>
      <trkpt lat="43.52228" lon="6.36956">
        <ele>255</ele>
        <time>2021-11-24T14:59:20.000Z</time>
      </trkpt>
      <trkpt lat="43.52226" lon="6.36956">
        <ele>255</ele>
        <time>2021-11-24T14:59:21.000Z</time>
      </trkpt>
      <trkpt lat="43.52225" lon="6.36956">
        <ele>255</ele>
        <time>2021-11-24T14:59:22.000Z</time>
      </trkpt>
      <trkpt lat="43.52224" lon="6.36957">
        <ele>255</ele>
        <time>2021-11-24T14:59:23.000Z</time>
      </trkpt>
      <trkpt lat="43.52223" lon="6.36958">
        <ele>255</ele>
        <time>2021-11-24T14:59:24.000Z</time>
      </trkpt>
      <trkpt lat="43.52222" lon="6.36959">
        <ele>255</ele>
        <time>2021-11-24T14:59:25.000Z</time>
      </trkpt>
      <trkpt lat="43.5222" lon="6.3696">
        <ele>255</ele>
        <time>2021-11-24T14:59:26.000Z</time>
      </trkpt>
      <trkpt lat="43.52219" lon="6.3696">
        <ele>255</ele>
        <time>2021-11-24T14:59:27.000Z</time>
      </trkpt>
      <trkpt lat="43.52218" lon="6.36961">
        <ele>255</ele>
        <time>2021-11-24T14:59:28.000Z</time>
      </trkpt>
      <trkpt lat="43.52216" lon="6.36962">
        <ele>255</ele>
        <time>2021-11-24T14:59:29.000Z</time>
      </trkpt>
      <trkpt lat="43.52215" lon="6.36962">
        <ele>255</ele>
        <time>2021-11-24T14:59:30.000Z</time>
      </trkpt>
      <trkpt lat="43.52214" lon="6.36963">
        <ele>255</ele>
        <time>2021-11-24T14:59:31.000Z</time>
      </trkpt>
      <trkpt lat="43.52212" lon="6.36963">
        <ele>255</ele>
        <time>2021-11-24T14:59:32.000Z</time>
      </trkpt>
      <trkpt lat="43.52211" lon="6.36964">
        <ele>255</ele>
        <time>2021-11-24T14:59:33.000Z</time>
      </trkpt>
      <trkpt lat="43.52209" lon="6.36964">
        <ele>254</ele>
        <time>2021-11-24T14:59:34.000Z</time>
      </trkpt>
      <trkpt lat="43.52208" lon="6.36964">
        <ele>254</ele>
        <time>2021-11-24T14:59:35.000Z</time>
      </trkpt>
      <trkpt lat="43.52207" lon="6.36965">
        <ele>254</ele>
        <time>2021-11-24T14:59:36.000Z</time>
      </trkpt>
      <trkpt lat="43.52206" lon="6.36965">
        <ele>254</ele>
        <time>2021-11-24T14:59:37.000Z</time>
      </trkpt>
      <trkpt lat="43.52205" lon="6.36966">
        <ele>254</ele>
        <time>2021-11-24T14:59:38.000Z</time>
      </trkpt>
      <trkpt lat="43.52203" lon="6.36967">
        <ele>254</ele>
        <time>2021-11-24T14:59:39.000Z</time>
      </trkpt>
      <trkpt lat="43.52202" lon="6.36967">
        <ele>254</ele>
        <time>2021-11-24T14:59:40.000Z</time>
      </trkpt>
      <trkpt lat="43.52201" lon="6.36968">
        <ele>254</ele>
        <time>2021-11-24T14:59:41.000Z</time>
      </trkpt>
      <trkpt lat="43.522" lon="6.36969">
        <ele>254</ele>
        <time>2021-11-24T14:59:42.000Z</time>
      </trkpt>
      <trkpt lat="43.52199" lon="6.3697">
        <ele>254</ele>
        <time>2021-11-24T14:59:43.000Z</time>
      </trkpt>
      <trkpt lat="43.52198" lon="6.36971">
        <ele>255</ele>
        <time>2021-11-24T14:59:44.000Z</time>
      </trkpt>
      <trkpt lat="43.52197" lon="6.36972">
        <ele>255</ele>
        <time>2021-11-24T14:59:45.000Z</time>
      </trkpt>
      <trkpt lat="43.52196" lon="6.36973">
        <ele>255</ele>
        <time>2021-11-24T14:59:46.000Z</time>
      </trkpt>
      <trkpt lat="43.52195" lon="6.36973">
        <ele>255</ele>
        <time>2021-11-24T14:59:47.000Z</time>
      </trkpt>
      <trkpt lat="43.52194" lon="6.36973">
        <ele>255</ele>
        <time>2021-11-24T14:59:48.000Z</time>
      </trkpt>
      <trkpt lat="43.52194" lon="6.36973">
        <ele>255</ele>
        <time>2021-11-24T14:59:49.000Z</time>
      </trkpt>
      <trkpt lat="43.52193" lon="6.36972">
        <ele>255</ele>
        <time>2021-11-24T14:59:50.000Z</time>
      </trkpt>
      <trkpt lat="43.52192" lon="6.36971">
        <ele>255</ele>
        <time>2021-11-24T14:59:51.000Z</time>
      </trkpt>
      <trkpt lat="43.52192" lon="6.36971">
        <ele>255</ele>
        <time>2021-11-24T14:59:52.000Z</time>
      </trkpt>
      <trkpt lat="43.52191" lon="6.3697">
        <ele>255</ele>
        <time>2021-11-24T14:59:53.000Z</time>
      </trkpt>
      <trkpt lat="43.52191" lon="6.36969">
        <ele>255</ele>
        <time>2021-11-24T14:59:54.000Z</time>
      </trkpt>
      <trkpt lat="43.5219" lon="6.36968">
        <ele>255</ele>
        <time>2021-11-24T14:59:55.000Z</time>
      </trkpt>
      <trkpt lat="43.5219" lon="6.36967">
        <ele>256</ele>
        <time>2021-11-24T14:59:56.000Z</time>
      </trkpt>
      <trkpt lat="43.52189" lon="6.36966">
        <ele>255</ele>
        <time>2021-11-24T14:59:57.000Z</time>
      </trkpt>
      <trkpt lat="43.52189" lon="6.36966">
        <ele>255</ele>
        <time>2021-11-24T14:59:58.000Z</time>
      </trkpt>
      <trkpt lat="43.52189" lon="6.36966">
        <ele>255</ele>
        <time>2021-11-24T14:59:59.000Z</time>
      </trkpt>
      <trkpt lat="43.52188" lon="6.36966">
        <ele>255</ele>
        <time>2021-11-24T15:00:00.000Z</time>
      </trkpt>
      <trkpt lat="43.52188" lon="6.36966">
        <ele>256</ele>
        <time>2021-11-24T15:00:01.000Z</time>
      </trkpt>
      <trkpt lat="43.52189" lon="6.36965">
        <ele>256</ele>
        <time>2021-11-24T15:00:02.000Z</time>
      </trkpt>
      <trkpt lat="43.52189" lon="6.36965">
        <ele>256</ele>
        <time>2021-11-24T15:00:03.000Z</time>
      </trkpt>
      <trkpt lat="43.5219" lon="6.36965">
        <ele>256</ele>
        <time>2021-11-24T15:00:04.000Z</time>
      </trkpt>
      <trkpt lat="43.52191" lon="6.36964">
        <ele>256</ele>
        <time>2021-11-24T15:00:05.000Z</time>
      </trkpt>
      <trkpt lat="43.52192" lon="6.36964">
        <ele>256</ele>
        <time>2021-11-24T15:00:06.000Z</time>
      </trkpt>
      <trkpt lat="43.52192" lon="6.36963">
        <ele>256</ele>
        <time>2021-11-24T15:00:07.000Z</time>
      </trkpt>
      <trkpt lat="43.52193" lon="6.36966">
        <ele>256</ele>
        <time>2021-11-24T15:00:13.000Z</time>
      </trkpt>
      <trkpt lat="43.52193" lon="6.36966">
        <ele>256</ele>
        <time>2021-11-24T15:00:14.000Z</time>
      </trkpt>
      <trkpt lat="43.52193" lon="6.36966">
        <ele>256</ele>
        <time>2021-11-24T15:00:15.000Z</time>
      </trkpt>
      <trkpt lat="43.52193" lon="6.36966">
        <ele>256</ele>
        <time>2021-11-24T15:00:16.000Z</time>
      </trkpt>
      <trkpt lat="43.52193" lon="6.36966">
        <ele>256</ele>
        <time>2021-11-24T15:00:17.000Z</time>
      </trkpt>
      <trkpt lat="43.52193" lon="6.36966">
        <ele>256</ele>
        <time>2021-11-24T15:00:18.000Z</time>
      </trkpt>
      <trkpt lat="43.52193" lon="6.36966">
        <ele>256</ele>
        <time>2021-11-24T15:00:19.000Z</time>
      </trkpt>
      <trkpt lat="43.52193" lon="6.36966">
        <ele>256</ele>
        <time>2021-11-24T15:00:20.000Z</time>
      </trkpt>
      <trkpt lat="43.52193" lon="6.36966">
        <ele>256</ele>
        <time>2021-11-24T15:00:21.000Z</time>
      </trkpt>
      <trkpt lat="43.52193" lon="6.36966">
        <ele>256</ele>
        <time>2021-11-24T15:00:22.000Z</time>
      </trkpt>
      <trkpt lat="43.52193" lon="6.36966">
        <ele>256</ele>
        <time>2021-11-24T15:00:23.000Z</time>
      </trkpt>
      <trkpt lat="43.52193" lon="6.36966">
        <ele>256</ele>
        <time>2021-11-24T15:00:24.000Z</time>
      </trkpt>
      <trkpt lat="43.52193" lon="6.36966">
        <ele>256</ele>
        <time>2021-11-24T15:00:26.000Z</time>
      </trkpt>
      <trkpt lat="43.52191" lon="6.3697">
        <ele>256</ele>
        <time>2021-11-24T15:00:27.000Z</time>
      </trkpt>
      <trkpt lat="43.52191" lon="6.3697">
        <ele>256</ele>
        <time>2021-11-24T15:00:28.000Z</time>
      </trkpt>
      <trkpt lat="43.5219" lon="6.3697">
        <ele>256</ele>
        <time>2021-11-24T15:00:29.000Z</time>
      </trkpt>
      <trkpt lat="43.5219" lon="6.36971">
        <ele>256</ele>
        <time>2021-11-24T15:00:30.000Z</time>
      </trkpt>
      <trkpt lat="43.5219" lon="6.36971">
        <ele>256</ele>
        <time>2021-11-24T15:00:31.000Z</time>
      </trkpt>
      <trkpt lat="43.5219" lon="6.36971">
        <ele>256</ele>
        <time>2021-11-24T15:00:32.000Z</time>
      </trkpt>
      <trkpt lat="43.5219" lon="6.36971">
        <ele>256</ele>
        <time>2021-11-24T15:00:33.000Z</time>
      </trkpt>
      <trkpt lat="43.5219" lon="6.36971">
        <ele>256</ele>
        <time>2021-11-24T15:00:34.000Z</time>
      </trkpt>
      <trkpt lat="43.5219" lon="6.36971">
        <ele>256</ele>
        <time>2021-11-24T15:00:35.000Z</time>
      </trkpt>
      <trkpt lat="43.5219" lon="6.36971">
        <ele>256</ele>
        <time>2021-11-24T15:00:36.000Z</time>
      </trkpt>
      <trkpt lat="43.5219" lon="6.36971">
        <ele>256</ele>
        <time>2021-11-24T15:00:37.000Z</time>
      </trkpt>
      <trkpt lat="43.5219" lon="6.36971">
        <ele>256</ele>
        <time>2021-11-24T15:00:38.000Z</time>
      </trkpt>
      <trkpt lat="43.5219" lon="6.36971">
        <ele>256</ele>
        <time>2021-11-24T15:00:39.000Z</time>
      </trkpt>
      <trkpt lat="43.5219" lon="6.36972">
        <ele>256</ele>
        <time>2021-11-24T15:00:40.000Z</time>
      </trkpt>
      <trkpt lat="43.52189" lon="6.36972">
        <ele>256</ele>
        <time>2021-11-24T15:00:41.000Z</time>
      </trkpt>
      <trkpt lat="43.52189" lon="6.36972">
        <ele>256</ele>
        <time>2021-11-24T15:00:42.000Z</time>
      </trkpt>
      <trkpt lat="43.52189" lon="6.36973">
        <ele>256</ele>
        <time>2021-11-24T15:00:43.000Z</time>
      </trkpt>
      <trkpt lat="43.52189" lon="6.36973">
        <ele>256</ele>
        <time>2021-11-24T15:00:44.000Z</time>
      </trkpt>
      <trkpt lat="43.52189" lon="6.36973">
        <ele>256</ele>
        <time>2021-11-24T15:00:45.000Z</time>
      </trkpt>
      <trkpt lat="43.52189" lon="6.36973">
        <ele>256</ele>
        <time>2021-11-24T15:00:46.000Z</time>
      </trkpt>
      <trkpt lat="43.52189" lon="6.36974">
        <ele>256</ele>
        <time>2021-11-24T15:00:47.000Z</time>
      </trkpt>
      <trkpt lat="43.52189" lon="6.36974">
        <ele>256</ele>
        <time>2021-11-24T15:00:48.000Z</time>
      </trkpt>
      <trkpt lat="43.52189" lon="6.36974">
        <ele>256</ele>
        <time>2021-11-24T15:00:49.000Z</time>
      </trkpt>
      <trkpt lat="43.52189" lon="6.36975">
        <ele>256</ele>
        <time>2021-11-24T15:00:50.000Z</time>
      </trkpt>
      <trkpt lat="43.5219" lon="6.36975">
        <ele>256</ele>
        <time>2021-11-24T15:00:51.000Z</time>
      </trkpt>
      <trkpt lat="43.5219" lon="6.36976">
        <ele>256</ele>
        <time>2021-11-24T15:00:52.000Z</time>
      </trkpt>
      <trkpt lat="43.5219" lon="6.36976">
        <ele>256</ele>
        <time>2021-11-24T15:00:53.000Z</time>
      </trkpt>
      <trkpt lat="43.5219" lon="6.36976">
        <ele>256</ele>
        <time>2021-11-24T15:00:54.000Z</time>
      </trkpt>
      <trkpt lat="43.5219" lon="6.36976">
        <ele>256</ele>
        <time>2021-11-24T15:00:55.000Z</time>
      </trkpt>
      <trkpt lat="43.5219" lon="6.36976">
        <ele>256</ele>
        <time>2021-11-24T15:00:56.000Z</time>
      </trkpt>
      <trkpt lat="43.5219" lon="6.36976">
        <ele>256</ele>
        <time>2021-11-24T15:00:57.000Z</time>
      </trkpt>
      <trkpt lat="43.5219" lon="6.36976">
        <ele>256</ele>
        <time>2021-11-24T15:00:58.000Z</time>
      </trkpt>
      <trkpt lat="43.5219" lon="6.36976">
        <ele>256</ele>
        <time>2021-11-24T15:00:59.000Z</time>
      </trkpt>
      <trkpt lat="43.5219" lon="6.36976">
        <ele>256</ele>
        <time>2021-11-24T15:01:00.000Z</time>
      </trkpt>
      <trkpt lat="43.5219" lon="6.36976">
        <ele>256</ele>
        <time>2021-11-24T15:01:01.000Z</time>
      </trkpt>
      <trkpt lat="43.5219" lon="6.36976">
        <ele>256</ele>
        <time>2021-11-24T15:01:02.000Z</time>
      </trkpt>
      <trkpt lat="43.52191" lon="6.36978">
        <ele>256</ele>
        <time>2021-11-24T15:01:03.000Z</time>
      </trkpt>
      <trkpt lat="43.5219" lon="6.36979">
        <ele>256</ele>
        <time>2021-11-24T15:01:04.000Z</time>
      </trkpt>
      <trkpt lat="43.5219" lon="6.36981">
        <ele>256</ele>
        <time>2021-11-24T15:01:05.000Z</time>
      </trkpt>
      <trkpt lat="43.5219" lon="6.36983">
        <ele>256</ele>
        <time>2021-11-24T15:01:06.000Z</time>
      </trkpt>
      <trkpt lat="43.52189" lon="6.36984">
        <ele>256</ele>
        <time>2021-11-24T15:01:07.000Z</time>
      </trkpt>
      <trkpt lat="43.52189" lon="6.36985">
        <ele>255</ele>
        <time>2021-11-24T15:01:08.000Z</time>
      </trkpt>
      <trkpt lat="43.52189" lon="6.36987">
        <ele>255</ele>
        <time>2021-11-24T15:01:09.000Z</time>
      </trkpt>
      <trkpt lat="43.52188" lon="6.36988">
        <ele>255</ele>
        <time>2021-11-24T15:01:10.000Z</time>
      </trkpt>
      <trkpt lat="43.52188" lon="6.36989">
        <ele>255</ele>
        <time>2021-11-24T15:01:11.000Z</time>
      </trkpt>
      <trkpt lat="43.52187" lon="6.3699">
        <ele>255</ele>
        <time>2021-11-24T15:01:12.000Z</time>
      </trkpt>
      <trkpt lat="43.52187" lon="6.36991">
        <ele>255</ele>
        <time>2021-11-24T15:01:13.000Z</time>
      </trkpt>
      <trkpt lat="43.52186" lon="6.36992">
        <ele>255</ele>
        <time>2021-11-24T15:01:14.000Z</time>
      </trkpt>
      <trkpt lat="43.52186" lon="6.36993">
        <ele>255</ele>
        <time>2021-11-24T15:01:15.000Z</time>
      </trkpt>
      <trkpt lat="43.52185" lon="6.36994">
        <ele>255</ele>
        <time>2021-11-24T15:01:16.000Z</time>
      </trkpt>
      <trkpt lat="43.52184" lon="6.36995">
        <ele>255</ele>
        <time>2021-11-24T15:01:17.000Z</time>
      </trkpt>
      <trkpt lat="43.52184" lon="6.36996">
        <ele>255</ele>
        <time>2021-11-24T15:01:18.000Z</time>
      </trkpt>
      <trkpt lat="43.52183" lon="6.36997">
        <ele>255</ele>
        <time>2021-11-24T15:01:19.000Z</time>
      </trkpt>
      <trkpt lat="43.52182" lon="6.36998">
        <ele>254</ele>
        <time>2021-11-24T15:01:20.000Z</time>
      </trkpt>
      <trkpt lat="43.52181" lon="6.36999">
        <ele>254</ele>
        <time>2021-11-24T15:01:21.000Z</time>
      </trkpt>
      <trkpt lat="43.5218" lon="6.36999">
        <ele>254</ele>
        <time>2021-11-24T15:01:22.000Z</time>
      </trkpt>
      <trkpt lat="43.52179" lon="6.37">
        <ele>254</ele>
        <time>2021-11-24T15:01:23.000Z</time>
      </trkpt>
      <trkpt lat="43.52179" lon="6.37001">
        <ele>254</ele>
        <time>2021-11-24T15:01:24.000Z</time>
      </trkpt>
      <trkpt lat="43.52178" lon="6.37002">
        <ele>254</ele>
        <time>2021-11-24T15:01:25.000Z</time>
      </trkpt>
      <trkpt lat="43.52177" lon="6.37003">
        <ele>253</ele>
        <time>2021-11-24T15:01:26.000Z</time>
      </trkpt>
      <trkpt lat="43.52175" lon="6.37004">
        <ele>253</ele>
        <time>2021-11-24T15:01:27.000Z</time>
      </trkpt>
      <trkpt lat="43.52174" lon="6.37006">
        <ele>253</ele>
        <time>2021-11-24T15:01:28.000Z</time>
      </trkpt>
      <trkpt lat="43.52172" lon="6.37007">
        <ele>253</ele>
        <time>2021-11-24T15:01:29.000Z</time>
      </trkpt>
      <trkpt lat="43.52171" lon="6.37008">
        <ele>253</ele>
        <time>2021-11-24T15:01:30.000Z</time>
      </trkpt>
      <trkpt lat="43.5217" lon="6.37009">
        <ele>252</ele>
        <time>2021-11-24T15:01:31.000Z</time>
      </trkpt>
      <trkpt lat="43.52169" lon="6.3701">
        <ele>252</ele>
        <time>2021-11-24T15:01:32.000Z</time>
      </trkpt>
      <trkpt lat="43.52167" lon="6.37012">
        <ele>252</ele>
        <time>2021-11-24T15:01:33.000Z</time>
      </trkpt>
      <trkpt lat="43.52166" lon="6.37013">
        <ele>252</ele>
        <time>2021-11-24T15:01:34.000Z</time>
      </trkpt>
      <trkpt lat="43.52165" lon="6.37014">
        <ele>252</ele>
        <time>2021-11-24T15:01:35.000Z</time>
      </trkpt>
      <trkpt lat="43.52164" lon="6.37015">
        <ele>252</ele>
        <time>2021-11-24T15:01:36.000Z</time>
      </trkpt>
      <trkpt lat="43.52163" lon="6.37017">
        <ele>252</ele>
        <time>2021-11-24T15:01:37.000Z</time>
      </trkpt>
      <trkpt lat="43.52162" lon="6.37018">
        <ele>252</ele>
        <time>2021-11-24T15:01:38.000Z</time>
      </trkpt>
      <trkpt lat="43.52161" lon="6.37019">
        <ele>252</ele>
        <time>2021-11-24T15:01:39.000Z</time>
      </trkpt>
      <trkpt lat="43.5216" lon="6.3702">
        <ele>251</ele>
        <time>2021-11-24T15:01:40.000Z</time>
      </trkpt>
      <trkpt lat="43.5216" lon="6.37021">
        <ele>251</ele>
        <time>2021-11-24T15:01:41.000Z</time>
      </trkpt>
      <trkpt lat="43.52159" lon="6.37023">
        <ele>251</ele>
        <time>2021-11-24T15:01:42.000Z</time>
      </trkpt>
      <trkpt lat="43.52158" lon="6.37024">
        <ele>251</ele>
        <time>2021-11-24T15:01:43.000Z</time>
      </trkpt>
      <trkpt lat="43.52158" lon="6.37025">
        <ele>251</ele>
        <time>2021-11-24T15:01:44.000Z</time>
      </trkpt>
      <trkpt lat="43.52157" lon="6.37027">
        <ele>251</ele>
        <time>2021-11-24T15:01:45.000Z</time>
      </trkpt>
      <trkpt lat="43.52156" lon="6.37028">
        <ele>251</ele>
        <time>2021-11-24T15:01:46.000Z</time>
      </trkpt>
      <trkpt lat="43.52155" lon="6.37029">
        <ele>251</ele>
        <time>2021-11-24T15:01:47.000Z</time>
      </trkpt>
      <trkpt lat="43.52155" lon="6.37031">
        <ele>251</ele>
        <time>2021-11-24T15:01:48.000Z</time>
      </trkpt>
      <trkpt lat="43.52154" lon="6.37032">
        <ele>251</ele>
        <time>2021-11-24T15:01:49.000Z</time>
      </trkpt>
      <trkpt lat="43.52154" lon="6.37033">
        <ele>251</ele>
        <time>2021-11-24T15:01:50.000Z</time>
      </trkpt>
      <trkpt lat="43.52153" lon="6.37034">
        <ele>250</ele>
        <time>2021-11-24T15:01:51.000Z</time>
      </trkpt>
      <trkpt lat="43.52152" lon="6.37035">
        <ele>250</ele>
        <time>2021-11-24T15:01:52.000Z</time>
      </trkpt>
      <trkpt lat="43.52152" lon="6.37036">
        <ele>250</ele>
        <time>2021-11-24T15:01:53.000Z</time>
      </trkpt>
      <trkpt lat="43.52151" lon="6.37037">
        <ele>250</ele>
        <time>2021-11-24T15:01:54.000Z</time>
      </trkpt>
      <trkpt lat="43.5215" lon="6.37039">
        <ele>250</ele>
        <time>2021-11-24T15:01:55.000Z</time>
      </trkpt>
      <trkpt lat="43.5215" lon="6.37039">
        <ele>250</ele>
        <time>2021-11-24T15:01:56.000Z</time>
      </trkpt>
      <trkpt lat="43.52149" lon="6.3704">
        <ele>250</ele>
        <time>2021-11-24T15:01:57.000Z</time>
      </trkpt>
      <trkpt lat="43.52148" lon="6.37041">
        <ele>249</ele>
        <time>2021-11-24T15:01:58.000Z</time>
      </trkpt>
      <trkpt lat="43.52147" lon="6.37041">
        <ele>249</ele>
        <time>2021-11-24T15:01:59.000Z</time>
      </trkpt>
      <trkpt lat="43.52146" lon="6.37042">
        <ele>249</ele>
        <time>2021-11-24T15:02:00.000Z</time>
      </trkpt>
      <trkpt lat="43.52145" lon="6.37042">
        <ele>249</ele>
        <time>2021-11-24T15:02:01.000Z</time>
      </trkpt>
      <trkpt lat="43.52144" lon="6.37043">
        <ele>249</ele>
        <time>2021-11-24T15:02:02.000Z</time>
      </trkpt>
      <trkpt lat="43.52144" lon="6.37043">
        <ele>249</ele>
        <time>2021-11-24T15:02:03.000Z</time>
      </trkpt>
      <trkpt lat="43.52143" lon="6.37044">
        <ele>249</ele>
        <time>2021-11-24T15:02:04.000Z</time>
      </trkpt>
      <trkpt lat="43.52142" lon="6.37045">
        <ele>249</ele>
        <time>2021-11-24T15:02:05.000Z</time>
      </trkpt>
      <trkpt lat="43.52141" lon="6.37045">
        <ele>249</ele>
        <time>2021-11-24T15:02:06.000Z</time>
      </trkpt>
      <trkpt lat="43.5214" lon="6.37046">
        <ele>249</ele>
        <time>2021-11-24T15:02:07.000Z</time>
      </trkpt>
      <trkpt lat="43.52139" lon="6.37048">
        <ele>249</ele>
        <time>2021-11-24T15:02:08.000Z</time>
      </trkpt>
      <trkpt lat="43.52139" lon="6.37049">
        <ele>249</ele>
        <time>2021-11-24T15:02:09.000Z</time>
      </trkpt>
      <trkpt lat="43.52138" lon="6.3705">
        <ele>249</ele>
        <time>2021-11-24T15:02:10.000Z</time>
      </trkpt>
      <trkpt lat="43.52137" lon="6.37051">
        <ele>249</ele>
        <time>2021-11-24T15:02:11.000Z</time>
      </trkpt>
      <trkpt lat="43.52136" lon="6.37052">
        <ele>249</ele>
        <time>2021-11-24T15:02:12.000Z</time>
      </trkpt>
      <trkpt lat="43.52136" lon="6.37053">
        <ele>249</ele>
        <time>2021-11-24T15:02:13.000Z</time>
      </trkpt>
      <trkpt lat="43.52135" lon="6.37054">
        <ele>249</ele>
        <time>2021-11-24T15:02:14.000Z</time>
      </trkpt>
      <trkpt lat="43.52134" lon="6.37056">
        <ele>249</ele>
        <time>2021-11-24T15:02:15.000Z</time>
      </trkpt>
      <trkpt lat="43.52134" lon="6.37057">
        <ele>249</ele>
        <time>2021-11-24T15:02:16.000Z</time>
      </trkpt>
      <trkpt lat="43.52133" lon="6.37058">
        <ele>249</ele>
        <time>2021-11-24T15:02:17.000Z</time>
      </trkpt>
      <trkpt lat="43.52132" lon="6.3706">
        <ele>249</ele>
        <time>2021-11-24T15:02:18.000Z</time>
      </trkpt>
      <trkpt lat="43.52132" lon="6.37061">
        <ele>249</ele>
        <time>2021-11-24T15:02:19.000Z</time>
      </trkpt>
      <trkpt lat="43.52131" lon="6.37062">
        <ele>249</ele>
        <time>2021-11-24T15:02:20.000Z</time>
      </trkpt>
      <trkpt lat="43.5213" lon="6.37063">
        <ele>249</ele>
        <time>2021-11-24T15:02:21.000Z</time>
      </trkpt>
      <trkpt lat="43.5213" lon="6.37064">
        <ele>249</ele>
        <time>2021-11-24T15:02:22.000Z</time>
      </trkpt>
      <trkpt lat="43.52129" lon="6.37066">
        <ele>249</ele>
        <time>2021-11-24T15:02:23.000Z</time>
      </trkpt>
      <trkpt lat="43.52128" lon="6.37067">
        <ele>248</ele>
        <time>2021-11-24T15:02:24.000Z</time>
      </trkpt>
      <trkpt lat="43.52127" lon="6.37069">
        <ele>248</ele>
        <time>2021-11-24T15:02:25.000Z</time>
      </trkpt>
      <trkpt lat="43.52126" lon="6.37071">
        <ele>248</ele>
        <time>2021-11-24T15:02:26.000Z</time>
      </trkpt>
      <trkpt lat="43.52125" lon="6.37072">
        <ele>248</ele>
        <time>2021-11-24T15:02:27.000Z</time>
      </trkpt>
      <trkpt lat="43.52124" lon="6.37073">
        <ele>248</ele>
        <time>2021-11-24T15:02:28.000Z</time>
      </trkpt>
      <trkpt lat="43.52123" lon="6.37075">
        <ele>248</ele>
        <time>2021-11-24T15:02:29.000Z</time>
      </trkpt>
      <trkpt lat="43.52122" lon="6.37076">
        <ele>247</ele>
        <time>2021-11-24T15:02:30.000Z</time>
      </trkpt>
      <trkpt lat="43.52121" lon="6.37077">
        <ele>247</ele>
        <time>2021-11-24T15:02:31.000Z</time>
      </trkpt>
      <trkpt lat="43.5212" lon="6.37078">
        <ele>247</ele>
        <time>2021-11-24T15:02:32.000Z</time>
      </trkpt>
      <trkpt lat="43.52119" lon="6.37079">
        <ele>247</ele>
        <time>2021-11-24T15:02:33.000Z</time>
      </trkpt>
      <trkpt lat="43.52119" lon="6.3708">
        <ele>247</ele>
        <time>2021-11-24T15:02:34.000Z</time>
      </trkpt>
      <trkpt lat="43.52118" lon="6.37081">
        <ele>247</ele>
        <time>2021-11-24T15:02:35.000Z</time>
      </trkpt>
      <trkpt lat="43.52117" lon="6.37082">
        <ele>247</ele>
        <time>2021-11-24T15:02:36.000Z</time>
      </trkpt>
      <trkpt lat="43.52117" lon="6.37083">
        <ele>247</ele>
        <time>2021-11-24T15:02:37.000Z</time>
      </trkpt>
      <trkpt lat="43.52116" lon="6.37085">
        <ele>247</ele>
        <time>2021-11-24T15:02:38.000Z</time>
      </trkpt>
      <trkpt lat="43.52115" lon="6.37086">
        <ele>247</ele>
        <time>2021-11-24T15:02:39.000Z</time>
      </trkpt>
      <trkpt lat="43.52114" lon="6.37087">
        <ele>247</ele>
        <time>2021-11-24T15:02:40.000Z</time>
      </trkpt>
      <trkpt lat="43.52113" lon="6.37088">
        <ele>247</ele>
        <time>2021-11-24T15:02:41.000Z</time>
      </trkpt>
      <trkpt lat="43.52112" lon="6.3709">
        <ele>247</ele>
        <time>2021-11-24T15:02:42.000Z</time>
      </trkpt>
      <trkpt lat="43.52111" lon="6.37091">
        <ele>247</ele>
        <time>2021-11-24T15:02:43.000Z</time>
      </trkpt>
      <trkpt lat="43.5211" lon="6.37092">
        <ele>247</ele>
        <time>2021-11-24T15:02:44.000Z</time>
      </trkpt>
      <trkpt lat="43.52109" lon="6.37093">
        <ele>247</ele>
        <time>2021-11-24T15:02:45.000Z</time>
      </trkpt>
      <trkpt lat="43.52108" lon="6.37093">
        <ele>247</ele>
        <time>2021-11-24T15:02:46.000Z</time>
      </trkpt>
      <trkpt lat="43.52107" lon="6.37094">
        <ele>248</ele>
        <time>2021-11-24T15:02:47.000Z</time>
      </trkpt>
      <trkpt lat="43.52106" lon="6.37095">
        <ele>248</ele>
        <time>2021-11-24T15:02:48.000Z</time>
      </trkpt>
      <trkpt lat="43.52105" lon="6.37096">
        <ele>248</ele>
        <time>2021-11-24T15:02:49.000Z</time>
      </trkpt>
      <trkpt lat="43.52104" lon="6.37097">
        <ele>248</ele>
        <time>2021-11-24T15:02:50.000Z</time>
      </trkpt>
      <trkpt lat="43.52103" lon="6.37098">
        <ele>248</ele>
        <time>2021-11-24T15:02:51.000Z</time>
      </trkpt>
      <trkpt lat="43.52102" lon="6.37099">
        <ele>248</ele>
        <time>2021-11-24T15:02:52.000Z</time>
      </trkpt>
      <trkpt lat="43.52101" lon="6.371">
        <ele>248</ele>
        <time>2021-11-24T15:02:53.000Z</time>
      </trkpt>
      <trkpt lat="43.521" lon="6.37101">
        <ele>248</ele>
        <time>2021-11-24T15:02:54.000Z</time>
      </trkpt>
      <trkpt lat="43.52098" lon="6.37102">
        <ele>248</ele>
        <time>2021-11-24T15:02:55.000Z</time>
      </trkpt>
      <trkpt lat="43.52097" lon="6.37104">
        <ele>248</ele>
        <time>2021-11-24T15:02:56.000Z</time>
      </trkpt>
      <trkpt lat="43.52096" lon="6.37105">
        <ele>248</ele>
        <time>2021-11-24T15:02:57.000Z</time>
      </trkpt>
      <trkpt lat="43.52095" lon="6.37106">
        <ele>248</ele>
        <time>2021-11-24T15:02:58.000Z</time>
      </trkpt>
      <trkpt lat="43.52094" lon="6.37108">
        <ele>248</ele>
        <time>2021-11-24T15:02:59.000Z</time>
      </trkpt>
      <trkpt lat="43.52093" lon="6.37109">
        <ele>248</ele>
        <time>2021-11-24T15:03:00.000Z</time>
      </trkpt>
      <trkpt lat="43.52092" lon="6.37111">
        <ele>248</ele>
        <time>2021-11-24T15:03:01.000Z</time>
      </trkpt>
      <trkpt lat="43.52091" lon="6.37112">
        <ele>248</ele>
        <time>2021-11-24T15:03:02.000Z</time>
      </trkpt>
      <trkpt lat="43.5209" lon="6.37114">
        <ele>248</ele>
        <time>2021-11-24T15:03:03.000Z</time>
      </trkpt>
      <trkpt lat="43.5209" lon="6.37116">
        <ele>248</ele>
        <time>2021-11-24T15:03:04.000Z</time>
      </trkpt>
      <trkpt lat="43.52089" lon="6.37118">
        <ele>248</ele>
        <time>2021-11-24T15:03:05.000Z</time>
      </trkpt>
      <trkpt lat="43.52088" lon="6.37119">
        <ele>248</ele>
        <time>2021-11-24T15:03:06.000Z</time>
      </trkpt>
      <trkpt lat="43.52088" lon="6.3712">
        <ele>247</ele>
        <time>2021-11-24T15:03:07.000Z</time>
      </trkpt>
      <trkpt lat="43.52087" lon="6.37122">
        <ele>247</ele>
        <time>2021-11-24T15:03:08.000Z</time>
      </trkpt>
      <trkpt lat="43.52086" lon="6.37123">
        <ele>247</ele>
        <time>2021-11-24T15:03:09.000Z</time>
      </trkpt>
      <trkpt lat="43.52085" lon="6.37124">
        <ele>247</ele>
        <time>2021-11-24T15:03:10.000Z</time>
      </trkpt>
      <trkpt lat="43.52085" lon="6.37125">
        <ele>247</ele>
        <time>2021-11-24T15:03:11.000Z</time>
      </trkpt>
      <trkpt lat="43.52084" lon="6.37126">
        <ele>247</ele>
        <time>2021-11-24T15:03:12.000Z</time>
      </trkpt>
      <trkpt lat="43.52083" lon="6.37127">
        <ele>247</ele>
        <time>2021-11-24T15:03:13.000Z</time>
      </trkpt>
      <trkpt lat="43.52083" lon="6.37128">
        <ele>247</ele>
        <time>2021-11-24T15:03:14.000Z</time>
      </trkpt>
      <trkpt lat="43.52082" lon="6.3713">
        <ele>247</ele>
        <time>2021-11-24T15:03:15.000Z</time>
      </trkpt>
      <trkpt lat="43.52081" lon="6.3713">
        <ele>246</ele>
        <time>2021-11-24T15:03:16.000Z</time>
      </trkpt>
      <trkpt lat="43.52079" lon="6.37131">
        <ele>246</ele>
        <time>2021-11-24T15:03:17.000Z</time>
      </trkpt>
      <trkpt lat="43.52078" lon="6.37132">
        <ele>246</ele>
        <time>2021-11-24T15:03:18.000Z</time>
      </trkpt>
      <trkpt lat="43.52077" lon="6.37133">
        <ele>246</ele>
        <time>2021-11-24T15:03:19.000Z</time>
      </trkpt>
      <trkpt lat="43.52076" lon="6.37134">
        <ele>246</ele>
        <time>2021-11-24T15:03:20.000Z</time>
      </trkpt>
      <trkpt lat="43.52075" lon="6.37134">
        <ele>246</ele>
        <time>2021-11-24T15:03:21.000Z</time>
      </trkpt>
      <trkpt lat="43.52074" lon="6.37134">
        <ele>246</ele>
        <time>2021-11-24T15:03:22.000Z</time>
      </trkpt>
      <trkpt lat="43.52073" lon="6.37135">
        <ele>246</ele>
        <time>2021-11-24T15:03:23.000Z</time>
      </trkpt>
      <trkpt lat="43.52072" lon="6.37135">
        <ele>245</ele>
        <time>2021-11-24T15:03:24.000Z</time>
      </trkpt>
      <trkpt lat="43.52071" lon="6.37135">
        <ele>245</ele>
        <time>2021-11-24T15:03:25.000Z</time>
      </trkpt>
      <trkpt lat="43.5207" lon="6.37135">
        <ele>245</ele>
        <time>2021-11-24T15:03:26.000Z</time>
      </trkpt>
      <trkpt lat="43.5207" lon="6.37135">
        <ele>245</ele>
        <time>2021-11-24T15:03:27.000Z</time>
      </trkpt>
      <trkpt lat="43.52069" lon="6.37135">
        <ele>245</ele>
        <time>2021-11-24T15:03:28.000Z</time>
      </trkpt>
      <trkpt lat="43.52068" lon="6.37134">
        <ele>245</ele>
        <time>2021-11-24T15:03:29.000Z</time>
      </trkpt>
      <trkpt lat="43.52067" lon="6.37134">
        <ele>245</ele>
        <time>2021-11-24T15:03:30.000Z</time>
      </trkpt>
      <trkpt lat="43.52066" lon="6.37134">
        <ele>245</ele>
        <time>2021-11-24T15:03:31.000Z</time>
      </trkpt>
      <trkpt lat="43.52065" lon="6.37134">
        <ele>243</ele>
        <time>2021-11-24T15:03:32.000Z</time>
      </trkpt>
      <trkpt lat="43.52064" lon="6.37134">
        <ele>243</ele>
        <time>2021-11-24T15:03:33.000Z</time>
      </trkpt>
      <trkpt lat="43.52063" lon="6.37133">
        <ele>243</ele>
        <time>2021-11-24T15:03:34.000Z</time>
      </trkpt>
      <trkpt lat="43.52062" lon="6.37133">
        <ele>243</ele>
        <time>2021-11-24T15:03:35.000Z</time>
      </trkpt>
      <trkpt lat="43.52063" lon="6.37132">
        <ele>242</ele>
        <time>2021-11-24T15:03:36.000Z</time>
      </trkpt>
      <trkpt lat="43.52062" lon="6.37132">
        <ele>242</ele>
        <time>2021-11-24T15:03:37.000Z</time>
      </trkpt>
      <trkpt lat="43.52061" lon="6.37131">
        <ele>242</ele>
        <time>2021-11-24T15:03:38.000Z</time>
      </trkpt>
      <trkpt lat="43.52059" lon="6.3713">
        <ele>242</ele>
        <time>2021-11-24T15:03:39.000Z</time>
      </trkpt>
      <trkpt lat="43.52058" lon="6.3713">
        <ele>242</ele>
        <time>2021-11-24T15:03:40.000Z</time>
      </trkpt>
      <trkpt lat="43.52057" lon="6.37129">
        <ele>242</ele>
        <time>2021-11-24T15:03:41.000Z</time>
      </trkpt>
      <trkpt lat="43.52056" lon="6.37128">
        <ele>242</ele>
        <time>2021-11-24T15:03:42.000Z</time>
      </trkpt>
      <trkpt lat="43.52055" lon="6.37128">
        <ele>241</ele>
        <time>2021-11-24T15:03:43.000Z</time>
      </trkpt>
      <trkpt lat="43.52054" lon="6.37128">
        <ele>241</ele>
        <time>2021-11-24T15:03:44.000Z</time>
      </trkpt>
      <trkpt lat="43.52053" lon="6.37127">
        <ele>241</ele>
        <time>2021-11-24T15:03:45.000Z</time>
      </trkpt>
      <trkpt lat="43.52051" lon="6.37127">
        <ele>241</ele>
        <time>2021-11-24T15:03:46.000Z</time>
      </trkpt>
      <trkpt lat="43.5205" lon="6.37127">
        <ele>240</ele>
        <time>2021-11-24T15:03:47.000Z</time>
      </trkpt>
      <trkpt lat="43.52049" lon="6.37128">
        <ele>240</ele>
        <time>2021-11-24T15:03:48.000Z</time>
      </trkpt>
      <trkpt lat="43.52048" lon="6.37129">
        <ele>240</ele>
        <time>2021-11-24T15:03:49.000Z</time>
      </trkpt>
      <trkpt lat="43.52047" lon="6.37129">
        <ele>240</ele>
        <time>2021-11-24T15:03:50.000Z</time>
      </trkpt>
      <trkpt lat="43.52046" lon="6.3713">
        <ele>240</ele>
        <time>2021-11-24T15:03:51.000Z</time>
      </trkpt>
      <trkpt lat="43.52045" lon="6.37131">
        <ele>240</ele>
        <time>2021-11-24T15:03:52.000Z</time>
      </trkpt>
      <trkpt lat="43.52045" lon="6.37133">
        <ele>240</ele>
        <time>2021-11-24T15:03:53.000Z</time>
      </trkpt>
      <trkpt lat="43.52046" lon="6.37134">
        <ele>239</ele>
        <time>2021-11-24T15:03:54.000Z</time>
      </trkpt>
      <trkpt lat="43.52047" lon="6.37136">
        <ele>239</ele>
        <time>2021-11-24T15:03:55.000Z</time>
      </trkpt>
      <trkpt lat="43.52048" lon="6.37137">
        <ele>239</ele>
        <time>2021-11-24T15:03:56.000Z</time>
      </trkpt>
      <trkpt lat="43.52049" lon="6.37138">
        <ele>239</ele>
        <time>2021-11-24T15:03:57.000Z</time>
      </trkpt>
      <trkpt lat="43.5205" lon="6.37139">
        <ele>239</ele>
        <time>2021-11-24T15:03:58.000Z</time>
      </trkpt>
      <trkpt lat="43.52051" lon="6.3714">
        <ele>239</ele>
        <time>2021-11-24T15:03:59.000Z</time>
      </trkpt>
      <trkpt lat="43.52052" lon="6.37141">
        <ele>238</ele>
        <time>2021-11-24T15:04:00.000Z</time>
      </trkpt>
      <trkpt lat="43.52054" lon="6.37142">
        <ele>238</ele>
        <time>2021-11-24T15:04:01.000Z</time>
      </trkpt>
      <trkpt lat="43.52055" lon="6.37144">
        <ele>238</ele>
        <time>2021-11-24T15:04:02.000Z</time>
      </trkpt>
      <trkpt lat="43.52056" lon="6.37144">
        <ele>238</ele>
        <time>2021-11-24T15:04:03.000Z</time>
      </trkpt>
      <trkpt lat="43.52057" lon="6.37145">
        <ele>236</ele>
        <time>2021-11-24T15:04:04.000Z</time>
      </trkpt>
      <trkpt lat="43.52059" lon="6.37146">
        <ele>235</ele>
        <time>2021-11-24T15:04:05.000Z</time>
      </trkpt>
      <trkpt lat="43.5206" lon="6.37147">
        <ele>235</ele>
        <time>2021-11-24T15:04:06.000Z</time>
      </trkpt>
      <trkpt lat="43.52061" lon="6.37148">
        <ele>235</ele>
        <time>2021-11-24T15:04:07.000Z</time>
      </trkpt>
      <trkpt lat="43.52062" lon="6.37148">
        <ele>235</ele>
        <time>2021-11-24T15:04:08.000Z</time>
      </trkpt>
      <trkpt lat="43.52064" lon="6.37149">
        <ele>235</ele>
        <time>2021-11-24T15:04:09.000Z</time>
      </trkpt>
      <trkpt lat="43.52065" lon="6.3715">
        <ele>235</ele>
        <time>2021-11-24T15:04:10.000Z</time>
      </trkpt>
      <trkpt lat="43.52067" lon="6.3715">
        <ele>235</ele>
        <time>2021-11-24T15:04:11.000Z</time>
      </trkpt>
      <trkpt lat="43.52068" lon="6.37151">
        <ele>234</ele>
        <time>2021-11-24T15:04:12.000Z</time>
      </trkpt>
      <trkpt lat="43.5207" lon="6.37151">
        <ele>234</ele>
        <time>2021-11-24T15:04:13.000Z</time>
      </trkpt>
      <trkpt lat="43.52071" lon="6.37152">
        <ele>234</ele>
        <time>2021-11-24T15:04:14.000Z</time>
      </trkpt>
      <trkpt lat="43.52073" lon="6.37152">
        <ele>234</ele>
        <time>2021-11-24T15:04:15.000Z</time>
      </trkpt>
      <trkpt lat="43.52075" lon="6.37152">
        <ele>234</ele>
        <time>2021-11-24T15:04:16.000Z</time>
      </trkpt>
      <trkpt lat="43.52076" lon="6.37152">
        <ele>234</ele>
        <time>2021-11-24T15:04:17.000Z</time>
      </trkpt>
      <trkpt lat="43.52077" lon="6.37153">
        <ele>234</ele>
        <time>2021-11-24T15:04:18.000Z</time>
      </trkpt>
      <trkpt lat="43.52079" lon="6.37153">
        <ele>234</ele>
        <time>2021-11-24T15:04:19.000Z</time>
      </trkpt>
      <trkpt lat="43.5208" lon="6.37154">
        <ele>234</ele>
        <time>2021-11-24T15:04:20.000Z</time>
      </trkpt>
      <trkpt lat="43.52081" lon="6.37154">
        <ele>234</ele>
        <time>2021-11-24T15:04:21.000Z</time>
      </trkpt>
      <trkpt lat="43.52082" lon="6.37154">
        <ele>234</ele>
        <time>2021-11-24T15:04:22.000Z</time>
      </trkpt>
      <trkpt lat="43.52083" lon="6.37155">
        <ele>234</ele>
        <time>2021-11-24T15:04:23.000Z</time>
      </trkpt>
      <trkpt lat="43.52083" lon="6.37157">
        <ele>234</ele>
        <time>2021-11-24T15:04:24.000Z</time>
      </trkpt>
      <trkpt lat="43.52083" lon="6.37158">
        <ele>234</ele>
        <time>2021-11-24T15:04:25.000Z</time>
      </trkpt>
      <trkpt lat="43.52083" lon="6.37158">
        <ele>234</ele>
        <time>2021-11-24T15:04:26.000Z</time>
      </trkpt>
      <trkpt lat="43.52083" lon="6.37159">
        <ele>234</ele>
        <time>2021-11-24T15:04:27.000Z</time>
      </trkpt>
      <trkpt lat="43.52084" lon="6.3716">
        <ele>234</ele>
        <time>2021-11-24T15:04:28.000Z</time>
      </trkpt>
      <trkpt lat="43.52084" lon="6.37161">
        <ele>234</ele>
        <time>2021-11-24T15:04:29.000Z</time>
      </trkpt>
      <trkpt lat="43.52084" lon="6.37162">
        <ele>234</ele>
        <time>2021-11-24T15:04:30.000Z</time>
      </trkpt>
      <trkpt lat="43.52084" lon="6.37163">
        <ele>234</ele>
        <time>2021-11-24T15:04:31.000Z</time>
      </trkpt>
      <trkpt lat="43.52084" lon="6.37163">
        <ele>234</ele>
        <time>2021-11-24T15:04:32.000Z</time>
      </trkpt>
      <trkpt lat="43.52084" lon="6.37163">
        <ele>234</ele>
        <time>2021-11-24T15:04:33.000Z</time>
      </trkpt>
      <trkpt lat="43.52085" lon="6.37163">
        <ele>234</ele>
        <time>2021-11-24T15:04:34.000Z</time>
      </trkpt>
      <trkpt lat="43.52085" lon="6.37163">
        <ele>234</ele>
        <time>2021-11-24T15:04:35.000Z</time>
      </trkpt>
      <trkpt lat="43.52085" lon="6.37163">
        <ele>234</ele>
        <time>2021-11-24T15:04:36.000Z</time>
      </trkpt>
      <trkpt lat="43.52086" lon="6.37163">
        <ele>234</ele>
        <time>2021-11-24T15:04:37.000Z</time>
      </trkpt>
      <trkpt lat="43.52086" lon="6.37163">
        <ele>234</ele>
        <time>2021-11-24T15:04:38.000Z</time>
      </trkpt>
      <trkpt lat="43.52086" lon="6.37162">
        <ele>234</ele>
        <time>2021-11-24T15:04:39.000Z</time>
      </trkpt>
      <trkpt lat="43.52086" lon="6.37161">
        <ele>234</ele>
        <time>2021-11-24T15:04:40.000Z</time>
      </trkpt>
      <trkpt lat="43.52086" lon="6.37161">
        <ele>234</ele>
        <time>2021-11-24T15:04:41.000Z</time>
      </trkpt>
      <trkpt lat="43.52086" lon="6.37161">
        <ele>234</ele>
        <time>2021-11-24T15:04:42.000Z</time>
      </trkpt>
      <trkpt lat="43.52086" lon="6.37161">
        <ele>234</ele>
        <time>2021-11-24T15:04:43.000Z</time>
      </trkpt>
      <trkpt lat="43.52086" lon="6.37161">
        <ele>234</ele>
        <time>2021-11-24T15:04:44.000Z</time>
      </trkpt>
      <trkpt lat="43.52086" lon="6.37161">
        <ele>234</ele>
        <time>2021-11-24T15:04:45.000Z</time>
      </trkpt>
      <trkpt lat="43.52086" lon="6.37161">
        <ele>234</ele>
        <time>2021-11-24T15:04:46.000Z</time>
      </trkpt>
      <trkpt lat="43.52086" lon="6.37161">
        <ele>234</ele>
        <time>2021-11-24T15:04:47.000Z</time>
      </trkpt>
      <trkpt lat="43.52086" lon="6.37161">
        <ele>234</ele>
        <time>2021-11-24T15:04:48.000Z</time>
      </trkpt>
      <trkpt lat="43.52086" lon="6.37161">
        <ele>234</ele>
        <time>2021-11-24T15:04:49.000Z</time>
      </trkpt>
      <trkpt lat="43.52086" lon="6.37161">
        <ele>234</ele>
        <time>2021-11-24T15:04:50.000Z</time>
      </trkpt>
      <trkpt lat="43.52086" lon="6.37161">
        <ele>234</ele>
        <time>2021-11-24T15:04:51.000Z</time>
      </trkpt>
      <trkpt lat="43.52086" lon="6.37161">
        <ele>234</ele>
        <time>2021-11-24T15:04:52.000Z</time>
      </trkpt>
      <trkpt lat="43.52086" lon="6.37161">
        <ele>234</ele>
        <time>2021-11-24T15:04:53.000Z</time>
      </trkpt>
      <trkpt lat="43.52086" lon="6.37161">
        <ele>234</ele>
        <time>2021-11-24T15:04:54.000Z</time>
      </trkpt>
      <trkpt lat="43.52087" lon="6.37156">
        <ele>234</ele>
        <time>2021-11-24T15:04:55.000Z</time>
      </trkpt>
      <trkpt lat="43.52087" lon="6.37156">
        <ele>234</ele>
        <time>2021-11-24T15:04:56.000Z</time>
      </trkpt>
      <trkpt lat="43.52087" lon="6.37155">
        <ele>234</ele>
        <time>2021-11-24T15:04:57.000Z</time>
      </trkpt>
      <trkpt lat="43.52087" lon="6.37155">
        <ele>234</ele>
        <time>2021-11-24T15:04:58.000Z</time>
      </trkpt>
      <trkpt lat="43.52087" lon="6.37155">
        <ele>234</ele>
        <time>2021-11-24T15:04:59.000Z</time>
      </trkpt>
      <trkpt lat="43.52087" lon="6.37155">
        <ele>234</ele>
        <time>2021-11-24T15:05:00.000Z</time>
      </trkpt>
      <trkpt lat="43.52087" lon="6.37155">
        <ele>234</ele>
        <time>2021-11-24T15:05:01.000Z</time>
      </trkpt>
      <trkpt lat="43.52087" lon="6.37155">
        <ele>234</ele>
        <time>2021-11-24T15:05:02.000Z</time>
      </trkpt>
      <trkpt lat="43.52087" lon="6.37155">
        <ele>234</ele>
        <time>2021-11-24T15:05:03.000Z</time>
      </trkpt>
      <trkpt lat="43.52087" lon="6.37155">
        <ele>234</ele>
        <time>2021-11-24T15:05:04.000Z</time>
      </trkpt>
      <trkpt lat="43.52087" lon="6.37155">
        <ele>234</ele>
        <time>2021-11-24T15:05:05.000Z</time>
      </trkpt>
      <trkpt lat="43.52087" lon="6.37154">
        <ele>234</ele>
        <time>2021-11-24T15:05:06.000Z</time>
      </trkpt>
      <trkpt lat="43.52087" lon="6.37154">
        <ele>234</ele>
        <time>2021-11-24T15:05:07.000Z</time>
      </trkpt>
      <trkpt lat="43.52087" lon="6.37154">
        <ele>234</ele>
        <time>2021-11-24T15:05:08.000Z</time>
      </trkpt>
      <trkpt lat="43.52087" lon="6.37154">
        <ele>234</ele>
        <time>2021-11-24T15:05:09.000Z</time>
      </trkpt>
      <trkpt lat="43.52087" lon="6.37154">
        <ele>234</ele>
        <time>2021-11-24T15:05:10.000Z</time>
      </trkpt>
      <trkpt lat="43.52087" lon="6.37154">
        <ele>234</ele>
        <time>2021-11-24T15:05:11.000Z</time>
      </trkpt>
      <trkpt lat="43.52087" lon="6.37154">
        <ele>234</ele>
        <time>2021-11-24T15:05:12.000Z</time>
      </trkpt>
      <trkpt lat="43.52087" lon="6.37154">
        <ele>234</ele>
        <time>2021-11-24T15:05:13.000Z</time>
      </trkpt>
      <trkpt lat="43.52088" lon="6.37154">
        <ele>234</ele>
        <time>2021-11-24T15:05:14.000Z</time>
      </trkpt>
      <trkpt lat="43.52088" lon="6.37155">
        <ele>234</ele>
        <time>2021-11-24T15:05:15.000Z</time>
      </trkpt>
      <trkpt lat="43.52088" lon="6.37155">
        <ele>234</ele>
        <time>2021-11-24T15:05:16.000Z</time>
      </trkpt>
      <trkpt lat="43.52089" lon="6.37155">
        <ele>234</ele>
        <time>2021-11-24T15:05:17.000Z</time>
      </trkpt>
      <trkpt lat="43.52089" lon="6.37156">
        <ele>234</ele>
        <time>2021-11-24T15:05:18.000Z</time>
      </trkpt>
      <trkpt lat="43.52089" lon="6.37156">
        <ele>234</ele>
        <time>2021-11-24T15:05:19.000Z</time>
      </trkpt>
      <trkpt lat="43.5209" lon="6.37157">
        <ele>234</ele>
        <time>2021-11-24T15:05:20.000Z</time>
      </trkpt>
      <trkpt lat="43.52091" lon="6.37157">
        <ele>234</ele>
        <time>2021-11-24T15:05:21.000Z</time>
      </trkpt>
      <trkpt lat="43.52092" lon="6.37158">
        <ele>234</ele>
        <time>2021-11-24T15:05:22.000Z</time>
      </trkpt>
      <trkpt lat="43.52092" lon="6.37159">
        <ele>235</ele>
        <time>2021-11-24T15:05:23.000Z</time>
      </trkpt>
      <trkpt lat="43.52093" lon="6.37159">
        <ele>235</ele>
        <time>2021-11-24T15:05:24.000Z</time>
      </trkpt>
      <trkpt lat="43.52093" lon="6.37159">
        <ele>236</ele>
        <time>2021-11-24T15:05:25.000Z</time>
      </trkpt>
      <trkpt lat="43.52094" lon="6.37159">
        <ele>236</ele>
        <time>2021-11-24T15:05:26.000Z</time>
      </trkpt>
      <trkpt lat="43.52094" lon="6.3716">
        <ele>236</ele>
        <time>2021-11-24T15:05:27.000Z</time>
      </trkpt>
      <trkpt lat="43.52095" lon="6.3716">
        <ele>236</ele>
        <time>2021-11-24T15:05:28.000Z</time>
      </trkpt>
      <trkpt lat="43.52095" lon="6.3716">
        <ele>236</ele>
        <time>2021-11-24T15:05:29.000Z</time>
      </trkpt>
      <trkpt lat="43.52095" lon="6.3716">
        <ele>236</ele>
        <time>2021-11-24T15:05:30.000Z</time>
      </trkpt>
      <trkpt lat="43.52095" lon="6.3716">
        <ele>236</ele>
        <time>2021-11-24T15:05:31.000Z</time>
      </trkpt>
      <trkpt lat="43.52096" lon="6.3716">
        <ele>236</ele>
        <time>2021-11-24T15:05:32.000Z</time>
      </trkpt>
      <trkpt lat="43.52096" lon="6.3716">
        <ele>236</ele>
        <time>2021-11-24T15:05:33.000Z</time>
      </trkpt>
      <trkpt lat="43.52096" lon="6.37159">
        <ele>236</ele>
        <time>2021-11-24T15:05:34.000Z</time>
      </trkpt>
      <trkpt lat="43.52097" lon="6.37159">
        <ele>236</ele>
        <time>2021-11-24T15:05:35.000Z</time>
      </trkpt>
      <trkpt lat="43.52097" lon="6.37159">
        <ele>236</ele>
        <time>2021-11-24T15:05:36.000Z</time>
      </trkpt>
      <trkpt lat="43.52097" lon="6.37159">
        <ele>236</ele>
        <time>2021-11-24T15:05:37.000Z</time>
      </trkpt>
      <trkpt lat="43.52098" lon="6.37158">
        <ele>236</ele>
        <time>2021-11-24T15:05:38.000Z</time>
      </trkpt>
      <trkpt lat="43.52098" lon="6.37158">
        <ele>236</ele>
        <time>2021-11-24T15:05:39.000Z</time>
      </trkpt>
      <trkpt lat="43.52098" lon="6.37158">
        <ele>236</ele>
        <time>2021-11-24T15:05:40.000Z</time>
      </trkpt>
      <trkpt lat="43.52099" lon="6.37158">
        <ele>236</ele>
        <time>2021-11-24T15:05:41.000Z</time>
      </trkpt>
      <trkpt lat="43.52099" lon="6.37158">
        <ele>236</ele>
        <time>2021-11-24T15:05:42.000Z</time>
      </trkpt>
      <trkpt lat="43.52099" lon="6.37157">
        <ele>236</ele>
        <time>2021-11-24T15:05:43.000Z</time>
      </trkpt>
      <trkpt lat="43.52099" lon="6.37157">
        <ele>236</ele>
        <time>2021-11-24T15:05:44.000Z</time>
      </trkpt>
      <trkpt lat="43.52099" lon="6.37157">
        <ele>236</ele>
        <time>2021-11-24T15:05:45.000Z</time>
      </trkpt>
      <trkpt lat="43.52099" lon="6.37157">
        <ele>236</ele>
        <time>2021-11-24T15:05:46.000Z</time>
      </trkpt>
      <trkpt lat="43.52099" lon="6.37157">
        <ele>236</ele>
        <time>2021-11-24T15:05:47.000Z</time>
      </trkpt>
      <trkpt lat="43.521" lon="6.37157">
        <ele>236</ele>
        <time>2021-11-24T15:05:48.000Z</time>
      </trkpt>
      <trkpt lat="43.521" lon="6.37157">
        <ele>236</ele>
        <time>2021-11-24T15:05:49.000Z</time>
      </trkpt>
      <trkpt lat="43.521" lon="6.37157">
        <ele>236</ele>
        <time>2021-11-24T15:05:50.000Z</time>
      </trkpt>
      <trkpt lat="43.521" lon="6.37157">
        <ele>236</ele>
        <time>2021-11-24T15:05:51.000Z</time>
      </trkpt>
      <trkpt lat="43.52101" lon="6.37157">
        <ele>236</ele>
        <time>2021-11-24T15:05:52.000Z</time>
      </trkpt>
      <trkpt lat="43.52102" lon="6.37157">
        <ele>236</ele>
        <time>2021-11-24T15:05:53.000Z</time>
      </trkpt>
      <trkpt lat="43.52102" lon="6.37156">
        <ele>236</ele>
        <time>2021-11-24T15:05:54.000Z</time>
      </trkpt>
      <trkpt lat="43.52103" lon="6.37156">
        <ele>236</ele>
        <time>2021-11-24T15:05:55.000Z</time>
      </trkpt>
      <trkpt lat="43.52104" lon="6.37157">
        <ele>236</ele>
        <time>2021-11-24T15:05:56.000Z</time>
      </trkpt>
      <trkpt lat="43.52104" lon="6.37157">
        <ele>236</ele>
        <time>2021-11-24T15:05:57.000Z</time>
      </trkpt>
      <trkpt lat="43.52104" lon="6.37157">
        <ele>236</ele>
        <time>2021-11-24T15:05:58.000Z</time>
      </trkpt>
      <trkpt lat="43.52105" lon="6.37157">
        <ele>236</ele>
        <time>2021-11-24T15:05:59.000Z</time>
      </trkpt>
      <trkpt lat="43.52105" lon="6.37158">
        <ele>236</ele>
        <time>2021-11-24T15:06:00.000Z</time>
      </trkpt>
      <trkpt lat="43.52105" lon="6.37158">
        <ele>236</ele>
        <time>2021-11-24T15:06:01.000Z</time>
      </trkpt>
      <trkpt lat="43.52105" lon="6.37159">
        <ele>236</ele>
        <time>2021-11-24T15:06:02.000Z</time>
      </trkpt>
      <trkpt lat="43.52106" lon="6.3716">
        <ele>236</ele>
        <time>2021-11-24T15:06:03.000Z</time>
      </trkpt>
      <trkpt lat="43.52106" lon="6.3716">
        <ele>236</ele>
        <time>2021-11-24T15:06:04.000Z</time>
      </trkpt>
      <trkpt lat="43.52106" lon="6.37161">
        <ele>236</ele>
        <time>2021-11-24T15:06:05.000Z</time>
      </trkpt>
      <trkpt lat="43.52106" lon="6.37161">
        <ele>236</ele>
        <time>2021-11-24T15:06:06.000Z</time>
      </trkpt>
      <trkpt lat="43.52106" lon="6.37162">
        <ele>236</ele>
        <time>2021-11-24T15:06:07.000Z</time>
      </trkpt>
      <trkpt lat="43.52106" lon="6.37163">
        <ele>236</ele>
        <time>2021-11-24T15:06:08.000Z</time>
      </trkpt>
      <trkpt lat="43.52106" lon="6.37163">
        <ele>236</ele>
        <time>2021-11-24T15:06:09.000Z</time>
      </trkpt>
      <trkpt lat="43.52106" lon="6.37164">
        <ele>236</ele>
        <time>2021-11-24T15:06:10.000Z</time>
      </trkpt>
      <trkpt lat="43.52106" lon="6.37164">
        <ele>236</ele>
        <time>2021-11-24T15:06:11.000Z</time>
      </trkpt>
      <trkpt lat="43.52107" lon="6.37164">
        <ele>236</ele>
        <time>2021-11-24T15:06:12.000Z</time>
      </trkpt>
      <trkpt lat="43.52107" lon="6.37165">
        <ele>236</ele>
        <time>2021-11-24T15:06:13.000Z</time>
      </trkpt>
      <trkpt lat="43.52107" lon="6.37165">
        <ele>236</ele>
        <time>2021-11-24T15:06:14.000Z</time>
      </trkpt>
      <trkpt lat="43.52107" lon="6.37165">
        <ele>236</ele>
        <time>2021-11-24T15:06:15.000Z</time>
      </trkpt>
      <trkpt lat="43.52107" lon="6.37165">
        <ele>236</ele>
        <time>2021-11-24T15:06:16.000Z</time>
      </trkpt>
      <trkpt lat="43.52107" lon="6.37166">
        <ele>236</ele>
        <time>2021-11-24T15:06:17.000Z</time>
      </trkpt>
      <trkpt lat="43.52108" lon="6.37166">
        <ele>236</ele>
        <time>2021-11-24T15:06:18.000Z</time>
      </trkpt>
      <trkpt lat="43.52108" lon="6.37166">
        <ele>236</ele>
        <time>2021-11-24T15:06:19.000Z</time>
      </trkpt>
      <trkpt lat="43.52108" lon="6.37166">
        <ele>236</ele>
        <time>2021-11-24T15:06:20.000Z</time>
      </trkpt>
      <trkpt lat="43.52108" lon="6.37166">
        <ele>236</ele>
        <time>2021-11-24T15:06:21.000Z</time>
      </trkpt>
      <trkpt lat="43.52108" lon="6.37166">
        <ele>236</ele>
        <time>2021-11-24T15:06:22.000Z</time>
      </trkpt>
      <trkpt lat="43.52108" lon="6.37166">
        <ele>236</ele>
        <time>2021-11-24T15:06:23.000Z</time>
      </trkpt>
      <trkpt lat="43.52108" lon="6.37166">
        <ele>236</ele>
        <time>2021-11-24T15:06:24.000Z</time>
      </trkpt>
      <trkpt lat="43.52109" lon="6.37167">
        <ele>236</ele>
        <time>2021-11-24T15:06:25.000Z</time>
      </trkpt>
      <trkpt lat="43.52109" lon="6.37167">
        <ele>236</ele>
        <time>2021-11-24T15:06:26.000Z</time>
      </trkpt>
      <trkpt lat="43.52109" lon="6.37167">
        <ele>236</ele>
        <time>2021-11-24T15:06:27.000Z</time>
      </trkpt>
      <trkpt lat="43.52109" lon="6.37167">
        <ele>236</ele>
        <time>2021-11-24T15:06:28.000Z</time>
      </trkpt>
      <trkpt lat="43.52109" lon="6.37167">
        <ele>236</ele>
        <time>2021-11-24T15:06:29.000Z</time>
      </trkpt>
      <trkpt lat="43.52109" lon="6.37167">
        <ele>236</ele>
        <time>2021-11-24T15:06:30.000Z</time>
      </trkpt>
      <trkpt lat="43.52109" lon="6.37167">
        <ele>236</ele>
        <time>2021-11-24T15:06:31.000Z</time>
      </trkpt>
      <trkpt lat="43.52109" lon="6.37167">
        <ele>236</ele>
        <time>2021-11-24T15:06:32.000Z</time>
      </trkpt>
      <trkpt lat="43.5211" lon="6.37166">
        <ele>236</ele>
        <time>2021-11-24T15:06:33.000Z</time>
      </trkpt>
      <trkpt lat="43.5211" lon="6.37166">
        <ele>236</ele>
        <time>2021-11-24T15:06:34.000Z</time>
      </trkpt>
      <trkpt lat="43.52111" lon="6.37166">
        <ele>236</ele>
        <time>2021-11-24T15:06:35.000Z</time>
      </trkpt>
      <trkpt lat="43.52113" lon="6.37166">
        <ele>236</ele>
        <time>2021-11-24T15:06:36.000Z</time>
      </trkpt>
      <trkpt lat="43.52113" lon="6.37166">
        <ele>236</ele>
        <time>2021-11-24T15:06:37.000Z</time>
      </trkpt>
      <trkpt lat="43.52113" lon="6.37165">
        <ele>236</ele>
        <time>2021-11-24T15:06:38.000Z</time>
      </trkpt>
      <trkpt lat="43.52113" lon="6.37165">
        <ele>236</ele>
        <time>2021-11-24T15:06:39.000Z</time>
      </trkpt>
      <trkpt lat="43.52113" lon="6.37165">
        <ele>236</ele>
        <time>2021-11-24T15:06:40.000Z</time>
      </trkpt>
      <trkpt lat="43.52113" lon="6.37165">
        <ele>236</ele>
        <time>2021-11-24T15:06:41.000Z</time>
      </trkpt>
      <trkpt lat="43.52113" lon="6.37164">
        <ele>236</ele>
        <time>2021-11-24T15:06:42.000Z</time>
      </trkpt>
      <trkpt lat="43.52113" lon="6.37163">
        <ele>236</ele>
        <time>2021-11-24T15:06:43.000Z</time>
      </trkpt>
      <trkpt lat="43.52113" lon="6.37163">
        <ele>236</ele>
        <time>2021-11-24T15:06:44.000Z</time>
      </trkpt>
      <trkpt lat="43.52114" lon="6.37162">
        <ele>236</ele>
        <time>2021-11-24T15:06:45.000Z</time>
      </trkpt>
      <trkpt lat="43.52115" lon="6.37162">
        <ele>236</ele>
        <time>2021-11-24T15:06:46.000Z</time>
      </trkpt>
      <trkpt lat="43.52116" lon="6.37161">
        <ele>237</ele>
        <time>2021-11-24T15:06:47.000Z</time>
      </trkpt>
      <trkpt lat="43.52118" lon="6.37161">
        <ele>237</ele>
        <time>2021-11-24T15:06:48.000Z</time>
      </trkpt>
      <trkpt lat="43.52119" lon="6.3716">
        <ele>237</ele>
        <time>2021-11-24T15:06:49.000Z</time>
      </trkpt>
      <trkpt lat="43.5212" lon="6.3716">
        <ele>237</ele>
        <time>2021-11-24T15:06:50.000Z</time>
      </trkpt>
      <trkpt lat="43.52121" lon="6.37159">
        <ele>237</ele>
        <time>2021-11-24T15:06:51.000Z</time>
      </trkpt>
      <trkpt lat="43.52121" lon="6.37159">
        <ele>237</ele>
        <time>2021-11-24T15:06:52.000Z</time>
      </trkpt>
      <trkpt lat="43.52122" lon="6.37158">
        <ele>237</ele>
        <time>2021-11-24T15:06:53.000Z</time>
      </trkpt>
      <trkpt lat="43.52122" lon="6.37158">
        <ele>237</ele>
        <time>2021-11-24T15:06:54.000Z</time>
      </trkpt>
      <trkpt lat="43.52122" lon="6.37158">
        <ele>237</ele>
        <time>2021-11-24T15:06:55.000Z</time>
      </trkpt>
      <trkpt lat="43.52123" lon="6.37157">
        <ele>237</ele>
        <time>2021-11-24T15:06:56.000Z</time>
      </trkpt>
      <trkpt lat="43.52123" lon="6.37156">
        <ele>237</ele>
        <time>2021-11-24T15:06:57.000Z</time>
      </trkpt>
      <trkpt lat="43.52123" lon="6.37155">
        <ele>237</ele>
        <time>2021-11-24T15:06:58.000Z</time>
      </trkpt>
      <trkpt lat="43.52124" lon="6.37155">
        <ele>237</ele>
        <time>2021-11-24T15:06:59.000Z</time>
      </trkpt>
      <trkpt lat="43.52125" lon="6.37154">
        <ele>237</ele>
        <time>2021-11-24T15:07:00.000Z</time>
      </trkpt>
      <trkpt lat="43.52125" lon="6.37153">
        <ele>237</ele>
        <time>2021-11-24T15:07:01.000Z</time>
      </trkpt>
      <trkpt lat="43.52126" lon="6.37153">
        <ele>236</ele>
        <time>2021-11-24T15:07:02.000Z</time>
      </trkpt>
      <trkpt lat="43.52127" lon="6.37152">
        <ele>236</ele>
        <time>2021-11-24T15:07:03.000Z</time>
      </trkpt>
      <trkpt lat="43.52128" lon="6.37152">
        <ele>236</ele>
        <time>2021-11-24T15:07:04.000Z</time>
      </trkpt>
      <trkpt lat="43.52128" lon="6.37151">
        <ele>236</ele>
        <time>2021-11-24T15:07:05.000Z</time>
      </trkpt>
      <trkpt lat="43.52129" lon="6.37151">
        <ele>236</ele>
        <time>2021-11-24T15:07:06.000Z</time>
      </trkpt>
      <trkpt lat="43.52129" lon="6.3715">
        <ele>236</ele>
        <time>2021-11-24T15:07:07.000Z</time>
      </trkpt>
      <trkpt lat="43.5213" lon="6.3715">
        <ele>236</ele>
        <time>2021-11-24T15:07:08.000Z</time>
      </trkpt>
      <trkpt lat="43.5213" lon="6.3715">
        <ele>236</ele>
        <time>2021-11-24T15:07:09.000Z</time>
      </trkpt>
      <trkpt lat="43.5213" lon="6.3715">
        <ele>236</ele>
        <time>2021-11-24T15:07:10.000Z</time>
      </trkpt>
      <trkpt lat="43.5213" lon="6.37149">
        <ele>236</ele>
        <time>2021-11-24T15:07:11.000Z</time>
      </trkpt>
      <trkpt lat="43.5213" lon="6.37149">
        <ele>236</ele>
        <time>2021-11-24T15:07:12.000Z</time>
      </trkpt>
      <trkpt lat="43.52131" lon="6.37148">
        <ele>236</ele>
        <time>2021-11-24T15:07:13.000Z</time>
      </trkpt>
      <trkpt lat="43.52131" lon="6.37147">
        <ele>236</ele>
        <time>2021-11-24T15:07:14.000Z</time>
      </trkpt>
      <trkpt lat="43.52131" lon="6.37147">
        <ele>236</ele>
        <time>2021-11-24T15:07:15.000Z</time>
      </trkpt>
      <trkpt lat="43.52132" lon="6.37146">
        <ele>236</ele>
        <time>2021-11-24T15:07:16.000Z</time>
      </trkpt>
      <trkpt lat="43.52132" lon="6.37145">
        <ele>236</ele>
        <time>2021-11-24T15:07:17.000Z</time>
      </trkpt>
      <trkpt lat="43.52133" lon="6.37144">
        <ele>236</ele>
        <time>2021-11-24T15:07:18.000Z</time>
      </trkpt>
      <trkpt lat="43.52134" lon="6.37143">
        <ele>236</ele>
        <time>2021-11-24T15:07:19.000Z</time>
      </trkpt>
      <trkpt lat="43.52135" lon="6.37142">
        <ele>236</ele>
        <time>2021-11-24T15:07:20.000Z</time>
      </trkpt>
      <trkpt lat="43.52136" lon="6.37141">
        <ele>236</ele>
        <time>2021-11-24T15:07:21.000Z</time>
      </trkpt>
      <trkpt lat="43.52137" lon="6.3714">
        <ele>236</ele>
        <time>2021-11-24T15:07:22.000Z</time>
      </trkpt>
      <trkpt lat="43.52138" lon="6.3714">
        <ele>238</ele>
        <time>2021-11-24T15:07:23.000Z</time>
      </trkpt>
      <trkpt lat="43.52139" lon="6.37139">
        <ele>238</ele>
        <time>2021-11-24T15:07:24.000Z</time>
      </trkpt>
      <trkpt lat="43.5214" lon="6.37139">
        <ele>238</ele>
        <time>2021-11-24T15:07:25.000Z</time>
      </trkpt>
      <trkpt lat="43.52141" lon="6.37139">
        <ele>238</ele>
        <time>2021-11-24T15:07:26.000Z</time>
      </trkpt>
      <trkpt lat="43.52141" lon="6.37139">
        <ele>238</ele>
        <time>2021-11-24T15:07:27.000Z</time>
      </trkpt>
      <trkpt lat="43.52142" lon="6.37139">
        <ele>238</ele>
        <time>2021-11-24T15:07:28.000Z</time>
      </trkpt>
      <trkpt lat="43.52143" lon="6.37139">
        <ele>238</ele>
        <time>2021-11-24T15:07:29.000Z</time>
      </trkpt>
      <trkpt lat="43.52143" lon="6.37139">
        <ele>238</ele>
        <time>2021-11-24T15:07:30.000Z</time>
      </trkpt>
      <trkpt lat="43.52144" lon="6.37139">
        <ele>238</ele>
        <time>2021-11-24T15:07:31.000Z</time>
      </trkpt>
      <trkpt lat="43.52144" lon="6.37139">
        <ele>238</ele>
        <time>2021-11-24T15:07:32.000Z</time>
      </trkpt>
      <trkpt lat="43.52145" lon="6.37139">
        <ele>238</ele>
        <time>2021-11-24T15:07:33.000Z</time>
      </trkpt>
      <trkpt lat="43.52145" lon="6.37139">
        <ele>238</ele>
        <time>2021-11-24T15:07:34.000Z</time>
      </trkpt>
      <trkpt lat="43.52145" lon="6.37139">
        <ele>238</ele>
        <time>2021-11-24T15:07:35.000Z</time>
      </trkpt>
      <trkpt lat="43.52146" lon="6.3714">
        <ele>238</ele>
        <time>2021-11-24T15:07:36.000Z</time>
      </trkpt>
      <trkpt lat="43.52146" lon="6.3714">
        <ele>238</ele>
        <time>2021-11-24T15:07:37.000Z</time>
      </trkpt>
      <trkpt lat="43.52146" lon="6.37139">
        <ele>238</ele>
        <time>2021-11-24T15:07:38.000Z</time>
      </trkpt>
      <trkpt lat="43.52147" lon="6.37139">
        <ele>238</ele>
        <time>2021-11-24T15:07:39.000Z</time>
      </trkpt>
      <trkpt lat="43.52147" lon="6.37139">
        <ele>238</ele>
        <time>2021-11-24T15:07:40.000Z</time>
      </trkpt>
      <trkpt lat="43.52147" lon="6.37139">
        <ele>237</ele>
        <time>2021-11-24T15:07:41.000Z</time>
      </trkpt>
      <trkpt lat="43.52148" lon="6.37139">
        <ele>237</ele>
        <time>2021-11-24T15:07:42.000Z</time>
      </trkpt>
      <trkpt lat="43.52148" lon="6.37139">
        <ele>237</ele>
        <time>2021-11-24T15:07:43.000Z</time>
      </trkpt>
      <trkpt lat="43.52148" lon="6.37139">
        <ele>237</ele>
        <time>2021-11-24T15:07:44.000Z</time>
      </trkpt>
      <trkpt lat="43.52148" lon="6.37139">
        <ele>237</ele>
        <time>2021-11-24T15:07:45.000Z</time>
      </trkpt>
      <trkpt lat="43.52148" lon="6.37139">
        <ele>237</ele>
        <time>2021-11-24T15:07:46.000Z</time>
      </trkpt>
      <trkpt lat="43.52148" lon="6.3714">
        <ele>237</ele>
        <time>2021-11-24T15:07:47.000Z</time>
      </trkpt>
      <trkpt lat="43.52148" lon="6.3714">
        <ele>236</ele>
        <time>2021-11-24T15:07:48.000Z</time>
      </trkpt>
      <trkpt lat="43.52149" lon="6.3714">
        <ele>236</ele>
        <time>2021-11-24T15:07:49.000Z</time>
      </trkpt>
      <trkpt lat="43.52149" lon="6.37141">
        <ele>236</ele>
        <time>2021-11-24T15:07:50.000Z</time>
      </trkpt>
      <trkpt lat="43.52149" lon="6.37141">
        <ele>236</ele>
        <time>2021-11-24T15:07:51.000Z</time>
      </trkpt>
      <trkpt lat="43.5215" lon="6.37141">
        <ele>236</ele>
        <time>2021-11-24T15:07:52.000Z</time>
      </trkpt>
      <trkpt lat="43.5215" lon="6.37142">
        <ele>236</ele>
        <time>2021-11-24T15:07:53.000Z</time>
      </trkpt>
      <trkpt lat="43.52151" lon="6.37142">
        <ele>236</ele>
        <time>2021-11-24T15:07:54.000Z</time>
      </trkpt>
      <trkpt lat="43.52151" lon="6.37142">
        <ele>236</ele>
        <time>2021-11-24T15:07:55.000Z</time>
      </trkpt>
      <trkpt lat="43.52151" lon="6.37142">
        <ele>236</ele>
        <time>2021-11-24T15:07:56.000Z</time>
      </trkpt>
      <trkpt lat="43.52151" lon="6.37142">
        <ele>236</ele>
        <time>2021-11-24T15:07:57.000Z</time>
      </trkpt>
      <trkpt lat="43.52151" lon="6.37143">
        <ele>236</ele>
        <time>2021-11-24T15:07:58.000Z</time>
      </trkpt>
      <trkpt lat="43.52152" lon="6.37143">
        <ele>235</ele>
        <time>2021-11-24T15:07:59.000Z</time>
      </trkpt>
      <trkpt lat="43.52152" lon="6.37144">
        <ele>235</ele>
        <time>2021-11-24T15:08:00.000Z</time>
      </trkpt>
      <trkpt lat="43.52152" lon="6.37144">
        <ele>235</ele>
        <time>2021-11-24T15:08:01.000Z</time>
      </trkpt>
      <trkpt lat="43.52152" lon="6.37144">
        <ele>235</ele>
        <time>2021-11-24T15:08:02.000Z</time>
      </trkpt>
      <trkpt lat="43.52152" lon="6.37145">
        <ele>235</ele>
        <time>2021-11-24T15:08:03.000Z</time>
      </trkpt>
      <trkpt lat="43.52152" lon="6.37145">
        <ele>235</ele>
        <time>2021-11-24T15:08:04.000Z</time>
      </trkpt>
      <trkpt lat="43.52152" lon="6.37145">
        <ele>235</ele>
        <time>2021-11-24T15:08:05.000Z</time>
      </trkpt>
      <trkpt lat="43.52152" lon="6.37146">
        <ele>235</ele>
        <time>2021-11-24T15:08:06.000Z</time>
      </trkpt>
      <trkpt lat="43.52152" lon="6.37146">
        <ele>235</ele>
        <time>2021-11-24T15:08:07.000Z</time>
      </trkpt>
      <trkpt lat="43.52152" lon="6.37146">
        <ele>235</ele>
        <time>2021-11-24T15:08:08.000Z</time>
      </trkpt>
      <trkpt lat="43.52152" lon="6.37146">
        <ele>235</ele>
        <time>2021-11-24T15:08:09.000Z</time>
      </trkpt>
      <trkpt lat="43.52152" lon="6.37146">
        <ele>235</ele>
        <time>2021-11-24T15:08:10.000Z</time>
      </trkpt>
      <trkpt lat="43.52152" lon="6.37146">
        <ele>235</ele>
        <time>2021-11-24T15:08:11.000Z</time>
      </trkpt>
      <trkpt lat="43.52152" lon="6.37146">
        <ele>235</ele>
        <time>2021-11-24T15:08:12.000Z</time>
      </trkpt>
      <trkpt lat="43.52152" lon="6.37146">
        <ele>235</ele>
        <time>2021-11-24T15:08:13.000Z</time>
      </trkpt>
      <trkpt lat="43.52152" lon="6.37146">
        <ele>234</ele>
        <time>2021-11-24T15:08:14.000Z</time>
      </trkpt>
      <trkpt lat="43.52152" lon="6.37146">
        <ele>234</ele>
        <time>2021-11-24T15:08:15.000Z</time>
      </trkpt>
      <trkpt lat="43.52152" lon="6.37146">
        <ele>234</ele>
        <time>2021-11-24T15:08:16.000Z</time>
      </trkpt>
      <trkpt lat="43.52152" lon="6.37146">
        <ele>234</ele>
        <time>2021-11-24T15:08:17.000Z</time>
      </trkpt>
      <trkpt lat="43.52152" lon="6.37146">
        <ele>234</ele>
        <time>2021-11-24T15:08:18.000Z</time>
      </trkpt>
      <trkpt lat="43.52152" lon="6.37146">
        <ele>234</ele>
        <time>2021-11-24T15:08:19.000Z</time>
      </trkpt>
      <trkpt lat="43.52152" lon="6.37146">
        <ele>234</ele>
        <time>2021-11-24T15:08:20.000Z</time>
      </trkpt>
      <trkpt lat="43.52152" lon="6.37146">
        <ele>234</ele>
        <time>2021-11-24T15:08:21.000Z</time>
      </trkpt>
      <trkpt lat="43.52152" lon="6.37146">
        <ele>234</ele>
        <time>2021-11-24T15:08:22.000Z</time>
      </trkpt>
      <trkpt lat="43.52152" lon="6.37146">
        <ele>234</ele>
        <time>2021-11-24T15:08:23.000Z</time>
      </trkpt>
      <trkpt lat="43.52152" lon="6.37146">
        <ele>234</ele>
        <time>2021-11-24T15:08:24.000Z</time>
      </trkpt>
      <trkpt lat="43.52152" lon="6.37146">
        <ele>234</ele>
        <time>2021-11-24T15:08:25.000Z</time>
      </trkpt>
      <trkpt lat="43.52152" lon="6.37146">
        <ele>234</ele>
        <time>2021-11-24T15:08:26.000Z</time>
      </trkpt>
      <trkpt lat="43.52152" lon="6.37146">
        <ele>234</ele>
        <time>2021-11-24T15:08:27.000Z</time>
      </trkpt>
      <trkpt lat="43.52152" lon="6.37146">
        <ele>234</ele>
        <time>2021-11-24T15:08:28.000Z</time>
      </trkpt>
      <trkpt lat="43.52152" lon="6.37146">
        <ele>234</ele>
        <time>2021-11-24T15:08:29.000Z</time>
      </trkpt>
      <trkpt lat="43.52152" lon="6.37147">
        <ele>234</ele>
        <time>2021-11-24T15:08:30.000Z</time>
      </trkpt>
      <trkpt lat="43.52152" lon="6.37147">
        <ele>234</ele>
        <time>2021-11-24T15:08:31.000Z</time>
      </trkpt>
      <trkpt lat="43.52151" lon="6.37147">
        <ele>234</ele>
        <time>2021-11-24T15:08:32.000Z</time>
      </trkpt>
      <trkpt lat="43.52151" lon="6.37147">
        <ele>234</ele>
        <time>2021-11-24T15:08:33.000Z</time>
      </trkpt>
      <trkpt lat="43.5215" lon="6.37147">
        <ele>234</ele>
        <time>2021-11-24T15:08:34.000Z</time>
      </trkpt>
      <trkpt lat="43.5215" lon="6.37147">
        <ele>234</ele>
        <time>2021-11-24T15:08:35.000Z</time>
      </trkpt>
      <trkpt lat="43.52149" lon="6.37148">
        <ele>234</ele>
        <time>2021-11-24T15:08:36.000Z</time>
      </trkpt>
      <trkpt lat="43.52149" lon="6.37148">
        <ele>234</ele>
        <time>2021-11-24T15:08:37.000Z</time>
      </trkpt>
      <trkpt lat="43.52148" lon="6.37148">
        <ele>234</ele>
        <time>2021-11-24T15:08:38.000Z</time>
      </trkpt>
      <trkpt lat="43.52147" lon="6.37149">
        <ele>234</ele>
        <time>2021-11-24T15:08:39.000Z</time>
      </trkpt>
      <trkpt lat="43.52146" lon="6.3715">
        <ele>234</ele>
        <time>2021-11-24T15:08:40.000Z</time>
      </trkpt>
      <trkpt lat="43.52146" lon="6.3715">
        <ele>234</ele>
        <time>2021-11-24T15:08:41.000Z</time>
      </trkpt>
      <trkpt lat="43.52145" lon="6.37151">
        <ele>234</ele>
        <time>2021-11-24T15:08:42.000Z</time>
      </trkpt>
      <trkpt lat="43.52144" lon="6.37152">
        <ele>234</ele>
        <time>2021-11-24T15:08:43.000Z</time>
      </trkpt>
      <trkpt lat="43.52144" lon="6.37152">
        <ele>234</ele>
        <time>2021-11-24T15:08:44.000Z</time>
      </trkpt>
      <trkpt lat="43.52143" lon="6.37153">
        <ele>234</ele>
        <time>2021-11-24T15:08:45.000Z</time>
      </trkpt>
      <trkpt lat="43.52143" lon="6.37153">
        <ele>234</ele>
        <time>2021-11-24T15:08:46.000Z</time>
      </trkpt>
      <trkpt lat="43.52143" lon="6.37154">
        <ele>234</ele>
        <time>2021-11-24T15:08:47.000Z</time>
      </trkpt>
      <trkpt lat="43.52143" lon="6.37154">
        <ele>234</ele>
        <time>2021-11-24T15:08:48.000Z</time>
      </trkpt>
      <trkpt lat="43.52142" lon="6.37154">
        <ele>234</ele>
        <time>2021-11-24T15:08:49.000Z</time>
      </trkpt>
      <trkpt lat="43.52142" lon="6.37154">
        <ele>234</ele>
        <time>2021-11-24T15:08:50.000Z</time>
      </trkpt>
      <trkpt lat="43.52142" lon="6.37154">
        <ele>234</ele>
        <time>2021-11-24T15:08:51.000Z</time>
      </trkpt>
      <trkpt lat="43.52141" lon="6.37154">
        <ele>234</ele>
        <time>2021-11-24T15:08:52.000Z</time>
      </trkpt>
      <trkpt lat="43.52141" lon="6.37154">
        <ele>233</ele>
        <time>2021-11-24T15:08:53.000Z</time>
      </trkpt>
      <trkpt lat="43.52141" lon="6.37154">
        <ele>233</ele>
        <time>2021-11-24T15:08:54.000Z</time>
      </trkpt>
      <trkpt lat="43.5214" lon="6.37154">
        <ele>233</ele>
        <time>2021-11-24T15:08:55.000Z</time>
      </trkpt>
      <trkpt lat="43.5214" lon="6.37154">
        <ele>233</ele>
        <time>2021-11-24T15:08:56.000Z</time>
      </trkpt>
      <trkpt lat="43.52139" lon="6.37154">
        <ele>233</ele>
        <time>2021-11-24T15:08:57.000Z</time>
      </trkpt>
      <trkpt lat="43.52139" lon="6.37155">
        <ele>233</ele>
        <time>2021-11-24T15:08:58.000Z</time>
      </trkpt>
      <trkpt lat="43.52138" lon="6.37155">
        <ele>233</ele>
        <time>2021-11-24T15:08:59.000Z</time>
      </trkpt>
      <trkpt lat="43.52137" lon="6.37155">
        <ele>233</ele>
        <time>2021-11-24T15:09:00.000Z</time>
      </trkpt>
      <trkpt lat="43.52137" lon="6.37155">
        <ele>233</ele>
        <time>2021-11-24T15:09:01.000Z</time>
      </trkpt>
      <trkpt lat="43.52136" lon="6.37156">
        <ele>233</ele>
        <time>2021-11-24T15:09:02.000Z</time>
      </trkpt>
      <trkpt lat="43.52136" lon="6.37156">
        <ele>233</ele>
        <time>2021-11-24T15:09:03.000Z</time>
      </trkpt>
      <trkpt lat="43.52135" lon="6.37157">
        <ele>233</ele>
        <time>2021-11-24T15:09:04.000Z</time>
      </trkpt>
      <trkpt lat="43.52134" lon="6.37158">
        <ele>232</ele>
        <time>2021-11-24T15:09:05.000Z</time>
      </trkpt>
      <trkpt lat="43.52133" lon="6.3716">
        <ele>232</ele>
        <time>2021-11-24T15:09:06.000Z</time>
      </trkpt>
      <trkpt lat="43.52133" lon="6.37161">
        <ele>232</ele>
        <time>2021-11-24T15:09:07.000Z</time>
      </trkpt>
      <trkpt lat="43.52132" lon="6.37163">
        <ele>232</ele>
        <time>2021-11-24T15:09:08.000Z</time>
      </trkpt>
      <trkpt lat="43.52131" lon="6.37163">
        <ele>232</ele>
        <time>2021-11-24T15:09:09.000Z</time>
      </trkpt>
      <trkpt lat="43.52131" lon="6.37164">
        <ele>231</ele>
        <time>2021-11-24T15:09:10.000Z</time>
      </trkpt>
      <trkpt lat="43.52131" lon="6.37164">
        <ele>231</ele>
        <time>2021-11-24T15:09:11.000Z</time>
      </trkpt>
      <trkpt lat="43.5213" lon="6.37164">
        <ele>231</ele>
        <time>2021-11-24T15:09:12.000Z</time>
      </trkpt>
      <trkpt lat="43.5213" lon="6.37164">
        <ele>231</ele>
        <time>2021-11-24T15:09:13.000Z</time>
      </trkpt>
      <trkpt lat="43.5213" lon="6.37164">
        <ele>231</ele>
        <time>2021-11-24T15:09:14.000Z</time>
      </trkpt>
      <trkpt lat="43.52129" lon="6.37164">
        <ele>231</ele>
        <time>2021-11-24T15:09:15.000Z</time>
      </trkpt>
      <trkpt lat="43.52129" lon="6.37165">
        <ele>231</ele>
        <time>2021-11-24T15:09:16.000Z</time>
      </trkpt>
      <trkpt lat="43.52128" lon="6.37166">
        <ele>231</ele>
        <time>2021-11-24T15:09:17.000Z</time>
      </trkpt>
      <trkpt lat="43.52127" lon="6.37166">
        <ele>231</ele>
        <time>2021-11-24T15:09:18.000Z</time>
      </trkpt>
      <trkpt lat="43.52126" lon="6.37167">
        <ele>231</ele>
        <time>2021-11-24T15:09:19.000Z</time>
      </trkpt>
      <trkpt lat="43.52125" lon="6.37168">
        <ele>231</ele>
        <time>2021-11-24T15:09:20.000Z</time>
      </trkpt>
      <trkpt lat="43.52124" lon="6.37169">
        <ele>231</ele>
        <time>2021-11-24T15:09:21.000Z</time>
      </trkpt>
      <trkpt lat="43.52124" lon="6.37169">
        <ele>231</ele>
        <time>2021-11-24T15:09:22.000Z</time>
      </trkpt>
      <trkpt lat="43.52123" lon="6.37169">
        <ele>231</ele>
        <time>2021-11-24T15:09:23.000Z</time>
      </trkpt>
      <trkpt lat="43.52123" lon="6.37169">
        <ele>231</ele>
        <time>2021-11-24T15:09:24.000Z</time>
      </trkpt>
      <trkpt lat="43.52123" lon="6.3717">
        <ele>231</ele>
        <time>2021-11-24T15:09:25.000Z</time>
      </trkpt>
      <trkpt lat="43.52123" lon="6.3717">
        <ele>231</ele>
        <time>2021-11-24T15:09:26.000Z</time>
      </trkpt>
      <trkpt lat="43.52122" lon="6.3717">
        <ele>231</ele>
        <time>2021-11-24T15:09:27.000Z</time>
      </trkpt>
      <trkpt lat="43.52122" lon="6.3717">
        <ele>231</ele>
        <time>2021-11-24T15:09:28.000Z</time>
      </trkpt>
      <trkpt lat="43.52122" lon="6.3717">
        <ele>231</ele>
        <time>2021-11-24T15:09:29.000Z</time>
      </trkpt>
      <trkpt lat="43.52121" lon="6.3717">
        <ele>231</ele>
        <time>2021-11-24T15:09:30.000Z</time>
      </trkpt>
      <trkpt lat="43.52121" lon="6.3717">
        <ele>231</ele>
        <time>2021-11-24T15:09:31.000Z</time>
      </trkpt>
      <trkpt lat="43.52121" lon="6.37169">
        <ele>231</ele>
        <time>2021-11-24T15:09:32.000Z</time>
      </trkpt>
      <trkpt lat="43.5212" lon="6.37169">
        <ele>231</ele>
        <time>2021-11-24T15:09:33.000Z</time>
      </trkpt>
      <trkpt lat="43.52119" lon="6.37168">
        <ele>231</ele>
        <time>2021-11-24T15:09:34.000Z</time>
      </trkpt>
      <trkpt lat="43.52118" lon="6.37167">
        <ele>231</ele>
        <time>2021-11-24T15:09:35.000Z</time>
      </trkpt>
      <trkpt lat="43.52118" lon="6.37166">
        <ele>231</ele>
        <time>2021-11-24T15:09:36.000Z</time>
      </trkpt>
      <trkpt lat="43.52117" lon="6.37165">
        <ele>231</ele>
        <time>2021-11-24T15:09:37.000Z</time>
      </trkpt>
      <trkpt lat="43.52117" lon="6.37165">
        <ele>231</ele>
        <time>2021-11-24T15:09:38.000Z</time>
      </trkpt>
      <trkpt lat="43.52116" lon="6.37164">
        <ele>231</ele>
        <time>2021-11-24T15:09:39.000Z</time>
      </trkpt>
      <trkpt lat="43.52115" lon="6.37163">
        <ele>231</ele>
        <time>2021-11-24T15:09:40.000Z</time>
      </trkpt>
      <trkpt lat="43.52114" lon="6.37162">
        <ele>231</ele>
        <time>2021-11-24T15:09:41.000Z</time>
      </trkpt>
      <trkpt lat="43.52112" lon="6.37161">
        <ele>230</ele>
        <time>2021-11-24T15:09:42.000Z</time>
      </trkpt>
      <trkpt lat="43.5211" lon="6.37161">
        <ele>230</ele>
        <time>2021-11-24T15:09:43.000Z</time>
      </trkpt>
      <trkpt lat="43.52109" lon="6.37161">
        <ele>229</ele>
        <time>2021-11-24T15:09:44.000Z</time>
      </trkpt>
      <trkpt lat="43.52108" lon="6.37161">
        <ele>229</ele>
        <time>2021-11-24T15:09:45.000Z</time>
      </trkpt>
      <trkpt lat="43.52107" lon="6.3716">
        <ele>229</ele>
        <time>2021-11-24T15:09:46.000Z</time>
      </trkpt>
      <trkpt lat="43.52107" lon="6.3716">
        <ele>229</ele>
        <time>2021-11-24T15:09:47.000Z</time>
      </trkpt>
      <trkpt lat="43.52107" lon="6.3716">
        <ele>229</ele>
        <time>2021-11-24T15:09:48.000Z</time>
      </trkpt>
      <trkpt lat="43.52106" lon="6.3716">
        <ele>229</ele>
        <time>2021-11-24T15:09:49.000Z</time>
      </trkpt>
      <trkpt lat="43.52106" lon="6.3716">
        <ele>229</ele>
        <time>2021-11-24T15:09:50.000Z</time>
      </trkpt>
      <trkpt lat="43.52106" lon="6.3716">
        <ele>229</ele>
        <time>2021-11-24T15:09:51.000Z</time>
      </trkpt>
      <trkpt lat="43.52106" lon="6.3716">
        <ele>229</ele>
        <time>2021-11-24T15:09:52.000Z</time>
      </trkpt>
      <trkpt lat="43.52105" lon="6.3716">
        <ele>229</ele>
        <time>2021-11-24T15:09:53.000Z</time>
      </trkpt>
      <trkpt lat="43.52105" lon="6.3716">
        <ele>229</ele>
        <time>2021-11-24T15:09:54.000Z</time>
      </trkpt>
      <trkpt lat="43.52105" lon="6.3716">
        <ele>229</ele>
        <time>2021-11-24T15:09:55.000Z</time>
      </trkpt>
      <trkpt lat="43.52105" lon="6.3716">
        <ele>229</ele>
        <time>2021-11-24T15:09:56.000Z</time>
      </trkpt>
      <trkpt lat="43.52105" lon="6.3716">
        <ele>229</ele>
        <time>2021-11-24T15:09:57.000Z</time>
      </trkpt>
      <trkpt lat="43.52105" lon="6.3716">
        <ele>229</ele>
        <time>2021-11-24T15:09:58.000Z</time>
      </trkpt>
      <trkpt lat="43.52105" lon="6.3716">
        <ele>229</ele>
        <time>2021-11-24T15:09:59.000Z</time>
      </trkpt>
      <trkpt lat="43.52105" lon="6.3716">
        <ele>229</ele>
        <time>2021-11-24T15:10:00.000Z</time>
      </trkpt>
      <trkpt lat="43.52105" lon="6.3716">
        <ele>229</ele>
        <time>2021-11-24T15:10:01.000Z</time>
      </trkpt>
      <trkpt lat="43.52105" lon="6.3716">
        <ele>229</ele>
        <time>2021-11-24T15:10:02.000Z</time>
      </trkpt>
      <trkpt lat="43.52105" lon="6.3716">
        <ele>229</ele>
        <time>2021-11-24T15:10:03.000Z</time>
      </trkpt>
      <trkpt lat="43.52105" lon="6.3716">
        <ele>229</ele>
        <time>2021-11-24T15:10:04.000Z</time>
      </trkpt>
      <trkpt lat="43.52105" lon="6.3716">
        <ele>229</ele>
        <time>2021-11-24T15:10:05.000Z</time>
      </trkpt>
      <trkpt lat="43.52105" lon="6.3716">
        <ele>229</ele>
        <time>2021-11-24T15:10:06.000Z</time>
      </trkpt>
      <trkpt lat="43.52104" lon="6.3716">
        <ele>229</ele>
        <time>2021-11-24T15:10:07.000Z</time>
      </trkpt>
      <trkpt lat="43.52104" lon="6.3716">
        <ele>229</ele>
        <time>2021-11-24T15:10:08.000Z</time>
      </trkpt>
      <trkpt lat="43.52104" lon="6.3716">
        <ele>229</ele>
        <time>2021-11-24T15:10:09.000Z</time>
      </trkpt>
      <trkpt lat="43.52104" lon="6.3716">
        <ele>229</ele>
        <time>2021-11-24T15:10:10.000Z</time>
      </trkpt>
      <trkpt lat="43.52104" lon="6.3716">
        <ele>229</ele>
        <time>2021-11-24T15:10:11.000Z</time>
      </trkpt>
      <trkpt lat="43.52104" lon="6.3716">
        <ele>229</ele>
        <time>2021-11-24T15:10:12.000Z</time>
      </trkpt>
      <trkpt lat="43.52104" lon="6.3716">
        <ele>229</ele>
        <time>2021-11-24T15:10:13.000Z</time>
      </trkpt>
      <trkpt lat="43.52104" lon="6.3716">
        <ele>229</ele>
        <time>2021-11-24T15:10:14.000Z</time>
      </trkpt>
      <trkpt lat="43.52104" lon="6.3716">
        <ele>229</ele>
        <time>2021-11-24T15:10:15.000Z</time>
      </trkpt>
      <trkpt lat="43.52104" lon="6.3716">
        <ele>229</ele>
        <time>2021-11-24T15:10:16.000Z</time>
      </trkpt>
      <trkpt lat="43.52105" lon="6.3716">
        <ele>229</ele>
        <time>2021-11-24T15:10:17.000Z</time>
      </trkpt>
      <trkpt lat="43.52105" lon="6.3716">
        <ele>229</ele>
        <time>2021-11-24T15:10:18.000Z</time>
      </trkpt>
      <trkpt lat="43.52105" lon="6.3716">
        <ele>229</ele>
        <time>2021-11-24T15:10:19.000Z</time>
      </trkpt>
      <trkpt lat="43.52105" lon="6.3716">
        <ele>229</ele>
        <time>2021-11-24T15:10:20.000Z</time>
      </trkpt>
      <trkpt lat="43.52105" lon="6.3716">
        <ele>229</ele>
        <time>2021-11-24T15:10:21.000Z</time>
      </trkpt>
      <trkpt lat="43.52105" lon="6.3716">
        <ele>229</ele>
        <time>2021-11-24T15:10:22.000Z</time>
      </trkpt>
      <trkpt lat="43.52105" lon="6.3716">
        <ele>229</ele>
        <time>2021-11-24T15:10:23.000Z</time>
      </trkpt>
      <trkpt lat="43.52105" lon="6.3716">
        <ele>229</ele>
        <time>2021-11-24T15:10:24.000Z</time>
      </trkpt>
      <trkpt lat="43.52105" lon="6.3716">
        <ele>229</ele>
        <time>2021-11-24T15:10:25.000Z</time>
      </trkpt>
      <trkpt lat="43.52105" lon="6.3716">
        <ele>229</ele>
        <time>2021-11-24T15:10:26.000Z</time>
      </trkpt>
      <trkpt lat="43.52105" lon="6.3716">
        <ele>229</ele>
        <time>2021-11-24T15:10:27.000Z</time>
      </trkpt>
      <trkpt lat="43.52105" lon="6.3716">
        <ele>229</ele>
        <time>2021-11-24T15:10:28.000Z</time>
      </trkpt>
      <trkpt lat="43.52105" lon="6.3716">
        <ele>229</ele>
        <time>2021-11-24T15:10:29.000Z</time>
      </trkpt>
      <trkpt lat="43.52105" lon="6.3716">
        <ele>229</ele>
        <time>2021-11-24T15:10:30.000Z</time>
      </trkpt>
      <trkpt lat="43.52105" lon="6.3716">
        <ele>229</ele>
        <time>2021-11-24T15:10:31.000Z</time>
      </trkpt>
      <trkpt lat="43.52105" lon="6.3716">
        <ele>229</ele>
        <time>2021-11-24T15:10:32.000Z</time>
      </trkpt>
      <trkpt lat="43.52105" lon="6.3716">
        <ele>229</ele>
        <time>2021-11-24T15:10:33.000Z</time>
      </trkpt>
      <trkpt lat="43.52105" lon="6.3716">
        <ele>229</ele>
        <time>2021-11-24T15:10:34.000Z</time>
      </trkpt>
      <trkpt lat="43.52105" lon="6.3716">
        <ele>229</ele>
        <time>2021-11-24T15:10:35.000Z</time>
      </trkpt>
      <trkpt lat="43.52105" lon="6.3716">
        <ele>229</ele>
        <time>2021-11-24T15:10:36.000Z</time>
      </trkpt>
      <trkpt lat="43.52105" lon="6.3716">
        <ele>229</ele>
        <time>2021-11-24T15:10:37.000Z</time>
      </trkpt>
      <trkpt lat="43.52105" lon="6.3716">
        <ele>229</ele>
        <time>2021-11-24T15:10:38.000Z</time>
      </trkpt>
      <trkpt lat="43.52105" lon="6.3716">
        <ele>229</ele>
        <time>2021-11-24T15:10:39.000Z</time>
      </trkpt>
      <trkpt lat="43.52105" lon="6.3716">
        <ele>229</ele>
        <time>2021-11-24T15:10:40.000Z</time>
      </trkpt>
      <trkpt lat="43.52105" lon="6.3716">
        <ele>229</ele>
        <time>2021-11-24T15:10:41.000Z</time>
      </trkpt>
      <trkpt lat="43.52105" lon="6.3716">
        <ele>229</ele>
        <time>2021-11-24T15:10:42.000Z</time>
      </trkpt>
      <trkpt lat="43.52105" lon="6.3716">
        <ele>229</ele>
        <time>2021-11-24T15:10:43.000Z</time>
      </trkpt>
      <trkpt lat="43.52105" lon="6.3716">
        <ele>229</ele>
        <time>2021-11-24T15:10:44.000Z</time>
      </trkpt>
      <trkpt lat="43.52105" lon="6.3716">
        <ele>229</ele>
        <time>2021-11-24T15:10:45.000Z</time>
      </trkpt>
      <trkpt lat="43.52105" lon="6.3716">
        <ele>229</ele>
        <time>2021-11-24T15:10:46.000Z</time>
      </trkpt>
      <trkpt lat="43.52105" lon="6.3716">
        <ele>229</ele>
        <time>2021-11-24T15:10:47.000Z</time>
      </trkpt>
      <trkpt lat="43.52105" lon="6.3716">
        <ele>229</ele>
        <time>2021-11-24T15:10:48.000Z</time>
      </trkpt>
      <trkpt lat="43.52105" lon="6.3716">
        <ele>229</ele>
        <time>2021-11-24T15:10:49.000Z</time>
      </trkpt>
      <trkpt lat="43.52105" lon="6.3716">
        <ele>229</ele>
        <time>2021-11-24T15:10:50.000Z</time>
      </trkpt>
      <trkpt lat="43.52105" lon="6.3716">
        <ele>229</ele>
        <time>2021-11-24T15:10:51.000Z</time>
      </trkpt>
      <trkpt lat="43.52105" lon="6.3716">
        <ele>229</ele>
        <time>2021-11-24T15:10:52.000Z</time>
      </trkpt>
      <trkpt lat="43.52105" lon="6.3716">
        <ele>229</ele>
        <time>2021-11-24T15:10:53.000Z</time>
      </trkpt>
      <trkpt lat="43.52105" lon="6.3716">
        <ele>229</ele>
        <time>2021-11-24T15:10:54.000Z</time>
      </trkpt>
      <trkpt lat="43.52105" lon="6.3716">
        <ele>229</ele>
        <time>2021-11-24T15:10:55.000Z</time>
      </trkpt>
      <trkpt lat="43.52105" lon="6.3716">
        <ele>229</ele>
        <time>2021-11-24T15:10:56.000Z</time>
      </trkpt>
      <trkpt lat="43.52105" lon="6.3716">
        <ele>229</ele>
        <time>2021-11-24T15:10:57.000Z</time>
      </trkpt>
      <trkpt lat="43.52105" lon="6.3716">
        <ele>229</ele>
        <time>2021-11-24T15:10:58.000Z</time>
      </trkpt>
      <trkpt lat="43.52105" lon="6.3716">
        <ele>229</ele>
        <time>2021-11-24T15:10:59.000Z</time>
      </trkpt>
      <trkpt lat="43.52105" lon="6.3716">
        <ele>229</ele>
        <time>2021-11-24T15:11:00.000Z</time>
      </trkpt>
      <trkpt lat="43.52105" lon="6.3716">
        <ele>229</ele>
        <time>2021-11-24T15:11:01.000Z</time>
      </trkpt>
      <trkpt lat="43.52105" lon="6.3716">
        <ele>229</ele>
        <time>2021-11-24T15:11:02.000Z</time>
      </trkpt>
      <trkpt lat="43.52105" lon="6.3716">
        <ele>229</ele>
        <time>2021-11-24T15:11:03.000Z</time>
      </trkpt>
      <trkpt lat="43.52105" lon="6.3716">
        <ele>229</ele>
        <time>2021-11-24T15:11:04.000Z</time>
      </trkpt>
      <trkpt lat="43.52105" lon="6.3716">
        <ele>229</ele>
        <time>2021-11-24T15:11:05.000Z</time>
      </trkpt>
      <trkpt lat="43.52105" lon="6.3716">
        <ele>229</ele>
        <time>2021-11-24T15:11:06.000Z</time>
      </trkpt>
      <trkpt lat="43.52105" lon="6.3716">
        <ele>229</ele>
        <time>2021-11-24T15:11:07.000Z</time>
      </trkpt>
      <trkpt lat="43.52105" lon="6.3716">
        <ele>229</ele>
        <time>2021-11-24T15:11:08.000Z</time>
      </trkpt>
      <trkpt lat="43.52105" lon="6.3716">
        <ele>229</ele>
        <time>2021-11-24T15:11:09.000Z</time>
      </trkpt>
      <trkpt lat="43.52105" lon="6.3716">
        <ele>229</ele>
        <time>2021-11-24T15:11:10.000Z</time>
      </trkpt>
      <trkpt lat="43.52105" lon="6.3716">
        <ele>229</ele>
        <time>2021-11-24T15:11:11.000Z</time>
      </trkpt>
      <trkpt lat="43.52105" lon="6.3716">
        <ele>229</ele>
        <time>2021-11-24T15:11:12.000Z</time>
      </trkpt>
      <trkpt lat="43.52105" lon="6.3716">
        <ele>229</ele>
        <time>2021-11-24T15:11:13.000Z</time>
      </trkpt>
      <trkpt lat="43.52105" lon="6.3716">
        <ele>229</ele>
        <time>2021-11-24T15:11:14.000Z</time>
      </trkpt>
      <trkpt lat="43.52105" lon="6.3716">
        <ele>229</ele>
        <time>2021-11-24T15:11:15.000Z</time>
      </trkpt>
      <trkpt lat="43.52105" lon="6.37161">
        <ele>229</ele>
        <time>2021-11-24T15:11:16.000Z</time>
      </trkpt>
      <trkpt lat="43.52105" lon="6.37162">
        <ele>229</ele>
        <time>2021-11-24T15:11:17.000Z</time>
      </trkpt>
      <trkpt lat="43.52105" lon="6.37163">
        <ele>229</ele>
        <time>2021-11-24T15:11:18.000Z</time>
      </trkpt>
      <trkpt lat="43.52104" lon="6.37164">
        <ele>229</ele>
        <time>2021-11-24T15:11:19.000Z</time>
      </trkpt>
      <trkpt lat="43.52104" lon="6.37166">
        <ele>229</ele>
        <time>2021-11-24T15:11:20.000Z</time>
      </trkpt>
      <trkpt lat="43.52103" lon="6.37167">
        <ele>228</ele>
        <time>2021-11-24T15:11:21.000Z</time>
      </trkpt>
      <trkpt lat="43.52103" lon="6.37167">
        <ele>228</ele>
        <time>2021-11-24T15:11:22.000Z</time>
      </trkpt>
      <trkpt lat="43.52103" lon="6.37168">
        <ele>228</ele>
        <time>2021-11-24T15:11:23.000Z</time>
      </trkpt>
      <trkpt lat="43.52103" lon="6.37169">
        <ele>228</ele>
        <time>2021-11-24T15:11:24.000Z</time>
      </trkpt>
      <trkpt lat="43.52103" lon="6.37169">
        <ele>228</ele>
        <time>2021-11-24T15:11:25.000Z</time>
      </trkpt>
      <trkpt lat="43.52103" lon="6.3717">
        <ele>227</ele>
        <time>2021-11-24T15:11:26.000Z</time>
      </trkpt>
      <trkpt lat="43.52103" lon="6.3717">
        <ele>227</ele>
        <time>2021-11-24T15:11:27.000Z</time>
      </trkpt>
      <trkpt lat="43.52103" lon="6.37171">
        <ele>227</ele>
        <time>2021-11-24T15:11:28.000Z</time>
      </trkpt>
      <trkpt lat="43.52103" lon="6.37172">
        <ele>227</ele>
        <time>2021-11-24T15:11:29.000Z</time>
      </trkpt>
      <trkpt lat="43.52103" lon="6.37173">
        <ele>227</ele>
        <time>2021-11-24T15:11:30.000Z</time>
      </trkpt>
      <trkpt lat="43.52103" lon="6.37173">
        <ele>227</ele>
        <time>2021-11-24T15:11:31.000Z</time>
      </trkpt>
      <trkpt lat="43.52103" lon="6.37173">
        <ele>227</ele>
        <time>2021-11-24T15:11:32.000Z</time>
      </trkpt>
      <trkpt lat="43.52103" lon="6.37173">
        <ele>227</ele>
        <time>2021-11-24T15:11:33.000Z</time>
      </trkpt>
      <trkpt lat="43.52103" lon="6.37173">
        <ele>227</ele>
        <time>2021-11-24T15:11:34.000Z</time>
      </trkpt>
      <trkpt lat="43.52103" lon="6.37173">
        <ele>228</ele>
        <time>2021-11-24T15:11:35.000Z</time>
      </trkpt>
      <trkpt lat="43.52103" lon="6.37173">
        <ele>228</ele>
        <time>2021-11-24T15:11:36.000Z</time>
      </trkpt>
      <trkpt lat="43.52103" lon="6.37177">
        <ele>228</ele>
        <time>2021-11-24T15:11:37.000Z</time>
      </trkpt>
      <trkpt lat="43.52103" lon="6.37177">
        <ele>228</ele>
        <time>2021-11-24T15:11:38.000Z</time>
      </trkpt>
      <trkpt lat="43.52102" lon="6.37177">
        <ele>228</ele>
        <time>2021-11-24T15:11:39.000Z</time>
      </trkpt>
      <trkpt lat="43.52102" lon="6.37178">
        <ele>228</ele>
        <time>2021-11-24T15:11:40.000Z</time>
      </trkpt>
      <trkpt lat="43.52102" lon="6.37178">
        <ele>228</ele>
        <time>2021-11-24T15:11:41.000Z</time>
      </trkpt>
      <trkpt lat="43.52102" lon="6.37178">
        <ele>228</ele>
        <time>2021-11-24T15:11:42.000Z</time>
      </trkpt>
      <trkpt lat="43.52102" lon="6.37178">
        <ele>228</ele>
        <time>2021-11-24T15:11:43.000Z</time>
      </trkpt>
      <trkpt lat="43.52102" lon="6.37178">
        <ele>228</ele>
        <time>2021-11-24T15:11:44.000Z</time>
      </trkpt>
      <trkpt lat="43.52102" lon="6.37179">
        <ele>228</ele>
        <time>2021-11-24T15:11:45.000Z</time>
      </trkpt>
      <trkpt lat="43.52102" lon="6.37179">
        <ele>228</ele>
        <time>2021-11-24T15:11:46.000Z</time>
      </trkpt>
      <trkpt lat="43.52102" lon="6.37179">
        <ele>228</ele>
        <time>2021-11-24T15:11:47.000Z</time>
      </trkpt>
      <trkpt lat="43.52102" lon="6.37179">
        <ele>228</ele>
        <time>2021-11-24T15:11:48.000Z</time>
      </trkpt>
      <trkpt lat="43.52102" lon="6.37179">
        <ele>228</ele>
        <time>2021-11-24T15:11:49.000Z</time>
      </trkpt>
      <trkpt lat="43.52102" lon="6.37179">
        <ele>228</ele>
        <time>2021-11-24T15:11:50.000Z</time>
      </trkpt>
      <trkpt lat="43.52102" lon="6.37179">
        <ele>228</ele>
        <time>2021-11-24T15:11:51.000Z</time>
      </trkpt>
      <trkpt lat="43.52102" lon="6.37179">
        <ele>228</ele>
        <time>2021-11-24T15:11:52.000Z</time>
      </trkpt>
      <trkpt lat="43.52102" lon="6.37179">
        <ele>228</ele>
        <time>2021-11-24T15:11:53.000Z</time>
      </trkpt>
      <trkpt lat="43.52102" lon="6.37179">
        <ele>228</ele>
        <time>2021-11-24T15:11:54.000Z</time>
      </trkpt>
      <trkpt lat="43.52102" lon="6.37179">
        <ele>228</ele>
        <time>2021-11-24T15:11:55.000Z</time>
      </trkpt>
      <trkpt lat="43.52102" lon="6.37179">
        <ele>228</ele>
        <time>2021-11-24T15:11:56.000Z</time>
      </trkpt>
      <trkpt lat="43.52102" lon="6.37179">
        <ele>228</ele>
        <time>2021-11-24T15:11:57.000Z</time>
      </trkpt>
      <trkpt lat="43.52102" lon="6.37179">
        <ele>228</ele>
        <time>2021-11-24T15:11:58.000Z</time>
      </trkpt>
      <trkpt lat="43.52102" lon="6.37179">
        <ele>228</ele>
        <time>2021-11-24T15:11:59.000Z</time>
      </trkpt>
      <trkpt lat="43.52102" lon="6.37179">
        <ele>228</ele>
        <time>2021-11-24T15:12:00.000Z</time>
      </trkpt>
      <trkpt lat="43.52102" lon="6.37179">
        <ele>228</ele>
        <time>2021-11-24T15:12:01.000Z</time>
      </trkpt>
      <trkpt lat="43.52102" lon="6.37179">
        <ele>228</ele>
        <time>2021-11-24T15:12:02.000Z</time>
      </trkpt>
      <trkpt lat="43.52102" lon="6.37179">
        <ele>228</ele>
        <time>2021-11-24T15:12:03.000Z</time>
      </trkpt>
      <trkpt lat="43.52102" lon="6.37179">
        <ele>228</ele>
        <time>2021-11-24T15:12:04.000Z</time>
      </trkpt>
      <trkpt lat="43.52102" lon="6.37179">
        <ele>228</ele>
        <time>2021-11-24T15:12:05.000Z</time>
      </trkpt>
      <trkpt lat="43.52102" lon="6.37179">
        <ele>228</ele>
        <time>2021-11-24T15:12:06.000Z</time>
      </trkpt>
      <trkpt lat="43.52102" lon="6.37179">
        <ele>228</ele>
        <time>2021-11-24T15:12:07.000Z</time>
      </trkpt>
      <trkpt lat="43.52102" lon="6.37179">
        <ele>228</ele>
        <time>2021-11-24T15:12:08.000Z</time>
      </trkpt>
      <trkpt lat="43.52102" lon="6.37179">
        <ele>228</ele>
        <time>2021-11-24T15:12:09.000Z</time>
      </trkpt>
      <trkpt lat="43.52102" lon="6.37179">
        <ele>228</ele>
        <time>2021-11-24T15:12:10.000Z</time>
      </trkpt>
      <trkpt lat="43.52102" lon="6.37179">
        <ele>228</ele>
        <time>2021-11-24T15:12:11.000Z</time>
      </trkpt>
      <trkpt lat="43.52102" lon="6.37179">
        <ele>228</ele>
        <time>2021-11-24T15:12:12.000Z</time>
      </trkpt>
      <trkpt lat="43.52102" lon="6.37179">
        <ele>228</ele>
        <time>2021-11-24T15:12:13.000Z</time>
      </trkpt>
      <trkpt lat="43.52102" lon="6.37179">
        <ele>228</ele>
        <time>2021-11-24T15:12:14.000Z</time>
      </trkpt>
      <trkpt lat="43.52102" lon="6.37179">
        <ele>228</ele>
        <time>2021-11-24T15:12:15.000Z</time>
      </trkpt>
      <trkpt lat="43.52102" lon="6.37179">
        <ele>228</ele>
        <time>2021-11-24T15:12:16.000Z</time>
      </trkpt>
      <trkpt lat="43.52102" lon="6.37179">
        <ele>228</ele>
        <time>2021-11-24T15:12:17.000Z</time>
      </trkpt>
      <trkpt lat="43.52102" lon="6.37179">
        <ele>228</ele>
        <time>2021-11-24T15:12:18.000Z</time>
      </trkpt>
      <trkpt lat="43.52102" lon="6.37179">
        <ele>228</ele>
        <time>2021-11-24T15:12:19.000Z</time>
      </trkpt>
      <trkpt lat="43.52102" lon="6.37179">
        <ele>228</ele>
        <time>2021-11-24T15:12:20.000Z</time>
      </trkpt>
      <trkpt lat="43.52102" lon="6.37179">
        <ele>228</ele>
        <time>2021-11-24T15:12:21.000Z</time>
      </trkpt>
      <trkpt lat="43.52102" lon="6.37179">
        <ele>228</ele>
        <time>2021-11-24T15:12:22.000Z</time>
      </trkpt>
      <trkpt lat="43.52102" lon="6.37179">
        <ele>228</ele>
        <time>2021-11-24T15:12:23.000Z</time>
      </trkpt>
      <trkpt lat="43.52102" lon="6.37179">
        <ele>228</ele>
        <time>2021-11-24T15:12:24.000Z</time>
      </trkpt>
      <trkpt lat="43.52102" lon="6.37179">
        <ele>228</ele>
        <time>2021-11-24T15:12:25.000Z</time>
      </trkpt>
      <trkpt lat="43.52102" lon="6.37179">
        <ele>228</ele>
        <time>2021-11-24T15:12:26.000Z</time>
      </trkpt>
      <trkpt lat="43.52102" lon="6.37179">
        <ele>228</ele>
        <time>2021-11-24T15:12:27.000Z</time>
      </trkpt>
      <trkpt lat="43.52102" lon="6.37179">
        <ele>228</ele>
        <time>2021-11-24T15:12:28.000Z</time>
      </trkpt>
      <trkpt lat="43.52102" lon="6.37179">
        <ele>228</ele>
        <time>2021-11-24T15:12:29.000Z</time>
      </trkpt>
      <trkpt lat="43.52102" lon="6.37179">
        <ele>228</ele>
        <time>2021-11-24T15:12:30.000Z</time>
      </trkpt>
      <trkpt lat="43.52102" lon="6.37179">
        <ele>228</ele>
        <time>2021-11-24T15:12:31.000Z</time>
      </trkpt>
      <trkpt lat="43.52102" lon="6.37179">
        <ele>228</ele>
        <time>2021-11-24T15:12:32.000Z</time>
      </trkpt>
      <trkpt lat="43.52102" lon="6.37179">
        <ele>228</ele>
        <time>2021-11-24T15:12:33.000Z</time>
      </trkpt>
      <trkpt lat="43.52102" lon="6.37179">
        <ele>228</ele>
        <time>2021-11-24T15:12:34.000Z</time>
      </trkpt>
      <trkpt lat="43.52102" lon="6.37179">
        <ele>228</ele>
        <time>2021-11-24T15:12:35.000Z</time>
      </trkpt>
      <trkpt lat="43.52102" lon="6.37179">
        <ele>228</ele>
        <time>2021-11-24T15:12:36.000Z</time>
      </trkpt>
      <trkpt lat="43.52102" lon="6.37179">
        <ele>228</ele>
        <time>2021-11-24T15:12:37.000Z</time>
      </trkpt>
      <trkpt lat="43.52102" lon="6.37179">
        <ele>228</ele>
        <time>2021-11-24T15:12:38.000Z</time>
      </trkpt>
      <trkpt lat="43.52102" lon="6.37179">
        <ele>228</ele>
        <time>2021-11-24T15:12:39.000Z</time>
      </trkpt>
      <trkpt lat="43.52102" lon="6.37179">
        <ele>228</ele>
        <time>2021-11-24T15:12:40.000Z</time>
      </trkpt>
      <trkpt lat="43.52102" lon="6.37179">
        <ele>228</ele>
        <time>2021-11-24T15:12:41.000Z</time>
      </trkpt>
      <trkpt lat="43.52102" lon="6.37179">
        <ele>228</ele>
        <time>2021-11-24T15:12:42.000Z</time>
      </trkpt>
      <trkpt lat="43.52102" lon="6.37179">
        <ele>228</ele>
        <time>2021-11-24T15:12:43.000Z</time>
      </trkpt>
      <trkpt lat="43.52102" lon="6.37179">
        <ele>228</ele>
        <time>2021-11-24T15:12:44.000Z</time>
      </trkpt>
      <trkpt lat="43.52102" lon="6.37179">
        <ele>228</ele>
        <time>2021-11-24T15:12:45.000Z</time>
      </trkpt>
      <trkpt lat="43.52102" lon="6.37179">
        <ele>228</ele>
        <time>2021-11-24T15:12:46.000Z</time>
      </trkpt>
      <trkpt lat="43.52102" lon="6.37179">
        <ele>228</ele>
        <time>2021-11-24T15:12:47.000Z</time>
      </trkpt>
      <trkpt lat="43.52102" lon="6.37179">
        <ele>228</ele>
        <time>2021-11-24T15:12:48.000Z</time>
      </trkpt>
      <trkpt lat="43.52102" lon="6.37179">
        <ele>228</ele>
        <time>2021-11-24T15:12:49.000Z</time>
      </trkpt>
      <trkpt lat="43.52102" lon="6.37179">
        <ele>228</ele>
        <time>2021-11-24T15:12:50.000Z</time>
      </trkpt>
      <trkpt lat="43.52102" lon="6.37179">
        <ele>228</ele>
        <time>2021-11-24T15:12:51.000Z</time>
      </trkpt>
      <trkpt lat="43.52102" lon="6.37179">
        <ele>228</ele>
        <time>2021-11-24T15:12:52.000Z</time>
      </trkpt>
      <trkpt lat="43.52102" lon="6.37179">
        <ele>228</ele>
        <time>2021-11-24T15:12:53.000Z</time>
      </trkpt>
      <trkpt lat="43.52102" lon="6.37179">
        <ele>228</ele>
        <time>2021-11-24T15:12:54.000Z</time>
      </trkpt>
      <trkpt lat="43.52102" lon="6.37179">
        <ele>228</ele>
        <time>2021-11-24T15:12:55.000Z</time>
      </trkpt>
      <trkpt lat="43.52102" lon="6.37179">
        <ele>228</ele>
        <time>2021-11-24T15:12:56.000Z</time>
      </trkpt>
      <trkpt lat="43.52102" lon="6.37179">
        <ele>228</ele>
        <time>2021-11-24T15:12:57.000Z</time>
      </trkpt>
      <trkpt lat="43.52102" lon="6.37179">
        <ele>228</ele>
        <time>2021-11-24T15:12:58.000Z</time>
      </trkpt>
      <trkpt lat="43.52102" lon="6.37179">
        <ele>228</ele>
        <time>2021-11-24T15:12:59.000Z</time>
      </trkpt>
      <trkpt lat="43.52102" lon="6.37179">
        <ele>228</ele>
        <time>2021-11-24T15:13:00.000Z</time>
      </trkpt>
      <trkpt lat="43.52102" lon="6.37179">
        <ele>228</ele>
        <time>2021-11-24T15:13:01.000Z</time>
      </trkpt>
      <trkpt lat="43.52102" lon="6.37179">
        <ele>228</ele>
        <time>2021-11-24T15:13:02.000Z</time>
      </trkpt>
      <trkpt lat="43.52102" lon="6.37179">
        <ele>228</ele>
        <time>2021-11-24T15:13:03.000Z</time>
      </trkpt>
      <trkpt lat="43.52102" lon="6.37179">
        <ele>228</ele>
        <time>2021-11-24T15:13:04.000Z</time>
      </trkpt>
      <trkpt lat="43.52102" lon="6.37179">
        <ele>228</ele>
        <time>2021-11-24T15:13:05.000Z</time>
      </trkpt>
      <trkpt lat="43.52102" lon="6.37179">
        <ele>228</ele>
        <time>2021-11-24T15:13:06.000Z</time>
      </trkpt>
      <trkpt lat="43.52102" lon="6.37179">
        <ele>228</ele>
        <time>2021-11-24T15:13:07.000Z</time>
      </trkpt>
      <trkpt lat="43.52102" lon="6.37179">
        <ele>228</ele>
        <time>2021-11-24T15:13:08.000Z</time>
      </trkpt>
      <trkpt lat="43.52102" lon="6.37179">
        <ele>228</ele>
        <time>2021-11-24T15:13:09.000Z</time>
      </trkpt>
      <trkpt lat="43.52102" lon="6.37179">
        <ele>228</ele>
        <time>2021-11-24T15:13:10.000Z</time>
      </trkpt>
      <trkpt lat="43.52102" lon="6.37179">
        <ele>228</ele>
        <time>2021-11-24T15:13:11.000Z</time>
      </trkpt>
      <trkpt lat="43.52102" lon="6.37179">
        <ele>228</ele>
        <time>2021-11-24T15:13:12.000Z</time>
      </trkpt>
      <trkpt lat="43.52102" lon="6.37179">
        <ele>228</ele>
        <time>2021-11-24T15:13:13.000Z</time>
      </trkpt>
      <trkpt lat="43.52102" lon="6.37179">
        <ele>228</ele>
        <time>2021-11-24T15:13:14.000Z</time>
      </trkpt>
      <trkpt lat="43.52104" lon="6.37184">
        <ele>228</ele>
        <time>2021-11-24T15:13:15.000Z</time>
      </trkpt>
      <trkpt lat="43.52104" lon="6.37184">
        <ele>228</ele>
        <time>2021-11-24T15:13:16.000Z</time>
      </trkpt>
      <trkpt lat="43.52104" lon="6.37184">
        <ele>228</ele>
        <time>2021-11-24T15:13:17.000Z</time>
      </trkpt>
      <trkpt lat="43.52104" lon="6.37184">
        <ele>228</ele>
        <time>2021-11-24T15:13:18.000Z</time>
      </trkpt>
      <trkpt lat="43.52104" lon="6.37184">
        <ele>228</ele>
        <time>2021-11-24T15:13:19.000Z</time>
      </trkpt>
      <trkpt lat="43.52104" lon="6.37184">
        <ele>228</ele>
        <time>2021-11-24T15:13:20.000Z</time>
      </trkpt>
      <trkpt lat="43.52104" lon="6.37185">
        <ele>228</ele>
        <time>2021-11-24T15:13:21.000Z</time>
      </trkpt>
      <trkpt lat="43.52104" lon="6.37185">
        <ele>228</ele>
        <time>2021-11-24T15:13:22.000Z</time>
      </trkpt>
      <trkpt lat="43.52104" lon="6.37185">
        <ele>228</ele>
        <time>2021-11-24T15:13:23.000Z</time>
      </trkpt>
      <trkpt lat="43.52104" lon="6.37186">
        <ele>228</ele>
        <time>2021-11-24T15:13:24.000Z</time>
      </trkpt>
      <trkpt lat="43.52103" lon="6.37186">
        <ele>228</ele>
        <time>2021-11-24T15:13:25.000Z</time>
      </trkpt>
      <trkpt lat="43.52103" lon="6.37186">
        <ele>228</ele>
        <time>2021-11-24T15:13:26.000Z</time>
      </trkpt>
      <trkpt lat="43.52103" lon="6.37186">
        <ele>228</ele>
        <time>2021-11-24T15:13:27.000Z</time>
      </trkpt>
      <trkpt lat="43.52103" lon="6.37186">
        <ele>227</ele>
        <time>2021-11-24T15:13:28.000Z</time>
      </trkpt>
      <trkpt lat="43.52103" lon="6.37186">
        <ele>227</ele>
        <time>2021-11-24T15:13:29.000Z</time>
      </trkpt>
      <trkpt lat="43.52103" lon="6.37186">
        <ele>227</ele>
        <time>2021-11-24T15:13:30.000Z</time>
      </trkpt>
      <trkpt lat="43.52103" lon="6.37186">
        <ele>227</ele>
        <time>2021-11-24T15:13:31.000Z</time>
      </trkpt>
      <trkpt lat="43.52103" lon="6.37186">
        <ele>227</ele>
        <time>2021-11-24T15:13:32.000Z</time>
      </trkpt>
      <trkpt lat="43.52103" lon="6.37186">
        <ele>227</ele>
        <time>2021-11-24T15:13:33.000Z</time>
      </trkpt>
      <trkpt lat="43.52103" lon="6.37186">
        <ele>227</ele>
        <time>2021-11-24T15:13:34.000Z</time>
      </trkpt>
      <trkpt lat="43.52103" lon="6.37186">
        <ele>227</ele>
        <time>2021-11-24T15:13:35.000Z</time>
      </trkpt>
      <trkpt lat="43.52103" lon="6.37186">
        <ele>227</ele>
        <time>2021-11-24T15:13:36.000Z</time>
      </trkpt>
      <trkpt lat="43.52103" lon="6.37186">
        <ele>227</ele>
        <time>2021-11-24T15:13:37.000Z</time>
      </trkpt>
      <trkpt lat="43.52103" lon="6.37186">
        <ele>227</ele>
        <time>2021-11-24T15:13:38.000Z</time>
      </trkpt>
      <trkpt lat="43.52103" lon="6.37186">
        <ele>227</ele>
        <time>2021-11-24T15:13:39.000Z</time>
      </trkpt>
      <trkpt lat="43.52103" lon="6.37186">
        <ele>227</ele>
        <time>2021-11-24T15:13:40.000Z</time>
      </trkpt>
      <trkpt lat="43.52103" lon="6.37186">
        <ele>227</ele>
        <time>2021-11-24T15:13:41.000Z</time>
      </trkpt>
      <trkpt lat="43.52103" lon="6.37186">
        <ele>227</ele>
        <time>2021-11-24T15:13:42.000Z</time>
      </trkpt>
      <trkpt lat="43.52103" lon="6.37186">
        <ele>227</ele>
        <time>2021-11-24T15:13:43.000Z</time>
      </trkpt>
      <trkpt lat="43.52103" lon="6.37186">
        <ele>227</ele>
        <time>2021-11-24T15:13:44.000Z</time>
      </trkpt>
      <trkpt lat="43.52103" lon="6.37186">
        <ele>227</ele>
        <time>2021-11-24T15:13:45.000Z</time>
      </trkpt>
      <trkpt lat="43.52103" lon="6.37186">
        <ele>227</ele>
        <time>2021-11-24T15:13:46.000Z</time>
      </trkpt>
      <trkpt lat="43.52103" lon="6.37186">
        <ele>227</ele>
        <time>2021-11-24T15:13:47.000Z</time>
      </trkpt>
      <trkpt lat="43.52103" lon="6.37186">
        <ele>227</ele>
        <time>2021-11-24T15:13:48.000Z</time>
      </trkpt>
      <trkpt lat="43.52103" lon="6.37186">
        <ele>227</ele>
        <time>2021-11-24T15:13:49.000Z</time>
      </trkpt>
      <trkpt lat="43.52103" lon="6.37186">
        <ele>227</ele>
        <time>2021-11-24T15:13:50.000Z</time>
      </trkpt>
      <trkpt lat="43.52103" lon="6.37186">
        <ele>227</ele>
        <time>2021-11-24T15:13:51.000Z</time>
      </trkpt>
      <trkpt lat="43.52103" lon="6.37186">
        <ele>227</ele>
        <time>2021-11-24T15:13:52.000Z</time>
      </trkpt>
      <trkpt lat="43.52103" lon="6.37186">
        <ele>227</ele>
        <time>2021-11-24T15:13:53.000Z</time>
      </trkpt>
      <trkpt lat="43.52103" lon="6.37186">
        <ele>227</ele>
        <time>2021-11-24T15:13:54.000Z</time>
      </trkpt>
      <trkpt lat="43.52103" lon="6.37186">
        <ele>227</ele>
        <time>2021-11-24T15:13:55.000Z</time>
      </trkpt>
      <trkpt lat="43.52103" lon="6.37186">
        <ele>227</ele>
        <time>2021-11-24T15:13:56.000Z</time>
      </trkpt>
      <trkpt lat="43.52103" lon="6.37186">
        <ele>227</ele>
        <time>2021-11-24T15:13:57.000Z</time>
      </trkpt>
      <trkpt lat="43.52103" lon="6.37186">
        <ele>227</ele>
        <time>2021-11-24T15:13:58.000Z</time>
      </trkpt>
      <trkpt lat="43.52103" lon="6.37186">
        <ele>227</ele>
        <time>2021-11-24T15:13:59.000Z</time>
      </trkpt>
      <trkpt lat="43.52103" lon="6.37186">
        <ele>227</ele>
        <time>2021-11-24T15:14:00.000Z</time>
      </trkpt>
      <trkpt lat="43.52103" lon="6.37186">
        <ele>227</ele>
        <time>2021-11-24T15:14:01.000Z</time>
      </trkpt>
      <trkpt lat="43.52103" lon="6.37186">
        <ele>227</ele>
        <time>2021-11-24T15:14:02.000Z</time>
      </trkpt>
      <trkpt lat="43.52103" lon="6.37186">
        <ele>227</ele>
        <time>2021-11-24T15:14:03.000Z</time>
      </trkpt>
      <trkpt lat="43.52103" lon="6.37186">
        <ele>227</ele>
        <time>2021-11-24T15:14:04.000Z</time>
      </trkpt>
      <trkpt lat="43.52102" lon="6.37189">
        <ele>227</ele>
        <time>2021-11-24T15:14:05.000Z</time>
      </trkpt>
      <trkpt lat="43.52102" lon="6.37189">
        <ele>227</ele>
        <time>2021-11-24T15:14:06.000Z</time>
      </trkpt>
      <trkpt lat="43.52102" lon="6.37189">
        <ele>227</ele>
        <time>2021-11-24T15:14:07.000Z</time>
      </trkpt>
      <trkpt lat="43.52102" lon="6.37189">
        <ele>227</ele>
        <time>2021-11-24T15:14:08.000Z</time>
      </trkpt>
      <trkpt lat="43.52102" lon="6.37189">
        <ele>227</ele>
        <time>2021-11-24T15:14:09.000Z</time>
      </trkpt>
      <trkpt lat="43.52102" lon="6.37189">
        <ele>227</ele>
        <time>2021-11-24T15:14:10.000Z</time>
      </trkpt>
      <trkpt lat="43.52102" lon="6.37189">
        <ele>227</ele>
        <time>2021-11-24T15:14:11.000Z</time>
      </trkpt>
      <trkpt lat="43.52102" lon="6.37189">
        <ele>227</ele>
        <time>2021-11-24T15:14:12.000Z</time>
      </trkpt>
      <trkpt lat="43.52102" lon="6.37189">
        <ele>227</ele>
        <time>2021-11-24T15:14:13.000Z</time>
      </trkpt>
      <trkpt lat="43.52102" lon="6.37189">
        <ele>227</ele>
        <time>2021-11-24T15:14:14.000Z</time>
      </trkpt>
      <trkpt lat="43.52102" lon="6.37189">
        <ele>227</ele>
        <time>2021-11-24T15:14:15.000Z</time>
      </trkpt>
      <trkpt lat="43.52102" lon="6.37189">
        <ele>227</ele>
        <time>2021-11-24T15:14:16.000Z</time>
      </trkpt>
      <trkpt lat="43.52102" lon="6.37189">
        <ele>227</ele>
        <time>2021-11-24T15:14:17.000Z</time>
      </trkpt>
      <trkpt lat="43.52102" lon="6.37189">
        <ele>227</ele>
        <time>2021-11-24T15:14:18.000Z</time>
      </trkpt>
      <trkpt lat="43.52102" lon="6.37189">
        <ele>227</ele>
        <time>2021-11-24T15:14:19.000Z</time>
      </trkpt>
      <trkpt lat="43.52102" lon="6.37189">
        <ele>227</ele>
        <time>2021-11-24T15:14:20.000Z</time>
      </trkpt>
      <trkpt lat="43.52102" lon="6.37189">
        <ele>227</ele>
        <time>2021-11-24T15:14:21.000Z</time>
      </trkpt>
      <trkpt lat="43.52102" lon="6.37189">
        <ele>227</ele>
        <time>2021-11-24T15:14:22.000Z</time>
      </trkpt>
      <trkpt lat="43.52102" lon="6.37189">
        <ele>226</ele>
        <time>2021-11-24T15:14:23.000Z</time>
      </trkpt>
      <trkpt lat="43.52102" lon="6.37189">
        <ele>226</ele>
        <time>2021-11-24T15:14:24.000Z</time>
      </trkpt>
      <trkpt lat="43.52102" lon="6.37189">
        <ele>226</ele>
        <time>2021-11-24T15:14:25.000Z</time>
      </trkpt>
      <trkpt lat="43.52102" lon="6.37189">
        <ele>226</ele>
        <time>2021-11-24T15:14:26.000Z</time>
      </trkpt>
      <trkpt lat="43.52102" lon="6.37189">
        <ele>226</ele>
        <time>2021-11-24T15:14:27.000Z</time>
      </trkpt>
      <trkpt lat="43.52102" lon="6.37189">
        <ele>226</ele>
        <time>2021-11-24T15:14:28.000Z</time>
      </trkpt>
      <trkpt lat="43.52102" lon="6.37189">
        <ele>226</ele>
        <time>2021-11-24T15:14:29.000Z</time>
      </trkpt>
      <trkpt lat="43.52102" lon="6.37189">
        <ele>226</ele>
        <time>2021-11-24T15:14:30.000Z</time>
      </trkpt>
      <trkpt lat="43.521" lon="6.37191">
        <ele>226</ele>
        <time>2021-11-24T15:14:31.000Z</time>
      </trkpt>
      <trkpt lat="43.521" lon="6.37191">
        <ele>226</ele>
        <time>2021-11-24T15:14:32.000Z</time>
      </trkpt>
      <trkpt lat="43.521" lon="6.37191">
        <ele>226</ele>
        <time>2021-11-24T15:14:33.000Z</time>
      </trkpt>
      <trkpt lat="43.521" lon="6.37192">
        <ele>226</ele>
        <time>2021-11-24T15:14:34.000Z</time>
      </trkpt>
      <trkpt lat="43.521" lon="6.37192">
        <ele>226</ele>
        <time>2021-11-24T15:14:35.000Z</time>
      </trkpt>
      <trkpt lat="43.521" lon="6.37192">
        <ele>226</ele>
        <time>2021-11-24T15:14:36.000Z</time>
      </trkpt>
      <trkpt lat="43.521" lon="6.37192">
        <ele>226</ele>
        <time>2021-11-24T15:14:37.000Z</time>
      </trkpt>
      <trkpt lat="43.521" lon="6.37192">
        <ele>226</ele>
        <time>2021-11-24T15:14:38.000Z</time>
      </trkpt>
      <trkpt lat="43.521" lon="6.37192">
        <ele>226</ele>
        <time>2021-11-24T15:14:39.000Z</time>
      </trkpt>
      <trkpt lat="43.521" lon="6.37192">
        <ele>226</ele>
        <time>2021-11-24T15:14:40.000Z</time>
      </trkpt>
      <trkpt lat="43.521" lon="6.37192">
        <ele>226</ele>
        <time>2021-11-24T15:14:41.000Z</time>
      </trkpt>
      <trkpt lat="43.521" lon="6.37192">
        <ele>226</ele>
        <time>2021-11-24T15:14:42.000Z</time>
      </trkpt>
      <trkpt lat="43.521" lon="6.37192">
        <ele>226</ele>
        <time>2021-11-24T15:14:43.000Z</time>
      </trkpt>
      <trkpt lat="43.521" lon="6.37192">
        <ele>226</ele>
        <time>2021-11-24T15:14:44.000Z</time>
      </trkpt>
      <trkpt lat="43.521" lon="6.37192">
        <ele>226</ele>
        <time>2021-11-24T15:14:45.000Z</time>
      </trkpt>
      <trkpt lat="43.521" lon="6.37192">
        <ele>226</ele>
        <time>2021-11-24T15:14:46.000Z</time>
      </trkpt>
      <trkpt lat="43.521" lon="6.37192">
        <ele>226</ele>
        <time>2021-11-24T15:14:47.000Z</time>
      </trkpt>
      <trkpt lat="43.521" lon="6.37192">
        <ele>226</ele>
        <time>2021-11-24T15:14:48.000Z</time>
      </trkpt>
      <trkpt lat="43.521" lon="6.37192">
        <ele>226</ele>
        <time>2021-11-24T15:14:49.000Z</time>
      </trkpt>
      <trkpt lat="43.521" lon="6.37192">
        <ele>226</ele>
        <time>2021-11-24T15:14:50.000Z</time>
      </trkpt>
      <trkpt lat="43.521" lon="6.37192">
        <ele>226</ele>
        <time>2021-11-24T15:14:51.000Z</time>
      </trkpt>
      <trkpt lat="43.521" lon="6.37192">
        <ele>226</ele>
        <time>2021-11-24T15:14:52.000Z</time>
      </trkpt>
      <trkpt lat="43.521" lon="6.37192">
        <ele>226</ele>
        <time>2021-11-24T15:14:53.000Z</time>
      </trkpt>
      <trkpt lat="43.521" lon="6.37192">
        <ele>226</ele>
        <time>2021-11-24T15:14:54.000Z</time>
      </trkpt>
      <trkpt lat="43.521" lon="6.37192">
        <ele>226</ele>
        <time>2021-11-24T15:14:55.000Z</time>
      </trkpt>
      <trkpt lat="43.521" lon="6.37192">
        <ele>226</ele>
        <time>2021-11-24T15:14:56.000Z</time>
      </trkpt>
      <trkpt lat="43.521" lon="6.37192">
        <ele>226</ele>
        <time>2021-11-24T15:14:57.000Z</time>
      </trkpt>
      <trkpt lat="43.521" lon="6.37192">
        <ele>226</ele>
        <time>2021-11-24T15:14:58.000Z</time>
      </trkpt>
      <trkpt lat="43.521" lon="6.37192">
        <ele>226</ele>
        <time>2021-11-24T15:14:59.000Z</time>
      </trkpt>
      <trkpt lat="43.521" lon="6.37192">
        <ele>226</ele>
        <time>2021-11-24T15:15:00.000Z</time>
      </trkpt>
      <trkpt lat="43.521" lon="6.37192">
        <ele>226</ele>
        <time>2021-11-24T15:15:01.000Z</time>
      </trkpt>
      <trkpt lat="43.521" lon="6.37192">
        <ele>226</ele>
        <time>2021-11-24T15:15:02.000Z</time>
      </trkpt>
      <trkpt lat="43.521" lon="6.37192">
        <ele>226</ele>
        <time>2021-11-24T15:15:03.000Z</time>
      </trkpt>
      <trkpt lat="43.521" lon="6.37192">
        <ele>226</ele>
        <time>2021-11-24T15:15:04.000Z</time>
      </trkpt>
      <trkpt lat="43.521" lon="6.37192">
        <ele>226</ele>
        <time>2021-11-24T15:15:05.000Z</time>
      </trkpt>
      <trkpt lat="43.521" lon="6.37192">
        <ele>226</ele>
        <time>2021-11-24T15:15:06.000Z</time>
      </trkpt>
      <trkpt lat="43.521" lon="6.37192">
        <ele>226</ele>
        <time>2021-11-24T15:15:07.000Z</time>
      </trkpt>
      <trkpt lat="43.521" lon="6.37192">
        <ele>226</ele>
        <time>2021-11-24T15:15:08.000Z</time>
      </trkpt>
      <trkpt lat="43.521" lon="6.37192">
        <ele>226</ele>
        <time>2021-11-24T15:15:09.000Z</time>
      </trkpt>
      <trkpt lat="43.521" lon="6.37192">
        <ele>226</ele>
        <time>2021-11-24T15:15:10.000Z</time>
      </trkpt>
      <trkpt lat="43.521" lon="6.37192">
        <ele>226</ele>
        <time>2021-11-24T15:15:11.000Z</time>
      </trkpt>
      <trkpt lat="43.521" lon="6.37192">
        <ele>226</ele>
        <time>2021-11-24T15:15:12.000Z</time>
      </trkpt>
      <trkpt lat="43.521" lon="6.37192">
        <ele>226</ele>
        <time>2021-11-24T15:15:13.000Z</time>
      </trkpt>
      <trkpt lat="43.521" lon="6.37192">
        <ele>226</ele>
        <time>2021-11-24T15:15:14.000Z</time>
      </trkpt>
      <trkpt lat="43.521" lon="6.37192">
        <ele>226</ele>
        <time>2021-11-24T15:15:15.000Z</time>
      </trkpt>
      <trkpt lat="43.521" lon="6.37192">
        <ele>226</ele>
        <time>2021-11-24T15:15:16.000Z</time>
      </trkpt>
      <trkpt lat="43.521" lon="6.37192">
        <ele>226</ele>
        <time>2021-11-24T15:15:17.000Z</time>
      </trkpt>
      <trkpt lat="43.521" lon="6.37192">
        <ele>226</ele>
        <time>2021-11-24T15:15:18.000Z</time>
      </trkpt>
      <trkpt lat="43.521" lon="6.37192">
        <ele>226</ele>
        <time>2021-11-24T15:15:19.000Z</time>
      </trkpt>
      <trkpt lat="43.521" lon="6.37192">
        <ele>226</ele>
        <time>2021-11-24T15:15:20.000Z</time>
      </trkpt>
      <trkpt lat="43.521" lon="6.37192">
        <ele>226</ele>
        <time>2021-11-24T15:15:21.000Z</time>
      </trkpt>
      <trkpt lat="43.521" lon="6.37192">
        <ele>226</ele>
        <time>2021-11-24T15:15:22.000Z</time>
      </trkpt>
      <trkpt lat="43.521" lon="6.37192">
        <ele>226</ele>
        <time>2021-11-24T15:15:23.000Z</time>
      </trkpt>
      <trkpt lat="43.521" lon="6.37192">
        <ele>226</ele>
        <time>2021-11-24T15:15:24.000Z</time>
      </trkpt>
      <trkpt lat="43.521" lon="6.37192">
        <ele>226</ele>
        <time>2021-11-24T15:15:25.000Z</time>
      </trkpt>
      <trkpt lat="43.521" lon="6.37192">
        <ele>226</ele>
        <time>2021-11-24T15:15:26.000Z</time>
      </trkpt>
      <trkpt lat="43.521" lon="6.37192">
        <ele>226</ele>
        <time>2021-11-24T15:15:27.000Z</time>
      </trkpt>
      <trkpt lat="43.521" lon="6.37192">
        <ele>226</ele>
        <time>2021-11-24T15:15:28.000Z</time>
      </trkpt>
      <trkpt lat="43.521" lon="6.37192">
        <ele>226</ele>
        <time>2021-11-24T15:15:29.000Z</time>
      </trkpt>
      <trkpt lat="43.521" lon="6.37192">
        <ele>226</ele>
        <time>2021-11-24T15:15:30.000Z</time>
      </trkpt>
      <trkpt lat="43.521" lon="6.37192">
        <ele>226</ele>
        <time>2021-11-24T15:15:31.000Z</time>
      </trkpt>
      <trkpt lat="43.521" lon="6.37192">
        <ele>226</ele>
        <time>2021-11-24T15:15:32.000Z</time>
      </trkpt>
      <trkpt lat="43.521" lon="6.37192">
        <ele>226</ele>
        <time>2021-11-24T15:15:33.000Z</time>
      </trkpt>
      <trkpt lat="43.521" lon="6.37192">
        <ele>226</ele>
        <time>2021-11-24T15:15:34.000Z</time>
      </trkpt>
      <trkpt lat="43.521" lon="6.37192">
        <ele>226</ele>
        <time>2021-11-24T15:15:35.000Z</time>
      </trkpt>
      <trkpt lat="43.521" lon="6.37192">
        <ele>226</ele>
        <time>2021-11-24T15:15:36.000Z</time>
      </trkpt>
      <trkpt lat="43.521" lon="6.37192">
        <ele>226</ele>
        <time>2021-11-24T15:15:37.000Z</time>
      </trkpt>
      <trkpt lat="43.521" lon="6.37192">
        <ele>226</ele>
        <time>2021-11-24T15:15:38.000Z</time>
      </trkpt>
      <trkpt lat="43.521" lon="6.37192">
        <ele>226</ele>
        <time>2021-11-24T15:15:39.000Z</time>
      </trkpt>
      <trkpt lat="43.521" lon="6.37192">
        <ele>226</ele>
        <time>2021-11-24T15:15:40.000Z</time>
      </trkpt>
      <trkpt lat="43.521" lon="6.37192">
        <ele>226</ele>
        <time>2021-11-24T15:15:41.000Z</time>
      </trkpt>
      <trkpt lat="43.521" lon="6.37192">
        <ele>226</ele>
        <time>2021-11-24T15:15:42.000Z</time>
      </trkpt>
      <trkpt lat="43.521" lon="6.37192">
        <ele>226</ele>
        <time>2021-11-24T15:15:43.000Z</time>
      </trkpt>
      <trkpt lat="43.521" lon="6.37192">
        <ele>226</ele>
        <time>2021-11-24T15:15:44.000Z</time>
      </trkpt>
      <trkpt lat="43.521" lon="6.37192">
        <ele>226</ele>
        <time>2021-11-24T15:15:45.000Z</time>
      </trkpt>
      <trkpt lat="43.521" lon="6.37192">
        <ele>226</ele>
        <time>2021-11-24T15:15:46.000Z</time>
      </trkpt>
      <trkpt lat="43.521" lon="6.37192">
        <ele>226</ele>
        <time>2021-11-24T15:15:47.000Z</time>
      </trkpt>
      <trkpt lat="43.521" lon="6.37192">
        <ele>226</ele>
        <time>2021-11-24T15:15:48.000Z</time>
      </trkpt>
      <trkpt lat="43.521" lon="6.37192">
        <ele>226</ele>
        <time>2021-11-24T15:15:49.000Z</time>
      </trkpt>
      <trkpt lat="43.521" lon="6.37192">
        <ele>226</ele>
        <time>2021-11-24T15:15:50.000Z</time>
      </trkpt>
      <trkpt lat="43.521" lon="6.37192">
        <ele>226</ele>
        <time>2021-11-24T15:15:51.000Z</time>
      </trkpt>
      <trkpt lat="43.521" lon="6.37192">
        <ele>226</ele>
        <time>2021-11-24T15:15:52.000Z</time>
      </trkpt>
      <trkpt lat="43.521" lon="6.37192">
        <ele>226</ele>
        <time>2021-11-24T15:15:53.000Z</time>
      </trkpt>
      <trkpt lat="43.521" lon="6.37192">
        <ele>226</ele>
        <time>2021-11-24T15:15:54.000Z</time>
      </trkpt>
      <trkpt lat="43.521" lon="6.37192">
        <ele>226</ele>
        <time>2021-11-24T15:15:55.000Z</time>
      </trkpt>
      <trkpt lat="43.521" lon="6.37192">
        <ele>226</ele>
        <time>2021-11-24T15:15:56.000Z</time>
      </trkpt>
      <trkpt lat="43.521" lon="6.37192">
        <ele>226</ele>
        <time>2021-11-24T15:15:57.000Z</time>
      </trkpt>
      <trkpt lat="43.521" lon="6.37192">
        <ele>226</ele>
        <time>2021-11-24T15:15:58.000Z</time>
      </trkpt>
      <trkpt lat="43.521" lon="6.37192">
        <ele>226</ele>
        <time>2021-11-24T15:15:59.000Z</time>
      </trkpt>
      <trkpt lat="43.521" lon="6.37192">
        <ele>226</ele>
        <time>2021-11-24T15:16:00.000Z</time>
      </trkpt>
      <trkpt lat="43.521" lon="6.37192">
        <ele>226</ele>
        <time>2021-11-24T15:16:01.000Z</time>
      </trkpt>
      <trkpt lat="43.521" lon="6.37192">
        <ele>226</ele>
        <time>2021-11-24T15:16:02.000Z</time>
      </trkpt>
      <trkpt lat="43.521" lon="6.37192">
        <ele>226</ele>
        <time>2021-11-24T15:16:03.000Z</time>
      </trkpt>
      <trkpt lat="43.521" lon="6.37192">
        <ele>226</ele>
        <time>2021-11-24T15:16:04.000Z</time>
      </trkpt>
      <trkpt lat="43.521" lon="6.37192">
        <ele>226</ele>
        <time>2021-11-24T15:16:05.000Z</time>
      </trkpt>
      <trkpt lat="43.521" lon="6.37192">
        <ele>226</ele>
        <time>2021-11-24T15:16:06.000Z</time>
      </trkpt>
      <trkpt lat="43.521" lon="6.37192">
        <ele>226</ele>
        <time>2021-11-24T15:16:07.000Z</time>
      </trkpt>
      <trkpt lat="43.521" lon="6.37192">
        <ele>226</ele>
        <time>2021-11-24T15:16:08.000Z</time>
      </trkpt>
      <trkpt lat="43.521" lon="6.37192">
        <ele>226</ele>
        <time>2021-11-24T15:16:09.000Z</time>
      </trkpt>
      <trkpt lat="43.521" lon="6.37192">
        <ele>226</ele>
        <time>2021-11-24T15:16:10.000Z</time>
      </trkpt>
      <trkpt lat="43.521" lon="6.37192">
        <ele>226</ele>
        <time>2021-11-24T15:16:11.000Z</time>
      </trkpt>
      <trkpt lat="43.521" lon="6.37192">
        <ele>226</ele>
        <time>2021-11-24T15:16:12.000Z</time>
      </trkpt>
      <trkpt lat="43.521" lon="6.37192">
        <ele>226</ele>
        <time>2021-11-24T15:16:13.000Z</time>
      </trkpt>
      <trkpt lat="43.521" lon="6.37192">
        <ele>226</ele>
        <time>2021-11-24T15:16:14.000Z</time>
      </trkpt>
      <trkpt lat="43.521" lon="6.37192">
        <ele>226</ele>
        <time>2021-11-24T15:16:15.000Z</time>
      </trkpt>
      <trkpt lat="43.521" lon="6.37192">
        <ele>226</ele>
        <time>2021-11-24T15:16:16.000Z</time>
      </trkpt>
      <trkpt lat="43.521" lon="6.37192">
        <ele>226</ele>
        <time>2021-11-24T15:16:17.000Z</time>
      </trkpt>
      <trkpt lat="43.521" lon="6.37192">
        <ele>226</ele>
        <time>2021-11-24T15:16:18.000Z</time>
      </trkpt>
      <trkpt lat="43.521" lon="6.37192">
        <ele>226</ele>
        <time>2021-11-24T15:16:19.000Z</time>
      </trkpt>
      <trkpt lat="43.521" lon="6.37192">
        <ele>226</ele>
        <time>2021-11-24T15:16:20.000Z</time>
      </trkpt>
      <trkpt lat="43.521" lon="6.37192">
        <ele>226</ele>
        <time>2021-11-24T15:16:21.000Z</time>
      </trkpt>
      <trkpt lat="43.521" lon="6.37192">
        <ele>226</ele>
        <time>2021-11-24T15:16:22.000Z</time>
      </trkpt>
      <trkpt lat="43.521" lon="6.37192">
        <ele>226</ele>
        <time>2021-11-24T15:16:23.000Z</time>
      </trkpt>
      <trkpt lat="43.521" lon="6.37192">
        <ele>226</ele>
        <time>2021-11-24T15:16:24.000Z</time>
      </trkpt>
      <trkpt lat="43.521" lon="6.37192">
        <ele>226</ele>
        <time>2021-11-24T15:16:25.000Z</time>
      </trkpt>
      <trkpt lat="43.521" lon="6.37192">
        <ele>226</ele>
        <time>2021-11-24T15:16:26.000Z</time>
      </trkpt>
      <trkpt lat="43.521" lon="6.37192">
        <ele>226</ele>
        <time>2021-11-24T15:16:27.000Z</time>
      </trkpt>
      <trkpt lat="43.521" lon="6.37192">
        <ele>226</ele>
        <time>2021-11-24T15:16:28.000Z</time>
      </trkpt>
      <trkpt lat="43.521" lon="6.37192">
        <ele>226</ele>
        <time>2021-11-24T15:16:29.000Z</time>
      </trkpt>
      <trkpt lat="43.521" lon="6.37192">
        <ele>226</ele>
        <time>2021-11-24T15:16:30.000Z</time>
      </trkpt>
      <trkpt lat="43.521" lon="6.37192">
        <ele>226</ele>
        <time>2021-11-24T15:16:31.000Z</time>
      </trkpt>
      <trkpt lat="43.521" lon="6.37192">
        <ele>226</ele>
        <time>2021-11-24T15:16:32.000Z</time>
      </trkpt>
      <trkpt lat="43.52106" lon="6.37191">
        <ele>226</ele>
        <time>2021-11-24T15:16:33.000Z</time>
      </trkpt>
      <trkpt lat="43.52106" lon="6.37191">
        <ele>226</ele>
        <time>2021-11-24T15:16:34.000Z</time>
      </trkpt>
      <trkpt lat="43.52106" lon="6.37191">
        <ele>226</ele>
        <time>2021-11-24T15:16:35.000Z</time>
      </trkpt>
      <trkpt lat="43.52106" lon="6.37191">
        <ele>226</ele>
        <time>2021-11-24T15:16:36.000Z</time>
      </trkpt>
      <trkpt lat="43.52106" lon="6.37191">
        <ele>226</ele>
        <time>2021-11-24T15:16:37.000Z</time>
      </trkpt>
      <trkpt lat="43.52106" lon="6.37191">
        <ele>226</ele>
        <time>2021-11-24T15:16:38.000Z</time>
      </trkpt>
      <trkpt lat="43.52106" lon="6.37191">
        <ele>226</ele>
        <time>2021-11-24T15:16:39.000Z</time>
      </trkpt>
      <trkpt lat="43.52106" lon="6.37191">
        <ele>226</ele>
        <time>2021-11-24T15:16:40.000Z</time>
      </trkpt>
      <trkpt lat="43.52106" lon="6.37191">
        <ele>226</ele>
        <time>2021-11-24T15:16:41.000Z</time>
      </trkpt>
      <trkpt lat="43.52106" lon="6.37191">
        <ele>226</ele>
        <time>2021-11-24T15:16:42.000Z</time>
      </trkpt>
      <trkpt lat="43.52106" lon="6.37191">
        <ele>226</ele>
        <time>2021-11-24T15:16:43.000Z</time>
      </trkpt>
      <trkpt lat="43.52106" lon="6.37191">
        <ele>226</ele>
        <time>2021-11-24T15:16:44.000Z</time>
      </trkpt>
      <trkpt lat="43.52106" lon="6.37191">
        <ele>226</ele>
        <time>2021-11-24T15:16:45.000Z</time>
      </trkpt>
      <trkpt lat="43.52106" lon="6.37191">
        <ele>226</ele>
        <time>2021-11-24T15:16:46.000Z</time>
      </trkpt>
      <trkpt lat="43.52106" lon="6.37191">
        <ele>226</ele>
        <time>2021-11-24T15:16:47.000Z</time>
      </trkpt>
      <trkpt lat="43.52106" lon="6.37191">
        <ele>225</ele>
        <time>2021-11-24T15:16:48.000Z</time>
      </trkpt>
      <trkpt lat="43.52106" lon="6.37191">
        <ele>225</ele>
        <time>2021-11-24T15:16:49.000Z</time>
      </trkpt>
      <trkpt lat="43.52106" lon="6.37191">
        <ele>225</ele>
        <time>2021-11-24T15:16:50.000Z</time>
      </trkpt>
      <trkpt lat="43.52106" lon="6.37191">
        <ele>225</ele>
        <time>2021-11-24T15:16:51.000Z</time>
      </trkpt>
      <trkpt lat="43.52106" lon="6.37191">
        <ele>225</ele>
        <time>2021-11-24T15:16:52.000Z</time>
      </trkpt>
      <trkpt lat="43.52106" lon="6.37191">
        <ele>225</ele>
        <time>2021-11-24T15:16:53.000Z</time>
      </trkpt>
      <trkpt lat="43.52106" lon="6.37191">
        <ele>225</ele>
        <time>2021-11-24T15:16:54.000Z</time>
      </trkpt>
      <trkpt lat="43.52106" lon="6.37191">
        <ele>225</ele>
        <time>2021-11-24T15:16:55.000Z</time>
      </trkpt>
      <trkpt lat="43.52106" lon="6.37191">
        <ele>225</ele>
        <time>2021-11-24T15:16:56.000Z</time>
      </trkpt>
      <trkpt lat="43.52106" lon="6.37191">
        <ele>225</ele>
        <time>2021-11-24T15:16:57.000Z</time>
      </trkpt>
      <trkpt lat="43.52106" lon="6.37191">
        <ele>225</ele>
        <time>2021-11-24T15:16:58.000Z</time>
      </trkpt>
      <trkpt lat="43.52106" lon="6.37191">
        <ele>225</ele>
        <time>2021-11-24T15:16:59.000Z</time>
      </trkpt>
      <trkpt lat="43.52106" lon="6.37191">
        <ele>225</ele>
        <time>2021-11-24T15:17:00.000Z</time>
      </trkpt>
      <trkpt lat="43.52106" lon="6.37191">
        <ele>225</ele>
        <time>2021-11-24T15:17:01.000Z</time>
      </trkpt>
      <trkpt lat="43.52106" lon="6.37191">
        <ele>225</ele>
        <time>2021-11-24T15:17:02.000Z</time>
      </trkpt>
      <trkpt lat="43.52106" lon="6.37191">
        <ele>225</ele>
        <time>2021-11-24T15:17:03.000Z</time>
      </trkpt>
      <trkpt lat="43.52106" lon="6.37191">
        <ele>225</ele>
        <time>2021-11-24T15:17:04.000Z</time>
      </trkpt>
      <trkpt lat="43.52106" lon="6.37191">
        <ele>225</ele>
        <time>2021-11-24T15:17:05.000Z</time>
      </trkpt>
      <trkpt lat="43.52106" lon="6.37191">
        <ele>225</ele>
        <time>2021-11-24T15:17:06.000Z</time>
      </trkpt>
      <trkpt lat="43.52106" lon="6.37191">
        <ele>225</ele>
        <time>2021-11-24T15:17:07.000Z</time>
      </trkpt>
      <trkpt lat="43.52106" lon="6.37191">
        <ele>225</ele>
        <time>2021-11-24T15:17:08.000Z</time>
      </trkpt>
      <trkpt lat="43.52106" lon="6.37191">
        <ele>225</ele>
        <time>2021-11-24T15:17:09.000Z</time>
      </trkpt>
      <trkpt lat="43.52106" lon="6.37191">
        <ele>225</ele>
        <time>2021-11-24T15:17:10.000Z</time>
      </trkpt>
      <trkpt lat="43.52106" lon="6.37191">
        <ele>225</ele>
        <time>2021-11-24T15:17:11.000Z</time>
      </trkpt>
      <trkpt lat="43.52106" lon="6.37191">
        <ele>225</ele>
        <time>2021-11-24T15:17:12.000Z</time>
      </trkpt>
      <trkpt lat="43.52106" lon="6.37191">
        <ele>225</ele>
        <time>2021-11-24T15:17:13.000Z</time>
      </trkpt>
      <trkpt lat="43.52106" lon="6.37191">
        <ele>225</ele>
        <time>2021-11-24T15:17:14.000Z</time>
      </trkpt>
      <trkpt lat="43.52106" lon="6.37191">
        <ele>225</ele>
        <time>2021-11-24T15:17:15.000Z</time>
      </trkpt>
      <trkpt lat="43.52106" lon="6.37191">
        <ele>225</ele>
        <time>2021-11-24T15:17:16.000Z</time>
      </trkpt>
      <trkpt lat="43.52106" lon="6.37191">
        <ele>225</ele>
        <time>2021-11-24T15:17:17.000Z</time>
      </trkpt>
      <trkpt lat="43.52106" lon="6.37191">
        <ele>225</ele>
        <time>2021-11-24T15:17:18.000Z</time>
      </trkpt>
      <trkpt lat="43.52106" lon="6.37191">
        <ele>225</ele>
        <time>2021-11-24T15:17:19.000Z</time>
      </trkpt>
      <trkpt lat="43.52106" lon="6.37191">
        <ele>225</ele>
        <time>2021-11-24T15:17:20.000Z</time>
      </trkpt>
      <trkpt lat="43.52106" lon="6.37191">
        <ele>225</ele>
        <time>2021-11-24T15:17:21.000Z</time>
      </trkpt>
      <trkpt lat="43.52106" lon="6.37191">
        <ele>225</ele>
        <time>2021-11-24T15:17:22.000Z</time>
      </trkpt>
      <trkpt lat="43.52106" lon="6.37191">
        <ele>225</ele>
        <time>2021-11-24T15:17:23.000Z</time>
      </trkpt>
      <trkpt lat="43.52106" lon="6.37191">
        <ele>225</ele>
        <time>2021-11-24T15:17:24.000Z</time>
      </trkpt>
      <trkpt lat="43.52106" lon="6.37191">
        <ele>225</ele>
        <time>2021-11-24T15:17:25.000Z</time>
      </trkpt>
      <trkpt lat="43.52106" lon="6.37191">
        <ele>225</ele>
        <time>2021-11-24T15:17:26.000Z</time>
      </trkpt>
      <trkpt lat="43.52106" lon="6.37191">
        <ele>225</ele>
        <time>2021-11-24T15:17:27.000Z</time>
      </trkpt>
      <trkpt lat="43.52106" lon="6.37191">
        <ele>225</ele>
        <time>2021-11-24T15:17:28.000Z</time>
      </trkpt>
      <trkpt lat="43.52106" lon="6.37191">
        <ele>225</ele>
        <time>2021-11-24T15:17:29.000Z</time>
      </trkpt>
      <trkpt lat="43.52106" lon="6.37191">
        <ele>225</ele>
        <time>2021-11-24T15:17:30.000Z</time>
      </trkpt>
      <trkpt lat="43.52106" lon="6.37191">
        <ele>225</ele>
        <time>2021-11-24T15:17:31.000Z</time>
      </trkpt>
      <trkpt lat="43.52106" lon="6.37191">
        <ele>225</ele>
        <time>2021-11-24T15:17:32.000Z</time>
      </trkpt>
      <trkpt lat="43.52106" lon="6.37191">
        <ele>225</ele>
        <time>2021-11-24T15:17:33.000Z</time>
      </trkpt>
      <trkpt lat="43.52106" lon="6.37191">
        <ele>225</ele>
        <time>2021-11-24T15:17:34.000Z</time>
      </trkpt>
      <trkpt lat="43.52106" lon="6.37191">
        <ele>225</ele>
        <time>2021-11-24T15:17:35.000Z</time>
      </trkpt>
      <trkpt lat="43.52106" lon="6.37191">
        <ele>225</ele>
        <time>2021-11-24T15:17:36.000Z</time>
      </trkpt>
      <trkpt lat="43.52106" lon="6.37191">
        <ele>225</ele>
        <time>2021-11-24T15:17:37.000Z</time>
      </trkpt>
      <trkpt lat="43.52106" lon="6.37191">
        <ele>225</ele>
        <time>2021-11-24T15:17:38.000Z</time>
      </trkpt>
      <trkpt lat="43.52106" lon="6.37191">
        <ele>225</ele>
        <time>2021-11-24T15:17:39.000Z</time>
      </trkpt>
      <trkpt lat="43.52106" lon="6.37191">
        <ele>225</ele>
        <time>2021-11-24T15:17:40.000Z</time>
      </trkpt>
      <trkpt lat="43.52105" lon="6.37188">
        <ele>225</ele>
        <time>2021-11-24T15:17:41.000Z</time>
      </trkpt>
      <trkpt lat="43.52105" lon="6.37188">
        <ele>225</ele>
        <time>2021-11-24T15:17:42.000Z</time>
      </trkpt>
      <trkpt lat="43.52105" lon="6.37188">
        <ele>225</ele>
        <time>2021-11-24T15:17:43.000Z</time>
      </trkpt>
      <trkpt lat="43.52105" lon="6.37188">
        <ele>225</ele>
        <time>2021-11-24T15:17:44.000Z</time>
      </trkpt>
      <trkpt lat="43.52105" lon="6.37188">
        <ele>225</ele>
        <time>2021-11-24T15:17:45.000Z</time>
      </trkpt>
      <trkpt lat="43.52105" lon="6.37188">
        <ele>225</ele>
        <time>2021-11-24T15:17:46.000Z</time>
      </trkpt>
      <trkpt lat="43.52105" lon="6.37188">
        <ele>225</ele>
        <time>2021-11-24T15:17:47.000Z</time>
      </trkpt>
      <trkpt lat="43.52105" lon="6.37188">
        <ele>225</ele>
        <time>2021-11-24T15:17:48.000Z</time>
      </trkpt>
      <trkpt lat="43.52105" lon="6.37188">
        <ele>225</ele>
        <time>2021-11-24T15:17:49.000Z</time>
      </trkpt>
      <trkpt lat="43.52105" lon="6.37188">
        <ele>225</ele>
        <time>2021-11-24T15:17:50.000Z</time>
      </trkpt>
      <trkpt lat="43.52105" lon="6.37188">
        <ele>225</ele>
        <time>2021-11-24T15:17:51.000Z</time>
      </trkpt>
      <trkpt lat="43.52105" lon="6.37188">
        <ele>225</ele>
        <time>2021-11-24T15:17:52.000Z</time>
      </trkpt>
      <trkpt lat="43.52105" lon="6.37188">
        <ele>225</ele>
        <time>2021-11-24T15:17:53.000Z</time>
      </trkpt>
      <trkpt lat="43.52105" lon="6.37188">
        <ele>225</ele>
        <time>2021-11-24T15:17:54.000Z</time>
      </trkpt>
      <trkpt lat="43.52105" lon="6.37188">
        <ele>225</ele>
        <time>2021-11-24T15:17:55.000Z</time>
      </trkpt>
      <trkpt lat="43.52105" lon="6.37188">
        <ele>225</ele>
        <time>2021-11-24T15:17:56.000Z</time>
      </trkpt>
      <trkpt lat="43.52105" lon="6.37188">
        <ele>225</ele>
        <time>2021-11-24T15:17:57.000Z</time>
      </trkpt>
      <trkpt lat="43.52105" lon="6.37188">
        <ele>225</ele>
        <time>2021-11-24T15:17:58.000Z</time>
      </trkpt>
      <trkpt lat="43.52105" lon="6.37188">
        <ele>225</ele>
        <time>2021-11-24T15:17:59.000Z</time>
      </trkpt>
      <trkpt lat="43.52105" lon="6.37188">
        <ele>225</ele>
        <time>2021-11-24T15:18:00.000Z</time>
      </trkpt>
      <trkpt lat="43.52105" lon="6.37188">
        <ele>225</ele>
        <time>2021-11-24T15:18:01.000Z</time>
      </trkpt>
      <trkpt lat="43.52105" lon="6.37187">
        <ele>225</ele>
        <time>2021-11-24T15:18:02.000Z</time>
      </trkpt>
      <trkpt lat="43.52105" lon="6.37186">
        <ele>225</ele>
        <time>2021-11-24T15:18:03.000Z</time>
      </trkpt>
      <trkpt lat="43.52106" lon="6.37184">
        <ele>225</ele>
        <time>2021-11-24T15:18:04.000Z</time>
      </trkpt>
      <trkpt lat="43.52106" lon="6.37183">
        <ele>225</ele>
        <time>2021-11-24T15:18:05.000Z</time>
      </trkpt>
      <trkpt lat="43.52106" lon="6.37182">
        <ele>225</ele>
        <time>2021-11-24T15:18:06.000Z</time>
      </trkpt>
      <trkpt lat="43.52107" lon="6.37181">
        <ele>225</ele>
        <time>2021-11-24T15:18:07.000Z</time>
      </trkpt>
      <trkpt lat="43.52108" lon="6.37181">
        <ele>225</ele>
        <time>2021-11-24T15:18:08.000Z</time>
      </trkpt>
      <trkpt lat="43.52108" lon="6.3718">
        <ele>225</ele>
        <time>2021-11-24T15:18:09.000Z</time>
      </trkpt>
      <trkpt lat="43.52108" lon="6.3718">
        <ele>225</ele>
        <time>2021-11-24T15:18:10.000Z</time>
      </trkpt>
      <trkpt lat="43.52109" lon="6.3718">
        <ele>225</ele>
        <time>2021-11-24T15:18:11.000Z</time>
      </trkpt>
      <trkpt lat="43.52109" lon="6.37179">
        <ele>225</ele>
        <time>2021-11-24T15:18:12.000Z</time>
      </trkpt>
      <trkpt lat="43.52109" lon="6.37179">
        <ele>225</ele>
        <time>2021-11-24T15:18:13.000Z</time>
      </trkpt>
      <trkpt lat="43.5211" lon="6.37179">
        <ele>225</ele>
        <time>2021-11-24T15:18:14.000Z</time>
      </trkpt>
      <trkpt lat="43.5211" lon="6.37178">
        <ele>225</ele>
        <time>2021-11-24T15:18:15.000Z</time>
      </trkpt>
      <trkpt lat="43.5211" lon="6.37178">
        <ele>225</ele>
        <time>2021-11-24T15:18:16.000Z</time>
      </trkpt>
      <trkpt lat="43.5211" lon="6.37178">
        <ele>225</ele>
        <time>2021-11-24T15:18:17.000Z</time>
      </trkpt>
      <trkpt lat="43.5211" lon="6.37178">
        <ele>225</ele>
        <time>2021-11-24T15:18:18.000Z</time>
      </trkpt>
      <trkpt lat="43.5211" lon="6.37178">
        <ele>225</ele>
        <time>2021-11-24T15:18:19.000Z</time>
      </trkpt>
      <trkpt lat="43.5211" lon="6.37178">
        <ele>225</ele>
        <time>2021-11-24T15:18:20.000Z</time>
      </trkpt>
      <trkpt lat="43.5211" lon="6.37177">
        <ele>225</ele>
        <time>2021-11-24T15:18:21.000Z</time>
      </trkpt>
      <trkpt lat="43.5211" lon="6.37177">
        <ele>225</ele>
        <time>2021-11-24T15:18:22.000Z</time>
      </trkpt>
      <trkpt lat="43.5211" lon="6.37177">
        <ele>225</ele>
        <time>2021-11-24T15:18:23.000Z</time>
      </trkpt>
      <trkpt lat="43.5211" lon="6.37177">
        <ele>225</ele>
        <time>2021-11-24T15:18:24.000Z</time>
      </trkpt>
      <trkpt lat="43.5211" lon="6.37177">
        <ele>225</ele>
        <time>2021-11-24T15:18:25.000Z</time>
      </trkpt>
      <trkpt lat="43.5211" lon="6.37177">
        <ele>225</ele>
        <time>2021-11-24T15:18:26.000Z</time>
      </trkpt>
      <trkpt lat="43.5211" lon="6.37177">
        <ele>225</ele>
        <time>2021-11-24T15:18:27.000Z</time>
      </trkpt>
      <trkpt lat="43.5211" lon="6.37177">
        <ele>225</ele>
        <time>2021-11-24T15:18:28.000Z</time>
      </trkpt>
      <trkpt lat="43.5211" lon="6.37177">
        <ele>225</ele>
        <time>2021-11-24T15:18:29.000Z</time>
      </trkpt>
      <trkpt lat="43.52111" lon="6.37177">
        <ele>225</ele>
        <time>2021-11-24T15:18:30.000Z</time>
      </trkpt>
      <trkpt lat="43.52111" lon="6.37177">
        <ele>225</ele>
        <time>2021-11-24T15:18:31.000Z</time>
      </trkpt>
      <trkpt lat="43.52111" lon="6.37177">
        <ele>225</ele>
        <time>2021-11-24T15:18:32.000Z</time>
      </trkpt>
      <trkpt lat="43.5211" lon="6.37176">
        <ele>225</ele>
        <time>2021-11-24T15:18:33.000Z</time>
      </trkpt>
      <trkpt lat="43.5211" lon="6.37176">
        <ele>225</ele>
        <time>2021-11-24T15:18:34.000Z</time>
      </trkpt>
      <trkpt lat="43.5211" lon="6.37175">
        <ele>225</ele>
        <time>2021-11-24T15:18:35.000Z</time>
      </trkpt>
      <trkpt lat="43.5211" lon="6.37175">
        <ele>225</ele>
        <time>2021-11-24T15:18:36.000Z</time>
      </trkpt>
      <trkpt lat="43.5211" lon="6.37175">
        <ele>225</ele>
        <time>2021-11-24T15:18:37.000Z</time>
      </trkpt>
      <trkpt lat="43.52109" lon="6.37174">
        <ele>225</ele>
        <time>2021-11-24T15:18:38.000Z</time>
      </trkpt>
      <trkpt lat="43.52109" lon="6.37174">
        <ele>225</ele>
        <time>2021-11-24T15:18:39.000Z</time>
      </trkpt>
      <trkpt lat="43.52109" lon="6.37174">
        <ele>224</ele>
        <time>2021-11-24T15:18:40.000Z</time>
      </trkpt>
      <trkpt lat="43.52109" lon="6.37174">
        <ele>224</ele>
        <time>2021-11-24T15:18:41.000Z</time>
      </trkpt>
      <trkpt lat="43.52109" lon="6.37174">
        <ele>224</ele>
        <time>2021-11-24T15:18:42.000Z</time>
      </trkpt>
      <trkpt lat="43.52109" lon="6.37173">
        <ele>224</ele>
        <time>2021-11-24T15:18:43.000Z</time>
      </trkpt>
      <trkpt lat="43.52109" lon="6.37173">
        <ele>224</ele>
        <time>2021-11-24T15:18:44.000Z</time>
      </trkpt>
      <trkpt lat="43.52109" lon="6.37173">
        <ele>224</ele>
        <time>2021-11-24T15:18:45.000Z</time>
      </trkpt>
      <trkpt lat="43.52109" lon="6.37173">
        <ele>224</ele>
        <time>2021-11-24T15:18:46.000Z</time>
      </trkpt>
      <trkpt lat="43.52109" lon="6.37173">
        <ele>224</ele>
        <time>2021-11-24T15:18:47.000Z</time>
      </trkpt>
      <trkpt lat="43.52109" lon="6.37173">
        <ele>224</ele>
        <time>2021-11-24T15:18:48.000Z</time>
      </trkpt>
      <trkpt lat="43.52109" lon="6.37173">
        <ele>224</ele>
        <time>2021-11-24T15:18:49.000Z</time>
      </trkpt>
      <trkpt lat="43.52109" lon="6.37173">
        <ele>224</ele>
        <time>2021-11-24T15:18:50.000Z</time>
      </trkpt>
      <trkpt lat="43.52109" lon="6.37173">
        <ele>224</ele>
        <time>2021-11-24T15:18:51.000Z</time>
      </trkpt>
      <trkpt lat="43.52109" lon="6.37173">
        <ele>224</ele>
        <time>2021-11-24T15:18:52.000Z</time>
      </trkpt>
      <trkpt lat="43.52109" lon="6.37173">
        <ele>224</ele>
        <time>2021-11-24T15:18:53.000Z</time>
      </trkpt>
      <trkpt lat="43.52109" lon="6.37173">
        <ele>224</ele>
        <time>2021-11-24T15:18:54.000Z</time>
      </trkpt>
      <trkpt lat="43.52109" lon="6.37173">
        <ele>224</ele>
        <time>2021-11-24T15:18:55.000Z</time>
      </trkpt>
      <trkpt lat="43.52109" lon="6.37173">
        <ele>224</ele>
        <time>2021-11-24T15:18:56.000Z</time>
      </trkpt>
      <trkpt lat="43.52108" lon="6.37173">
        <ele>224</ele>
        <time>2021-11-24T15:18:57.000Z</time>
      </trkpt>
      <trkpt lat="43.52108" lon="6.37173">
        <ele>224</ele>
        <time>2021-11-24T15:18:58.000Z</time>
      </trkpt>
      <trkpt lat="43.52108" lon="6.37173">
        <ele>224</ele>
        <time>2021-11-24T15:18:59.000Z</time>
      </trkpt>
      <trkpt lat="43.52108" lon="6.37173">
        <ele>224</ele>
        <time>2021-11-24T15:19:00.000Z</time>
      </trkpt>
      <trkpt lat="43.52108" lon="6.37173">
        <ele>224</ele>
        <time>2021-11-24T15:19:01.000Z</time>
      </trkpt>
      <trkpt lat="43.52108" lon="6.37173">
        <ele>224</ele>
        <time>2021-11-24T15:19:02.000Z</time>
      </trkpt>
      <trkpt lat="43.52108" lon="6.37173">
        <ele>224</ele>
        <time>2021-11-24T15:19:03.000Z</time>
      </trkpt>
      <trkpt lat="43.52108" lon="6.37173">
        <ele>224</ele>
        <time>2021-11-24T15:19:04.000Z</time>
      </trkpt>
      <trkpt lat="43.52108" lon="6.37173">
        <ele>224</ele>
        <time>2021-11-24T15:19:05.000Z</time>
      </trkpt>
      <trkpt lat="43.52108" lon="6.37173">
        <ele>224</ele>
        <time>2021-11-24T15:19:06.000Z</time>
      </trkpt>
      <trkpt lat="43.52108" lon="6.37173">
        <ele>224</ele>
        <time>2021-11-24T15:19:07.000Z</time>
      </trkpt>
      <trkpt lat="43.52108" lon="6.37173">
        <ele>224</ele>
        <time>2021-11-24T15:19:08.000Z</time>
      </trkpt>
      <trkpt lat="43.52108" lon="6.37173">
        <ele>224</ele>
        <time>2021-11-24T15:19:09.000Z</time>
      </trkpt>
      <trkpt lat="43.52108" lon="6.37173">
        <ele>224</ele>
        <time>2021-11-24T15:19:10.000Z</time>
      </trkpt>
      <trkpt lat="43.52108" lon="6.37173">
        <ele>224</ele>
        <time>2021-11-24T15:19:11.000Z</time>
      </trkpt>
      <trkpt lat="43.52108" lon="6.37173">
        <ele>224</ele>
        <time>2021-11-24T15:19:12.000Z</time>
      </trkpt>
      <trkpt lat="43.52108" lon="6.37173">
        <ele>224</ele>
        <time>2021-11-24T15:19:13.000Z</time>
      </trkpt>
      <trkpt lat="43.52108" lon="6.37173">
        <ele>224</ele>
        <time>2021-11-24T15:19:14.000Z</time>
      </trkpt>
      <trkpt lat="43.52108" lon="6.37173">
        <ele>224</ele>
        <time>2021-11-24T15:19:15.000Z</time>
      </trkpt>
      <trkpt lat="43.52108" lon="6.37173">
        <ele>224</ele>
        <time>2021-11-24T15:19:16.000Z</time>
      </trkpt>
      <trkpt lat="43.52108" lon="6.37173">
        <ele>224</ele>
        <time>2021-11-24T15:19:17.000Z</time>
      </trkpt>
      <trkpt lat="43.52109" lon="6.37172">
        <ele>224</ele>
        <time>2021-11-24T15:19:18.000Z</time>
      </trkpt>
      <trkpt lat="43.52109" lon="6.37172">
        <ele>224</ele>
        <time>2021-11-24T15:19:19.000Z</time>
      </trkpt>
      <trkpt lat="43.52109" lon="6.37171">
        <ele>224</ele>
        <time>2021-11-24T15:19:20.000Z</time>
      </trkpt>
      <trkpt lat="43.5211" lon="6.3717">
        <ele>224</ele>
        <time>2021-11-24T15:19:21.000Z</time>
      </trkpt>
      <trkpt lat="43.5211" lon="6.37169">
        <ele>224</ele>
        <time>2021-11-24T15:19:22.000Z</time>
      </trkpt>
      <trkpt lat="43.5211" lon="6.37168">
        <ele>224</ele>
        <time>2021-11-24T15:19:23.000Z</time>
      </trkpt>
      <trkpt lat="43.5211" lon="6.37167">
        <ele>224</ele>
        <time>2021-11-24T15:19:24.000Z</time>
      </trkpt>
      <trkpt lat="43.5211" lon="6.37166">
        <ele>224</ele>
        <time>2021-11-24T15:19:25.000Z</time>
      </trkpt>
      <trkpt lat="43.5211" lon="6.37166">
        <ele>224</ele>
        <time>2021-11-24T15:19:26.000Z</time>
      </trkpt>
      <trkpt lat="43.5211" lon="6.37166">
        <ele>224</ele>
        <time>2021-11-24T15:19:27.000Z</time>
      </trkpt>
      <trkpt lat="43.5211" lon="6.37165">
        <ele>224</ele>
        <time>2021-11-24T15:19:28.000Z</time>
      </trkpt>
      <trkpt lat="43.5211" lon="6.37165">
        <ele>224</ele>
        <time>2021-11-24T15:19:29.000Z</time>
      </trkpt>
      <trkpt lat="43.5211" lon="6.37165">
        <ele>224</ele>
        <time>2021-11-24T15:19:30.000Z</time>
      </trkpt>
      <trkpt lat="43.5211" lon="6.37165">
        <ele>224</ele>
        <time>2021-11-24T15:19:31.000Z</time>
      </trkpt>
      <trkpt lat="43.5211" lon="6.37164">
        <ele>224</ele>
        <time>2021-11-24T15:19:32.000Z</time>
      </trkpt>
      <trkpt lat="43.5211" lon="6.37164">
        <ele>224</ele>
        <time>2021-11-24T15:19:33.000Z</time>
      </trkpt>
      <trkpt lat="43.5211" lon="6.37164">
        <ele>224</ele>
        <time>2021-11-24T15:19:34.000Z</time>
      </trkpt>
      <trkpt lat="43.5211" lon="6.37164">
        <ele>224</ele>
        <time>2021-11-24T15:19:35.000Z</time>
      </trkpt>
      <trkpt lat="43.5211" lon="6.37164">
        <ele>224</ele>
        <time>2021-11-24T15:19:36.000Z</time>
      </trkpt>
      <trkpt lat="43.5211" lon="6.37164">
        <ele>224</ele>
        <time>2021-11-24T15:19:37.000Z</time>
      </trkpt>
      <trkpt lat="43.5211" lon="6.37164">
        <ele>224</ele>
        <time>2021-11-24T15:19:38.000Z</time>
      </trkpt>
      <trkpt lat="43.5211" lon="6.37164">
        <ele>224</ele>
        <time>2021-11-24T15:19:39.000Z</time>
      </trkpt>
      <trkpt lat="43.5211" lon="6.37164">
        <ele>224</ele>
        <time>2021-11-24T15:19:40.000Z</time>
      </trkpt>
      <trkpt lat="43.5211" lon="6.37163">
        <ele>224</ele>
        <time>2021-11-24T15:19:41.000Z</time>
      </trkpt>
      <trkpt lat="43.5211" lon="6.37163">
        <ele>224</ele>
        <time>2021-11-24T15:19:42.000Z</time>
      </trkpt>
      <trkpt lat="43.5211" lon="6.37163">
        <ele>224</ele>
        <time>2021-11-24T15:19:43.000Z</time>
      </trkpt>
      <trkpt lat="43.5211" lon="6.37163">
        <ele>224</ele>
        <time>2021-11-24T15:19:44.000Z</time>
      </trkpt>
      <trkpt lat="43.5211" lon="6.37163">
        <ele>224</ele>
        <time>2021-11-24T15:19:45.000Z</time>
      </trkpt>
      <trkpt lat="43.5211" lon="6.37163">
        <ele>224</ele>
        <time>2021-11-24T15:19:46.000Z</time>
      </trkpt>
      <trkpt lat="43.5211" lon="6.37163">
        <ele>224</ele>
        <time>2021-11-24T15:19:47.000Z</time>
      </trkpt>
      <trkpt lat="43.5211" lon="6.37163">
        <ele>224</ele>
        <time>2021-11-24T15:19:48.000Z</time>
      </trkpt>
      <trkpt lat="43.5211" lon="6.37163">
        <ele>224</ele>
        <time>2021-11-24T15:19:49.000Z</time>
      </trkpt>
      <trkpt lat="43.5211" lon="6.37163">
        <ele>224</ele>
        <time>2021-11-24T15:19:50.000Z</time>
      </trkpt>
      <trkpt lat="43.5211" lon="6.37163">
        <ele>224</ele>
        <time>2021-11-24T15:19:51.000Z</time>
      </trkpt>
      <trkpt lat="43.5211" lon="6.37163">
        <ele>224</ele>
        <time>2021-11-24T15:19:52.000Z</time>
      </trkpt>
      <trkpt lat="43.5211" lon="6.37163">
        <ele>224</ele>
        <time>2021-11-24T15:19:53.000Z</time>
      </trkpt>
      <trkpt lat="43.5211" lon="6.37163">
        <ele>224</ele>
        <time>2021-11-24T15:19:54.000Z</time>
      </trkpt>
      <trkpt lat="43.5211" lon="6.37163">
        <ele>224</ele>
        <time>2021-11-24T15:19:55.000Z</time>
      </trkpt>
      <trkpt lat="43.5211" lon="6.37163">
        <ele>224</ele>
        <time>2021-11-24T15:19:56.000Z</time>
      </trkpt>
      <trkpt lat="43.5211" lon="6.37163">
        <ele>224</ele>
        <time>2021-11-24T15:19:57.000Z</time>
      </trkpt>
      <trkpt lat="43.5211" lon="6.37163">
        <ele>224</ele>
        <time>2021-11-24T15:19:58.000Z</time>
      </trkpt>
      <trkpt lat="43.5211" lon="6.37163">
        <ele>224</ele>
        <time>2021-11-24T15:19:59.000Z</time>
      </trkpt>
      <trkpt lat="43.5211" lon="6.37163">
        <ele>224</ele>
        <time>2021-11-24T15:20:00.000Z</time>
      </trkpt>
      <trkpt lat="43.5211" lon="6.37163">
        <ele>224</ele>
        <time>2021-11-24T15:20:01.000Z</time>
      </trkpt>
      <trkpt lat="43.5211" lon="6.37163">
        <ele>224</ele>
        <time>2021-11-24T15:20:02.000Z</time>
      </trkpt>
      <trkpt lat="43.5211" lon="6.37163">
        <ele>224</ele>
        <time>2021-11-24T15:20:03.000Z</time>
      </trkpt>
      <trkpt lat="43.5211" lon="6.37163">
        <ele>224</ele>
        <time>2021-11-24T15:20:04.000Z</time>
      </trkpt>
      <trkpt lat="43.5211" lon="6.37163">
        <ele>224</ele>
        <time>2021-11-24T15:20:05.000Z</time>
      </trkpt>
      <trkpt lat="43.5211" lon="6.37163">
        <ele>224</ele>
        <time>2021-11-24T15:20:06.000Z</time>
      </trkpt>
      <trkpt lat="43.5211" lon="6.37163">
        <ele>224</ele>
        <time>2021-11-24T15:20:07.000Z</time>
      </trkpt>
      <trkpt lat="43.5211" lon="6.37163">
        <ele>224</ele>
        <time>2021-11-24T15:20:08.000Z</time>
      </trkpt>
      <trkpt lat="43.5211" lon="6.37163">
        <ele>224</ele>
        <time>2021-11-24T15:20:09.000Z</time>
      </trkpt>
      <trkpt lat="43.5211" lon="6.37163">
        <ele>224</ele>
        <time>2021-11-24T15:20:10.000Z</time>
      </trkpt>
      <trkpt lat="43.5211" lon="6.37163">
        <ele>224</ele>
        <time>2021-11-24T15:20:11.000Z</time>
      </trkpt>
      <trkpt lat="43.5211" lon="6.37163">
        <ele>224</ele>
        <time>2021-11-24T15:20:12.000Z</time>
      </trkpt>
      <trkpt lat="43.5211" lon="6.37163">
        <ele>224</ele>
        <time>2021-11-24T15:20:13.000Z</time>
      </trkpt>
      <trkpt lat="43.5211" lon="6.37163">
        <ele>224</ele>
        <time>2021-11-24T15:20:14.000Z</time>
      </trkpt>
      <trkpt lat="43.5211" lon="6.37163">
        <ele>224</ele>
        <time>2021-11-24T15:20:15.000Z</time>
      </trkpt>
      <trkpt lat="43.5211" lon="6.37163">
        <ele>224</ele>
        <time>2021-11-24T15:20:16.000Z</time>
      </trkpt>
      <trkpt lat="43.5211" lon="6.37163">
        <ele>224</ele>
        <time>2021-11-24T15:20:17.000Z</time>
      </trkpt>
      <trkpt lat="43.5211" lon="6.37163">
        <ele>224</ele>
        <time>2021-11-24T15:20:18.000Z</time>
      </trkpt>
      <trkpt lat="43.5211" lon="6.37163">
        <ele>224</ele>
        <time>2021-11-24T15:20:19.000Z</time>
      </trkpt>
      <trkpt lat="43.5211" lon="6.37163">
        <ele>224</ele>
        <time>2021-11-24T15:20:20.000Z</time>
      </trkpt>
      <trkpt lat="43.5211" lon="6.37163">
        <ele>225</ele>
        <time>2021-11-24T15:20:21.000Z</time>
      </trkpt>
      <trkpt lat="43.5211" lon="6.37163">
        <ele>225</ele>
        <time>2021-11-24T15:20:22.000Z</time>
      </trkpt>
      <trkpt lat="43.5211" lon="6.37163">
        <ele>225</ele>
        <time>2021-11-24T15:20:23.000Z</time>
      </trkpt>
      <trkpt lat="43.5211" lon="6.37163">
        <ele>225</ele>
        <time>2021-11-24T15:20:24.000Z</time>
      </trkpt>
      <trkpt lat="43.5211" lon="6.37163">
        <ele>225</ele>
        <time>2021-11-24T15:20:25.000Z</time>
      </trkpt>
      <trkpt lat="43.5211" lon="6.37163">
        <ele>225</ele>
        <time>2021-11-24T15:20:26.000Z</time>
      </trkpt>
      <trkpt lat="43.5211" lon="6.37163">
        <ele>225</ele>
        <time>2021-11-24T15:20:27.000Z</time>
      </trkpt>
      <trkpt lat="43.5211" lon="6.37163">
        <ele>225</ele>
        <time>2021-11-24T15:20:28.000Z</time>
      </trkpt>
      <trkpt lat="43.5211" lon="6.37163">
        <ele>225</ele>
        <time>2021-11-24T15:20:29.000Z</time>
      </trkpt>
      <trkpt lat="43.5211" lon="6.37163">
        <ele>225</ele>
        <time>2021-11-24T15:20:30.000Z</time>
      </trkpt>
      <trkpt lat="43.5211" lon="6.37163">
        <ele>225</ele>
        <time>2021-11-24T15:20:31.000Z</time>
      </trkpt>
      <trkpt lat="43.5211" lon="6.37163">
        <ele>225</ele>
        <time>2021-11-24T15:20:32.000Z</time>
      </trkpt>
      <trkpt lat="43.5211" lon="6.37163">
        <ele>225</ele>
        <time>2021-11-24T15:20:33.000Z</time>
      </trkpt>
      <trkpt lat="43.5211" lon="6.37163">
        <ele>225</ele>
        <time>2021-11-24T15:20:34.000Z</time>
      </trkpt>
      <trkpt lat="43.5211" lon="6.37163">
        <ele>225</ele>
        <time>2021-11-24T15:20:35.000Z</time>
      </trkpt>
      <trkpt lat="43.5211" lon="6.37163">
        <ele>225</ele>
        <time>2021-11-24T15:20:36.000Z</time>
      </trkpt>
      <trkpt lat="43.5211" lon="6.37163">
        <ele>225</ele>
        <time>2021-11-24T15:20:37.000Z</time>
      </trkpt>
      <trkpt lat="43.52109" lon="6.37163">
        <ele>225</ele>
        <time>2021-11-24T15:20:38.000Z</time>
      </trkpt>
      <trkpt lat="43.52107" lon="6.37163">
        <ele>225</ele>
        <time>2021-11-24T15:20:39.000Z</time>
      </trkpt>
      <trkpt lat="43.52106" lon="6.37162">
        <ele>225</ele>
        <time>2021-11-24T15:20:40.000Z</time>
      </trkpt>
      <trkpt lat="43.52105" lon="6.37162">
        <ele>225</ele>
        <time>2021-11-24T15:20:41.000Z</time>
      </trkpt>
      <trkpt lat="43.52105" lon="6.37162">
        <ele>225</ele>
        <time>2021-11-24T15:20:42.000Z</time>
      </trkpt>
      <trkpt lat="43.52104" lon="6.37161">
        <ele>224</ele>
        <time>2021-11-24T15:20:43.000Z</time>
      </trkpt>
      <trkpt lat="43.52104" lon="6.37161">
        <ele>224</ele>
        <time>2021-11-24T15:20:44.000Z</time>
      </trkpt>
      <trkpt lat="43.52103" lon="6.37161">
        <ele>224</ele>
        <time>2021-11-24T15:20:45.000Z</time>
      </trkpt>
      <trkpt lat="43.52103" lon="6.37161">
        <ele>225</ele>
        <time>2021-11-24T15:20:46.000Z</time>
      </trkpt>
      <trkpt lat="43.52102" lon="6.3716">
        <ele>225</ele>
        <time>2021-11-24T15:20:47.000Z</time>
      </trkpt>
      <trkpt lat="43.52101" lon="6.3716">
        <ele>225</ele>
        <time>2021-11-24T15:20:48.000Z</time>
      </trkpt>
      <trkpt lat="43.52101" lon="6.3716">
        <ele>225</ele>
        <time>2021-11-24T15:20:49.000Z</time>
      </trkpt>
      <trkpt lat="43.521" lon="6.3716">
        <ele>225</ele>
        <time>2021-11-24T15:20:50.000Z</time>
      </trkpt>
      <trkpt lat="43.521" lon="6.37159">
        <ele>225</ele>
        <time>2021-11-24T15:20:51.000Z</time>
      </trkpt>
      <trkpt lat="43.52099" lon="6.37159">
        <ele>225</ele>
        <time>2021-11-24T15:20:52.000Z</time>
      </trkpt>
      <trkpt lat="43.52099" lon="6.37159">
        <ele>225</ele>
        <time>2021-11-24T15:20:53.000Z</time>
      </trkpt>
      <trkpt lat="43.52098" lon="6.37159">
        <ele>225</ele>
        <time>2021-11-24T15:20:54.000Z</time>
      </trkpt>
      <trkpt lat="43.52098" lon="6.37159">
        <ele>225</ele>
        <time>2021-11-24T15:20:55.000Z</time>
      </trkpt>
      <trkpt lat="43.52097" lon="6.37158">
        <ele>226</ele>
        <time>2021-11-24T15:20:56.000Z</time>
      </trkpt>
      <trkpt lat="43.52097" lon="6.37158">
        <ele>226</ele>
        <time>2021-11-24T15:20:57.000Z</time>
      </trkpt>
      <trkpt lat="43.52097" lon="6.37158">
        <ele>226</ele>
        <time>2021-11-24T15:20:58.000Z</time>
      </trkpt>
      <trkpt lat="43.52097" lon="6.37158">
        <ele>226</ele>
        <time>2021-11-24T15:20:59.000Z</time>
      </trkpt>
      <trkpt lat="43.52097" lon="6.37158">
        <ele>226</ele>
        <time>2021-11-24T15:21:00.000Z</time>
      </trkpt>
      <trkpt lat="43.52097" lon="6.37158">
        <ele>226</ele>
        <time>2021-11-24T15:21:01.000Z</time>
      </trkpt>
      <trkpt lat="43.52096" lon="6.37158">
        <ele>226</ele>
        <time>2021-11-24T15:21:02.000Z</time>
      </trkpt>
      <trkpt lat="43.52096" lon="6.37157">
        <ele>226</ele>
        <time>2021-11-24T15:21:03.000Z</time>
      </trkpt>
      <trkpt lat="43.52096" lon="6.37157">
        <ele>226</ele>
        <time>2021-11-24T15:21:04.000Z</time>
      </trkpt>
      <trkpt lat="43.52095" lon="6.37157">
        <ele>226</ele>
        <time>2021-11-24T15:21:05.000Z</time>
      </trkpt>
      <trkpt lat="43.52094" lon="6.37156">
        <ele>227</ele>
        <time>2021-11-24T15:21:06.000Z</time>
      </trkpt>
      <trkpt lat="43.52093" lon="6.37155">
        <ele>227</ele>
        <time>2021-11-24T15:21:07.000Z</time>
      </trkpt>
      <trkpt lat="43.52092" lon="6.37154">
        <ele>227</ele>
        <time>2021-11-24T15:21:08.000Z</time>
      </trkpt>
      <trkpt lat="43.52091" lon="6.37153">
        <ele>227</ele>
        <time>2021-11-24T15:21:09.000Z</time>
      </trkpt>
      <trkpt lat="43.5209" lon="6.37152">
        <ele>228</ele>
        <time>2021-11-24T15:21:10.000Z</time>
      </trkpt>
      <trkpt lat="43.5209" lon="6.37152">
        <ele>229</ele>
        <time>2021-11-24T15:21:11.000Z</time>
      </trkpt>
      <trkpt lat="43.52089" lon="6.37151">
        <ele>230</ele>
        <time>2021-11-24T15:21:12.000Z</time>
      </trkpt>
      <trkpt lat="43.52089" lon="6.37151">
        <ele>230</ele>
        <time>2021-11-24T15:21:13.000Z</time>
      </trkpt>
      <trkpt lat="43.52089" lon="6.3715">
        <ele>230</ele>
        <time>2021-11-24T15:21:14.000Z</time>
      </trkpt>
      <trkpt lat="43.52088" lon="6.3715">
        <ele>230</ele>
        <time>2021-11-24T15:21:15.000Z</time>
      </trkpt>
      <trkpt lat="43.52088" lon="6.3715">
        <ele>230</ele>
        <time>2021-11-24T15:21:16.000Z</time>
      </trkpt>
      <trkpt lat="43.52088" lon="6.3715">
        <ele>230</ele>
        <time>2021-11-24T15:21:17.000Z</time>
      </trkpt>
      <trkpt lat="43.52088" lon="6.3715">
        <ele>230</ele>
        <time>2021-11-24T15:21:18.000Z</time>
      </trkpt>
      <trkpt lat="43.52088" lon="6.3715">
        <ele>230</ele>
        <time>2021-11-24T15:21:19.000Z</time>
      </trkpt>
      <trkpt lat="43.52088" lon="6.3715">
        <ele>230</ele>
        <time>2021-11-24T15:21:20.000Z</time>
      </trkpt>
      <trkpt lat="43.52088" lon="6.3715">
        <ele>230</ele>
        <time>2021-11-24T15:21:21.000Z</time>
      </trkpt>
      <trkpt lat="43.52088" lon="6.3715">
        <ele>230</ele>
        <time>2021-11-24T15:21:22.000Z</time>
      </trkpt>
      <trkpt lat="43.52088" lon="6.3715">
        <ele>230</ele>
        <time>2021-11-24T15:21:23.000Z</time>
      </trkpt>
      <trkpt lat="43.52088" lon="6.3715">
        <ele>230</ele>
        <time>2021-11-24T15:21:24.000Z</time>
      </trkpt>
      <trkpt lat="43.52088" lon="6.3715">
        <ele>230</ele>
        <time>2021-11-24T15:21:25.000Z</time>
      </trkpt>
      <trkpt lat="43.52088" lon="6.3715">
        <ele>230</ele>
        <time>2021-11-24T15:21:26.000Z</time>
      </trkpt>
      <trkpt lat="43.52088" lon="6.3715">
        <ele>230</ele>
        <time>2021-11-24T15:21:27.000Z</time>
      </trkpt>
      <trkpt lat="43.52087" lon="6.37149">
        <ele>230</ele>
        <time>2021-11-24T15:21:28.000Z</time>
      </trkpt>
      <trkpt lat="43.52087" lon="6.37149">
        <ele>230</ele>
        <time>2021-11-24T15:21:29.000Z</time>
      </trkpt>
      <trkpt lat="43.52087" lon="6.37149">
        <ele>230</ele>
        <time>2021-11-24T15:21:30.000Z</time>
      </trkpt>
      <trkpt lat="43.52087" lon="6.3715">
        <ele>230</ele>
        <time>2021-11-24T15:21:31.000Z</time>
      </trkpt>
      <trkpt lat="43.52087" lon="6.3715">
        <ele>231</ele>
        <time>2021-11-24T15:21:32.000Z</time>
      </trkpt>
      <trkpt lat="43.52087" lon="6.37151">
        <ele>231</ele>
        <time>2021-11-24T15:21:33.000Z</time>
      </trkpt>
      <trkpt lat="43.52087" lon="6.37152">
        <ele>231</ele>
        <time>2021-11-24T15:21:34.000Z</time>
      </trkpt>
      <trkpt lat="43.52087" lon="6.37153">
        <ele>231</ele>
        <time>2021-11-24T15:21:35.000Z</time>
      </trkpt>
      <trkpt lat="43.52087" lon="6.37153">
        <ele>231</ele>
        <time>2021-11-24T15:21:36.000Z</time>
      </trkpt>
      <trkpt lat="43.52087" lon="6.37154">
        <ele>231</ele>
        <time>2021-11-24T15:21:37.000Z</time>
      </trkpt>
      <trkpt lat="43.52086" lon="6.37155">
        <ele>231</ele>
        <time>2021-11-24T15:21:38.000Z</time>
      </trkpt>
      <trkpt lat="43.52086" lon="6.37155">
        <ele>231</ele>
        <time>2021-11-24T15:21:39.000Z</time>
      </trkpt>
      <trkpt lat="43.52085" lon="6.37155">
        <ele>231</ele>
        <time>2021-11-24T15:21:40.000Z</time>
      </trkpt>
      <trkpt lat="43.52085" lon="6.37154">
        <ele>231</ele>
        <time>2021-11-24T15:21:41.000Z</time>
      </trkpt>
      <trkpt lat="43.52084" lon="6.37153">
        <ele>231</ele>
        <time>2021-11-24T15:21:42.000Z</time>
      </trkpt>
      <trkpt lat="43.52084" lon="6.37153">
        <ele>231</ele>
        <time>2021-11-24T15:21:43.000Z</time>
      </trkpt>
      <trkpt lat="43.52084" lon="6.37152">
        <ele>231</ele>
        <time>2021-11-24T15:21:44.000Z</time>
      </trkpt>
      <trkpt lat="43.52083" lon="6.37151">
        <ele>231</ele>
        <time>2021-11-24T15:21:45.000Z</time>
      </trkpt>
      <trkpt lat="43.52083" lon="6.3715">
        <ele>231</ele>
        <time>2021-11-24T15:21:46.000Z</time>
      </trkpt>
      <trkpt lat="43.52082" lon="6.37149">
        <ele>232</ele>
        <time>2021-11-24T15:21:47.000Z</time>
      </trkpt>
      <trkpt lat="43.52082" lon="6.37149">
        <ele>232</ele>
        <time>2021-11-24T15:21:48.000Z</time>
      </trkpt>
      <trkpt lat="43.52082" lon="6.37149">
        <ele>233</ele>
        <time>2021-11-24T15:21:49.000Z</time>
      </trkpt>
      <trkpt lat="43.52082" lon="6.37149">
        <ele>233</ele>
        <time>2021-11-24T15:21:50.000Z</time>
      </trkpt>
      <trkpt lat="43.52082" lon="6.37148">
        <ele>233</ele>
        <time>2021-11-24T15:21:51.000Z</time>
      </trkpt>
      <trkpt lat="43.52082" lon="6.37148">
        <ele>233</ele>
        <time>2021-11-24T15:21:52.000Z</time>
      </trkpt>
      <trkpt lat="43.52082" lon="6.37148">
        <ele>233</ele>
        <time>2021-11-24T15:21:53.000Z</time>
      </trkpt>
      <trkpt lat="43.52082" lon="6.37148">
        <ele>233</ele>
        <time>2021-11-24T15:21:54.000Z</time>
      </trkpt>
      <trkpt lat="43.52082" lon="6.37148">
        <ele>233</ele>
        <time>2021-11-24T15:21:55.000Z</time>
      </trkpt>
      <trkpt lat="43.52082" lon="6.37148">
        <ele>233</ele>
        <time>2021-11-24T15:21:56.000Z</time>
      </trkpt>
      <trkpt lat="43.52082" lon="6.37148">
        <ele>233</ele>
        <time>2021-11-24T15:21:57.000Z</time>
      </trkpt>
      <trkpt lat="43.52082" lon="6.37148">
        <ele>233</ele>
        <time>2021-11-24T15:21:58.000Z</time>
      </trkpt>
      <trkpt lat="43.52082" lon="6.37148">
        <ele>233</ele>
        <time>2021-11-24T15:21:59.000Z</time>
      </trkpt>
      <trkpt lat="43.52082" lon="6.37148">
        <ele>233</ele>
        <time>2021-11-24T15:22:00.000Z</time>
      </trkpt>
      <trkpt lat="43.52082" lon="6.37148">
        <ele>233</ele>
        <time>2021-11-24T15:22:01.000Z</time>
      </trkpt>
      <trkpt lat="43.52082" lon="6.37148">
        <ele>233</ele>
        <time>2021-11-24T15:22:02.000Z</time>
      </trkpt>
      <trkpt lat="43.52082" lon="6.37148">
        <ele>233</ele>
        <time>2021-11-24T15:22:03.000Z</time>
      </trkpt>
      <trkpt lat="43.52082" lon="6.37148">
        <ele>233</ele>
        <time>2021-11-24T15:22:04.000Z</time>
      </trkpt>
      <trkpt lat="43.52082" lon="6.37148">
        <ele>233</ele>
        <time>2021-11-24T15:22:05.000Z</time>
      </trkpt>
      <trkpt lat="43.52082" lon="6.37148">
        <ele>233</ele>
        <time>2021-11-24T15:22:06.000Z</time>
      </trkpt>
      <trkpt lat="43.52082" lon="6.37148">
        <ele>233</ele>
        <time>2021-11-24T15:22:07.000Z</time>
      </trkpt>
      <trkpt lat="43.52082" lon="6.37148">
        <ele>233</ele>
        <time>2021-11-24T15:22:08.000Z</time>
      </trkpt>
      <trkpt lat="43.52082" lon="6.37148">
        <ele>233</ele>
        <time>2021-11-24T15:22:09.000Z</time>
      </trkpt>
      <trkpt lat="43.52082" lon="6.37148">
        <ele>233</ele>
        <time>2021-11-24T15:22:10.000Z</time>
      </trkpt>
      <trkpt lat="43.52082" lon="6.37148">
        <ele>233</ele>
        <time>2021-11-24T15:22:11.000Z</time>
      </trkpt>
      <trkpt lat="43.52082" lon="6.37148">
        <ele>233</ele>
        <time>2021-11-24T15:22:12.000Z</time>
      </trkpt>
      <trkpt lat="43.52082" lon="6.37148">
        <ele>233</ele>
        <time>2021-11-24T15:22:13.000Z</time>
      </trkpt>
      <trkpt lat="43.52081" lon="6.37147">
        <ele>233</ele>
        <time>2021-11-24T15:22:14.000Z</time>
      </trkpt>
      <trkpt lat="43.5208" lon="6.37147">
        <ele>233</ele>
        <time>2021-11-24T15:22:15.000Z</time>
      </trkpt>
      <trkpt lat="43.5208" lon="6.37147">
        <ele>233</ele>
        <time>2021-11-24T15:22:16.000Z</time>
      </trkpt>
      <trkpt lat="43.52079" lon="6.37147">
        <ele>233</ele>
        <time>2021-11-24T15:22:17.000Z</time>
      </trkpt>
      <trkpt lat="43.52078" lon="6.37148">
        <ele>233</ele>
        <time>2021-11-24T15:22:18.000Z</time>
      </trkpt>
      <trkpt lat="43.52077" lon="6.37148">
        <ele>233</ele>
        <time>2021-11-24T15:22:19.000Z</time>
      </trkpt>
      <trkpt lat="43.52075" lon="6.37148">
        <ele>233</ele>
        <time>2021-11-24T15:22:20.000Z</time>
      </trkpt>
      <trkpt lat="43.52074" lon="6.37148">
        <ele>233</ele>
        <time>2021-11-24T15:22:21.000Z</time>
      </trkpt>
      <trkpt lat="43.52073" lon="6.37148">
        <ele>234</ele>
        <time>2021-11-24T15:22:22.000Z</time>
      </trkpt>
      <trkpt lat="43.52072" lon="6.37148">
        <ele>234</ele>
        <time>2021-11-24T15:22:23.000Z</time>
      </trkpt>
      <trkpt lat="43.52071" lon="6.37148">
        <ele>234</ele>
        <time>2021-11-24T15:22:24.000Z</time>
      </trkpt>
      <trkpt lat="43.5207" lon="6.37147">
        <ele>234</ele>
        <time>2021-11-24T15:22:25.000Z</time>
      </trkpt>
      <trkpt lat="43.52069" lon="6.37147">
        <ele>234</ele>
        <time>2021-11-24T15:22:26.000Z</time>
      </trkpt>
      <trkpt lat="43.52068" lon="6.37147">
        <ele>234</ele>
        <time>2021-11-24T15:22:27.000Z</time>
      </trkpt>
      <trkpt lat="43.52068" lon="6.37147">
        <ele>234</ele>
        <time>2021-11-24T15:22:28.000Z</time>
      </trkpt>
      <trkpt lat="43.52067" lon="6.37147">
        <ele>234</ele>
        <time>2021-11-24T15:22:29.000Z</time>
      </trkpt>
      <trkpt lat="43.52066" lon="6.37147">
        <ele>234</ele>
        <time>2021-11-24T15:22:30.000Z</time>
      </trkpt>
      <trkpt lat="43.52065" lon="6.37146">
        <ele>234</ele>
        <time>2021-11-24T15:22:31.000Z</time>
      </trkpt>
      <trkpt lat="43.52064" lon="6.37146">
        <ele>234</ele>
        <time>2021-11-24T15:22:32.000Z</time>
      </trkpt>
      <trkpt lat="43.52063" lon="6.37146">
        <ele>234</ele>
        <time>2021-11-24T15:22:33.000Z</time>
      </trkpt>
      <trkpt lat="43.52063" lon="6.37146">
        <ele>234</ele>
        <time>2021-11-24T15:22:34.000Z</time>
      </trkpt>
      <trkpt lat="43.52062" lon="6.37145">
        <ele>234</ele>
        <time>2021-11-24T15:22:35.000Z</time>
      </trkpt>
      <trkpt lat="43.5206" lon="6.37144">
        <ele>234</ele>
        <time>2021-11-24T15:22:36.000Z</time>
      </trkpt>
      <trkpt lat="43.52058" lon="6.37144">
        <ele>234</ele>
        <time>2021-11-24T15:22:37.000Z</time>
      </trkpt>
      <trkpt lat="43.52056" lon="6.37143">
        <ele>234</ele>
        <time>2021-11-24T15:22:38.000Z</time>
      </trkpt>
      <trkpt lat="43.52055" lon="6.37143">
        <ele>234</ele>
        <time>2021-11-24T15:22:39.000Z</time>
      </trkpt>
      <trkpt lat="43.52053" lon="6.37143">
        <ele>234</ele>
        <time>2021-11-24T15:22:40.000Z</time>
      </trkpt>
      <trkpt lat="43.52052" lon="6.37142">
        <ele>234</ele>
        <time>2021-11-24T15:22:41.000Z</time>
      </trkpt>
      <trkpt lat="43.52051" lon="6.37142">
        <ele>234</ele>
        <time>2021-11-24T15:22:42.000Z</time>
      </trkpt>
      <trkpt lat="43.5205" lon="6.37141">
        <ele>234</ele>
        <time>2021-11-24T15:22:43.000Z</time>
      </trkpt>
      <trkpt lat="43.5205" lon="6.37141">
        <ele>234</ele>
        <time>2021-11-24T15:22:44.000Z</time>
      </trkpt>
      <trkpt lat="43.52049" lon="6.3714">
        <ele>234</ele>
        <time>2021-11-24T15:22:45.000Z</time>
      </trkpt>
      <trkpt lat="43.52048" lon="6.37139">
        <ele>234</ele>
        <time>2021-11-24T15:22:46.000Z</time>
      </trkpt>
      <trkpt lat="43.52048" lon="6.37137">
        <ele>234</ele>
        <time>2021-11-24T15:22:47.000Z</time>
      </trkpt>
      <trkpt lat="43.52047" lon="6.37136">
        <ele>235</ele>
        <time>2021-11-24T15:22:48.000Z</time>
      </trkpt>
      <trkpt lat="43.52047" lon="6.37135">
        <ele>235</ele>
        <time>2021-11-24T15:22:49.000Z</time>
      </trkpt>
      <trkpt lat="43.52047" lon="6.37134">
        <ele>235</ele>
        <time>2021-11-24T15:22:50.000Z</time>
      </trkpt>
      <trkpt lat="43.52047" lon="6.37133">
        <ele>235</ele>
        <time>2021-11-24T15:22:51.000Z</time>
      </trkpt>
      <trkpt lat="43.52046" lon="6.37131">
        <ele>236</ele>
        <time>2021-11-24T15:22:52.000Z</time>
      </trkpt>
      <trkpt lat="43.52046" lon="6.3713">
        <ele>236</ele>
        <time>2021-11-24T15:22:53.000Z</time>
      </trkpt>
      <trkpt lat="43.52045" lon="6.37129">
        <ele>236</ele>
        <time>2021-11-24T15:22:54.000Z</time>
      </trkpt>
      <trkpt lat="43.52045" lon="6.37128">
        <ele>236</ele>
        <time>2021-11-24T15:22:55.000Z</time>
      </trkpt>
      <trkpt lat="43.52044" lon="6.37127">
        <ele>236</ele>
        <time>2021-11-24T15:22:56.000Z</time>
      </trkpt>
      <trkpt lat="43.52043" lon="6.37127">
        <ele>236</ele>
        <time>2021-11-24T15:22:57.000Z</time>
      </trkpt>
      <trkpt lat="43.52042" lon="6.37127">
        <ele>236</ele>
        <time>2021-11-24T15:22:58.000Z</time>
      </trkpt>
      <trkpt lat="43.52042" lon="6.37126">
        <ele>236</ele>
        <time>2021-11-24T15:22:59.000Z</time>
      </trkpt>
      <trkpt lat="43.52041" lon="6.37126">
        <ele>235</ele>
        <time>2021-11-24T15:23:00.000Z</time>
      </trkpt>
      <trkpt lat="43.5204" lon="6.37126">
        <ele>234</ele>
        <time>2021-11-24T15:23:01.000Z</time>
      </trkpt>
      <trkpt lat="43.52039" lon="6.37126">
        <ele>234</ele>
        <time>2021-11-24T15:23:02.000Z</time>
      </trkpt>
      <trkpt lat="43.52038" lon="6.37126">
        <ele>234</ele>
        <time>2021-11-24T15:23:03.000Z</time>
      </trkpt>
      <trkpt lat="43.52037" lon="6.37127">
        <ele>234</ele>
        <time>2021-11-24T15:23:04.000Z</time>
      </trkpt>
      <trkpt lat="43.52036" lon="6.37127">
        <ele>233</ele>
        <time>2021-11-24T15:23:05.000Z</time>
      </trkpt>
      <trkpt lat="43.52035" lon="6.37127">
        <ele>233</ele>
        <time>2021-11-24T15:23:06.000Z</time>
      </trkpt>
      <trkpt lat="43.52034" lon="6.37127">
        <ele>233</ele>
        <time>2021-11-24T15:23:07.000Z</time>
      </trkpt>
      <trkpt lat="43.52032" lon="6.37127">
        <ele>233</ele>
        <time>2021-11-24T15:23:08.000Z</time>
      </trkpt>
      <trkpt lat="43.52031" lon="6.37127">
        <ele>233</ele>
        <time>2021-11-24T15:23:09.000Z</time>
      </trkpt>
      <trkpt lat="43.5203" lon="6.37127">
        <ele>233</ele>
        <time>2021-11-24T15:23:10.000Z</time>
      </trkpt>
      <trkpt lat="43.52029" lon="6.37126">
        <ele>232</ele>
        <time>2021-11-24T15:23:11.000Z</time>
      </trkpt>
      <trkpt lat="43.52028" lon="6.37126">
        <ele>232</ele>
        <time>2021-11-24T15:23:12.000Z</time>
      </trkpt>
      <trkpt lat="43.52027" lon="6.37126">
        <ele>232</ele>
        <time>2021-11-24T15:23:13.000Z</time>
      </trkpt>
      <trkpt lat="43.52026" lon="6.37125">
        <ele>232</ele>
        <time>2021-11-24T15:23:14.000Z</time>
      </trkpt>
      <trkpt lat="43.52025" lon="6.37125">
        <ele>233</ele>
        <time>2021-11-24T15:23:15.000Z</time>
      </trkpt>
      <trkpt lat="43.52024" lon="6.37124">
        <ele>233</ele>
        <time>2021-11-24T15:23:16.000Z</time>
      </trkpt>
      <trkpt lat="43.52023" lon="6.37124">
        <ele>233</ele>
        <time>2021-11-24T15:23:17.000Z</time>
      </trkpt>
      <trkpt lat="43.52021" lon="6.37124">
        <ele>233</ele>
        <time>2021-11-24T15:23:18.000Z</time>
      </trkpt>
      <trkpt lat="43.5202" lon="6.37123">
        <ele>233</ele>
        <time>2021-11-24T15:23:19.000Z</time>
      </trkpt>
      <trkpt lat="43.52019" lon="6.37123">
        <ele>233</ele>
        <time>2021-11-24T15:23:20.000Z</time>
      </trkpt>
      <trkpt lat="43.52018" lon="6.37123">
        <ele>233</ele>
        <time>2021-11-24T15:23:21.000Z</time>
      </trkpt>
      <trkpt lat="43.52017" lon="6.37122">
        <ele>233</ele>
        <time>2021-11-24T15:23:22.000Z</time>
      </trkpt>
      <trkpt lat="43.52016" lon="6.37122">
        <ele>234</ele>
        <time>2021-11-24T15:23:23.000Z</time>
      </trkpt>
      <trkpt lat="43.52015" lon="6.37121">
        <ele>234</ele>
        <time>2021-11-24T15:23:24.000Z</time>
      </trkpt>
      <trkpt lat="43.52014" lon="6.37121">
        <ele>234</ele>
        <time>2021-11-24T15:23:25.000Z</time>
      </trkpt>
      <trkpt lat="43.52013" lon="6.3712">
        <ele>234</ele>
        <time>2021-11-24T15:23:26.000Z</time>
      </trkpt>
      <trkpt lat="43.52012" lon="6.3712">
        <ele>234</ele>
        <time>2021-11-24T15:23:27.000Z</time>
      </trkpt>
      <trkpt lat="43.52011" lon="6.37119">
        <ele>235</ele>
        <time>2021-11-24T15:23:28.000Z</time>
      </trkpt>
      <trkpt lat="43.5201" lon="6.37118">
        <ele>235</ele>
        <time>2021-11-24T15:23:29.000Z</time>
      </trkpt>
      <trkpt lat="43.52009" lon="6.37118">
        <ele>235</ele>
        <time>2021-11-24T15:23:30.000Z</time>
      </trkpt>
      <trkpt lat="43.52008" lon="6.37117">
        <ele>235</ele>
        <time>2021-11-24T15:23:31.000Z</time>
      </trkpt>
      <trkpt lat="43.52007" lon="6.37116">
        <ele>235</ele>
        <time>2021-11-24T15:23:32.000Z</time>
      </trkpt>
      <trkpt lat="43.52006" lon="6.37116">
        <ele>236</ele>
        <time>2021-11-24T15:23:33.000Z</time>
      </trkpt>
      <trkpt lat="43.52005" lon="6.37115">
        <ele>236</ele>
        <time>2021-11-24T15:23:34.000Z</time>
      </trkpt>
      <trkpt lat="43.52004" lon="6.37114">
        <ele>236</ele>
        <time>2021-11-24T15:23:35.000Z</time>
      </trkpt>
      <trkpt lat="43.52003" lon="6.37114">
        <ele>236</ele>
        <time>2021-11-24T15:23:36.000Z</time>
      </trkpt>
      <trkpt lat="43.52002" lon="6.37114">
        <ele>236</ele>
        <time>2021-11-24T15:23:37.000Z</time>
      </trkpt>
      <trkpt lat="43.52001" lon="6.37113">
        <ele>237</ele>
        <time>2021-11-24T15:23:38.000Z</time>
      </trkpt>
      <trkpt lat="43.52" lon="6.37112">
        <ele>237</ele>
        <time>2021-11-24T15:23:39.000Z</time>
      </trkpt>
      <trkpt lat="43.51999" lon="6.37111">
        <ele>238</ele>
        <time>2021-11-24T15:23:40.000Z</time>
      </trkpt>
      <trkpt lat="43.51999" lon="6.37111">
        <ele>238</ele>
        <time>2021-11-24T15:23:41.000Z</time>
      </trkpt>
      <trkpt lat="43.51998" lon="6.37111">
        <ele>238</ele>
        <time>2021-11-24T15:23:42.000Z</time>
      </trkpt>
      <trkpt lat="43.51998" lon="6.37111">
        <ele>238</ele>
        <time>2021-11-24T15:23:43.000Z</time>
      </trkpt>
      <trkpt lat="43.51998" lon="6.37111">
        <ele>238</ele>
        <time>2021-11-24T15:23:44.000Z</time>
      </trkpt>
      <trkpt lat="43.51997" lon="6.37111">
        <ele>238</ele>
        <time>2021-11-24T15:23:45.000Z</time>
      </trkpt>
      <trkpt lat="43.51997" lon="6.37111">
        <ele>239</ele>
        <time>2021-11-24T15:23:46.000Z</time>
      </trkpt>
      <trkpt lat="43.51996" lon="6.37111">
        <ele>239</ele>
        <time>2021-11-24T15:23:47.000Z</time>
      </trkpt>
      <trkpt lat="43.51996" lon="6.37111">
        <ele>239</ele>
        <time>2021-11-24T15:23:48.000Z</time>
      </trkpt>
      <trkpt lat="43.51995" lon="6.37111">
        <ele>239</ele>
        <time>2021-11-24T15:23:49.000Z</time>
      </trkpt>
      <trkpt lat="43.51995" lon="6.37111">
        <ele>239</ele>
        <time>2021-11-24T15:23:50.000Z</time>
      </trkpt>
      <trkpt lat="43.51994" lon="6.37111">
        <ele>239</ele>
        <time>2021-11-24T15:23:51.000Z</time>
      </trkpt>
      <trkpt lat="43.51994" lon="6.37111">
        <ele>239</ele>
        <time>2021-11-24T15:23:52.000Z</time>
      </trkpt>
      <trkpt lat="43.51993" lon="6.37111">
        <ele>239</ele>
        <time>2021-11-24T15:23:53.000Z</time>
      </trkpt>
      <trkpt lat="43.51992" lon="6.37111">
        <ele>239</ele>
        <time>2021-11-24T15:23:54.000Z</time>
      </trkpt>
      <trkpt lat="43.51991" lon="6.37111">
        <ele>239</ele>
        <time>2021-11-24T15:23:55.000Z</time>
      </trkpt>
      <trkpt lat="43.51989" lon="6.37111">
        <ele>239</ele>
        <time>2021-11-24T15:23:56.000Z</time>
      </trkpt>
      <trkpt lat="43.51988" lon="6.37112">
        <ele>239</ele>
        <time>2021-11-24T15:23:57.000Z</time>
      </trkpt>
      <trkpt lat="43.51987" lon="6.37112">
        <ele>239</ele>
        <time>2021-11-24T15:23:58.000Z</time>
      </trkpt>
      <trkpt lat="43.51986" lon="6.37112">
        <ele>239</ele>
        <time>2021-11-24T15:23:59.000Z</time>
      </trkpt>
      <trkpt lat="43.51985" lon="6.37113">
        <ele>239</ele>
        <time>2021-11-24T15:24:00.000Z</time>
      </trkpt>
      <trkpt lat="43.51983" lon="6.37113">
        <ele>239</ele>
        <time>2021-11-24T15:24:01.000Z</time>
      </trkpt>
      <trkpt lat="43.51981" lon="6.37114">
        <ele>239</ele>
        <time>2021-11-24T15:24:02.000Z</time>
      </trkpt>
      <trkpt lat="43.51979" lon="6.37115">
        <ele>238</ele>
        <time>2021-11-24T15:24:03.000Z</time>
      </trkpt>
      <trkpt lat="43.51977" lon="6.37115">
        <ele>238</ele>
        <time>2021-11-24T15:24:04.000Z</time>
      </trkpt>
      <trkpt lat="43.51976" lon="6.37115">
        <ele>238</ele>
        <time>2021-11-24T15:24:05.000Z</time>
      </trkpt>
      <trkpt lat="43.51974" lon="6.37116">
        <ele>238</ele>
        <time>2021-11-24T15:24:06.000Z</time>
      </trkpt>
      <trkpt lat="43.51973" lon="6.37116">
        <ele>238</ele>
        <time>2021-11-24T15:24:07.000Z</time>
      </trkpt>
      <trkpt lat="43.51972" lon="6.37116">
        <ele>238</ele>
        <time>2021-11-24T15:24:08.000Z</time>
      </trkpt>
      <trkpt lat="43.5197" lon="6.37117">
        <ele>238</ele>
        <time>2021-11-24T15:24:09.000Z</time>
      </trkpt>
      <trkpt lat="43.51969" lon="6.37117">
        <ele>238</ele>
        <time>2021-11-24T15:24:10.000Z</time>
      </trkpt>
      <trkpt lat="43.51968" lon="6.37117">
        <ele>238</ele>
        <time>2021-11-24T15:24:11.000Z</time>
      </trkpt>
      <trkpt lat="43.51967" lon="6.37117">
        <ele>238</ele>
        <time>2021-11-24T15:24:12.000Z</time>
      </trkpt>
      <trkpt lat="43.51965" lon="6.37117">
        <ele>238</ele>
        <time>2021-11-24T15:24:13.000Z</time>
      </trkpt>
      <trkpt lat="43.51964" lon="6.37117">
        <ele>238</ele>
        <time>2021-11-24T15:24:14.000Z</time>
      </trkpt>
      <trkpt lat="43.51963" lon="6.37117">
        <ele>238</ele>
        <time>2021-11-24T15:24:15.000Z</time>
      </trkpt>
      <trkpt lat="43.51962" lon="6.37117">
        <ele>238</ele>
        <time>2021-11-24T15:24:16.000Z</time>
      </trkpt>
      <trkpt lat="43.51961" lon="6.37117">
        <ele>238</ele>
        <time>2021-11-24T15:24:17.000Z</time>
      </trkpt>
      <trkpt lat="43.51959" lon="6.37116">
        <ele>238</ele>
        <time>2021-11-24T15:24:18.000Z</time>
      </trkpt>
      <trkpt lat="43.51958" lon="6.37116">
        <ele>238</ele>
        <time>2021-11-24T15:24:19.000Z</time>
      </trkpt>
      <trkpt lat="43.51957" lon="6.37116">
        <ele>238</ele>
        <time>2021-11-24T15:24:20.000Z</time>
      </trkpt>
      <trkpt lat="43.51955" lon="6.37116">
        <ele>238</ele>
        <time>2021-11-24T15:24:21.000Z</time>
      </trkpt>
      <trkpt lat="43.51954" lon="6.37115">
        <ele>238</ele>
        <time>2021-11-24T15:24:22.000Z</time>
      </trkpt>
      <trkpt lat="43.51953" lon="6.37115">
        <ele>238</ele>
        <time>2021-11-24T15:24:23.000Z</time>
      </trkpt>
      <trkpt lat="43.51952" lon="6.37115">
        <ele>238</ele>
        <time>2021-11-24T15:24:24.000Z</time>
      </trkpt>
      <trkpt lat="43.51951" lon="6.37115">
        <ele>238</ele>
        <time>2021-11-24T15:24:25.000Z</time>
      </trkpt>
      <trkpt lat="43.51949" lon="6.37115">
        <ele>238</ele>
        <time>2021-11-24T15:24:26.000Z</time>
      </trkpt>
      <trkpt lat="43.51948" lon="6.37115">
        <ele>238</ele>
        <time>2021-11-24T15:24:27.000Z</time>
      </trkpt>
      <trkpt lat="43.51947" lon="6.37114">
        <ele>238</ele>
        <time>2021-11-24T15:24:28.000Z</time>
      </trkpt>
      <trkpt lat="43.51946" lon="6.37114">
        <ele>238</ele>
        <time>2021-11-24T15:24:29.000Z</time>
      </trkpt>
      <trkpt lat="43.51945" lon="6.37114">
        <ele>238</ele>
        <time>2021-11-24T15:24:30.000Z</time>
      </trkpt>
      <trkpt lat="43.51944" lon="6.37114">
        <ele>238</ele>
        <time>2021-11-24T15:24:31.000Z</time>
      </trkpt>
      <trkpt lat="43.51943" lon="6.37114">
        <ele>238</ele>
        <time>2021-11-24T15:24:32.000Z</time>
      </trkpt>
      <trkpt lat="43.51942" lon="6.37114">
        <ele>238</ele>
        <time>2021-11-24T15:24:33.000Z</time>
      </trkpt>
      <trkpt lat="43.51941" lon="6.37115">
        <ele>238</ele>
        <time>2021-11-24T15:24:34.000Z</time>
      </trkpt>
      <trkpt lat="43.5194" lon="6.37115">
        <ele>238</ele>
        <time>2021-11-24T15:24:35.000Z</time>
      </trkpt>
      <trkpt lat="43.5194" lon="6.37115">
        <ele>238</ele>
        <time>2021-11-24T15:24:36.000Z</time>
      </trkpt>
      <trkpt lat="43.51939" lon="6.37115">
        <ele>238</ele>
        <time>2021-11-24T15:24:37.000Z</time>
      </trkpt>
      <trkpt lat="43.51938" lon="6.37115">
        <ele>238</ele>
        <time>2021-11-24T15:24:38.000Z</time>
      </trkpt>
      <trkpt lat="43.51937" lon="6.37116">
        <ele>238</ele>
        <time>2021-11-24T15:24:39.000Z</time>
      </trkpt>
      <trkpt lat="43.51936" lon="6.37116">
        <ele>237</ele>
        <time>2021-11-24T15:24:40.000Z</time>
      </trkpt>
      <trkpt lat="43.51935" lon="6.37116">
        <ele>237</ele>
        <time>2021-11-24T15:24:41.000Z</time>
      </trkpt>
      <trkpt lat="43.51935" lon="6.37116">
        <ele>237</ele>
        <time>2021-11-24T15:24:42.000Z</time>
      </trkpt>
      <trkpt lat="43.51934" lon="6.37115">
        <ele>237</ele>
        <time>2021-11-24T15:24:43.000Z</time>
      </trkpt>
      <trkpt lat="43.51933" lon="6.37115">
        <ele>237</ele>
        <time>2021-11-24T15:24:44.000Z</time>
      </trkpt>
      <trkpt lat="43.51932" lon="6.37115">
        <ele>237</ele>
        <time>2021-11-24T15:24:45.000Z</time>
      </trkpt>
      <trkpt lat="43.51932" lon="6.37115">
        <ele>237</ele>
        <time>2021-11-24T15:24:46.000Z</time>
      </trkpt>
      <trkpt lat="43.51931" lon="6.37115">
        <ele>237</ele>
        <time>2021-11-24T15:24:47.000Z</time>
      </trkpt>
      <trkpt lat="43.5193" lon="6.37114">
        <ele>237</ele>
        <time>2021-11-24T15:24:48.000Z</time>
      </trkpt>
      <trkpt lat="43.51929" lon="6.37114">
        <ele>237</ele>
        <time>2021-11-24T15:24:49.000Z</time>
      </trkpt>
      <trkpt lat="43.51928" lon="6.37113">
        <ele>237</ele>
        <time>2021-11-24T15:24:50.000Z</time>
      </trkpt>
      <trkpt lat="43.51927" lon="6.37112">
        <ele>237</ele>
        <time>2021-11-24T15:24:51.000Z</time>
      </trkpt>
      <trkpt lat="43.51926" lon="6.37112">
        <ele>237</ele>
        <time>2021-11-24T15:24:52.000Z</time>
      </trkpt>
      <trkpt lat="43.51926" lon="6.37111">
        <ele>237</ele>
        <time>2021-11-24T15:24:53.000Z</time>
      </trkpt>
      <trkpt lat="43.51925" lon="6.3711">
        <ele>237</ele>
        <time>2021-11-24T15:24:54.000Z</time>
      </trkpt>
      <trkpt lat="43.51924" lon="6.37109">
        <ele>237</ele>
        <time>2021-11-24T15:24:55.000Z</time>
      </trkpt>
      <trkpt lat="43.51923" lon="6.37109">
        <ele>237</ele>
        <time>2021-11-24T15:24:56.000Z</time>
      </trkpt>
      <trkpt lat="43.51923" lon="6.37108">
        <ele>237</ele>
        <time>2021-11-24T15:24:57.000Z</time>
      </trkpt>
      <trkpt lat="43.51922" lon="6.37108">
        <ele>238</ele>
        <time>2021-11-24T15:24:58.000Z</time>
      </trkpt>
      <trkpt lat="43.51921" lon="6.37107">
        <ele>238</ele>
        <time>2021-11-24T15:24:59.000Z</time>
      </trkpt>
      <trkpt lat="43.51921" lon="6.37107">
        <ele>238</ele>
        <time>2021-11-24T15:25:00.000Z</time>
      </trkpt>
      <trkpt lat="43.5192" lon="6.37106">
        <ele>238</ele>
        <time>2021-11-24T15:25:01.000Z</time>
      </trkpt>
      <trkpt lat="43.51919" lon="6.37106">
        <ele>238</ele>
        <time>2021-11-24T15:25:02.000Z</time>
      </trkpt>
      <trkpt lat="43.51918" lon="6.37106">
        <ele>238</ele>
        <time>2021-11-24T15:25:03.000Z</time>
      </trkpt>
      <trkpt lat="43.51917" lon="6.37106">
        <ele>238</ele>
        <time>2021-11-24T15:25:04.000Z</time>
      </trkpt>
      <trkpt lat="43.51917" lon="6.37106">
        <ele>238</ele>
        <time>2021-11-24T15:25:05.000Z</time>
      </trkpt>
      <trkpt lat="43.51916" lon="6.37106">
        <ele>238</ele>
        <time>2021-11-24T15:25:06.000Z</time>
      </trkpt>
      <trkpt lat="43.51915" lon="6.37106">
        <ele>238</ele>
        <time>2021-11-24T15:25:07.000Z</time>
      </trkpt>
      <trkpt lat="43.51914" lon="6.37106">
        <ele>238</ele>
        <time>2021-11-24T15:25:08.000Z</time>
      </trkpt>
      <trkpt lat="43.51913" lon="6.37107">
        <ele>238</ele>
        <time>2021-11-24T15:25:09.000Z</time>
      </trkpt>
      <trkpt lat="43.51913" lon="6.37108">
        <ele>238</ele>
        <time>2021-11-24T15:25:10.000Z</time>
      </trkpt>
      <trkpt lat="43.51911" lon="6.37109">
        <ele>237</ele>
        <time>2021-11-24T15:25:11.000Z</time>
      </trkpt>
      <trkpt lat="43.5191" lon="6.37109">
        <ele>237</ele>
        <time>2021-11-24T15:25:12.000Z</time>
      </trkpt>
      <trkpt lat="43.51909" lon="6.3711">
        <ele>237</ele>
        <time>2021-11-24T15:25:13.000Z</time>
      </trkpt>
      <trkpt lat="43.51909" lon="6.37111">
        <ele>236</ele>
        <time>2021-11-24T15:25:14.000Z</time>
      </trkpt>
      <trkpt lat="43.51908" lon="6.37112">
        <ele>236</ele>
        <time>2021-11-24T15:25:15.000Z</time>
      </trkpt>
      <trkpt lat="43.51906" lon="6.37113">
        <ele>236</ele>
        <time>2021-11-24T15:25:16.000Z</time>
      </trkpt>
      <trkpt lat="43.51905" lon="6.37114">
        <ele>236</ele>
        <time>2021-11-24T15:25:17.000Z</time>
      </trkpt>
      <trkpt lat="43.51904" lon="6.37114">
        <ele>236</ele>
        <time>2021-11-24T15:25:18.000Z</time>
      </trkpt>
      <trkpt lat="43.51903" lon="6.37115">
        <ele>235</ele>
        <time>2021-11-24T15:25:19.000Z</time>
      </trkpt>
      <trkpt lat="43.51902" lon="6.37116">
        <ele>235</ele>
        <time>2021-11-24T15:25:20.000Z</time>
      </trkpt>
      <trkpt lat="43.51901" lon="6.37117">
        <ele>235</ele>
        <time>2021-11-24T15:25:21.000Z</time>
      </trkpt>
      <trkpt lat="43.519" lon="6.37117">
        <ele>235</ele>
        <time>2021-11-24T15:25:22.000Z</time>
      </trkpt>
      <trkpt lat="43.51899" lon="6.37118">
        <ele>235</ele>
        <time>2021-11-24T15:25:23.000Z</time>
      </trkpt>
      <trkpt lat="43.51898" lon="6.37117">
        <ele>235</ele>
        <time>2021-11-24T15:25:24.000Z</time>
      </trkpt>
      <trkpt lat="43.51898" lon="6.37117">
        <ele>235</ele>
        <time>2021-11-24T15:25:25.000Z</time>
      </trkpt>
      <trkpt lat="43.51896" lon="6.37117">
        <ele>235</ele>
        <time>2021-11-24T15:25:26.000Z</time>
      </trkpt>
      <trkpt lat="43.51895" lon="6.37117">
        <ele>235</ele>
        <time>2021-11-24T15:25:27.000Z</time>
      </trkpt>
      <trkpt lat="43.51894" lon="6.37116">
        <ele>235</ele>
        <time>2021-11-24T15:25:28.000Z</time>
      </trkpt>
      <trkpt lat="43.51893" lon="6.37116">
        <ele>235</ele>
        <time>2021-11-24T15:25:29.000Z</time>
      </trkpt>
      <trkpt lat="43.51893" lon="6.37115">
        <ele>234</ele>
        <time>2021-11-24T15:25:30.000Z</time>
      </trkpt>
      <trkpt lat="43.51892" lon="6.37115">
        <ele>234</ele>
        <time>2021-11-24T15:25:31.000Z</time>
      </trkpt>
      <trkpt lat="43.51891" lon="6.37114">
        <ele>234</ele>
        <time>2021-11-24T15:25:32.000Z</time>
      </trkpt>
      <trkpt lat="43.51891" lon="6.37112">
        <ele>234</ele>
        <time>2021-11-24T15:25:33.000Z</time>
      </trkpt>
      <trkpt lat="43.5189" lon="6.37111">
        <ele>234</ele>
        <time>2021-11-24T15:25:34.000Z</time>
      </trkpt>
      <trkpt lat="43.5189" lon="6.37109">
        <ele>234</ele>
        <time>2021-11-24T15:25:35.000Z</time>
      </trkpt>
      <trkpt lat="43.5189" lon="6.37108">
        <ele>234</ele>
        <time>2021-11-24T15:25:36.000Z</time>
      </trkpt>
      <trkpt lat="43.51889" lon="6.37107">
        <ele>233</ele>
        <time>2021-11-24T15:25:37.000Z</time>
      </trkpt>
      <trkpt lat="43.51889" lon="6.37106">
        <ele>233</ele>
        <time>2021-11-24T15:25:38.000Z</time>
      </trkpt>
      <trkpt lat="43.51889" lon="6.37104">
        <ele>232</ele>
        <time>2021-11-24T15:25:39.000Z</time>
      </trkpt>
      <trkpt lat="43.51889" lon="6.37103">
        <ele>232</ele>
        <time>2021-11-24T15:25:40.000Z</time>
      </trkpt>
      <trkpt lat="43.51889" lon="6.37102">
        <ele>232</ele>
        <time>2021-11-24T15:25:41.000Z</time>
      </trkpt>
      <trkpt lat="43.51889" lon="6.371">
        <ele>232</ele>
        <time>2021-11-24T15:25:42.000Z</time>
      </trkpt>
      <trkpt lat="43.51889" lon="6.37099">
        <ele>232</ele>
        <time>2021-11-24T15:25:43.000Z</time>
      </trkpt>
      <trkpt lat="43.51889" lon="6.37097">
        <ele>232</ele>
        <time>2021-11-24T15:25:44.000Z</time>
      </trkpt>
      <trkpt lat="43.51889" lon="6.37096">
        <ele>232</ele>
        <time>2021-11-24T15:25:45.000Z</time>
      </trkpt>
      <trkpt lat="43.51889" lon="6.37094">
        <ele>231</ele>
        <time>2021-11-24T15:25:46.000Z</time>
      </trkpt>
      <trkpt lat="43.51889" lon="6.37093">
        <ele>230</ele>
        <time>2021-11-24T15:25:47.000Z</time>
      </trkpt>
      <trkpt lat="43.5189" lon="6.37092">
        <ele>230</ele>
        <time>2021-11-24T15:25:48.000Z</time>
      </trkpt>
      <trkpt lat="43.5189" lon="6.37091">
        <ele>230</ele>
        <time>2021-11-24T15:25:49.000Z</time>
      </trkpt>
      <trkpt lat="43.5189" lon="6.37089">
        <ele>230</ele>
        <time>2021-11-24T15:25:50.000Z</time>
      </trkpt>
      <trkpt lat="43.5189" lon="6.37088">
        <ele>230</ele>
        <time>2021-11-24T15:25:51.000Z</time>
      </trkpt>
      <trkpt lat="43.5189" lon="6.37087">
        <ele>230</ele>
        <time>2021-11-24T15:25:52.000Z</time>
      </trkpt>
      <trkpt lat="43.51889" lon="6.37086">
        <ele>230</ele>
        <time>2021-11-24T15:25:53.000Z</time>
      </trkpt>
      <trkpt lat="43.51888" lon="6.37085">
        <ele>230</ele>
        <time>2021-11-24T15:25:54.000Z</time>
      </trkpt>
      <trkpt lat="43.51887" lon="6.37085">
        <ele>230</ele>
        <time>2021-11-24T15:25:55.000Z</time>
      </trkpt>
      <trkpt lat="43.51887" lon="6.37084">
        <ele>230</ele>
        <time>2021-11-24T15:25:56.000Z</time>
      </trkpt>
      <trkpt lat="43.51886" lon="6.37084">
        <ele>230</ele>
        <time>2021-11-24T15:25:57.000Z</time>
      </trkpt>
      <trkpt lat="43.51885" lon="6.37083">
        <ele>230</ele>
        <time>2021-11-24T15:25:58.000Z</time>
      </trkpt>
      <trkpt lat="43.51884" lon="6.37083">
        <ele>230</ele>
        <time>2021-11-24T15:25:59.000Z</time>
      </trkpt>
      <trkpt lat="43.51883" lon="6.37084">
        <ele>230</ele>
        <time>2021-11-24T15:26:00.000Z</time>
      </trkpt>
      <trkpt lat="43.51881" lon="6.37085">
        <ele>229</ele>
        <time>2021-11-24T15:26:01.000Z</time>
      </trkpt>
      <trkpt lat="43.5188" lon="6.37086">
        <ele>229</ele>
        <time>2021-11-24T15:26:02.000Z</time>
      </trkpt>
      <trkpt lat="43.51879" lon="6.37087">
        <ele>229</ele>
        <time>2021-11-24T15:26:03.000Z</time>
      </trkpt>
      <trkpt lat="43.51878" lon="6.37087">
        <ele>229</ele>
        <time>2021-11-24T15:26:04.000Z</time>
      </trkpt>
      <trkpt lat="43.51877" lon="6.37087">
        <ele>229</ele>
        <time>2021-11-24T15:26:05.000Z</time>
      </trkpt>
      <trkpt lat="43.51876" lon="6.37087">
        <ele>228</ele>
        <time>2021-11-24T15:26:06.000Z</time>
      </trkpt>
      <trkpt lat="43.51875" lon="6.37087">
        <ele>228</ele>
        <time>2021-11-24T15:26:07.000Z</time>
      </trkpt>
      <trkpt lat="43.51874" lon="6.37087">
        <ele>228</ele>
        <time>2021-11-24T15:26:08.000Z</time>
      </trkpt>
      <trkpt lat="43.51872" lon="6.37087">
        <ele>228</ele>
        <time>2021-11-24T15:26:09.000Z</time>
      </trkpt>
      <trkpt lat="43.51871" lon="6.37087">
        <ele>227</ele>
        <time>2021-11-24T15:26:10.000Z</time>
      </trkpt>
      <trkpt lat="43.5187" lon="6.37087">
        <ele>227</ele>
        <time>2021-11-24T15:26:11.000Z</time>
      </trkpt>
      <trkpt lat="43.5187" lon="6.37087">
        <ele>227</ele>
        <time>2021-11-24T15:26:12.000Z</time>
      </trkpt>
      <trkpt lat="43.51869" lon="6.37088">
        <ele>227</ele>
        <time>2021-11-24T15:26:13.000Z</time>
      </trkpt>
      <trkpt lat="43.51868" lon="6.37088">
        <ele>226</ele>
        <time>2021-11-24T15:26:14.000Z</time>
      </trkpt>
      <trkpt lat="43.51867" lon="6.37088">
        <ele>226</ele>
        <time>2021-11-24T15:26:15.000Z</time>
      </trkpt>
      <trkpt lat="43.51866" lon="6.37088">
        <ele>226</ele>
        <time>2021-11-24T15:26:16.000Z</time>
      </trkpt>
      <trkpt lat="43.51865" lon="6.37087">
        <ele>226</ele>
        <time>2021-11-24T15:26:17.000Z</time>
      </trkpt>
      <trkpt lat="43.51864" lon="6.37087">
        <ele>226</ele>
        <time>2021-11-24T15:26:18.000Z</time>
      </trkpt>
      <trkpt lat="43.51864" lon="6.37087">
        <ele>226</ele>
        <time>2021-11-24T15:26:19.000Z</time>
      </trkpt>
      <trkpt lat="43.51863" lon="6.37087">
        <ele>226</ele>
        <time>2021-11-24T15:26:20.000Z</time>
      </trkpt>
      <trkpt lat="43.51862" lon="6.37087">
        <ele>226</ele>
        <time>2021-11-24T15:26:21.000Z</time>
      </trkpt>
      <trkpt lat="43.51861" lon="6.37087">
        <ele>226</ele>
        <time>2021-11-24T15:26:22.000Z</time>
      </trkpt>
      <trkpt lat="43.5186" lon="6.37086">
        <ele>226</ele>
        <time>2021-11-24T15:26:23.000Z</time>
      </trkpt>
      <trkpt lat="43.51859" lon="6.37086">
        <ele>227</ele>
        <time>2021-11-24T15:26:24.000Z</time>
      </trkpt>
      <trkpt lat="43.51858" lon="6.37085">
        <ele>227</ele>
        <time>2021-11-24T15:26:25.000Z</time>
      </trkpt>
      <trkpt lat="43.51857" lon="6.37085">
        <ele>227</ele>
        <time>2021-11-24T15:26:26.000Z</time>
      </trkpt>
      <trkpt lat="43.51856" lon="6.37085">
        <ele>228</ele>
        <time>2021-11-24T15:26:27.000Z</time>
      </trkpt>
      <trkpt lat="43.51855" lon="6.37084">
        <ele>228</ele>
        <time>2021-11-24T15:26:28.000Z</time>
      </trkpt>
      <trkpt lat="43.51854" lon="6.37083">
        <ele>228</ele>
        <time>2021-11-24T15:26:29.000Z</time>
      </trkpt>
      <trkpt lat="43.51853" lon="6.37083">
        <ele>228</ele>
        <time>2021-11-24T15:26:30.000Z</time>
      </trkpt>
      <trkpt lat="43.51852" lon="6.37082">
        <ele>228</ele>
        <time>2021-11-24T15:26:31.000Z</time>
      </trkpt>
      <trkpt lat="43.51851" lon="6.37081">
        <ele>229</ele>
        <time>2021-11-24T15:26:32.000Z</time>
      </trkpt>
      <trkpt lat="43.5185" lon="6.3708">
        <ele>229</ele>
        <time>2021-11-24T15:26:33.000Z</time>
      </trkpt>
      <trkpt lat="43.51849" lon="6.37079">
        <ele>229</ele>
        <time>2021-11-24T15:26:34.000Z</time>
      </trkpt>
      <trkpt lat="43.51848" lon="6.37079">
        <ele>229</ele>
        <time>2021-11-24T15:26:35.000Z</time>
      </trkpt>
      <trkpt lat="43.51847" lon="6.37078">
        <ele>229</ele>
        <time>2021-11-24T15:26:36.000Z</time>
      </trkpt>
      <trkpt lat="43.51846" lon="6.37078">
        <ele>230</ele>
        <time>2021-11-24T15:26:37.000Z</time>
      </trkpt>
      <trkpt lat="43.51845" lon="6.37077">
        <ele>230</ele>
        <time>2021-11-24T15:26:38.000Z</time>
      </trkpt>
      <trkpt lat="43.51844" lon="6.37077">
        <ele>229</ele>
        <time>2021-11-24T15:26:39.000Z</time>
      </trkpt>
      <trkpt lat="43.51843" lon="6.37077">
        <ele>229</ele>
        <time>2021-11-24T15:26:40.000Z</time>
      </trkpt>
      <trkpt lat="43.51842" lon="6.37077">
        <ele>229</ele>
        <time>2021-11-24T15:26:41.000Z</time>
      </trkpt>
      <trkpt lat="43.51841" lon="6.37077">
        <ele>229</ele>
        <time>2021-11-24T15:26:42.000Z</time>
      </trkpt>
      <trkpt lat="43.51839" lon="6.37077">
        <ele>229</ele>
        <time>2021-11-24T15:26:43.000Z</time>
      </trkpt>
      <trkpt lat="43.51838" lon="6.37077">
        <ele>230</ele>
        <time>2021-11-24T15:26:44.000Z</time>
      </trkpt>
      <trkpt lat="43.51837" lon="6.37076">
        <ele>230</ele>
        <time>2021-11-24T15:26:45.000Z</time>
      </trkpt>
      <trkpt lat="43.51835" lon="6.37076">
        <ele>230</ele>
        <time>2021-11-24T15:26:46.000Z</time>
      </trkpt>
      <trkpt lat="43.51834" lon="6.37076">
        <ele>230</ele>
        <time>2021-11-24T15:26:47.000Z</time>
      </trkpt>
      <trkpt lat="43.51834" lon="6.37075">
        <ele>230</ele>
        <time>2021-11-24T15:26:48.000Z</time>
      </trkpt>
      <trkpt lat="43.51833" lon="6.37074">
        <ele>230</ele>
        <time>2021-11-24T15:26:49.000Z</time>
      </trkpt>
      <trkpt lat="43.51832" lon="6.37074">
        <ele>230</ele>
        <time>2021-11-24T15:26:50.000Z</time>
      </trkpt>
      <trkpt lat="43.51832" lon="6.37073">
        <ele>230</ele>
        <time>2021-11-24T15:26:51.000Z</time>
      </trkpt>
      <trkpt lat="43.51831" lon="6.37073">
        <ele>230</ele>
        <time>2021-11-24T15:26:52.000Z</time>
      </trkpt>
      <trkpt lat="43.5183" lon="6.37072">
        <ele>230</ele>
        <time>2021-11-24T15:26:53.000Z</time>
      </trkpt>
      <trkpt lat="43.51829" lon="6.37071">
        <ele>230</ele>
        <time>2021-11-24T15:26:54.000Z</time>
      </trkpt>
      <trkpt lat="43.51829" lon="6.3707">
        <ele>230</ele>
        <time>2021-11-24T15:26:55.000Z</time>
      </trkpt>
      <trkpt lat="43.51828" lon="6.37069">
        <ele>230</ele>
        <time>2021-11-24T15:26:56.000Z</time>
      </trkpt>
      <trkpt lat="43.51827" lon="6.37068">
        <ele>229</ele>
        <time>2021-11-24T15:26:57.000Z</time>
      </trkpt>
      <trkpt lat="43.51826" lon="6.37068">
        <ele>229</ele>
        <time>2021-11-24T15:26:58.000Z</time>
      </trkpt>
      <trkpt lat="43.51826" lon="6.37066">
        <ele>229</ele>
        <time>2021-11-24T15:26:59.000Z</time>
      </trkpt>
      <trkpt lat="43.51825" lon="6.37065">
        <ele>229</ele>
        <time>2021-11-24T15:27:00.000Z</time>
      </trkpt>
      <trkpt lat="43.51824" lon="6.37064">
        <ele>229</ele>
        <time>2021-11-24T15:27:01.000Z</time>
      </trkpt>
      <trkpt lat="43.51823" lon="6.37063">
        <ele>229</ele>
        <time>2021-11-24T15:27:02.000Z</time>
      </trkpt>
      <trkpt lat="43.51822" lon="6.37062">
        <ele>229</ele>
        <time>2021-11-24T15:27:03.000Z</time>
      </trkpt>
      <trkpt lat="43.51821" lon="6.37061">
        <ele>228</ele>
        <time>2021-11-24T15:27:04.000Z</time>
      </trkpt>
      <trkpt lat="43.5182" lon="6.3706">
        <ele>228</ele>
        <time>2021-11-24T15:27:05.000Z</time>
      </trkpt>
      <trkpt lat="43.51819" lon="6.3706">
        <ele>228</ele>
        <time>2021-11-24T15:27:06.000Z</time>
      </trkpt>
      <trkpt lat="43.51818" lon="6.3706">
        <ele>228</ele>
        <time>2021-11-24T15:27:07.000Z</time>
      </trkpt>
      <trkpt lat="43.51817" lon="6.3706">
        <ele>227</ele>
        <time>2021-11-24T15:27:08.000Z</time>
      </trkpt>
      <trkpt lat="43.51815" lon="6.37059">
        <ele>227</ele>
        <time>2021-11-24T15:27:09.000Z</time>
      </trkpt>
      <trkpt lat="43.51814" lon="6.37059">
        <ele>227</ele>
        <time>2021-11-24T15:27:10.000Z</time>
      </trkpt>
      <trkpt lat="43.51813" lon="6.37059">
        <ele>227</ele>
        <time>2021-11-24T15:27:11.000Z</time>
      </trkpt>
      <trkpt lat="43.51812" lon="6.37059">
        <ele>227</ele>
        <time>2021-11-24T15:27:12.000Z</time>
      </trkpt>
      <trkpt lat="43.51811" lon="6.37059">
        <ele>227</ele>
        <time>2021-11-24T15:27:13.000Z</time>
      </trkpt>
      <trkpt lat="43.5181" lon="6.37059">
        <ele>227</ele>
        <time>2021-11-24T15:27:14.000Z</time>
      </trkpt>
      <trkpt lat="43.51809" lon="6.37059">
        <ele>227</ele>
        <time>2021-11-24T15:27:15.000Z</time>
      </trkpt>
      <trkpt lat="43.51808" lon="6.3706">
        <ele>227</ele>
        <time>2021-11-24T15:27:16.000Z</time>
      </trkpt>
      <trkpt lat="43.51807" lon="6.3706">
        <ele>227</ele>
        <time>2021-11-24T15:27:17.000Z</time>
      </trkpt>
      <trkpt lat="43.51805" lon="6.37061">
        <ele>226</ele>
        <time>2021-11-24T15:27:18.000Z</time>
      </trkpt>
      <trkpt lat="43.51804" lon="6.37062">
        <ele>226</ele>
        <time>2021-11-24T15:27:19.000Z</time>
      </trkpt>
      <trkpt lat="43.51803" lon="6.37063">
        <ele>226</ele>
        <time>2021-11-24T15:27:20.000Z</time>
      </trkpt>
      <trkpt lat="43.51802" lon="6.37063">
        <ele>226</ele>
        <time>2021-11-24T15:27:21.000Z</time>
      </trkpt>
      <trkpt lat="43.51801" lon="6.37064">
        <ele>226</ele>
        <time>2021-11-24T15:27:22.000Z</time>
      </trkpt>
      <trkpt lat="43.518" lon="6.37066">
        <ele>225</ele>
        <time>2021-11-24T15:27:23.000Z</time>
      </trkpt>
      <trkpt lat="43.518" lon="6.37067">
        <ele>225</ele>
        <time>2021-11-24T15:27:24.000Z</time>
      </trkpt>
      <trkpt lat="43.51799" lon="6.37069">
        <ele>225</ele>
        <time>2021-11-24T15:27:25.000Z</time>
      </trkpt>
      <trkpt lat="43.51799" lon="6.37071">
        <ele>225</ele>
        <time>2021-11-24T15:27:26.000Z</time>
      </trkpt>
      <trkpt lat="43.51799" lon="6.37072">
        <ele>225</ele>
        <time>2021-11-24T15:27:27.000Z</time>
      </trkpt>
      <trkpt lat="43.51798" lon="6.37074">
        <ele>225</ele>
        <time>2021-11-24T15:27:28.000Z</time>
      </trkpt>
      <trkpt lat="43.51798" lon="6.37075">
        <ele>225</ele>
        <time>2021-11-24T15:27:29.000Z</time>
      </trkpt>
      <trkpt lat="43.51798" lon="6.37077">
        <ele>225</ele>
        <time>2021-11-24T15:27:30.000Z</time>
      </trkpt>
      <trkpt lat="43.51797" lon="6.37078">
        <ele>225</ele>
        <time>2021-11-24T15:27:31.000Z</time>
      </trkpt>
      <trkpt lat="43.51797" lon="6.37079">
        <ele>225</ele>
        <time>2021-11-24T15:27:32.000Z</time>
      </trkpt>
      <trkpt lat="43.51796" lon="6.37081">
        <ele>225</ele>
        <time>2021-11-24T15:27:33.000Z</time>
      </trkpt>
      <trkpt lat="43.51795" lon="6.37084">
        <ele>225</ele>
        <time>2021-11-24T15:27:34.000Z</time>
      </trkpt>
      <trkpt lat="43.51795" lon="6.37087">
        <ele>224</ele>
        <time>2021-11-24T15:27:35.000Z</time>
      </trkpt>
      <trkpt lat="43.51794" lon="6.3709">
        <ele>224</ele>
        <time>2021-11-24T15:27:36.000Z</time>
      </trkpt>
      <trkpt lat="43.51794" lon="6.37092">
        <ele>224</ele>
        <time>2021-11-24T15:27:37.000Z</time>
      </trkpt>
      <trkpt lat="43.51794" lon="6.37095">
        <ele>224</ele>
        <time>2021-11-24T15:27:38.000Z</time>
      </trkpt>
      <trkpt lat="43.51793" lon="6.37097">
        <ele>224</ele>
        <time>2021-11-24T15:27:39.000Z</time>
      </trkpt>
      <trkpt lat="43.51792" lon="6.37099">
        <ele>224</ele>
        <time>2021-11-24T15:27:40.000Z</time>
      </trkpt>
      <trkpt lat="43.51792" lon="6.37101">
        <ele>224</ele>
        <time>2021-11-24T15:27:41.000Z</time>
      </trkpt>
      <trkpt lat="43.51791" lon="6.37103">
        <ele>223</ele>
        <time>2021-11-24T15:27:42.000Z</time>
      </trkpt>
      <trkpt lat="43.51791" lon="6.37105">
        <ele>223</ele>
        <time>2021-11-24T15:27:43.000Z</time>
      </trkpt>
      <trkpt lat="43.5179" lon="6.37107">
        <ele>223</ele>
        <time>2021-11-24T15:27:44.000Z</time>
      </trkpt>
      <trkpt lat="43.5179" lon="6.37108">
        <ele>223</ele>
        <time>2021-11-24T15:27:45.000Z</time>
      </trkpt>
      <trkpt lat="43.51789" lon="6.37109">
        <ele>223</ele>
        <time>2021-11-24T15:27:46.000Z</time>
      </trkpt>
      <trkpt lat="43.51788" lon="6.37111">
        <ele>223</ele>
        <time>2021-11-24T15:27:47.000Z</time>
      </trkpt>
      <trkpt lat="43.51788" lon="6.37112">
        <ele>222</ele>
        <time>2021-11-24T15:27:48.000Z</time>
      </trkpt>
      <trkpt lat="43.51787" lon="6.37113">
        <ele>222</ele>
        <time>2021-11-24T15:27:49.000Z</time>
      </trkpt>
      <trkpt lat="43.51787" lon="6.37115">
        <ele>222</ele>
        <time>2021-11-24T15:27:50.000Z</time>
      </trkpt>
      <trkpt lat="43.51786" lon="6.37117">
        <ele>222</ele>
        <time>2021-11-24T15:27:51.000Z</time>
      </trkpt>
      <trkpt lat="43.51786" lon="6.37118">
        <ele>222</ele>
        <time>2021-11-24T15:27:52.000Z</time>
      </trkpt>
      <trkpt lat="43.51785" lon="6.37119">
        <ele>222</ele>
        <time>2021-11-24T15:27:53.000Z</time>
      </trkpt>
      <trkpt lat="43.51785" lon="6.3712">
        <ele>222</ele>
        <time>2021-11-24T15:27:54.000Z</time>
      </trkpt>
      <trkpt lat="43.51784" lon="6.37122">
        <ele>221</ele>
        <time>2021-11-24T15:27:55.000Z</time>
      </trkpt>
      <trkpt lat="43.51783" lon="6.37123">
        <ele>221</ele>
        <time>2021-11-24T15:27:56.000Z</time>
      </trkpt>
      <trkpt lat="43.51783" lon="6.37124">
        <ele>221</ele>
        <time>2021-11-24T15:27:57.000Z</time>
      </trkpt>
      <trkpt lat="43.51782" lon="6.37125">
        <ele>221</ele>
        <time>2021-11-24T15:27:58.000Z</time>
      </trkpt>
      <trkpt lat="43.51781" lon="6.37126">
        <ele>221</ele>
        <time>2021-11-24T15:27:59.000Z</time>
      </trkpt>
      <trkpt lat="43.5178" lon="6.37127">
        <ele>221</ele>
        <time>2021-11-24T15:28:00.000Z</time>
      </trkpt>
      <trkpt lat="43.5178" lon="6.37128">
        <ele>221</ele>
        <time>2021-11-24T15:28:01.000Z</time>
      </trkpt>
      <trkpt lat="43.51779" lon="6.3713">
        <ele>221</ele>
        <time>2021-11-24T15:28:02.000Z</time>
      </trkpt>
      <trkpt lat="43.51778" lon="6.37131">
        <ele>220</ele>
        <time>2021-11-24T15:28:03.000Z</time>
      </trkpt>
      <trkpt lat="43.51777" lon="6.37132">
        <ele>220</ele>
        <time>2021-11-24T15:28:04.000Z</time>
      </trkpt>
      <trkpt lat="43.51776" lon="6.37133">
        <ele>220</ele>
        <time>2021-11-24T15:28:05.000Z</time>
      </trkpt>
      <trkpt lat="43.51775" lon="6.37135">
        <ele>219</ele>
        <time>2021-11-24T15:28:06.000Z</time>
      </trkpt>
      <trkpt lat="43.51774" lon="6.37136">
        <ele>219</ele>
        <time>2021-11-24T15:28:07.000Z</time>
      </trkpt>
      <trkpt lat="43.51773" lon="6.37137">
        <ele>219</ele>
        <time>2021-11-24T15:28:08.000Z</time>
      </trkpt>
      <trkpt lat="43.51773" lon="6.37139">
        <ele>219</ele>
        <time>2021-11-24T15:28:09.000Z</time>
      </trkpt>
      <trkpt lat="43.51772" lon="6.3714">
        <ele>219</ele>
        <time>2021-11-24T15:28:10.000Z</time>
      </trkpt>
      <trkpt lat="43.51771" lon="6.37141">
        <ele>219</ele>
        <time>2021-11-24T15:28:11.000Z</time>
      </trkpt>
      <trkpt lat="43.5177" lon="6.37142">
        <ele>219</ele>
        <time>2021-11-24T15:28:12.000Z</time>
      </trkpt>
      <trkpt lat="43.5177" lon="6.37143">
        <ele>219</ele>
        <time>2021-11-24T15:28:13.000Z</time>
      </trkpt>
      <trkpt lat="43.51769" lon="6.37144">
        <ele>219</ele>
        <time>2021-11-24T15:28:14.000Z</time>
      </trkpt>
      <trkpt lat="43.51768" lon="6.37145">
        <ele>219</ele>
        <time>2021-11-24T15:28:15.000Z</time>
      </trkpt>
      <trkpt lat="43.51768" lon="6.37146">
        <ele>219</ele>
        <time>2021-11-24T15:28:16.000Z</time>
      </trkpt>
      <trkpt lat="43.51767" lon="6.37148">
        <ele>219</ele>
        <time>2021-11-24T15:28:17.000Z</time>
      </trkpt>
      <trkpt lat="43.51766" lon="6.37149">
        <ele>219</ele>
        <time>2021-11-24T15:28:18.000Z</time>
      </trkpt>
      <trkpt lat="43.51766" lon="6.3715">
        <ele>219</ele>
        <time>2021-11-24T15:28:19.000Z</time>
      </trkpt>
      <trkpt lat="43.51765" lon="6.37151">
        <ele>218</ele>
        <time>2021-11-24T15:28:20.000Z</time>
      </trkpt>
      <trkpt lat="43.51765" lon="6.37153">
        <ele>218</ele>
        <time>2021-11-24T15:28:21.000Z</time>
      </trkpt>
      <trkpt lat="43.51764" lon="6.37154">
        <ele>218</ele>
        <time>2021-11-24T15:28:22.000Z</time>
      </trkpt>
      <trkpt lat="43.51764" lon="6.37155">
        <ele>218</ele>
        <time>2021-11-24T15:28:23.000Z</time>
      </trkpt>
      <trkpt lat="43.51763" lon="6.37156">
        <ele>218</ele>
        <time>2021-11-24T15:28:24.000Z</time>
      </trkpt>
      <trkpt lat="43.51763" lon="6.37157">
        <ele>218</ele>
        <time>2021-11-24T15:28:25.000Z</time>
      </trkpt>
      <trkpt lat="43.51762" lon="6.37158">
        <ele>218</ele>
        <time>2021-11-24T15:28:26.000Z</time>
      </trkpt>
      <trkpt lat="43.51761" lon="6.37159">
        <ele>218</ele>
        <time>2021-11-24T15:28:27.000Z</time>
      </trkpt>
      <trkpt lat="43.51761" lon="6.3716">
        <ele>218</ele>
        <time>2021-11-24T15:28:28.000Z</time>
      </trkpt>
      <trkpt lat="43.5176" lon="6.37162">
        <ele>218</ele>
        <time>2021-11-24T15:28:29.000Z</time>
      </trkpt>
      <trkpt lat="43.51759" lon="6.37163">
        <ele>218</ele>
        <time>2021-11-24T15:28:30.000Z</time>
      </trkpt>
      <trkpt lat="43.51759" lon="6.37164">
        <ele>218</ele>
        <time>2021-11-24T15:28:31.000Z</time>
      </trkpt>
      <trkpt lat="43.51758" lon="6.37166">
        <ele>218</ele>
        <time>2021-11-24T15:28:32.000Z</time>
      </trkpt>
      <trkpt lat="43.51758" lon="6.37167">
        <ele>218</ele>
        <time>2021-11-24T15:28:33.000Z</time>
      </trkpt>
      <trkpt lat="43.51757" lon="6.37168">
        <ele>218</ele>
        <time>2021-11-24T15:28:34.000Z</time>
      </trkpt>
      <trkpt lat="43.51756" lon="6.37169">
        <ele>218</ele>
        <time>2021-11-24T15:28:35.000Z</time>
      </trkpt>
      <trkpt lat="43.51755" lon="6.37171">
        <ele>218</ele>
        <time>2021-11-24T15:28:36.000Z</time>
      </trkpt>
      <trkpt lat="43.51755" lon="6.37172">
        <ele>218</ele>
        <time>2021-11-24T15:28:37.000Z</time>
      </trkpt>
      <trkpt lat="43.51754" lon="6.37173">
        <ele>218</ele>
        <time>2021-11-24T15:28:38.000Z</time>
      </trkpt>
      <trkpt lat="43.51753" lon="6.37175">
        <ele>218</ele>
        <time>2021-11-24T15:28:39.000Z</time>
      </trkpt>
      <trkpt lat="43.51752" lon="6.37176">
        <ele>218</ele>
        <time>2021-11-24T15:28:40.000Z</time>
      </trkpt>
      <trkpt lat="43.51752" lon="6.37178">
        <ele>218</ele>
        <time>2021-11-24T15:28:41.000Z</time>
      </trkpt>
      <trkpt lat="43.51751" lon="6.37179">
        <ele>218</ele>
        <time>2021-11-24T15:28:42.000Z</time>
      </trkpt>
      <trkpt lat="43.5175" lon="6.3718">
        <ele>217</ele>
        <time>2021-11-24T15:28:43.000Z</time>
      </trkpt>
      <trkpt lat="43.51749" lon="6.37182">
        <ele>217</ele>
        <time>2021-11-24T15:28:44.000Z</time>
      </trkpt>
      <trkpt lat="43.51749" lon="6.37183">
        <ele>217</ele>
        <time>2021-11-24T15:28:45.000Z</time>
      </trkpt>
      <trkpt lat="43.51748" lon="6.37184">
        <ele>217</ele>
        <time>2021-11-24T15:28:46.000Z</time>
      </trkpt>
      <trkpt lat="43.51747" lon="6.37185">
        <ele>216</ele>
        <time>2021-11-24T15:28:47.000Z</time>
      </trkpt>
      <trkpt lat="43.51746" lon="6.37187">
        <ele>216</ele>
        <time>2021-11-24T15:28:48.000Z</time>
      </trkpt>
      <trkpt lat="43.51746" lon="6.37188">
        <ele>216</ele>
        <time>2021-11-24T15:28:49.000Z</time>
      </trkpt>
      <trkpt lat="43.51745" lon="6.37189">
        <ele>216</ele>
        <time>2021-11-24T15:28:50.000Z</time>
      </trkpt>
      <trkpt lat="43.51744" lon="6.3719">
        <ele>215</ele>
        <time>2021-11-24T15:28:51.000Z</time>
      </trkpt>
      <trkpt lat="43.51743" lon="6.37191">
        <ele>215</ele>
        <time>2021-11-24T15:28:52.000Z</time>
      </trkpt>
      <trkpt lat="43.51742" lon="6.37192">
        <ele>215</ele>
        <time>2021-11-24T15:28:53.000Z</time>
      </trkpt>
      <trkpt lat="43.51741" lon="6.37193">
        <ele>215</ele>
        <time>2021-11-24T15:28:54.000Z</time>
      </trkpt>
      <trkpt lat="43.5174" lon="6.37194">
        <ele>215</ele>
        <time>2021-11-24T15:28:55.000Z</time>
      </trkpt>
      <trkpt lat="43.5174" lon="6.37195">
        <ele>215</ele>
        <time>2021-11-24T15:28:56.000Z</time>
      </trkpt>
      <trkpt lat="43.51739" lon="6.37196">
        <ele>215</ele>
        <time>2021-11-24T15:28:57.000Z</time>
      </trkpt>
      <trkpt lat="43.51739" lon="6.37197">
        <ele>214</ele>
        <time>2021-11-24T15:28:58.000Z</time>
      </trkpt>
      <trkpt lat="43.51738" lon="6.37198">
        <ele>214</ele>
        <time>2021-11-24T15:28:59.000Z</time>
      </trkpt>
      <trkpt lat="43.51738" lon="6.372">
        <ele>214</ele>
        <time>2021-11-24T15:29:00.000Z</time>
      </trkpt>
      <trkpt lat="43.51738" lon="6.37201">
        <ele>214</ele>
        <time>2021-11-24T15:29:01.000Z</time>
      </trkpt>
      <trkpt lat="43.51737" lon="6.37202">
        <ele>214</ele>
        <time>2021-11-24T15:29:02.000Z</time>
      </trkpt>
      <trkpt lat="43.51737" lon="6.37203">
        <ele>214</ele>
        <time>2021-11-24T15:29:03.000Z</time>
      </trkpt>
      <trkpt lat="43.51736" lon="6.37205">
        <ele>214</ele>
        <time>2021-11-24T15:29:04.000Z</time>
      </trkpt>
      <trkpt lat="43.51736" lon="6.37206">
        <ele>214</ele>
        <time>2021-11-24T15:29:05.000Z</time>
      </trkpt>
      <trkpt lat="43.51736" lon="6.37208">
        <ele>214</ele>
        <time>2021-11-24T15:29:06.000Z</time>
      </trkpt>
      <trkpt lat="43.51736" lon="6.37209">
        <ele>214</ele>
        <time>2021-11-24T15:29:07.000Z</time>
      </trkpt>
      <trkpt lat="43.51736" lon="6.37211">
        <ele>213</ele>
        <time>2021-11-24T15:29:08.000Z</time>
      </trkpt>
      <trkpt lat="43.51736" lon="6.37212">
        <ele>213</ele>
        <time>2021-11-24T15:29:09.000Z</time>
      </trkpt>
      <trkpt lat="43.51736" lon="6.37214">
        <ele>213</ele>
        <time>2021-11-24T15:29:10.000Z</time>
      </trkpt>
      <trkpt lat="43.51736" lon="6.37216">
        <ele>213</ele>
        <time>2021-11-24T15:29:11.000Z</time>
      </trkpt>
      <trkpt lat="43.51736" lon="6.37217">
        <ele>213</ele>
        <time>2021-11-24T15:29:12.000Z</time>
      </trkpt>
      <trkpt lat="43.51736" lon="6.37219">
        <ele>213</ele>
        <time>2021-11-24T15:29:13.000Z</time>
      </trkpt>
      <trkpt lat="43.51736" lon="6.3722">
        <ele>213</ele>
        <time>2021-11-24T15:29:14.000Z</time>
      </trkpt>
      <trkpt lat="43.51736" lon="6.37222">
        <ele>213</ele>
        <time>2021-11-24T15:29:15.000Z</time>
      </trkpt>
      <trkpt lat="43.51736" lon="6.37223">
        <ele>212</ele>
        <time>2021-11-24T15:29:16.000Z</time>
      </trkpt>
      <trkpt lat="43.51736" lon="6.37225">
        <ele>212</ele>
        <time>2021-11-24T15:29:17.000Z</time>
      </trkpt>
      <trkpt lat="43.51736" lon="6.37226">
        <ele>212</ele>
        <time>2021-11-24T15:29:18.000Z</time>
      </trkpt>
      <trkpt lat="43.51736" lon="6.37227">
        <ele>211</ele>
        <time>2021-11-24T15:29:19.000Z</time>
      </trkpt>
      <trkpt lat="43.51736" lon="6.37229">
        <ele>211</ele>
        <time>2021-11-24T15:29:20.000Z</time>
      </trkpt>
      <trkpt lat="43.51735" lon="6.3723">
        <ele>211</ele>
        <time>2021-11-24T15:29:21.000Z</time>
      </trkpt>
      <trkpt lat="43.51735" lon="6.37231">
        <ele>211</ele>
        <time>2021-11-24T15:29:22.000Z</time>
      </trkpt>
      <trkpt lat="43.51734" lon="6.37232">
        <ele>211</ele>
        <time>2021-11-24T15:29:23.000Z</time>
      </trkpt>
      <trkpt lat="43.51734" lon="6.37233">
        <ele>211</ele>
        <time>2021-11-24T15:29:24.000Z</time>
      </trkpt>
      <trkpt lat="43.51733" lon="6.37234">
        <ele>211</ele>
        <time>2021-11-24T15:29:25.000Z</time>
      </trkpt>
      <trkpt lat="43.51733" lon="6.37235">
        <ele>210</ele>
        <time>2021-11-24T15:29:26.000Z</time>
      </trkpt>
      <trkpt lat="43.51732" lon="6.37236">
        <ele>210</ele>
        <time>2021-11-24T15:29:27.000Z</time>
      </trkpt>
      <trkpt lat="43.51732" lon="6.37237">
        <ele>210</ele>
        <time>2021-11-24T15:29:28.000Z</time>
      </trkpt>
      <trkpt lat="43.51732" lon="6.37238">
        <ele>210</ele>
        <time>2021-11-24T15:29:29.000Z</time>
      </trkpt>
      <trkpt lat="43.51731" lon="6.37239">
        <ele>210</ele>
        <time>2021-11-24T15:29:30.000Z</time>
      </trkpt>
      <trkpt lat="43.51731" lon="6.3724">
        <ele>210</ele>
        <time>2021-11-24T15:29:31.000Z</time>
      </trkpt>
      <trkpt lat="43.5173" lon="6.37241">
        <ele>210</ele>
        <time>2021-11-24T15:29:32.000Z</time>
      </trkpt>
      <trkpt lat="43.5173" lon="6.37242">
        <ele>210</ele>
        <time>2021-11-24T15:29:33.000Z</time>
      </trkpt>
      <trkpt lat="43.51729" lon="6.37243">
        <ele>210</ele>
        <time>2021-11-24T15:29:34.000Z</time>
      </trkpt>
      <trkpt lat="43.51728" lon="6.37244">
        <ele>210</ele>
        <time>2021-11-24T15:29:35.000Z</time>
      </trkpt>
      <trkpt lat="43.51728" lon="6.37245">
        <ele>210</ele>
        <time>2021-11-24T15:29:36.000Z</time>
      </trkpt>
      <trkpt lat="43.51727" lon="6.37246">
        <ele>210</ele>
        <time>2021-11-24T15:29:37.000Z</time>
      </trkpt>
      <trkpt lat="43.51726" lon="6.37246">
        <ele>210</ele>
        <time>2021-11-24T15:29:38.000Z</time>
      </trkpt>
      <trkpt lat="43.51725" lon="6.37247">
        <ele>210</ele>
        <time>2021-11-24T15:29:39.000Z</time>
      </trkpt>
      <trkpt lat="43.51725" lon="6.37248">
        <ele>210</ele>
        <time>2021-11-24T15:29:40.000Z</time>
      </trkpt>
      <trkpt lat="43.51724" lon="6.3725">
        <ele>209</ele>
        <time>2021-11-24T15:29:41.000Z</time>
      </trkpt>
      <trkpt lat="43.51723" lon="6.3725">
        <ele>209</ele>
        <time>2021-11-24T15:29:42.000Z</time>
      </trkpt>
      <trkpt lat="43.51722" lon="6.37251">
        <ele>209</ele>
        <time>2021-11-24T15:29:43.000Z</time>
      </trkpt>
      <trkpt lat="43.51722" lon="6.37252">
        <ele>209</ele>
        <time>2021-11-24T15:29:44.000Z</time>
      </trkpt>
      <trkpt lat="43.51721" lon="6.37253">
        <ele>209</ele>
        <time>2021-11-24T15:29:45.000Z</time>
      </trkpt>
      <trkpt lat="43.5172" lon="6.37254">
        <ele>209</ele>
        <time>2021-11-24T15:29:46.000Z</time>
      </trkpt>
      <trkpt lat="43.5172" lon="6.37254">
        <ele>209</ele>
        <time>2021-11-24T15:29:47.000Z</time>
      </trkpt>
      <trkpt lat="43.51719" lon="6.37255">
        <ele>209</ele>
        <time>2021-11-24T15:29:48.000Z</time>
      </trkpt>
      <trkpt lat="43.51718" lon="6.37255">
        <ele>209</ele>
        <time>2021-11-24T15:29:49.000Z</time>
      </trkpt>
      <trkpt lat="43.51717" lon="6.37255">
        <ele>209</ele>
        <time>2021-11-24T15:29:50.000Z</time>
      </trkpt>
      <trkpt lat="43.51717" lon="6.37256">
        <ele>209</ele>
        <time>2021-11-24T15:29:51.000Z</time>
      </trkpt>
      <trkpt lat="43.51716" lon="6.37256">
        <ele>209</ele>
        <time>2021-11-24T15:29:52.000Z</time>
      </trkpt>
      <trkpt lat="43.51716" lon="6.37256">
        <ele>210</ele>
        <time>2021-11-24T15:29:53.000Z</time>
      </trkpt>
      <trkpt lat="43.51715" lon="6.37256">
        <ele>210</ele>
        <time>2021-11-24T15:29:54.000Z</time>
      </trkpt>
      <trkpt lat="43.51714" lon="6.37257">
        <ele>210</ele>
        <time>2021-11-24T15:29:55.000Z</time>
      </trkpt>
      <trkpt lat="43.51714" lon="6.37257">
        <ele>210</ele>
        <time>2021-11-24T15:29:56.000Z</time>
      </trkpt>
      <trkpt lat="43.51713" lon="6.37257">
        <ele>210</ele>
        <time>2021-11-24T15:29:57.000Z</time>
      </trkpt>
      <trkpt lat="43.51712" lon="6.37257">
        <ele>210</ele>
        <time>2021-11-24T15:29:58.000Z</time>
      </trkpt>
      <trkpt lat="43.51712" lon="6.37257">
        <ele>210</ele>
        <time>2021-11-24T15:29:59.000Z</time>
      </trkpt>
      <trkpt lat="43.51711" lon="6.37257">
        <ele>210</ele>
        <time>2021-11-24T15:30:00.000Z</time>
      </trkpt>
      <trkpt lat="43.5171" lon="6.37257">
        <ele>210</ele>
        <time>2021-11-24T15:30:01.000Z</time>
      </trkpt>
      <trkpt lat="43.5171" lon="6.37256">
        <ele>210</ele>
        <time>2021-11-24T15:30:02.000Z</time>
      </trkpt>
      <trkpt lat="43.5171" lon="6.37256">
        <ele>210</ele>
        <time>2021-11-24T15:30:03.000Z</time>
      </trkpt>
      <trkpt lat="43.5171" lon="6.37255">
        <ele>210</ele>
        <time>2021-11-24T15:30:04.000Z</time>
      </trkpt>
      <trkpt lat="43.51709" lon="6.37255">
        <ele>210</ele>
        <time>2021-11-24T15:30:05.000Z</time>
      </trkpt>
      <trkpt lat="43.51709" lon="6.37255">
        <ele>210</ele>
        <time>2021-11-24T15:30:06.000Z</time>
      </trkpt>
      <trkpt lat="43.51709" lon="6.37255">
        <ele>210</ele>
        <time>2021-11-24T15:30:07.000Z</time>
      </trkpt>
      <trkpt lat="43.51708" lon="6.37255">
        <ele>210</ele>
        <time>2021-11-24T15:30:08.000Z</time>
      </trkpt>
      <trkpt lat="43.51708" lon="6.37255">
        <ele>210</ele>
        <time>2021-11-24T15:30:09.000Z</time>
      </trkpt>
      <trkpt lat="43.51707" lon="6.37255">
        <ele>210</ele>
        <time>2021-11-24T15:30:10.000Z</time>
      </trkpt>
      <trkpt lat="43.51707" lon="6.37255">
        <ele>210</ele>
        <time>2021-11-24T15:30:11.000Z</time>
      </trkpt>
      <trkpt lat="43.51706" lon="6.37255">
        <ele>210</ele>
        <time>2021-11-24T15:30:12.000Z</time>
      </trkpt>
      <trkpt lat="43.51705" lon="6.37255">
        <ele>210</ele>
        <time>2021-11-24T15:30:13.000Z</time>
      </trkpt>
      <trkpt lat="43.51704" lon="6.37255">
        <ele>210</ele>
        <time>2021-11-24T15:30:14.000Z</time>
      </trkpt>
      <trkpt lat="43.51703" lon="6.37255">
        <ele>209</ele>
        <time>2021-11-24T15:30:15.000Z</time>
      </trkpt>
      <trkpt lat="43.51702" lon="6.37255">
        <ele>209</ele>
        <time>2021-11-24T15:30:16.000Z</time>
      </trkpt>
      <trkpt lat="43.51701" lon="6.37255">
        <ele>209</ele>
        <time>2021-11-24T15:30:17.000Z</time>
      </trkpt>
      <trkpt lat="43.51701" lon="6.37254">
        <ele>209</ele>
        <time>2021-11-24T15:30:18.000Z</time>
      </trkpt>
      <trkpt lat="43.517" lon="6.37254">
        <ele>209</ele>
        <time>2021-11-24T15:30:19.000Z</time>
      </trkpt>
      <trkpt lat="43.51699" lon="6.37254">
        <ele>209</ele>
        <time>2021-11-24T15:30:20.000Z</time>
      </trkpt>
      <trkpt lat="43.51698" lon="6.37254">
        <ele>209</ele>
        <time>2021-11-24T15:30:21.000Z</time>
      </trkpt>
      <trkpt lat="43.51698" lon="6.37255">
        <ele>209</ele>
        <time>2021-11-24T15:30:22.000Z</time>
      </trkpt>
      <trkpt lat="43.51697" lon="6.37255">
        <ele>209</ele>
        <time>2021-11-24T15:30:23.000Z</time>
      </trkpt>
      <trkpt lat="43.51697" lon="6.37256">
        <ele>209</ele>
        <time>2021-11-24T15:30:24.000Z</time>
      </trkpt>
      <trkpt lat="43.51697" lon="6.37255">
        <ele>209</ele>
        <time>2021-11-24T15:30:25.000Z</time>
      </trkpt>
      <trkpt lat="43.51697" lon="6.37255">
        <ele>209</ele>
        <time>2021-11-24T15:30:26.000Z</time>
      </trkpt>
      <trkpt lat="43.51696" lon="6.37255">
        <ele>209</ele>
        <time>2021-11-24T15:30:27.000Z</time>
      </trkpt>
      <trkpt lat="43.51696" lon="6.37255">
        <ele>209</ele>
        <time>2021-11-24T15:30:28.000Z</time>
      </trkpt>
      <trkpt lat="43.51696" lon="6.37255">
        <ele>209</ele>
        <time>2021-11-24T15:30:29.000Z</time>
      </trkpt>
      <trkpt lat="43.51695" lon="6.37255">
        <ele>209</ele>
        <time>2021-11-24T15:30:30.000Z</time>
      </trkpt>
      <trkpt lat="43.51694" lon="6.37254">
        <ele>209</ele>
        <time>2021-11-24T15:30:31.000Z</time>
      </trkpt>
      <trkpt lat="43.51694" lon="6.37254">
        <ele>209</ele>
        <time>2021-11-24T15:30:32.000Z</time>
      </trkpt>
      <trkpt lat="43.51693" lon="6.37254">
        <ele>209</ele>
        <time>2021-11-24T15:30:33.000Z</time>
      </trkpt>
      <trkpt lat="43.51692" lon="6.37254">
        <ele>209</ele>
        <time>2021-11-24T15:30:34.000Z</time>
      </trkpt>
      <trkpt lat="43.51692" lon="6.37254">
        <ele>209</ele>
        <time>2021-11-24T15:30:35.000Z</time>
      </trkpt>
      <trkpt lat="43.51691" lon="6.37253">
        <ele>209</ele>
        <time>2021-11-24T15:30:36.000Z</time>
      </trkpt>
      <trkpt lat="43.5169" lon="6.37253">
        <ele>209</ele>
        <time>2021-11-24T15:30:37.000Z</time>
      </trkpt>
      <trkpt lat="43.51689" lon="6.37253">
        <ele>209</ele>
        <time>2021-11-24T15:30:38.000Z</time>
      </trkpt>
      <trkpt lat="43.51688" lon="6.37253">
        <ele>209</ele>
        <time>2021-11-24T15:30:39.000Z</time>
      </trkpt>
      <trkpt lat="43.51687" lon="6.37253">
        <ele>209</ele>
        <time>2021-11-24T15:30:40.000Z</time>
      </trkpt>
      <trkpt lat="43.51686" lon="6.37252">
        <ele>209</ele>
        <time>2021-11-24T15:30:41.000Z</time>
      </trkpt>
      <trkpt lat="43.51685" lon="6.37252">
        <ele>209</ele>
        <time>2021-11-24T15:30:42.000Z</time>
      </trkpt>
      <trkpt lat="43.51685" lon="6.37252">
        <ele>209</ele>
        <time>2021-11-24T15:30:43.000Z</time>
      </trkpt>
      <trkpt lat="43.51684" lon="6.37253">
        <ele>209</ele>
        <time>2021-11-24T15:30:44.000Z</time>
      </trkpt>
      <trkpt lat="43.51682" lon="6.37253">
        <ele>209</ele>
        <time>2021-11-24T15:30:45.000Z</time>
      </trkpt>
      <trkpt lat="43.51681" lon="6.37253">
        <ele>209</ele>
        <time>2021-11-24T15:30:46.000Z</time>
      </trkpt>
      <trkpt lat="43.51681" lon="6.37253">
        <ele>209</ele>
        <time>2021-11-24T15:30:47.000Z</time>
      </trkpt>
      <trkpt lat="43.5168" lon="6.37254">
        <ele>208</ele>
        <time>2021-11-24T15:30:48.000Z</time>
      </trkpt>
      <trkpt lat="43.51679" lon="6.37255">
        <ele>208</ele>
        <time>2021-11-24T15:30:49.000Z</time>
      </trkpt>
      <trkpt lat="43.51678" lon="6.37256">
        <ele>208</ele>
        <time>2021-11-24T15:30:50.000Z</time>
      </trkpt>
      <trkpt lat="43.51677" lon="6.37257">
        <ele>208</ele>
        <time>2021-11-24T15:30:51.000Z</time>
      </trkpt>
      <trkpt lat="43.51676" lon="6.37257">
        <ele>208</ele>
        <time>2021-11-24T15:30:52.000Z</time>
      </trkpt>
      <trkpt lat="43.51675" lon="6.37258">
        <ele>208</ele>
        <time>2021-11-24T15:30:53.000Z</time>
      </trkpt>
      <trkpt lat="43.51673" lon="6.37258">
        <ele>208</ele>
        <time>2021-11-24T15:30:54.000Z</time>
      </trkpt>
      <trkpt lat="43.51672" lon="6.37259">
        <ele>208</ele>
        <time>2021-11-24T15:30:55.000Z</time>
      </trkpt>
      <trkpt lat="43.51671" lon="6.37259">
        <ele>208</ele>
        <time>2021-11-24T15:30:56.000Z</time>
      </trkpt>
      <trkpt lat="43.5167" lon="6.3726">
        <ele>208</ele>
        <time>2021-11-24T15:30:57.000Z</time>
      </trkpt>
      <trkpt lat="43.51669" lon="6.3726">
        <ele>208</ele>
        <time>2021-11-24T15:30:58.000Z</time>
      </trkpt>
      <trkpt lat="43.51668" lon="6.3726">
        <ele>208</ele>
        <time>2021-11-24T15:30:59.000Z</time>
      </trkpt>
      <trkpt lat="43.51667" lon="6.3726">
        <ele>208</ele>
        <time>2021-11-24T15:31:00.000Z</time>
      </trkpt>
      <trkpt lat="43.51666" lon="6.37261">
        <ele>208</ele>
        <time>2021-11-24T15:31:01.000Z</time>
      </trkpt>
      <trkpt lat="43.51665" lon="6.37261">
        <ele>208</ele>
        <time>2021-11-24T15:31:02.000Z</time>
      </trkpt>
      <trkpt lat="43.51664" lon="6.37261">
        <ele>208</ele>
        <time>2021-11-24T15:31:03.000Z</time>
      </trkpt>
      <trkpt lat="43.51663" lon="6.37262">
        <ele>208</ele>
        <time>2021-11-24T15:31:04.000Z</time>
      </trkpt>
      <trkpt lat="43.51662" lon="6.37262">
        <ele>208</ele>
        <time>2021-11-24T15:31:05.000Z</time>
      </trkpt>
      <trkpt lat="43.51661" lon="6.37262">
        <ele>209</ele>
        <time>2021-11-24T15:31:06.000Z</time>
      </trkpt>
      <trkpt lat="43.51661" lon="6.37262">
        <ele>209</ele>
        <time>2021-11-24T15:31:07.000Z</time>
      </trkpt>
      <trkpt lat="43.5166" lon="6.37262">
        <ele>209</ele>
        <time>2021-11-24T15:31:08.000Z</time>
      </trkpt>
      <trkpt lat="43.5166" lon="6.37262">
        <ele>209</ele>
        <time>2021-11-24T15:31:09.000Z</time>
      </trkpt>
      <trkpt lat="43.51659" lon="6.37262">
        <ele>209</ele>
        <time>2021-11-24T15:31:10.000Z</time>
      </trkpt>
      <trkpt lat="43.51658" lon="6.37262">
        <ele>209</ele>
        <time>2021-11-24T15:31:11.000Z</time>
      </trkpt>
      <trkpt lat="43.51658" lon="6.37263">
        <ele>209</ele>
        <time>2021-11-24T15:31:12.000Z</time>
      </trkpt>
      <trkpt lat="43.51657" lon="6.37263">
        <ele>209</ele>
        <time>2021-11-24T15:31:13.000Z</time>
      </trkpt>
      <trkpt lat="43.51657" lon="6.37263">
        <ele>209</ele>
        <time>2021-11-24T15:31:14.000Z</time>
      </trkpt>
      <trkpt lat="43.51657" lon="6.37263">
        <ele>209</ele>
        <time>2021-11-24T15:31:15.000Z</time>
      </trkpt>
      <trkpt lat="43.51657" lon="6.37263">
        <ele>209</ele>
        <time>2021-11-24T15:31:16.000Z</time>
      </trkpt>
      <trkpt lat="43.51657" lon="6.37263">
        <ele>209</ele>
        <time>2021-11-24T15:31:17.000Z</time>
      </trkpt>
      <trkpt lat="43.51656" lon="6.37263">
        <ele>209</ele>
        <time>2021-11-24T15:31:18.000Z</time>
      </trkpt>
      <trkpt lat="43.51656" lon="6.37264">
        <ele>209</ele>
        <time>2021-11-24T15:31:19.000Z</time>
      </trkpt>
      <trkpt lat="43.51656" lon="6.37264">
        <ele>209</ele>
        <time>2021-11-24T15:31:20.000Z</time>
      </trkpt>
      <trkpt lat="43.51656" lon="6.37265">
        <ele>209</ele>
        <time>2021-11-24T15:31:21.000Z</time>
      </trkpt>
      <trkpt lat="43.51656" lon="6.37266">
        <ele>209</ele>
        <time>2021-11-24T15:31:22.000Z</time>
      </trkpt>
      <trkpt lat="43.51656" lon="6.37267">
        <ele>209</ele>
        <time>2021-11-24T15:31:23.000Z</time>
      </trkpt>
      <trkpt lat="43.51656" lon="6.37267">
        <ele>209</ele>
        <time>2021-11-24T15:31:24.000Z</time>
      </trkpt>
      <trkpt lat="43.51656" lon="6.37268">
        <ele>209</ele>
        <time>2021-11-24T15:31:25.000Z</time>
      </trkpt>
      <trkpt lat="43.51656" lon="6.37268">
        <ele>209</ele>
        <time>2021-11-24T15:31:26.000Z</time>
      </trkpt>
      <trkpt lat="43.51656" lon="6.37268">
        <ele>209</ele>
        <time>2021-11-24T15:31:27.000Z</time>
      </trkpt>
      <trkpt lat="43.51656" lon="6.37269">
        <ele>209</ele>
        <time>2021-11-24T15:31:28.000Z</time>
      </trkpt>
      <trkpt lat="43.51655" lon="6.37269">
        <ele>209</ele>
        <time>2021-11-24T15:31:29.000Z</time>
      </trkpt>
      <trkpt lat="43.51655" lon="6.3727">
        <ele>209</ele>
        <time>2021-11-24T15:31:30.000Z</time>
      </trkpt>
      <trkpt lat="43.51654" lon="6.37271">
        <ele>210</ele>
        <time>2021-11-24T15:31:31.000Z</time>
      </trkpt>
      <trkpt lat="43.51654" lon="6.37271">
        <ele>210</ele>
        <time>2021-11-24T15:31:32.000Z</time>
      </trkpt>
      <trkpt lat="43.51653" lon="6.37272">
        <ele>210</ele>
        <time>2021-11-24T15:31:33.000Z</time>
      </trkpt>
      <trkpt lat="43.51652" lon="6.37273">
        <ele>210</ele>
        <time>2021-11-24T15:31:34.000Z</time>
      </trkpt>
      <trkpt lat="43.51652" lon="6.37275">
        <ele>210</ele>
        <time>2021-11-24T15:31:35.000Z</time>
      </trkpt>
      <trkpt lat="43.51651" lon="6.37275">
        <ele>210</ele>
        <time>2021-11-24T15:31:36.000Z</time>
      </trkpt>
      <trkpt lat="43.5165" lon="6.37276">
        <ele>210</ele>
        <time>2021-11-24T15:31:37.000Z</time>
      </trkpt>
      <trkpt lat="43.5165" lon="6.37277">
        <ele>210</ele>
        <time>2021-11-24T15:31:38.000Z</time>
      </trkpt>
      <trkpt lat="43.51649" lon="6.37278">
        <ele>210</ele>
        <time>2021-11-24T15:31:39.000Z</time>
      </trkpt>
      <trkpt lat="43.51648" lon="6.3728">
        <ele>210</ele>
        <time>2021-11-24T15:31:40.000Z</time>
      </trkpt>
      <trkpt lat="43.51647" lon="6.37281">
        <ele>210</ele>
        <time>2021-11-24T15:31:41.000Z</time>
      </trkpt>
      <trkpt lat="43.51647" lon="6.37283">
        <ele>210</ele>
        <time>2021-11-24T15:31:42.000Z</time>
      </trkpt>
      <trkpt lat="43.51646" lon="6.37285">
        <ele>210</ele>
        <time>2021-11-24T15:31:43.000Z</time>
      </trkpt>
      <trkpt lat="43.51646" lon="6.37288">
        <ele>211</ele>
        <time>2021-11-24T15:31:44.000Z</time>
      </trkpt>
      <trkpt lat="43.51645" lon="6.3729">
        <ele>211</ele>
        <time>2021-11-24T15:31:45.000Z</time>
      </trkpt>
      <trkpt lat="43.51645" lon="6.37292">
        <ele>210</ele>
        <time>2021-11-24T15:31:46.000Z</time>
      </trkpt>
      <trkpt lat="43.51644" lon="6.37294">
        <ele>210</ele>
        <time>2021-11-24T15:31:47.000Z</time>
      </trkpt>
      <trkpt lat="43.51643" lon="6.37295">
        <ele>210</ele>
        <time>2021-11-24T15:31:48.000Z</time>
      </trkpt>
      <trkpt lat="43.51642" lon="6.37296">
        <ele>209</ele>
        <time>2021-11-24T15:31:49.000Z</time>
      </trkpt>
      <trkpt lat="43.51642" lon="6.37297">
        <ele>209</ele>
        <time>2021-11-24T15:31:50.000Z</time>
      </trkpt>
      <trkpt lat="43.51641" lon="6.37297">
        <ele>209</ele>
        <time>2021-11-24T15:31:51.000Z</time>
      </trkpt>
      <trkpt lat="43.51641" lon="6.37298">
        <ele>209</ele>
        <time>2021-11-24T15:31:52.000Z</time>
      </trkpt>
      <trkpt lat="43.5164" lon="6.373">
        <ele>208</ele>
        <time>2021-11-24T15:31:53.000Z</time>
      </trkpt>
      <trkpt lat="43.51639" lon="6.37301">
        <ele>208</ele>
        <time>2021-11-24T15:31:54.000Z</time>
      </trkpt>
      <trkpt lat="43.51638" lon="6.37302">
        <ele>208</ele>
        <time>2021-11-24T15:31:55.000Z</time>
      </trkpt>
      <trkpt lat="43.51638" lon="6.37303">
        <ele>208</ele>
        <time>2021-11-24T15:31:56.000Z</time>
      </trkpt>
      <trkpt lat="43.51637" lon="6.37304">
        <ele>207</ele>
        <time>2021-11-24T15:31:57.000Z</time>
      </trkpt>
      <trkpt lat="43.51637" lon="6.37305">
        <ele>206</ele>
        <time>2021-11-24T15:31:58.000Z</time>
      </trkpt>
      <trkpt lat="43.51636" lon="6.37306">
        <ele>206</ele>
        <time>2021-11-24T15:31:59.000Z</time>
      </trkpt>
      <trkpt lat="43.51636" lon="6.37307">
        <ele>206</ele>
        <time>2021-11-24T15:32:00.000Z</time>
      </trkpt>
      <trkpt lat="43.51635" lon="6.37309">
        <ele>206</ele>
        <time>2021-11-24T15:32:01.000Z</time>
      </trkpt>
      <trkpt lat="43.51635" lon="6.3731">
        <ele>206</ele>
        <time>2021-11-24T15:32:02.000Z</time>
      </trkpt>
      <trkpt lat="43.51635" lon="6.37311">
        <ele>206</ele>
        <time>2021-11-24T15:32:03.000Z</time>
      </trkpt>
      <trkpt lat="43.51635" lon="6.37312">
        <ele>206</ele>
        <time>2021-11-24T15:32:04.000Z</time>
      </trkpt>
      <trkpt lat="43.51635" lon="6.37313">
        <ele>206</ele>
        <time>2021-11-24T15:32:05.000Z</time>
      </trkpt>
      <trkpt lat="43.51636" lon="6.37315">
        <ele>206</ele>
        <time>2021-11-24T15:32:06.000Z</time>
      </trkpt>
      <trkpt lat="43.51636" lon="6.37316">
        <ele>206</ele>
        <time>2021-11-24T15:32:07.000Z</time>
      </trkpt>
      <trkpt lat="43.51636" lon="6.37318">
        <ele>206</ele>
        <time>2021-11-24T15:32:08.000Z</time>
      </trkpt>
      <trkpt lat="43.51637" lon="6.3732">
        <ele>206</ele>
        <time>2021-11-24T15:32:09.000Z</time>
      </trkpt>
      <trkpt lat="43.51638" lon="6.3732">
        <ele>206</ele>
        <time>2021-11-24T15:32:10.000Z</time>
      </trkpt>
      <trkpt lat="43.51638" lon="6.37319">
        <ele>207</ele>
        <time>2021-11-24T15:32:11.000Z</time>
      </trkpt>
      <trkpt lat="43.51639" lon="6.37319">
        <ele>207</ele>
        <time>2021-11-24T15:32:12.000Z</time>
      </trkpt>
      <trkpt lat="43.51639" lon="6.37319">
        <ele>207</ele>
        <time>2021-11-24T15:32:13.000Z</time>
      </trkpt>
      <trkpt lat="43.5164" lon="6.37319">
        <ele>207</ele>
        <time>2021-11-24T15:32:14.000Z</time>
      </trkpt>
      <trkpt lat="43.5164" lon="6.3732">
        <ele>207</ele>
        <time>2021-11-24T15:32:15.000Z</time>
      </trkpt>
      <trkpt lat="43.5164" lon="6.3732">
        <ele>207</ele>
        <time>2021-11-24T15:32:16.000Z</time>
      </trkpt>
      <trkpt lat="43.5164" lon="6.3732">
        <ele>207</ele>
        <time>2021-11-24T15:32:17.000Z</time>
      </trkpt>
      <trkpt lat="43.51641" lon="6.3732">
        <ele>207</ele>
        <time>2021-11-24T15:32:18.000Z</time>
      </trkpt>
      <trkpt lat="43.51641" lon="6.37321">
        <ele>207</ele>
        <time>2021-11-24T15:32:19.000Z</time>
      </trkpt>
      <trkpt lat="43.51642" lon="6.37321">
        <ele>207</ele>
        <time>2021-11-24T15:32:20.000Z</time>
      </trkpt>
      <trkpt lat="43.51642" lon="6.37321">
        <ele>207</ele>
        <time>2021-11-24T15:32:21.000Z</time>
      </trkpt>
      <trkpt lat="43.51643" lon="6.3732">
        <ele>207</ele>
        <time>2021-11-24T15:32:22.000Z</time>
      </trkpt>
      <trkpt lat="43.51644" lon="6.37321">
        <ele>207</ele>
        <time>2021-11-24T15:32:23.000Z</time>
      </trkpt>
      <trkpt lat="43.51644" lon="6.37321">
        <ele>206</ele>
        <time>2021-11-24T15:32:24.000Z</time>
      </trkpt>
      <trkpt lat="43.51644" lon="6.37321">
        <ele>206</ele>
        <time>2021-11-24T15:32:25.000Z</time>
      </trkpt>
      <trkpt lat="43.51645" lon="6.37321">
        <ele>206</ele>
        <time>2021-11-24T15:32:26.000Z</time>
      </trkpt>
      <trkpt lat="43.51645" lon="6.37321">
        <ele>206</ele>
        <time>2021-11-24T15:32:27.000Z</time>
      </trkpt>
      <trkpt lat="43.51646" lon="6.37321">
        <ele>206</ele>
        <time>2021-11-24T15:32:28.000Z</time>
      </trkpt>
      <trkpt lat="43.51646" lon="6.37321">
        <ele>206</ele>
        <time>2021-11-24T15:32:29.000Z</time>
      </trkpt>
      <trkpt lat="43.51647" lon="6.37321">
        <ele>206</ele>
        <time>2021-11-24T15:32:30.000Z</time>
      </trkpt>
      <trkpt lat="43.51648" lon="6.37321">
        <ele>206</ele>
        <time>2021-11-24T15:32:31.000Z</time>
      </trkpt>
      <trkpt lat="43.51649" lon="6.37321">
        <ele>206</ele>
        <time>2021-11-24T15:32:32.000Z</time>
      </trkpt>
      <trkpt lat="43.51649" lon="6.37321">
        <ele>206</ele>
        <time>2021-11-24T15:32:33.000Z</time>
      </trkpt>
      <trkpt lat="43.5165" lon="6.37322">
        <ele>206</ele>
        <time>2021-11-24T15:32:34.000Z</time>
      </trkpt>
      <trkpt lat="43.5165" lon="6.37322">
        <ele>206</ele>
        <time>2021-11-24T15:32:35.000Z</time>
      </trkpt>
      <trkpt lat="43.51651" lon="6.37322">
        <ele>206</ele>
        <time>2021-11-24T15:32:36.000Z</time>
      </trkpt>
      <trkpt lat="43.51651" lon="6.37322">
        <ele>206</ele>
        <time>2021-11-24T15:32:37.000Z</time>
      </trkpt>
      <trkpt lat="43.51651" lon="6.37322">
        <ele>206</ele>
        <time>2021-11-24T15:32:38.000Z</time>
      </trkpt>
      <trkpt lat="43.51652" lon="6.37322">
        <ele>206</ele>
        <time>2021-11-24T15:32:39.000Z</time>
      </trkpt>
      <trkpt lat="43.51652" lon="6.37322">
        <ele>206</ele>
        <time>2021-11-24T15:32:40.000Z</time>
      </trkpt>
      <trkpt lat="43.51652" lon="6.37322">
        <ele>206</ele>
        <time>2021-11-24T15:32:41.000Z</time>
      </trkpt>
      <trkpt lat="43.51653" lon="6.37322">
        <ele>206</ele>
        <time>2021-11-24T15:32:42.000Z</time>
      </trkpt>
      <trkpt lat="43.51654" lon="6.37322">
        <ele>206</ele>
        <time>2021-11-24T15:32:43.000Z</time>
      </trkpt>
      <trkpt lat="43.51654" lon="6.37322">
        <ele>206</ele>
        <time>2021-11-24T15:32:44.000Z</time>
      </trkpt>
      <trkpt lat="43.51656" lon="6.37322">
        <ele>206</ele>
        <time>2021-11-24T15:32:45.000Z</time>
      </trkpt>
      <trkpt lat="43.51657" lon="6.37321">
        <ele>206</ele>
        <time>2021-11-24T15:32:46.000Z</time>
      </trkpt>
      <trkpt lat="43.51659" lon="6.3732">
        <ele>206</ele>
        <time>2021-11-24T15:32:47.000Z</time>
      </trkpt>
      <trkpt lat="43.51661" lon="6.37319">
        <ele>206</ele>
        <time>2021-11-24T15:32:48.000Z</time>
      </trkpt>
      <trkpt lat="43.51662" lon="6.37318">
        <ele>206</ele>
        <time>2021-11-24T15:32:49.000Z</time>
      </trkpt>
      <trkpt lat="43.51663" lon="6.37317">
        <ele>206</ele>
        <time>2021-11-24T15:32:50.000Z</time>
      </trkpt>
      <trkpt lat="43.51664" lon="6.37316">
        <ele>206</ele>
        <time>2021-11-24T15:32:51.000Z</time>
      </trkpt>
      <trkpt lat="43.51665" lon="6.37315">
        <ele>206</ele>
        <time>2021-11-24T15:32:52.000Z</time>
      </trkpt>
      <trkpt lat="43.51666" lon="6.37314">
        <ele>206</ele>
        <time>2021-11-24T15:32:53.000Z</time>
      </trkpt>
      <trkpt lat="43.51667" lon="6.37314">
        <ele>206</ele>
        <time>2021-11-24T15:32:54.000Z</time>
      </trkpt>
      <trkpt lat="43.51668" lon="6.37313">
        <ele>207</ele>
        <time>2021-11-24T15:32:55.000Z</time>
      </trkpt>
      <trkpt lat="43.51669" lon="6.37312">
        <ele>208</ele>
        <time>2021-11-24T15:32:56.000Z</time>
      </trkpt>
      <trkpt lat="43.5167" lon="6.37311">
        <ele>208</ele>
        <time>2021-11-24T15:32:57.000Z</time>
      </trkpt>
      <trkpt lat="43.51671" lon="6.37311">
        <ele>209</ele>
        <time>2021-11-24T15:32:58.000Z</time>
      </trkpt>
      <trkpt lat="43.51671" lon="6.37311">
        <ele>209</ele>
        <time>2021-11-24T15:32:59.000Z</time>
      </trkpt>
      <trkpt lat="43.51672" lon="6.3731">
        <ele>209</ele>
        <time>2021-11-24T15:33:00.000Z</time>
      </trkpt>
      <trkpt lat="43.51672" lon="6.3731">
        <ele>209</ele>
        <time>2021-11-24T15:33:01.000Z</time>
      </trkpt>
      <trkpt lat="43.51673" lon="6.3731">
        <ele>210</ele>
        <time>2021-11-24T15:33:02.000Z</time>
      </trkpt>
      <trkpt lat="43.51673" lon="6.3731">
        <ele>210</ele>
        <time>2021-11-24T15:33:03.000Z</time>
      </trkpt>
      <trkpt lat="43.51674" lon="6.37309">
        <ele>210</ele>
        <time>2021-11-24T15:33:04.000Z</time>
      </trkpt>
      <trkpt lat="43.51675" lon="6.37309">
        <ele>210</ele>
        <time>2021-11-24T15:33:05.000Z</time>
      </trkpt>
      <trkpt lat="43.51677" lon="6.37309">
        <ele>210</ele>
        <time>2021-11-24T15:33:06.000Z</time>
      </trkpt>
      <trkpt lat="43.5168" lon="6.3731">
        <ele>210</ele>
        <time>2021-11-24T15:33:07.000Z</time>
      </trkpt>
      <trkpt lat="43.51682" lon="6.3731">
        <ele>210</ele>
        <time>2021-11-24T15:33:08.000Z</time>
      </trkpt>
      <trkpt lat="43.51684" lon="6.3731">
        <ele>211</ele>
        <time>2021-11-24T15:33:09.000Z</time>
      </trkpt>
      <trkpt lat="43.51686" lon="6.37311">
        <ele>211</ele>
        <time>2021-11-24T15:33:10.000Z</time>
      </trkpt>
      <trkpt lat="43.51687" lon="6.37311">
        <ele>211</ele>
        <time>2021-11-24T15:33:11.000Z</time>
      </trkpt>
      <trkpt lat="43.51688" lon="6.37311">
        <ele>213</ele>
        <time>2021-11-24T15:33:12.000Z</time>
      </trkpt>
      <trkpt lat="43.51688" lon="6.37311">
        <ele>213</ele>
        <time>2021-11-24T15:33:13.000Z</time>
      </trkpt>
      <trkpt lat="43.51689" lon="6.37311">
        <ele>213</ele>
        <time>2021-11-24T15:33:14.000Z</time>
      </trkpt>
      <trkpt lat="43.5169" lon="6.37311">
        <ele>214</ele>
        <time>2021-11-24T15:33:15.000Z</time>
      </trkpt>
      <trkpt lat="43.5169" lon="6.37312">
        <ele>214</ele>
        <time>2021-11-24T15:33:16.000Z</time>
      </trkpt>
      <trkpt lat="43.51691" lon="6.37312">
        <ele>214</ele>
        <time>2021-11-24T15:33:17.000Z</time>
      </trkpt>
      <trkpt lat="43.51692" lon="6.37312">
        <ele>214</ele>
        <time>2021-11-24T15:33:18.000Z</time>
      </trkpt>
      <trkpt lat="43.51693" lon="6.37312">
        <ele>214</ele>
        <time>2021-11-24T15:33:19.000Z</time>
      </trkpt>
      <trkpt lat="43.51694" lon="6.37313">
        <ele>214</ele>
        <time>2021-11-24T15:33:20.000Z</time>
      </trkpt>
      <trkpt lat="43.51695" lon="6.37313">
        <ele>214</ele>
        <time>2021-11-24T15:33:21.000Z</time>
      </trkpt>
      <trkpt lat="43.51696" lon="6.37313">
        <ele>214</ele>
        <time>2021-11-24T15:33:22.000Z</time>
      </trkpt>
      <trkpt lat="43.51697" lon="6.37313">
        <ele>215</ele>
        <time>2021-11-24T15:33:23.000Z</time>
      </trkpt>
      <trkpt lat="43.51698" lon="6.37313">
        <ele>215</ele>
        <time>2021-11-24T15:33:24.000Z</time>
      </trkpt>
      <trkpt lat="43.517" lon="6.37314">
        <ele>215</ele>
        <time>2021-11-24T15:33:25.000Z</time>
      </trkpt>
      <trkpt lat="43.51701" lon="6.37314">
        <ele>215</ele>
        <time>2021-11-24T15:33:26.000Z</time>
      </trkpt>
      <trkpt lat="43.51701" lon="6.37314">
        <ele>215</ele>
        <time>2021-11-24T15:33:27.000Z</time>
      </trkpt>
      <trkpt lat="43.51702" lon="6.37314">
        <ele>215</ele>
        <time>2021-11-24T15:33:28.000Z</time>
      </trkpt>
      <trkpt lat="43.51702" lon="6.37315">
        <ele>215</ele>
        <time>2021-11-24T15:33:29.000Z</time>
      </trkpt>
      <trkpt lat="43.51703" lon="6.37315">
        <ele>215</ele>
        <time>2021-11-24T15:33:30.000Z</time>
      </trkpt>
      <trkpt lat="43.51703" lon="6.37315">
        <ele>215</ele>
        <time>2021-11-24T15:33:31.000Z</time>
      </trkpt>
      <trkpt lat="43.51704" lon="6.37315">
        <ele>215</ele>
        <time>2021-11-24T15:33:32.000Z</time>
      </trkpt>
      <trkpt lat="43.51705" lon="6.37315">
        <ele>215</ele>
        <time>2021-11-24T15:33:33.000Z</time>
      </trkpt>
      <trkpt lat="43.51705" lon="6.37316">
        <ele>215</ele>
        <time>2021-11-24T15:33:34.000Z</time>
      </trkpt>
      <trkpt lat="43.51706" lon="6.37316">
        <ele>215</ele>
        <time>2021-11-24T15:33:35.000Z</time>
      </trkpt>
      <trkpt lat="43.51707" lon="6.37316">
        <ele>215</ele>
        <time>2021-11-24T15:33:36.000Z</time>
      </trkpt>
      <trkpt lat="43.51708" lon="6.37316">
        <ele>215</ele>
        <time>2021-11-24T15:33:37.000Z</time>
      </trkpt>
      <trkpt lat="43.51708" lon="6.37317">
        <ele>215</ele>
        <time>2021-11-24T15:33:38.000Z</time>
      </trkpt>
      <trkpt lat="43.51709" lon="6.37317">
        <ele>215</ele>
        <time>2021-11-24T15:33:39.000Z</time>
      </trkpt>
      <trkpt lat="43.5171" lon="6.37318">
        <ele>215</ele>
        <time>2021-11-24T15:33:40.000Z</time>
      </trkpt>
      <trkpt lat="43.51711" lon="6.37318">
        <ele>215</ele>
        <time>2021-11-24T15:33:41.000Z</time>
      </trkpt>
      <trkpt lat="43.51712" lon="6.37319">
        <ele>215</ele>
        <time>2021-11-24T15:33:42.000Z</time>
      </trkpt>
      <trkpt lat="43.51713" lon="6.3732">
        <ele>215</ele>
        <time>2021-11-24T15:33:43.000Z</time>
      </trkpt>
      <trkpt lat="43.51714" lon="6.3732">
        <ele>216</ele>
        <time>2021-11-24T15:33:44.000Z</time>
      </trkpt>
      <trkpt lat="43.51715" lon="6.37321">
        <ele>216</ele>
        <time>2021-11-24T15:33:45.000Z</time>
      </trkpt>
      <trkpt lat="43.51715" lon="6.37321">
        <ele>216</ele>
        <time>2021-11-24T15:33:46.000Z</time>
      </trkpt>
      <trkpt lat="43.51716" lon="6.37322">
        <ele>216</ele>
        <time>2021-11-24T15:33:47.000Z</time>
      </trkpt>
      <trkpt lat="43.51717" lon="6.37322">
        <ele>216</ele>
        <time>2021-11-24T15:33:48.000Z</time>
      </trkpt>
      <trkpt lat="43.51718" lon="6.37323">
        <ele>216</ele>
        <time>2021-11-24T15:33:49.000Z</time>
      </trkpt>
      <trkpt lat="43.51719" lon="6.37324">
        <ele>216</ele>
        <time>2021-11-24T15:33:50.000Z</time>
      </trkpt>
      <trkpt lat="43.5172" lon="6.37325">
        <ele>216</ele>
        <time>2021-11-24T15:33:51.000Z</time>
      </trkpt>
      <trkpt lat="43.51722" lon="6.37326">
        <ele>216</ele>
        <time>2021-11-24T15:33:52.000Z</time>
      </trkpt>
      <trkpt lat="43.51722" lon="6.37326">
        <ele>217</ele>
        <time>2021-11-24T15:33:53.000Z</time>
      </trkpt>
      <trkpt lat="43.51723" lon="6.37326">
        <ele>218</ele>
        <time>2021-11-24T15:33:54.000Z</time>
      </trkpt>
      <trkpt lat="43.51723" lon="6.37327">
        <ele>218</ele>
        <time>2021-11-24T15:33:55.000Z</time>
      </trkpt>
      <trkpt lat="43.51723" lon="6.37327">
        <ele>218</ele>
        <time>2021-11-24T15:33:56.000Z</time>
      </trkpt>
      <trkpt lat="43.51724" lon="6.37327">
        <ele>218</ele>
        <time>2021-11-24T15:33:57.000Z</time>
      </trkpt>
      <trkpt lat="43.51724" lon="6.37328">
        <ele>218</ele>
        <time>2021-11-24T15:33:58.000Z</time>
      </trkpt>
      <trkpt lat="43.51725" lon="6.37328">
        <ele>219</ele>
        <time>2021-11-24T15:33:59.000Z</time>
      </trkpt>
      <trkpt lat="43.51727" lon="6.3733">
        <ele>219</ele>
        <time>2021-11-24T15:34:00.000Z</time>
      </trkpt>
      <trkpt lat="43.51729" lon="6.37331">
        <ele>219</ele>
        <time>2021-11-24T15:34:01.000Z</time>
      </trkpt>
      <trkpt lat="43.5173" lon="6.37331">
        <ele>219</ele>
        <time>2021-11-24T15:34:02.000Z</time>
      </trkpt>
      <trkpt lat="43.5173" lon="6.37332">
        <ele>219</ele>
        <time>2021-11-24T15:34:03.000Z</time>
      </trkpt>
      <trkpt lat="43.51731" lon="6.37332">
        <ele>220</ele>
        <time>2021-11-24T15:34:04.000Z</time>
      </trkpt>
      <trkpt lat="43.51731" lon="6.37332">
        <ele>220</ele>
        <time>2021-11-24T15:34:05.000Z</time>
      </trkpt>
      <trkpt lat="43.51732" lon="6.37332">
        <ele>220</ele>
        <time>2021-11-24T15:34:06.000Z</time>
      </trkpt>
      <trkpt lat="43.51732" lon="6.37333">
        <ele>222</ele>
        <time>2021-11-24T15:34:07.000Z</time>
      </trkpt>
      <trkpt lat="43.51733" lon="6.37333">
        <ele>223</ele>
        <time>2021-11-24T15:34:08.000Z</time>
      </trkpt>
      <trkpt lat="43.51734" lon="6.37333">
        <ele>223</ele>
        <time>2021-11-24T15:34:09.000Z</time>
      </trkpt>
      <trkpt lat="43.51734" lon="6.37334">
        <ele>223</ele>
        <time>2021-11-24T15:34:10.000Z</time>
      </trkpt>
      <trkpt lat="43.51735" lon="6.37334">
        <ele>223</ele>
        <time>2021-11-24T15:34:11.000Z</time>
      </trkpt>
      <trkpt lat="43.51736" lon="6.37334">
        <ele>223</ele>
        <time>2021-11-24T15:34:12.000Z</time>
      </trkpt>
      <trkpt lat="43.51737" lon="6.37335">
        <ele>223</ele>
        <time>2021-11-24T15:34:13.000Z</time>
      </trkpt>
      <trkpt lat="43.51739" lon="6.37335">
        <ele>223</ele>
        <time>2021-11-24T15:34:14.000Z</time>
      </trkpt>
      <trkpt lat="43.5174" lon="6.37335">
        <ele>223</ele>
        <time>2021-11-24T15:34:15.000Z</time>
      </trkpt>
      <trkpt lat="43.51741" lon="6.37336">
        <ele>223</ele>
        <time>2021-11-24T15:34:16.000Z</time>
      </trkpt>
      <trkpt lat="43.51743" lon="6.37336">
        <ele>223</ele>
        <time>2021-11-24T15:34:17.000Z</time>
      </trkpt>
      <trkpt lat="43.51745" lon="6.37336">
        <ele>223</ele>
        <time>2021-11-24T15:34:18.000Z</time>
      </trkpt>
      <trkpt lat="43.51747" lon="6.37335">
        <ele>223</ele>
        <time>2021-11-24T15:34:19.000Z</time>
      </trkpt>
      <trkpt lat="43.51749" lon="6.37335">
        <ele>223</ele>
        <time>2021-11-24T15:34:20.000Z</time>
      </trkpt>
      <trkpt lat="43.5175" lon="6.37335">
        <ele>223</ele>
        <time>2021-11-24T15:34:21.000Z</time>
      </trkpt>
      <trkpt lat="43.51751" lon="6.37335">
        <ele>224</ele>
        <time>2021-11-24T15:34:22.000Z</time>
      </trkpt>
      <trkpt lat="43.51751" lon="6.37335">
        <ele>224</ele>
        <time>2021-11-24T15:34:23.000Z</time>
      </trkpt>
      <trkpt lat="43.51752" lon="6.37335">
        <ele>224</ele>
        <time>2021-11-24T15:34:24.000Z</time>
      </trkpt>
      <trkpt lat="43.51752" lon="6.37335">
        <ele>224</ele>
        <time>2021-11-24T15:34:25.000Z</time>
      </trkpt>
      <trkpt lat="43.51752" lon="6.37335">
        <ele>224</ele>
        <time>2021-11-24T15:34:26.000Z</time>
      </trkpt>
      <trkpt lat="43.51753" lon="6.37335">
        <ele>224</ele>
        <time>2021-11-24T15:34:27.000Z</time>
      </trkpt>
      <trkpt lat="43.51754" lon="6.37335">
        <ele>225</ele>
        <time>2021-11-24T15:34:28.000Z</time>
      </trkpt>
      <trkpt lat="43.51754" lon="6.37336">
        <ele>225</ele>
        <time>2021-11-24T15:34:29.000Z</time>
      </trkpt>
      <trkpt lat="43.51755" lon="6.37336">
        <ele>225</ele>
        <time>2021-11-24T15:34:30.000Z</time>
      </trkpt>
      <trkpt lat="43.51755" lon="6.37337">
        <ele>225</ele>
        <time>2021-11-24T15:34:31.000Z</time>
      </trkpt>
      <trkpt lat="43.51755" lon="6.37337">
        <ele>225</ele>
        <time>2021-11-24T15:34:32.000Z</time>
      </trkpt>
      <trkpt lat="43.51756" lon="6.37338">
        <ele>225</ele>
        <time>2021-11-24T15:34:33.000Z</time>
      </trkpt>
      <trkpt lat="43.51756" lon="6.3734">
        <ele>225</ele>
        <time>2021-11-24T15:34:34.000Z</time>
      </trkpt>
      <trkpt lat="43.51756" lon="6.37341">
        <ele>225</ele>
        <time>2021-11-24T15:34:35.000Z</time>
      </trkpt>
      <trkpt lat="43.51756" lon="6.37344">
        <ele>225</ele>
        <time>2021-11-24T15:34:36.000Z</time>
      </trkpt>
      <trkpt lat="43.51756" lon="6.37347">
        <ele>225</ele>
        <time>2021-11-24T15:34:37.000Z</time>
      </trkpt>
      <trkpt lat="43.51756" lon="6.3735">
        <ele>226</ele>
        <time>2021-11-24T15:34:38.000Z</time>
      </trkpt>
      <trkpt lat="43.51756" lon="6.37351">
        <ele>226</ele>
        <time>2021-11-24T15:34:39.000Z</time>
      </trkpt>
      <trkpt lat="43.51755" lon="6.37352">
        <ele>226</ele>
        <time>2021-11-24T15:34:40.000Z</time>
      </trkpt>
      <trkpt lat="43.51755" lon="6.37354">
        <ele>226</ele>
        <time>2021-11-24T15:34:41.000Z</time>
      </trkpt>
      <trkpt lat="43.51755" lon="6.37355">
        <ele>226</ele>
        <time>2021-11-24T15:34:42.000Z</time>
      </trkpt>
      <trkpt lat="43.51754" lon="6.37356">
        <ele>226</ele>
        <time>2021-11-24T15:34:43.000Z</time>
      </trkpt>
      <trkpt lat="43.51754" lon="6.37357">
        <ele>226</ele>
        <time>2021-11-24T15:34:44.000Z</time>
      </trkpt>
      <trkpt lat="43.51753" lon="6.37358">
        <ele>226</ele>
        <time>2021-11-24T15:34:45.000Z</time>
      </trkpt>
      <trkpt lat="43.51753" lon="6.37359">
        <ele>226</ele>
        <time>2021-11-24T15:34:46.000Z</time>
      </trkpt>
      <trkpt lat="43.51752" lon="6.3736">
        <ele>226</ele>
        <time>2021-11-24T15:34:47.000Z</time>
      </trkpt>
      <trkpt lat="43.51752" lon="6.37361">
        <ele>226</ele>
        <time>2021-11-24T15:34:48.000Z</time>
      </trkpt>
      <trkpt lat="43.51752" lon="6.37362">
        <ele>226</ele>
        <time>2021-11-24T15:34:49.000Z</time>
      </trkpt>
      <trkpt lat="43.51751" lon="6.37363">
        <ele>226</ele>
        <time>2021-11-24T15:34:50.000Z</time>
      </trkpt>
      <trkpt lat="43.51751" lon="6.37363">
        <ele>226</ele>
        <time>2021-11-24T15:34:51.000Z</time>
      </trkpt>
      <trkpt lat="43.51751" lon="6.37363">
        <ele>226</ele>
        <time>2021-11-24T15:34:52.000Z</time>
      </trkpt>
      <trkpt lat="43.51751" lon="6.37363">
        <ele>226</ele>
        <time>2021-11-24T15:34:53.000Z</time>
      </trkpt>
      <trkpt lat="43.51751" lon="6.37364">
        <ele>226</ele>
        <time>2021-11-24T15:34:54.000Z</time>
      </trkpt>
      <trkpt lat="43.51751" lon="6.37364">
        <ele>226</ele>
        <time>2021-11-24T15:34:55.000Z</time>
      </trkpt>
      <trkpt lat="43.51751" lon="6.37364">
        <ele>226</ele>
        <time>2021-11-24T15:34:56.000Z</time>
      </trkpt>
      <trkpt lat="43.51751" lon="6.37364">
        <ele>226</ele>
        <time>2021-11-24T15:34:57.000Z</time>
      </trkpt>
      <trkpt lat="43.5175" lon="6.37364">
        <ele>226</ele>
        <time>2021-11-24T15:34:58.000Z</time>
      </trkpt>
      <trkpt lat="43.5175" lon="6.37365">
        <ele>226</ele>
        <time>2021-11-24T15:34:59.000Z</time>
      </trkpt>
      <trkpt lat="43.5175" lon="6.37365">
        <ele>226</ele>
        <time>2021-11-24T15:35:00.000Z</time>
      </trkpt>
      <trkpt lat="43.5175" lon="6.37366">
        <ele>226</ele>
        <time>2021-11-24T15:35:01.000Z</time>
      </trkpt>
      <trkpt lat="43.51749" lon="6.37367">
        <ele>226</ele>
        <time>2021-11-24T15:35:02.000Z</time>
      </trkpt>
      <trkpt lat="43.51749" lon="6.37368">
        <ele>226</ele>
        <time>2021-11-24T15:35:03.000Z</time>
      </trkpt>
      <trkpt lat="43.51748" lon="6.37369">
        <ele>226</ele>
        <time>2021-11-24T15:35:04.000Z</time>
      </trkpt>
      <trkpt lat="43.51747" lon="6.37369">
        <ele>226</ele>
        <time>2021-11-24T15:35:05.000Z</time>
      </trkpt>
      <trkpt lat="43.51747" lon="6.3737">
        <ele>226</ele>
        <time>2021-11-24T15:35:06.000Z</time>
      </trkpt>
      <trkpt lat="43.51746" lon="6.37371">
        <ele>226</ele>
        <time>2021-11-24T15:35:07.000Z</time>
      </trkpt>
      <trkpt lat="43.51746" lon="6.37372">
        <ele>226</ele>
        <time>2021-11-24T15:35:08.000Z</time>
      </trkpt>
      <trkpt lat="43.51744" lon="6.37374">
        <ele>226</ele>
        <time>2021-11-24T15:35:09.000Z</time>
      </trkpt>
      <trkpt lat="43.51743" lon="6.37375">
        <ele>226</ele>
        <time>2021-11-24T15:35:10.000Z</time>
      </trkpt>
      <trkpt lat="43.51742" lon="6.37377">
        <ele>226</ele>
        <time>2021-11-24T15:35:11.000Z</time>
      </trkpt>
      <trkpt lat="43.51742" lon="6.37378">
        <ele>226</ele>
        <time>2021-11-24T15:35:12.000Z</time>
      </trkpt>
      <trkpt lat="43.51741" lon="6.37379">
        <ele>226</ele>
        <time>2021-11-24T15:35:13.000Z</time>
      </trkpt>
      <trkpt lat="43.51741" lon="6.3738">
        <ele>226</ele>
        <time>2021-11-24T15:35:14.000Z</time>
      </trkpt>
      <trkpt lat="43.5174" lon="6.37381">
        <ele>226</ele>
        <time>2021-11-24T15:35:15.000Z</time>
      </trkpt>
      <trkpt lat="43.5174" lon="6.37381">
        <ele>226</ele>
        <time>2021-11-24T15:35:16.000Z</time>
      </trkpt>
      <trkpt lat="43.5174" lon="6.37382">
        <ele>226</ele>
        <time>2021-11-24T15:35:17.000Z</time>
      </trkpt>
      <trkpt lat="43.5174" lon="6.37382">
        <ele>226</ele>
        <time>2021-11-24T15:35:18.000Z</time>
      </trkpt>
      <trkpt lat="43.5174" lon="6.37383">
        <ele>226</ele>
        <time>2021-11-24T15:35:19.000Z</time>
      </trkpt>
      <trkpt lat="43.5174" lon="6.37384">
        <ele>226</ele>
        <time>2021-11-24T15:35:20.000Z</time>
      </trkpt>
      <trkpt lat="43.51739" lon="6.37385">
        <ele>225</ele>
        <time>2021-11-24T15:35:21.000Z</time>
      </trkpt>
      <trkpt lat="43.51737" lon="6.37386">
        <ele>225</ele>
        <time>2021-11-24T15:35:22.000Z</time>
      </trkpt>
      <trkpt lat="43.51736" lon="6.37387">
        <ele>225</ele>
        <time>2021-11-24T15:35:23.000Z</time>
      </trkpt>
      <trkpt lat="43.51734" lon="6.37387">
        <ele>225</ele>
        <time>2021-11-24T15:35:24.000Z</time>
      </trkpt>
      <trkpt lat="43.51733" lon="6.37387">
        <ele>225</ele>
        <time>2021-11-24T15:35:25.000Z</time>
      </trkpt>
      <trkpt lat="43.51732" lon="6.37387">
        <ele>225</ele>
        <time>2021-11-24T15:35:26.000Z</time>
      </trkpt>
      <trkpt lat="43.51731" lon="6.37388">
        <ele>225</ele>
        <time>2021-11-24T15:35:27.000Z</time>
      </trkpt>
      <trkpt lat="43.5173" lon="6.37388">
        <ele>225</ele>
        <time>2021-11-24T15:35:28.000Z</time>
      </trkpt>
      <trkpt lat="43.51729" lon="6.37388">
        <ele>226</ele>
        <time>2021-11-24T15:35:29.000Z</time>
      </trkpt>
      <trkpt lat="43.51728" lon="6.37389">
        <ele>226</ele>
        <time>2021-11-24T15:35:30.000Z</time>
      </trkpt>
      <trkpt lat="43.51727" lon="6.3739">
        <ele>226</ele>
        <time>2021-11-24T15:35:31.000Z</time>
      </trkpt>
      <trkpt lat="43.51726" lon="6.37391">
        <ele>226</ele>
        <time>2021-11-24T15:35:32.000Z</time>
      </trkpt>
      <trkpt lat="43.51725" lon="6.37392">
        <ele>226</ele>
        <time>2021-11-24T15:35:33.000Z</time>
      </trkpt>
      <trkpt lat="43.51724" lon="6.37393">
        <ele>226</ele>
        <time>2021-11-24T15:35:34.000Z</time>
      </trkpt>
      <trkpt lat="43.51723" lon="6.37395">
        <ele>226</ele>
        <time>2021-11-24T15:35:35.000Z</time>
      </trkpt>
      <trkpt lat="43.51722" lon="6.37396">
        <ele>226</ele>
        <time>2021-11-24T15:35:36.000Z</time>
      </trkpt>
      <trkpt lat="43.51721" lon="6.37397">
        <ele>227</ele>
        <time>2021-11-24T15:35:37.000Z</time>
      </trkpt>
      <trkpt lat="43.51721" lon="6.37399">
        <ele>227</ele>
        <time>2021-11-24T15:35:38.000Z</time>
      </trkpt>
      <trkpt lat="43.5172" lon="6.37401">
        <ele>227</ele>
        <time>2021-11-24T15:35:39.000Z</time>
      </trkpt>
      <trkpt lat="43.5172" lon="6.37402">
        <ele>227</ele>
        <time>2021-11-24T15:35:40.000Z</time>
      </trkpt>
      <trkpt lat="43.51719" lon="6.37403">
        <ele>227</ele>
        <time>2021-11-24T15:35:41.000Z</time>
      </trkpt>
      <trkpt lat="43.51719" lon="6.37405">
        <ele>227</ele>
        <time>2021-11-24T15:35:42.000Z</time>
      </trkpt>
      <trkpt lat="43.51718" lon="6.37407">
        <ele>227</ele>
        <time>2021-11-24T15:35:43.000Z</time>
      </trkpt>
      <trkpt lat="43.51718" lon="6.37408">
        <ele>228</ele>
        <time>2021-11-24T15:35:44.000Z</time>
      </trkpt>
      <trkpt lat="43.51717" lon="6.3741">
        <ele>228</ele>
        <time>2021-11-24T15:35:45.000Z</time>
      </trkpt>
      <trkpt lat="43.51717" lon="6.37411">
        <ele>228</ele>
        <time>2021-11-24T15:35:46.000Z</time>
      </trkpt>
      <trkpt lat="43.51717" lon="6.37413">
        <ele>228</ele>
        <time>2021-11-24T15:35:47.000Z</time>
      </trkpt>
      <trkpt lat="43.51717" lon="6.37414">
        <ele>228</ele>
        <time>2021-11-24T15:35:48.000Z</time>
      </trkpt>
      <trkpt lat="43.51716" lon="6.37416">
        <ele>228</ele>
        <time>2021-11-24T15:35:49.000Z</time>
      </trkpt>
      <trkpt lat="43.51716" lon="6.37417">
        <ele>228</ele>
        <time>2021-11-24T15:35:50.000Z</time>
      </trkpt>
      <trkpt lat="43.51716" lon="6.37419">
        <ele>227</ele>
        <time>2021-11-24T15:35:51.000Z</time>
      </trkpt>
      <trkpt lat="43.51715" lon="6.3742">
        <ele>227</ele>
        <time>2021-11-24T15:35:52.000Z</time>
      </trkpt>
      <trkpt lat="43.51715" lon="6.37422">
        <ele>227</ele>
        <time>2021-11-24T15:35:53.000Z</time>
      </trkpt>
      <trkpt lat="43.51715" lon="6.37423">
        <ele>227</ele>
        <time>2021-11-24T15:35:54.000Z</time>
      </trkpt>
      <trkpt lat="43.51714" lon="6.37424">
        <ele>227</ele>
        <time>2021-11-24T15:35:55.000Z</time>
      </trkpt>
      <trkpt lat="43.51714" lon="6.37426">
        <ele>227</ele>
        <time>2021-11-24T15:35:56.000Z</time>
      </trkpt>
      <trkpt lat="43.51714" lon="6.37427">
        <ele>226</ele>
        <time>2021-11-24T15:35:57.000Z</time>
      </trkpt>
      <trkpt lat="43.51713" lon="6.37429">
        <ele>226</ele>
        <time>2021-11-24T15:35:58.000Z</time>
      </trkpt>
      <trkpt lat="43.51713" lon="6.37431">
        <ele>226</ele>
        <time>2021-11-24T15:35:59.000Z</time>
      </trkpt>
      <trkpt lat="43.51713" lon="6.37433">
        <ele>226</ele>
        <time>2021-11-24T15:36:00.000Z</time>
      </trkpt>
      <trkpt lat="43.51712" lon="6.37435">
        <ele>226</ele>
        <time>2021-11-24T15:36:01.000Z</time>
      </trkpt>
      <trkpt lat="43.51712" lon="6.37437">
        <ele>226</ele>
        <time>2021-11-24T15:36:02.000Z</time>
      </trkpt>
      <trkpt lat="43.51711" lon="6.37439">
        <ele>226</ele>
        <time>2021-11-24T15:36:03.000Z</time>
      </trkpt>
      <trkpt lat="43.51711" lon="6.3744">
        <ele>226</ele>
        <time>2021-11-24T15:36:04.000Z</time>
      </trkpt>
      <trkpt lat="43.51711" lon="6.37441">
        <ele>226</ele>
        <time>2021-11-24T15:36:05.000Z</time>
      </trkpt>
      <trkpt lat="43.51711" lon="6.37443">
        <ele>226</ele>
        <time>2021-11-24T15:36:06.000Z</time>
      </trkpt>
      <trkpt lat="43.5171" lon="6.37444">
        <ele>226</ele>
        <time>2021-11-24T15:36:07.000Z</time>
      </trkpt>
      <trkpt lat="43.5171" lon="6.37446">
        <ele>225</ele>
        <time>2021-11-24T15:36:08.000Z</time>
      </trkpt>
      <trkpt lat="43.5171" lon="6.37448">
        <ele>225</ele>
        <time>2021-11-24T15:36:09.000Z</time>
      </trkpt>
      <trkpt lat="43.5171" lon="6.37449">
        <ele>225</ele>
        <time>2021-11-24T15:36:10.000Z</time>
      </trkpt>
      <trkpt lat="43.5171" lon="6.37451">
        <ele>225</ele>
        <time>2021-11-24T15:36:11.000Z</time>
      </trkpt>
      <trkpt lat="43.5171" lon="6.37452">
        <ele>225</ele>
        <time>2021-11-24T15:36:12.000Z</time>
      </trkpt>
      <trkpt lat="43.51709" lon="6.37454">
        <ele>225</ele>
        <time>2021-11-24T15:36:13.000Z</time>
      </trkpt>
      <trkpt lat="43.51709" lon="6.37456">
        <ele>225</ele>
        <time>2021-11-24T15:36:14.000Z</time>
      </trkpt>
      <trkpt lat="43.51709" lon="6.37458">
        <ele>225</ele>
        <time>2021-11-24T15:36:15.000Z</time>
      </trkpt>
      <trkpt lat="43.51709" lon="6.37459">
        <ele>225</ele>
        <time>2021-11-24T15:36:16.000Z</time>
      </trkpt>
      <trkpt lat="43.51709" lon="6.37461">
        <ele>225</ele>
        <time>2021-11-24T15:36:17.000Z</time>
      </trkpt>
      <trkpt lat="43.51708" lon="6.37463">
        <ele>225</ele>
        <time>2021-11-24T15:36:18.000Z</time>
      </trkpt>
      <trkpt lat="43.51708" lon="6.37464">
        <ele>225</ele>
        <time>2021-11-24T15:36:19.000Z</time>
      </trkpt>
      <trkpt lat="43.51708" lon="6.37466">
        <ele>225</ele>
        <time>2021-11-24T15:36:20.000Z</time>
      </trkpt>
      <trkpt lat="43.51708" lon="6.37467">
        <ele>225</ele>
        <time>2021-11-24T15:36:21.000Z</time>
      </trkpt>
      <trkpt lat="43.51708" lon="6.37469">
        <ele>225</ele>
        <time>2021-11-24T15:36:22.000Z</time>
      </trkpt>
      <trkpt lat="43.51707" lon="6.37471">
        <ele>226</ele>
        <time>2021-11-24T15:36:23.000Z</time>
      </trkpt>
      <trkpt lat="43.51707" lon="6.37473">
        <ele>226</ele>
        <time>2021-11-24T15:36:24.000Z</time>
      </trkpt>
      <trkpt lat="43.51706" lon="6.37474">
        <ele>226</ele>
        <time>2021-11-24T15:36:25.000Z</time>
      </trkpt>
      <trkpt lat="43.51706" lon="6.37476">
        <ele>226</ele>
        <time>2021-11-24T15:36:26.000Z</time>
      </trkpt>
      <trkpt lat="43.51705" lon="6.37477">
        <ele>226</ele>
        <time>2021-11-24T15:36:27.000Z</time>
      </trkpt>
      <trkpt lat="43.51705" lon="6.37479">
        <ele>226</ele>
        <time>2021-11-24T15:36:28.000Z</time>
      </trkpt>
      <trkpt lat="43.51704" lon="6.37479">
        <ele>226</ele>
        <time>2021-11-24T15:36:29.000Z</time>
      </trkpt>
      <trkpt lat="43.51704" lon="6.3748">
        <ele>226</ele>
        <time>2021-11-24T15:36:30.000Z</time>
      </trkpt>
      <trkpt lat="43.51704" lon="6.3748">
        <ele>226</ele>
        <time>2021-11-24T15:36:31.000Z</time>
      </trkpt>
      <trkpt lat="43.51704" lon="6.37481">
        <ele>226</ele>
        <time>2021-11-24T15:36:32.000Z</time>
      </trkpt>
      <trkpt lat="43.51703" lon="6.37481">
        <ele>226</ele>
        <time>2021-11-24T15:36:33.000Z</time>
      </trkpt>
      <trkpt lat="43.51703" lon="6.37481">
        <ele>226</ele>
        <time>2021-11-24T15:36:34.000Z</time>
      </trkpt>
      <trkpt lat="43.51703" lon="6.37481">
        <ele>226</ele>
        <time>2021-11-24T15:36:35.000Z</time>
      </trkpt>
      <trkpt lat="43.51703" lon="6.37482">
        <ele>226</ele>
        <time>2021-11-24T15:36:36.000Z</time>
      </trkpt>
      <trkpt lat="43.51703" lon="6.37482">
        <ele>226</ele>
        <time>2021-11-24T15:36:37.000Z</time>
      </trkpt>
      <trkpt lat="43.51702" lon="6.37483">
        <ele>226</ele>
        <time>2021-11-24T15:36:38.000Z</time>
      </trkpt>
      <trkpt lat="43.51702" lon="6.37483">
        <ele>226</ele>
        <time>2021-11-24T15:36:39.000Z</time>
      </trkpt>
      <trkpt lat="43.51701" lon="6.37484">
        <ele>226</ele>
        <time>2021-11-24T15:36:40.000Z</time>
      </trkpt>
      <trkpt lat="43.51701" lon="6.37485">
        <ele>226</ele>
        <time>2021-11-24T15:36:41.000Z</time>
      </trkpt>
      <trkpt lat="43.517" lon="6.37486">
        <ele>226</ele>
        <time>2021-11-24T15:36:42.000Z</time>
      </trkpt>
      <trkpt lat="43.51699" lon="6.37486">
        <ele>226</ele>
        <time>2021-11-24T15:36:43.000Z</time>
      </trkpt>
      <trkpt lat="43.51699" lon="6.37487">
        <ele>226</ele>
        <time>2021-11-24T15:36:44.000Z</time>
      </trkpt>
      <trkpt lat="43.51698" lon="6.37488">
        <ele>226</ele>
        <time>2021-11-24T15:36:45.000Z</time>
      </trkpt>
      <trkpt lat="43.51697" lon="6.37489">
        <ele>226</ele>
        <time>2021-11-24T15:36:46.000Z</time>
      </trkpt>
      <trkpt lat="43.51697" lon="6.3749">
        <ele>226</ele>
        <time>2021-11-24T15:36:47.000Z</time>
      </trkpt>
      <trkpt lat="43.51697" lon="6.37491">
        <ele>226</ele>
        <time>2021-11-24T15:36:48.000Z</time>
      </trkpt>
      <trkpt lat="43.51696" lon="6.37493">
        <ele>227</ele>
        <time>2021-11-24T15:36:49.000Z</time>
      </trkpt>
      <trkpt lat="43.51696" lon="6.37494">
        <ele>227</ele>
        <time>2021-11-24T15:36:50.000Z</time>
      </trkpt>
      <trkpt lat="43.51695" lon="6.37496">
        <ele>227</ele>
        <time>2021-11-24T15:36:51.000Z</time>
      </trkpt>
      <trkpt lat="43.51695" lon="6.37497">
        <ele>227</ele>
        <time>2021-11-24T15:36:52.000Z</time>
      </trkpt>
      <trkpt lat="43.51695" lon="6.37499">
        <ele>227</ele>
        <time>2021-11-24T15:36:53.000Z</time>
      </trkpt>
      <trkpt lat="43.51694" lon="6.375">
        <ele>227</ele>
        <time>2021-11-24T15:36:54.000Z</time>
      </trkpt>
      <trkpt lat="43.51694" lon="6.37502">
        <ele>227</ele>
        <time>2021-11-24T15:36:55.000Z</time>
      </trkpt>
      <trkpt lat="43.51694" lon="6.37504">
        <ele>227</ele>
        <time>2021-11-24T15:36:56.000Z</time>
      </trkpt>
      <trkpt lat="43.51693" lon="6.37504">
        <ele>227</ele>
        <time>2021-11-24T15:36:57.000Z</time>
      </trkpt>
      <trkpt lat="43.51692" lon="6.37503">
        <ele>227</ele>
        <time>2021-11-24T15:36:58.000Z</time>
      </trkpt>
      <trkpt lat="43.51691" lon="6.37505">
        <ele>227</ele>
        <time>2021-11-24T15:36:59.000Z</time>
      </trkpt>
      <trkpt lat="43.51691" lon="6.37507">
        <ele>227</ele>
        <time>2021-11-24T15:37:00.000Z</time>
      </trkpt>
      <trkpt lat="43.51691" lon="6.37508">
        <ele>227</ele>
        <time>2021-11-24T15:37:01.000Z</time>
      </trkpt>
      <trkpt lat="43.51691" lon="6.3751">
        <ele>227</ele>
        <time>2021-11-24T15:37:02.000Z</time>
      </trkpt>
      <trkpt lat="43.51691" lon="6.37511">
        <ele>227</ele>
        <time>2021-11-24T15:37:03.000Z</time>
      </trkpt>
      <trkpt lat="43.51692" lon="6.37513">
        <ele>227</ele>
        <time>2021-11-24T15:37:04.000Z</time>
      </trkpt>
      <trkpt lat="43.51692" lon="6.37515">
        <ele>227</ele>
        <time>2021-11-24T15:37:05.000Z</time>
      </trkpt>
      <trkpt lat="43.51692" lon="6.37517">
        <ele>227</ele>
        <time>2021-11-24T15:37:06.000Z</time>
      </trkpt>
      <trkpt lat="43.51692" lon="6.37518">
        <ele>227</ele>
        <time>2021-11-24T15:37:07.000Z</time>
      </trkpt>
      <trkpt lat="43.51691" lon="6.37519">
        <ele>227</ele>
        <time>2021-11-24T15:37:08.000Z</time>
      </trkpt>
      <trkpt lat="43.51691" lon="6.3752">
        <ele>227</ele>
        <time>2021-11-24T15:37:09.000Z</time>
      </trkpt>
      <trkpt lat="43.51691" lon="6.37522">
        <ele>227</ele>
        <time>2021-11-24T15:37:10.000Z</time>
      </trkpt>
      <trkpt lat="43.51691" lon="6.37523">
        <ele>227</ele>
        <time>2021-11-24T15:37:11.000Z</time>
      </trkpt>
      <trkpt lat="43.5169" lon="6.37525">
        <ele>227</ele>
        <time>2021-11-24T15:37:12.000Z</time>
      </trkpt>
      <trkpt lat="43.5169" lon="6.37527">
        <ele>226</ele>
        <time>2021-11-24T15:37:13.000Z</time>
      </trkpt>
      <trkpt lat="43.5169" lon="6.37528">
        <ele>226</ele>
        <time>2021-11-24T15:37:14.000Z</time>
      </trkpt>
      <trkpt lat="43.51689" lon="6.37529">
        <ele>226</ele>
        <time>2021-11-24T15:37:15.000Z</time>
      </trkpt>
      <trkpt lat="43.51689" lon="6.37531">
        <ele>226</ele>
        <time>2021-11-24T15:37:16.000Z</time>
      </trkpt>
      <trkpt lat="43.51688" lon="6.37532">
        <ele>227</ele>
        <time>2021-11-24T15:37:17.000Z</time>
      </trkpt>
      <trkpt lat="43.51688" lon="6.37533">
        <ele>227</ele>
        <time>2021-11-24T15:37:18.000Z</time>
      </trkpt>
      <trkpt lat="43.51687" lon="6.37534">
        <ele>227</ele>
        <time>2021-11-24T15:37:19.000Z</time>
      </trkpt>
      <trkpt lat="43.51686" lon="6.37534">
        <ele>227</ele>
        <time>2021-11-24T15:37:20.000Z</time>
      </trkpt>
      <trkpt lat="43.51685" lon="6.37535">
        <ele>227</ele>
        <time>2021-11-24T15:37:21.000Z</time>
      </trkpt>
      <trkpt lat="43.51684" lon="6.37536">
        <ele>227</ele>
        <time>2021-11-24T15:37:22.000Z</time>
      </trkpt>
      <trkpt lat="43.51683" lon="6.37536">
        <ele>227</ele>
        <time>2021-11-24T15:37:23.000Z</time>
      </trkpt>
      <trkpt lat="43.51683" lon="6.37537">
        <ele>227</ele>
        <time>2021-11-24T15:37:24.000Z</time>
      </trkpt>
      <trkpt lat="43.51682" lon="6.37538">
        <ele>227</ele>
        <time>2021-11-24T15:37:25.000Z</time>
      </trkpt>
      <trkpt lat="43.51682" lon="6.37539">
        <ele>227</ele>
        <time>2021-11-24T15:37:26.000Z</time>
      </trkpt>
      <trkpt lat="43.51681" lon="6.37541">
        <ele>227</ele>
        <time>2021-11-24T15:37:27.000Z</time>
      </trkpt>
      <trkpt lat="43.51681" lon="6.37542">
        <ele>227</ele>
        <time>2021-11-24T15:37:28.000Z</time>
      </trkpt>
      <trkpt lat="43.5168" lon="6.37543">
        <ele>227</ele>
        <time>2021-11-24T15:37:29.000Z</time>
      </trkpt>
      <trkpt lat="43.5168" lon="6.37543">
        <ele>227</ele>
        <time>2021-11-24T15:37:30.000Z</time>
      </trkpt>
      <trkpt lat="43.51679" lon="6.37545">
        <ele>227</ele>
        <time>2021-11-24T15:37:31.000Z</time>
      </trkpt>
      <trkpt lat="43.51678" lon="6.37546">
        <ele>227</ele>
        <time>2021-11-24T15:37:32.000Z</time>
      </trkpt>
      <trkpt lat="43.51678" lon="6.37546">
        <ele>227</ele>
        <time>2021-11-24T15:37:33.000Z</time>
      </trkpt>
      <trkpt lat="43.51677" lon="6.37547">
        <ele>227</ele>
        <time>2021-11-24T15:37:34.000Z</time>
      </trkpt>
      <trkpt lat="43.51677" lon="6.37548">
        <ele>227</ele>
        <time>2021-11-24T15:37:35.000Z</time>
      </trkpt>
      <trkpt lat="43.51676" lon="6.37549">
        <ele>227</ele>
        <time>2021-11-24T15:37:36.000Z</time>
      </trkpt>
      <trkpt lat="43.51675" lon="6.37549">
        <ele>227</ele>
        <time>2021-11-24T15:37:37.000Z</time>
      </trkpt>
      <trkpt lat="43.51675" lon="6.37549">
        <ele>226</ele>
        <time>2021-11-24T15:37:38.000Z</time>
      </trkpt>
      <trkpt lat="43.51674" lon="6.3755">
        <ele>226</ele>
        <time>2021-11-24T15:37:39.000Z</time>
      </trkpt>
      <trkpt lat="43.51673" lon="6.3755">
        <ele>226</ele>
        <time>2021-11-24T15:37:40.000Z</time>
      </trkpt>
      <trkpt lat="43.51672" lon="6.37551">
        <ele>226</ele>
        <time>2021-11-24T15:37:41.000Z</time>
      </trkpt>
      <trkpt lat="43.51672" lon="6.37551">
        <ele>226</ele>
        <time>2021-11-24T15:37:42.000Z</time>
      </trkpt>
      <trkpt lat="43.51671" lon="6.37552">
        <ele>226</ele>
        <time>2021-11-24T15:37:43.000Z</time>
      </trkpt>
      <trkpt lat="43.5167" lon="6.37552">
        <ele>226</ele>
        <time>2021-11-24T15:37:44.000Z</time>
      </trkpt>
      <trkpt lat="43.5167" lon="6.37553">
        <ele>226</ele>
        <time>2021-11-24T15:37:45.000Z</time>
      </trkpt>
      <trkpt lat="43.51669" lon="6.37554">
        <ele>226</ele>
        <time>2021-11-24T15:37:46.000Z</time>
      </trkpt>
      <trkpt lat="43.51668" lon="6.37555">
        <ele>226</ele>
        <time>2021-11-24T15:37:47.000Z</time>
      </trkpt>
      <trkpt lat="43.51667" lon="6.37557">
        <ele>226</ele>
        <time>2021-11-24T15:37:48.000Z</time>
      </trkpt>
      <trkpt lat="43.51666" lon="6.37559">
        <ele>226</ele>
        <time>2021-11-24T15:37:49.000Z</time>
      </trkpt>
      <trkpt lat="43.51665" lon="6.3756">
        <ele>226</ele>
        <time>2021-11-24T15:37:50.000Z</time>
      </trkpt>
      <trkpt lat="43.51664" lon="6.37562">
        <ele>226</ele>
        <time>2021-11-24T15:37:51.000Z</time>
      </trkpt>
      <trkpt lat="43.51664" lon="6.37563">
        <ele>226</ele>
        <time>2021-11-24T15:37:52.000Z</time>
      </trkpt>
      <trkpt lat="43.51663" lon="6.37564">
        <ele>226</ele>
        <time>2021-11-24T15:37:53.000Z</time>
      </trkpt>
      <trkpt lat="43.51662" lon="6.37565">
        <ele>226</ele>
        <time>2021-11-24T15:37:54.000Z</time>
      </trkpt>
      <trkpt lat="43.51661" lon="6.37566">
        <ele>226</ele>
        <time>2021-11-24T15:37:55.000Z</time>
      </trkpt>
      <trkpt lat="43.5166" lon="6.37567">
        <ele>226</ele>
        <time>2021-11-24T15:37:56.000Z</time>
      </trkpt>
      <trkpt lat="43.51659" lon="6.37568">
        <ele>226</ele>
        <time>2021-11-24T15:37:57.000Z</time>
      </trkpt>
      <trkpt lat="43.51658" lon="6.37568">
        <ele>226</ele>
        <time>2021-11-24T15:37:58.000Z</time>
      </trkpt>
      <trkpt lat="43.51657" lon="6.37569">
        <ele>226</ele>
        <time>2021-11-24T15:37:59.000Z</time>
      </trkpt>
      <trkpt lat="43.51657" lon="6.3757">
        <ele>226</ele>
        <time>2021-11-24T15:38:00.000Z</time>
      </trkpt>
      <trkpt lat="43.51656" lon="6.37572">
        <ele>226</ele>
        <time>2021-11-24T15:38:01.000Z</time>
      </trkpt>
      <trkpt lat="43.51656" lon="6.37574">
        <ele>226</ele>
        <time>2021-11-24T15:38:02.000Z</time>
      </trkpt>
      <trkpt lat="43.51655" lon="6.37576">
        <ele>226</ele>
        <time>2021-11-24T15:38:03.000Z</time>
      </trkpt>
      <trkpt lat="43.51655" lon="6.37578">
        <ele>226</ele>
        <time>2021-11-24T15:38:04.000Z</time>
      </trkpt>
      <trkpt lat="43.51654" lon="6.3758">
        <ele>226</ele>
        <time>2021-11-24T15:38:05.000Z</time>
      </trkpt>
      <trkpt lat="43.51653" lon="6.37581">
        <ele>226</ele>
        <time>2021-11-24T15:38:06.000Z</time>
      </trkpt>
      <trkpt lat="43.51653" lon="6.37582">
        <ele>226</ele>
        <time>2021-11-24T15:38:07.000Z</time>
      </trkpt>
      <trkpt lat="43.51652" lon="6.37583">
        <ele>226</ele>
        <time>2021-11-24T15:38:08.000Z</time>
      </trkpt>
      <trkpt lat="43.51651" lon="6.37584">
        <ele>226</ele>
        <time>2021-11-24T15:38:09.000Z</time>
      </trkpt>
      <trkpt lat="43.51651" lon="6.37586">
        <ele>226</ele>
        <time>2021-11-24T15:38:10.000Z</time>
      </trkpt>
      <trkpt lat="43.5165" lon="6.37588">
        <ele>226</ele>
        <time>2021-11-24T15:38:11.000Z</time>
      </trkpt>
      <trkpt lat="43.5165" lon="6.37589">
        <ele>227</ele>
        <time>2021-11-24T15:38:12.000Z</time>
      </trkpt>
      <trkpt lat="43.5165" lon="6.37591">
        <ele>227</ele>
        <time>2021-11-24T15:38:13.000Z</time>
      </trkpt>
      <trkpt lat="43.51649" lon="6.37592">
        <ele>227</ele>
        <time>2021-11-24T15:38:14.000Z</time>
      </trkpt>
      <trkpt lat="43.51648" lon="6.37594">
        <ele>227</ele>
        <time>2021-11-24T15:38:15.000Z</time>
      </trkpt>
      <trkpt lat="43.51648" lon="6.37595">
        <ele>227</ele>
        <time>2021-11-24T15:38:16.000Z</time>
      </trkpt>
      <trkpt lat="43.51647" lon="6.37596">
        <ele>227</ele>
        <time>2021-11-24T15:38:17.000Z</time>
      </trkpt>
      <trkpt lat="43.51646" lon="6.37597">
        <ele>227</ele>
        <time>2021-11-24T15:38:18.000Z</time>
      </trkpt>
      <trkpt lat="43.51645" lon="6.37598">
        <ele>227</ele>
        <time>2021-11-24T15:38:19.000Z</time>
      </trkpt>
      <trkpt lat="43.51644" lon="6.376">
        <ele>227</ele>
        <time>2021-11-24T15:38:20.000Z</time>
      </trkpt>
      <trkpt lat="43.51643" lon="6.376">
        <ele>227</ele>
        <time>2021-11-24T15:38:21.000Z</time>
      </trkpt>
      <trkpt lat="43.51642" lon="6.37602">
        <ele>227</ele>
        <time>2021-11-24T15:38:22.000Z</time>
      </trkpt>
      <trkpt lat="43.51642" lon="6.37603">
        <ele>227</ele>
        <time>2021-11-24T15:38:23.000Z</time>
      </trkpt>
      <trkpt lat="43.51641" lon="6.37603">
        <ele>227</ele>
        <time>2021-11-24T15:38:24.000Z</time>
      </trkpt>
      <trkpt lat="43.5164" lon="6.37604">
        <ele>228</ele>
        <time>2021-11-24T15:38:25.000Z</time>
      </trkpt>
      <trkpt lat="43.51639" lon="6.37605">
        <ele>228</ele>
        <time>2021-11-24T15:38:26.000Z</time>
      </trkpt>
      <trkpt lat="43.51638" lon="6.37605">
        <ele>228</ele>
        <time>2021-11-24T15:38:27.000Z</time>
      </trkpt>
      <trkpt lat="43.51638" lon="6.37606">
        <ele>228</ele>
        <time>2021-11-24T15:38:28.000Z</time>
      </trkpt>
      <trkpt lat="43.51637" lon="6.37607">
        <ele>228</ele>
        <time>2021-11-24T15:38:29.000Z</time>
      </trkpt>
      <trkpt lat="43.51636" lon="6.37607">
        <ele>228</ele>
        <time>2021-11-24T15:38:30.000Z</time>
      </trkpt>
      <trkpt lat="43.51636" lon="6.37609">
        <ele>228</ele>
        <time>2021-11-24T15:38:31.000Z</time>
      </trkpt>
      <trkpt lat="43.51635" lon="6.3761">
        <ele>228</ele>
        <time>2021-11-24T15:38:32.000Z</time>
      </trkpt>
      <trkpt lat="43.51635" lon="6.37611">
        <ele>228</ele>
        <time>2021-11-24T15:38:33.000Z</time>
      </trkpt>
      <trkpt lat="43.51635" lon="6.37613">
        <ele>228</ele>
        <time>2021-11-24T15:38:34.000Z</time>
      </trkpt>
      <trkpt lat="43.51635" lon="6.37614">
        <ele>228</ele>
        <time>2021-11-24T15:38:35.000Z</time>
      </trkpt>
      <trkpt lat="43.51634" lon="6.37616">
        <ele>228</ele>
        <time>2021-11-24T15:38:36.000Z</time>
      </trkpt>
      <trkpt lat="43.51634" lon="6.37618">
        <ele>228</ele>
        <time>2021-11-24T15:38:37.000Z</time>
      </trkpt>
      <trkpt lat="43.51633" lon="6.3762">
        <ele>228</ele>
        <time>2021-11-24T15:38:38.000Z</time>
      </trkpt>
      <trkpt lat="43.51633" lon="6.37622">
        <ele>229</ele>
        <time>2021-11-24T15:38:39.000Z</time>
      </trkpt>
      <trkpt lat="43.51633" lon="6.37624">
        <ele>229</ele>
        <time>2021-11-24T15:38:40.000Z</time>
      </trkpt>
      <trkpt lat="43.51632" lon="6.37625">
        <ele>229</ele>
        <time>2021-11-24T15:38:41.000Z</time>
      </trkpt>
      <trkpt lat="43.51632" lon="6.37627">
        <ele>229</ele>
        <time>2021-11-24T15:38:42.000Z</time>
      </trkpt>
      <trkpt lat="43.51632" lon="6.37629">
        <ele>229</ele>
        <time>2021-11-24T15:38:43.000Z</time>
      </trkpt>
      <trkpt lat="43.51631" lon="6.37631">
        <ele>229</ele>
        <time>2021-11-24T15:38:44.000Z</time>
      </trkpt>
      <trkpt lat="43.51631" lon="6.37632">
        <ele>229</ele>
        <time>2021-11-24T15:38:45.000Z</time>
      </trkpt>
      <trkpt lat="43.5163" lon="6.37634">
        <ele>229</ele>
        <time>2021-11-24T15:38:46.000Z</time>
      </trkpt>
      <trkpt lat="43.5163" lon="6.37636">
        <ele>229</ele>
        <time>2021-11-24T15:38:47.000Z</time>
      </trkpt>
      <trkpt lat="43.5163" lon="6.37637">
        <ele>228</ele>
        <time>2021-11-24T15:38:48.000Z</time>
      </trkpt>
      <trkpt lat="43.5163" lon="6.37639">
        <ele>228</ele>
        <time>2021-11-24T15:38:49.000Z</time>
      </trkpt>
      <trkpt lat="43.51629" lon="6.3764">
        <ele>227</ele>
        <time>2021-11-24T15:38:50.000Z</time>
      </trkpt>
      <trkpt lat="43.51629" lon="6.37642">
        <ele>227</ele>
        <time>2021-11-24T15:38:51.000Z</time>
      </trkpt>
      <trkpt lat="43.51628" lon="6.37644">
        <ele>227</ele>
        <time>2021-11-24T15:38:52.000Z</time>
      </trkpt>
      <trkpt lat="43.51628" lon="6.37646">
        <ele>227</ele>
        <time>2021-11-24T15:38:53.000Z</time>
      </trkpt>
      <trkpt lat="43.51628" lon="6.37649">
        <ele>227</ele>
        <time>2021-11-24T15:38:54.000Z</time>
      </trkpt>
      <trkpt lat="43.51627" lon="6.37651">
        <ele>227</ele>
        <time>2021-11-24T15:38:55.000Z</time>
      </trkpt>
      <trkpt lat="43.51627" lon="6.37653">
        <ele>227</ele>
        <time>2021-11-24T15:38:56.000Z</time>
      </trkpt>
      <trkpt lat="43.51626" lon="6.37655">
        <ele>227</ele>
        <time>2021-11-24T15:38:57.000Z</time>
      </trkpt>
      <trkpt lat="43.51626" lon="6.37657">
        <ele>227</ele>
        <time>2021-11-24T15:38:58.000Z</time>
      </trkpt>
      <trkpt lat="43.51625" lon="6.37659">
        <ele>228</ele>
        <time>2021-11-24T15:38:59.000Z</time>
      </trkpt>
      <trkpt lat="43.51624" lon="6.3766">
        <ele>228</ele>
        <time>2021-11-24T15:39:00.000Z</time>
      </trkpt>
      <trkpt lat="43.51624" lon="6.37662">
        <ele>228</ele>
        <time>2021-11-24T15:39:01.000Z</time>
      </trkpt>
      <trkpt lat="43.51623" lon="6.37664">
        <ele>228</ele>
        <time>2021-11-24T15:39:02.000Z</time>
      </trkpt>
      <trkpt lat="43.51622" lon="6.37667">
        <ele>228</ele>
        <time>2021-11-24T15:39:03.000Z</time>
      </trkpt>
      <trkpt lat="43.51622" lon="6.37669">
        <ele>227</ele>
        <time>2021-11-24T15:39:04.000Z</time>
      </trkpt>
      <trkpt lat="43.51622" lon="6.37671">
        <ele>227</ele>
        <time>2021-11-24T15:39:05.000Z</time>
      </trkpt>
      <trkpt lat="43.51621" lon="6.37673">
        <ele>226</ele>
        <time>2021-11-24T15:39:06.000Z</time>
      </trkpt>
      <trkpt lat="43.5162" lon="6.37674">
        <ele>226</ele>
        <time>2021-11-24T15:39:07.000Z</time>
      </trkpt>
      <trkpt lat="43.5162" lon="6.37676">
        <ele>226</ele>
        <time>2021-11-24T15:39:08.000Z</time>
      </trkpt>
      <trkpt lat="43.51619" lon="6.37677">
        <ele>226</ele>
        <time>2021-11-24T15:39:09.000Z</time>
      </trkpt>
      <trkpt lat="43.51619" lon="6.37679">
        <ele>226</ele>
        <time>2021-11-24T15:39:10.000Z</time>
      </trkpt>
      <trkpt lat="43.51618" lon="6.3768">
        <ele>226</ele>
        <time>2021-11-24T15:39:11.000Z</time>
      </trkpt>
      <trkpt lat="43.51618" lon="6.37682">
        <ele>225</ele>
        <time>2021-11-24T15:39:12.000Z</time>
      </trkpt>
      <trkpt lat="43.51618" lon="6.37683">
        <ele>225</ele>
        <time>2021-11-24T15:39:13.000Z</time>
      </trkpt>
      <trkpt lat="43.51618" lon="6.37685">
        <ele>225</ele>
        <time>2021-11-24T15:39:14.000Z</time>
      </trkpt>
      <trkpt lat="43.51618" lon="6.37686">
        <ele>225</ele>
        <time>2021-11-24T15:39:15.000Z</time>
      </trkpt>
      <trkpt lat="43.51618" lon="6.37688">
        <ele>225</ele>
        <time>2021-11-24T15:39:16.000Z</time>
      </trkpt>
      <trkpt lat="43.51618" lon="6.3769">
        <ele>224</ele>
        <time>2021-11-24T15:39:17.000Z</time>
      </trkpt>
      <trkpt lat="43.51618" lon="6.37691">
        <ele>224</ele>
        <time>2021-11-24T15:39:18.000Z</time>
      </trkpt>
      <trkpt lat="43.51618" lon="6.37693">
        <ele>223</ele>
        <time>2021-11-24T15:39:19.000Z</time>
      </trkpt>
      <trkpt lat="43.51618" lon="6.37694">
        <ele>223</ele>
        <time>2021-11-24T15:39:20.000Z</time>
      </trkpt>
      <trkpt lat="43.51618" lon="6.37696">
        <ele>223</ele>
        <time>2021-11-24T15:39:21.000Z</time>
      </trkpt>
      <trkpt lat="43.51618" lon="6.37697">
        <ele>223</ele>
        <time>2021-11-24T15:39:22.000Z</time>
      </trkpt>
      <trkpt lat="43.51618" lon="6.37699">
        <ele>222</ele>
        <time>2021-11-24T15:39:23.000Z</time>
      </trkpt>
      <trkpt lat="43.51618" lon="6.377">
        <ele>222</ele>
        <time>2021-11-24T15:39:24.000Z</time>
      </trkpt>
      <trkpt lat="43.51617" lon="6.37702">
        <ele>222</ele>
        <time>2021-11-24T15:39:25.000Z</time>
      </trkpt>
      <trkpt lat="43.51617" lon="6.37703">
        <ele>222</ele>
        <time>2021-11-24T15:39:26.000Z</time>
      </trkpt>
      <trkpt lat="43.51617" lon="6.37705">
        <ele>222</ele>
        <time>2021-11-24T15:39:27.000Z</time>
      </trkpt>
      <trkpt lat="43.51617" lon="6.37706">
        <ele>222</ele>
        <time>2021-11-24T15:39:28.000Z</time>
      </trkpt>
      <trkpt lat="43.51616" lon="6.37708">
        <ele>222</ele>
        <time>2021-11-24T15:39:29.000Z</time>
      </trkpt>
      <trkpt lat="43.51616" lon="6.37709">
        <ele>222</ele>
        <time>2021-11-24T15:39:30.000Z</time>
      </trkpt>
      <trkpt lat="43.51615" lon="6.3771">
        <ele>222</ele>
        <time>2021-11-24T15:39:31.000Z</time>
      </trkpt>
      <trkpt lat="43.51615" lon="6.37712">
        <ele>222</ele>
        <time>2021-11-24T15:39:32.000Z</time>
      </trkpt>
      <trkpt lat="43.51614" lon="6.37713">
        <ele>222</ele>
        <time>2021-11-24T15:39:33.000Z</time>
      </trkpt>
      <trkpt lat="43.51614" lon="6.37715">
        <ele>221</ele>
        <time>2021-11-24T15:39:34.000Z</time>
      </trkpt>
      <trkpt lat="43.51613" lon="6.37716">
        <ele>221</ele>
        <time>2021-11-24T15:39:35.000Z</time>
      </trkpt>
      <trkpt lat="43.51613" lon="6.37718">
        <ele>221</ele>
        <time>2021-11-24T15:39:36.000Z</time>
      </trkpt>
      <trkpt lat="43.51612" lon="6.37719">
        <ele>221</ele>
        <time>2021-11-24T15:39:37.000Z</time>
      </trkpt>
      <trkpt lat="43.51612" lon="6.37721">
        <ele>221</ele>
        <time>2021-11-24T15:39:38.000Z</time>
      </trkpt>
      <trkpt lat="43.51612" lon="6.37723">
        <ele>220</ele>
        <time>2021-11-24T15:39:39.000Z</time>
      </trkpt>
      <trkpt lat="43.51611" lon="6.37724">
        <ele>220</ele>
        <time>2021-11-24T15:39:40.000Z</time>
      </trkpt>
      <trkpt lat="43.51611" lon="6.37726">
        <ele>220</ele>
        <time>2021-11-24T15:39:41.000Z</time>
      </trkpt>
      <trkpt lat="43.51611" lon="6.37727">
        <ele>220</ele>
        <time>2021-11-24T15:39:42.000Z</time>
      </trkpt>
      <trkpt lat="43.51611" lon="6.37729">
        <ele>220</ele>
        <time>2021-11-24T15:39:43.000Z</time>
      </trkpt>
      <trkpt lat="43.5161" lon="6.3773">
        <ele>220</ele>
        <time>2021-11-24T15:39:44.000Z</time>
      </trkpt>
      <trkpt lat="43.5161" lon="6.37732">
        <ele>220</ele>
        <time>2021-11-24T15:39:45.000Z</time>
      </trkpt>
      <trkpt lat="43.5161" lon="6.37734">
        <ele>220</ele>
        <time>2021-11-24T15:39:46.000Z</time>
      </trkpt>
      <trkpt lat="43.5161" lon="6.37735">
        <ele>220</ele>
        <time>2021-11-24T15:39:47.000Z</time>
      </trkpt>
      <trkpt lat="43.51609" lon="6.37737">
        <ele>219</ele>
        <time>2021-11-24T15:39:48.000Z</time>
      </trkpt>
      <trkpt lat="43.51609" lon="6.37738">
        <ele>219</ele>
        <time>2021-11-24T15:39:49.000Z</time>
      </trkpt>
      <trkpt lat="43.51609" lon="6.37739">
        <ele>219</ele>
        <time>2021-11-24T15:39:50.000Z</time>
      </trkpt>
      <trkpt lat="43.51609" lon="6.37741">
        <ele>219</ele>
        <time>2021-11-24T15:39:51.000Z</time>
      </trkpt>
      <trkpt lat="43.51608" lon="6.37742">
        <ele>219</ele>
        <time>2021-11-24T15:39:52.000Z</time>
      </trkpt>
      <trkpt lat="43.51608" lon="6.37743">
        <ele>219</ele>
        <time>2021-11-24T15:39:53.000Z</time>
      </trkpt>
      <trkpt lat="43.51608" lon="6.37745">
        <ele>219</ele>
        <time>2021-11-24T15:39:54.000Z</time>
      </trkpt>
      <trkpt lat="43.51608" lon="6.37746">
        <ele>219</ele>
        <time>2021-11-24T15:39:55.000Z</time>
      </trkpt>
      <trkpt lat="43.51607" lon="6.37748">
        <ele>220</ele>
        <time>2021-11-24T15:39:56.000Z</time>
      </trkpt>
      <trkpt lat="43.51607" lon="6.37749">
        <ele>220</ele>
        <time>2021-11-24T15:39:57.000Z</time>
      </trkpt>
      <trkpt lat="43.51607" lon="6.3775">
        <ele>220</ele>
        <time>2021-11-24T15:39:58.000Z</time>
      </trkpt>
      <trkpt lat="43.51607" lon="6.37752">
        <ele>220</ele>
        <time>2021-11-24T15:39:59.000Z</time>
      </trkpt>
      <trkpt lat="43.51607" lon="6.37753">
        <ele>220</ele>
        <time>2021-11-24T15:40:00.000Z</time>
      </trkpt>
      <trkpt lat="43.51606" lon="6.37755">
        <ele>220</ele>
        <time>2021-11-24T15:40:01.000Z</time>
      </trkpt>
      <trkpt lat="43.51606" lon="6.37756">
        <ele>220</ele>
        <time>2021-11-24T15:40:02.000Z</time>
      </trkpt>
      <trkpt lat="43.51606" lon="6.37757">
        <ele>220</ele>
        <time>2021-11-24T15:40:03.000Z</time>
      </trkpt>
      <trkpt lat="43.51605" lon="6.37759">
        <ele>220</ele>
        <time>2021-11-24T15:40:04.000Z</time>
      </trkpt>
      <trkpt lat="43.51605" lon="6.3776">
        <ele>220</ele>
        <time>2021-11-24T15:40:05.000Z</time>
      </trkpt>
      <trkpt lat="43.51605" lon="6.37761">
        <ele>220</ele>
        <time>2021-11-24T15:40:06.000Z</time>
      </trkpt>
      <trkpt lat="43.51604" lon="6.37762">
        <ele>221</ele>
        <time>2021-11-24T15:40:07.000Z</time>
      </trkpt>
      <trkpt lat="43.51604" lon="6.37764">
        <ele>221</ele>
        <time>2021-11-24T15:40:08.000Z</time>
      </trkpt>
      <trkpt lat="43.51603" lon="6.37765">
        <ele>221</ele>
        <time>2021-11-24T15:40:09.000Z</time>
      </trkpt>
      <trkpt lat="43.51603" lon="6.37767">
        <ele>221</ele>
        <time>2021-11-24T15:40:10.000Z</time>
      </trkpt>
      <trkpt lat="43.51603" lon="6.37768">
        <ele>221</ele>
        <time>2021-11-24T15:40:11.000Z</time>
      </trkpt>
      <trkpt lat="43.51602" lon="6.37769">
        <ele>221</ele>
        <time>2021-11-24T15:40:12.000Z</time>
      </trkpt>
      <trkpt lat="43.51602" lon="6.37771">
        <ele>221</ele>
        <time>2021-11-24T15:40:13.000Z</time>
      </trkpt>
      <trkpt lat="43.51601" lon="6.37772">
        <ele>221</ele>
        <time>2021-11-24T15:40:14.000Z</time>
      </trkpt>
      <trkpt lat="43.516" lon="6.37773">
        <ele>221</ele>
        <time>2021-11-24T15:40:15.000Z</time>
      </trkpt>
      <trkpt lat="43.516" lon="6.37774">
        <ele>221</ele>
        <time>2021-11-24T15:40:16.000Z</time>
      </trkpt>
      <trkpt lat="43.51599" lon="6.37775">
        <ele>221</ele>
        <time>2021-11-24T15:40:17.000Z</time>
      </trkpt>
      <trkpt lat="43.51599" lon="6.37777">
        <ele>221</ele>
        <time>2021-11-24T15:40:18.000Z</time>
      </trkpt>
      <trkpt lat="43.51598" lon="6.37778">
        <ele>221</ele>
        <time>2021-11-24T15:40:19.000Z</time>
      </trkpt>
      <trkpt lat="43.51598" lon="6.37779">
        <ele>221</ele>
        <time>2021-11-24T15:40:20.000Z</time>
      </trkpt>
      <trkpt lat="43.51597" lon="6.3778">
        <ele>221</ele>
        <time>2021-11-24T15:40:21.000Z</time>
      </trkpt>
      <trkpt lat="43.51597" lon="6.37781">
        <ele>221</ele>
        <time>2021-11-24T15:40:22.000Z</time>
      </trkpt>
      <trkpt lat="43.51596" lon="6.37781">
        <ele>221</ele>
        <time>2021-11-24T15:40:23.000Z</time>
      </trkpt>
      <trkpt lat="43.51596" lon="6.37782">
        <ele>221</ele>
        <time>2021-11-24T15:40:24.000Z</time>
      </trkpt>
      <trkpt lat="43.51595" lon="6.37783">
        <ele>221</ele>
        <time>2021-11-24T15:40:25.000Z</time>
      </trkpt>
      <trkpt lat="43.51595" lon="6.37784">
        <ele>221</ele>
        <time>2021-11-24T15:40:26.000Z</time>
      </trkpt>
      <trkpt lat="43.51595" lon="6.37786">
        <ele>221</ele>
        <time>2021-11-24T15:40:27.000Z</time>
      </trkpt>
      <trkpt lat="43.51594" lon="6.37787">
        <ele>221</ele>
        <time>2021-11-24T15:40:28.000Z</time>
      </trkpt>
      <trkpt lat="43.51594" lon="6.37789">
        <ele>221</ele>
        <time>2021-11-24T15:40:29.000Z</time>
      </trkpt>
      <trkpt lat="43.51594" lon="6.3779">
        <ele>221</ele>
        <time>2021-11-24T15:40:30.000Z</time>
      </trkpt>
      <trkpt lat="43.51593" lon="6.37791">
        <ele>221</ele>
        <time>2021-11-24T15:40:31.000Z</time>
      </trkpt>
      <trkpt lat="43.51593" lon="6.37792">
        <ele>221</ele>
        <time>2021-11-24T15:40:32.000Z</time>
      </trkpt>
      <trkpt lat="43.51592" lon="6.37794">
        <ele>221</ele>
        <time>2021-11-24T15:40:33.000Z</time>
      </trkpt>
      <trkpt lat="43.51592" lon="6.37795">
        <ele>221</ele>
        <time>2021-11-24T15:40:34.000Z</time>
      </trkpt>
      <trkpt lat="43.51592" lon="6.37797">
        <ele>221</ele>
        <time>2021-11-24T15:40:35.000Z</time>
      </trkpt>
      <trkpt lat="43.51591" lon="6.37798">
        <ele>221</ele>
        <time>2021-11-24T15:40:36.000Z</time>
      </trkpt>
      <trkpt lat="43.51591" lon="6.378">
        <ele>221</ele>
        <time>2021-11-24T15:40:37.000Z</time>
      </trkpt>
      <trkpt lat="43.5159" lon="6.37801">
        <ele>221</ele>
        <time>2021-11-24T15:40:38.000Z</time>
      </trkpt>
      <trkpt lat="43.51589" lon="6.37802">
        <ele>221</ele>
        <time>2021-11-24T15:40:39.000Z</time>
      </trkpt>
      <trkpt lat="43.51589" lon="6.37804">
        <ele>221</ele>
        <time>2021-11-24T15:40:40.000Z</time>
      </trkpt>
      <trkpt lat="43.51589" lon="6.37805">
        <ele>221</ele>
        <time>2021-11-24T15:40:41.000Z</time>
      </trkpt>
      <trkpt lat="43.51588" lon="6.37806">
        <ele>221</ele>
        <time>2021-11-24T15:40:42.000Z</time>
      </trkpt>
      <trkpt lat="43.51588" lon="6.37808">
        <ele>221</ele>
        <time>2021-11-24T15:40:43.000Z</time>
      </trkpt>
      <trkpt lat="43.51587" lon="6.37809">
        <ele>222</ele>
        <time>2021-11-24T15:40:44.000Z</time>
      </trkpt>
      <trkpt lat="43.51586" lon="6.37811">
        <ele>222</ele>
        <time>2021-11-24T15:40:45.000Z</time>
      </trkpt>
      <trkpt lat="43.51586" lon="6.37812">
        <ele>222</ele>
        <time>2021-11-24T15:40:46.000Z</time>
      </trkpt>
      <trkpt lat="43.51585" lon="6.37814">
        <ele>222</ele>
        <time>2021-11-24T15:40:47.000Z</time>
      </trkpt>
      <trkpt lat="43.51585" lon="6.37815">
        <ele>222</ele>
        <time>2021-11-24T15:40:48.000Z</time>
      </trkpt>
      <trkpt lat="43.51584" lon="6.37817">
        <ele>222</ele>
        <time>2021-11-24T15:40:49.000Z</time>
      </trkpt>
      <trkpt lat="43.51583" lon="6.37818">
        <ele>223</ele>
        <time>2021-11-24T15:40:50.000Z</time>
      </trkpt>
      <trkpt lat="43.51583" lon="6.3782">
        <ele>223</ele>
        <time>2021-11-24T15:40:51.000Z</time>
      </trkpt>
      <trkpt lat="43.51582" lon="6.37821">
        <ele>223</ele>
        <time>2021-11-24T15:40:52.000Z</time>
      </trkpt>
      <trkpt lat="43.51582" lon="6.37823">
        <ele>223</ele>
        <time>2021-11-24T15:40:53.000Z</time>
      </trkpt>
      <trkpt lat="43.51581" lon="6.37824">
        <ele>224</ele>
        <time>2021-11-24T15:40:54.000Z</time>
      </trkpt>
      <trkpt lat="43.5158" lon="6.37825">
        <ele>224</ele>
        <time>2021-11-24T15:40:55.000Z</time>
      </trkpt>
      <trkpt lat="43.5158" lon="6.37827">
        <ele>224</ele>
        <time>2021-11-24T15:40:56.000Z</time>
      </trkpt>
      <trkpt lat="43.51579" lon="6.37828">
        <ele>224</ele>
        <time>2021-11-24T15:40:57.000Z</time>
      </trkpt>
      <trkpt lat="43.51579" lon="6.37829">
        <ele>224</ele>
        <time>2021-11-24T15:40:58.000Z</time>
      </trkpt>
      <trkpt lat="43.51579" lon="6.37831">
        <ele>224</ele>
        <time>2021-11-24T15:40:59.000Z</time>
      </trkpt>
      <trkpt lat="43.51579" lon="6.37832">
        <ele>224</ele>
        <time>2021-11-24T15:41:00.000Z</time>
      </trkpt>
      <trkpt lat="43.51578" lon="6.37834">
        <ele>224</ele>
        <time>2021-11-24T15:41:01.000Z</time>
      </trkpt>
      <trkpt lat="43.51578" lon="6.37835">
        <ele>225</ele>
        <time>2021-11-24T15:41:02.000Z</time>
      </trkpt>
      <trkpt lat="43.51578" lon="6.37837">
        <ele>225</ele>
        <time>2021-11-24T15:41:03.000Z</time>
      </trkpt>
      <trkpt lat="43.51578" lon="6.37838">
        <ele>225</ele>
        <time>2021-11-24T15:41:04.000Z</time>
      </trkpt>
      <trkpt lat="43.51577" lon="6.3784">
        <ele>225</ele>
        <time>2021-11-24T15:41:05.000Z</time>
      </trkpt>
      <trkpt lat="43.51577" lon="6.37842">
        <ele>225</ele>
        <time>2021-11-24T15:41:06.000Z</time>
      </trkpt>
      <trkpt lat="43.51577" lon="6.37844">
        <ele>225</ele>
        <time>2021-11-24T15:41:07.000Z</time>
      </trkpt>
      <trkpt lat="43.51577" lon="6.37845">
        <ele>225</ele>
        <time>2021-11-24T15:41:08.000Z</time>
      </trkpt>
      <trkpt lat="43.51576" lon="6.37847">
        <ele>225</ele>
        <time>2021-11-24T15:41:09.000Z</time>
      </trkpt>
      <trkpt lat="43.51576" lon="6.37848">
        <ele>225</ele>
        <time>2021-11-24T15:41:10.000Z</time>
      </trkpt>
      <trkpt lat="43.51576" lon="6.3785">
        <ele>225</ele>
        <time>2021-11-24T15:41:11.000Z</time>
      </trkpt>
      <trkpt lat="43.51576" lon="6.37851">
        <ele>225</ele>
        <time>2021-11-24T15:41:12.000Z</time>
      </trkpt>
      <trkpt lat="43.51575" lon="6.37853">
        <ele>225</ele>
        <time>2021-11-24T15:41:13.000Z</time>
      </trkpt>
      <trkpt lat="43.51575" lon="6.37854">
        <ele>225</ele>
        <time>2021-11-24T15:41:14.000Z</time>
      </trkpt>
      <trkpt lat="43.51575" lon="6.37856">
        <ele>225</ele>
        <time>2021-11-24T15:41:15.000Z</time>
      </trkpt>
      <trkpt lat="43.51574" lon="6.37857">
        <ele>226</ele>
        <time>2021-11-24T15:41:16.000Z</time>
      </trkpt>
      <trkpt lat="43.51574" lon="6.37859">
        <ele>226</ele>
        <time>2021-11-24T15:41:17.000Z</time>
      </trkpt>
      <trkpt lat="43.51573" lon="6.3786">
        <ele>226</ele>
        <time>2021-11-24T15:41:18.000Z</time>
      </trkpt>
      <trkpt lat="43.51573" lon="6.37861">
        <ele>226</ele>
        <time>2021-11-24T15:41:19.000Z</time>
      </trkpt>
      <trkpt lat="43.51572" lon="6.37862">
        <ele>226</ele>
        <time>2021-11-24T15:41:20.000Z</time>
      </trkpt>
      <trkpt lat="43.51572" lon="6.37863">
        <ele>226</ele>
        <time>2021-11-24T15:41:21.000Z</time>
      </trkpt>
      <trkpt lat="43.51571" lon="6.37864">
        <ele>226</ele>
        <time>2021-11-24T15:41:22.000Z</time>
      </trkpt>
      <trkpt lat="43.5157" lon="6.37865">
        <ele>226</ele>
        <time>2021-11-24T15:41:23.000Z</time>
      </trkpt>
      <trkpt lat="43.5157" lon="6.37865">
        <ele>226</ele>
        <time>2021-11-24T15:41:24.000Z</time>
      </trkpt>
      <trkpt lat="43.51569" lon="6.37865">
        <ele>226</ele>
        <time>2021-11-24T15:41:25.000Z</time>
      </trkpt>
      <trkpt lat="43.51568" lon="6.37865">
        <ele>226</ele>
        <time>2021-11-24T15:41:26.000Z</time>
      </trkpt>
      <trkpt lat="43.51567" lon="6.37865">
        <ele>226</ele>
        <time>2021-11-24T15:41:27.000Z</time>
      </trkpt>
      <trkpt lat="43.51567" lon="6.37864">
        <ele>226</ele>
        <time>2021-11-24T15:41:28.000Z</time>
      </trkpt>
      <trkpt lat="43.51567" lon="6.37863">
        <ele>225</ele>
        <time>2021-11-24T15:41:29.000Z</time>
      </trkpt>
      <trkpt lat="43.51567" lon="6.37863">
        <ele>225</ele>
        <time>2021-11-24T15:41:30.000Z</time>
      </trkpt>
      <trkpt lat="43.51566" lon="6.37863">
        <ele>225</ele>
        <time>2021-11-24T15:41:31.000Z</time>
      </trkpt>
      <trkpt lat="43.51566" lon="6.37862">
        <ele>225</ele>
        <time>2021-11-24T15:41:32.000Z</time>
      </trkpt>
      <trkpt lat="43.51565" lon="6.37862">
        <ele>225</ele>
        <time>2021-11-24T15:41:33.000Z</time>
      </trkpt>
      <trkpt lat="43.51565" lon="6.37861">
        <ele>225</ele>
        <time>2021-11-24T15:41:34.000Z</time>
      </trkpt>
      <trkpt lat="43.51564" lon="6.3786">
        <ele>225</ele>
        <time>2021-11-24T15:41:35.000Z</time>
      </trkpt>
      <trkpt lat="43.51564" lon="6.3786">
        <ele>224</ele>
        <time>2021-11-24T15:41:36.000Z</time>
      </trkpt>
      <trkpt lat="43.51563" lon="6.37859">
        <ele>224</ele>
        <time>2021-11-24T15:41:37.000Z</time>
      </trkpt>
      <trkpt lat="43.51563" lon="6.37859">
        <ele>223</ele>
        <time>2021-11-24T15:41:38.000Z</time>
      </trkpt>
      <trkpt lat="43.51562" lon="6.37858">
        <ele>222</ele>
        <time>2021-11-24T15:41:39.000Z</time>
      </trkpt>
      <trkpt lat="43.51562" lon="6.37857">
        <ele>222</ele>
        <time>2021-11-24T15:41:40.000Z</time>
      </trkpt>
      <trkpt lat="43.51562" lon="6.37857">
        <ele>222</ele>
        <time>2021-11-24T15:41:41.000Z</time>
      </trkpt>
      <trkpt lat="43.51562" lon="6.37857">
        <ele>222</ele>
        <time>2021-11-24T15:41:42.000Z</time>
      </trkpt>
      <trkpt lat="43.51562" lon="6.37857">
        <ele>222</ele>
        <time>2021-11-24T15:41:43.000Z</time>
      </trkpt>
      <trkpt lat="43.51562" lon="6.37857">
        <ele>222</ele>
        <time>2021-11-24T15:41:44.000Z</time>
      </trkpt>
      <trkpt lat="43.51562" lon="6.37857">
        <ele>222</ele>
        <time>2021-11-24T15:41:45.000Z</time>
      </trkpt>
      <trkpt lat="43.51562" lon="6.37857">
        <ele>222</ele>
        <time>2021-11-24T15:41:46.000Z</time>
      </trkpt>
      <trkpt lat="43.51562" lon="6.37857">
        <ele>222</ele>
        <time>2021-11-24T15:41:47.000Z</time>
      </trkpt>
      <trkpt lat="43.51562" lon="6.37857">
        <ele>222</ele>
        <time>2021-11-24T15:41:48.000Z</time>
      </trkpt>
      <trkpt lat="43.51562" lon="6.37857">
        <ele>222</ele>
        <time>2021-11-24T15:41:49.000Z</time>
      </trkpt>
      <trkpt lat="43.51562" lon="6.37857">
        <ele>222</ele>
        <time>2021-11-24T15:41:50.000Z</time>
      </trkpt>
      <trkpt lat="43.51563" lon="6.37857">
        <ele>222</ele>
        <time>2021-11-24T15:41:51.000Z</time>
      </trkpt>
      <trkpt lat="43.51563" lon="6.37857">
        <ele>222</ele>
        <time>2021-11-24T15:41:52.000Z</time>
      </trkpt>
      <trkpt lat="43.51563" lon="6.37857">
        <ele>222</ele>
        <time>2021-11-24T15:41:53.000Z</time>
      </trkpt>
      <trkpt lat="43.51563" lon="6.37857">
        <ele>222</ele>
        <time>2021-11-24T15:41:54.000Z</time>
      </trkpt>
      <trkpt lat="43.51563" lon="6.37857">
        <ele>222</ele>
        <time>2021-11-24T15:41:55.000Z</time>
      </trkpt>
      <trkpt lat="43.51563" lon="6.37858">
        <ele>222</ele>
        <time>2021-11-24T15:41:56.000Z</time>
      </trkpt>
      <trkpt lat="43.51563" lon="6.37859">
        <ele>222</ele>
        <time>2021-11-24T15:41:57.000Z</time>
      </trkpt>
      <trkpt lat="43.51563" lon="6.3786">
        <ele>222</ele>
        <time>2021-11-24T15:41:58.000Z</time>
      </trkpt>
      <trkpt lat="43.51562" lon="6.37861">
        <ele>222</ele>
        <time>2021-11-24T15:41:59.000Z</time>
      </trkpt>
      <trkpt lat="43.51561" lon="6.37863">
        <ele>222</ele>
        <time>2021-11-24T15:42:00.000Z</time>
      </trkpt>
      <trkpt lat="43.51561" lon="6.37864">
        <ele>222</ele>
        <time>2021-11-24T15:42:01.000Z</time>
      </trkpt>
      <trkpt lat="43.5156" lon="6.37865">
        <ele>222</ele>
        <time>2021-11-24T15:42:02.000Z</time>
      </trkpt>
      <trkpt lat="43.5156" lon="6.37866">
        <ele>222</ele>
        <time>2021-11-24T15:42:03.000Z</time>
      </trkpt>
      <trkpt lat="43.5156" lon="6.37867">
        <ele>222</ele>
        <time>2021-11-24T15:42:04.000Z</time>
      </trkpt>
      <trkpt lat="43.51559" lon="6.37868">
        <ele>222</ele>
        <time>2021-11-24T15:42:05.000Z</time>
      </trkpt>
      <trkpt lat="43.51559" lon="6.37868">
        <ele>222</ele>
        <time>2021-11-24T15:42:06.000Z</time>
      </trkpt>
      <trkpt lat="43.51559" lon="6.37869">
        <ele>221</ele>
        <time>2021-11-24T15:42:07.000Z</time>
      </trkpt>
      <trkpt lat="43.51558" lon="6.37869">
        <ele>221</ele>
        <time>2021-11-24T15:42:08.000Z</time>
      </trkpt>
      <trkpt lat="43.51558" lon="6.3787">
        <ele>221</ele>
        <time>2021-11-24T15:42:09.000Z</time>
      </trkpt>
      <trkpt lat="43.51557" lon="6.37871">
        <ele>221</ele>
        <time>2021-11-24T15:42:10.000Z</time>
      </trkpt>
      <trkpt lat="43.51557" lon="6.37872">
        <ele>221</ele>
        <time>2021-11-24T15:42:11.000Z</time>
      </trkpt>
      <trkpt lat="43.51556" lon="6.37874">
        <ele>221</ele>
        <time>2021-11-24T15:42:12.000Z</time>
      </trkpt>
      <trkpt lat="43.51555" lon="6.37875">
        <ele>221</ele>
        <time>2021-11-24T15:42:13.000Z</time>
      </trkpt>
      <trkpt lat="43.51554" lon="6.37877">
        <ele>221</ele>
        <time>2021-11-24T15:42:14.000Z</time>
      </trkpt>
      <trkpt lat="43.51553" lon="6.37879">
        <ele>220</ele>
        <time>2021-11-24T15:42:15.000Z</time>
      </trkpt>
      <trkpt lat="43.51552" lon="6.3788">
        <ele>220</ele>
        <time>2021-11-24T15:42:16.000Z</time>
      </trkpt>
      <trkpt lat="43.51551" lon="6.37882">
        <ele>220</ele>
        <time>2021-11-24T15:42:17.000Z</time>
      </trkpt>
      <trkpt lat="43.5155" lon="6.37884">
        <ele>220</ele>
        <time>2021-11-24T15:42:18.000Z</time>
      </trkpt>
      <trkpt lat="43.51549" lon="6.37885">
        <ele>220</ele>
        <time>2021-11-24T15:42:19.000Z</time>
      </trkpt>
      <trkpt lat="43.51548" lon="6.37887">
        <ele>219</ele>
        <time>2021-11-24T15:42:20.000Z</time>
      </trkpt>
      <trkpt lat="43.51547" lon="6.37888">
        <ele>219</ele>
        <time>2021-11-24T15:42:21.000Z</time>
      </trkpt>
      <trkpt lat="43.51546" lon="6.37889">
        <ele>218</ele>
        <time>2021-11-24T15:42:22.000Z</time>
      </trkpt>
      <trkpt lat="43.51545" lon="6.3789">
        <ele>218</ele>
        <time>2021-11-24T15:42:23.000Z</time>
      </trkpt>
      <trkpt lat="43.51544" lon="6.37892">
        <ele>218</ele>
        <time>2021-11-24T15:42:24.000Z</time>
      </trkpt>
      <trkpt lat="43.51542" lon="6.37894">
        <ele>218</ele>
        <time>2021-11-24T15:42:25.000Z</time>
      </trkpt>
      <trkpt lat="43.5154" lon="6.37896">
        <ele>218</ele>
        <time>2021-11-24T15:42:26.000Z</time>
      </trkpt>
      <trkpt lat="43.51539" lon="6.37898">
        <ele>217</ele>
        <time>2021-11-24T15:42:27.000Z</time>
      </trkpt>
      <trkpt lat="43.51538" lon="6.37899">
        <ele>217</ele>
        <time>2021-11-24T15:42:28.000Z</time>
      </trkpt>
      <trkpt lat="43.51537" lon="6.37901">
        <ele>217</ele>
        <time>2021-11-24T15:42:29.000Z</time>
      </trkpt>
      <trkpt lat="43.51536" lon="6.37903">
        <ele>217</ele>
        <time>2021-11-24T15:42:30.000Z</time>
      </trkpt>
      <trkpt lat="43.51535" lon="6.37904">
        <ele>217</ele>
        <time>2021-11-24T15:42:31.000Z</time>
      </trkpt>
      <trkpt lat="43.51533" lon="6.37906">
        <ele>218</ele>
        <time>2021-11-24T15:42:32.000Z</time>
      </trkpt>
      <trkpt lat="43.51533" lon="6.37907">
        <ele>218</ele>
        <time>2021-11-24T15:42:33.000Z</time>
      </trkpt>
      <trkpt lat="43.51532" lon="6.37908">
        <ele>218</ele>
        <time>2021-11-24T15:42:34.000Z</time>
      </trkpt>
      <trkpt lat="43.51531" lon="6.37909">
        <ele>218</ele>
        <time>2021-11-24T15:42:35.000Z</time>
      </trkpt>
      <trkpt lat="43.5153" lon="6.37909">
        <ele>218</ele>
        <time>2021-11-24T15:42:36.000Z</time>
      </trkpt>
      <trkpt lat="43.51529" lon="6.3791">
        <ele>218</ele>
        <time>2021-11-24T15:42:37.000Z</time>
      </trkpt>
      <trkpt lat="43.51528" lon="6.37911">
        <ele>218</ele>
        <time>2021-11-24T15:42:38.000Z</time>
      </trkpt>
      <trkpt lat="43.51528" lon="6.37912">
        <ele>218</ele>
        <time>2021-11-24T15:42:39.000Z</time>
      </trkpt>
      <trkpt lat="43.51527" lon="6.37913">
        <ele>218</ele>
        <time>2021-11-24T15:42:40.000Z</time>
      </trkpt>
      <trkpt lat="43.51526" lon="6.37914">
        <ele>218</ele>
        <time>2021-11-24T15:42:41.000Z</time>
      </trkpt>
      <trkpt lat="43.51525" lon="6.37914">
        <ele>218</ele>
        <time>2021-11-24T15:42:42.000Z</time>
      </trkpt>
      <trkpt lat="43.51525" lon="6.37915">
        <ele>218</ele>
        <time>2021-11-24T15:42:43.000Z</time>
      </trkpt>
      <trkpt lat="43.51524" lon="6.37915">
        <ele>218</ele>
        <time>2021-11-24T15:42:44.000Z</time>
      </trkpt>
      <trkpt lat="43.51523" lon="6.37916">
        <ele>218</ele>
        <time>2021-11-24T15:42:45.000Z</time>
      </trkpt>
      <trkpt lat="43.51523" lon="6.37917">
        <ele>218</ele>
        <time>2021-11-24T15:42:46.000Z</time>
      </trkpt>
      <trkpt lat="43.51522" lon="6.37918">
        <ele>218</ele>
        <time>2021-11-24T15:42:47.000Z</time>
      </trkpt>
      <trkpt lat="43.51521" lon="6.37918">
        <ele>218</ele>
        <time>2021-11-24T15:42:48.000Z</time>
      </trkpt>
      <trkpt lat="43.5152" lon="6.37919">
        <ele>218</ele>
        <time>2021-11-24T15:42:49.000Z</time>
      </trkpt>
      <trkpt lat="43.51519" lon="6.3792">
        <ele>218</ele>
        <time>2021-11-24T15:42:50.000Z</time>
      </trkpt>
      <trkpt lat="43.51518" lon="6.37921">
        <ele>218</ele>
        <time>2021-11-24T15:42:51.000Z</time>
      </trkpt>
      <trkpt lat="43.51517" lon="6.37922">
        <ele>219</ele>
        <time>2021-11-24T15:42:52.000Z</time>
      </trkpt>
      <trkpt lat="43.51516" lon="6.37922">
        <ele>219</ele>
        <time>2021-11-24T15:42:53.000Z</time>
      </trkpt>
      <trkpt lat="43.51515" lon="6.37923">
        <ele>219</ele>
        <time>2021-11-24T15:42:54.000Z</time>
      </trkpt>
      <trkpt lat="43.51514" lon="6.37923">
        <ele>219</ele>
        <time>2021-11-24T15:42:55.000Z</time>
      </trkpt>
      <trkpt lat="43.51513" lon="6.37924">
        <ele>219</ele>
        <time>2021-11-24T15:42:56.000Z</time>
      </trkpt>
      <trkpt lat="43.51512" lon="6.37924">
        <ele>219</ele>
        <time>2021-11-24T15:42:57.000Z</time>
      </trkpt>
      <trkpt lat="43.51511" lon="6.37925">
        <ele>218</ele>
        <time>2021-11-24T15:42:58.000Z</time>
      </trkpt>
      <trkpt lat="43.5151" lon="6.37925">
        <ele>218</ele>
        <time>2021-11-24T15:42:59.000Z</time>
      </trkpt>
      <trkpt lat="43.51509" lon="6.37925">
        <ele>218</ele>
        <time>2021-11-24T15:43:00.000Z</time>
      </trkpt>
      <trkpt lat="43.51508" lon="6.37925">
        <ele>218</ele>
        <time>2021-11-24T15:43:01.000Z</time>
      </trkpt>
      <trkpt lat="43.51507" lon="6.37926">
        <ele>218</ele>
        <time>2021-11-24T15:43:02.000Z</time>
      </trkpt>
      <trkpt lat="43.51506" lon="6.37927">
        <ele>218</ele>
        <time>2021-11-24T15:43:03.000Z</time>
      </trkpt>
      <trkpt lat="43.51505" lon="6.37927">
        <ele>218</ele>
        <time>2021-11-24T15:43:04.000Z</time>
      </trkpt>
      <trkpt lat="43.51504" lon="6.37927">
        <ele>218</ele>
        <time>2021-11-24T15:43:05.000Z</time>
      </trkpt>
      <trkpt lat="43.51503" lon="6.37926">
        <ele>218</ele>
        <time>2021-11-24T15:43:06.000Z</time>
      </trkpt>
      <trkpt lat="43.51502" lon="6.37926">
        <ele>217</ele>
        <time>2021-11-24T15:43:07.000Z</time>
      </trkpt>
      <trkpt lat="43.51501" lon="6.37925">
        <ele>217</ele>
        <time>2021-11-24T15:43:08.000Z</time>
      </trkpt>
      <trkpt lat="43.51501" lon="6.37924">
        <ele>217</ele>
        <time>2021-11-24T15:43:09.000Z</time>
      </trkpt>
      <trkpt lat="43.515" lon="6.37922">
        <ele>217</ele>
        <time>2021-11-24T15:43:10.000Z</time>
      </trkpt>
      <trkpt lat="43.515" lon="6.37921">
        <ele>217</ele>
        <time>2021-11-24T15:43:11.000Z</time>
      </trkpt>
      <trkpt lat="43.51501" lon="6.3792">
        <ele>217</ele>
        <time>2021-11-24T15:43:12.000Z</time>
      </trkpt>
      <trkpt lat="43.51501" lon="6.37919">
        <ele>217</ele>
        <time>2021-11-24T15:43:13.000Z</time>
      </trkpt>
      <trkpt lat="43.51502" lon="6.37919">
        <ele>217</ele>
        <time>2021-11-24T15:43:14.000Z</time>
      </trkpt>
      <trkpt lat="43.51503" lon="6.37919">
        <ele>217</ele>
        <time>2021-11-24T15:43:15.000Z</time>
      </trkpt>
      <trkpt lat="43.51503" lon="6.37919">
        <ele>217</ele>
        <time>2021-11-24T15:43:16.000Z</time>
      </trkpt>
      <trkpt lat="43.51503" lon="6.37919">
        <ele>217</ele>
        <time>2021-11-24T15:43:17.000Z</time>
      </trkpt>
      <trkpt lat="43.51503" lon="6.37918">
        <ele>217</ele>
        <time>2021-11-24T15:43:18.000Z</time>
      </trkpt>
      <trkpt lat="43.51503" lon="6.37918">
        <ele>217</ele>
        <time>2021-11-24T15:43:19.000Z</time>
      </trkpt>
      <trkpt lat="43.51503" lon="6.37918">
        <ele>217</ele>
        <time>2021-11-24T15:43:20.000Z</time>
      </trkpt>
      <trkpt lat="43.51504" lon="6.37918">
        <ele>217</ele>
        <time>2021-11-24T15:43:21.000Z</time>
      </trkpt>
      <trkpt lat="43.51504" lon="6.37919">
        <ele>217</ele>
        <time>2021-11-24T15:43:22.000Z</time>
      </trkpt>
      <trkpt lat="43.51504" lon="6.37919">
        <ele>217</ele>
        <time>2021-11-24T15:43:23.000Z</time>
      </trkpt>
      <trkpt lat="43.51504" lon="6.37919">
        <ele>217</ele>
        <time>2021-11-24T15:43:24.000Z</time>
      </trkpt>
      <trkpt lat="43.51504" lon="6.37919">
        <ele>217</ele>
        <time>2021-11-24T15:43:25.000Z</time>
      </trkpt>
      <trkpt lat="43.51504" lon="6.37919">
        <ele>217</ele>
        <time>2021-11-24T15:43:26.000Z</time>
      </trkpt>
      <trkpt lat="43.51504" lon="6.37919">
        <ele>217</ele>
        <time>2021-11-24T15:43:27.000Z</time>
      </trkpt>
      <trkpt lat="43.51504" lon="6.37919">
        <ele>217</ele>
        <time>2021-11-24T15:43:28.000Z</time>
      </trkpt>
      <trkpt lat="43.51504" lon="6.37919">
        <ele>217</ele>
        <time>2021-11-24T15:43:29.000Z</time>
      </trkpt>
      <trkpt lat="43.51504" lon="6.37919">
        <ele>217</ele>
        <time>2021-11-24T15:43:30.000Z</time>
      </trkpt>
      <trkpt lat="43.51504" lon="6.37919">
        <ele>217</ele>
        <time>2021-11-24T15:43:31.000Z</time>
      </trkpt>
      <trkpt lat="43.51504" lon="6.37919">
        <ele>217</ele>
        <time>2021-11-24T15:43:32.000Z</time>
      </trkpt>
      <trkpt lat="43.51504" lon="6.37919">
        <ele>217</ele>
        <time>2021-11-24T15:43:33.000Z</time>
      </trkpt>
      <trkpt lat="43.51504" lon="6.37919">
        <ele>217</ele>
        <time>2021-11-24T15:43:34.000Z</time>
      </trkpt>
      <trkpt lat="43.51504" lon="6.37919">
        <ele>217</ele>
        <time>2021-11-24T15:43:35.000Z</time>
      </trkpt>
      <trkpt lat="43.51503" lon="6.37921">
        <ele>217</ele>
        <time>2021-11-24T15:43:36.000Z</time>
      </trkpt>
      <trkpt lat="43.51503" lon="6.37921">
        <ele>217</ele>
        <time>2021-11-24T15:43:37.000Z</time>
      </trkpt>
      <trkpt lat="43.51503" lon="6.37921">
        <ele>217</ele>
        <time>2021-11-24T15:43:38.000Z</time>
      </trkpt>
      <trkpt lat="43.51503" lon="6.3792">
        <ele>217</ele>
        <time>2021-11-24T15:43:39.000Z</time>
      </trkpt>
      <trkpt lat="43.51502" lon="6.37919">
        <ele>217</ele>
        <time>2021-11-24T15:43:40.000Z</time>
      </trkpt>
      <trkpt lat="43.51502" lon="6.37918">
        <ele>217</ele>
        <time>2021-11-24T15:43:41.000Z</time>
      </trkpt>
      <trkpt lat="43.51502" lon="6.37918">
        <ele>217</ele>
        <time>2021-11-24T15:43:42.000Z</time>
      </trkpt>
      <trkpt lat="43.51501" lon="6.37917">
        <ele>217</ele>
        <time>2021-11-24T15:43:43.000Z</time>
      </trkpt>
      <trkpt lat="43.51501" lon="6.37916">
        <ele>217</ele>
        <time>2021-11-24T15:43:44.000Z</time>
      </trkpt>
      <trkpt lat="43.515" lon="6.37915">
        <ele>217</ele>
        <time>2021-11-24T15:43:45.000Z</time>
      </trkpt>
      <trkpt lat="43.515" lon="6.37913">
        <ele>217</ele>
        <time>2021-11-24T15:43:46.000Z</time>
      </trkpt>
      <trkpt lat="43.51499" lon="6.37911">
        <ele>217</ele>
        <time>2021-11-24T15:43:47.000Z</time>
      </trkpt>
      <trkpt lat="43.51499" lon="6.3791">
        <ele>217</ele>
        <time>2021-11-24T15:43:48.000Z</time>
      </trkpt>
      <trkpt lat="43.51498" lon="6.37908">
        <ele>217</ele>
        <time>2021-11-24T15:43:49.000Z</time>
      </trkpt>
      <trkpt lat="43.51498" lon="6.37906">
        <ele>218</ele>
        <time>2021-11-24T15:43:50.000Z</time>
      </trkpt>
      <trkpt lat="43.51497" lon="6.37904">
        <ele>218</ele>
        <time>2021-11-24T15:43:51.000Z</time>
      </trkpt>
      <trkpt lat="43.51496" lon="6.37903">
        <ele>218</ele>
        <time>2021-11-24T15:43:52.000Z</time>
      </trkpt>
      <trkpt lat="43.51496" lon="6.37901">
        <ele>219</ele>
        <time>2021-11-24T15:43:53.000Z</time>
      </trkpt>
      <trkpt lat="43.51495" lon="6.37899">
        <ele>219</ele>
        <time>2021-11-24T15:43:54.000Z</time>
      </trkpt>
      <trkpt lat="43.51494" lon="6.37897">
        <ele>219</ele>
        <time>2021-11-24T15:43:55.000Z</time>
      </trkpt>
      <trkpt lat="43.51493" lon="6.37896">
        <ele>219</ele>
        <time>2021-11-24T15:43:56.000Z</time>
      </trkpt>
      <trkpt lat="43.51492" lon="6.37894">
        <ele>220</ele>
        <time>2021-11-24T15:43:57.000Z</time>
      </trkpt>
      <trkpt lat="43.51492" lon="6.37893">
        <ele>220</ele>
        <time>2021-11-24T15:43:58.000Z</time>
      </trkpt>
      <trkpt lat="43.51492" lon="6.37891">
        <ele>220</ele>
        <time>2021-11-24T15:43:59.000Z</time>
      </trkpt>
      <trkpt lat="43.51491" lon="6.3789">
        <ele>219</ele>
        <time>2021-11-24T15:44:00.000Z</time>
      </trkpt>
      <trkpt lat="43.51491" lon="6.37888">
        <ele>219</ele>
        <time>2021-11-24T15:44:01.000Z</time>
      </trkpt>
      <trkpt lat="43.5149" lon="6.37887">
        <ele>219</ele>
        <time>2021-11-24T15:44:02.000Z</time>
      </trkpt>
      <trkpt lat="43.51489" lon="6.37885">
        <ele>219</ele>
        <time>2021-11-24T15:44:03.000Z</time>
      </trkpt>
      <trkpt lat="43.51488" lon="6.37884">
        <ele>219</ele>
        <time>2021-11-24T15:44:04.000Z</time>
      </trkpt>
      <trkpt lat="43.51487" lon="6.37882">
        <ele>219</ele>
        <time>2021-11-24T15:44:05.000Z</time>
      </trkpt>
      <trkpt lat="43.51486" lon="6.37881">
        <ele>220</ele>
        <time>2021-11-24T15:44:06.000Z</time>
      </trkpt>
      <trkpt lat="43.51485" lon="6.3788">
        <ele>220</ele>
        <time>2021-11-24T15:44:07.000Z</time>
      </trkpt>
      <trkpt lat="43.51484" lon="6.37878">
        <ele>220</ele>
        <time>2021-11-24T15:44:08.000Z</time>
      </trkpt>
      <trkpt lat="43.51483" lon="6.37877">
        <ele>220</ele>
        <time>2021-11-24T15:44:09.000Z</time>
      </trkpt>
      <trkpt lat="43.51483" lon="6.37875">
        <ele>220</ele>
        <time>2021-11-24T15:44:10.000Z</time>
      </trkpt>
      <trkpt lat="43.51482" lon="6.37874">
        <ele>220</ele>
        <time>2021-11-24T15:44:11.000Z</time>
      </trkpt>
      <trkpt lat="43.51481" lon="6.37873">
        <ele>220</ele>
        <time>2021-11-24T15:44:12.000Z</time>
      </trkpt>
      <trkpt lat="43.5148" lon="6.37871">
        <ele>220</ele>
        <time>2021-11-24T15:44:13.000Z</time>
      </trkpt>
      <trkpt lat="43.51479" lon="6.3787">
        <ele>220</ele>
        <time>2021-11-24T15:44:14.000Z</time>
      </trkpt>
      <trkpt lat="43.51478" lon="6.37869">
        <ele>220</ele>
        <time>2021-11-24T15:44:15.000Z</time>
      </trkpt>
      <trkpt lat="43.51477" lon="6.37868">
        <ele>220</ele>
        <time>2021-11-24T15:44:16.000Z</time>
      </trkpt>
      <trkpt lat="43.51476" lon="6.37867">
        <ele>220</ele>
        <time>2021-11-24T15:44:17.000Z</time>
      </trkpt>
      <trkpt lat="43.51475" lon="6.37866">
        <ele>220</ele>
        <time>2021-11-24T15:44:18.000Z</time>
      </trkpt>
      <trkpt lat="43.51474" lon="6.37864">
        <ele>220</ele>
        <time>2021-11-24T15:44:19.000Z</time>
      </trkpt>
      <trkpt lat="43.51474" lon="6.37863">
        <ele>219</ele>
        <time>2021-11-24T15:44:20.000Z</time>
      </trkpt>
      <trkpt lat="43.51473" lon="6.37862">
        <ele>219</ele>
        <time>2021-11-24T15:44:21.000Z</time>
      </trkpt>
      <trkpt lat="43.51472" lon="6.37861">
        <ele>219</ele>
        <time>2021-11-24T15:44:22.000Z</time>
      </trkpt>
      <trkpt lat="43.51471" lon="6.3786">
        <ele>218</ele>
        <time>2021-11-24T15:44:23.000Z</time>
      </trkpt>
      <trkpt lat="43.5147" lon="6.37859">
        <ele>218</ele>
        <time>2021-11-24T15:44:24.000Z</time>
      </trkpt>
      <trkpt lat="43.51469" lon="6.37858">
        <ele>218</ele>
        <time>2021-11-24T15:44:25.000Z</time>
      </trkpt>
      <trkpt lat="43.51468" lon="6.37857">
        <ele>218</ele>
        <time>2021-11-24T15:44:26.000Z</time>
      </trkpt>
      <trkpt lat="43.51468" lon="6.37856">
        <ele>218</ele>
        <time>2021-11-24T15:44:27.000Z</time>
      </trkpt>
      <trkpt lat="43.51467" lon="6.37855">
        <ele>217</ele>
        <time>2021-11-24T15:44:28.000Z</time>
      </trkpt>
      <trkpt lat="43.51466" lon="6.37854">
        <ele>217</ele>
        <time>2021-11-24T15:44:29.000Z</time>
      </trkpt>
      <trkpt lat="43.51466" lon="6.37853">
        <ele>217</ele>
        <time>2021-11-24T15:44:30.000Z</time>
      </trkpt>
      <trkpt lat="43.51465" lon="6.37852">
        <ele>217</ele>
        <time>2021-11-24T15:44:31.000Z</time>
      </trkpt>
      <trkpt lat="43.51464" lon="6.37851">
        <ele>217</ele>
        <time>2021-11-24T15:44:32.000Z</time>
      </trkpt>
      <trkpt lat="43.51463" lon="6.3785">
        <ele>217</ele>
        <time>2021-11-24T15:44:33.000Z</time>
      </trkpt>
      <trkpt lat="43.51463" lon="6.37849">
        <ele>217</ele>
        <time>2021-11-24T15:44:34.000Z</time>
      </trkpt>
      <trkpt lat="43.51462" lon="6.37848">
        <ele>216</ele>
        <time>2021-11-24T15:44:35.000Z</time>
      </trkpt>
      <trkpt lat="43.51461" lon="6.37847">
        <ele>216</ele>
        <time>2021-11-24T15:44:36.000Z</time>
      </trkpt>
      <trkpt lat="43.5146" lon="6.37846">
        <ele>216</ele>
        <time>2021-11-24T15:44:37.000Z</time>
      </trkpt>
      <trkpt lat="43.51459" lon="6.37845">
        <ele>216</ele>
        <time>2021-11-24T15:44:38.000Z</time>
      </trkpt>
      <trkpt lat="43.51459" lon="6.37844">
        <ele>215</ele>
        <time>2021-11-24T15:44:39.000Z</time>
      </trkpt>
      <trkpt lat="43.51458" lon="6.37843">
        <ele>215</ele>
        <time>2021-11-24T15:44:40.000Z</time>
      </trkpt>
      <trkpt lat="43.51457" lon="6.37842">
        <ele>215</ele>
        <time>2021-11-24T15:44:41.000Z</time>
      </trkpt>
      <trkpt lat="43.51456" lon="6.37841">
        <ele>215</ele>
        <time>2021-11-24T15:44:42.000Z</time>
      </trkpt>
      <trkpt lat="43.51456" lon="6.37841">
        <ele>215</ele>
        <time>2021-11-24T15:44:43.000Z</time>
      </trkpt>
      <trkpt lat="43.51455" lon="6.3784">
        <ele>215</ele>
        <time>2021-11-24T15:44:44.000Z</time>
      </trkpt>
      <trkpt lat="43.51455" lon="6.37839">
        <ele>215</ele>
        <time>2021-11-24T15:44:45.000Z</time>
      </trkpt>
      <trkpt lat="43.51454" lon="6.37838">
        <ele>215</ele>
        <time>2021-11-24T15:44:46.000Z</time>
      </trkpt>
      <trkpt lat="43.51453" lon="6.37837">
        <ele>215</ele>
        <time>2021-11-24T15:44:47.000Z</time>
      </trkpt>
      <trkpt lat="43.51452" lon="6.37836">
        <ele>215</ele>
        <time>2021-11-24T15:44:48.000Z</time>
      </trkpt>
      <trkpt lat="43.51452" lon="6.37835">
        <ele>215</ele>
        <time>2021-11-24T15:44:49.000Z</time>
      </trkpt>
      <trkpt lat="43.51451" lon="6.37834">
        <ele>215</ele>
        <time>2021-11-24T15:44:50.000Z</time>
      </trkpt>
      <trkpt lat="43.5145" lon="6.37833">
        <ele>215</ele>
        <time>2021-11-24T15:44:51.000Z</time>
      </trkpt>
      <trkpt lat="43.51449" lon="6.37832">
        <ele>215</ele>
        <time>2021-11-24T15:44:52.000Z</time>
      </trkpt>
      <trkpt lat="43.51449" lon="6.37831">
        <ele>215</ele>
        <time>2021-11-24T15:44:53.000Z</time>
      </trkpt>
      <trkpt lat="43.51448" lon="6.37831">
        <ele>215</ele>
        <time>2021-11-24T15:44:54.000Z</time>
      </trkpt>
      <trkpt lat="43.51447" lon="6.3783">
        <ele>215</ele>
        <time>2021-11-24T15:44:55.000Z</time>
      </trkpt>
      <trkpt lat="43.51446" lon="6.37829">
        <ele>215</ele>
        <time>2021-11-24T15:44:56.000Z</time>
      </trkpt>
      <trkpt lat="43.51446" lon="6.37828">
        <ele>215</ele>
        <time>2021-11-24T15:44:57.000Z</time>
      </trkpt>
      <trkpt lat="43.51445" lon="6.37827">
        <ele>215</ele>
        <time>2021-11-24T15:44:58.000Z</time>
      </trkpt>
      <trkpt lat="43.51444" lon="6.37826">
        <ele>215</ele>
        <time>2021-11-24T15:44:59.000Z</time>
      </trkpt>
      <trkpt lat="43.51444" lon="6.37826">
        <ele>215</ele>
        <time>2021-11-24T15:45:00.000Z</time>
      </trkpt>
      <trkpt lat="43.51444" lon="6.37825">
        <ele>215</ele>
        <time>2021-11-24T15:45:01.000Z</time>
      </trkpt>
      <trkpt lat="43.51444" lon="6.37825">
        <ele>215</ele>
        <time>2021-11-24T15:45:02.000Z</time>
      </trkpt>
      <trkpt lat="43.51443" lon="6.37824">
        <ele>215</ele>
        <time>2021-11-24T15:45:03.000Z</time>
      </trkpt>
      <trkpt lat="43.51442" lon="6.37824">
        <ele>215</ele>
        <time>2021-11-24T15:45:04.000Z</time>
      </trkpt>
      <trkpt lat="43.51441" lon="6.37824">
        <ele>215</ele>
        <time>2021-11-24T15:45:05.000Z</time>
      </trkpt>
      <trkpt lat="43.5144" lon="6.37824">
        <ele>215</ele>
        <time>2021-11-24T15:45:06.000Z</time>
      </trkpt>
      <trkpt lat="43.51439" lon="6.37824">
        <ele>215</ele>
        <time>2021-11-24T15:45:07.000Z</time>
      </trkpt>
      <trkpt lat="43.51438" lon="6.37823">
        <ele>215</ele>
        <time>2021-11-24T15:45:08.000Z</time>
      </trkpt>
      <trkpt lat="43.51437" lon="6.37823">
        <ele>215</ele>
        <time>2021-11-24T15:45:09.000Z</time>
      </trkpt>
      <trkpt lat="43.51435" lon="6.37822">
        <ele>215</ele>
        <time>2021-11-24T15:45:10.000Z</time>
      </trkpt>
      <trkpt lat="43.51434" lon="6.37821">
        <ele>215</ele>
        <time>2021-11-24T15:45:11.000Z</time>
      </trkpt>
      <trkpt lat="43.51433" lon="6.37821">
        <ele>215</ele>
        <time>2021-11-24T15:45:12.000Z</time>
      </trkpt>
      <trkpt lat="43.51432" lon="6.37821">
        <ele>215</ele>
        <time>2021-11-24T15:45:13.000Z</time>
      </trkpt>
      <trkpt lat="43.51431" lon="6.37821">
        <ele>215</ele>
        <time>2021-11-24T15:45:14.000Z</time>
      </trkpt>
      <trkpt lat="43.5143" lon="6.3782">
        <ele>215</ele>
        <time>2021-11-24T15:45:15.000Z</time>
      </trkpt>
      <trkpt lat="43.51429" lon="6.37819">
        <ele>215</ele>
        <time>2021-11-24T15:45:16.000Z</time>
      </trkpt>
      <trkpt lat="43.51428" lon="6.37819">
        <ele>215</ele>
        <time>2021-11-24T15:45:17.000Z</time>
      </trkpt>
      <trkpt lat="43.51426" lon="6.37819">
        <ele>215</ele>
        <time>2021-11-24T15:45:18.000Z</time>
      </trkpt>
      <trkpt lat="43.51425" lon="6.37819">
        <ele>215</ele>
        <time>2021-11-24T15:45:19.000Z</time>
      </trkpt>
      <trkpt lat="43.51423" lon="6.37819">
        <ele>215</ele>
        <time>2021-11-24T15:45:20.000Z</time>
      </trkpt>
      <trkpt lat="43.51422" lon="6.3782">
        <ele>215</ele>
        <time>2021-11-24T15:45:21.000Z</time>
      </trkpt>
      <trkpt lat="43.5142" lon="6.3782">
        <ele>215</ele>
        <time>2021-11-24T15:45:22.000Z</time>
      </trkpt>
      <trkpt lat="43.51419" lon="6.3782">
        <ele>215</ele>
        <time>2021-11-24T15:45:23.000Z</time>
      </trkpt>
      <trkpt lat="43.51418" lon="6.3782">
        <ele>215</ele>
        <time>2021-11-24T15:45:24.000Z</time>
      </trkpt>
      <trkpt lat="43.51417" lon="6.3782">
        <ele>214</ele>
        <time>2021-11-24T15:45:25.000Z</time>
      </trkpt>
      <trkpt lat="43.51416" lon="6.3782">
        <ele>214</ele>
        <time>2021-11-24T15:45:26.000Z</time>
      </trkpt>
      <trkpt lat="43.51414" lon="6.37819">
        <ele>214</ele>
        <time>2021-11-24T15:45:27.000Z</time>
      </trkpt>
      <trkpt lat="43.51413" lon="6.37819">
        <ele>214</ele>
        <time>2021-11-24T15:45:28.000Z</time>
      </trkpt>
      <trkpt lat="43.51412" lon="6.37818">
        <ele>214</ele>
        <time>2021-11-24T15:45:29.000Z</time>
      </trkpt>
      <trkpt lat="43.51411" lon="6.37818">
        <ele>214</ele>
        <time>2021-11-24T15:45:30.000Z</time>
      </trkpt>
      <trkpt lat="43.51411" lon="6.37817">
        <ele>214</ele>
        <time>2021-11-24T15:45:31.000Z</time>
      </trkpt>
      <trkpt lat="43.5141" lon="6.37817">
        <ele>214</ele>
        <time>2021-11-24T15:45:32.000Z</time>
      </trkpt>
      <trkpt lat="43.51409" lon="6.37817">
        <ele>214</ele>
        <time>2021-11-24T15:45:33.000Z</time>
      </trkpt>
      <trkpt lat="43.51407" lon="6.37817">
        <ele>214</ele>
        <time>2021-11-24T15:45:34.000Z</time>
      </trkpt>
      <trkpt lat="43.51406" lon="6.37816">
        <ele>213</ele>
        <time>2021-11-24T15:45:35.000Z</time>
      </trkpt>
      <trkpt lat="43.51405" lon="6.37816">
        <ele>213</ele>
        <time>2021-11-24T15:45:36.000Z</time>
      </trkpt>
      <trkpt lat="43.51404" lon="6.37815">
        <ele>213</ele>
        <time>2021-11-24T15:45:37.000Z</time>
      </trkpt>
      <trkpt lat="43.51403" lon="6.37815">
        <ele>213</ele>
        <time>2021-11-24T15:45:38.000Z</time>
      </trkpt>
      <trkpt lat="43.51402" lon="6.37815">
        <ele>213</ele>
        <time>2021-11-24T15:45:39.000Z</time>
      </trkpt>
      <trkpt lat="43.51401" lon="6.37814">
        <ele>212</ele>
        <time>2021-11-24T15:45:40.000Z</time>
      </trkpt>
      <trkpt lat="43.514" lon="6.37814">
        <ele>212</ele>
        <time>2021-11-24T15:45:41.000Z</time>
      </trkpt>
      <trkpt lat="43.51399" lon="6.37814">
        <ele>212</ele>
        <time>2021-11-24T15:45:42.000Z</time>
      </trkpt>
      <trkpt lat="43.51397" lon="6.37814">
        <ele>212</ele>
        <time>2021-11-24T15:45:43.000Z</time>
      </trkpt>
      <trkpt lat="43.51395" lon="6.37815">
        <ele>213</ele>
        <time>2021-11-24T15:45:44.000Z</time>
      </trkpt>
      <trkpt lat="43.51394" lon="6.37815">
        <ele>213</ele>
        <time>2021-11-24T15:45:45.000Z</time>
      </trkpt>
      <trkpt lat="43.51393" lon="6.37814">
        <ele>213</ele>
        <time>2021-11-24T15:45:46.000Z</time>
      </trkpt>
      <trkpt lat="43.51392" lon="6.37814">
        <ele>213</ele>
        <time>2021-11-24T15:45:47.000Z</time>
      </trkpt>
      <trkpt lat="43.51391" lon="6.37814">
        <ele>213</ele>
        <time>2021-11-24T15:45:48.000Z</time>
      </trkpt>
      <trkpt lat="43.5139" lon="6.37814">
        <ele>214</ele>
        <time>2021-11-24T15:45:49.000Z</time>
      </trkpt>
      <trkpt lat="43.51388" lon="6.37813">
        <ele>214</ele>
        <time>2021-11-24T15:45:50.000Z</time>
      </trkpt>
      <trkpt lat="43.51387" lon="6.37813">
        <ele>214</ele>
        <time>2021-11-24T15:45:51.000Z</time>
      </trkpt>
      <trkpt lat="43.51386" lon="6.37813">
        <ele>214</ele>
        <time>2021-11-24T15:45:52.000Z</time>
      </trkpt>
      <trkpt lat="43.51385" lon="6.37813">
        <ele>214</ele>
        <time>2021-11-24T15:45:53.000Z</time>
      </trkpt>
      <trkpt lat="43.51384" lon="6.37812">
        <ele>214</ele>
        <time>2021-11-24T15:45:54.000Z</time>
      </trkpt>
      <trkpt lat="43.51384" lon="6.37812">
        <ele>215</ele>
        <time>2021-11-24T15:45:55.000Z</time>
      </trkpt>
      <trkpt lat="43.51383" lon="6.37812">
        <ele>215</ele>
        <time>2021-11-24T15:45:56.000Z</time>
      </trkpt>
      <trkpt lat="43.51382" lon="6.37813">
        <ele>215</ele>
        <time>2021-11-24T15:45:57.000Z</time>
      </trkpt>
      <trkpt lat="43.51381" lon="6.37813">
        <ele>215</ele>
        <time>2021-11-24T15:45:58.000Z</time>
      </trkpt>
      <trkpt lat="43.5138" lon="6.37813">
        <ele>215</ele>
        <time>2021-11-24T15:45:59.000Z</time>
      </trkpt>
      <trkpt lat="43.51379" lon="6.37812">
        <ele>215</ele>
        <time>2021-11-24T15:46:00.000Z</time>
      </trkpt>
      <trkpt lat="43.51378" lon="6.37812">
        <ele>215</ele>
        <time>2021-11-24T15:46:01.000Z</time>
      </trkpt>
      <trkpt lat="43.51377" lon="6.37812">
        <ele>215</ele>
        <time>2021-11-24T15:46:02.000Z</time>
      </trkpt>
      <trkpt lat="43.51376" lon="6.37812">
        <ele>215</ele>
        <time>2021-11-24T15:46:03.000Z</time>
      </trkpt>
      <trkpt lat="43.51376" lon="6.37812">
        <ele>215</ele>
        <time>2021-11-24T15:46:04.000Z</time>
      </trkpt>
      <trkpt lat="43.51375" lon="6.37813">
        <ele>215</ele>
        <time>2021-11-24T15:46:05.000Z</time>
      </trkpt>
      <trkpt lat="43.51374" lon="6.37813">
        <ele>215</ele>
        <time>2021-11-24T15:46:06.000Z</time>
      </trkpt>
      <trkpt lat="43.51373" lon="6.37813">
        <ele>215</ele>
        <time>2021-11-24T15:46:07.000Z</time>
      </trkpt>
      <trkpt lat="43.51372" lon="6.37815">
        <ele>215</ele>
        <time>2021-11-24T15:46:08.000Z</time>
      </trkpt>
      <trkpt lat="43.51371" lon="6.37816">
        <ele>215</ele>
        <time>2021-11-24T15:46:09.000Z</time>
      </trkpt>
      <trkpt lat="43.51369" lon="6.37817">
        <ele>216</ele>
        <time>2021-11-24T15:46:10.000Z</time>
      </trkpt>
      <trkpt lat="43.51368" lon="6.37818">
        <ele>216</ele>
        <time>2021-11-24T15:46:11.000Z</time>
      </trkpt>
      <trkpt lat="43.51366" lon="6.3782">
        <ele>216</ele>
        <time>2021-11-24T15:46:12.000Z</time>
      </trkpt>
      <trkpt lat="43.51365" lon="6.3782">
        <ele>217</ele>
        <time>2021-11-24T15:46:13.000Z</time>
      </trkpt>
      <trkpt lat="43.51364" lon="6.3782">
        <ele>217</ele>
        <time>2021-11-24T15:46:14.000Z</time>
      </trkpt>
      <trkpt lat="43.51363" lon="6.3782">
        <ele>217</ele>
        <time>2021-11-24T15:46:15.000Z</time>
      </trkpt>
      <trkpt lat="43.51361" lon="6.37821">
        <ele>218</ele>
        <time>2021-11-24T15:46:16.000Z</time>
      </trkpt>
      <trkpt lat="43.5136" lon="6.37821">
        <ele>218</ele>
        <time>2021-11-24T15:46:17.000Z</time>
      </trkpt>
      <trkpt lat="43.51359" lon="6.3782">
        <ele>218</ele>
        <time>2021-11-24T15:46:18.000Z</time>
      </trkpt>
      <trkpt lat="43.51358" lon="6.3782">
        <ele>218</ele>
        <time>2021-11-24T15:46:19.000Z</time>
      </trkpt>
      <trkpt lat="43.51356" lon="6.3782">
        <ele>218</ele>
        <time>2021-11-24T15:46:20.000Z</time>
      </trkpt>
      <trkpt lat="43.51355" lon="6.3782">
        <ele>218</ele>
        <time>2021-11-24T15:46:21.000Z</time>
      </trkpt>
      <trkpt lat="43.51354" lon="6.3782">
        <ele>218</ele>
        <time>2021-11-24T15:46:22.000Z</time>
      </trkpt>
      <trkpt lat="43.51352" lon="6.37821">
        <ele>218</ele>
        <time>2021-11-24T15:46:23.000Z</time>
      </trkpt>
      <trkpt lat="43.51351" lon="6.37822">
        <ele>219</ele>
        <time>2021-11-24T15:46:24.000Z</time>
      </trkpt>
      <trkpt lat="43.51349" lon="6.37823">
        <ele>219</ele>
        <time>2021-11-24T15:46:25.000Z</time>
      </trkpt>
      <trkpt lat="43.51348" lon="6.37825">
        <ele>219</ele>
        <time>2021-11-24T15:46:26.000Z</time>
      </trkpt>
      <trkpt lat="43.51347" lon="6.37825">
        <ele>220</ele>
        <time>2021-11-24T15:46:27.000Z</time>
      </trkpt>
      <trkpt lat="43.51345" lon="6.37825">
        <ele>220</ele>
        <time>2021-11-24T15:46:28.000Z</time>
      </trkpt>
      <trkpt lat="43.51344" lon="6.37826">
        <ele>221</ele>
        <time>2021-11-24T15:46:29.000Z</time>
      </trkpt>
      <trkpt lat="43.51343" lon="6.37826">
        <ele>221</ele>
        <time>2021-11-24T15:46:30.000Z</time>
      </trkpt>
      <trkpt lat="43.51342" lon="6.37826">
        <ele>221</ele>
        <time>2021-11-24T15:46:31.000Z</time>
      </trkpt>
      <trkpt lat="43.51341" lon="6.37826">
        <ele>221</ele>
        <time>2021-11-24T15:46:32.000Z</time>
      </trkpt>
      <trkpt lat="43.5134" lon="6.37827">
        <ele>221</ele>
        <time>2021-11-24T15:46:33.000Z</time>
      </trkpt>
      <trkpt lat="43.51338" lon="6.37827">
        <ele>221</ele>
        <time>2021-11-24T15:46:34.000Z</time>
      </trkpt>
      <trkpt lat="43.51337" lon="6.37827">
        <ele>221</ele>
        <time>2021-11-24T15:46:35.000Z</time>
      </trkpt>
      <trkpt lat="43.51336" lon="6.37828">
        <ele>222</ele>
        <time>2021-11-24T15:46:36.000Z</time>
      </trkpt>
      <trkpt lat="43.51335" lon="6.37828">
        <ele>222</ele>
        <time>2021-11-24T15:46:37.000Z</time>
      </trkpt>
      <trkpt lat="43.51333" lon="6.37829">
        <ele>222</ele>
        <time>2021-11-24T15:46:38.000Z</time>
      </trkpt>
      <trkpt lat="43.51332" lon="6.37829">
        <ele>222</ele>
        <time>2021-11-24T15:46:39.000Z</time>
      </trkpt>
      <trkpt lat="43.51331" lon="6.37829">
        <ele>222</ele>
        <time>2021-11-24T15:46:40.000Z</time>
      </trkpt>
      <trkpt lat="43.5133" lon="6.3783">
        <ele>223</ele>
        <time>2021-11-24T15:46:41.000Z</time>
      </trkpt>
      <trkpt lat="43.51329" lon="6.3783">
        <ele>223</ele>
        <time>2021-11-24T15:46:42.000Z</time>
      </trkpt>
      <trkpt lat="43.51328" lon="6.3783">
        <ele>223</ele>
        <time>2021-11-24T15:46:43.000Z</time>
      </trkpt>
      <trkpt lat="43.51327" lon="6.37831">
        <ele>223</ele>
        <time>2021-11-24T15:46:44.000Z</time>
      </trkpt>
      <trkpt lat="43.51326" lon="6.37831">
        <ele>223</ele>
        <time>2021-11-24T15:46:45.000Z</time>
      </trkpt>
      <trkpt lat="43.51325" lon="6.37832">
        <ele>223</ele>
        <time>2021-11-24T15:46:46.000Z</time>
      </trkpt>
      <trkpt lat="43.51324" lon="6.37832">
        <ele>223</ele>
        <time>2021-11-24T15:46:47.000Z</time>
      </trkpt>
      <trkpt lat="43.51323" lon="6.37833">
        <ele>223</ele>
        <time>2021-11-24T15:46:48.000Z</time>
      </trkpt>
      <trkpt lat="43.51322" lon="6.37833">
        <ele>222</ele>
        <time>2021-11-24T15:46:49.000Z</time>
      </trkpt>
      <trkpt lat="43.51321" lon="6.37834">
        <ele>222</ele>
        <time>2021-11-24T15:46:50.000Z</time>
      </trkpt>
      <trkpt lat="43.5132" lon="6.37835">
        <ele>222</ele>
        <time>2021-11-24T15:46:51.000Z</time>
      </trkpt>
      <trkpt lat="43.51319" lon="6.37835">
        <ele>222</ele>
        <time>2021-11-24T15:46:52.000Z</time>
      </trkpt>
      <trkpt lat="43.51319" lon="6.37835">
        <ele>222</ele>
        <time>2021-11-24T15:46:53.000Z</time>
      </trkpt>
      <trkpt lat="43.51318" lon="6.37835">
        <ele>222</ele>
        <time>2021-11-24T15:46:54.000Z</time>
      </trkpt>
      <trkpt lat="43.51317" lon="6.37836">
        <ele>222</ele>
        <time>2021-11-24T15:46:55.000Z</time>
      </trkpt>
      <trkpt lat="43.51316" lon="6.37837">
        <ele>222</ele>
        <time>2021-11-24T15:46:56.000Z</time>
      </trkpt>
      <trkpt lat="43.51315" lon="6.37838">
        <ele>222</ele>
        <time>2021-11-24T15:46:57.000Z</time>
      </trkpt>
      <trkpt lat="43.51313" lon="6.37839">
        <ele>221</ele>
        <time>2021-11-24T15:46:58.000Z</time>
      </trkpt>
      <trkpt lat="43.51312" lon="6.37839">
        <ele>221</ele>
        <time>2021-11-24T15:46:59.000Z</time>
      </trkpt>
      <trkpt lat="43.51311" lon="6.37839">
        <ele>221</ele>
        <time>2021-11-24T15:47:00.000Z</time>
      </trkpt>
      <trkpt lat="43.5131" lon="6.3784">
        <ele>221</ele>
        <time>2021-11-24T15:47:01.000Z</time>
      </trkpt>
      <trkpt lat="43.51309" lon="6.3784">
        <ele>221</ele>
        <time>2021-11-24T15:47:02.000Z</time>
      </trkpt>
      <trkpt lat="43.51308" lon="6.37839">
        <ele>221</ele>
        <time>2021-11-24T15:47:03.000Z</time>
      </trkpt>
      <trkpt lat="43.51308" lon="6.37839">
        <ele>221</ele>
        <time>2021-11-24T15:47:04.000Z</time>
      </trkpt>
      <trkpt lat="43.51307" lon="6.37839">
        <ele>221</ele>
        <time>2021-11-24T15:47:05.000Z</time>
      </trkpt>
      <trkpt lat="43.51307" lon="6.37839">
        <ele>221</ele>
        <time>2021-11-24T15:47:06.000Z</time>
      </trkpt>
      <trkpt lat="43.51306" lon="6.37839">
        <ele>221</ele>
        <time>2021-11-24T15:47:07.000Z</time>
      </trkpt>
      <trkpt lat="43.51305" lon="6.37839">
        <ele>221</ele>
        <time>2021-11-24T15:47:08.000Z</time>
      </trkpt>
      <trkpt lat="43.51304" lon="6.3784">
        <ele>221</ele>
        <time>2021-11-24T15:47:09.000Z</time>
      </trkpt>
      <trkpt lat="43.51303" lon="6.37842">
        <ele>221</ele>
        <time>2021-11-24T15:47:10.000Z</time>
      </trkpt>
      <trkpt lat="43.51302" lon="6.37845">
        <ele>221</ele>
        <time>2021-11-24T15:47:11.000Z</time>
      </trkpt>
      <trkpt lat="43.51301" lon="6.37846">
        <ele>221</ele>
        <time>2021-11-24T15:47:12.000Z</time>
      </trkpt>
      <trkpt lat="43.513" lon="6.37846">
        <ele>221</ele>
        <time>2021-11-24T15:47:13.000Z</time>
      </trkpt>
      <trkpt lat="43.51299" lon="6.37847">
        <ele>221</ele>
        <time>2021-11-24T15:47:14.000Z</time>
      </trkpt>
      <trkpt lat="43.51297" lon="6.37847">
        <ele>220</ele>
        <time>2021-11-24T15:47:15.000Z</time>
      </trkpt>
      <trkpt lat="43.51296" lon="6.37848">
        <ele>220</ele>
        <time>2021-11-24T15:47:16.000Z</time>
      </trkpt>
      <trkpt lat="43.51296" lon="6.37848">
        <ele>220</ele>
        <time>2021-11-24T15:47:17.000Z</time>
      </trkpt>
      <trkpt lat="43.51295" lon="6.37849">
        <ele>220</ele>
        <time>2021-11-24T15:47:18.000Z</time>
      </trkpt>
      <trkpt lat="43.51295" lon="6.37849">
        <ele>220</ele>
        <time>2021-11-24T15:47:19.000Z</time>
      </trkpt>
      <trkpt lat="43.51294" lon="6.37849">
        <ele>220</ele>
        <time>2021-11-24T15:47:20.000Z</time>
      </trkpt>
      <trkpt lat="43.51294" lon="6.37849">
        <ele>220</ele>
        <time>2021-11-24T15:47:21.000Z</time>
      </trkpt>
      <trkpt lat="43.51293" lon="6.3785">
        <ele>220</ele>
        <time>2021-11-24T15:47:22.000Z</time>
      </trkpt>
      <trkpt lat="43.51293" lon="6.3785">
        <ele>220</ele>
        <time>2021-11-24T15:47:23.000Z</time>
      </trkpt>
      <trkpt lat="43.51292" lon="6.37851">
        <ele>220</ele>
        <time>2021-11-24T15:47:24.000Z</time>
      </trkpt>
      <trkpt lat="43.51292" lon="6.37851">
        <ele>220</ele>
        <time>2021-11-24T15:47:25.000Z</time>
      </trkpt>
      <trkpt lat="43.51291" lon="6.37852">
        <ele>220</ele>
        <time>2021-11-24T15:47:26.000Z</time>
      </trkpt>
      <trkpt lat="43.51291" lon="6.37852">
        <ele>220</ele>
        <time>2021-11-24T15:47:27.000Z</time>
      </trkpt>
      <trkpt lat="43.5129" lon="6.37852">
        <ele>220</ele>
        <time>2021-11-24T15:47:28.000Z</time>
      </trkpt>
      <trkpt lat="43.51289" lon="6.37853">
        <ele>220</ele>
        <time>2021-11-24T15:47:29.000Z</time>
      </trkpt>
      <trkpt lat="43.51287" lon="6.37854">
        <ele>220</ele>
        <time>2021-11-24T15:47:30.000Z</time>
      </trkpt>
      <trkpt lat="43.51285" lon="6.37855">
        <ele>220</ele>
        <time>2021-11-24T15:47:31.000Z</time>
      </trkpt>
      <trkpt lat="43.51283" lon="6.37856">
        <ele>221</ele>
        <time>2021-11-24T15:47:32.000Z</time>
      </trkpt>
      <trkpt lat="43.51281" lon="6.37858">
        <ele>221</ele>
        <time>2021-11-24T15:47:33.000Z</time>
      </trkpt>
      <trkpt lat="43.5128" lon="6.37859">
        <ele>222</ele>
        <time>2021-11-24T15:47:34.000Z</time>
      </trkpt>
      <trkpt lat="43.51279" lon="6.37859">
        <ele>222</ele>
        <time>2021-11-24T15:47:35.000Z</time>
      </trkpt>
      <trkpt lat="43.51278" lon="6.3786">
        <ele>223</ele>
        <time>2021-11-24T15:47:36.000Z</time>
      </trkpt>
      <trkpt lat="43.51277" lon="6.37861">
        <ele>223</ele>
        <time>2021-11-24T15:47:37.000Z</time>
      </trkpt>
      <trkpt lat="43.51277" lon="6.37862">
        <ele>223</ele>
        <time>2021-11-24T15:47:38.000Z</time>
      </trkpt>
      <trkpt lat="43.51276" lon="6.37862">
        <ele>223</ele>
        <time>2021-11-24T15:47:39.000Z</time>
      </trkpt>
      <trkpt lat="43.51275" lon="6.37863">
        <ele>223</ele>
        <time>2021-11-24T15:47:40.000Z</time>
      </trkpt>
      <trkpt lat="43.51274" lon="6.37864">
        <ele>223</ele>
        <time>2021-11-24T15:47:41.000Z</time>
      </trkpt>
      <trkpt lat="43.51273" lon="6.37865">
        <ele>223</ele>
        <time>2021-11-24T15:47:42.000Z</time>
      </trkpt>
      <trkpt lat="43.51271" lon="6.37866">
        <ele>223</ele>
        <time>2021-11-24T15:47:43.000Z</time>
      </trkpt>
      <trkpt lat="43.5127" lon="6.37867">
        <ele>222</ele>
        <time>2021-11-24T15:47:44.000Z</time>
      </trkpt>
      <trkpt lat="43.51268" lon="6.37869">
        <ele>222</ele>
        <time>2021-11-24T15:47:45.000Z</time>
      </trkpt>
      <trkpt lat="43.51266" lon="6.3787">
        <ele>222</ele>
        <time>2021-11-24T15:47:46.000Z</time>
      </trkpt>
      <trkpt lat="43.51265" lon="6.3787">
        <ele>222</ele>
        <time>2021-11-24T15:47:47.000Z</time>
      </trkpt>
      <trkpt lat="43.51264" lon="6.37871">
        <ele>222</ele>
        <time>2021-11-24T15:47:48.000Z</time>
      </trkpt>
      <trkpt lat="43.51263" lon="6.37871">
        <ele>222</ele>
        <time>2021-11-24T15:47:49.000Z</time>
      </trkpt>
      <trkpt lat="43.51262" lon="6.37872">
        <ele>222</ele>
        <time>2021-11-24T15:47:50.000Z</time>
      </trkpt>
      <trkpt lat="43.51261" lon="6.37873">
        <ele>222</ele>
        <time>2021-11-24T15:47:51.000Z</time>
      </trkpt>
      <trkpt lat="43.5126" lon="6.37874">
        <ele>222</ele>
        <time>2021-11-24T15:47:52.000Z</time>
      </trkpt>
      <trkpt lat="43.51259" lon="6.37874">
        <ele>222</ele>
        <time>2021-11-24T15:47:53.000Z</time>
      </trkpt>
      <trkpt lat="43.51258" lon="6.37875">
        <ele>222</ele>
        <time>2021-11-24T15:47:54.000Z</time>
      </trkpt>
      <trkpt lat="43.51256" lon="6.37876">
        <ele>222</ele>
        <time>2021-11-24T15:47:55.000Z</time>
      </trkpt>
      <trkpt lat="43.51254" lon="6.37878">
        <ele>222</ele>
        <time>2021-11-24T15:47:56.000Z</time>
      </trkpt>
      <trkpt lat="43.51252" lon="6.37879">
        <ele>222</ele>
        <time>2021-11-24T15:47:57.000Z</time>
      </trkpt>
      <trkpt lat="43.5125" lon="6.3788">
        <ele>222</ele>
        <time>2021-11-24T15:47:58.000Z</time>
      </trkpt>
      <trkpt lat="43.51248" lon="6.37882">
        <ele>223</ele>
        <time>2021-11-24T15:47:59.000Z</time>
      </trkpt>
      <trkpt lat="43.51246" lon="6.37883">
        <ele>223</ele>
        <time>2021-11-24T15:48:00.000Z</time>
      </trkpt>
      <trkpt lat="43.51245" lon="6.37884">
        <ele>224</ele>
        <time>2021-11-24T15:48:01.000Z</time>
      </trkpt>
      <trkpt lat="43.51244" lon="6.37886">
        <ele>224</ele>
        <time>2021-11-24T15:48:02.000Z</time>
      </trkpt>
      <trkpt lat="43.51242" lon="6.37887">
        <ele>224</ele>
        <time>2021-11-24T15:48:03.000Z</time>
      </trkpt>
      <trkpt lat="43.51241" lon="6.37888">
        <ele>224</ele>
        <time>2021-11-24T15:48:04.000Z</time>
      </trkpt>
      <trkpt lat="43.5124" lon="6.37889">
        <ele>224</ele>
        <time>2021-11-24T15:48:05.000Z</time>
      </trkpt>
      <trkpt lat="43.51238" lon="6.3789">
        <ele>223</ele>
        <time>2021-11-24T15:48:06.000Z</time>
      </trkpt>
      <trkpt lat="43.51237" lon="6.3789">
        <ele>223</ele>
        <time>2021-11-24T15:48:07.000Z</time>
      </trkpt>
      <trkpt lat="43.51236" lon="6.37891">
        <ele>223</ele>
        <time>2021-11-24T15:48:08.000Z</time>
      </trkpt>
      <trkpt lat="43.51234" lon="6.37892">
        <ele>223</ele>
        <time>2021-11-24T15:48:09.000Z</time>
      </trkpt>
      <trkpt lat="43.51233" lon="6.37893">
        <ele>223</ele>
        <time>2021-11-24T15:48:10.000Z</time>
      </trkpt>
      <trkpt lat="43.51231" lon="6.37894">
        <ele>223</ele>
        <time>2021-11-24T15:48:11.000Z</time>
      </trkpt>
      <trkpt lat="43.5123" lon="6.37895">
        <ele>223</ele>
        <time>2021-11-24T15:48:12.000Z</time>
      </trkpt>
      <trkpt lat="43.51228" lon="6.37896">
        <ele>223</ele>
        <time>2021-11-24T15:48:13.000Z</time>
      </trkpt>
      <trkpt lat="43.51227" lon="6.37897">
        <ele>223</ele>
        <time>2021-11-24T15:48:14.000Z</time>
      </trkpt>
      <trkpt lat="43.51225" lon="6.37897">
        <ele>223</ele>
        <time>2021-11-24T15:48:15.000Z</time>
      </trkpt>
      <trkpt lat="43.51224" lon="6.37898">
        <ele>223</ele>
        <time>2021-11-24T15:48:16.000Z</time>
      </trkpt>
      <trkpt lat="43.51223" lon="6.37899">
        <ele>223</ele>
        <time>2021-11-24T15:48:17.000Z</time>
      </trkpt>
      <trkpt lat="43.51222" lon="6.37899">
        <ele>223</ele>
        <time>2021-11-24T15:48:18.000Z</time>
      </trkpt>
      <trkpt lat="43.5122" lon="6.379">
        <ele>223</ele>
        <time>2021-11-24T15:48:19.000Z</time>
      </trkpt>
      <trkpt lat="43.51219" lon="6.37901">
        <ele>224</ele>
        <time>2021-11-24T15:48:20.000Z</time>
      </trkpt>
      <trkpt lat="43.51218" lon="6.37902">
        <ele>224</ele>
        <time>2021-11-24T15:48:21.000Z</time>
      </trkpt>
      <trkpt lat="43.51217" lon="6.37903">
        <ele>224</ele>
        <time>2021-11-24T15:48:22.000Z</time>
      </trkpt>
      <trkpt lat="43.51215" lon="6.37903">
        <ele>224</ele>
        <time>2021-11-24T15:48:23.000Z</time>
      </trkpt>
      <trkpt lat="43.51214" lon="6.37903">
        <ele>224</ele>
        <time>2021-11-24T15:48:24.000Z</time>
      </trkpt>
      <trkpt lat="43.51214" lon="6.37902">
        <ele>224</ele>
        <time>2021-11-24T15:48:25.000Z</time>
      </trkpt>
      <trkpt lat="43.51214" lon="6.37901">
        <ele>224</ele>
        <time>2021-11-24T15:48:26.000Z</time>
      </trkpt>
      <trkpt lat="43.51213" lon="6.37902">
        <ele>224</ele>
        <time>2021-11-24T15:48:27.000Z</time>
      </trkpt>
      <trkpt lat="43.51213" lon="6.37902">
        <ele>224</ele>
        <time>2021-11-24T15:48:28.000Z</time>
      </trkpt>
      <trkpt lat="43.51212" lon="6.37903">
        <ele>224</ele>
        <time>2021-11-24T15:48:29.000Z</time>
      </trkpt>
      <trkpt lat="43.51211" lon="6.37904">
        <ele>224</ele>
        <time>2021-11-24T15:48:30.000Z</time>
      </trkpt>
      <trkpt lat="43.51211" lon="6.37905">
        <ele>224</ele>
        <time>2021-11-24T15:48:31.000Z</time>
      </trkpt>
      <trkpt lat="43.5121" lon="6.37907">
        <ele>225</ele>
        <time>2021-11-24T15:48:32.000Z</time>
      </trkpt>
      <trkpt lat="43.51209" lon="6.37908">
        <ele>225</ele>
        <time>2021-11-24T15:48:33.000Z</time>
      </trkpt>
      <trkpt lat="43.51209" lon="6.37909">
        <ele>226</ele>
        <time>2021-11-24T15:48:34.000Z</time>
      </trkpt>
      <trkpt lat="43.51208" lon="6.37909">
        <ele>226</ele>
        <time>2021-11-24T15:48:35.000Z</time>
      </trkpt>
      <trkpt lat="43.51207" lon="6.3791">
        <ele>226</ele>
        <time>2021-11-24T15:48:36.000Z</time>
      </trkpt>
      <trkpt lat="43.51206" lon="6.37911">
        <ele>226</ele>
        <time>2021-11-24T15:48:37.000Z</time>
      </trkpt>
      <trkpt lat="43.51206" lon="6.37912">
        <ele>226</ele>
        <time>2021-11-24T15:48:38.000Z</time>
      </trkpt>
      <trkpt lat="43.51205" lon="6.37914">
        <ele>226</ele>
        <time>2021-11-24T15:48:39.000Z</time>
      </trkpt>
      <trkpt lat="43.51205" lon="6.37915">
        <ele>226</ele>
        <time>2021-11-24T15:48:40.000Z</time>
      </trkpt>
      <trkpt lat="43.51204" lon="6.37916">
        <ele>226</ele>
        <time>2021-11-24T15:48:41.000Z</time>
      </trkpt>
      <trkpt lat="43.51204" lon="6.37917">
        <ele>225</ele>
        <time>2021-11-24T15:48:42.000Z</time>
      </trkpt>
      <trkpt lat="43.51204" lon="6.37918">
        <ele>225</ele>
        <time>2021-11-24T15:48:43.000Z</time>
      </trkpt>
      <trkpt lat="43.51203" lon="6.37919">
        <ele>225</ele>
        <time>2021-11-24T15:48:44.000Z</time>
      </trkpt>
      <trkpt lat="43.51202" lon="6.3792">
        <ele>225</ele>
        <time>2021-11-24T15:48:45.000Z</time>
      </trkpt>
      <trkpt lat="43.51202" lon="6.37921">
        <ele>225</ele>
        <time>2021-11-24T15:48:46.000Z</time>
      </trkpt>
      <trkpt lat="43.51201" lon="6.37921">
        <ele>224</ele>
        <time>2021-11-24T15:48:47.000Z</time>
      </trkpt>
      <trkpt lat="43.512" lon="6.37921">
        <ele>223</ele>
        <time>2021-11-24T15:48:48.000Z</time>
      </trkpt>
      <trkpt lat="43.51199" lon="6.37921">
        <ele>223</ele>
        <time>2021-11-24T15:48:49.000Z</time>
      </trkpt>
      <trkpt lat="43.51199" lon="6.37921">
        <ele>223</ele>
        <time>2021-11-24T15:48:50.000Z</time>
      </trkpt>
      <trkpt lat="43.51199" lon="6.3792">
        <ele>223</ele>
        <time>2021-11-24T15:48:51.000Z</time>
      </trkpt>
      <trkpt lat="43.51198" lon="6.37919">
        <ele>223</ele>
        <time>2021-11-24T15:48:52.000Z</time>
      </trkpt>
      <trkpt lat="43.51198" lon="6.37918">
        <ele>223</ele>
        <time>2021-11-24T15:48:53.000Z</time>
      </trkpt>
      <trkpt lat="43.51198" lon="6.37917">
        <ele>223</ele>
        <time>2021-11-24T15:48:54.000Z</time>
      </trkpt>
      <trkpt lat="43.51197" lon="6.37916">
        <ele>223</ele>
        <time>2021-11-24T15:48:55.000Z</time>
      </trkpt>
      <trkpt lat="43.51197" lon="6.37915">
        <ele>223</ele>
        <time>2021-11-24T15:48:56.000Z</time>
      </trkpt>
      <trkpt lat="43.51197" lon="6.37914">
        <ele>223</ele>
        <time>2021-11-24T15:48:57.000Z</time>
      </trkpt>
      <trkpt lat="43.51197" lon="6.37913">
        <ele>223</ele>
        <time>2021-11-24T15:48:58.000Z</time>
      </trkpt>
      <trkpt lat="43.51196" lon="6.37913">
        <ele>223</ele>
        <time>2021-11-24T15:48:59.000Z</time>
      </trkpt>
      <trkpt lat="43.51196" lon="6.37911">
        <ele>223</ele>
        <time>2021-11-24T15:49:00.000Z</time>
      </trkpt>
      <trkpt lat="43.51196" lon="6.3791">
        <ele>223</ele>
        <time>2021-11-24T15:49:01.000Z</time>
      </trkpt>
      <trkpt lat="43.51196" lon="6.3791">
        <ele>223</ele>
        <time>2021-11-24T15:49:02.000Z</time>
      </trkpt>
      <trkpt lat="43.51195" lon="6.37909">
        <ele>223</ele>
        <time>2021-11-24T15:49:03.000Z</time>
      </trkpt>
      <trkpt lat="43.51195" lon="6.37908">
        <ele>223</ele>
        <time>2021-11-24T15:49:04.000Z</time>
      </trkpt>
      <trkpt lat="43.51195" lon="6.37907">
        <ele>223</ele>
        <time>2021-11-24T15:49:05.000Z</time>
      </trkpt>
      <trkpt lat="43.51194" lon="6.37906">
        <ele>223</ele>
        <time>2021-11-24T15:49:06.000Z</time>
      </trkpt>
      <trkpt lat="43.51194" lon="6.37905">
        <ele>223</ele>
        <time>2021-11-24T15:49:07.000Z</time>
      </trkpt>
      <trkpt lat="43.51193" lon="6.37904">
        <ele>223</ele>
        <time>2021-11-24T15:49:08.000Z</time>
      </trkpt>
      <trkpt lat="43.51193" lon="6.37902">
        <ele>223</ele>
        <time>2021-11-24T15:49:09.000Z</time>
      </trkpt>
      <trkpt lat="43.51193" lon="6.37901">
        <ele>223</ele>
        <time>2021-11-24T15:49:10.000Z</time>
      </trkpt>
      <trkpt lat="43.51192" lon="6.379">
        <ele>224</ele>
        <time>2021-11-24T15:49:11.000Z</time>
      </trkpt>
      <trkpt lat="43.51192" lon="6.37899">
        <ele>225</ele>
        <time>2021-11-24T15:49:12.000Z</time>
      </trkpt>
      <trkpt lat="43.51191" lon="6.37898">
        <ele>225</ele>
        <time>2021-11-24T15:49:13.000Z</time>
      </trkpt>
      <trkpt lat="43.51191" lon="6.37897">
        <ele>225</ele>
        <time>2021-11-24T15:49:14.000Z</time>
      </trkpt>
      <trkpt lat="43.51191" lon="6.37896">
        <ele>225</ele>
        <time>2021-11-24T15:49:15.000Z</time>
      </trkpt>
      <trkpt lat="43.5119" lon="6.37895">
        <ele>225</ele>
        <time>2021-11-24T15:49:16.000Z</time>
      </trkpt>
      <trkpt lat="43.5119" lon="6.37894">
        <ele>226</ele>
        <time>2021-11-24T15:49:17.000Z</time>
      </trkpt>
      <trkpt lat="43.5119" lon="6.37893">
        <ele>226</ele>
        <time>2021-11-24T15:49:18.000Z</time>
      </trkpt>
      <trkpt lat="43.51189" lon="6.37892">
        <ele>226</ele>
        <time>2021-11-24T15:49:19.000Z</time>
      </trkpt>
      <trkpt lat="43.51189" lon="6.37891">
        <ele>226</ele>
        <time>2021-11-24T15:49:20.000Z</time>
      </trkpt>
      <trkpt lat="43.51188" lon="6.3789">
        <ele>226</ele>
        <time>2021-11-24T15:49:21.000Z</time>
      </trkpt>
      <trkpt lat="43.51188" lon="6.3789">
        <ele>226</ele>
        <time>2021-11-24T15:49:22.000Z</time>
      </trkpt>
      <trkpt lat="43.51187" lon="6.37889">
        <ele>227</ele>
        <time>2021-11-24T15:49:23.000Z</time>
      </trkpt>
      <trkpt lat="43.51186" lon="6.37888">
        <ele>227</ele>
        <time>2021-11-24T15:49:24.000Z</time>
      </trkpt>
      <trkpt lat="43.51186" lon="6.37887">
        <ele>227</ele>
        <time>2021-11-24T15:49:25.000Z</time>
      </trkpt>
      <trkpt lat="43.51185" lon="6.37887">
        <ele>227</ele>
        <time>2021-11-24T15:49:26.000Z</time>
      </trkpt>
      <trkpt lat="43.51185" lon="6.37886">
        <ele>227</ele>
        <time>2021-11-24T15:49:27.000Z</time>
      </trkpt>
      <trkpt lat="43.51184" lon="6.37886">
        <ele>228</ele>
        <time>2021-11-24T15:49:28.000Z</time>
      </trkpt>
      <trkpt lat="43.51183" lon="6.37886">
        <ele>228</ele>
        <time>2021-11-24T15:49:29.000Z</time>
      </trkpt>
      <trkpt lat="43.51182" lon="6.37887">
        <ele>228</ele>
        <time>2021-11-24T15:49:30.000Z</time>
      </trkpt>
      <trkpt lat="43.51182" lon="6.37886">
        <ele>228</ele>
        <time>2021-11-24T15:49:31.000Z</time>
      </trkpt>
      <trkpt lat="43.51181" lon="6.37887">
        <ele>228</ele>
        <time>2021-11-24T15:49:32.000Z</time>
      </trkpt>
      <trkpt lat="43.51181" lon="6.37888">
        <ele>228</ele>
        <time>2021-11-24T15:49:33.000Z</time>
      </trkpt>
      <trkpt lat="43.5118" lon="6.37889">
        <ele>228</ele>
        <time>2021-11-24T15:49:34.000Z</time>
      </trkpt>
      <trkpt lat="43.5118" lon="6.37889">
        <ele>228</ele>
        <time>2021-11-24T15:49:35.000Z</time>
      </trkpt>
      <trkpt lat="43.51179" lon="6.3789">
        <ele>228</ele>
        <time>2021-11-24T15:49:36.000Z</time>
      </trkpt>
      <trkpt lat="43.51179" lon="6.37891">
        <ele>228</ele>
        <time>2021-11-24T15:49:37.000Z</time>
      </trkpt>
      <trkpt lat="43.51179" lon="6.37892">
        <ele>228</ele>
        <time>2021-11-24T15:49:38.000Z</time>
      </trkpt>
      <trkpt lat="43.51178" lon="6.37894">
        <ele>229</ele>
        <time>2021-11-24T15:49:39.000Z</time>
      </trkpt>
      <trkpt lat="43.51177" lon="6.37895">
        <ele>229</ele>
        <time>2021-11-24T15:49:40.000Z</time>
      </trkpt>
      <trkpt lat="43.51177" lon="6.37895">
        <ele>229</ele>
        <time>2021-11-24T15:49:41.000Z</time>
      </trkpt>
      <trkpt lat="43.51177" lon="6.37896">
        <ele>229</ele>
        <time>2021-11-24T15:49:42.000Z</time>
      </trkpt>
      <trkpt lat="43.51177" lon="6.37897">
        <ele>229</ele>
        <time>2021-11-24T15:49:43.000Z</time>
      </trkpt>
      <trkpt lat="43.51176" lon="6.37899">
        <ele>229</ele>
        <time>2021-11-24T15:49:44.000Z</time>
      </trkpt>
      <trkpt lat="43.51176" lon="6.379">
        <ele>229</ele>
        <time>2021-11-24T15:49:45.000Z</time>
      </trkpt>
      <trkpt lat="43.51175" lon="6.37901">
        <ele>229</ele>
        <time>2021-11-24T15:49:46.000Z</time>
      </trkpt>
      <trkpt lat="43.51175" lon="6.37903">
        <ele>230</ele>
        <time>2021-11-24T15:49:47.000Z</time>
      </trkpt>
      <trkpt lat="43.51174" lon="6.37904">
        <ele>230</ele>
        <time>2021-11-24T15:49:48.000Z</time>
      </trkpt>
      <trkpt lat="43.51174" lon="6.37906">
        <ele>230</ele>
        <time>2021-11-24T15:49:49.000Z</time>
      </trkpt>
      <trkpt lat="43.51173" lon="6.37907">
        <ele>230</ele>
        <time>2021-11-24T15:49:50.000Z</time>
      </trkpt>
      <trkpt lat="43.51172" lon="6.37908">
        <ele>230</ele>
        <time>2021-11-24T15:49:51.000Z</time>
      </trkpt>
      <trkpt lat="43.51172" lon="6.37909">
        <ele>230</ele>
        <time>2021-11-24T15:49:52.000Z</time>
      </trkpt>
      <trkpt lat="43.51172" lon="6.37911">
        <ele>230</ele>
        <time>2021-11-24T15:49:53.000Z</time>
      </trkpt>
      <trkpt lat="43.51172" lon="6.37912">
        <ele>230</ele>
        <time>2021-11-24T15:49:54.000Z</time>
      </trkpt>
      <trkpt lat="43.51172" lon="6.37913">
        <ele>230</ele>
        <time>2021-11-24T15:49:55.000Z</time>
      </trkpt>
      <trkpt lat="43.51171" lon="6.37914">
        <ele>230</ele>
        <time>2021-11-24T15:49:56.000Z</time>
      </trkpt>
      <trkpt lat="43.51171" lon="6.37915">
        <ele>230</ele>
        <time>2021-11-24T15:49:57.000Z</time>
      </trkpt>
      <trkpt lat="43.51171" lon="6.37916">
        <ele>230</ele>
        <time>2021-11-24T15:49:58.000Z</time>
      </trkpt>
      <trkpt lat="43.51171" lon="6.37918">
        <ele>230</ele>
        <time>2021-11-24T15:49:59.000Z</time>
      </trkpt>
      <trkpt lat="43.51171" lon="6.3792">
        <ele>231</ele>
        <time>2021-11-24T15:50:00.000Z</time>
      </trkpt>
      <trkpt lat="43.51171" lon="6.37922">
        <ele>231</ele>
        <time>2021-11-24T15:50:01.000Z</time>
      </trkpt>
      <trkpt lat="43.5117" lon="6.37924">
        <ele>231</ele>
        <time>2021-11-24T15:50:02.000Z</time>
      </trkpt>
      <trkpt lat="43.5117" lon="6.37926">
        <ele>232</ele>
        <time>2021-11-24T15:50:03.000Z</time>
      </trkpt>
      <trkpt lat="43.5117" lon="6.37928">
        <ele>232</ele>
        <time>2021-11-24T15:50:04.000Z</time>
      </trkpt>
      <trkpt lat="43.51169" lon="6.37929">
        <ele>232</ele>
        <time>2021-11-24T15:50:05.000Z</time>
      </trkpt>
      <trkpt lat="43.51169" lon="6.37931">
        <ele>232</ele>
        <time>2021-11-24T15:50:06.000Z</time>
      </trkpt>
      <trkpt lat="43.51169" lon="6.37932">
        <ele>232</ele>
        <time>2021-11-24T15:50:07.000Z</time>
      </trkpt>
      <trkpt lat="43.51169" lon="6.37933">
        <ele>233</ele>
        <time>2021-11-24T15:50:08.000Z</time>
      </trkpt>
      <trkpt lat="43.51168" lon="6.37934">
        <ele>233</ele>
        <time>2021-11-24T15:50:09.000Z</time>
      </trkpt>
      <trkpt lat="43.51167" lon="6.37935">
        <ele>233</ele>
        <time>2021-11-24T15:50:10.000Z</time>
      </trkpt>
      <trkpt lat="43.51167" lon="6.37937">
        <ele>235</ele>
        <time>2021-11-24T15:50:11.000Z</time>
      </trkpt>
      <trkpt lat="43.51166" lon="6.37938">
        <ele>236</ele>
        <time>2021-11-24T15:50:12.000Z</time>
      </trkpt>
      <trkpt lat="43.51165" lon="6.37939">
        <ele>236</ele>
        <time>2021-11-24T15:50:13.000Z</time>
      </trkpt>
      <trkpt lat="43.51165" lon="6.37939">
        <ele>236</ele>
        <time>2021-11-24T15:50:14.000Z</time>
      </trkpt>
      <trkpt lat="43.51164" lon="6.3794">
        <ele>236</ele>
        <time>2021-11-24T15:50:15.000Z</time>
      </trkpt>
      <trkpt lat="43.51164" lon="6.3794">
        <ele>236</ele>
        <time>2021-11-24T15:50:16.000Z</time>
      </trkpt>
      <trkpt lat="43.51163" lon="6.37941">
        <ele>237</ele>
        <time>2021-11-24T15:50:17.000Z</time>
      </trkpt>
      <trkpt lat="43.51163" lon="6.37941">
        <ele>237</ele>
        <time>2021-11-24T15:50:18.000Z</time>
      </trkpt>
      <trkpt lat="43.51162" lon="6.37942">
        <ele>237</ele>
        <time>2021-11-24T15:50:19.000Z</time>
      </trkpt>
      <trkpt lat="43.51162" lon="6.37943">
        <ele>237</ele>
        <time>2021-11-24T15:50:20.000Z</time>
      </trkpt>
      <trkpt lat="43.51162" lon="6.37943">
        <ele>237</ele>
        <time>2021-11-24T15:50:21.000Z</time>
      </trkpt>
      <trkpt lat="43.51161" lon="6.37944">
        <ele>237</ele>
        <time>2021-11-24T15:50:22.000Z</time>
      </trkpt>
      <trkpt lat="43.51162" lon="6.37945">
        <ele>237</ele>
        <time>2021-11-24T15:50:23.000Z</time>
      </trkpt>
      <trkpt lat="43.51162" lon="6.37946">
        <ele>237</ele>
        <time>2021-11-24T15:50:24.000Z</time>
      </trkpt>
      <trkpt lat="43.51161" lon="6.37947">
        <ele>237</ele>
        <time>2021-11-24T15:50:25.000Z</time>
      </trkpt>
      <trkpt lat="43.51161" lon="6.37948">
        <ele>238</ele>
        <time>2021-11-24T15:50:26.000Z</time>
      </trkpt>
      <trkpt lat="43.5116" lon="6.37948">
        <ele>238</ele>
        <time>2021-11-24T15:50:27.000Z</time>
      </trkpt>
      <trkpt lat="43.5116" lon="6.37949">
        <ele>238</ele>
        <time>2021-11-24T15:50:28.000Z</time>
      </trkpt>
      <trkpt lat="43.51159" lon="6.3795">
        <ele>238</ele>
        <time>2021-11-24T15:50:29.000Z</time>
      </trkpt>
      <trkpt lat="43.51159" lon="6.37951">
        <ele>238</ele>
        <time>2021-11-24T15:50:30.000Z</time>
      </trkpt>
      <trkpt lat="43.51158" lon="6.37951">
        <ele>238</ele>
        <time>2021-11-24T15:50:31.000Z</time>
      </trkpt>
      <trkpt lat="43.51158" lon="6.37952">
        <ele>238</ele>
        <time>2021-11-24T15:50:32.000Z</time>
      </trkpt>
      <trkpt lat="43.51157" lon="6.37952">
        <ele>238</ele>
        <time>2021-11-24T15:50:33.000Z</time>
      </trkpt>
      <trkpt lat="43.51157" lon="6.37953">
        <ele>238</ele>
        <time>2021-11-24T15:50:34.000Z</time>
      </trkpt>
      <trkpt lat="43.51157" lon="6.37953">
        <ele>238</ele>
        <time>2021-11-24T15:50:35.000Z</time>
      </trkpt>
      <trkpt lat="43.51156" lon="6.37953">
        <ele>238</ele>
        <time>2021-11-24T15:50:36.000Z</time>
      </trkpt>
      <trkpt lat="43.51156" lon="6.37954">
        <ele>238</ele>
        <time>2021-11-24T15:50:37.000Z</time>
      </trkpt>
      <trkpt lat="43.51155" lon="6.37954">
        <ele>238</ele>
        <time>2021-11-24T15:50:38.000Z</time>
      </trkpt>
      <trkpt lat="43.51155" lon="6.37954">
        <ele>238</ele>
        <time>2021-11-24T15:50:39.000Z</time>
      </trkpt>
      <trkpt lat="43.51155" lon="6.37955">
        <ele>238</ele>
        <time>2021-11-24T15:50:40.000Z</time>
      </trkpt>
      <trkpt lat="43.51155" lon="6.37955">
        <ele>238</ele>
        <time>2021-11-24T15:50:41.000Z</time>
      </trkpt>
      <trkpt lat="43.51154" lon="6.37955">
        <ele>238</ele>
        <time>2021-11-24T15:50:42.000Z</time>
      </trkpt>
      <trkpt lat="43.51154" lon="6.37955">
        <ele>238</ele>
        <time>2021-11-24T15:50:43.000Z</time>
      </trkpt>
      <trkpt lat="43.51154" lon="6.37955">
        <ele>238</ele>
        <time>2021-11-24T15:50:44.000Z</time>
      </trkpt>
      <trkpt lat="43.51154" lon="6.37955">
        <ele>238</ele>
        <time>2021-11-24T15:50:45.000Z</time>
      </trkpt>
      <trkpt lat="43.51154" lon="6.37956">
        <ele>238</ele>
        <time>2021-11-24T15:50:46.000Z</time>
      </trkpt>
      <trkpt lat="43.51153" lon="6.37956">
        <ele>238</ele>
        <time>2021-11-24T15:50:47.000Z</time>
      </trkpt>
      <trkpt lat="43.51153" lon="6.37956">
        <ele>238</ele>
        <time>2021-11-24T15:50:48.000Z</time>
      </trkpt>
      <trkpt lat="43.51153" lon="6.37957">
        <ele>238</ele>
        <time>2021-11-24T15:50:49.000Z</time>
      </trkpt>
      <trkpt lat="43.51153" lon="6.37957">
        <ele>239</ele>
        <time>2021-11-24T15:50:50.000Z</time>
      </trkpt>
      <trkpt lat="43.51153" lon="6.37957">
        <ele>239</ele>
        <time>2021-11-24T15:50:51.000Z</time>
      </trkpt>
      <trkpt lat="43.51153" lon="6.37957">
        <ele>239</ele>
        <time>2021-11-24T15:50:52.000Z</time>
      </trkpt>
      <trkpt lat="43.51153" lon="6.37958">
        <ele>239</ele>
        <time>2021-11-24T15:50:53.000Z</time>
      </trkpt>
      <trkpt lat="43.51153" lon="6.37958">
        <ele>239</ele>
        <time>2021-11-24T15:50:54.000Z</time>
      </trkpt>
      <trkpt lat="43.51152" lon="6.37958">
        <ele>239</ele>
        <time>2021-11-24T15:50:55.000Z</time>
      </trkpt>
      <trkpt lat="43.51152" lon="6.37958">
        <ele>239</ele>
        <time>2021-11-24T15:50:56.000Z</time>
      </trkpt>
      <trkpt lat="43.51151" lon="6.37959">
        <ele>239</ele>
        <time>2021-11-24T15:50:57.000Z</time>
      </trkpt>
      <trkpt lat="43.51151" lon="6.3796">
        <ele>239</ele>
        <time>2021-11-24T15:50:58.000Z</time>
      </trkpt>
      <trkpt lat="43.51151" lon="6.37962">
        <ele>239</ele>
        <time>2021-11-24T15:50:59.000Z</time>
      </trkpt>
      <trkpt lat="43.5115" lon="6.37963">
        <ele>239</ele>
        <time>2021-11-24T15:51:00.000Z</time>
      </trkpt>
      <trkpt lat="43.51149" lon="6.37963">
        <ele>239</ele>
        <time>2021-11-24T15:51:01.000Z</time>
      </trkpt>
      <trkpt lat="43.51149" lon="6.37964">
        <ele>239</ele>
        <time>2021-11-24T15:51:02.000Z</time>
      </trkpt>
      <trkpt lat="43.51148" lon="6.37965">
        <ele>239</ele>
        <time>2021-11-24T15:51:03.000Z</time>
      </trkpt>
      <trkpt lat="43.51147" lon="6.37965">
        <ele>239</ele>
        <time>2021-11-24T15:51:04.000Z</time>
      </trkpt>
      <trkpt lat="43.51147" lon="6.37966">
        <ele>239</ele>
        <time>2021-11-24T15:51:05.000Z</time>
      </trkpt>
      <trkpt lat="43.51146" lon="6.37966">
        <ele>239</ele>
        <time>2021-11-24T15:51:06.000Z</time>
      </trkpt>
      <trkpt lat="43.51146" lon="6.37967">
        <ele>239</ele>
        <time>2021-11-24T15:51:07.000Z</time>
      </trkpt>
      <trkpt lat="43.51146" lon="6.37967">
        <ele>239</ele>
        <time>2021-11-24T15:51:08.000Z</time>
      </trkpt>
      <trkpt lat="43.51145" lon="6.37968">
        <ele>239</ele>
        <time>2021-11-24T15:51:09.000Z</time>
      </trkpt>
      <trkpt lat="43.51144" lon="6.37969">
        <ele>239</ele>
        <time>2021-11-24T15:51:10.000Z</time>
      </trkpt>
      <trkpt lat="43.51143" lon="6.3797">
        <ele>239</ele>
        <time>2021-11-24T15:51:11.000Z</time>
      </trkpt>
      <trkpt lat="43.51142" lon="6.37971">
        <ele>239</ele>
        <time>2021-11-24T15:51:12.000Z</time>
      </trkpt>
      <trkpt lat="43.51142" lon="6.37972">
        <ele>238</ele>
        <time>2021-11-24T15:51:13.000Z</time>
      </trkpt>
      <trkpt lat="43.51141" lon="6.37973">
        <ele>238</ele>
        <time>2021-11-24T15:51:14.000Z</time>
      </trkpt>
      <trkpt lat="43.5114" lon="6.37974">
        <ele>238</ele>
        <time>2021-11-24T15:51:15.000Z</time>
      </trkpt>
      <trkpt lat="43.51139" lon="6.37975">
        <ele>238</ele>
        <time>2021-11-24T15:51:16.000Z</time>
      </trkpt>
      <trkpt lat="43.51138" lon="6.37976">
        <ele>238</ele>
        <time>2021-11-24T15:51:17.000Z</time>
      </trkpt>
      <trkpt lat="43.51137" lon="6.37977">
        <ele>238</ele>
        <time>2021-11-24T15:51:18.000Z</time>
      </trkpt>
      <trkpt lat="43.51136" lon="6.37978">
        <ele>238</ele>
        <time>2021-11-24T15:51:19.000Z</time>
      </trkpt>
      <trkpt lat="43.51135" lon="6.37979">
        <ele>238</ele>
        <time>2021-11-24T15:51:20.000Z</time>
      </trkpt>
      <trkpt lat="43.51134" lon="6.3798">
        <ele>238</ele>
        <time>2021-11-24T15:51:21.000Z</time>
      </trkpt>
      <trkpt lat="43.51132" lon="6.37982">
        <ele>238</ele>
        <time>2021-11-24T15:51:22.000Z</time>
      </trkpt>
      <trkpt lat="43.51131" lon="6.37983">
        <ele>238</ele>
        <time>2021-11-24T15:51:23.000Z</time>
      </trkpt>
      <trkpt lat="43.5113" lon="6.37984">
        <ele>238</ele>
        <time>2021-11-24T15:51:24.000Z</time>
      </trkpt>
      <trkpt lat="43.51129" lon="6.37985">
        <ele>238</ele>
        <time>2021-11-24T15:51:25.000Z</time>
      </trkpt>
      <trkpt lat="43.51128" lon="6.37986">
        <ele>238</ele>
        <time>2021-11-24T15:51:26.000Z</time>
      </trkpt>
      <trkpt lat="43.51127" lon="6.37987">
        <ele>238</ele>
        <time>2021-11-24T15:51:27.000Z</time>
      </trkpt>
      <trkpt lat="43.51126" lon="6.37988">
        <ele>239</ele>
        <time>2021-11-24T15:51:28.000Z</time>
      </trkpt>
      <trkpt lat="43.51125" lon="6.37989">
        <ele>239</ele>
        <time>2021-11-24T15:51:29.000Z</time>
      </trkpt>
      <trkpt lat="43.51124" lon="6.3799">
        <ele>239</ele>
        <time>2021-11-24T15:51:30.000Z</time>
      </trkpt>
      <trkpt lat="43.51123" lon="6.3799">
        <ele>239</ele>
        <time>2021-11-24T15:51:31.000Z</time>
      </trkpt>
      <trkpt lat="43.51123" lon="6.37991">
        <ele>239</ele>
        <time>2021-11-24T15:51:32.000Z</time>
      </trkpt>
      <trkpt lat="43.51122" lon="6.37992">
        <ele>239</ele>
        <time>2021-11-24T15:51:33.000Z</time>
      </trkpt>
      <trkpt lat="43.51121" lon="6.37992">
        <ele>239</ele>
        <time>2021-11-24T15:51:34.000Z</time>
      </trkpt>
      <trkpt lat="43.5112" lon="6.37993">
        <ele>239</ele>
        <time>2021-11-24T15:51:35.000Z</time>
      </trkpt>
      <trkpt lat="43.51119" lon="6.37993">
        <ele>239</ele>
        <time>2021-11-24T15:51:36.000Z</time>
      </trkpt>
      <trkpt lat="43.51117" lon="6.37994">
        <ele>239</ele>
        <time>2021-11-24T15:51:37.000Z</time>
      </trkpt>
      <trkpt lat="43.51116" lon="6.37995">
        <ele>239</ele>
        <time>2021-11-24T15:51:38.000Z</time>
      </trkpt>
      <trkpt lat="43.51115" lon="6.37996">
        <ele>239</ele>
        <time>2021-11-24T15:51:39.000Z</time>
      </trkpt>
      <trkpt lat="43.51113" lon="6.37998">
        <ele>239</ele>
        <time>2021-11-24T15:51:40.000Z</time>
      </trkpt>
      <trkpt lat="43.51112" lon="6.37999">
        <ele>239</ele>
        <time>2021-11-24T15:51:41.000Z</time>
      </trkpt>
      <trkpt lat="43.5111" lon="6.38">
        <ele>239</ele>
        <time>2021-11-24T15:51:42.000Z</time>
      </trkpt>
      <trkpt lat="43.51109" lon="6.38001">
        <ele>239</ele>
        <time>2021-11-24T15:51:43.000Z</time>
      </trkpt>
      <trkpt lat="43.51107" lon="6.38001">
        <ele>239</ele>
        <time>2021-11-24T15:51:44.000Z</time>
      </trkpt>
      <trkpt lat="43.51106" lon="6.38001">
        <ele>239</ele>
        <time>2021-11-24T15:51:45.000Z</time>
      </trkpt>
      <trkpt lat="43.51104" lon="6.38002">
        <ele>239</ele>
        <time>2021-11-24T15:51:46.000Z</time>
      </trkpt>
      <trkpt lat="43.51103" lon="6.38001">
        <ele>239</ele>
        <time>2021-11-24T15:51:47.000Z</time>
      </trkpt>
      <trkpt lat="43.51102" lon="6.38001">
        <ele>239</ele>
        <time>2021-11-24T15:51:48.000Z</time>
      </trkpt>
      <trkpt lat="43.51101" lon="6.38001">
        <ele>240</ele>
        <time>2021-11-24T15:51:49.000Z</time>
      </trkpt>
      <trkpt lat="43.51099" lon="6.38001">
        <ele>240</ele>
        <time>2021-11-24T15:51:50.000Z</time>
      </trkpt>
      <trkpt lat="43.51098" lon="6.38001">
        <ele>240</ele>
        <time>2021-11-24T15:51:51.000Z</time>
      </trkpt>
      <trkpt lat="43.51097" lon="6.38001">
        <ele>240</ele>
        <time>2021-11-24T15:51:52.000Z</time>
      </trkpt>
      <trkpt lat="43.51096" lon="6.38002">
        <ele>240</ele>
        <time>2021-11-24T15:51:53.000Z</time>
      </trkpt>
      <trkpt lat="43.51096" lon="6.38003">
        <ele>240</ele>
        <time>2021-11-24T15:51:54.000Z</time>
      </trkpt>
      <trkpt lat="43.51095" lon="6.38004">
        <ele>240</ele>
        <time>2021-11-24T15:51:55.000Z</time>
      </trkpt>
      <trkpt lat="43.51094" lon="6.38004">
        <ele>241</ele>
        <time>2021-11-24T15:51:56.000Z</time>
      </trkpt>
      <trkpt lat="43.51093" lon="6.38004">
        <ele>241</ele>
        <time>2021-11-24T15:51:57.000Z</time>
      </trkpt>
      <trkpt lat="43.51092" lon="6.38003">
        <ele>241</ele>
        <time>2021-11-24T15:51:58.000Z</time>
      </trkpt>
      <trkpt lat="43.51092" lon="6.38003">
        <ele>241</ele>
        <time>2021-11-24T15:51:59.000Z</time>
      </trkpt>
      <trkpt lat="43.51091" lon="6.38003">
        <ele>241</ele>
        <time>2021-11-24T15:52:00.000Z</time>
      </trkpt>
      <trkpt lat="43.5109" lon="6.38003">
        <ele>241</ele>
        <time>2021-11-24T15:52:01.000Z</time>
      </trkpt>
      <trkpt lat="43.5109" lon="6.38003">
        <ele>241</ele>
        <time>2021-11-24T15:52:02.000Z</time>
      </trkpt>
      <trkpt lat="43.51089" lon="6.38003">
        <ele>241</ele>
        <time>2021-11-24T15:52:03.000Z</time>
      </trkpt>
      <trkpt lat="43.51089" lon="6.38002">
        <ele>241</ele>
        <time>2021-11-24T15:52:04.000Z</time>
      </trkpt>
      <trkpt lat="43.51088" lon="6.38002">
        <ele>241</ele>
        <time>2021-11-24T15:52:05.000Z</time>
      </trkpt>
      <trkpt lat="43.51088" lon="6.38002">
        <ele>241</ele>
        <time>2021-11-24T15:52:06.000Z</time>
      </trkpt>
      <trkpt lat="43.51087" lon="6.38002">
        <ele>241</ele>
        <time>2021-11-24T15:52:07.000Z</time>
      </trkpt>
      <trkpt lat="43.51087" lon="6.38002">
        <ele>241</ele>
        <time>2021-11-24T15:52:08.000Z</time>
      </trkpt>
      <trkpt lat="43.51087" lon="6.38002">
        <ele>241</ele>
        <time>2021-11-24T15:52:09.000Z</time>
      </trkpt>
      <trkpt lat="43.51087" lon="6.38002">
        <ele>241</ele>
        <time>2021-11-24T15:52:10.000Z</time>
      </trkpt>
      <trkpt lat="43.51087" lon="6.38002">
        <ele>241</ele>
        <time>2021-11-24T15:52:11.000Z</time>
      </trkpt>
      <trkpt lat="43.51086" lon="6.38002">
        <ele>242</ele>
        <time>2021-11-24T15:52:12.000Z</time>
      </trkpt>
      <trkpt lat="43.51086" lon="6.38002">
        <ele>242</ele>
        <time>2021-11-24T15:52:13.000Z</time>
      </trkpt>
      <trkpt lat="43.51085" lon="6.38002">
        <ele>242</ele>
        <time>2021-11-24T15:52:14.000Z</time>
      </trkpt>
      <trkpt lat="43.51085" lon="6.38002">
        <ele>242</ele>
        <time>2021-11-24T15:52:15.000Z</time>
      </trkpt>
      <trkpt lat="43.51084" lon="6.38001">
        <ele>242</ele>
        <time>2021-11-24T15:52:16.000Z</time>
      </trkpt>
      <trkpt lat="43.51083" lon="6.38">
        <ele>242</ele>
        <time>2021-11-24T15:52:17.000Z</time>
      </trkpt>
      <trkpt lat="43.51083" lon="6.38">
        <ele>242</ele>
        <time>2021-11-24T15:52:18.000Z</time>
      </trkpt>
      <trkpt lat="43.51082" lon="6.37999">
        <ele>243</ele>
        <time>2021-11-24T15:52:19.000Z</time>
      </trkpt>
      <trkpt lat="43.51081" lon="6.37998">
        <ele>243</ele>
        <time>2021-11-24T15:52:20.000Z</time>
      </trkpt>
      <trkpt lat="43.51081" lon="6.37998">
        <ele>243</ele>
        <time>2021-11-24T15:52:21.000Z</time>
      </trkpt>
      <trkpt lat="43.5108" lon="6.37997">
        <ele>243</ele>
        <time>2021-11-24T15:52:22.000Z</time>
      </trkpt>
      <trkpt lat="43.5108" lon="6.37997">
        <ele>243</ele>
        <time>2021-11-24T15:52:23.000Z</time>
      </trkpt>
      <trkpt lat="43.51079" lon="6.37998">
        <ele>243</ele>
        <time>2021-11-24T15:52:24.000Z</time>
      </trkpt>
      <trkpt lat="43.51079" lon="6.37998">
        <ele>243</ele>
        <time>2021-11-24T15:52:25.000Z</time>
      </trkpt>
      <trkpt lat="43.51078" lon="6.37998">
        <ele>243</ele>
        <time>2021-11-24T15:52:26.000Z</time>
      </trkpt>
      <trkpt lat="43.51078" lon="6.37997">
        <ele>243</ele>
        <time>2021-11-24T15:52:27.000Z</time>
      </trkpt>
      <trkpt lat="43.51078" lon="6.37997">
        <ele>243</ele>
        <time>2021-11-24T15:52:28.000Z</time>
      </trkpt>
      <trkpt lat="43.51077" lon="6.37997">
        <ele>243</ele>
        <time>2021-11-24T15:52:29.000Z</time>
      </trkpt>
      <trkpt lat="43.51076" lon="6.37996">
        <ele>243</ele>
        <time>2021-11-24T15:52:30.000Z</time>
      </trkpt>
      <trkpt lat="43.51076" lon="6.37995">
        <ele>243</ele>
        <time>2021-11-24T15:52:31.000Z</time>
      </trkpt>
      <trkpt lat="43.51075" lon="6.37995">
        <ele>243</ele>
        <time>2021-11-24T15:52:32.000Z</time>
      </trkpt>
      <trkpt lat="43.51074" lon="6.37994">
        <ele>244</ele>
        <time>2021-11-24T15:52:33.000Z</time>
      </trkpt>
      <trkpt lat="43.51073" lon="6.37994">
        <ele>244</ele>
        <time>2021-11-24T15:52:34.000Z</time>
      </trkpt>
      <trkpt lat="43.51072" lon="6.37993">
        <ele>244</ele>
        <time>2021-11-24T15:52:35.000Z</time>
      </trkpt>
      <trkpt lat="43.51071" lon="6.37992">
        <ele>244</ele>
        <time>2021-11-24T15:52:36.000Z</time>
      </trkpt>
      <trkpt lat="43.51069" lon="6.37992">
        <ele>244</ele>
        <time>2021-11-24T15:52:37.000Z</time>
      </trkpt>
      <trkpt lat="43.51067" lon="6.37991">
        <ele>244</ele>
        <time>2021-11-24T15:52:38.000Z</time>
      </trkpt>
      <trkpt lat="43.51066" lon="6.3799">
        <ele>244</ele>
        <time>2021-11-24T15:52:39.000Z</time>
      </trkpt>
      <trkpt lat="43.51065" lon="6.3799">
        <ele>244</ele>
        <time>2021-11-24T15:52:40.000Z</time>
      </trkpt>
      <trkpt lat="43.51064" lon="6.37989">
        <ele>244</ele>
        <time>2021-11-24T15:52:41.000Z</time>
      </trkpt>
      <trkpt lat="43.51063" lon="6.37989">
        <ele>244</ele>
        <time>2021-11-24T15:52:42.000Z</time>
      </trkpt>
      <trkpt lat="43.51062" lon="6.37989">
        <ele>244</ele>
        <time>2021-11-24T15:52:43.000Z</time>
      </trkpt>
      <trkpt lat="43.51061" lon="6.37988">
        <ele>244</ele>
        <time>2021-11-24T15:52:44.000Z</time>
      </trkpt>
      <trkpt lat="43.5106" lon="6.37988">
        <ele>244</ele>
        <time>2021-11-24T15:52:45.000Z</time>
      </trkpt>
      <trkpt lat="43.51059" lon="6.37987">
        <ele>244</ele>
        <time>2021-11-24T15:52:46.000Z</time>
      </trkpt>
      <trkpt lat="43.51057" lon="6.37986">
        <ele>244</ele>
        <time>2021-11-24T15:52:47.000Z</time>
      </trkpt>
      <trkpt lat="43.51056" lon="6.37985">
        <ele>244</ele>
        <time>2021-11-24T15:52:48.000Z</time>
      </trkpt>
      <trkpt lat="43.51054" lon="6.37984">
        <ele>244</ele>
        <time>2021-11-24T15:52:49.000Z</time>
      </trkpt>
      <trkpt lat="43.51052" lon="6.37984">
        <ele>244</ele>
        <time>2021-11-24T15:52:50.000Z</time>
      </trkpt>
      <trkpt lat="43.51051" lon="6.37984">
        <ele>244</ele>
        <time>2021-11-24T15:52:51.000Z</time>
      </trkpt>
      <trkpt lat="43.51049" lon="6.37984">
        <ele>244</ele>
        <time>2021-11-24T15:52:52.000Z</time>
      </trkpt>
      <trkpt lat="43.51048" lon="6.37983">
        <ele>244</ele>
        <time>2021-11-24T15:52:53.000Z</time>
      </trkpt>
      <trkpt lat="43.51046" lon="6.37983">
        <ele>244</ele>
        <time>2021-11-24T15:52:54.000Z</time>
      </trkpt>
      <trkpt lat="43.51045" lon="6.37983">
        <ele>244</ele>
        <time>2021-11-24T15:52:55.000Z</time>
      </trkpt>
      <trkpt lat="43.51043" lon="6.37983">
        <ele>244</ele>
        <time>2021-11-24T15:52:56.000Z</time>
      </trkpt>
      <trkpt lat="43.51042" lon="6.37983">
        <ele>244</ele>
        <time>2021-11-24T15:52:57.000Z</time>
      </trkpt>
      <trkpt lat="43.5104" lon="6.37983">
        <ele>244</ele>
        <time>2021-11-24T15:52:58.000Z</time>
      </trkpt>
      <trkpt lat="43.51039" lon="6.37982">
        <ele>244</ele>
        <time>2021-11-24T15:52:59.000Z</time>
      </trkpt>
      <trkpt lat="43.51038" lon="6.37982">
        <ele>244</ele>
        <time>2021-11-24T15:53:00.000Z</time>
      </trkpt>
      <trkpt lat="43.51037" lon="6.37981">
        <ele>244</ele>
        <time>2021-11-24T15:53:01.000Z</time>
      </trkpt>
      <trkpt lat="43.51036" lon="6.37981">
        <ele>244</ele>
        <time>2021-11-24T15:53:02.000Z</time>
      </trkpt>
      <trkpt lat="43.51035" lon="6.3798">
        <ele>244</ele>
        <time>2021-11-24T15:53:03.000Z</time>
      </trkpt>
      <trkpt lat="43.51035" lon="6.3798">
        <ele>244</ele>
        <time>2021-11-24T15:53:04.000Z</time>
      </trkpt>
      <trkpt lat="43.51034" lon="6.3798">
        <ele>244</ele>
        <time>2021-11-24T15:53:05.000Z</time>
      </trkpt>
      <trkpt lat="43.51034" lon="6.3798">
        <ele>244</ele>
        <time>2021-11-24T15:53:06.000Z</time>
      </trkpt>
      <trkpt lat="43.51033" lon="6.37979">
        <ele>244</ele>
        <time>2021-11-24T15:53:07.000Z</time>
      </trkpt>
      <trkpt lat="43.51032" lon="6.37979">
        <ele>244</ele>
        <time>2021-11-24T15:53:08.000Z</time>
      </trkpt>
      <trkpt lat="43.51032" lon="6.37979">
        <ele>244</ele>
        <time>2021-11-24T15:53:09.000Z</time>
      </trkpt>
      <trkpt lat="43.51031" lon="6.37979">
        <ele>244</ele>
        <time>2021-11-24T15:53:10.000Z</time>
      </trkpt>
      <trkpt lat="43.51031" lon="6.37979">
        <ele>244</ele>
        <time>2021-11-24T15:53:11.000Z</time>
      </trkpt>
      <trkpt lat="43.51031" lon="6.37979">
        <ele>244</ele>
        <time>2021-11-24T15:53:12.000Z</time>
      </trkpt>
      <trkpt lat="43.5103" lon="6.37979">
        <ele>244</ele>
        <time>2021-11-24T15:53:13.000Z</time>
      </trkpt>
      <trkpt lat="43.5103" lon="6.37979">
        <ele>244</ele>
        <time>2021-11-24T15:53:14.000Z</time>
      </trkpt>
      <trkpt lat="43.5103" lon="6.37979">
        <ele>244</ele>
        <time>2021-11-24T15:53:15.000Z</time>
      </trkpt>
      <trkpt lat="43.5103" lon="6.37979">
        <ele>244</ele>
        <time>2021-11-24T15:53:16.000Z</time>
      </trkpt>
      <trkpt lat="43.5103" lon="6.37979">
        <ele>244</ele>
        <time>2021-11-24T15:53:17.000Z</time>
      </trkpt>
      <trkpt lat="43.51029" lon="6.37978">
        <ele>244</ele>
        <time>2021-11-24T15:53:18.000Z</time>
      </trkpt>
      <trkpt lat="43.51029" lon="6.37978">
        <ele>244</ele>
        <time>2021-11-24T15:53:19.000Z</time>
      </trkpt>
      <trkpt lat="43.51028" lon="6.37978">
        <ele>244</ele>
        <time>2021-11-24T15:53:20.000Z</time>
      </trkpt>
      <trkpt lat="43.51027" lon="6.37978">
        <ele>244</ele>
        <time>2021-11-24T15:53:21.000Z</time>
      </trkpt>
      <trkpt lat="43.51026" lon="6.37978">
        <ele>244</ele>
        <time>2021-11-24T15:53:22.000Z</time>
      </trkpt>
      <trkpt lat="43.51025" lon="6.37977">
        <ele>244</ele>
        <time>2021-11-24T15:53:23.000Z</time>
      </trkpt>
      <trkpt lat="43.51024" lon="6.37977">
        <ele>245</ele>
        <time>2021-11-24T15:53:24.000Z</time>
      </trkpt>
      <trkpt lat="43.51023" lon="6.37977">
        <ele>245</ele>
        <time>2021-11-24T15:53:25.000Z</time>
      </trkpt>
      <trkpt lat="43.51021" lon="6.37977">
        <ele>245</ele>
        <time>2021-11-24T15:53:26.000Z</time>
      </trkpt>
      <trkpt lat="43.5102" lon="6.37977">
        <ele>245</ele>
        <time>2021-11-24T15:53:27.000Z</time>
      </trkpt>
      <trkpt lat="43.51018" lon="6.37977">
        <ele>245</ele>
        <time>2021-11-24T15:53:28.000Z</time>
      </trkpt>
      <trkpt lat="43.51017" lon="6.37977">
        <ele>245</ele>
        <time>2021-11-24T15:53:29.000Z</time>
      </trkpt>
      <trkpt lat="43.51016" lon="6.37976">
        <ele>245</ele>
        <time>2021-11-24T15:53:30.000Z</time>
      </trkpt>
      <trkpt lat="43.51015" lon="6.37976">
        <ele>245</ele>
        <time>2021-11-24T15:53:31.000Z</time>
      </trkpt>
      <trkpt lat="43.51014" lon="6.37975">
        <ele>245</ele>
        <time>2021-11-24T15:53:32.000Z</time>
      </trkpt>
      <trkpt lat="43.51013" lon="6.37975">
        <ele>245</ele>
        <time>2021-11-24T15:53:33.000Z</time>
      </trkpt>
      <trkpt lat="43.51012" lon="6.37975">
        <ele>245</ele>
        <time>2021-11-24T15:53:34.000Z</time>
      </trkpt>
      <trkpt lat="43.51012" lon="6.37974">
        <ele>245</ele>
        <time>2021-11-24T15:53:35.000Z</time>
      </trkpt>
      <trkpt lat="43.51011" lon="6.37974">
        <ele>245</ele>
        <time>2021-11-24T15:53:36.000Z</time>
      </trkpt>
      <trkpt lat="43.5101" lon="6.37974">
        <ele>245</ele>
        <time>2021-11-24T15:53:37.000Z</time>
      </trkpt>
      <trkpt lat="43.5101" lon="6.37973">
        <ele>245</ele>
        <time>2021-11-24T15:53:38.000Z</time>
      </trkpt>
      <trkpt lat="43.5101" lon="6.37972">
        <ele>245</ele>
        <time>2021-11-24T15:53:39.000Z</time>
      </trkpt>
      <trkpt lat="43.5101" lon="6.37971">
        <ele>245</ele>
        <time>2021-11-24T15:53:40.000Z</time>
      </trkpt>
      <trkpt lat="43.5101" lon="6.37971">
        <ele>245</ele>
        <time>2021-11-24T15:53:41.000Z</time>
      </trkpt>
      <trkpt lat="43.5101" lon="6.3797">
        <ele>245</ele>
        <time>2021-11-24T15:53:42.000Z</time>
      </trkpt>
      <trkpt lat="43.5101" lon="6.3797">
        <ele>245</ele>
        <time>2021-11-24T15:53:43.000Z</time>
      </trkpt>
      <trkpt lat="43.5101" lon="6.3797">
        <ele>245</ele>
        <time>2021-11-24T15:53:44.000Z</time>
      </trkpt>
      <trkpt lat="43.5101" lon="6.3797">
        <ele>245</ele>
        <time>2021-11-24T15:53:45.000Z</time>
      </trkpt>
      <trkpt lat="43.5101" lon="6.3797">
        <ele>245</ele>
        <time>2021-11-24T15:53:46.000Z</time>
      </trkpt>
      <trkpt lat="43.5101" lon="6.37971">
        <ele>245</ele>
        <time>2021-11-24T15:53:47.000Z</time>
      </trkpt>
      <trkpt lat="43.5101" lon="6.37972">
        <ele>245</ele>
        <time>2021-11-24T15:53:48.000Z</time>
      </trkpt>
      <trkpt lat="43.5101" lon="6.37973">
        <ele>245</ele>
        <time>2021-11-24T15:53:49.000Z</time>
      </trkpt>
      <trkpt lat="43.5101" lon="6.37974">
        <ele>245</ele>
        <time>2021-11-24T15:53:50.000Z</time>
      </trkpt>
      <trkpt lat="43.5101" lon="6.37975">
        <ele>245</ele>
        <time>2021-11-24T15:53:51.000Z</time>
      </trkpt>
      <trkpt lat="43.5101" lon="6.37977">
        <ele>245</ele>
        <time>2021-11-24T15:53:52.000Z</time>
      </trkpt>
      <trkpt lat="43.5101" lon="6.37978">
        <ele>245</ele>
        <time>2021-11-24T15:53:53.000Z</time>
      </trkpt>
      <trkpt lat="43.5101" lon="6.37979">
        <ele>245</ele>
        <time>2021-11-24T15:53:54.000Z</time>
      </trkpt>
      <trkpt lat="43.5101" lon="6.3798">
        <ele>245</ele>
        <time>2021-11-24T15:53:55.000Z</time>
      </trkpt>
      <trkpt lat="43.51009" lon="6.37981">
        <ele>245</ele>
        <time>2021-11-24T15:53:56.000Z</time>
      </trkpt>
      <trkpt lat="43.51008" lon="6.37982">
        <ele>245</ele>
        <time>2021-11-24T15:53:57.000Z</time>
      </trkpt>
      <trkpt lat="43.51007" lon="6.37983">
        <ele>245</ele>
        <time>2021-11-24T15:53:58.000Z</time>
      </trkpt>
      <trkpt lat="43.51007" lon="6.37983">
        <ele>245</ele>
        <time>2021-11-24T15:53:59.000Z</time>
      </trkpt>
      <trkpt lat="43.51006" lon="6.37983">
        <ele>245</ele>
        <time>2021-11-24T15:54:00.000Z</time>
      </trkpt>
      <trkpt lat="43.51006" lon="6.37983">
        <ele>243</ele>
        <time>2021-11-24T15:54:01.000Z</time>
      </trkpt>
      <trkpt lat="43.51005" lon="6.37984">
        <ele>243</ele>
        <time>2021-11-24T15:54:02.000Z</time>
      </trkpt>
      <trkpt lat="43.51005" lon="6.37984">
        <ele>243</ele>
        <time>2021-11-24T15:54:03.000Z</time>
      </trkpt>
      <trkpt lat="43.51005" lon="6.37984">
        <ele>243</ele>
        <time>2021-11-24T15:54:04.000Z</time>
      </trkpt>
      <trkpt lat="43.51005" lon="6.37984">
        <ele>243</ele>
        <time>2021-11-24T15:54:05.000Z</time>
      </trkpt>
      <trkpt lat="43.51004" lon="6.37984">
        <ele>243</ele>
        <time>2021-11-24T15:54:06.000Z</time>
      </trkpt>
      <trkpt lat="43.51004" lon="6.37984">
        <ele>243</ele>
        <time>2021-11-24T15:54:07.000Z</time>
      </trkpt>
      <trkpt lat="43.51004" lon="6.37984">
        <ele>243</ele>
        <time>2021-11-24T15:54:08.000Z</time>
      </trkpt>
      <trkpt lat="43.51004" lon="6.37984">
        <ele>243</ele>
        <time>2021-11-24T15:54:09.000Z</time>
      </trkpt>
      <trkpt lat="43.51004" lon="6.37984">
        <ele>243</ele>
        <time>2021-11-24T15:54:10.000Z</time>
      </trkpt>
      <trkpt lat="43.51004" lon="6.37984">
        <ele>243</ele>
        <time>2021-11-24T15:54:11.000Z</time>
      </trkpt>
      <trkpt lat="43.51004" lon="6.37984">
        <ele>243</ele>
        <time>2021-11-24T15:54:12.000Z</time>
      </trkpt>
      <trkpt lat="43.51003" lon="6.37984">
        <ele>243</ele>
        <time>2021-11-24T15:54:13.000Z</time>
      </trkpt>
      <trkpt lat="43.51003" lon="6.37984">
        <ele>242</ele>
        <time>2021-11-24T15:54:14.000Z</time>
      </trkpt>
      <trkpt lat="43.51002" lon="6.37984">
        <ele>242</ele>
        <time>2021-11-24T15:54:15.000Z</time>
      </trkpt>
      <trkpt lat="43.51002" lon="6.37984">
        <ele>242</ele>
        <time>2021-11-24T15:54:16.000Z</time>
      </trkpt>
      <trkpt lat="43.51002" lon="6.37984">
        <ele>242</ele>
        <time>2021-11-24T15:54:17.000Z</time>
      </trkpt>
      <trkpt lat="43.51002" lon="6.37984">
        <ele>242</ele>
        <time>2021-11-24T15:54:18.000Z</time>
      </trkpt>
      <trkpt lat="43.50996" lon="6.37984">
        <ele>241</ele>
        <time>2021-11-24T15:54:19.000Z</time>
      </trkpt>
      <trkpt lat="43.50991" lon="6.37984">
        <ele>241</ele>
        <time>2021-11-24T15:54:20.000Z</time>
      </trkpt>
      <trkpt lat="43.50988" lon="6.37985">
        <ele>241</ele>
        <time>2021-11-24T15:54:21.000Z</time>
      </trkpt>
      <trkpt lat="43.50985" lon="6.37985">
        <ele>241</ele>
        <time>2021-11-24T15:54:22.000Z</time>
      </trkpt>
      <trkpt lat="43.50983" lon="6.37985">
        <ele>240</ele>
        <time>2021-11-24T15:54:23.000Z</time>
      </trkpt>
      <trkpt lat="43.50981" lon="6.37985">
        <ele>240</ele>
        <time>2021-11-24T15:54:24.000Z</time>
      </trkpt>
      <trkpt lat="43.5098" lon="6.37986">
        <ele>240</ele>
        <time>2021-11-24T15:54:25.000Z</time>
      </trkpt>
      <trkpt lat="43.50978" lon="6.37986">
        <ele>240</ele>
        <time>2021-11-24T15:54:26.000Z</time>
      </trkpt>
      <trkpt lat="43.50976" lon="6.37987">
        <ele>241</ele>
        <time>2021-11-24T15:54:27.000Z</time>
      </trkpt>
      <trkpt lat="43.50974" lon="6.37987">
        <ele>241</ele>
        <time>2021-11-24T15:54:28.000Z</time>
      </trkpt>
      <trkpt lat="43.50972" lon="6.37988">
        <ele>241</ele>
        <time>2021-11-24T15:54:29.000Z</time>
      </trkpt>
      <trkpt lat="43.5097" lon="6.37988">
        <ele>241</ele>
        <time>2021-11-24T15:54:30.000Z</time>
      </trkpt>
      <trkpt lat="43.50968" lon="6.37988">
        <ele>241</ele>
        <time>2021-11-24T15:54:31.000Z</time>
      </trkpt>
      <trkpt lat="43.50966" lon="6.37989">
        <ele>241</ele>
        <time>2021-11-24T15:54:32.000Z</time>
      </trkpt>
      <trkpt lat="43.50963" lon="6.37989">
        <ele>242</ele>
        <time>2021-11-24T15:54:33.000Z</time>
      </trkpt>
      <trkpt lat="43.50961" lon="6.3799">
        <ele>242</ele>
        <time>2021-11-24T15:54:34.000Z</time>
      </trkpt>
      <trkpt lat="43.5096" lon="6.3799">
        <ele>242</ele>
        <time>2021-11-24T15:54:35.000Z</time>
      </trkpt>
      <trkpt lat="43.50958" lon="6.3799">
        <ele>242</ele>
        <time>2021-11-24T15:54:36.000Z</time>
      </trkpt>
      <trkpt lat="43.50957" lon="6.3799">
        <ele>242</ele>
        <time>2021-11-24T15:54:37.000Z</time>
      </trkpt>
      <trkpt lat="43.50956" lon="6.37991">
        <ele>242</ele>
        <time>2021-11-24T15:54:38.000Z</time>
      </trkpt>
      <trkpt lat="43.50955" lon="6.37991">
        <ele>242</ele>
        <time>2021-11-24T15:54:39.000Z</time>
      </trkpt>
      <trkpt lat="43.50954" lon="6.37991">
        <ele>242</ele>
        <time>2021-11-24T15:54:40.000Z</time>
      </trkpt>
      <trkpt lat="43.50954" lon="6.37991">
        <ele>242</ele>
        <time>2021-11-24T15:54:41.000Z</time>
      </trkpt>
      <trkpt lat="43.50953" lon="6.37991">
        <ele>242</ele>
        <time>2021-11-24T15:54:42.000Z</time>
      </trkpt>
      <trkpt lat="43.50951" lon="6.37991">
        <ele>242</ele>
        <time>2021-11-24T15:54:43.000Z</time>
      </trkpt>
      <trkpt lat="43.5095" lon="6.37992">
        <ele>243</ele>
        <time>2021-11-24T15:54:44.000Z</time>
      </trkpt>
      <trkpt lat="43.50949" lon="6.37992">
        <ele>243</ele>
        <time>2021-11-24T15:54:45.000Z</time>
      </trkpt>
      <trkpt lat="43.50949" lon="6.37992">
        <ele>243</ele>
        <time>2021-11-24T15:54:46.000Z</time>
      </trkpt>
      <trkpt lat="43.50948" lon="6.37992">
        <ele>243</ele>
        <time>2021-11-24T15:54:47.000Z</time>
      </trkpt>
      <trkpt lat="43.50948" lon="6.37992">
        <ele>243</ele>
        <time>2021-11-24T15:54:48.000Z</time>
      </trkpt>
      <trkpt lat="43.50947" lon="6.37992">
        <ele>243</ele>
        <time>2021-11-24T15:54:49.000Z</time>
      </trkpt>
      <trkpt lat="43.50946" lon="6.37992">
        <ele>243</ele>
        <time>2021-11-24T15:54:50.000Z</time>
      </trkpt>
      <trkpt lat="43.50945" lon="6.37993">
        <ele>243</ele>
        <time>2021-11-24T15:54:51.000Z</time>
      </trkpt>
      <trkpt lat="43.50943" lon="6.37993">
        <ele>243</ele>
        <time>2021-11-24T15:54:52.000Z</time>
      </trkpt>
      <trkpt lat="43.50941" lon="6.37994">
        <ele>243</ele>
        <time>2021-11-24T15:54:53.000Z</time>
      </trkpt>
      <trkpt lat="43.50941" lon="6.37994">
        <ele>243</ele>
        <time>2021-11-24T15:54:54.000Z</time>
      </trkpt>
      <trkpt lat="43.5094" lon="6.37994">
        <ele>243</ele>
        <time>2021-11-24T15:54:55.000Z</time>
      </trkpt>
      <trkpt lat="43.5094" lon="6.37994">
        <ele>243</ele>
        <time>2021-11-24T15:54:56.000Z</time>
      </trkpt>
      <trkpt lat="43.50939" lon="6.37994">
        <ele>243</ele>
        <time>2021-11-24T15:54:57.000Z</time>
      </trkpt>
      <trkpt lat="43.50939" lon="6.37994">
        <ele>243</ele>
        <time>2021-11-24T15:54:58.000Z</time>
      </trkpt>
      <trkpt lat="43.50938" lon="6.37994">
        <ele>243</ele>
        <time>2021-11-24T15:54:59.000Z</time>
      </trkpt>
      <trkpt lat="43.50937" lon="6.37994">
        <ele>243</ele>
        <time>2021-11-24T15:55:00.000Z</time>
      </trkpt>
      <trkpt lat="43.50936" lon="6.37995">
        <ele>243</ele>
        <time>2021-11-24T15:55:01.000Z</time>
      </trkpt>
      <trkpt lat="43.50936" lon="6.37995">
        <ele>244</ele>
        <time>2021-11-24T15:55:02.000Z</time>
      </trkpt>
      <trkpt lat="43.50935" lon="6.37995">
        <ele>244</ele>
        <time>2021-11-24T15:55:03.000Z</time>
      </trkpt>
      <trkpt lat="43.50935" lon="6.37995">
        <ele>244</ele>
        <time>2021-11-24T15:55:04.000Z</time>
      </trkpt>
      <trkpt lat="43.50934" lon="6.37995">
        <ele>244</ele>
        <time>2021-11-24T15:55:05.000Z</time>
      </trkpt>
      <trkpt lat="43.50933" lon="6.37995">
        <ele>244</ele>
        <time>2021-11-24T15:55:06.000Z</time>
      </trkpt>
      <trkpt lat="43.50931" lon="6.37996">
        <ele>244</ele>
        <time>2021-11-24T15:55:07.000Z</time>
      </trkpt>
      <trkpt lat="43.5093" lon="6.37996">
        <ele>244</ele>
        <time>2021-11-24T15:55:08.000Z</time>
      </trkpt>
      <trkpt lat="43.5093" lon="6.37996">
        <ele>244</ele>
        <time>2021-11-24T15:55:09.000Z</time>
      </trkpt>
      <trkpt lat="43.5093" lon="6.37996">
        <ele>244</ele>
        <time>2021-11-24T15:55:10.000Z</time>
      </trkpt>
      <trkpt lat="43.50929" lon="6.37996">
        <ele>244</ele>
        <time>2021-11-24T15:55:11.000Z</time>
      </trkpt>
      <trkpt lat="43.50929" lon="6.37996">
        <ele>245</ele>
        <time>2021-11-24T15:55:12.000Z</time>
      </trkpt>
      <trkpt lat="43.50928" lon="6.37997">
        <ele>245</ele>
        <time>2021-11-24T15:55:13.000Z</time>
      </trkpt>
      <trkpt lat="43.50926" lon="6.37997">
        <ele>245</ele>
        <time>2021-11-24T15:55:14.000Z</time>
      </trkpt>
      <trkpt lat="43.50924" lon="6.37997">
        <ele>245</ele>
        <time>2021-11-24T15:55:15.000Z</time>
      </trkpt>
      <trkpt lat="43.50922" lon="6.37997">
        <ele>245</ele>
        <time>2021-11-24T15:55:16.000Z</time>
      </trkpt>
      <trkpt lat="43.50919" lon="6.37998">
        <ele>245</ele>
        <time>2021-11-24T15:55:17.000Z</time>
      </trkpt>
      <trkpt lat="43.50918" lon="6.37998">
        <ele>245</ele>
        <time>2021-11-24T15:55:18.000Z</time>
      </trkpt>
      <trkpt lat="43.50917" lon="6.37998">
        <ele>245</ele>
        <time>2021-11-24T15:55:19.000Z</time>
      </trkpt>
      <trkpt lat="43.50916" lon="6.37999">
        <ele>245</ele>
        <time>2021-11-24T15:55:20.000Z</time>
      </trkpt>
      <trkpt lat="43.50915" lon="6.37999">
        <ele>245</ele>
        <time>2021-11-24T15:55:21.000Z</time>
      </trkpt>
      <trkpt lat="43.50914" lon="6.37999">
        <ele>245</ele>
        <time>2021-11-24T15:55:22.000Z</time>
      </trkpt>
      <trkpt lat="43.50913" lon="6.37999">
        <ele>245</ele>
        <time>2021-11-24T15:55:23.000Z</time>
      </trkpt>
      <trkpt lat="43.50911" lon="6.37999">
        <ele>245</ele>
        <time>2021-11-24T15:55:24.000Z</time>
      </trkpt>
      <trkpt lat="43.50908" lon="6.38">
        <ele>245</ele>
        <time>2021-11-24T15:55:25.000Z</time>
      </trkpt>
      <trkpt lat="43.50906" lon="6.38">
        <ele>245</ele>
        <time>2021-11-24T15:55:26.000Z</time>
      </trkpt>
      <trkpt lat="43.50905" lon="6.38001">
        <ele>245</ele>
        <time>2021-11-24T15:55:27.000Z</time>
      </trkpt>
      <trkpt lat="43.50904" lon="6.38001">
        <ele>245</ele>
        <time>2021-11-24T15:55:28.000Z</time>
      </trkpt>
      <trkpt lat="43.50903" lon="6.38001">
        <ele>245</ele>
        <time>2021-11-24T15:55:29.000Z</time>
      </trkpt>
      <trkpt lat="43.50902" lon="6.38002">
        <ele>245</ele>
        <time>2021-11-24T15:55:30.000Z</time>
      </trkpt>
      <trkpt lat="43.50901" lon="6.38002">
        <ele>245</ele>
        <time>2021-11-24T15:55:31.000Z</time>
      </trkpt>
      <trkpt lat="43.50899" lon="6.38003">
        <ele>245</ele>
        <time>2021-11-24T15:55:32.000Z</time>
      </trkpt>
      <trkpt lat="43.50897" lon="6.38003">
        <ele>245</ele>
        <time>2021-11-24T15:55:33.000Z</time>
      </trkpt>
      <trkpt lat="43.50895" lon="6.38004">
        <ele>245</ele>
        <time>2021-11-24T15:55:34.000Z</time>
      </trkpt>
      <trkpt lat="43.50893" lon="6.38004">
        <ele>245</ele>
        <time>2021-11-24T15:55:35.000Z</time>
      </trkpt>
      <trkpt lat="43.50891" lon="6.38004">
        <ele>245</ele>
        <time>2021-11-24T15:55:36.000Z</time>
      </trkpt>
      <trkpt lat="43.5089" lon="6.38004">
        <ele>245</ele>
        <time>2021-11-24T15:55:37.000Z</time>
      </trkpt>
      <trkpt lat="43.50889" lon="6.38004">
        <ele>245</ele>
        <time>2021-11-24T15:55:38.000Z</time>
      </trkpt>
      <trkpt lat="43.50888" lon="6.38004">
        <ele>245</ele>
        <time>2021-11-24T15:55:39.000Z</time>
      </trkpt>
      <trkpt lat="43.50887" lon="6.38003">
        <ele>245</ele>
        <time>2021-11-24T15:55:40.000Z</time>
      </trkpt>
      <trkpt lat="43.50886" lon="6.38002">
        <ele>245</ele>
        <time>2021-11-24T15:55:41.000Z</time>
      </trkpt>
      <trkpt lat="43.50886" lon="6.38001">
        <ele>245</ele>
        <time>2021-11-24T15:55:42.000Z</time>
      </trkpt>
      <trkpt lat="43.50885" lon="6.38001">
        <ele>245</ele>
        <time>2021-11-24T15:55:43.000Z</time>
      </trkpt>
      <trkpt lat="43.50884" lon="6.38">
        <ele>245</ele>
        <time>2021-11-24T15:55:44.000Z</time>
      </trkpt>
      <trkpt lat="43.50883" lon="6.38">
        <ele>245</ele>
        <time>2021-11-24T15:55:45.000Z</time>
      </trkpt>
      <trkpt lat="43.50882" lon="6.37999">
        <ele>245</ele>
        <time>2021-11-24T15:55:46.000Z</time>
      </trkpt>
      <trkpt lat="43.50882" lon="6.37998">
        <ele>245</ele>
        <time>2021-11-24T15:55:47.000Z</time>
      </trkpt>
      <trkpt lat="43.50881" lon="6.37998">
        <ele>245</ele>
        <time>2021-11-24T15:55:48.000Z</time>
      </trkpt>
      <trkpt lat="43.5088" lon="6.37997">
        <ele>244</ele>
        <time>2021-11-24T15:55:49.000Z</time>
      </trkpt>
      <trkpt lat="43.50879" lon="6.37996">
        <ele>244</ele>
        <time>2021-11-24T15:55:50.000Z</time>
      </trkpt>
      <trkpt lat="43.50879" lon="6.37995">
        <ele>244</ele>
        <time>2021-11-24T15:55:51.000Z</time>
      </trkpt>
      <trkpt lat="43.50878" lon="6.37994">
        <ele>244</ele>
        <time>2021-11-24T15:55:52.000Z</time>
      </trkpt>
      <trkpt lat="43.50877" lon="6.37993">
        <ele>244</ele>
        <time>2021-11-24T15:55:53.000Z</time>
      </trkpt>
      <trkpt lat="43.50876" lon="6.37992">
        <ele>244</ele>
        <time>2021-11-24T15:55:54.000Z</time>
      </trkpt>
      <trkpt lat="43.50876" lon="6.37991">
        <ele>244</ele>
        <time>2021-11-24T15:55:55.000Z</time>
      </trkpt>
      <trkpt lat="43.50875" lon="6.37991">
        <ele>244</ele>
        <time>2021-11-24T15:55:56.000Z</time>
      </trkpt>
      <trkpt lat="43.50874" lon="6.3799">
        <ele>244</ele>
        <time>2021-11-24T15:55:57.000Z</time>
      </trkpt>
      <trkpt lat="43.50874" lon="6.3799">
        <ele>243</ele>
        <time>2021-11-24T15:55:58.000Z</time>
      </trkpt>
      <trkpt lat="43.50873" lon="6.37989">
        <ele>243</ele>
        <time>2021-11-24T15:55:59.000Z</time>
      </trkpt>
      <trkpt lat="43.50873" lon="6.37989">
        <ele>243</ele>
        <time>2021-11-24T15:56:00.000Z</time>
      </trkpt>
      <trkpt lat="43.50873" lon="6.37988">
        <ele>243</ele>
        <time>2021-11-24T15:56:01.000Z</time>
      </trkpt>
      <trkpt lat="43.50872" lon="6.37987">
        <ele>242</ele>
        <time>2021-11-24T15:56:02.000Z</time>
      </trkpt>
      <trkpt lat="43.50872" lon="6.37987">
        <ele>242</ele>
        <time>2021-11-24T15:56:03.000Z</time>
      </trkpt>
      <trkpt lat="43.50871" lon="6.37986">
        <ele>242</ele>
        <time>2021-11-24T15:56:04.000Z</time>
      </trkpt>
      <trkpt lat="43.5087" lon="6.37985">
        <ele>242</ele>
        <time>2021-11-24T15:56:05.000Z</time>
      </trkpt>
      <trkpt lat="43.5087" lon="6.37984">
        <ele>240</ele>
        <time>2021-11-24T15:56:06.000Z</time>
      </trkpt>
      <trkpt lat="43.50869" lon="6.37983">
        <ele>240</ele>
        <time>2021-11-24T15:56:07.000Z</time>
      </trkpt>
      <trkpt lat="43.5087" lon="6.37982">
        <ele>239</ele>
        <time>2021-11-24T15:56:08.000Z</time>
      </trkpt>
      <trkpt lat="43.5087" lon="6.37981">
        <ele>239</ele>
        <time>2021-11-24T15:56:09.000Z</time>
      </trkpt>
      <trkpt lat="43.5087" lon="6.3798">
        <ele>239</ele>
        <time>2021-11-24T15:56:10.000Z</time>
      </trkpt>
      <trkpt lat="43.50871" lon="6.3798">
        <ele>239</ele>
        <time>2021-11-24T15:56:11.000Z</time>
      </trkpt>
      <trkpt lat="43.50871" lon="6.3798">
        <ele>239</ele>
        <time>2021-11-24T15:56:12.000Z</time>
      </trkpt>
      <trkpt lat="43.50871" lon="6.3798">
        <ele>239</ele>
        <time>2021-11-24T15:56:13.000Z</time>
      </trkpt>
      <trkpt lat="43.50871" lon="6.37979">
        <ele>239</ele>
        <time>2021-11-24T15:56:14.000Z</time>
      </trkpt>
      <trkpt lat="43.5087" lon="6.37979">
        <ele>238</ele>
        <time>2021-11-24T15:56:15.000Z</time>
      </trkpt>
      <trkpt lat="43.50869" lon="6.3798">
        <ele>238</ele>
        <time>2021-11-24T15:56:16.000Z</time>
      </trkpt>
      <trkpt lat="43.50867" lon="6.3798">
        <ele>238</ele>
        <time>2021-11-24T15:56:17.000Z</time>
      </trkpt>
      <trkpt lat="43.50866" lon="6.37981">
        <ele>238</ele>
        <time>2021-11-24T15:56:18.000Z</time>
      </trkpt>
      <trkpt lat="43.50865" lon="6.37981">
        <ele>238</ele>
        <time>2021-11-24T15:56:19.000Z</time>
      </trkpt>
      <trkpt lat="43.50865" lon="6.37981">
        <ele>238</ele>
        <time>2021-11-24T15:56:20.000Z</time>
      </trkpt>
      <trkpt lat="43.50864" lon="6.37982">
        <ele>238</ele>
        <time>2021-11-24T15:56:21.000Z</time>
      </trkpt>
      <trkpt lat="43.50864" lon="6.37982">
        <ele>238</ele>
        <time>2021-11-24T15:56:22.000Z</time>
      </trkpt>
      <trkpt lat="43.50864" lon="6.37982">
        <ele>238</ele>
        <time>2021-11-24T15:56:23.000Z</time>
      </trkpt>
      <trkpt lat="43.50864" lon="6.37982">
        <ele>238</ele>
        <time>2021-11-24T15:56:24.000Z</time>
      </trkpt>
      <trkpt lat="43.50864" lon="6.37982">
        <ele>237</ele>
        <time>2021-11-24T15:56:25.000Z</time>
      </trkpt>
      <trkpt lat="43.50863" lon="6.37982">
        <ele>237</ele>
        <time>2021-11-24T15:56:26.000Z</time>
      </trkpt>
      <trkpt lat="43.50863" lon="6.37982">
        <ele>237</ele>
        <time>2021-11-24T15:56:27.000Z</time>
      </trkpt>
      <trkpt lat="43.50863" lon="6.37982">
        <ele>237</ele>
        <time>2021-11-24T15:56:28.000Z</time>
      </trkpt>
      <trkpt lat="43.50863" lon="6.37981">
        <ele>237</ele>
        <time>2021-11-24T15:56:29.000Z</time>
      </trkpt>
      <trkpt lat="43.50863" lon="6.37981">
        <ele>237</ele>
        <time>2021-11-24T15:56:30.000Z</time>
      </trkpt>
      <trkpt lat="43.50863" lon="6.37981">
        <ele>237</ele>
        <time>2021-11-24T15:56:31.000Z</time>
      </trkpt>
      <trkpt lat="43.50862" lon="6.37981">
        <ele>237</ele>
        <time>2021-11-24T15:56:32.000Z</time>
      </trkpt>
      <trkpt lat="43.50862" lon="6.37981">
        <ele>237</ele>
        <time>2021-11-24T15:56:33.000Z</time>
      </trkpt>
      <trkpt lat="43.50861" lon="6.37981">
        <ele>238</ele>
        <time>2021-11-24T15:56:34.000Z</time>
      </trkpt>
      <trkpt lat="43.5086" lon="6.37981">
        <ele>238</ele>
        <time>2021-11-24T15:56:35.000Z</time>
      </trkpt>
      <trkpt lat="43.5086" lon="6.37981">
        <ele>238</ele>
        <time>2021-11-24T15:56:36.000Z</time>
      </trkpt>
      <trkpt lat="43.50859" lon="6.37981">
        <ele>238</ele>
        <time>2021-11-24T15:56:37.000Z</time>
      </trkpt>
      <trkpt lat="43.50859" lon="6.37981">
        <ele>238</ele>
        <time>2021-11-24T15:56:38.000Z</time>
      </trkpt>
      <trkpt lat="43.50858" lon="6.37981">
        <ele>238</ele>
        <time>2021-11-24T15:56:39.000Z</time>
      </trkpt>
      <trkpt lat="43.50857" lon="6.3798">
        <ele>238</ele>
        <time>2021-11-24T15:56:40.000Z</time>
      </trkpt>
      <trkpt lat="43.50855" lon="6.3798">
        <ele>238</ele>
        <time>2021-11-24T15:56:41.000Z</time>
      </trkpt>
      <trkpt lat="43.50854" lon="6.3798">
        <ele>238</ele>
        <time>2021-11-24T15:56:42.000Z</time>
      </trkpt>
      <trkpt lat="43.50853" lon="6.3798">
        <ele>238</ele>
        <time>2021-11-24T15:56:43.000Z</time>
      </trkpt>
      <trkpt lat="43.50853" lon="6.3798">
        <ele>238</ele>
        <time>2021-11-24T15:56:44.000Z</time>
      </trkpt>
      <trkpt lat="43.50852" lon="6.3798">
        <ele>238</ele>
        <time>2021-11-24T15:56:45.000Z</time>
      </trkpt>
      <trkpt lat="43.50852" lon="6.3798">
        <ele>238</ele>
        <time>2021-11-24T15:56:46.000Z</time>
      </trkpt>
      <trkpt lat="43.50852" lon="6.3798">
        <ele>238</ele>
        <time>2021-11-24T15:56:47.000Z</time>
      </trkpt>
      <trkpt lat="43.50851" lon="6.3798">
        <ele>238</ele>
        <time>2021-11-24T15:56:48.000Z</time>
      </trkpt>
      <trkpt lat="43.50851" lon="6.37981">
        <ele>238</ele>
        <time>2021-11-24T15:56:49.000Z</time>
      </trkpt>
      <trkpt lat="43.50851" lon="6.37981">
        <ele>238</ele>
        <time>2021-11-24T15:56:50.000Z</time>
      </trkpt>
      <trkpt lat="43.5085" lon="6.3798">
        <ele>238</ele>
        <time>2021-11-24T15:56:51.000Z</time>
      </trkpt>
      <trkpt lat="43.5085" lon="6.3798">
        <ele>238</ele>
        <time>2021-11-24T15:56:52.000Z</time>
      </trkpt>
      <trkpt lat="43.5085" lon="6.3798">
        <ele>238</ele>
        <time>2021-11-24T15:56:53.000Z</time>
      </trkpt>
      <trkpt lat="43.50849" lon="6.3798">
        <ele>238</ele>
        <time>2021-11-24T15:56:54.000Z</time>
      </trkpt>
      <trkpt lat="43.50849" lon="6.3798">
        <ele>238</ele>
        <time>2021-11-24T15:56:55.000Z</time>
      </trkpt>
      <trkpt lat="43.50849" lon="6.3798">
        <ele>238</ele>
        <time>2021-11-24T15:56:56.000Z</time>
      </trkpt>
      <trkpt lat="43.50848" lon="6.3798">
        <ele>238</ele>
        <time>2021-11-24T15:56:57.000Z</time>
      </trkpt>
      <trkpt lat="43.50847" lon="6.3798">
        <ele>238</ele>
        <time>2021-11-24T15:56:58.000Z</time>
      </trkpt>
      <trkpt lat="43.50846" lon="6.37981">
        <ele>238</ele>
        <time>2021-11-24T15:56:59.000Z</time>
      </trkpt>
      <trkpt lat="43.50845" lon="6.37981">
        <ele>238</ele>
        <time>2021-11-24T15:57:00.000Z</time>
      </trkpt>
      <trkpt lat="43.50844" lon="6.37981">
        <ele>238</ele>
        <time>2021-11-24T15:57:01.000Z</time>
      </trkpt>
      <trkpt lat="43.50843" lon="6.37981">
        <ele>238</ele>
        <time>2021-11-24T15:57:02.000Z</time>
      </trkpt>
      <trkpt lat="43.50842" lon="6.37981">
        <ele>237</ele>
        <time>2021-11-24T15:57:03.000Z</time>
      </trkpt>
      <trkpt lat="43.50841" lon="6.37981">
        <ele>237</ele>
        <time>2021-11-24T15:57:04.000Z</time>
      </trkpt>
      <trkpt lat="43.5084" lon="6.37981">
        <ele>237</ele>
        <time>2021-11-24T15:57:05.000Z</time>
      </trkpt>
      <trkpt lat="43.50839" lon="6.37982">
        <ele>237</ele>
        <time>2021-11-24T15:57:06.000Z</time>
      </trkpt>
      <trkpt lat="43.50838" lon="6.37982">
        <ele>237</ele>
        <time>2021-11-24T15:57:07.000Z</time>
      </trkpt>
      <trkpt lat="43.50837" lon="6.37981">
        <ele>237</ele>
        <time>2021-11-24T15:57:08.000Z</time>
      </trkpt>
      <trkpt lat="43.50837" lon="6.37981">
        <ele>237</ele>
        <time>2021-11-24T15:57:09.000Z</time>
      </trkpt>
      <trkpt lat="43.50836" lon="6.37981">
        <ele>236</ele>
        <time>2021-11-24T15:57:10.000Z</time>
      </trkpt>
      <trkpt lat="43.50836" lon="6.37981">
        <ele>236</ele>
        <time>2021-11-24T15:57:11.000Z</time>
      </trkpt>
      <trkpt lat="43.50836" lon="6.37981">
        <ele>236</ele>
        <time>2021-11-24T15:57:12.000Z</time>
      </trkpt>
      <trkpt lat="43.50835" lon="6.37981">
        <ele>237</ele>
        <time>2021-11-24T15:57:13.000Z</time>
      </trkpt>
      <trkpt lat="43.50835" lon="6.37981">
        <ele>237</ele>
        <time>2021-11-24T15:57:14.000Z</time>
      </trkpt>
      <trkpt lat="43.50834" lon="6.37981">
        <ele>237</ele>
        <time>2021-11-24T15:57:15.000Z</time>
      </trkpt>
      <trkpt lat="43.50834" lon="6.37981">
        <ele>237</ele>
        <time>2021-11-24T15:57:16.000Z</time>
      </trkpt>
      <trkpt lat="43.50833" lon="6.37981">
        <ele>237</ele>
        <time>2021-11-24T15:57:17.000Z</time>
      </trkpt>
      <trkpt lat="43.50833" lon="6.37981">
        <ele>237</ele>
        <time>2021-11-24T15:57:18.000Z</time>
      </trkpt>
      <trkpt lat="43.50833" lon="6.37981">
        <ele>237</ele>
        <time>2021-11-24T15:57:19.000Z</time>
      </trkpt>
      <trkpt lat="43.50833" lon="6.37981">
        <ele>237</ele>
        <time>2021-11-24T15:57:20.000Z</time>
      </trkpt>
      <trkpt lat="43.50833" lon="6.37981">
        <ele>237</ele>
        <time>2021-11-24T15:57:21.000Z</time>
      </trkpt>
      <trkpt lat="43.50833" lon="6.37981">
        <ele>237</ele>
        <time>2021-11-24T15:57:22.000Z</time>
      </trkpt>
      <trkpt lat="43.50833" lon="6.37981">
        <ele>237</ele>
        <time>2021-11-24T15:57:23.000Z</time>
      </trkpt>
      <trkpt lat="43.50833" lon="6.37981">
        <ele>237</ele>
        <time>2021-11-24T15:57:24.000Z</time>
      </trkpt>
      <trkpt lat="43.50833" lon="6.37981">
        <ele>237</ele>
        <time>2021-11-24T15:57:25.000Z</time>
      </trkpt>
      <trkpt lat="43.50833" lon="6.37981">
        <ele>237</ele>
        <time>2021-11-24T15:57:26.000Z</time>
      </trkpt>
      <trkpt lat="43.50833" lon="6.37981">
        <ele>237</ele>
        <time>2021-11-24T15:57:27.000Z</time>
      </trkpt>
      <trkpt lat="43.50832" lon="6.37981">
        <ele>237</ele>
        <time>2021-11-24T15:57:28.000Z</time>
      </trkpt>
      <trkpt lat="43.50831" lon="6.37981">
        <ele>237</ele>
        <time>2021-11-24T15:57:29.000Z</time>
      </trkpt>
      <trkpt lat="43.50831" lon="6.37981">
        <ele>237</ele>
        <time>2021-11-24T15:57:30.000Z</time>
      </trkpt>
      <trkpt lat="43.50831" lon="6.37981">
        <ele>237</ele>
        <time>2021-11-24T15:57:31.000Z</time>
      </trkpt>
      <trkpt lat="43.50831" lon="6.37981">
        <ele>237</ele>
        <time>2021-11-24T15:57:32.000Z</time>
      </trkpt>
      <trkpt lat="43.50831" lon="6.37981">
        <ele>237</ele>
        <time>2021-11-24T15:57:33.000Z</time>
      </trkpt>
      <trkpt lat="43.50831" lon="6.37981">
        <ele>237</ele>
        <time>2021-11-24T15:57:34.000Z</time>
      </trkpt>
      <trkpt lat="43.50831" lon="6.37981">
        <ele>237</ele>
        <time>2021-11-24T15:57:35.000Z</time>
      </trkpt>
      <trkpt lat="43.50831" lon="6.37981">
        <ele>237</ele>
        <time>2021-11-24T15:57:36.000Z</time>
      </trkpt>
      <trkpt lat="43.5083" lon="6.37981">
        <ele>237</ele>
        <time>2021-11-24T15:57:37.000Z</time>
      </trkpt>
      <trkpt lat="43.5083" lon="6.37981">
        <ele>237</ele>
        <time>2021-11-24T15:57:38.000Z</time>
      </trkpt>
      <trkpt lat="43.5083" lon="6.37981">
        <ele>237</ele>
        <time>2021-11-24T15:57:39.000Z</time>
      </trkpt>
      <trkpt lat="43.5083" lon="6.37981">
        <ele>237</ele>
        <time>2021-11-24T15:57:40.000Z</time>
      </trkpt>
      <trkpt lat="43.50829" lon="6.37981">
        <ele>237</ele>
        <time>2021-11-24T15:57:41.000Z</time>
      </trkpt>
      <trkpt lat="43.50829" lon="6.37981">
        <ele>237</ele>
        <time>2021-11-24T15:57:42.000Z</time>
      </trkpt>
      <trkpt lat="43.50828" lon="6.37981">
        <ele>237</ele>
        <time>2021-11-24T15:57:43.000Z</time>
      </trkpt>
      <trkpt lat="43.50827" lon="6.3798">
        <ele>237</ele>
        <time>2021-11-24T15:57:44.000Z</time>
      </trkpt>
      <trkpt lat="43.50826" lon="6.3798">
        <ele>237</ele>
        <time>2021-11-24T15:57:45.000Z</time>
      </trkpt>
      <trkpt lat="43.50826" lon="6.3798">
        <ele>237</ele>
        <time>2021-11-24T15:57:46.000Z</time>
      </trkpt>
      <trkpt lat="43.50825" lon="6.3798">
        <ele>237</ele>
        <time>2021-11-24T15:57:47.000Z</time>
      </trkpt>
      <trkpt lat="43.50825" lon="6.3798">
        <ele>237</ele>
        <time>2021-11-24T15:57:48.000Z</time>
      </trkpt>
      <trkpt lat="43.50825" lon="6.3798">
        <ele>237</ele>
        <time>2021-11-24T15:57:49.000Z</time>
      </trkpt>
      <trkpt lat="43.50824" lon="6.3798">
        <ele>237</ele>
        <time>2021-11-24T15:57:50.000Z</time>
      </trkpt>
      <trkpt lat="43.50824" lon="6.3798">
        <ele>237</ele>
        <time>2021-11-24T15:57:51.000Z</time>
      </trkpt>
      <trkpt lat="43.50824" lon="6.3798">
        <ele>237</ele>
        <time>2021-11-24T15:57:52.000Z</time>
      </trkpt>
      <trkpt lat="43.50824" lon="6.37979">
        <ele>237</ele>
        <time>2021-11-24T15:57:53.000Z</time>
      </trkpt>
      <trkpt lat="43.50823" lon="6.37979">
        <ele>237</ele>
        <time>2021-11-24T15:57:54.000Z</time>
      </trkpt>
      <trkpt lat="43.50823" lon="6.37979">
        <ele>237</ele>
        <time>2021-11-24T15:57:55.000Z</time>
      </trkpt>
      <trkpt lat="43.50823" lon="6.37979">
        <ele>237</ele>
        <time>2021-11-24T15:57:56.000Z</time>
      </trkpt>
      <trkpt lat="43.50823" lon="6.37979">
        <ele>237</ele>
        <time>2021-11-24T15:57:57.000Z</time>
      </trkpt>
      <trkpt lat="43.50823" lon="6.37979">
        <ele>237</ele>
        <time>2021-11-24T15:57:58.000Z</time>
      </trkpt>
      <trkpt lat="43.50822" lon="6.3798">
        <ele>237</ele>
        <time>2021-11-24T15:57:59.000Z</time>
      </trkpt>
      <trkpt lat="43.50822" lon="6.3798">
        <ele>237</ele>
        <time>2021-11-24T15:58:00.000Z</time>
      </trkpt>
      <trkpt lat="43.50821" lon="6.3798">
        <ele>237</ele>
        <time>2021-11-24T15:58:01.000Z</time>
      </trkpt>
      <trkpt lat="43.50818" lon="6.3798">
        <ele>237</ele>
        <time>2021-11-24T15:58:02.000Z</time>
      </trkpt>
      <trkpt lat="43.50816" lon="6.3798">
        <ele>237</ele>
        <time>2021-11-24T15:58:03.000Z</time>
      </trkpt>
      <trkpt lat="43.50815" lon="6.37979">
        <ele>237</ele>
        <time>2021-11-24T15:58:04.000Z</time>
      </trkpt>
      <trkpt lat="43.50813" lon="6.37979">
        <ele>237</ele>
        <time>2021-11-24T15:58:05.000Z</time>
      </trkpt>
      <trkpt lat="43.50812" lon="6.37978">
        <ele>237</ele>
        <time>2021-11-24T15:58:06.000Z</time>
      </trkpt>
      <trkpt lat="43.5081" lon="6.37977">
        <ele>237</ele>
        <time>2021-11-24T15:58:07.000Z</time>
      </trkpt>
      <trkpt lat="43.50809" lon="6.37977">
        <ele>238</ele>
        <time>2021-11-24T15:58:08.000Z</time>
      </trkpt>
      <trkpt lat="43.50807" lon="6.37977">
        <ele>238</ele>
        <time>2021-11-24T15:58:09.000Z</time>
      </trkpt>
      <trkpt lat="43.50805" lon="6.37977">
        <ele>239</ele>
        <time>2021-11-24T15:58:10.000Z</time>
      </trkpt>
      <trkpt lat="43.50804" lon="6.37977">
        <ele>239</ele>
        <time>2021-11-24T15:58:11.000Z</time>
      </trkpt>
      <trkpt lat="43.50803" lon="6.37978">
        <ele>239</ele>
        <time>2021-11-24T15:58:12.000Z</time>
      </trkpt>
      <trkpt lat="43.50801" lon="6.37979">
        <ele>239</ele>
        <time>2021-11-24T15:58:13.000Z</time>
      </trkpt>
      <trkpt lat="43.50799" lon="6.37979">
        <ele>239</ele>
        <time>2021-11-24T15:58:14.000Z</time>
      </trkpt>
      <trkpt lat="43.50797" lon="6.37979">
        <ele>239</ele>
        <time>2021-11-24T15:58:15.000Z</time>
      </trkpt>
      <trkpt lat="43.50796" lon="6.37979">
        <ele>239</ele>
        <time>2021-11-24T15:58:16.000Z</time>
      </trkpt>
      <trkpt lat="43.50795" lon="6.37979">
        <ele>239</ele>
        <time>2021-11-24T15:58:17.000Z</time>
      </trkpt>
      <trkpt lat="43.50794" lon="6.37979">
        <ele>239</ele>
        <time>2021-11-24T15:58:18.000Z</time>
      </trkpt>
      <trkpt lat="43.50792" lon="6.37979">
        <ele>239</ele>
        <time>2021-11-24T15:58:19.000Z</time>
      </trkpt>
      <trkpt lat="43.50791" lon="6.37979">
        <ele>239</ele>
        <time>2021-11-24T15:58:20.000Z</time>
      </trkpt>
      <trkpt lat="43.50789" lon="6.37979">
        <ele>239</ele>
        <time>2021-11-24T15:58:21.000Z</time>
      </trkpt>
      <trkpt lat="43.50787" lon="6.37979">
        <ele>239</ele>
        <time>2021-11-24T15:58:22.000Z</time>
      </trkpt>
      <trkpt lat="43.50786" lon="6.37979">
        <ele>238</ele>
        <time>2021-11-24T15:58:23.000Z</time>
      </trkpt>
      <trkpt lat="43.50784" lon="6.37978">
        <ele>238</ele>
        <time>2021-11-24T15:58:24.000Z</time>
      </trkpt>
      <trkpt lat="43.50783" lon="6.37978">
        <ele>238</ele>
        <time>2021-11-24T15:58:25.000Z</time>
      </trkpt>
      <trkpt lat="43.50781" lon="6.37978">
        <ele>238</ele>
        <time>2021-11-24T15:58:26.000Z</time>
      </trkpt>
      <trkpt lat="43.5078" lon="6.37978">
        <ele>238</ele>
        <time>2021-11-24T15:58:27.000Z</time>
      </trkpt>
      <trkpt lat="43.50779" lon="6.37978">
        <ele>238</ele>
        <time>2021-11-24T15:58:28.000Z</time>
      </trkpt>
      <trkpt lat="43.50778" lon="6.37978">
        <ele>239</ele>
        <time>2021-11-24T15:58:29.000Z</time>
      </trkpt>
      <trkpt lat="43.50777" lon="6.37978">
        <ele>239</ele>
        <time>2021-11-24T15:58:30.000Z</time>
      </trkpt>
      <trkpt lat="43.50775" lon="6.37978">
        <ele>239</ele>
        <time>2021-11-24T15:58:31.000Z</time>
      </trkpt>
      <trkpt lat="43.50774" lon="6.37978">
        <ele>239</ele>
        <time>2021-11-24T15:58:32.000Z</time>
      </trkpt>
      <trkpt lat="43.50772" lon="6.37979">
        <ele>239</ele>
        <time>2021-11-24T15:58:33.000Z</time>
      </trkpt>
      <trkpt lat="43.5077" lon="6.37979">
        <ele>240</ele>
        <time>2021-11-24T15:58:34.000Z</time>
      </trkpt>
      <trkpt lat="43.50769" lon="6.37979">
        <ele>240</ele>
        <time>2021-11-24T15:58:35.000Z</time>
      </trkpt>
      <trkpt lat="43.50767" lon="6.37979">
        <ele>240</ele>
        <time>2021-11-24T15:58:36.000Z</time>
      </trkpt>
      <trkpt lat="43.50766" lon="6.37979">
        <ele>240</ele>
        <time>2021-11-24T15:58:37.000Z</time>
      </trkpt>
      <trkpt lat="43.50765" lon="6.3798">
        <ele>240</ele>
        <time>2021-11-24T15:58:38.000Z</time>
      </trkpt>
      <trkpt lat="43.50764" lon="6.3798">
        <ele>240</ele>
        <time>2021-11-24T15:58:39.000Z</time>
      </trkpt>
      <trkpt lat="43.50763" lon="6.3798">
        <ele>240</ele>
        <time>2021-11-24T15:58:40.000Z</time>
      </trkpt>
      <trkpt lat="43.50762" lon="6.3798">
        <ele>240</ele>
        <time>2021-11-24T15:58:41.000Z</time>
      </trkpt>
      <trkpt lat="43.50761" lon="6.37981">
        <ele>240</ele>
        <time>2021-11-24T15:58:42.000Z</time>
      </trkpt>
      <trkpt lat="43.5076" lon="6.37981">
        <ele>240</ele>
        <time>2021-11-24T15:58:43.000Z</time>
      </trkpt>
      <trkpt lat="43.50759" lon="6.37981">
        <ele>240</ele>
        <time>2021-11-24T15:58:44.000Z</time>
      </trkpt>
      <trkpt lat="43.50759" lon="6.37981">
        <ele>240</ele>
        <time>2021-11-24T15:58:45.000Z</time>
      </trkpt>
      <trkpt lat="43.50758" lon="6.37981">
        <ele>241</ele>
        <time>2021-11-24T15:58:46.000Z</time>
      </trkpt>
      <trkpt lat="43.50757" lon="6.37981">
        <ele>241</ele>
        <time>2021-11-24T15:58:47.000Z</time>
      </trkpt>
      <trkpt lat="43.50756" lon="6.37981">
        <ele>241</ele>
        <time>2021-11-24T15:58:48.000Z</time>
      </trkpt>
      <trkpt lat="43.50755" lon="6.37981">
        <ele>241</ele>
        <time>2021-11-24T15:58:49.000Z</time>
      </trkpt>
      <trkpt lat="43.50754" lon="6.3798">
        <ele>241</ele>
        <time>2021-11-24T15:58:50.000Z</time>
      </trkpt>
      <trkpt lat="43.50753" lon="6.37979">
        <ele>241</ele>
        <time>2021-11-24T15:58:51.000Z</time>
      </trkpt>
      <trkpt lat="43.50752" lon="6.37979">
        <ele>242</ele>
        <time>2021-11-24T15:58:52.000Z</time>
      </trkpt>
      <trkpt lat="43.50751" lon="6.37978">
        <ele>243</ele>
        <time>2021-11-24T15:58:53.000Z</time>
      </trkpt>
      <trkpt lat="43.50751" lon="6.37977">
        <ele>243</ele>
        <time>2021-11-24T15:58:54.000Z</time>
      </trkpt>
      <trkpt lat="43.5075" lon="6.37976">
        <ele>243</ele>
        <time>2021-11-24T15:58:55.000Z</time>
      </trkpt>
      <trkpt lat="43.5075" lon="6.37975">
        <ele>243</ele>
        <time>2021-11-24T15:58:56.000Z</time>
      </trkpt>
      <trkpt lat="43.5075" lon="6.37974">
        <ele>243</ele>
        <time>2021-11-24T15:58:57.000Z</time>
      </trkpt>
      <trkpt lat="43.50749" lon="6.37974">
        <ele>243</ele>
        <time>2021-11-24T15:58:58.000Z</time>
      </trkpt>
      <trkpt lat="43.50748" lon="6.37974">
        <ele>243</ele>
        <time>2021-11-24T15:58:59.000Z</time>
      </trkpt>
      <trkpt lat="43.50747" lon="6.37974">
        <ele>243</ele>
        <time>2021-11-24T15:59:00.000Z</time>
      </trkpt>
      <trkpt lat="43.50746" lon="6.37975">
        <ele>243</ele>
        <time>2021-11-24T15:59:01.000Z</time>
      </trkpt>
      <trkpt lat="43.50745" lon="6.37976">
        <ele>243</ele>
        <time>2021-11-24T15:59:02.000Z</time>
      </trkpt>
      <trkpt lat="43.50744" lon="6.37977">
        <ele>243</ele>
        <time>2021-11-24T15:59:03.000Z</time>
      </trkpt>
      <trkpt lat="43.50744" lon="6.37978">
        <ele>243</ele>
        <time>2021-11-24T15:59:04.000Z</time>
      </trkpt>
      <trkpt lat="43.50743" lon="6.37979">
        <ele>243</ele>
        <time>2021-11-24T15:59:05.000Z</time>
      </trkpt>
      <trkpt lat="43.50742" lon="6.3798">
        <ele>243</ele>
        <time>2021-11-24T15:59:06.000Z</time>
      </trkpt>
      <trkpt lat="43.50741" lon="6.37981">
        <ele>242</ele>
        <time>2021-11-24T15:59:07.000Z</time>
      </trkpt>
      <trkpt lat="43.50741" lon="6.37981">
        <ele>242</ele>
        <time>2021-11-24T15:59:08.000Z</time>
      </trkpt>
      <trkpt lat="43.5074" lon="6.37981">
        <ele>242</ele>
        <time>2021-11-24T15:59:09.000Z</time>
      </trkpt>
      <trkpt lat="43.5074" lon="6.37982">
        <ele>242</ele>
        <time>2021-11-24T15:59:10.000Z</time>
      </trkpt>
      <trkpt lat="43.50739" lon="6.37982">
        <ele>242</ele>
        <time>2021-11-24T15:59:11.000Z</time>
      </trkpt>
      <trkpt lat="43.50739" lon="6.37982">
        <ele>242</ele>
        <time>2021-11-24T15:59:12.000Z</time>
      </trkpt>
      <trkpt lat="43.50738" lon="6.37982">
        <ele>242</ele>
        <time>2021-11-24T15:59:13.000Z</time>
      </trkpt>
      <trkpt lat="43.50738" lon="6.37982">
        <ele>242</ele>
        <time>2021-11-24T15:59:14.000Z</time>
      </trkpt>
      <trkpt lat="43.50738" lon="6.37982">
        <ele>242</ele>
        <time>2021-11-24T15:59:15.000Z</time>
      </trkpt>
      <trkpt lat="43.50739" lon="6.37982">
        <ele>242</ele>
        <time>2021-11-24T15:59:16.000Z</time>
      </trkpt>
      <trkpt lat="43.50739" lon="6.37982">
        <ele>242</ele>
        <time>2021-11-24T15:59:17.000Z</time>
      </trkpt>
      <trkpt lat="43.50739" lon="6.37982">
        <ele>242</ele>
        <time>2021-11-24T15:59:18.000Z</time>
      </trkpt>
      <trkpt lat="43.50739" lon="6.37982">
        <ele>242</ele>
        <time>2021-11-24T15:59:19.000Z</time>
      </trkpt>
      <trkpt lat="43.50739" lon="6.37982">
        <ele>242</ele>
        <time>2021-11-24T15:59:20.000Z</time>
      </trkpt>
      <trkpt lat="43.50738" lon="6.37983">
        <ele>242</ele>
        <time>2021-11-24T15:59:21.000Z</time>
      </trkpt>
      <trkpt lat="43.50738" lon="6.37983">
        <ele>242</ele>
        <time>2021-11-24T15:59:22.000Z</time>
      </trkpt>
      <trkpt lat="43.50737" lon="6.37983">
        <ele>242</ele>
        <time>2021-11-24T15:59:23.000Z</time>
      </trkpt>
      <trkpt lat="43.50737" lon="6.37983">
        <ele>242</ele>
        <time>2021-11-24T15:59:24.000Z</time>
      </trkpt>
      <trkpt lat="43.50736" lon="6.37983">
        <ele>242</ele>
        <time>2021-11-24T15:59:25.000Z</time>
      </trkpt>
      <trkpt lat="43.50736" lon="6.37983">
        <ele>242</ele>
        <time>2021-11-24T15:59:26.000Z</time>
      </trkpt>
      <trkpt lat="43.50735" lon="6.37984">
        <ele>242</ele>
        <time>2021-11-24T15:59:27.000Z</time>
      </trkpt>
      <trkpt lat="43.50735" lon="6.37984">
        <ele>242</ele>
        <time>2021-11-24T15:59:28.000Z</time>
      </trkpt>
      <trkpt lat="43.50735" lon="6.37984">
        <ele>242</ele>
        <time>2021-11-24T15:59:29.000Z</time>
      </trkpt>
      <trkpt lat="43.50735" lon="6.37984">
        <ele>242</ele>
        <time>2021-11-24T15:59:30.000Z</time>
      </trkpt>
      <trkpt lat="43.50735" lon="6.37984">
        <ele>242</ele>
        <time>2021-11-24T15:59:31.000Z</time>
      </trkpt>
      <trkpt lat="43.50734" lon="6.37984">
        <ele>242</ele>
        <time>2021-11-24T15:59:32.000Z</time>
      </trkpt>
      <trkpt lat="43.50734" lon="6.37984">
        <ele>242</ele>
        <time>2021-11-24T15:59:33.000Z</time>
      </trkpt>
      <trkpt lat="43.50733" lon="6.37983">
        <ele>242</ele>
        <time>2021-11-24T15:59:34.000Z</time>
      </trkpt>
      <trkpt lat="43.50733" lon="6.37983">
        <ele>242</ele>
        <time>2021-11-24T15:59:35.000Z</time>
      </trkpt>
      <trkpt lat="43.50734" lon="6.37983">
        <ele>242</ele>
        <time>2021-11-24T15:59:36.000Z</time>
      </trkpt>
      <trkpt lat="43.50734" lon="6.37983">
        <ele>242</ele>
        <time>2021-11-24T15:59:37.000Z</time>
      </trkpt>
      <trkpt lat="43.50734" lon="6.37983">
        <ele>242</ele>
        <time>2021-11-24T15:59:38.000Z</time>
      </trkpt>
      <trkpt lat="43.50734" lon="6.37983">
        <ele>242</ele>
        <time>2021-11-24T15:59:39.000Z</time>
      </trkpt>
      <trkpt lat="43.50734" lon="6.37983">
        <ele>242</ele>
        <time>2021-11-24T15:59:40.000Z</time>
      </trkpt>
      <trkpt lat="43.50734" lon="6.37983">
        <ele>242</ele>
        <time>2021-11-24T15:59:41.000Z</time>
      </trkpt>
      <trkpt lat="43.50734" lon="6.37983">
        <ele>242</ele>
        <time>2021-11-24T15:59:42.000Z</time>
      </trkpt>
      <trkpt lat="43.50734" lon="6.37983">
        <ele>242</ele>
        <time>2021-11-24T15:59:43.000Z</time>
      </trkpt>
      <trkpt lat="43.50734" lon="6.37983">
        <ele>242</ele>
        <time>2021-11-24T15:59:44.000Z</time>
      </trkpt>
      <trkpt lat="43.50738" lon="6.37984">
        <ele>242</ele>
        <time>2021-11-24T15:59:45.000Z</time>
      </trkpt>
      <trkpt lat="43.50739" lon="6.37984">
        <ele>242</ele>
        <time>2021-11-24T15:59:46.000Z</time>
      </trkpt>
      <trkpt lat="43.50739" lon="6.37985">
        <ele>242</ele>
        <time>2021-11-24T15:59:47.000Z</time>
      </trkpt>
      <trkpt lat="43.50739" lon="6.37985">
        <ele>242</ele>
        <time>2021-11-24T15:59:48.000Z</time>
      </trkpt>
      <trkpt lat="43.5074" lon="6.37985">
        <ele>242</ele>
        <time>2021-11-24T15:59:49.000Z</time>
      </trkpt>
      <trkpt lat="43.5074" lon="6.37985">
        <ele>242</ele>
        <time>2021-11-24T15:59:50.000Z</time>
      </trkpt>
      <trkpt lat="43.5074" lon="6.37986">
        <ele>242</ele>
        <time>2021-11-24T15:59:51.000Z</time>
      </trkpt>
      <trkpt lat="43.50741" lon="6.37986">
        <ele>242</ele>
        <time>2021-11-24T15:59:52.000Z</time>
      </trkpt>
      <trkpt lat="43.50741" lon="6.37986">
        <ele>242</ele>
        <time>2021-11-24T15:59:53.000Z</time>
      </trkpt>
      <trkpt lat="43.50741" lon="6.37987">
        <ele>242</ele>
        <time>2021-11-24T15:59:54.000Z</time>
      </trkpt>
      <trkpt lat="43.50741" lon="6.37987">
        <ele>242</ele>
        <time>2021-11-24T15:59:55.000Z</time>
      </trkpt>
      <trkpt lat="43.5074" lon="6.37988">
        <ele>242</ele>
        <time>2021-11-24T15:59:56.000Z</time>
      </trkpt>
      <trkpt lat="43.5074" lon="6.37988">
        <ele>242</ele>
        <time>2021-11-24T15:59:57.000Z</time>
      </trkpt>
      <trkpt lat="43.5074" lon="6.37988">
        <ele>242</ele>
        <time>2021-11-24T15:59:58.000Z</time>
      </trkpt>
      <trkpt lat="43.5074" lon="6.37988">
        <ele>242</ele>
        <time>2021-11-24T15:59:59.000Z</time>
      </trkpt>
      <trkpt lat="43.5074" lon="6.37989">
        <ele>242</ele>
        <time>2021-11-24T16:00:00.000Z</time>
      </trkpt>
      <trkpt lat="43.5074" lon="6.37989">
        <ele>242</ele>
        <time>2021-11-24T16:00:01.000Z</time>
      </trkpt>
      <trkpt lat="43.5074" lon="6.37989">
        <ele>242</ele>
        <time>2021-11-24T16:00:02.000Z</time>
      </trkpt>
      <trkpt lat="43.5074" lon="6.37989">
        <ele>242</ele>
        <time>2021-11-24T16:00:03.000Z</time>
      </trkpt>
      <trkpt lat="43.50739" lon="6.37989">
        <ele>242</ele>
        <time>2021-11-24T16:00:04.000Z</time>
      </trkpt>
      <trkpt lat="43.50739" lon="6.3799">
        <ele>242</ele>
        <time>2021-11-24T16:00:05.000Z</time>
      </trkpt>
      <trkpt lat="43.50737" lon="6.37991">
        <ele>242</ele>
        <time>2021-11-24T16:00:06.000Z</time>
      </trkpt>
      <trkpt lat="43.50735" lon="6.37992">
        <ele>242</ele>
        <time>2021-11-24T16:00:07.000Z</time>
      </trkpt>
      <trkpt lat="43.50734" lon="6.37993">
        <ele>242</ele>
        <time>2021-11-24T16:00:08.000Z</time>
      </trkpt>
      <trkpt lat="43.50733" lon="6.37994">
        <ele>242</ele>
        <time>2021-11-24T16:00:09.000Z</time>
      </trkpt>
      <trkpt lat="43.50731" lon="6.37995">
        <ele>242</ele>
        <time>2021-11-24T16:00:10.000Z</time>
      </trkpt>
      <trkpt lat="43.5073" lon="6.37996">
        <ele>242</ele>
        <time>2021-11-24T16:00:11.000Z</time>
      </trkpt>
      <trkpt lat="43.50728" lon="6.37997">
        <ele>242</ele>
        <time>2021-11-24T16:00:12.000Z</time>
      </trkpt>
      <trkpt lat="43.50727" lon="6.37998">
        <ele>242</ele>
        <time>2021-11-24T16:00:13.000Z</time>
      </trkpt>
      <trkpt lat="43.50725" lon="6.37999">
        <ele>243</ele>
        <time>2021-11-24T16:00:14.000Z</time>
      </trkpt>
      <trkpt lat="43.50723" lon="6.38">
        <ele>243</ele>
        <time>2021-11-24T16:00:15.000Z</time>
      </trkpt>
      <trkpt lat="43.50721" lon="6.38001">
        <ele>243</ele>
        <time>2021-11-24T16:00:16.000Z</time>
      </trkpt>
      <trkpt lat="43.50718" lon="6.38002">
        <ele>243</ele>
        <time>2021-11-24T16:00:17.000Z</time>
      </trkpt>
      <trkpt lat="43.50716" lon="6.38003">
        <ele>244</ele>
        <time>2021-11-24T16:00:18.000Z</time>
      </trkpt>
      <trkpt lat="43.50715" lon="6.38004">
        <ele>244</ele>
        <time>2021-11-24T16:00:19.000Z</time>
      </trkpt>
      <trkpt lat="43.50713" lon="6.38004">
        <ele>245</ele>
        <time>2021-11-24T16:00:20.000Z</time>
      </trkpt>
      <trkpt lat="43.50712" lon="6.38005">
        <ele>245</ele>
        <time>2021-11-24T16:00:21.000Z</time>
      </trkpt>
      <trkpt lat="43.5071" lon="6.38006">
        <ele>245</ele>
        <time>2021-11-24T16:00:22.000Z</time>
      </trkpt>
      <trkpt lat="43.50709" lon="6.38007">
        <ele>246</ele>
        <time>2021-11-24T16:00:23.000Z</time>
      </trkpt>
      <trkpt lat="43.50708" lon="6.38008">
        <ele>247</ele>
        <time>2021-11-24T16:00:24.000Z</time>
      </trkpt>
      <trkpt lat="43.50707" lon="6.38009">
        <ele>247</ele>
        <time>2021-11-24T16:00:25.000Z</time>
      </trkpt>
      <trkpt lat="43.50706" lon="6.3801">
        <ele>248</ele>
        <time>2021-11-24T16:00:26.000Z</time>
      </trkpt>
      <trkpt lat="43.50705" lon="6.3801">
        <ele>248</ele>
        <time>2021-11-24T16:00:27.000Z</time>
      </trkpt>
      <trkpt lat="43.50703" lon="6.38011">
        <ele>248</ele>
        <time>2021-11-24T16:00:28.000Z</time>
      </trkpt>
      <trkpt lat="43.50702" lon="6.38012">
        <ele>248</ele>
        <time>2021-11-24T16:00:29.000Z</time>
      </trkpt>
      <trkpt lat="43.50699" lon="6.38014">
        <ele>249</ele>
        <time>2021-11-24T16:00:30.000Z</time>
      </trkpt>
      <trkpt lat="43.50697" lon="6.38015">
        <ele>249</ele>
        <time>2021-11-24T16:00:31.000Z</time>
      </trkpt>
      <trkpt lat="43.50694" lon="6.38016">
        <ele>249</ele>
        <time>2021-11-24T16:00:32.000Z</time>
      </trkpt>
      <trkpt lat="43.50693" lon="6.38016">
        <ele>250</ele>
        <time>2021-11-24T16:00:33.000Z</time>
      </trkpt>
      <trkpt lat="43.50692" lon="6.38017">
        <ele>250</ele>
        <time>2021-11-24T16:00:34.000Z</time>
      </trkpt>
      <trkpt lat="43.50692" lon="6.38017">
        <ele>250</ele>
        <time>2021-11-24T16:00:35.000Z</time>
      </trkpt>
      <trkpt lat="43.50691" lon="6.38017">
        <ele>250</ele>
        <time>2021-11-24T16:00:36.000Z</time>
      </trkpt>
      <trkpt lat="43.5069" lon="6.38017">
        <ele>250</ele>
        <time>2021-11-24T16:00:37.000Z</time>
      </trkpt>
      <trkpt lat="43.5069" lon="6.38018">
        <ele>250</ele>
        <time>2021-11-24T16:00:38.000Z</time>
      </trkpt>
      <trkpt lat="43.50689" lon="6.38018">
        <ele>250</ele>
        <time>2021-11-24T16:00:39.000Z</time>
      </trkpt>
      <trkpt lat="43.50688" lon="6.38018">
        <ele>250</ele>
        <time>2021-11-24T16:00:40.000Z</time>
      </trkpt>
      <trkpt lat="43.50687" lon="6.38019">
        <ele>251</ele>
        <time>2021-11-24T16:00:41.000Z</time>
      </trkpt>
      <trkpt lat="43.50685" lon="6.38019">
        <ele>251</ele>
        <time>2021-11-24T16:00:42.000Z</time>
      </trkpt>
      <trkpt lat="43.50683" lon="6.38019">
        <ele>251</ele>
        <time>2021-11-24T16:00:43.000Z</time>
      </trkpt>
      <trkpt lat="43.50681" lon="6.3802">
        <ele>252</ele>
        <time>2021-11-24T16:00:44.000Z</time>
      </trkpt>
      <trkpt lat="43.5068" lon="6.3802">
        <ele>253</ele>
        <time>2021-11-24T16:00:45.000Z</time>
      </trkpt>
      <trkpt lat="43.5068" lon="6.3802">
        <ele>253</ele>
        <time>2021-11-24T16:00:46.000Z</time>
      </trkpt>
      <trkpt lat="43.50679" lon="6.3802">
        <ele>253</ele>
        <time>2021-11-24T16:00:47.000Z</time>
      </trkpt>
      <trkpt lat="43.50678" lon="6.3802">
        <ele>253</ele>
        <time>2021-11-24T16:00:48.000Z</time>
      </trkpt>
      <trkpt lat="43.50678" lon="6.38021">
        <ele>253</ele>
        <time>2021-11-24T16:00:49.000Z</time>
      </trkpt>
      <trkpt lat="43.50677" lon="6.38021">
        <ele>253</ele>
        <time>2021-11-24T16:00:50.000Z</time>
      </trkpt>
      <trkpt lat="43.50677" lon="6.38021">
        <ele>253</ele>
        <time>2021-11-24T16:00:51.000Z</time>
      </trkpt>
      <trkpt lat="43.50676" lon="6.38021">
        <ele>254</ele>
        <time>2021-11-24T16:00:52.000Z</time>
      </trkpt>
      <trkpt lat="43.50675" lon="6.38021">
        <ele>254</ele>
        <time>2021-11-24T16:00:53.000Z</time>
      </trkpt>
      <trkpt lat="43.50674" lon="6.38021">
        <ele>254</ele>
        <time>2021-11-24T16:00:54.000Z</time>
      </trkpt>
      <trkpt lat="43.50673" lon="6.38022">
        <ele>254</ele>
        <time>2021-11-24T16:00:55.000Z</time>
      </trkpt>
      <trkpt lat="43.50672" lon="6.38022">
        <ele>255</ele>
        <time>2021-11-24T16:00:56.000Z</time>
      </trkpt>
      <trkpt lat="43.50671" lon="6.38022">
        <ele>255</ele>
        <time>2021-11-24T16:00:57.000Z</time>
      </trkpt>
      <trkpt lat="43.50671" lon="6.38023">
        <ele>255</ele>
        <time>2021-11-24T16:00:58.000Z</time>
      </trkpt>
      <trkpt lat="43.5067" lon="6.38023">
        <ele>255</ele>
        <time>2021-11-24T16:00:59.000Z</time>
      </trkpt>
      <trkpt lat="43.5067" lon="6.38023">
        <ele>256</ele>
        <time>2021-11-24T16:01:00.000Z</time>
      </trkpt>
      <trkpt lat="43.5067" lon="6.38023">
        <ele>256</ele>
        <time>2021-11-24T16:01:01.000Z</time>
      </trkpt>
      <trkpt lat="43.50669" lon="6.38023">
        <ele>256</ele>
        <time>2021-11-24T16:01:02.000Z</time>
      </trkpt>
      <trkpt lat="43.50668" lon="6.38023">
        <ele>256</ele>
        <time>2021-11-24T16:01:03.000Z</time>
      </trkpt>
      <trkpt lat="43.50667" lon="6.38024">
        <ele>256</ele>
        <time>2021-11-24T16:01:04.000Z</time>
      </trkpt>
      <trkpt lat="43.50666" lon="6.38024">
        <ele>256</ele>
        <time>2021-11-24T16:01:05.000Z</time>
      </trkpt>
      <trkpt lat="43.50665" lon="6.38024">
        <ele>256</ele>
        <time>2021-11-24T16:01:06.000Z</time>
      </trkpt>
      <trkpt lat="43.50664" lon="6.38024">
        <ele>256</ele>
        <time>2021-11-24T16:01:07.000Z</time>
      </trkpt>
      <trkpt lat="43.50664" lon="6.38025">
        <ele>256</ele>
        <time>2021-11-24T16:01:08.000Z</time>
      </trkpt>
      <trkpt lat="43.50663" lon="6.38025">
        <ele>256</ele>
        <time>2021-11-24T16:01:09.000Z</time>
      </trkpt>
      <trkpt lat="43.50662" lon="6.38025">
        <ele>255</ele>
        <time>2021-11-24T16:01:10.000Z</time>
      </trkpt>
      <trkpt lat="43.50661" lon="6.38025">
        <ele>255</ele>
        <time>2021-11-24T16:01:11.000Z</time>
      </trkpt>
      <trkpt lat="43.5066" lon="6.38025">
        <ele>255</ele>
        <time>2021-11-24T16:01:12.000Z</time>
      </trkpt>
      <trkpt lat="43.50659" lon="6.38025">
        <ele>255</ele>
        <time>2021-11-24T16:01:13.000Z</time>
      </trkpt>
      <trkpt lat="43.50658" lon="6.38026">
        <ele>255</ele>
        <time>2021-11-24T16:01:14.000Z</time>
      </trkpt>
      <trkpt lat="43.50657" lon="6.38026">
        <ele>255</ele>
        <time>2021-11-24T16:01:15.000Z</time>
      </trkpt>
      <trkpt lat="43.50657" lon="6.38026">
        <ele>255</ele>
        <time>2021-11-24T16:01:16.000Z</time>
      </trkpt>
      <trkpt lat="43.50656" lon="6.38026">
        <ele>255</ele>
        <time>2021-11-24T16:01:17.000Z</time>
      </trkpt>
      <trkpt lat="43.50655" lon="6.38026">
        <ele>255</ele>
        <time>2021-11-24T16:01:18.000Z</time>
      </trkpt>
      <trkpt lat="43.50655" lon="6.38026">
        <ele>255</ele>
        <time>2021-11-24T16:01:19.000Z</time>
      </trkpt>
      <trkpt lat="43.50655" lon="6.38026">
        <ele>255</ele>
        <time>2021-11-24T16:01:20.000Z</time>
      </trkpt>
      <trkpt lat="43.50654" lon="6.38026">
        <ele>255</ele>
        <time>2021-11-24T16:01:21.000Z</time>
      </trkpt>
      <trkpt lat="43.50654" lon="6.38027">
        <ele>255</ele>
        <time>2021-11-24T16:01:22.000Z</time>
      </trkpt>
      <trkpt lat="43.50654" lon="6.38027">
        <ele>255</ele>
        <time>2021-11-24T16:01:23.000Z</time>
      </trkpt>
      <trkpt lat="43.50653" lon="6.38027">
        <ele>255</ele>
        <time>2021-11-24T16:01:24.000Z</time>
      </trkpt>
      <trkpt lat="43.50653" lon="6.38027">
        <ele>255</ele>
        <time>2021-11-24T16:01:25.000Z</time>
      </trkpt>
      <trkpt lat="43.50653" lon="6.38027">
        <ele>255</ele>
        <time>2021-11-24T16:01:26.000Z</time>
      </trkpt>
      <trkpt lat="43.50653" lon="6.38027">
        <ele>255</ele>
        <time>2021-11-24T16:01:27.000Z</time>
      </trkpt>
      <trkpt lat="43.50652" lon="6.38027">
        <ele>255</ele>
        <time>2021-11-24T16:01:28.000Z</time>
      </trkpt>
      <trkpt lat="43.50651" lon="6.38027">
        <ele>255</ele>
        <time>2021-11-24T16:01:29.000Z</time>
      </trkpt>
      <trkpt lat="43.50649" lon="6.38028">
        <ele>255</ele>
        <time>2021-11-24T16:01:30.000Z</time>
      </trkpt>
      <trkpt lat="43.50648" lon="6.38028">
        <ele>255</ele>
        <time>2021-11-24T16:01:31.000Z</time>
      </trkpt>
      <trkpt lat="43.50647" lon="6.38029">
        <ele>255</ele>
        <time>2021-11-24T16:01:32.000Z</time>
      </trkpt>
      <trkpt lat="43.50645" lon="6.38029">
        <ele>255</ele>
        <time>2021-11-24T16:01:33.000Z</time>
      </trkpt>
      <trkpt lat="43.50644" lon="6.38029">
        <ele>255</ele>
        <time>2021-11-24T16:01:34.000Z</time>
      </trkpt>
      <trkpt lat="43.50644" lon="6.3803">
        <ele>255</ele>
        <time>2021-11-24T16:01:35.000Z</time>
      </trkpt>
      <trkpt lat="43.50643" lon="6.3803">
        <ele>255</ele>
        <time>2021-11-24T16:01:36.000Z</time>
      </trkpt>
      <trkpt lat="43.50643" lon="6.3803">
        <ele>255</ele>
        <time>2021-11-24T16:01:37.000Z</time>
      </trkpt>
      <trkpt lat="43.50642" lon="6.3803">
        <ele>255</ele>
        <time>2021-11-24T16:01:38.000Z</time>
      </trkpt>
      <trkpt lat="43.50642" lon="6.3803">
        <ele>255</ele>
        <time>2021-11-24T16:01:39.000Z</time>
      </trkpt>
      <trkpt lat="43.50641" lon="6.3803">
        <ele>255</ele>
        <time>2021-11-24T16:01:40.000Z</time>
      </trkpt>
      <trkpt lat="43.50641" lon="6.38031">
        <ele>255</ele>
        <time>2021-11-24T16:01:41.000Z</time>
      </trkpt>
      <trkpt lat="43.5064" lon="6.38031">
        <ele>255</ele>
        <time>2021-11-24T16:01:42.000Z</time>
      </trkpt>
      <trkpt lat="43.50639" lon="6.38031">
        <ele>255</ele>
        <time>2021-11-24T16:01:43.000Z</time>
      </trkpt>
      <trkpt lat="43.50637" lon="6.38032">
        <ele>255</ele>
        <time>2021-11-24T16:01:44.000Z</time>
      </trkpt>
      <trkpt lat="43.50637" lon="6.38032">
        <ele>255</ele>
        <time>2021-11-24T16:01:45.000Z</time>
      </trkpt>
      <trkpt lat="43.50635" lon="6.38032">
        <ele>255</ele>
        <time>2021-11-24T16:01:46.000Z</time>
      </trkpt>
      <trkpt lat="43.50634" lon="6.38033">
        <ele>255</ele>
        <time>2021-11-24T16:01:47.000Z</time>
      </trkpt>
      <trkpt lat="43.50632" lon="6.38033">
        <ele>256</ele>
        <time>2021-11-24T16:01:48.000Z</time>
      </trkpt>
      <trkpt lat="43.5063" lon="6.38034">
        <ele>256</ele>
        <time>2021-11-24T16:01:49.000Z</time>
      </trkpt>
      <trkpt lat="43.50628" lon="6.38035">
        <ele>257</ele>
        <time>2021-11-24T16:01:50.000Z</time>
      </trkpt>
      <trkpt lat="43.50627" lon="6.38035">
        <ele>257</ele>
        <time>2021-11-24T16:01:51.000Z</time>
      </trkpt>
      <trkpt lat="43.50626" lon="6.38036">
        <ele>257</ele>
        <time>2021-11-24T16:01:52.000Z</time>
      </trkpt>
      <trkpt lat="43.50625" lon="6.38036">
        <ele>257</ele>
        <time>2021-11-24T16:01:53.000Z</time>
      </trkpt>
      <trkpt lat="43.50625" lon="6.38036">
        <ele>257</ele>
        <time>2021-11-24T16:01:54.000Z</time>
      </trkpt>
      <trkpt lat="43.50624" lon="6.38036">
        <ele>257</ele>
        <time>2021-11-24T16:01:55.000Z</time>
      </trkpt>
      <trkpt lat="43.50623" lon="6.38036">
        <ele>257</ele>
        <time>2021-11-24T16:01:56.000Z</time>
      </trkpt>
      <trkpt lat="43.50623" lon="6.38037">
        <ele>257</ele>
        <time>2021-11-24T16:01:57.000Z</time>
      </trkpt>
      <trkpt lat="43.50622" lon="6.38037">
        <ele>257</ele>
        <time>2021-11-24T16:01:58.000Z</time>
      </trkpt>
      <trkpt lat="43.5062" lon="6.38038">
        <ele>257</ele>
        <time>2021-11-24T16:01:59.000Z</time>
      </trkpt>
      <trkpt lat="43.50619" lon="6.38039">
        <ele>257</ele>
        <time>2021-11-24T16:02:00.000Z</time>
      </trkpt>
      <trkpt lat="43.50617" lon="6.38039">
        <ele>257</ele>
        <time>2021-11-24T16:02:01.000Z</time>
      </trkpt>
      <trkpt lat="43.50616" lon="6.3804">
        <ele>257</ele>
        <time>2021-11-24T16:02:02.000Z</time>
      </trkpt>
      <trkpt lat="43.50615" lon="6.3804">
        <ele>257</ele>
        <time>2021-11-24T16:02:03.000Z</time>
      </trkpt>
      <trkpt lat="43.50613" lon="6.38041">
        <ele>257</ele>
        <time>2021-11-24T16:02:04.000Z</time>
      </trkpt>
      <trkpt lat="43.50612" lon="6.38041">
        <ele>257</ele>
        <time>2021-11-24T16:02:05.000Z</time>
      </trkpt>
      <trkpt lat="43.5061" lon="6.38042">
        <ele>258</ele>
        <time>2021-11-24T16:02:06.000Z</time>
      </trkpt>
      <trkpt lat="43.50609" lon="6.38042">
        <ele>258</ele>
        <time>2021-11-24T16:02:07.000Z</time>
      </trkpt>
      <trkpt lat="43.50608" lon="6.38043">
        <ele>258</ele>
        <time>2021-11-24T16:02:08.000Z</time>
      </trkpt>
      <trkpt lat="43.50607" lon="6.38043">
        <ele>258</ele>
        <time>2021-11-24T16:02:09.000Z</time>
      </trkpt>
      <trkpt lat="43.50606" lon="6.38044">
        <ele>258</ele>
        <time>2021-11-24T16:02:10.000Z</time>
      </trkpt>
      <trkpt lat="43.50605" lon="6.38044">
        <ele>258</ele>
        <time>2021-11-24T16:02:11.000Z</time>
      </trkpt>
      <trkpt lat="43.50605" lon="6.38044">
        <ele>258</ele>
        <time>2021-11-24T16:02:12.000Z</time>
      </trkpt>
      <trkpt lat="43.50604" lon="6.38044">
        <ele>258</ele>
        <time>2021-11-24T16:02:13.000Z</time>
      </trkpt>
      <trkpt lat="43.50603" lon="6.38044">
        <ele>258</ele>
        <time>2021-11-24T16:02:14.000Z</time>
      </trkpt>
      <trkpt lat="43.50603" lon="6.38045">
        <ele>258</ele>
        <time>2021-11-24T16:02:15.000Z</time>
      </trkpt>
      <trkpt lat="43.50601" lon="6.38045">
        <ele>258</ele>
        <time>2021-11-24T16:02:16.000Z</time>
      </trkpt>
      <trkpt lat="43.506" lon="6.38046">
        <ele>258</ele>
        <time>2021-11-24T16:02:17.000Z</time>
      </trkpt>
      <trkpt lat="43.50599" lon="6.38046">
        <ele>258</ele>
        <time>2021-11-24T16:02:18.000Z</time>
      </trkpt>
      <trkpt lat="43.50599" lon="6.38046">
        <ele>257</ele>
        <time>2021-11-24T16:02:19.000Z</time>
      </trkpt>
      <trkpt lat="43.50598" lon="6.38046">
        <ele>258</ele>
        <time>2021-11-24T16:02:20.000Z</time>
      </trkpt>
      <trkpt lat="43.50597" lon="6.38047">
        <ele>258</ele>
        <time>2021-11-24T16:02:21.000Z</time>
      </trkpt>
      <trkpt lat="43.50596" lon="6.38047">
        <ele>258</ele>
        <time>2021-11-24T16:02:22.000Z</time>
      </trkpt>
      <trkpt lat="43.50595" lon="6.38048">
        <ele>258</ele>
        <time>2021-11-24T16:02:23.000Z</time>
      </trkpt>
      <trkpt lat="43.50595" lon="6.38048">
        <ele>258</ele>
        <time>2021-11-24T16:02:24.000Z</time>
      </trkpt>
      <trkpt lat="43.50594" lon="6.38048">
        <ele>258</ele>
        <time>2021-11-24T16:02:25.000Z</time>
      </trkpt>
      <trkpt lat="43.50593" lon="6.38049">
        <ele>258</ele>
        <time>2021-11-24T16:02:26.000Z</time>
      </trkpt>
      <trkpt lat="43.50592" lon="6.38049">
        <ele>258</ele>
        <time>2021-11-24T16:02:27.000Z</time>
      </trkpt>
      <trkpt lat="43.5059" lon="6.3805">
        <ele>259</ele>
        <time>2021-11-24T16:02:28.000Z</time>
      </trkpt>
      <trkpt lat="43.50589" lon="6.3805">
        <ele>260</ele>
        <time>2021-11-24T16:02:29.000Z</time>
      </trkpt>
      <trkpt lat="43.50588" lon="6.3805">
        <ele>260</ele>
        <time>2021-11-24T16:02:30.000Z</time>
      </trkpt>
      <trkpt lat="43.50587" lon="6.3805">
        <ele>260</ele>
        <time>2021-11-24T16:02:31.000Z</time>
      </trkpt>
      <trkpt lat="43.50587" lon="6.38051">
        <ele>260</ele>
        <time>2021-11-24T16:02:32.000Z</time>
      </trkpt>
      <trkpt lat="43.50586" lon="6.38051">
        <ele>260</ele>
        <time>2021-11-24T16:02:33.000Z</time>
      </trkpt>
      <trkpt lat="43.50586" lon="6.38051">
        <ele>260</ele>
        <time>2021-11-24T16:02:34.000Z</time>
      </trkpt>
      <trkpt lat="43.50585" lon="6.38051">
        <ele>260</ele>
        <time>2021-11-24T16:02:35.000Z</time>
      </trkpt>
      <trkpt lat="43.50584" lon="6.38051">
        <ele>260</ele>
        <time>2021-11-24T16:02:36.000Z</time>
      </trkpt>
      <trkpt lat="43.50583" lon="6.38052">
        <ele>260</ele>
        <time>2021-11-24T16:02:37.000Z</time>
      </trkpt>
      <trkpt lat="43.5058" lon="6.38053">
        <ele>260</ele>
        <time>2021-11-24T16:02:38.000Z</time>
      </trkpt>
      <trkpt lat="43.50578" lon="6.38053">
        <ele>260</ele>
        <time>2021-11-24T16:02:39.000Z</time>
      </trkpt>
      <trkpt lat="43.50576" lon="6.38054">
        <ele>261</ele>
        <time>2021-11-24T16:02:40.000Z</time>
      </trkpt>
      <trkpt lat="43.50575" lon="6.38054">
        <ele>261</ele>
        <time>2021-11-24T16:02:41.000Z</time>
      </trkpt>
      <trkpt lat="43.50573" lon="6.38055">
        <ele>261</ele>
        <time>2021-11-24T16:02:42.000Z</time>
      </trkpt>
      <trkpt lat="43.50572" lon="6.38055">
        <ele>261</ele>
        <time>2021-11-24T16:02:43.000Z</time>
      </trkpt>
      <trkpt lat="43.50571" lon="6.38056">
        <ele>262</ele>
        <time>2021-11-24T16:02:44.000Z</time>
      </trkpt>
      <trkpt lat="43.5057" lon="6.38056">
        <ele>262</ele>
        <time>2021-11-24T16:02:45.000Z</time>
      </trkpt>
      <trkpt lat="43.50569" lon="6.38056">
        <ele>262</ele>
        <time>2021-11-24T16:02:46.000Z</time>
      </trkpt>
      <trkpt lat="43.50568" lon="6.38057">
        <ele>262</ele>
        <time>2021-11-24T16:02:47.000Z</time>
      </trkpt>
      <trkpt lat="43.50567" lon="6.38057">
        <ele>262</ele>
        <time>2021-11-24T16:02:48.000Z</time>
      </trkpt>
      <trkpt lat="43.50567" lon="6.38057">
        <ele>262</ele>
        <time>2021-11-24T16:02:49.000Z</time>
      </trkpt>
      <trkpt lat="43.50566" lon="6.38057">
        <ele>262</ele>
        <time>2021-11-24T16:02:50.000Z</time>
      </trkpt>
      <trkpt lat="43.50565" lon="6.38057">
        <ele>263</ele>
        <time>2021-11-24T16:02:51.000Z</time>
      </trkpt>
      <trkpt lat="43.50564" lon="6.38058">
        <ele>263</ele>
        <time>2021-11-24T16:02:52.000Z</time>
      </trkpt>
      <trkpt lat="43.50563" lon="6.38058">
        <ele>263</ele>
        <time>2021-11-24T16:02:53.000Z</time>
      </trkpt>
      <trkpt lat="43.50562" lon="6.38058">
        <ele>263</ele>
        <time>2021-11-24T16:02:54.000Z</time>
      </trkpt>
      <trkpt lat="43.5056" lon="6.38059">
        <ele>263</ele>
        <time>2021-11-24T16:02:55.000Z</time>
      </trkpt>
      <trkpt lat="43.50559" lon="6.38059">
        <ele>263</ele>
        <time>2021-11-24T16:02:56.000Z</time>
      </trkpt>
      <trkpt lat="43.50558" lon="6.3806">
        <ele>264</ele>
        <time>2021-11-24T16:02:57.000Z</time>
      </trkpt>
      <trkpt lat="43.50557" lon="6.3806">
        <ele>265</ele>
        <time>2021-11-24T16:02:58.000Z</time>
      </trkpt>
      <trkpt lat="43.50556" lon="6.3806">
        <ele>265</ele>
        <time>2021-11-24T16:02:59.000Z</time>
      </trkpt>
      <trkpt lat="43.50556" lon="6.3806">
        <ele>265</ele>
        <time>2021-11-24T16:03:00.000Z</time>
      </trkpt>
      <trkpt lat="43.50555" lon="6.38061">
        <ele>265</ele>
        <time>2021-11-24T16:03:01.000Z</time>
      </trkpt>
      <trkpt lat="43.50555" lon="6.38061">
        <ele>265</ele>
        <time>2021-11-24T16:03:02.000Z</time>
      </trkpt>
      <trkpt lat="43.50555" lon="6.38061">
        <ele>265</ele>
        <time>2021-11-24T16:03:03.000Z</time>
      </trkpt>
      <trkpt lat="43.50554" lon="6.38061">
        <ele>265</ele>
        <time>2021-11-24T16:03:04.000Z</time>
      </trkpt>
      <trkpt lat="43.50554" lon="6.38061">
        <ele>265</ele>
        <time>2021-11-24T16:03:05.000Z</time>
      </trkpt>
      <trkpt lat="43.50553" lon="6.38061">
        <ele>265</ele>
        <time>2021-11-24T16:03:06.000Z</time>
      </trkpt>
      <trkpt lat="43.50552" lon="6.38061">
        <ele>265</ele>
        <time>2021-11-24T16:03:07.000Z</time>
      </trkpt>
      <trkpt lat="43.5055" lon="6.38061">
        <ele>265</ele>
        <time>2021-11-24T16:03:08.000Z</time>
      </trkpt>
      <trkpt lat="43.50549" lon="6.38061">
        <ele>265</ele>
        <time>2021-11-24T16:03:09.000Z</time>
      </trkpt>
      <trkpt lat="43.50547" lon="6.38061">
        <ele>265</ele>
        <time>2021-11-24T16:03:10.000Z</time>
      </trkpt>
      <trkpt lat="43.50546" lon="6.38061">
        <ele>265</ele>
        <time>2021-11-24T16:03:11.000Z</time>
      </trkpt>
      <trkpt lat="43.50545" lon="6.38062">
        <ele>265</ele>
        <time>2021-11-24T16:03:12.000Z</time>
      </trkpt>
      <trkpt lat="43.50544" lon="6.38062">
        <ele>265</ele>
        <time>2021-11-24T16:03:13.000Z</time>
      </trkpt>
      <trkpt lat="43.50543" lon="6.38062">
        <ele>265</ele>
        <time>2021-11-24T16:03:14.000Z</time>
      </trkpt>
      <trkpt lat="43.50542" lon="6.38062">
        <ele>265</ele>
        <time>2021-11-24T16:03:15.000Z</time>
      </trkpt>
      <trkpt lat="43.50541" lon="6.38063">
        <ele>265</ele>
        <time>2021-11-24T16:03:16.000Z</time>
      </trkpt>
      <trkpt lat="43.50539" lon="6.38063">
        <ele>265</ele>
        <time>2021-11-24T16:03:17.000Z</time>
      </trkpt>
      <trkpt lat="43.50537" lon="6.38064">
        <ele>265</ele>
        <time>2021-11-24T16:03:18.000Z</time>
      </trkpt>
      <trkpt lat="43.50536" lon="6.38064">
        <ele>265</ele>
        <time>2021-11-24T16:03:19.000Z</time>
      </trkpt>
      <trkpt lat="43.50534" lon="6.38065">
        <ele>266</ele>
        <time>2021-11-24T16:03:20.000Z</time>
      </trkpt>
      <trkpt lat="43.50533" lon="6.38065">
        <ele>266</ele>
        <time>2021-11-24T16:03:21.000Z</time>
      </trkpt>
      <trkpt lat="43.50533" lon="6.38065">
        <ele>266</ele>
        <time>2021-11-24T16:03:22.000Z</time>
      </trkpt>
      <trkpt lat="43.50532" lon="6.38065">
        <ele>266</ele>
        <time>2021-11-24T16:03:23.000Z</time>
      </trkpt>
      <trkpt lat="43.50531" lon="6.38065">
        <ele>266</ele>
        <time>2021-11-24T16:03:24.000Z</time>
      </trkpt>
      <trkpt lat="43.50531" lon="6.38066">
        <ele>266</ele>
        <time>2021-11-24T16:03:25.000Z</time>
      </trkpt>
      <trkpt lat="43.50529" lon="6.38066">
        <ele>266</ele>
        <time>2021-11-24T16:03:26.000Z</time>
      </trkpt>
      <trkpt lat="43.50527" lon="6.38066">
        <ele>266</ele>
        <time>2021-11-24T16:03:27.000Z</time>
      </trkpt>
      <trkpt lat="43.50526" lon="6.38067">
        <ele>267</ele>
        <time>2021-11-24T16:03:28.000Z</time>
      </trkpt>
      <trkpt lat="43.50525" lon="6.38067">
        <ele>267</ele>
        <time>2021-11-24T16:03:29.000Z</time>
      </trkpt>
      <trkpt lat="43.50524" lon="6.38068">
        <ele>268</ele>
        <time>2021-11-24T16:03:30.000Z</time>
      </trkpt>
      <trkpt lat="43.50523" lon="6.38068">
        <ele>268</ele>
        <time>2021-11-24T16:03:31.000Z</time>
      </trkpt>
      <trkpt lat="43.50522" lon="6.38068">
        <ele>268</ele>
        <time>2021-11-24T16:03:32.000Z</time>
      </trkpt>
      <trkpt lat="43.50521" lon="6.38068">
        <ele>268</ele>
        <time>2021-11-24T16:03:33.000Z</time>
      </trkpt>
      <trkpt lat="43.5052" lon="6.38068">
        <ele>268</ele>
        <time>2021-11-24T16:03:34.000Z</time>
      </trkpt>
      <trkpt lat="43.5052" lon="6.38068">
        <ele>268</ele>
        <time>2021-11-24T16:03:35.000Z</time>
      </trkpt>
      <trkpt lat="43.50519" lon="6.38068">
        <ele>268</ele>
        <time>2021-11-24T16:03:36.000Z</time>
      </trkpt>
      <trkpt lat="43.50519" lon="6.38068">
        <ele>269</ele>
        <time>2021-11-24T16:03:37.000Z</time>
      </trkpt>
      <trkpt lat="43.50518" lon="6.38068">
        <ele>269</ele>
        <time>2021-11-24T16:03:38.000Z</time>
      </trkpt>
      <trkpt lat="43.50517" lon="6.38068">
        <ele>269</ele>
        <time>2021-11-24T16:03:39.000Z</time>
      </trkpt>
      <trkpt lat="43.50517" lon="6.38068">
        <ele>269</ele>
        <time>2021-11-24T16:03:40.000Z</time>
      </trkpt>
      <trkpt lat="43.50516" lon="6.38067">
        <ele>270</ele>
        <time>2021-11-24T16:03:41.000Z</time>
      </trkpt>
      <trkpt lat="43.50515" lon="6.38067">
        <ele>270</ele>
        <time>2021-11-24T16:03:42.000Z</time>
      </trkpt>
      <trkpt lat="43.50515" lon="6.38067">
        <ele>270</ele>
        <time>2021-11-24T16:03:43.000Z</time>
      </trkpt>
      <trkpt lat="43.50514" lon="6.38067">
        <ele>270</ele>
        <time>2021-11-24T16:03:44.000Z</time>
      </trkpt>
      <trkpt lat="43.50514" lon="6.38067">
        <ele>270</ele>
        <time>2021-11-24T16:03:45.000Z</time>
      </trkpt>
      <trkpt lat="43.50513" lon="6.38066">
        <ele>270</ele>
        <time>2021-11-24T16:03:46.000Z</time>
      </trkpt>
      <trkpt lat="43.50512" lon="6.38066">
        <ele>270</ele>
        <time>2021-11-24T16:03:47.000Z</time>
      </trkpt>
      <trkpt lat="43.50512" lon="6.38066">
        <ele>270</ele>
        <time>2021-11-24T16:03:48.000Z</time>
      </trkpt>
      <trkpt lat="43.50511" lon="6.38065">
        <ele>271</ele>
        <time>2021-11-24T16:03:49.000Z</time>
      </trkpt>
      <trkpt lat="43.5051" lon="6.38065">
        <ele>271</ele>
        <time>2021-11-24T16:03:50.000Z</time>
      </trkpt>
      <trkpt lat="43.5051" lon="6.38065">
        <ele>271</ele>
        <time>2021-11-24T16:03:51.000Z</time>
      </trkpt>
      <trkpt lat="43.50509" lon="6.38064">
        <ele>271</ele>
        <time>2021-11-24T16:03:52.000Z</time>
      </trkpt>
      <trkpt lat="43.50508" lon="6.38064">
        <ele>271</ele>
        <time>2021-11-24T16:03:53.000Z</time>
      </trkpt>
      <trkpt lat="43.50507" lon="6.38063">
        <ele>271</ele>
        <time>2021-11-24T16:03:54.000Z</time>
      </trkpt>
      <trkpt lat="43.50507" lon="6.38062">
        <ele>273</ele>
        <time>2021-11-24T16:03:55.000Z</time>
      </trkpt>
      <trkpt lat="43.50506" lon="6.38062">
        <ele>273</ele>
        <time>2021-11-24T16:03:56.000Z</time>
      </trkpt>
      <trkpt lat="43.50505" lon="6.38061">
        <ele>273</ele>
        <time>2021-11-24T16:03:57.000Z</time>
      </trkpt>
      <trkpt lat="43.50505" lon="6.38061">
        <ele>274</ele>
        <time>2021-11-24T16:03:58.000Z</time>
      </trkpt>
      <trkpt lat="43.50504" lon="6.3806">
        <ele>274</ele>
        <time>2021-11-24T16:03:59.000Z</time>
      </trkpt>
      <trkpt lat="43.50504" lon="6.3806">
        <ele>274</ele>
        <time>2021-11-24T16:04:00.000Z</time>
      </trkpt>
      <trkpt lat="43.50503" lon="6.3806">
        <ele>274</ele>
        <time>2021-11-24T16:04:01.000Z</time>
      </trkpt>
      <trkpt lat="43.50503" lon="6.38059">
        <ele>274</ele>
        <time>2021-11-24T16:04:02.000Z</time>
      </trkpt>
      <trkpt lat="43.50503" lon="6.38059">
        <ele>274</ele>
        <time>2021-11-24T16:04:03.000Z</time>
      </trkpt>
      <trkpt lat="43.50503" lon="6.38059">
        <ele>274</ele>
        <time>2021-11-24T16:04:04.000Z</time>
      </trkpt>
      <trkpt lat="43.50503" lon="6.38059">
        <ele>275</ele>
        <time>2021-11-24T16:04:05.000Z</time>
      </trkpt>
      <trkpt lat="43.50503" lon="6.38059">
        <ele>275</ele>
        <time>2021-11-24T16:04:06.000Z</time>
      </trkpt>
      <trkpt lat="43.50503" lon="6.38059">
        <ele>275</ele>
        <time>2021-11-24T16:04:07.000Z</time>
      </trkpt>
      <trkpt lat="43.50503" lon="6.38059">
        <ele>275</ele>
        <time>2021-11-24T16:04:08.000Z</time>
      </trkpt>
      <trkpt lat="43.50503" lon="6.38059">
        <ele>275</ele>
        <time>2021-11-24T16:04:09.000Z</time>
      </trkpt>
      <trkpt lat="43.50503" lon="6.38059">
        <ele>275</ele>
        <time>2021-11-24T16:04:10.000Z</time>
      </trkpt>
      <trkpt lat="43.50502" lon="6.38058">
        <ele>275</ele>
        <time>2021-11-24T16:04:11.000Z</time>
      </trkpt>
      <trkpt lat="43.50501" lon="6.38058">
        <ele>275</ele>
        <time>2021-11-24T16:04:12.000Z</time>
      </trkpt>
      <trkpt lat="43.50501" lon="6.38058">
        <ele>275</ele>
        <time>2021-11-24T16:04:13.000Z</time>
      </trkpt>
      <trkpt lat="43.50501" lon="6.38058">
        <ele>275</ele>
        <time>2021-11-24T16:04:14.000Z</time>
      </trkpt>
      <trkpt lat="43.50501" lon="6.38058">
        <ele>275</ele>
        <time>2021-11-24T16:04:15.000Z</time>
      </trkpt>
      <trkpt lat="43.50501" lon="6.38058">
        <ele>275</ele>
        <time>2021-11-24T16:04:16.000Z</time>
      </trkpt>
      <trkpt lat="43.50501" lon="6.38058">
        <ele>275</ele>
        <time>2021-11-24T16:04:17.000Z</time>
      </trkpt>
      <trkpt lat="43.50501" lon="6.38058">
        <ele>275</ele>
        <time>2021-11-24T16:04:18.000Z</time>
      </trkpt>
      <trkpt lat="43.50501" lon="6.38058">
        <ele>275</ele>
        <time>2021-11-24T16:04:19.000Z</time>
      </trkpt>
      <trkpt lat="43.50501" lon="6.38058">
        <ele>275</ele>
        <time>2021-11-24T16:04:20.000Z</time>
      </trkpt>
      <trkpt lat="43.50501" lon="6.38058">
        <ele>275</ele>
        <time>2021-11-24T16:04:21.000Z</time>
      </trkpt>
      <trkpt lat="43.50501" lon="6.38058">
        <ele>275</ele>
        <time>2021-11-24T16:04:22.000Z</time>
      </trkpt>
      <trkpt lat="43.50501" lon="6.38058">
        <ele>275</ele>
        <time>2021-11-24T16:04:23.000Z</time>
      </trkpt>
      <trkpt lat="43.50501" lon="6.38058">
        <ele>275</ele>
        <time>2021-11-24T16:04:24.000Z</time>
      </trkpt>
      <trkpt lat="43.50501" lon="6.38058">
        <ele>275</ele>
        <time>2021-11-24T16:04:25.000Z</time>
      </trkpt>
      <trkpt lat="43.50501" lon="6.38058">
        <ele>275</ele>
        <time>2021-11-24T16:04:26.000Z</time>
      </trkpt>
      <trkpt lat="43.50501" lon="6.38058">
        <ele>275</ele>
        <time>2021-11-24T16:04:27.000Z</time>
      </trkpt>
      <trkpt lat="43.50501" lon="6.38058">
        <ele>275</ele>
        <time>2021-11-24T16:04:28.000Z</time>
      </trkpt>
      <trkpt lat="43.50501" lon="6.38058">
        <ele>275</ele>
        <time>2021-11-24T16:04:29.000Z</time>
      </trkpt>
      <trkpt lat="43.50501" lon="6.38058">
        <ele>275</ele>
        <time>2021-11-24T16:04:30.000Z</time>
      </trkpt>
      <trkpt lat="43.50501" lon="6.38058">
        <ele>275</ele>
        <time>2021-11-24T16:04:31.000Z</time>
      </trkpt>
      <trkpt lat="43.50501" lon="6.38058">
        <ele>275</ele>
        <time>2021-11-24T16:04:32.000Z</time>
      </trkpt>
      <trkpt lat="43.50501" lon="6.38058">
        <ele>275</ele>
        <time>2021-11-24T16:04:33.000Z</time>
      </trkpt>
      <trkpt lat="43.50501" lon="6.38058">
        <ele>275</ele>
        <time>2021-11-24T16:04:34.000Z</time>
      </trkpt>
      <trkpt lat="43.50501" lon="6.38058">
        <ele>275</ele>
        <time>2021-11-24T16:04:35.000Z</time>
      </trkpt>
      <trkpt lat="43.50501" lon="6.38058">
        <ele>275</ele>
        <time>2021-11-24T16:04:36.000Z</time>
      </trkpt>
      <trkpt lat="43.50501" lon="6.38058">
        <ele>275</ele>
        <time>2021-11-24T16:04:37.000Z</time>
      </trkpt>
      <trkpt lat="43.50501" lon="6.38058">
        <ele>275</ele>
        <time>2021-11-24T16:04:38.000Z</time>
      </trkpt>
      <trkpt lat="43.50501" lon="6.38058">
        <ele>275</ele>
        <time>2021-11-24T16:04:39.000Z</time>
      </trkpt>
      <trkpt lat="43.50501" lon="6.38058">
        <ele>275</ele>
        <time>2021-11-24T16:04:40.000Z</time>
      </trkpt>
      <trkpt lat="43.50501" lon="6.38058">
        <ele>275</ele>
        <time>2021-11-24T16:04:41.000Z</time>
      </trkpt>
      <trkpt lat="43.50501" lon="6.38058">
        <ele>275</ele>
        <time>2021-11-24T16:04:42.000Z</time>
      </trkpt>
      <trkpt lat="43.50501" lon="6.38058">
        <ele>275</ele>
        <time>2021-11-24T16:04:43.000Z</time>
      </trkpt>
      <trkpt lat="43.50501" lon="6.38058">
        <ele>275</ele>
        <time>2021-11-24T16:04:44.000Z</time>
      </trkpt>
      <trkpt lat="43.50501" lon="6.38058">
        <ele>275</ele>
        <time>2021-11-24T16:04:45.000Z</time>
      </trkpt>
      <trkpt lat="43.50501" lon="6.38058">
        <ele>275</ele>
        <time>2021-11-24T16:04:46.000Z</time>
      </trkpt>
      <trkpt lat="43.50501" lon="6.38058">
        <ele>275</ele>
        <time>2021-11-24T16:04:47.000Z</time>
      </trkpt>
      <trkpt lat="43.50501" lon="6.38058">
        <ele>275</ele>
        <time>2021-11-24T16:04:48.000Z</time>
      </trkpt>
      <trkpt lat="43.50501" lon="6.38058">
        <ele>275</ele>
        <time>2021-11-24T16:04:49.000Z</time>
      </trkpt>
      <trkpt lat="43.50501" lon="6.38058">
        <ele>275</ele>
        <time>2021-11-24T16:04:50.000Z</time>
      </trkpt>
      <trkpt lat="43.50501" lon="6.38058">
        <ele>275</ele>
        <time>2021-11-24T16:04:51.000Z</time>
      </trkpt>
      <trkpt lat="43.50501" lon="6.38058">
        <ele>275</ele>
        <time>2021-11-24T16:04:52.000Z</time>
      </trkpt>
      <trkpt lat="43.50501" lon="6.38058">
        <ele>275</ele>
        <time>2021-11-24T16:04:53.000Z</time>
      </trkpt>
      <trkpt lat="43.50501" lon="6.38058">
        <ele>275</ele>
        <time>2021-11-24T16:04:54.000Z</time>
      </trkpt>
      <trkpt lat="43.50501" lon="6.38058">
        <ele>275</ele>
        <time>2021-11-24T16:04:55.000Z</time>
      </trkpt>
      <trkpt lat="43.50501" lon="6.38058">
        <ele>275</ele>
        <time>2021-11-24T16:04:56.000Z</time>
      </trkpt>
      <trkpt lat="43.50501" lon="6.38058">
        <ele>275</ele>
        <time>2021-11-24T16:04:57.000Z</time>
      </trkpt>
      <trkpt lat="43.50501" lon="6.38058">
        <ele>275</ele>
        <time>2021-11-24T16:04:58.000Z</time>
      </trkpt>
      <trkpt lat="43.50501" lon="6.38058">
        <ele>275</ele>
        <time>2021-11-24T16:04:59.000Z</time>
      </trkpt>
      <trkpt lat="43.50501" lon="6.38058">
        <ele>275</ele>
        <time>2021-11-24T16:05:00.000Z</time>
      </trkpt>
      <trkpt lat="43.50501" lon="6.38058">
        <ele>275</ele>
        <time>2021-11-24T16:05:01.000Z</time>
      </trkpt>
      <trkpt lat="43.50501" lon="6.38058">
        <ele>275</ele>
        <time>2021-11-24T16:05:02.000Z</time>
      </trkpt>
      <trkpt lat="43.50501" lon="6.38058">
        <ele>275</ele>
        <time>2021-11-24T16:05:03.000Z</time>
      </trkpt>
      <trkpt lat="43.50501" lon="6.38058">
        <ele>275</ele>
        <time>2021-11-24T16:05:04.000Z</time>
      </trkpt>
      <trkpt lat="43.50501" lon="6.38058">
        <ele>275</ele>
        <time>2021-11-24T16:05:05.000Z</time>
      </trkpt>
      <trkpt lat="43.50501" lon="6.38058">
        <ele>275</ele>
        <time>2021-11-24T16:05:06.000Z</time>
      </trkpt>
      <trkpt lat="43.50501" lon="6.38058">
        <ele>275</ele>
        <time>2021-11-24T16:05:07.000Z</time>
      </trkpt>
      <trkpt lat="43.50501" lon="6.38058">
        <ele>275</ele>
        <time>2021-11-24T16:05:08.000Z</time>
      </trkpt>
      <trkpt lat="43.50501" lon="6.38058">
        <ele>275</ele>
        <time>2021-11-24T16:05:09.000Z</time>
      </trkpt>
      <trkpt lat="43.50501" lon="6.38058">
        <ele>275</ele>
        <time>2021-11-24T16:05:10.000Z</time>
      </trkpt>
      <trkpt lat="43.50501" lon="6.38058">
        <ele>275</ele>
        <time>2021-11-24T16:05:11.000Z</time>
      </trkpt>
      <trkpt lat="43.50501" lon="6.38058">
        <ele>275</ele>
        <time>2021-11-24T16:05:12.000Z</time>
      </trkpt>
      <trkpt lat="43.50501" lon="6.38058">
        <ele>275</ele>
        <time>2021-11-24T16:05:13.000Z</time>
      </trkpt>
      <trkpt lat="43.50501" lon="6.38058">
        <ele>275</ele>
        <time>2021-11-24T16:05:14.000Z</time>
      </trkpt>
      <trkpt lat="43.50501" lon="6.38058">
        <ele>275</ele>
        <time>2021-11-24T16:05:15.000Z</time>
      </trkpt>
      <trkpt lat="43.50501" lon="6.38058">
        <ele>275</ele>
        <time>2021-11-24T16:05:16.000Z</time>
      </trkpt>
      <trkpt lat="43.50501" lon="6.38058">
        <ele>275</ele>
        <time>2021-11-24T16:05:17.000Z</time>
      </trkpt>
      <trkpt lat="43.50501" lon="6.38058">
        <ele>275</ele>
        <time>2021-11-24T16:05:18.000Z</time>
      </trkpt>
      <trkpt lat="43.50501" lon="6.38058">
        <ele>275</ele>
        <time>2021-11-24T16:05:19.000Z</time>
      </trkpt>
      <trkpt lat="43.50501" lon="6.38058">
        <ele>275</ele>
        <time>2021-11-24T16:05:20.000Z</time>
      </trkpt>
      <trkpt lat="43.50501" lon="6.38058">
        <ele>275</ele>
        <time>2021-11-24T16:05:21.000Z</time>
      </trkpt>
      <trkpt lat="43.50501" lon="6.38058">
        <ele>275</ele>
        <time>2021-11-24T16:05:22.000Z</time>
      </trkpt>
      <trkpt lat="43.50501" lon="6.38058">
        <ele>275</ele>
        <time>2021-11-24T16:05:23.000Z</time>
      </trkpt>
      <trkpt lat="43.50501" lon="6.38058">
        <ele>275</ele>
        <time>2021-11-24T16:05:24.000Z</time>
      </trkpt>
      <trkpt lat="43.50501" lon="6.38058">
        <ele>275</ele>
        <time>2021-11-24T16:05:25.000Z</time>
      </trkpt>
      <trkpt lat="43.50501" lon="6.38058">
        <ele>275</ele>
        <time>2021-11-24T16:05:26.000Z</time>
      </trkpt>
      <trkpt lat="43.50501" lon="6.38058">
        <ele>275</ele>
        <time>2021-11-24T16:05:27.000Z</time>
      </trkpt>
      <trkpt lat="43.50501" lon="6.38058">
        <ele>275</ele>
        <time>2021-11-24T16:05:28.000Z</time>
      </trkpt>
      <trkpt lat="43.50501" lon="6.38058">
        <ele>275</ele>
        <time>2021-11-24T16:05:29.000Z</time>
      </trkpt>
      <trkpt lat="43.50501" lon="6.38058">
        <ele>275</ele>
        <time>2021-11-24T16:05:30.000Z</time>
      </trkpt>
      <trkpt lat="43.50501" lon="6.38058">
        <ele>275</ele>
        <time>2021-11-24T16:05:31.000Z</time>
      </trkpt>
      <trkpt lat="43.50501" lon="6.38058">
        <ele>275</ele>
        <time>2021-11-24T16:05:32.000Z</time>
      </trkpt>
      <trkpt lat="43.50501" lon="6.38058">
        <ele>275</ele>
        <time>2021-11-24T16:05:33.000Z</time>
      </trkpt>
      <trkpt lat="43.50501" lon="6.38058">
        <ele>275</ele>
        <time>2021-11-24T16:05:34.000Z</time>
      </trkpt>
      <trkpt lat="43.50501" lon="6.38058">
        <ele>275</ele>
        <time>2021-11-24T16:05:35.000Z</time>
      </trkpt>
      <trkpt lat="43.50501" lon="6.38058">
        <ele>275</ele>
        <time>2021-11-24T16:05:36.000Z</time>
      </trkpt>
      <trkpt lat="43.50501" lon="6.38058">
        <ele>275</ele>
        <time>2021-11-24T16:05:37.000Z</time>
      </trkpt>
      <trkpt lat="43.50501" lon="6.38058">
        <ele>275</ele>
        <time>2021-11-24T16:05:38.000Z</time>
      </trkpt>
      <trkpt lat="43.50501" lon="6.38058">
        <ele>275</ele>
        <time>2021-11-24T16:05:39.000Z</time>
      </trkpt>
      <trkpt lat="43.50501" lon="6.38058">
        <ele>275</ele>
        <time>2021-11-24T16:05:40.000Z</time>
      </trkpt>
      <trkpt lat="43.50501" lon="6.38058">
        <ele>275</ele>
        <time>2021-11-24T16:05:41.000Z</time>
      </trkpt>
      <trkpt lat="43.50501" lon="6.38058">
        <ele>275</ele>
        <time>2021-11-24T16:05:42.000Z</time>
      </trkpt>
      <trkpt lat="43.50501" lon="6.38058">
        <ele>275</ele>
        <time>2021-11-24T16:05:43.000Z</time>
      </trkpt>
      <trkpt lat="43.50501" lon="6.38058">
        <ele>275</ele>
        <time>2021-11-24T16:05:44.000Z</time>
      </trkpt>
      <trkpt lat="43.50501" lon="6.38058">
        <ele>275</ele>
        <time>2021-11-24T16:05:45.000Z</time>
      </trkpt>
      <trkpt lat="43.50501" lon="6.38058">
        <ele>275</ele>
        <time>2021-11-24T16:05:46.000Z</time>
      </trkpt>
      <trkpt lat="43.50501" lon="6.38058">
        <ele>275</ele>
        <time>2021-11-24T16:05:47.000Z</time>
      </trkpt>
      <trkpt lat="43.50501" lon="6.38058">
        <ele>275</ele>
        <time>2021-11-24T16:05:48.000Z</time>
      </trkpt>
      <trkpt lat="43.50501" lon="6.38058">
        <ele>275</ele>
        <time>2021-11-24T16:05:49.000Z</time>
      </trkpt>
      <trkpt lat="43.50501" lon="6.38058">
        <ele>275</ele>
        <time>2021-11-24T16:05:50.000Z</time>
      </trkpt>
      <trkpt lat="43.50501" lon="6.38058">
        <ele>275</ele>
        <time>2021-11-24T16:05:51.000Z</time>
      </trkpt>
      <trkpt lat="43.50501" lon="6.38058">
        <ele>275</ele>
        <time>2021-11-24T16:05:52.000Z</time>
      </trkpt>
      <trkpt lat="43.50501" lon="6.38058">
        <ele>275</ele>
        <time>2021-11-24T16:05:53.000Z</time>
      </trkpt>
      <trkpt lat="43.50501" lon="6.38058">
        <ele>275</ele>
        <time>2021-11-24T16:05:54.000Z</time>
      </trkpt>
      <trkpt lat="43.50501" lon="6.38058">
        <ele>275</ele>
        <time>2021-11-24T16:05:55.000Z</time>
      </trkpt>
      <trkpt lat="43.50501" lon="6.38058">
        <ele>275</ele>
        <time>2021-11-24T16:05:56.000Z</time>
      </trkpt>
      <trkpt lat="43.50501" lon="6.38058">
        <ele>275</ele>
        <time>2021-11-24T16:05:57.000Z</time>
      </trkpt>
      <trkpt lat="43.50501" lon="6.38058">
        <ele>275</ele>
        <time>2021-11-24T16:05:58.000Z</time>
      </trkpt>
      <trkpt lat="43.50501" lon="6.38058">
        <ele>275</ele>
        <time>2021-11-24T16:05:59.000Z</time>
      </trkpt>
      <trkpt lat="43.50501" lon="6.38058">
        <ele>275</ele>
        <time>2021-11-24T16:06:00.000Z</time>
      </trkpt>
      <trkpt lat="43.50501" lon="6.38058">
        <ele>275</ele>
        <time>2021-11-24T16:06:01.000Z</time>
      </trkpt>
      <trkpt lat="43.50501" lon="6.38058">
        <ele>275</ele>
        <time>2021-11-24T16:06:02.000Z</time>
      </trkpt>
      <trkpt lat="43.50501" lon="6.38058">
        <ele>275</ele>
        <time>2021-11-24T16:06:03.000Z</time>
      </trkpt>
      <trkpt lat="43.50501" lon="6.38058">
        <ele>275</ele>
        <time>2021-11-24T16:06:04.000Z</time>
      </trkpt>
      <trkpt lat="43.50501" lon="6.38058">
        <ele>275</ele>
        <time>2021-11-24T16:06:05.000Z</time>
      </trkpt>
      <trkpt lat="43.50501" lon="6.38058">
        <ele>275</ele>
        <time>2021-11-24T16:06:06.000Z</time>
      </trkpt>
      <trkpt lat="43.50501" lon="6.38058">
        <ele>275</ele>
        <time>2021-11-24T16:06:07.000Z</time>
      </trkpt>
      <trkpt lat="43.50501" lon="6.38058">
        <ele>275</ele>
        <time>2021-11-24T16:06:08.000Z</time>
      </trkpt>
      <trkpt lat="43.50501" lon="6.38058">
        <ele>275</ele>
        <time>2021-11-24T16:06:09.000Z</time>
      </trkpt>
      <trkpt lat="43.50501" lon="6.38058">
        <ele>275</ele>
        <time>2021-11-24T16:06:10.000Z</time>
      </trkpt>
      <trkpt lat="43.50501" lon="6.38058">
        <ele>275</ele>
        <time>2021-11-24T16:06:11.000Z</time>
      </trkpt>
      <trkpt lat="43.50501" lon="6.38058">
        <ele>275</ele>
        <time>2021-11-24T16:06:12.000Z</time>
      </trkpt>
      <trkpt lat="43.50501" lon="6.38058">
        <ele>275</ele>
        <time>2021-11-24T16:06:13.000Z</time>
      </trkpt>
      <trkpt lat="43.50501" lon="6.38058">
        <ele>275</ele>
        <time>2021-11-24T16:06:14.000Z</time>
      </trkpt>
      <trkpt lat="43.50501" lon="6.38058">
        <ele>275</ele>
        <time>2021-11-24T16:06:15.000Z</time>
      </trkpt>
      <trkpt lat="43.50501" lon="6.38058">
        <ele>275</ele>
        <time>2021-11-24T16:06:16.000Z</time>
      </trkpt>
      <trkpt lat="43.50501" lon="6.38058">
        <ele>275</ele>
        <time>2021-11-24T16:06:17.000Z</time>
      </trkpt>
      <trkpt lat="43.50501" lon="6.38058">
        <ele>275</ele>
        <time>2021-11-24T16:06:18.000Z</time>
      </trkpt>
      <trkpt lat="43.50501" lon="6.38058">
        <ele>275</ele>
        <time>2021-11-24T16:06:19.000Z</time>
      </trkpt>
      <trkpt lat="43.50501" lon="6.38058">
        <ele>275</ele>
        <time>2021-11-24T16:06:20.000Z</time>
      </trkpt>
      <trkpt lat="43.50501" lon="6.38058">
        <ele>275</ele>
        <time>2021-11-24T16:06:21.000Z</time>
      </trkpt>
      <trkpt lat="43.50501" lon="6.38058">
        <ele>275</ele>
        <time>2021-11-24T16:06:22.000Z</time>
      </trkpt>
      <trkpt lat="43.50501" lon="6.38058">
        <ele>275</ele>
        <time>2021-11-24T16:06:23.000Z</time>
      </trkpt>
      <trkpt lat="43.50501" lon="6.38058">
        <ele>275</ele>
        <time>2021-11-24T16:06:24.000Z</time>
      </trkpt>
      <trkpt lat="43.50501" lon="6.38058">
        <ele>275</ele>
        <time>2021-11-24T16:06:25.000Z</time>
      </trkpt>
      <trkpt lat="43.50501" lon="6.38058">
        <ele>275</ele>
        <time>2021-11-24T16:06:26.000Z</time>
      </trkpt>
      <trkpt lat="43.50501" lon="6.38058">
        <ele>275</ele>
        <time>2021-11-24T16:06:27.000Z</time>
      </trkpt>
      <trkpt lat="43.50501" lon="6.38058">
        <ele>275</ele>
        <time>2021-11-24T16:06:28.000Z</time>
      </trkpt>
      <trkpt lat="43.50501" lon="6.38058">
        <ele>275</ele>
        <time>2021-11-24T16:06:29.000Z</time>
      </trkpt>
      <trkpt lat="43.50501" lon="6.38058">
        <ele>275</ele>
        <time>2021-11-24T16:06:30.000Z</time>
      </trkpt>
      <trkpt lat="43.50501" lon="6.38058">
        <ele>275</ele>
        <time>2021-11-24T16:06:31.000Z</time>
      </trkpt>
      <trkpt lat="43.50501" lon="6.38058">
        <ele>275</ele>
        <time>2021-11-24T16:06:32.000Z</time>
      </trkpt>
      <trkpt lat="43.50501" lon="6.38058">
        <ele>275</ele>
        <time>2021-11-24T16:06:33.000Z</time>
      </trkpt>
      <trkpt lat="43.50501" lon="6.38058">
        <ele>275</ele>
        <time>2021-11-24T16:06:34.000Z</time>
      </trkpt>
      <trkpt lat="43.50501" lon="6.38058">
        <ele>275</ele>
        <time>2021-11-24T16:06:35.000Z</time>
      </trkpt>
      <trkpt lat="43.50501" lon="6.38058">
        <ele>275</ele>
        <time>2021-11-24T16:06:36.000Z</time>
      </trkpt>
      <trkpt lat="43.50501" lon="6.38058">
        <ele>275</ele>
        <time>2021-11-24T16:06:37.000Z</time>
      </trkpt>
      <trkpt lat="43.50501" lon="6.38058">
        <ele>275</ele>
        <time>2021-11-24T16:06:38.000Z</time>
      </trkpt>
      <trkpt lat="43.50501" lon="6.38058">
        <ele>275</ele>
        <time>2021-11-24T16:06:39.000Z</time>
      </trkpt>
      <trkpt lat="43.50501" lon="6.38058">
        <ele>275</ele>
        <time>2021-11-24T16:06:40.000Z</time>
      </trkpt>
      <trkpt lat="43.50501" lon="6.38058">
        <ele>275</ele>
        <time>2021-11-24T16:06:41.000Z</time>
      </trkpt>
      <trkpt lat="43.50501" lon="6.38058">
        <ele>275</ele>
        <time>2021-11-24T16:06:42.000Z</time>
      </trkpt>
      <trkpt lat="43.50501" lon="6.38058">
        <ele>275</ele>
        <time>2021-11-24T16:06:43.000Z</time>
      </trkpt>
      <trkpt lat="43.50501" lon="6.38058">
        <ele>275</ele>
        <time>2021-11-24T16:06:44.000Z</time>
      </trkpt>
      <trkpt lat="43.50501" lon="6.38058">
        <ele>275</ele>
        <time>2021-11-24T16:06:45.000Z</time>
      </trkpt>
      <trkpt lat="43.50501" lon="6.38058">
        <ele>275</ele>
        <time>2021-11-24T16:06:46.000Z</time>
      </trkpt>
      <trkpt lat="43.50501" lon="6.38058">
        <ele>275</ele>
        <time>2021-11-24T16:06:47.000Z</time>
      </trkpt>
      <trkpt lat="43.50501" lon="6.38058">
        <ele>275</ele>
        <time>2021-11-24T16:06:48.000Z</time>
      </trkpt>
      <trkpt lat="43.50501" lon="6.38058">
        <ele>275</ele>
        <time>2021-11-24T16:06:49.000Z</time>
      </trkpt>
      <trkpt lat="43.50501" lon="6.38058">
        <ele>275</ele>
        <time>2021-11-24T16:06:50.000Z</time>
      </trkpt>
      <trkpt lat="43.50501" lon="6.38058">
        <ele>275</ele>
        <time>2021-11-24T16:06:51.000Z</time>
      </trkpt>
      <trkpt lat="43.50501" lon="6.38058">
        <ele>275</ele>
        <time>2021-11-24T16:06:52.000Z</time>
      </trkpt>
      <trkpt lat="43.50501" lon="6.38058">
        <ele>275</ele>
        <time>2021-11-24T16:06:53.000Z</time>
      </trkpt>
      <trkpt lat="43.50501" lon="6.38058">
        <ele>275</ele>
        <time>2021-11-24T16:06:54.000Z</time>
      </trkpt>
      <trkpt lat="43.505" lon="6.38058">
        <ele>275</ele>
        <time>2021-11-24T16:06:55.000Z</time>
      </trkpt>
      <trkpt lat="43.505" lon="6.38058">
        <ele>275</ele>
        <time>2021-11-24T16:06:56.000Z</time>
      </trkpt>
      <trkpt lat="43.50499" lon="6.38058">
        <ele>275</ele>
        <time>2021-11-24T16:06:57.000Z</time>
      </trkpt>
      <trkpt lat="43.50498" lon="6.38058">
        <ele>275</ele>
        <time>2021-11-24T16:06:58.000Z</time>
      </trkpt>
      <trkpt lat="43.50497" lon="6.38057">
        <ele>275</ele>
        <time>2021-11-24T16:06:59.000Z</time>
      </trkpt>
      <trkpt lat="43.50497" lon="6.38057">
        <ele>275</ele>
        <time>2021-11-24T16:07:00.000Z</time>
      </trkpt>
      <trkpt lat="43.50496" lon="6.38057">
        <ele>275</ele>
        <time>2021-11-24T16:07:01.000Z</time>
      </trkpt>
      <trkpt lat="43.50496" lon="6.38057">
        <ele>275</ele>
        <time>2021-11-24T16:07:02.000Z</time>
      </trkpt>
      <trkpt lat="43.50496" lon="6.38057">
        <ele>275</ele>
        <time>2021-11-24T16:07:03.000Z</time>
      </trkpt>
      <trkpt lat="43.50495" lon="6.38057">
        <ele>276</ele>
        <time>2021-11-24T16:07:04.000Z</time>
      </trkpt>
      <trkpt lat="43.50495" lon="6.38057">
        <ele>276</ele>
        <time>2021-11-24T16:07:05.000Z</time>
      </trkpt>
      <trkpt lat="43.50494" lon="6.38056">
        <ele>276</ele>
        <time>2021-11-24T16:07:06.000Z</time>
      </trkpt>
      <trkpt lat="43.50493" lon="6.38056">
        <ele>276</ele>
        <time>2021-11-24T16:07:07.000Z</time>
      </trkpt>
      <trkpt lat="43.50492" lon="6.38056">
        <ele>276</ele>
        <time>2021-11-24T16:07:08.000Z</time>
      </trkpt>
      <trkpt lat="43.50491" lon="6.38056">
        <ele>276</ele>
        <time>2021-11-24T16:07:09.000Z</time>
      </trkpt>
      <trkpt lat="43.5049" lon="6.38055">
        <ele>276</ele>
        <time>2021-11-24T16:07:10.000Z</time>
      </trkpt>
      <trkpt lat="43.50489" lon="6.38055">
        <ele>276</ele>
        <time>2021-11-24T16:07:11.000Z</time>
      </trkpt>
      <trkpt lat="43.50488" lon="6.38055">
        <ele>276</ele>
        <time>2021-11-24T16:07:12.000Z</time>
      </trkpt>
      <trkpt lat="43.50487" lon="6.38054">
        <ele>276</ele>
        <time>2021-11-24T16:07:13.000Z</time>
      </trkpt>
      <trkpt lat="43.50486" lon="6.38053">
        <ele>277</ele>
        <time>2021-11-24T16:07:14.000Z</time>
      </trkpt>
      <trkpt lat="43.50484" lon="6.38052">
        <ele>277</ele>
        <time>2021-11-24T16:07:15.000Z</time>
      </trkpt>
      <trkpt lat="43.50483" lon="6.38051">
        <ele>277</ele>
        <time>2021-11-24T16:07:16.000Z</time>
      </trkpt>
      <trkpt lat="43.50483" lon="6.38051">
        <ele>278</ele>
        <time>2021-11-24T16:07:17.000Z</time>
      </trkpt>
      <trkpt lat="43.50482" lon="6.38051">
        <ele>278</ele>
        <time>2021-11-24T16:07:18.000Z</time>
      </trkpt>
      <trkpt lat="43.50482" lon="6.3805">
        <ele>278</ele>
        <time>2021-11-24T16:07:19.000Z</time>
      </trkpt>
      <trkpt lat="43.50482" lon="6.3805">
        <ele>278</ele>
        <time>2021-11-24T16:07:20.000Z</time>
      </trkpt>
      <trkpt lat="43.50482" lon="6.3805">
        <ele>279</ele>
        <time>2021-11-24T16:07:21.000Z</time>
      </trkpt>
      <trkpt lat="43.50481" lon="6.3805">
        <ele>279</ele>
        <time>2021-11-24T16:07:22.000Z</time>
      </trkpt>
      <trkpt lat="43.50481" lon="6.38049">
        <ele>279</ele>
        <time>2021-11-24T16:07:23.000Z</time>
      </trkpt>
      <trkpt lat="43.5048" lon="6.38049">
        <ele>279</ele>
        <time>2021-11-24T16:07:24.000Z</time>
      </trkpt>
      <trkpt lat="43.50479" lon="6.38048">
        <ele>279</ele>
        <time>2021-11-24T16:07:25.000Z</time>
      </trkpt>
      <trkpt lat="43.50478" lon="6.38047">
        <ele>279</ele>
        <time>2021-11-24T16:07:26.000Z</time>
      </trkpt>
      <trkpt lat="43.50478" lon="6.38046">
        <ele>279</ele>
        <time>2021-11-24T16:07:27.000Z</time>
      </trkpt>
      <trkpt lat="43.50477" lon="6.38045">
        <ele>279</ele>
        <time>2021-11-24T16:07:28.000Z</time>
      </trkpt>
      <trkpt lat="43.50477" lon="6.38044">
        <ele>279</ele>
        <time>2021-11-24T16:07:29.000Z</time>
      </trkpt>
      <trkpt lat="43.50476" lon="6.38044">
        <ele>279</ele>
        <time>2021-11-24T16:07:30.000Z</time>
      </trkpt>
      <trkpt lat="43.50476" lon="6.38043">
        <ele>279</ele>
        <time>2021-11-24T16:07:31.000Z</time>
      </trkpt>
      <trkpt lat="43.50475" lon="6.38043">
        <ele>279</ele>
        <time>2021-11-24T16:07:32.000Z</time>
      </trkpt>
      <trkpt lat="43.50474" lon="6.38042">
        <ele>279</ele>
        <time>2021-11-24T16:07:33.000Z</time>
      </trkpt>
      <trkpt lat="43.50473" lon="6.3804">
        <ele>279</ele>
        <time>2021-11-24T16:07:34.000Z</time>
      </trkpt>
      <trkpt lat="43.50471" lon="6.38039">
        <ele>279</ele>
        <time>2021-11-24T16:07:35.000Z</time>
      </trkpt>
      <trkpt lat="43.50469" lon="6.38038">
        <ele>279</ele>
        <time>2021-11-24T16:07:36.000Z</time>
      </trkpt>
      <trkpt lat="43.50467" lon="6.38037">
        <ele>279</ele>
        <time>2021-11-24T16:07:37.000Z</time>
      </trkpt>
      <trkpt lat="43.50466" lon="6.38036">
        <ele>279</ele>
        <time>2021-11-24T16:07:38.000Z</time>
      </trkpt>
      <trkpt lat="43.50465" lon="6.38035">
        <ele>279</ele>
        <time>2021-11-24T16:07:39.000Z</time>
      </trkpt>
      <trkpt lat="43.50463" lon="6.38034">
        <ele>279</ele>
        <time>2021-11-24T16:07:40.000Z</time>
      </trkpt>
      <trkpt lat="43.50462" lon="6.38034">
        <ele>280</ele>
        <time>2021-11-24T16:07:41.000Z</time>
      </trkpt>
      <trkpt lat="43.5046" lon="6.38033">
        <ele>280</ele>
        <time>2021-11-24T16:07:42.000Z</time>
      </trkpt>
      <trkpt lat="43.50458" lon="6.38031">
        <ele>281</ele>
        <time>2021-11-24T16:07:43.000Z</time>
      </trkpt>
      <trkpt lat="43.50457" lon="6.38029">
        <ele>281</ele>
        <time>2021-11-24T16:07:44.000Z</time>
      </trkpt>
      <trkpt lat="43.50456" lon="6.38028">
        <ele>281</ele>
        <time>2021-11-24T16:07:45.000Z</time>
      </trkpt>
      <trkpt lat="43.50455" lon="6.38027">
        <ele>281</ele>
        <time>2021-11-24T16:07:46.000Z</time>
      </trkpt>
      <trkpt lat="43.50455" lon="6.38026">
        <ele>281</ele>
        <time>2021-11-24T16:07:47.000Z</time>
      </trkpt>
      <trkpt lat="43.50454" lon="6.38025">
        <ele>282</ele>
        <time>2021-11-24T16:07:48.000Z</time>
      </trkpt>
      <trkpt lat="43.50453" lon="6.38025">
        <ele>282</ele>
        <time>2021-11-24T16:07:49.000Z</time>
      </trkpt>
      <trkpt lat="43.50453" lon="6.38024">
        <ele>282</ele>
        <time>2021-11-24T16:07:50.000Z</time>
      </trkpt>
      <trkpt lat="43.50452" lon="6.38024">
        <ele>283</ele>
        <time>2021-11-24T16:07:51.000Z</time>
      </trkpt>
      <trkpt lat="43.50452" lon="6.38023">
        <ele>283</ele>
        <time>2021-11-24T16:07:52.000Z</time>
      </trkpt>
      <trkpt lat="43.50451" lon="6.38023">
        <ele>283</ele>
        <time>2021-11-24T16:07:53.000Z</time>
      </trkpt>
      <trkpt lat="43.50451" lon="6.38023">
        <ele>283</ele>
        <time>2021-11-24T16:07:54.000Z</time>
      </trkpt>
      <trkpt lat="43.5045" lon="6.38022">
        <ele>283</ele>
        <time>2021-11-24T16:07:55.000Z</time>
      </trkpt>
      <trkpt lat="43.50449" lon="6.38021">
        <ele>283</ele>
        <time>2021-11-24T16:07:56.000Z</time>
      </trkpt>
      <trkpt lat="43.50449" lon="6.3802">
        <ele>283</ele>
        <time>2021-11-24T16:07:57.000Z</time>
      </trkpt>
      <trkpt lat="43.50448" lon="6.3802">
        <ele>283</ele>
        <time>2021-11-24T16:07:58.000Z</time>
      </trkpt>
      <trkpt lat="43.50447" lon="6.38019">
        <ele>283</ele>
        <time>2021-11-24T16:07:59.000Z</time>
      </trkpt>
      <trkpt lat="43.50447" lon="6.38018">
        <ele>283</ele>
        <time>2021-11-24T16:08:00.000Z</time>
      </trkpt>
      <trkpt lat="43.50446" lon="6.38017">
        <ele>283</ele>
        <time>2021-11-24T16:08:01.000Z</time>
      </trkpt>
      <trkpt lat="43.50444" lon="6.38016">
        <ele>283</ele>
        <time>2021-11-24T16:08:02.000Z</time>
      </trkpt>
      <trkpt lat="43.50444" lon="6.38016">
        <ele>284</ele>
        <time>2021-11-24T16:08:03.000Z</time>
      </trkpt>
      <trkpt lat="43.50443" lon="6.38015">
        <ele>284</ele>
        <time>2021-11-24T16:08:04.000Z</time>
      </trkpt>
      <trkpt lat="43.50442" lon="6.38015">
        <ele>284</ele>
        <time>2021-11-24T16:08:05.000Z</time>
      </trkpt>
      <trkpt lat="43.50442" lon="6.38014">
        <ele>284</ele>
        <time>2021-11-24T16:08:06.000Z</time>
      </trkpt>
      <trkpt lat="43.50442" lon="6.38014">
        <ele>284</ele>
        <time>2021-11-24T16:08:07.000Z</time>
      </trkpt>
      <trkpt lat="43.50442" lon="6.38014">
        <ele>284</ele>
        <time>2021-11-24T16:08:08.000Z</time>
      </trkpt>
      <trkpt lat="43.50441" lon="6.38014">
        <ele>284</ele>
        <time>2021-11-24T16:08:09.000Z</time>
      </trkpt>
      <trkpt lat="43.50441" lon="6.38014">
        <ele>284</ele>
        <time>2021-11-24T16:08:10.000Z</time>
      </trkpt>
      <trkpt lat="43.50441" lon="6.38013">
        <ele>284</ele>
        <time>2021-11-24T16:08:11.000Z</time>
      </trkpt>
      <trkpt lat="43.50441" lon="6.38013">
        <ele>284</ele>
        <time>2021-11-24T16:08:12.000Z</time>
      </trkpt>
      <trkpt lat="43.50441" lon="6.38013">
        <ele>284</ele>
        <time>2021-11-24T16:08:13.000Z</time>
      </trkpt>
      <trkpt lat="43.5044" lon="6.38012">
        <ele>284</ele>
        <time>2021-11-24T16:08:14.000Z</time>
      </trkpt>
      <trkpt lat="43.5044" lon="6.38012">
        <ele>284</ele>
        <time>2021-11-24T16:08:15.000Z</time>
      </trkpt>
      <trkpt lat="43.50439" lon="6.3801">
        <ele>284</ele>
        <time>2021-11-24T16:08:16.000Z</time>
      </trkpt>
      <trkpt lat="43.50438" lon="6.38008">
        <ele>284</ele>
        <time>2021-11-24T16:08:17.000Z</time>
      </trkpt>
      <trkpt lat="43.50437" lon="6.38007">
        <ele>284</ele>
        <time>2021-11-24T16:08:18.000Z</time>
      </trkpt>
      <trkpt lat="43.50437" lon="6.38005">
        <ele>284</ele>
        <time>2021-11-24T16:08:19.000Z</time>
      </trkpt>
      <trkpt lat="43.50436" lon="6.38003">
        <ele>285</ele>
        <time>2021-11-24T16:08:20.000Z</time>
      </trkpt>
      <trkpt lat="43.50436" lon="6.38002">
        <ele>285</ele>
        <time>2021-11-24T16:08:21.000Z</time>
      </trkpt>
      <trkpt lat="43.50435" lon="6.38001">
        <ele>285</ele>
        <time>2021-11-24T16:08:22.000Z</time>
      </trkpt>
      <trkpt lat="43.50435" lon="6.37999">
        <ele>285</ele>
        <time>2021-11-24T16:08:23.000Z</time>
      </trkpt>
      <trkpt lat="43.50434" lon="6.37998">
        <ele>285</ele>
        <time>2021-11-24T16:08:24.000Z</time>
      </trkpt>
      <trkpt lat="43.50434" lon="6.37997">
        <ele>286</ele>
        <time>2021-11-24T16:08:25.000Z</time>
      </trkpt>
      <trkpt lat="43.50434" lon="6.37997">
        <ele>286</ele>
        <time>2021-11-24T16:08:26.000Z</time>
      </trkpt>
      <trkpt lat="43.50434" lon="6.37996">
        <ele>286</ele>
        <time>2021-11-24T16:08:27.000Z</time>
      </trkpt>
      <trkpt lat="43.50433" lon="6.37996">
        <ele>286</ele>
        <time>2021-11-24T16:08:28.000Z</time>
      </trkpt>
      <trkpt lat="43.50433" lon="6.37995">
        <ele>286</ele>
        <time>2021-11-24T16:08:29.000Z</time>
      </trkpt>
      <trkpt lat="43.50433" lon="6.37995">
        <ele>286</ele>
        <time>2021-11-24T16:08:30.000Z</time>
      </trkpt>
      <trkpt lat="43.50433" lon="6.37994">
        <ele>286</ele>
        <time>2021-11-24T16:08:31.000Z</time>
      </trkpt>
      <trkpt lat="43.50433" lon="6.37993">
        <ele>286</ele>
        <time>2021-11-24T16:08:32.000Z</time>
      </trkpt>
      <trkpt lat="43.50433" lon="6.37992">
        <ele>286</ele>
        <time>2021-11-24T16:08:33.000Z</time>
      </trkpt>
      <trkpt lat="43.50433" lon="6.37991">
        <ele>287</ele>
        <time>2021-11-24T16:08:34.000Z</time>
      </trkpt>
      <trkpt lat="43.50432" lon="6.37991">
        <ele>288</ele>
        <time>2021-11-24T16:08:35.000Z</time>
      </trkpt>
      <trkpt lat="43.50432" lon="6.3799">
        <ele>288</ele>
        <time>2021-11-24T16:08:36.000Z</time>
      </trkpt>
      <trkpt lat="43.50432" lon="6.3799">
        <ele>288</ele>
        <time>2021-11-24T16:08:37.000Z</time>
      </trkpt>
      <trkpt lat="43.50432" lon="6.37989">
        <ele>288</ele>
        <time>2021-11-24T16:08:38.000Z</time>
      </trkpt>
      <trkpt lat="43.50432" lon="6.37989">
        <ele>288</ele>
        <time>2021-11-24T16:08:39.000Z</time>
      </trkpt>
      <trkpt lat="43.50431" lon="6.37988">
        <ele>288</ele>
        <time>2021-11-24T16:08:40.000Z</time>
      </trkpt>
      <trkpt lat="43.50431" lon="6.37988">
        <ele>288</ele>
        <time>2021-11-24T16:08:41.000Z</time>
      </trkpt>
      <trkpt lat="43.5043" lon="6.37987">
        <ele>288</ele>
        <time>2021-11-24T16:08:42.000Z</time>
      </trkpt>
      <trkpt lat="43.50429" lon="6.37986">
        <ele>288</ele>
        <time>2021-11-24T16:08:43.000Z</time>
      </trkpt>
      <trkpt lat="43.50428" lon="6.37984">
        <ele>288</ele>
        <time>2021-11-24T16:08:44.000Z</time>
      </trkpt>
      <trkpt lat="43.50427" lon="6.3798">
        <ele>288</ele>
        <time>2021-11-24T16:08:45.000Z</time>
      </trkpt>
      <trkpt lat="43.50426" lon="6.37978">
        <ele>288</ele>
        <time>2021-11-24T16:08:46.000Z</time>
      </trkpt>
      <trkpt lat="43.50426" lon="6.37977">
        <ele>288</ele>
        <time>2021-11-24T16:08:47.000Z</time>
      </trkpt>
      <trkpt lat="43.50425" lon="6.37977">
        <ele>288</ele>
        <time>2021-11-24T16:08:48.000Z</time>
      </trkpt>
      <trkpt lat="43.50425" lon="6.37976">
        <ele>288</ele>
        <time>2021-11-24T16:08:49.000Z</time>
      </trkpt>
      <trkpt lat="43.50425" lon="6.37975">
        <ele>288</ele>
        <time>2021-11-24T16:08:50.000Z</time>
      </trkpt>
      <trkpt lat="43.50424" lon="6.37974">
        <ele>288</ele>
        <time>2021-11-24T16:08:51.000Z</time>
      </trkpt>
      <trkpt lat="43.50423" lon="6.37971">
        <ele>288</ele>
        <time>2021-11-24T16:08:52.000Z</time>
      </trkpt>
      <trkpt lat="43.50422" lon="6.37969">
        <ele>288</ele>
        <time>2021-11-24T16:08:53.000Z</time>
      </trkpt>
      <trkpt lat="43.50421" lon="6.37968">
        <ele>288</ele>
        <time>2021-11-24T16:08:54.000Z</time>
      </trkpt>
      <trkpt lat="43.50421" lon="6.37966">
        <ele>288</ele>
        <time>2021-11-24T16:08:55.000Z</time>
      </trkpt>
      <trkpt lat="43.5042" lon="6.37965">
        <ele>288</ele>
        <time>2021-11-24T16:08:56.000Z</time>
      </trkpt>
      <trkpt lat="43.5042" lon="6.37965">
        <ele>289</ele>
        <time>2021-11-24T16:08:57.000Z</time>
      </trkpt>
      <trkpt lat="43.5042" lon="6.37964">
        <ele>289</ele>
        <time>2021-11-24T16:08:58.000Z</time>
      </trkpt>
      <trkpt lat="43.50419" lon="6.37964">
        <ele>289</ele>
        <time>2021-11-24T16:08:59.000Z</time>
      </trkpt>
      <trkpt lat="43.50419" lon="6.37963">
        <ele>289</ele>
        <time>2021-11-24T16:09:00.000Z</time>
      </trkpt>
      <trkpt lat="43.50419" lon="6.37963">
        <ele>289</ele>
        <time>2021-11-24T16:09:01.000Z</time>
      </trkpt>
      <trkpt lat="43.50419" lon="6.37962">
        <ele>289</ele>
        <time>2021-11-24T16:09:02.000Z</time>
      </trkpt>
      <trkpt lat="43.50419" lon="6.37961">
        <ele>289</ele>
        <time>2021-11-24T16:09:03.000Z</time>
      </trkpt>
      <trkpt lat="43.50418" lon="6.3796">
        <ele>289</ele>
        <time>2021-11-24T16:09:04.000Z</time>
      </trkpt>
      <trkpt lat="43.50418" lon="6.37958">
        <ele>289</ele>
        <time>2021-11-24T16:09:05.000Z</time>
      </trkpt>
      <trkpt lat="43.50417" lon="6.37956">
        <ele>289</ele>
        <time>2021-11-24T16:09:06.000Z</time>
      </trkpt>
      <trkpt lat="43.50417" lon="6.37955">
        <ele>289</ele>
        <time>2021-11-24T16:09:07.000Z</time>
      </trkpt>
      <trkpt lat="43.50417" lon="6.37954">
        <ele>289</ele>
        <time>2021-11-24T16:09:08.000Z</time>
      </trkpt>
      <trkpt lat="43.50417" lon="6.37953">
        <ele>290</ele>
        <time>2021-11-24T16:09:09.000Z</time>
      </trkpt>
      <trkpt lat="43.50417" lon="6.37952">
        <ele>290</ele>
        <time>2021-11-24T16:09:10.000Z</time>
      </trkpt>
      <trkpt lat="43.50416" lon="6.37951">
        <ele>290</ele>
        <time>2021-11-24T16:09:11.000Z</time>
      </trkpt>
      <trkpt lat="43.50415" lon="6.37949">
        <ele>290</ele>
        <time>2021-11-24T16:09:12.000Z</time>
      </trkpt>
      <trkpt lat="43.50414" lon="6.37948">
        <ele>290</ele>
        <time>2021-11-24T16:09:13.000Z</time>
      </trkpt>
      <trkpt lat="43.50414" lon="6.37946">
        <ele>290</ele>
        <time>2021-11-24T16:09:14.000Z</time>
      </trkpt>
      <trkpt lat="43.50413" lon="6.37944">
        <ele>290</ele>
        <time>2021-11-24T16:09:15.000Z</time>
      </trkpt>
      <trkpt lat="43.50413" lon="6.37944">
        <ele>290</ele>
        <time>2021-11-24T16:09:16.000Z</time>
      </trkpt>
      <trkpt lat="43.50413" lon="6.37943">
        <ele>290</ele>
        <time>2021-11-24T16:09:17.000Z</time>
      </trkpt>
      <trkpt lat="43.50413" lon="6.37942">
        <ele>290</ele>
        <time>2021-11-24T16:09:18.000Z</time>
      </trkpt>
      <trkpt lat="43.50413" lon="6.37941">
        <ele>290</ele>
        <time>2021-11-24T16:09:19.000Z</time>
      </trkpt>
      <trkpt lat="43.50413" lon="6.3794">
        <ele>290</ele>
        <time>2021-11-24T16:09:20.000Z</time>
      </trkpt>
      <trkpt lat="43.50413" lon="6.3794">
        <ele>290</ele>
        <time>2021-11-24T16:09:21.000Z</time>
      </trkpt>
      <trkpt lat="43.50412" lon="6.37939">
        <ele>290</ele>
        <time>2021-11-24T16:09:22.000Z</time>
      </trkpt>
      <trkpt lat="43.50412" lon="6.37938">
        <ele>290</ele>
        <time>2021-11-24T16:09:23.000Z</time>
      </trkpt>
      <trkpt lat="43.50412" lon="6.37938">
        <ele>290</ele>
        <time>2021-11-24T16:09:24.000Z</time>
      </trkpt>
      <trkpt lat="43.50412" lon="6.37937">
        <ele>290</ele>
        <time>2021-11-24T16:09:25.000Z</time>
      </trkpt>
      <trkpt lat="43.50412" lon="6.37936">
        <ele>290</ele>
        <time>2021-11-24T16:09:26.000Z</time>
      </trkpt>
      <trkpt lat="43.50412" lon="6.37934">
        <ele>290</ele>
        <time>2021-11-24T16:09:27.000Z</time>
      </trkpt>
      <trkpt lat="43.50412" lon="6.37933">
        <ele>290</ele>
        <time>2021-11-24T16:09:28.000Z</time>
      </trkpt>
      <trkpt lat="43.50412" lon="6.37931">
        <ele>290</ele>
        <time>2021-11-24T16:09:29.000Z</time>
      </trkpt>
      <trkpt lat="43.50412" lon="6.3793">
        <ele>290</ele>
        <time>2021-11-24T16:09:30.000Z</time>
      </trkpt>
      <trkpt lat="43.50412" lon="6.37929">
        <ele>290</ele>
        <time>2021-11-24T16:09:31.000Z</time>
      </trkpt>
      <trkpt lat="43.50412" lon="6.37927">
        <ele>290</ele>
        <time>2021-11-24T16:09:32.000Z</time>
      </trkpt>
      <trkpt lat="43.50411" lon="6.37924">
        <ele>290</ele>
        <time>2021-11-24T16:09:33.000Z</time>
      </trkpt>
      <trkpt lat="43.50411" lon="6.37921">
        <ele>290</ele>
        <time>2021-11-24T16:09:34.000Z</time>
      </trkpt>
      <trkpt lat="43.5041" lon="6.37919">
        <ele>291</ele>
        <time>2021-11-24T16:09:35.000Z</time>
      </trkpt>
      <trkpt lat="43.5041" lon="6.37917">
        <ele>291</ele>
        <time>2021-11-24T16:09:36.000Z</time>
      </trkpt>
      <trkpt lat="43.5041" lon="6.37916">
        <ele>291</ele>
        <time>2021-11-24T16:09:37.000Z</time>
      </trkpt>
      <trkpt lat="43.50409" lon="6.37914">
        <ele>291</ele>
        <time>2021-11-24T16:09:38.000Z</time>
      </trkpt>
      <trkpt lat="43.50409" lon="6.37913">
        <ele>291</ele>
        <time>2021-11-24T16:09:39.000Z</time>
      </trkpt>
      <trkpt lat="43.50409" lon="6.37912">
        <ele>292</ele>
        <time>2021-11-24T16:09:40.000Z</time>
      </trkpt>
      <trkpt lat="43.50408" lon="6.37909">
        <ele>292</ele>
        <time>2021-11-24T16:09:41.000Z</time>
      </trkpt>
      <trkpt lat="43.50408" lon="6.37907">
        <ele>292</ele>
        <time>2021-11-24T16:09:42.000Z</time>
      </trkpt>
      <trkpt lat="43.50408" lon="6.37905">
        <ele>292</ele>
        <time>2021-11-24T16:09:43.000Z</time>
      </trkpt>
      <trkpt lat="43.50407" lon="6.37903">
        <ele>292</ele>
        <time>2021-11-24T16:09:44.000Z</time>
      </trkpt>
      <trkpt lat="43.50407" lon="6.37901">
        <ele>292</ele>
        <time>2021-11-24T16:09:45.000Z</time>
      </trkpt>
      <trkpt lat="43.50407" lon="6.37898">
        <ele>294</ele>
        <time>2021-11-24T16:09:46.000Z</time>
      </trkpt>
      <trkpt lat="43.50406" lon="6.37895">
        <ele>294</ele>
        <time>2021-11-24T16:09:47.000Z</time>
      </trkpt>
      <trkpt lat="43.50406" lon="6.37892">
        <ele>294</ele>
        <time>2021-11-24T16:09:48.000Z</time>
      </trkpt>
      <trkpt lat="43.50406" lon="6.3789">
        <ele>294</ele>
        <time>2021-11-24T16:09:49.000Z</time>
      </trkpt>
      <trkpt lat="43.50406" lon="6.37888">
        <ele>294</ele>
        <time>2021-11-24T16:09:50.000Z</time>
      </trkpt>
      <trkpt lat="43.50406" lon="6.37887">
        <ele>294</ele>
        <time>2021-11-24T16:09:51.000Z</time>
      </trkpt>
      <trkpt lat="43.50406" lon="6.37885">
        <ele>295</ele>
        <time>2021-11-24T16:09:52.000Z</time>
      </trkpt>
      <trkpt lat="43.50407" lon="6.37883">
        <ele>295</ele>
        <time>2021-11-24T16:09:53.000Z</time>
      </trkpt>
      <trkpt lat="43.50407" lon="6.37881">
        <ele>295</ele>
        <time>2021-11-24T16:09:54.000Z</time>
      </trkpt>
      <trkpt lat="43.50407" lon="6.3788">
        <ele>295</ele>
        <time>2021-11-24T16:09:55.000Z</time>
      </trkpt>
      <trkpt lat="43.50407" lon="6.37878">
        <ele>295</ele>
        <time>2021-11-24T16:09:56.000Z</time>
      </trkpt>
      <trkpt lat="43.50407" lon="6.37876">
        <ele>295</ele>
        <time>2021-11-24T16:09:57.000Z</time>
      </trkpt>
      <trkpt lat="43.50407" lon="6.37875">
        <ele>296</ele>
        <time>2021-11-24T16:09:58.000Z</time>
      </trkpt>
      <trkpt lat="43.50407" lon="6.37873">
        <ele>297</ele>
        <time>2021-11-24T16:09:59.000Z</time>
      </trkpt>
      <trkpt lat="43.50407" lon="6.37872">
        <ele>297</ele>
        <time>2021-11-24T16:10:00.000Z</time>
      </trkpt>
      <trkpt lat="43.50408" lon="6.3787">
        <ele>297</ele>
        <time>2021-11-24T16:10:01.000Z</time>
      </trkpt>
      <trkpt lat="43.50408" lon="6.37868">
        <ele>298</ele>
        <time>2021-11-24T16:10:02.000Z</time>
      </trkpt>
      <trkpt lat="43.50408" lon="6.37866">
        <ele>298</ele>
        <time>2021-11-24T16:10:03.000Z</time>
      </trkpt>
      <trkpt lat="43.50408" lon="6.37865">
        <ele>298</ele>
        <time>2021-11-24T16:10:04.000Z</time>
      </trkpt>
      <trkpt lat="43.50408" lon="6.37864">
        <ele>298</ele>
        <time>2021-11-24T16:10:05.000Z</time>
      </trkpt>
      <trkpt lat="43.50408" lon="6.37862">
        <ele>298</ele>
        <time>2021-11-24T16:10:06.000Z</time>
      </trkpt>
      <trkpt lat="43.50409" lon="6.37861">
        <ele>298</ele>
        <time>2021-11-24T16:10:07.000Z</time>
      </trkpt>
      <trkpt lat="43.50409" lon="6.37859">
        <ele>298</ele>
        <time>2021-11-24T16:10:08.000Z</time>
      </trkpt>
      <trkpt lat="43.50409" lon="6.37858">
        <ele>299</ele>
        <time>2021-11-24T16:10:09.000Z</time>
      </trkpt>
      <trkpt lat="43.50409" lon="6.37856">
        <ele>299</ele>
        <time>2021-11-24T16:10:10.000Z</time>
      </trkpt>
      <trkpt lat="43.50409" lon="6.37855">
        <ele>299</ele>
        <time>2021-11-24T16:10:11.000Z</time>
      </trkpt>
      <trkpt lat="43.5041" lon="6.37854">
        <ele>299</ele>
        <time>2021-11-24T16:10:12.000Z</time>
      </trkpt>
      <trkpt lat="43.5041" lon="6.37853">
        <ele>299</ele>
        <time>2021-11-24T16:10:13.000Z</time>
      </trkpt>
      <trkpt lat="43.5041" lon="6.37851">
        <ele>300</ele>
        <time>2021-11-24T16:10:14.000Z</time>
      </trkpt>
      <trkpt lat="43.50411" lon="6.3785">
        <ele>300</ele>
        <time>2021-11-24T16:10:15.000Z</time>
      </trkpt>
      <trkpt lat="43.50411" lon="6.37848">
        <ele>300</ele>
        <time>2021-11-24T16:10:16.000Z</time>
      </trkpt>
      <trkpt lat="43.50412" lon="6.37847">
        <ele>300</ele>
        <time>2021-11-24T16:10:17.000Z</time>
      </trkpt>
      <trkpt lat="43.50412" lon="6.37846">
        <ele>300</ele>
        <time>2021-11-24T16:10:18.000Z</time>
      </trkpt>
      <trkpt lat="43.50413" lon="6.37844">
        <ele>300</ele>
        <time>2021-11-24T16:10:19.000Z</time>
      </trkpt>
      <trkpt lat="43.50413" lon="6.37843">
        <ele>300</ele>
        <time>2021-11-24T16:10:20.000Z</time>
      </trkpt>
      <trkpt lat="43.50413" lon="6.37841">
        <ele>300</ele>
        <time>2021-11-24T16:10:21.000Z</time>
      </trkpt>
      <trkpt lat="43.50414" lon="6.37839">
        <ele>300</ele>
        <time>2021-11-24T16:10:22.000Z</time>
      </trkpt>
      <trkpt lat="43.50414" lon="6.37837">
        <ele>300</ele>
        <time>2021-11-24T16:10:23.000Z</time>
      </trkpt>
      <trkpt lat="43.50414" lon="6.37836">
        <ele>300</ele>
        <time>2021-11-24T16:10:24.000Z</time>
      </trkpt>
      <trkpt lat="43.50415" lon="6.37834">
        <ele>300</ele>
        <time>2021-11-24T16:10:25.000Z</time>
      </trkpt>
      <trkpt lat="43.50415" lon="6.37832">
        <ele>300</ele>
        <time>2021-11-24T16:10:26.000Z</time>
      </trkpt>
      <trkpt lat="43.50416" lon="6.37831">
        <ele>300</ele>
        <time>2021-11-24T16:10:27.000Z</time>
      </trkpt>
      <trkpt lat="43.50416" lon="6.37829">
        <ele>300</ele>
        <time>2021-11-24T16:10:28.000Z</time>
      </trkpt>
      <trkpt lat="43.50416" lon="6.37827">
        <ele>300</ele>
        <time>2021-11-24T16:10:29.000Z</time>
      </trkpt>
      <trkpt lat="43.50416" lon="6.37825">
        <ele>301</ele>
        <time>2021-11-24T16:10:30.000Z</time>
      </trkpt>
      <trkpt lat="43.50417" lon="6.37824">
        <ele>301</ele>
        <time>2021-11-24T16:10:31.000Z</time>
      </trkpt>
      <trkpt lat="43.50418" lon="6.37822">
        <ele>301</ele>
        <time>2021-11-24T16:10:32.000Z</time>
      </trkpt>
      <trkpt lat="43.50418" lon="6.37821">
        <ele>301</ele>
        <time>2021-11-24T16:10:33.000Z</time>
      </trkpt>
      <trkpt lat="43.50418" lon="6.3782">
        <ele>301</ele>
        <time>2021-11-24T16:10:34.000Z</time>
      </trkpt>
      <trkpt lat="43.50419" lon="6.37818">
        <ele>301</ele>
        <time>2021-11-24T16:10:35.000Z</time>
      </trkpt>
      <trkpt lat="43.50419" lon="6.37817">
        <ele>301</ele>
        <time>2021-11-24T16:10:36.000Z</time>
      </trkpt>
      <trkpt lat="43.50419" lon="6.37815">
        <ele>301</ele>
        <time>2021-11-24T16:10:37.000Z</time>
      </trkpt>
      <trkpt lat="43.5042" lon="6.37814">
        <ele>301</ele>
        <time>2021-11-24T16:10:38.000Z</time>
      </trkpt>
      <trkpt lat="43.5042" lon="6.37812">
        <ele>302</ele>
        <time>2021-11-24T16:10:39.000Z</time>
      </trkpt>
      <trkpt lat="43.5042" lon="6.37811">
        <ele>303</ele>
        <time>2021-11-24T16:10:40.000Z</time>
      </trkpt>
      <trkpt lat="43.5042" lon="6.37809">
        <ele>303</ele>
        <time>2021-11-24T16:10:41.000Z</time>
      </trkpt>
      <trkpt lat="43.5042" lon="6.37808">
        <ele>303</ele>
        <time>2021-11-24T16:10:42.000Z</time>
      </trkpt>
      <trkpt lat="43.50421" lon="6.37806">
        <ele>302</ele>
        <time>2021-11-24T16:10:43.000Z</time>
      </trkpt>
      <trkpt lat="43.50421" lon="6.37805">
        <ele>302</ele>
        <time>2021-11-24T16:10:44.000Z</time>
      </trkpt>
      <trkpt lat="43.50421" lon="6.37803">
        <ele>302</ele>
        <time>2021-11-24T16:10:45.000Z</time>
      </trkpt>
      <trkpt lat="43.50422" lon="6.37801">
        <ele>303</ele>
        <time>2021-11-24T16:10:46.000Z</time>
      </trkpt>
      <trkpt lat="43.50422" lon="6.378">
        <ele>303</ele>
        <time>2021-11-24T16:10:47.000Z</time>
      </trkpt>
      <trkpt lat="43.50422" lon="6.37798">
        <ele>303</ele>
        <time>2021-11-24T16:10:48.000Z</time>
      </trkpt>
      <trkpt lat="43.50422" lon="6.37797">
        <ele>303</ele>
        <time>2021-11-24T16:10:49.000Z</time>
      </trkpt>
      <trkpt lat="43.50422" lon="6.37795">
        <ele>303</ele>
        <time>2021-11-24T16:10:50.000Z</time>
      </trkpt>
      <trkpt lat="43.50422" lon="6.37794">
        <ele>303</ele>
        <time>2021-11-24T16:10:51.000Z</time>
      </trkpt>
      <trkpt lat="43.50422" lon="6.37792">
        <ele>303</ele>
        <time>2021-11-24T16:10:52.000Z</time>
      </trkpt>
      <trkpt lat="43.50423" lon="6.37791">
        <ele>303</ele>
        <time>2021-11-24T16:10:53.000Z</time>
      </trkpt>
      <trkpt lat="43.50423" lon="6.37789">
        <ele>303</ele>
        <time>2021-11-24T16:10:54.000Z</time>
      </trkpt>
      <trkpt lat="43.50423" lon="6.37787">
        <ele>303</ele>
        <time>2021-11-24T16:10:55.000Z</time>
      </trkpt>
      <trkpt lat="43.50423" lon="6.37786">
        <ele>303</ele>
        <time>2021-11-24T16:10:56.000Z</time>
      </trkpt>
      <trkpt lat="43.50424" lon="6.37784">
        <ele>303</ele>
        <time>2021-11-24T16:10:57.000Z</time>
      </trkpt>
      <trkpt lat="43.50424" lon="6.37782">
        <ele>303</ele>
        <time>2021-11-24T16:10:58.000Z</time>
      </trkpt>
      <trkpt lat="43.50424" lon="6.37781">
        <ele>303</ele>
        <time>2021-11-24T16:10:59.000Z</time>
      </trkpt>
      <trkpt lat="43.50424" lon="6.37779">
        <ele>303</ele>
        <time>2021-11-24T16:11:00.000Z</time>
      </trkpt>
      <trkpt lat="43.50424" lon="6.37777">
        <ele>304</ele>
        <time>2021-11-24T16:11:01.000Z</time>
      </trkpt>
      <trkpt lat="43.50424" lon="6.37775">
        <ele>304</ele>
        <time>2021-11-24T16:11:02.000Z</time>
      </trkpt>
      <trkpt lat="43.50424" lon="6.37774">
        <ele>304</ele>
        <time>2021-11-24T16:11:03.000Z</time>
      </trkpt>
      <trkpt lat="43.50424" lon="6.37772">
        <ele>304</ele>
        <time>2021-11-24T16:11:04.000Z</time>
      </trkpt>
      <trkpt lat="43.50424" lon="6.3777">
        <ele>305</ele>
        <time>2021-11-24T16:11:05.000Z</time>
      </trkpt>
      <trkpt lat="43.50423" lon="6.37768">
        <ele>305</ele>
        <time>2021-11-24T16:11:06.000Z</time>
      </trkpt>
      <trkpt lat="43.50423" lon="6.37767">
        <ele>305</ele>
        <time>2021-11-24T16:11:07.000Z</time>
      </trkpt>
      <trkpt lat="43.50423" lon="6.37766">
        <ele>305</ele>
        <time>2021-11-24T16:11:08.000Z</time>
      </trkpt>
      <trkpt lat="43.50422" lon="6.37764">
        <ele>305</ele>
        <time>2021-11-24T16:11:09.000Z</time>
      </trkpt>
      <trkpt lat="43.50422" lon="6.37763">
        <ele>305</ele>
        <time>2021-11-24T16:11:10.000Z</time>
      </trkpt>
      <trkpt lat="43.50422" lon="6.37762">
        <ele>305</ele>
        <time>2021-11-24T16:11:11.000Z</time>
      </trkpt>
      <trkpt lat="43.50422" lon="6.3776">
        <ele>305</ele>
        <time>2021-11-24T16:11:12.000Z</time>
      </trkpt>
      <trkpt lat="43.50421" lon="6.37759">
        <ele>305</ele>
        <time>2021-11-24T16:11:13.000Z</time>
      </trkpt>
      <trkpt lat="43.50421" lon="6.37757">
        <ele>305</ele>
        <time>2021-11-24T16:11:14.000Z</time>
      </trkpt>
      <trkpt lat="43.50421" lon="6.37756">
        <ele>305</ele>
        <time>2021-11-24T16:11:15.000Z</time>
      </trkpt>
      <trkpt lat="43.5042" lon="6.37755">
        <ele>305</ele>
        <time>2021-11-24T16:11:16.000Z</time>
      </trkpt>
      <trkpt lat="43.5042" lon="6.37755">
        <ele>304</ele>
        <time>2021-11-24T16:11:17.000Z</time>
      </trkpt>
      <trkpt lat="43.50419" lon="6.37754">
        <ele>304</ele>
        <time>2021-11-24T16:11:18.000Z</time>
      </trkpt>
      <trkpt lat="43.50419" lon="6.37753">
        <ele>304</ele>
        <time>2021-11-24T16:11:19.000Z</time>
      </trkpt>
      <trkpt lat="43.50418" lon="6.37752">
        <ele>304</ele>
        <time>2021-11-24T16:11:20.000Z</time>
      </trkpt>
      <trkpt lat="43.50418" lon="6.37751">
        <ele>304</ele>
        <time>2021-11-24T16:11:21.000Z</time>
      </trkpt>
      <trkpt lat="43.50417" lon="6.37751">
        <ele>304</ele>
        <time>2021-11-24T16:11:22.000Z</time>
      </trkpt>
      <trkpt lat="43.50417" lon="6.3775">
        <ele>304</ele>
        <time>2021-11-24T16:11:23.000Z</time>
      </trkpt>
      <trkpt lat="43.50416" lon="6.37749">
        <ele>304</ele>
        <time>2021-11-24T16:11:24.000Z</time>
      </trkpt>
      <trkpt lat="43.50416" lon="6.37748">
        <ele>304</ele>
        <time>2021-11-24T16:11:25.000Z</time>
      </trkpt>
      <trkpt lat="43.50415" lon="6.37747">
        <ele>304</ele>
        <time>2021-11-24T16:11:26.000Z</time>
      </trkpt>
      <trkpt lat="43.50414" lon="6.37746">
        <ele>304</ele>
        <time>2021-11-24T16:11:27.000Z</time>
      </trkpt>
      <trkpt lat="43.50413" lon="6.37746">
        <ele>304</ele>
        <time>2021-11-24T16:11:28.000Z</time>
      </trkpt>
      <trkpt lat="43.50412" lon="6.37745">
        <ele>304</ele>
        <time>2021-11-24T16:11:29.000Z</time>
      </trkpt>
      <trkpt lat="43.50411" lon="6.37744">
        <ele>304</ele>
        <time>2021-11-24T16:11:30.000Z</time>
      </trkpt>
      <trkpt lat="43.5041" lon="6.37743">
        <ele>304</ele>
        <time>2021-11-24T16:11:31.000Z</time>
      </trkpt>
      <trkpt lat="43.5041" lon="6.37741">
        <ele>304</ele>
        <time>2021-11-24T16:11:32.000Z</time>
      </trkpt>
      <trkpt lat="43.50409" lon="6.3774">
        <ele>304</ele>
        <time>2021-11-24T16:11:33.000Z</time>
      </trkpt>
      <trkpt lat="43.50408" lon="6.37738">
        <ele>304</ele>
        <time>2021-11-24T16:11:34.000Z</time>
      </trkpt>
      <trkpt lat="43.50408" lon="6.37737">
        <ele>304</ele>
        <time>2021-11-24T16:11:35.000Z</time>
      </trkpt>
      <trkpt lat="43.50407" lon="6.37736">
        <ele>305</ele>
        <time>2021-11-24T16:11:36.000Z</time>
      </trkpt>
      <trkpt lat="43.50407" lon="6.37735">
        <ele>305</ele>
        <time>2021-11-24T16:11:37.000Z</time>
      </trkpt>
      <trkpt lat="43.50406" lon="6.37734">
        <ele>305</ele>
        <time>2021-11-24T16:11:38.000Z</time>
      </trkpt>
      <trkpt lat="43.50405" lon="6.37733">
        <ele>305</ele>
        <time>2021-11-24T16:11:39.000Z</time>
      </trkpt>
      <trkpt lat="43.50405" lon="6.37731">
        <ele>305</ele>
        <time>2021-11-24T16:11:40.000Z</time>
      </trkpt>
      <trkpt lat="43.50404" lon="6.3773">
        <ele>305</ele>
        <time>2021-11-24T16:11:41.000Z</time>
      </trkpt>
      <trkpt lat="43.50403" lon="6.37729">
        <ele>305</ele>
        <time>2021-11-24T16:11:42.000Z</time>
      </trkpt>
      <trkpt lat="43.50402" lon="6.37728">
        <ele>305</ele>
        <time>2021-11-24T16:11:43.000Z</time>
      </trkpt>
      <trkpt lat="43.50402" lon="6.37728">
        <ele>305</ele>
        <time>2021-11-24T16:11:44.000Z</time>
      </trkpt>
      <trkpt lat="43.50401" lon="6.37727">
        <ele>305</ele>
        <time>2021-11-24T16:11:45.000Z</time>
      </trkpt>
      <trkpt lat="43.50401" lon="6.37726">
        <ele>305</ele>
        <time>2021-11-24T16:11:46.000Z</time>
      </trkpt>
      <trkpt lat="43.504" lon="6.37726">
        <ele>305</ele>
        <time>2021-11-24T16:11:47.000Z</time>
      </trkpt>
      <trkpt lat="43.50398" lon="6.37726">
        <ele>305</ele>
        <time>2021-11-24T16:11:48.000Z</time>
      </trkpt>
      <trkpt lat="43.50397" lon="6.37725">
        <ele>306</ele>
        <time>2021-11-24T16:11:49.000Z</time>
      </trkpt>
      <trkpt lat="43.50397" lon="6.37724">
        <ele>305</ele>
        <time>2021-11-24T16:11:50.000Z</time>
      </trkpt>
      <trkpt lat="43.50396" lon="6.37722">
        <ele>305</ele>
        <time>2021-11-24T16:11:51.000Z</time>
      </trkpt>
      <trkpt lat="43.50395" lon="6.37721">
        <ele>305</ele>
        <time>2021-11-24T16:11:52.000Z</time>
      </trkpt>
      <trkpt lat="43.50395" lon="6.3772">
        <ele>305</ele>
        <time>2021-11-24T16:11:53.000Z</time>
      </trkpt>
      <trkpt lat="43.50394" lon="6.37718">
        <ele>305</ele>
        <time>2021-11-24T16:11:54.000Z</time>
      </trkpt>
      <trkpt lat="43.50393" lon="6.37717">
        <ele>305</ele>
        <time>2021-11-24T16:11:55.000Z</time>
      </trkpt>
      <trkpt lat="43.50393" lon="6.37716">
        <ele>305</ele>
        <time>2021-11-24T16:11:56.000Z</time>
      </trkpt>
      <trkpt lat="43.50392" lon="6.37715">
        <ele>305</ele>
        <time>2021-11-24T16:11:57.000Z</time>
      </trkpt>
      <trkpt lat="43.50391" lon="6.37714">
        <ele>305</ele>
        <time>2021-11-24T16:11:58.000Z</time>
      </trkpt>
      <trkpt lat="43.50391" lon="6.37713">
        <ele>305</ele>
        <time>2021-11-24T16:11:59.000Z</time>
      </trkpt>
      <trkpt lat="43.50391" lon="6.37712">
        <ele>305</ele>
        <time>2021-11-24T16:12:00.000Z</time>
      </trkpt>
      <trkpt lat="43.5039" lon="6.37712">
        <ele>305</ele>
        <time>2021-11-24T16:12:01.000Z</time>
      </trkpt>
      <trkpt lat="43.5039" lon="6.37711">
        <ele>306</ele>
        <time>2021-11-24T16:12:02.000Z</time>
      </trkpt>
      <trkpt lat="43.50389" lon="6.3771">
        <ele>306</ele>
        <time>2021-11-24T16:12:03.000Z</time>
      </trkpt>
      <trkpt lat="43.50389" lon="6.3771">
        <ele>306</ele>
        <time>2021-11-24T16:12:04.000Z</time>
      </trkpt>
      <trkpt lat="43.50388" lon="6.37709">
        <ele>306</ele>
        <time>2021-11-24T16:12:05.000Z</time>
      </trkpt>
      <trkpt lat="43.50388" lon="6.37708">
        <ele>306</ele>
        <time>2021-11-24T16:12:06.000Z</time>
      </trkpt>
      <trkpt lat="43.50387" lon="6.37708">
        <ele>306</ele>
        <time>2021-11-24T16:12:07.000Z</time>
      </trkpt>
      <trkpt lat="43.50387" lon="6.37706">
        <ele>306</ele>
        <time>2021-11-24T16:12:08.000Z</time>
      </trkpt>
      <trkpt lat="43.50386" lon="6.37705">
        <ele>306</ele>
        <time>2021-11-24T16:12:09.000Z</time>
      </trkpt>
      <trkpt lat="43.50385" lon="6.37704">
        <ele>306</ele>
        <time>2021-11-24T16:12:10.000Z</time>
      </trkpt>
      <trkpt lat="43.50384" lon="6.37703">
        <ele>306</ele>
        <time>2021-11-24T16:12:11.000Z</time>
      </trkpt>
      <trkpt lat="43.50383" lon="6.37703">
        <ele>307</ele>
        <time>2021-11-24T16:12:12.000Z</time>
      </trkpt>
      <trkpt lat="43.50383" lon="6.37702">
        <ele>307</ele>
        <time>2021-11-24T16:12:13.000Z</time>
      </trkpt>
      <trkpt lat="43.50382" lon="6.37701">
        <ele>307</ele>
        <time>2021-11-24T16:12:14.000Z</time>
      </trkpt>
      <trkpt lat="43.50381" lon="6.37701">
        <ele>307</ele>
        <time>2021-11-24T16:12:15.000Z</time>
      </trkpt>
      <trkpt lat="43.5038" lon="6.377">
        <ele>307</ele>
        <time>2021-11-24T16:12:16.000Z</time>
      </trkpt>
      <trkpt lat="43.50379" lon="6.377">
        <ele>307</ele>
        <time>2021-11-24T16:12:17.000Z</time>
      </trkpt>
      <trkpt lat="43.50378" lon="6.37699">
        <ele>307</ele>
        <time>2021-11-24T16:12:18.000Z</time>
      </trkpt>
      <trkpt lat="43.50377" lon="6.37698">
        <ele>307</ele>
        <time>2021-11-24T16:12:19.000Z</time>
      </trkpt>
      <trkpt lat="43.50376" lon="6.37698">
        <ele>308</ele>
        <time>2021-11-24T16:12:20.000Z</time>
      </trkpt>
      <trkpt lat="43.50375" lon="6.37697">
        <ele>308</ele>
        <time>2021-11-24T16:12:21.000Z</time>
      </trkpt>
      <trkpt lat="43.50374" lon="6.37696">
        <ele>308</ele>
        <time>2021-11-24T16:12:22.000Z</time>
      </trkpt>
      <trkpt lat="43.50373" lon="6.37695">
        <ele>308</ele>
        <time>2021-11-24T16:12:23.000Z</time>
      </trkpt>
      <trkpt lat="43.50373" lon="6.37694">
        <ele>308</ele>
        <time>2021-11-24T16:12:24.000Z</time>
      </trkpt>
      <trkpt lat="43.50372" lon="6.37693">
        <ele>308</ele>
        <time>2021-11-24T16:12:25.000Z</time>
      </trkpt>
      <trkpt lat="43.50371" lon="6.37692">
        <ele>308</ele>
        <time>2021-11-24T16:12:26.000Z</time>
      </trkpt>
      <trkpt lat="43.5037" lon="6.37691">
        <ele>308</ele>
        <time>2021-11-24T16:12:27.000Z</time>
      </trkpt>
      <trkpt lat="43.50369" lon="6.3769">
        <ele>308</ele>
        <time>2021-11-24T16:12:28.000Z</time>
      </trkpt>
      <trkpt lat="43.50368" lon="6.37689">
        <ele>308</ele>
        <time>2021-11-24T16:12:29.000Z</time>
      </trkpt>
      <trkpt lat="43.50367" lon="6.37688">
        <ele>308</ele>
        <time>2021-11-24T16:12:30.000Z</time>
      </trkpt>
      <trkpt lat="43.50366" lon="6.37686">
        <ele>308</ele>
        <time>2021-11-24T16:12:31.000Z</time>
      </trkpt>
      <trkpt lat="43.50365" lon="6.37685">
        <ele>308</ele>
        <time>2021-11-24T16:12:32.000Z</time>
      </trkpt>
      <trkpt lat="43.50363" lon="6.37684">
        <ele>308</ele>
        <time>2021-11-24T16:12:33.000Z</time>
      </trkpt>
      <trkpt lat="43.50363" lon="6.37682">
        <ele>308</ele>
        <time>2021-11-24T16:12:34.000Z</time>
      </trkpt>
      <trkpt lat="43.50362" lon="6.37681">
        <ele>308</ele>
        <time>2021-11-24T16:12:35.000Z</time>
      </trkpt>
      <trkpt lat="43.50361" lon="6.37679">
        <ele>308</ele>
        <time>2021-11-24T16:12:36.000Z</time>
      </trkpt>
      <trkpt lat="43.5036" lon="6.37678">
        <ele>308</ele>
        <time>2021-11-24T16:12:37.000Z</time>
      </trkpt>
      <trkpt lat="43.50359" lon="6.37676">
        <ele>308</ele>
        <time>2021-11-24T16:12:38.000Z</time>
      </trkpt>
      <trkpt lat="43.50358" lon="6.37675">
        <ele>309</ele>
        <time>2021-11-24T16:12:39.000Z</time>
      </trkpt>
      <trkpt lat="43.50357" lon="6.37674">
        <ele>309</ele>
        <time>2021-11-24T16:12:40.000Z</time>
      </trkpt>
      <trkpt lat="43.50356" lon="6.37673">
        <ele>310</ele>
        <time>2021-11-24T16:12:41.000Z</time>
      </trkpt>
      <trkpt lat="43.50355" lon="6.37671">
        <ele>310</ele>
        <time>2021-11-24T16:12:42.000Z</time>
      </trkpt>
      <trkpt lat="43.50355" lon="6.3767">
        <ele>310</ele>
        <time>2021-11-24T16:12:43.000Z</time>
      </trkpt>
      <trkpt lat="43.50354" lon="6.37669">
        <ele>311</ele>
        <time>2021-11-24T16:12:44.000Z</time>
      </trkpt>
      <trkpt lat="43.50353" lon="6.37667">
        <ele>311</ele>
        <time>2021-11-24T16:12:45.000Z</time>
      </trkpt>
      <trkpt lat="43.50351" lon="6.37666">
        <ele>311</ele>
        <time>2021-11-24T16:12:46.000Z</time>
      </trkpt>
      <trkpt lat="43.5035" lon="6.37665">
        <ele>311</ele>
        <time>2021-11-24T16:12:47.000Z</time>
      </trkpt>
      <trkpt lat="43.50348" lon="6.37664">
        <ele>311</ele>
        <time>2021-11-24T16:12:48.000Z</time>
      </trkpt>
      <trkpt lat="43.50347" lon="6.37662">
        <ele>311</ele>
        <time>2021-11-24T16:12:49.000Z</time>
      </trkpt>
      <trkpt lat="43.50346" lon="6.37661">
        <ele>311</ele>
        <time>2021-11-24T16:12:50.000Z</time>
      </trkpt>
      <trkpt lat="43.50345" lon="6.3766">
        <ele>312</ele>
        <time>2021-11-24T16:12:51.000Z</time>
      </trkpt>
      <trkpt lat="43.50344" lon="6.37659">
        <ele>312</ele>
        <time>2021-11-24T16:12:52.000Z</time>
      </trkpt>
      <trkpt lat="43.50343" lon="6.37657">
        <ele>312</ele>
        <time>2021-11-24T16:12:53.000Z</time>
      </trkpt>
      <trkpt lat="43.50342" lon="6.37656">
        <ele>312</ele>
        <time>2021-11-24T16:12:54.000Z</time>
      </trkpt>
      <trkpt lat="43.50342" lon="6.37655">
        <ele>312</ele>
        <time>2021-11-24T16:12:55.000Z</time>
      </trkpt>
      <trkpt lat="43.50341" lon="6.37654">
        <ele>312</ele>
        <time>2021-11-24T16:12:56.000Z</time>
      </trkpt>
      <trkpt lat="43.5034" lon="6.37652">
        <ele>312</ele>
        <time>2021-11-24T16:12:57.000Z</time>
      </trkpt>
      <trkpt lat="43.50339" lon="6.37651">
        <ele>311</ele>
        <time>2021-11-24T16:12:58.000Z</time>
      </trkpt>
      <trkpt lat="43.50338" lon="6.3765">
        <ele>311</ele>
        <time>2021-11-24T16:12:59.000Z</time>
      </trkpt>
      <trkpt lat="43.50337" lon="6.3765">
        <ele>311</ele>
        <time>2021-11-24T16:13:00.000Z</time>
      </trkpt>
      <trkpt lat="43.50336" lon="6.37649">
        <ele>311</ele>
        <time>2021-11-24T16:13:01.000Z</time>
      </trkpt>
      <trkpt lat="43.50335" lon="6.37648">
        <ele>311</ele>
        <time>2021-11-24T16:13:02.000Z</time>
      </trkpt>
      <trkpt lat="43.50334" lon="6.37647">
        <ele>311</ele>
        <time>2021-11-24T16:13:03.000Z</time>
      </trkpt>
      <trkpt lat="43.50333" lon="6.37646">
        <ele>311</ele>
        <time>2021-11-24T16:13:04.000Z</time>
      </trkpt>
      <trkpt lat="43.50332" lon="6.37645">
        <ele>311</ele>
        <time>2021-11-24T16:13:05.000Z</time>
      </trkpt>
      <trkpt lat="43.50331" lon="6.37644">
        <ele>311</ele>
        <time>2021-11-24T16:13:06.000Z</time>
      </trkpt>
      <trkpt lat="43.50331" lon="6.37642">
        <ele>311</ele>
        <time>2021-11-24T16:13:07.000Z</time>
      </trkpt>
      <trkpt lat="43.5033" lon="6.37641">
        <ele>311</ele>
        <time>2021-11-24T16:13:08.000Z</time>
      </trkpt>
      <trkpt lat="43.50329" lon="6.3764">
        <ele>310</ele>
        <time>2021-11-24T16:13:09.000Z</time>
      </trkpt>
      <trkpt lat="43.50328" lon="6.37639">
        <ele>310</ele>
        <time>2021-11-24T16:13:10.000Z</time>
      </trkpt>
      <trkpt lat="43.50327" lon="6.37638">
        <ele>310</ele>
        <time>2021-11-24T16:13:11.000Z</time>
      </trkpt>
      <trkpt lat="43.50326" lon="6.37637">
        <ele>310</ele>
        <time>2021-11-24T16:13:12.000Z</time>
      </trkpt>
      <trkpt lat="43.50326" lon="6.37636">
        <ele>310</ele>
        <time>2021-11-24T16:13:13.000Z</time>
      </trkpt>
      <trkpt lat="43.50325" lon="6.37634">
        <ele>310</ele>
        <time>2021-11-24T16:13:14.000Z</time>
      </trkpt>
      <trkpt lat="43.50324" lon="6.37632">
        <ele>310</ele>
        <time>2021-11-24T16:13:15.000Z</time>
      </trkpt>
      <trkpt lat="43.50323" lon="6.3763">
        <ele>310</ele>
        <time>2021-11-24T16:13:16.000Z</time>
      </trkpt>
      <trkpt lat="43.50322" lon="6.37628">
        <ele>310</ele>
        <time>2021-11-24T16:13:17.000Z</time>
      </trkpt>
      <trkpt lat="43.5032" lon="6.37626">
        <ele>310</ele>
        <time>2021-11-24T16:13:18.000Z</time>
      </trkpt>
      <trkpt lat="43.50319" lon="6.37625">
        <ele>310</ele>
        <time>2021-11-24T16:13:19.000Z</time>
      </trkpt>
      <trkpt lat="43.50318" lon="6.37624">
        <ele>310</ele>
        <time>2021-11-24T16:13:20.000Z</time>
      </trkpt>
      <trkpt lat="43.50317" lon="6.37624">
        <ele>310</ele>
        <time>2021-11-24T16:13:21.000Z</time>
      </trkpt>
      <trkpt lat="43.50316" lon="6.37623">
        <ele>310</ele>
        <time>2021-11-24T16:13:22.000Z</time>
      </trkpt>
      <trkpt lat="43.50316" lon="6.37622">
        <ele>310</ele>
        <time>2021-11-24T16:13:23.000Z</time>
      </trkpt>
      <trkpt lat="43.50315" lon="6.37621">
        <ele>310</ele>
        <time>2021-11-24T16:13:24.000Z</time>
      </trkpt>
      <trkpt lat="43.50314" lon="6.37621">
        <ele>310</ele>
        <time>2021-11-24T16:13:25.000Z</time>
      </trkpt>
      <trkpt lat="43.50313" lon="6.3762">
        <ele>310</ele>
        <time>2021-11-24T16:13:26.000Z</time>
      </trkpt>
      <trkpt lat="43.50312" lon="6.37621">
        <ele>310</ele>
        <time>2021-11-24T16:13:27.000Z</time>
      </trkpt>
      <trkpt lat="43.50311" lon="6.37621">
        <ele>310</ele>
        <time>2021-11-24T16:13:28.000Z</time>
      </trkpt>
      <trkpt lat="43.5031" lon="6.3762">
        <ele>310</ele>
        <time>2021-11-24T16:13:29.000Z</time>
      </trkpt>
      <trkpt lat="43.5031" lon="6.3762">
        <ele>310</ele>
        <time>2021-11-24T16:13:30.000Z</time>
      </trkpt>
      <trkpt lat="43.50309" lon="6.37619">
        <ele>310</ele>
        <time>2021-11-24T16:13:31.000Z</time>
      </trkpt>
      <trkpt lat="43.50309" lon="6.37619">
        <ele>310</ele>
        <time>2021-11-24T16:13:32.000Z</time>
      </trkpt>
      <trkpt lat="43.50308" lon="6.37618">
        <ele>310</ele>
        <time>2021-11-24T16:13:33.000Z</time>
      </trkpt>
      <trkpt lat="43.50308" lon="6.37618">
        <ele>310</ele>
        <time>2021-11-24T16:13:34.000Z</time>
      </trkpt>
      <trkpt lat="43.50308" lon="6.37617">
        <ele>310</ele>
        <time>2021-11-24T16:13:35.000Z</time>
      </trkpt>
      <trkpt lat="43.50308" lon="6.37617">
        <ele>310</ele>
        <time>2021-11-24T16:13:36.000Z</time>
      </trkpt>
      <trkpt lat="43.50308" lon="6.37616">
        <ele>310</ele>
        <time>2021-11-24T16:13:37.000Z</time>
      </trkpt>
      <trkpt lat="43.50307" lon="6.37615">
        <ele>310</ele>
        <time>2021-11-24T16:13:38.000Z</time>
      </trkpt>
      <trkpt lat="43.50307" lon="6.37615">
        <ele>310</ele>
        <time>2021-11-24T16:13:39.000Z</time>
      </trkpt>
      <trkpt lat="43.50307" lon="6.37615">
        <ele>310</ele>
        <time>2021-11-24T16:13:40.000Z</time>
      </trkpt>
      <trkpt lat="43.50307" lon="6.37615">
        <ele>310</ele>
        <time>2021-11-24T16:13:41.000Z</time>
      </trkpt>
      <trkpt lat="43.50306" lon="6.37615">
        <ele>310</ele>
        <time>2021-11-24T16:13:42.000Z</time>
      </trkpt>
      <trkpt lat="43.50306" lon="6.37615">
        <ele>310</ele>
        <time>2021-11-24T16:13:43.000Z</time>
      </trkpt>
      <trkpt lat="43.50305" lon="6.37615">
        <ele>310</ele>
        <time>2021-11-24T16:13:44.000Z</time>
      </trkpt>
      <trkpt lat="43.50304" lon="6.37618">
        <ele>310</ele>
        <time>2021-11-24T16:13:45.000Z</time>
      </trkpt>
      <trkpt lat="43.50302" lon="6.37621">
        <ele>310</ele>
        <time>2021-11-24T16:13:46.000Z</time>
      </trkpt>
      <trkpt lat="43.50302" lon="6.37623">
        <ele>310</ele>
        <time>2021-11-24T16:13:47.000Z</time>
      </trkpt>
      <trkpt lat="43.50301" lon="6.37623">
        <ele>310</ele>
        <time>2021-11-24T16:13:48.000Z</time>
      </trkpt>
      <trkpt lat="43.50301" lon="6.37623">
        <ele>310</ele>
        <time>2021-11-24T16:13:49.000Z</time>
      </trkpt>
      <trkpt lat="43.503" lon="6.37623">
        <ele>309</ele>
        <time>2021-11-24T16:13:50.000Z</time>
      </trkpt>
      <trkpt lat="43.503" lon="6.37622">
        <ele>308</ele>
        <time>2021-11-24T16:13:51.000Z</time>
      </trkpt>
      <trkpt lat="43.50299" lon="6.37622">
        <ele>308</ele>
        <time>2021-11-24T16:13:52.000Z</time>
      </trkpt>
      <trkpt lat="43.50299" lon="6.37621">
        <ele>308</ele>
        <time>2021-11-24T16:13:53.000Z</time>
      </trkpt>
      <trkpt lat="43.50298" lon="6.3762">
        <ele>307</ele>
        <time>2021-11-24T16:13:54.000Z</time>
      </trkpt>
      <trkpt lat="43.50297" lon="6.37619">
        <ele>307</ele>
        <time>2021-11-24T16:13:55.000Z</time>
      </trkpt>
      <trkpt lat="43.50296" lon="6.37618">
        <ele>307</ele>
        <time>2021-11-24T16:13:56.000Z</time>
      </trkpt>
      <trkpt lat="43.50295" lon="6.37618">
        <ele>307</ele>
        <time>2021-11-24T16:13:57.000Z</time>
      </trkpt>
      <trkpt lat="43.50294" lon="6.37617">
        <ele>306</ele>
        <time>2021-11-24T16:13:58.000Z</time>
      </trkpt>
      <trkpt lat="43.50293" lon="6.37616">
        <ele>306</ele>
        <time>2021-11-24T16:13:59.000Z</time>
      </trkpt>
      <trkpt lat="43.50292" lon="6.37616">
        <ele>306</ele>
        <time>2021-11-24T16:14:00.000Z</time>
      </trkpt>
      <trkpt lat="43.50292" lon="6.37615">
        <ele>306</ele>
        <time>2021-11-24T16:14:01.000Z</time>
      </trkpt>
      <trkpt lat="43.50291" lon="6.37614">
        <ele>306</ele>
        <time>2021-11-24T16:14:02.000Z</time>
      </trkpt>
      <trkpt lat="43.5029" lon="6.37614">
        <ele>306</ele>
        <time>2021-11-24T16:14:03.000Z</time>
      </trkpt>
      <trkpt lat="43.5029" lon="6.37613">
        <ele>306</ele>
        <time>2021-11-24T16:14:04.000Z</time>
      </trkpt>
      <trkpt lat="43.50289" lon="6.37612">
        <ele>305</ele>
        <time>2021-11-24T16:14:05.000Z</time>
      </trkpt>
      <trkpt lat="43.50289" lon="6.37611">
        <ele>305</ele>
        <time>2021-11-24T16:14:06.000Z</time>
      </trkpt>
      <trkpt lat="43.50288" lon="6.3761">
        <ele>305</ele>
        <time>2021-11-24T16:14:07.000Z</time>
      </trkpt>
      <trkpt lat="43.50286" lon="6.37609">
        <ele>305</ele>
        <time>2021-11-24T16:14:08.000Z</time>
      </trkpt>
      <trkpt lat="43.50285" lon="6.37607">
        <ele>303</ele>
        <time>2021-11-24T16:14:09.000Z</time>
      </trkpt>
      <trkpt lat="43.50283" lon="6.37606">
        <ele>302</ele>
        <time>2021-11-24T16:14:10.000Z</time>
      </trkpt>
      <trkpt lat="43.50282" lon="6.37605">
        <ele>301</ele>
        <time>2021-11-24T16:14:11.000Z</time>
      </trkpt>
      <trkpt lat="43.50281" lon="6.37603">
        <ele>301</ele>
        <time>2021-11-24T16:14:12.000Z</time>
      </trkpt>
      <trkpt lat="43.5028" lon="6.37602">
        <ele>301</ele>
        <time>2021-11-24T16:14:13.000Z</time>
      </trkpt>
      <trkpt lat="43.50278" lon="6.376">
        <ele>301</ele>
        <time>2021-11-24T16:14:14.000Z</time>
      </trkpt>
      <trkpt lat="43.50277" lon="6.37598">
        <ele>301</ele>
        <time>2021-11-24T16:14:15.000Z</time>
      </trkpt>
      <trkpt lat="43.50275" lon="6.37597">
        <ele>300</ele>
        <time>2021-11-24T16:14:16.000Z</time>
      </trkpt>
      <trkpt lat="43.50274" lon="6.37596">
        <ele>300</ele>
        <time>2021-11-24T16:14:17.000Z</time>
      </trkpt>
      <trkpt lat="43.50273" lon="6.37595">
        <ele>300</ele>
        <time>2021-11-24T16:14:18.000Z</time>
      </trkpt>
      <trkpt lat="43.50272" lon="6.37594">
        <ele>300</ele>
        <time>2021-11-24T16:14:19.000Z</time>
      </trkpt>
      <trkpt lat="43.50271" lon="6.37592">
        <ele>300</ele>
        <time>2021-11-24T16:14:20.000Z</time>
      </trkpt>
      <trkpt lat="43.5027" lon="6.37591">
        <ele>299</ele>
        <time>2021-11-24T16:14:21.000Z</time>
      </trkpt>
      <trkpt lat="43.50269" lon="6.3759">
        <ele>299</ele>
        <time>2021-11-24T16:14:22.000Z</time>
      </trkpt>
      <trkpt lat="43.50268" lon="6.37589">
        <ele>298</ele>
        <time>2021-11-24T16:14:23.000Z</time>
      </trkpt>
      <trkpt lat="43.50266" lon="6.37587">
        <ele>298</ele>
        <time>2021-11-24T16:14:24.000Z</time>
      </trkpt>
      <trkpt lat="43.50266" lon="6.37586">
        <ele>298</ele>
        <time>2021-11-24T16:14:25.000Z</time>
      </trkpt>
      <trkpt lat="43.50265" lon="6.37585">
        <ele>298</ele>
        <time>2021-11-24T16:14:26.000Z</time>
      </trkpt>
      <trkpt lat="43.50264" lon="6.37584">
        <ele>298</ele>
        <time>2021-11-24T16:14:27.000Z</time>
      </trkpt>
      <trkpt lat="43.50264" lon="6.37583">
        <ele>298</ele>
        <time>2021-11-24T16:14:28.000Z</time>
      </trkpt>
      <trkpt lat="43.50263" lon="6.37582">
        <ele>298</ele>
        <time>2021-11-24T16:14:29.000Z</time>
      </trkpt>
      <trkpt lat="43.50262" lon="6.37581">
        <ele>298</ele>
        <time>2021-11-24T16:14:30.000Z</time>
      </trkpt>
      <trkpt lat="43.50262" lon="6.3758">
        <ele>298</ele>
        <time>2021-11-24T16:14:31.000Z</time>
      </trkpt>
      <trkpt lat="43.50261" lon="6.37579">
        <ele>298</ele>
        <time>2021-11-24T16:14:32.000Z</time>
      </trkpt>
      <trkpt lat="43.50261" lon="6.37578">
        <ele>298</ele>
        <time>2021-11-24T16:14:33.000Z</time>
      </trkpt>
      <trkpt lat="43.5026" lon="6.37577">
        <ele>298</ele>
        <time>2021-11-24T16:14:34.000Z</time>
      </trkpt>
      <trkpt lat="43.5026" lon="6.37576">
        <ele>298</ele>
        <time>2021-11-24T16:14:35.000Z</time>
      </trkpt>
      <trkpt lat="43.50259" lon="6.37576">
        <ele>298</ele>
        <time>2021-11-24T16:14:36.000Z</time>
      </trkpt>
      <trkpt lat="43.50259" lon="6.37575">
        <ele>298</ele>
        <time>2021-11-24T16:14:37.000Z</time>
      </trkpt>
      <trkpt lat="43.50258" lon="6.37574">
        <ele>298</ele>
        <time>2021-11-24T16:14:38.000Z</time>
      </trkpt>
      <trkpt lat="43.50258" lon="6.37573">
        <ele>298</ele>
        <time>2021-11-24T16:14:39.000Z</time>
      </trkpt>
      <trkpt lat="43.50257" lon="6.37573">
        <ele>298</ele>
        <time>2021-11-24T16:14:40.000Z</time>
      </trkpt>
      <trkpt lat="43.50256" lon="6.37571">
        <ele>298</ele>
        <time>2021-11-24T16:14:41.000Z</time>
      </trkpt>
      <trkpt lat="43.50255" lon="6.3757">
        <ele>297</ele>
        <time>2021-11-24T16:14:42.000Z</time>
      </trkpt>
      <trkpt lat="43.50255" lon="6.37569">
        <ele>297</ele>
        <time>2021-11-24T16:14:43.000Z</time>
      </trkpt>
      <trkpt lat="43.50254" lon="6.37568">
        <ele>297</ele>
        <time>2021-11-24T16:14:44.000Z</time>
      </trkpt>
      <trkpt lat="43.50253" lon="6.37567">
        <ele>297</ele>
        <time>2021-11-24T16:14:45.000Z</time>
      </trkpt>
      <trkpt lat="43.50253" lon="6.37566">
        <ele>296</ele>
        <time>2021-11-24T16:14:46.000Z</time>
      </trkpt>
      <trkpt lat="43.50252" lon="6.37565">
        <ele>296</ele>
        <time>2021-11-24T16:14:47.000Z</time>
      </trkpt>
      <trkpt lat="43.50251" lon="6.37564">
        <ele>296</ele>
        <time>2021-11-24T16:14:48.000Z</time>
      </trkpt>
      <trkpt lat="43.50251" lon="6.37564">
        <ele>296</ele>
        <time>2021-11-24T16:14:49.000Z</time>
      </trkpt>
      <trkpt lat="43.5025" lon="6.37563">
        <ele>295</ele>
        <time>2021-11-24T16:14:50.000Z</time>
      </trkpt>
      <trkpt lat="43.5025" lon="6.37562">
        <ele>295</ele>
        <time>2021-11-24T16:14:51.000Z</time>
      </trkpt>
      <trkpt lat="43.50249" lon="6.37561">
        <ele>295</ele>
        <time>2021-11-24T16:14:52.000Z</time>
      </trkpt>
      <trkpt lat="43.50248" lon="6.3756">
        <ele>295</ele>
        <time>2021-11-24T16:14:53.000Z</time>
      </trkpt>
      <trkpt lat="43.50248" lon="6.37558">
        <ele>295</ele>
        <time>2021-11-24T16:14:54.000Z</time>
      </trkpt>
      <trkpt lat="43.50247" lon="6.37557">
        <ele>294</ele>
        <time>2021-11-24T16:14:55.000Z</time>
      </trkpt>
      <trkpt lat="43.50247" lon="6.37556">
        <ele>294</ele>
        <time>2021-11-24T16:14:56.000Z</time>
      </trkpt>
      <trkpt lat="43.50246" lon="6.37556">
        <ele>294</ele>
        <time>2021-11-24T16:14:57.000Z</time>
      </trkpt>
      <trkpt lat="43.50246" lon="6.37555">
        <ele>294</ele>
        <time>2021-11-24T16:14:58.000Z</time>
      </trkpt>
      <trkpt lat="43.50245" lon="6.37554">
        <ele>293</ele>
        <time>2021-11-24T16:14:59.000Z</time>
      </trkpt>
      <trkpt lat="43.50244" lon="6.37553">
        <ele>293</ele>
        <time>2021-11-24T16:15:00.000Z</time>
      </trkpt>
      <trkpt lat="43.50244" lon="6.37552">
        <ele>292</ele>
        <time>2021-11-24T16:15:01.000Z</time>
      </trkpt>
      <trkpt lat="43.50243" lon="6.3755">
        <ele>292</ele>
        <time>2021-11-24T16:15:02.000Z</time>
      </trkpt>
      <trkpt lat="43.50243" lon="6.37549">
        <ele>292</ele>
        <time>2021-11-24T16:15:03.000Z</time>
      </trkpt>
      <trkpt lat="43.50242" lon="6.37548">
        <ele>292</ele>
        <time>2021-11-24T16:15:04.000Z</time>
      </trkpt>
      <trkpt lat="43.50241" lon="6.37547">
        <ele>292</ele>
        <time>2021-11-24T16:15:05.000Z</time>
      </trkpt>
      <trkpt lat="43.5024" lon="6.37546">
        <ele>292</ele>
        <time>2021-11-24T16:15:06.000Z</time>
      </trkpt>
      <trkpt lat="43.50239" lon="6.37546">
        <ele>291</ele>
        <time>2021-11-24T16:15:07.000Z</time>
      </trkpt>
      <trkpt lat="43.50239" lon="6.37545">
        <ele>291</ele>
        <time>2021-11-24T16:15:08.000Z</time>
      </trkpt>
      <trkpt lat="43.50238" lon="6.37545">
        <ele>291</ele>
        <time>2021-11-24T16:15:09.000Z</time>
      </trkpt>
      <trkpt lat="43.50238" lon="6.37544">
        <ele>291</ele>
        <time>2021-11-24T16:15:10.000Z</time>
      </trkpt>
      <trkpt lat="43.50237" lon="6.37544">
        <ele>291</ele>
        <time>2021-11-24T16:15:11.000Z</time>
      </trkpt>
      <trkpt lat="43.50236" lon="6.37543">
        <ele>291</ele>
        <time>2021-11-24T16:15:12.000Z</time>
      </trkpt>
      <trkpt lat="43.50235" lon="6.37542">
        <ele>290</ele>
        <time>2021-11-24T16:15:13.000Z</time>
      </trkpt>
      <trkpt lat="43.50235" lon="6.37541">
        <ele>290</ele>
        <time>2021-11-24T16:15:14.000Z</time>
      </trkpt>
      <trkpt lat="43.50234" lon="6.3754">
        <ele>290</ele>
        <time>2021-11-24T16:15:15.000Z</time>
      </trkpt>
      <trkpt lat="43.50233" lon="6.37539">
        <ele>290</ele>
        <time>2021-11-24T16:15:16.000Z</time>
      </trkpt>
      <trkpt lat="43.50232" lon="6.37538">
        <ele>290</ele>
        <time>2021-11-24T16:15:17.000Z</time>
      </trkpt>
      <trkpt lat="43.50231" lon="6.37537">
        <ele>289</ele>
        <time>2021-11-24T16:15:18.000Z</time>
      </trkpt>
      <trkpt lat="43.50231" lon="6.37536">
        <ele>289</ele>
        <time>2021-11-24T16:15:19.000Z</time>
      </trkpt>
      <trkpt lat="43.5023" lon="6.37536">
        <ele>289</ele>
        <time>2021-11-24T16:15:20.000Z</time>
      </trkpt>
      <trkpt lat="43.50229" lon="6.37535">
        <ele>289</ele>
        <time>2021-11-24T16:15:21.000Z</time>
      </trkpt>
      <trkpt lat="43.50228" lon="6.37534">
        <ele>289</ele>
        <time>2021-11-24T16:15:22.000Z</time>
      </trkpt>
      <trkpt lat="43.50228" lon="6.37533">
        <ele>286</ele>
        <time>2021-11-24T16:15:23.000Z</time>
      </trkpt>
      <trkpt lat="43.50227" lon="6.37532">
        <ele>286</ele>
        <time>2021-11-24T16:15:24.000Z</time>
      </trkpt>
      <trkpt lat="43.50226" lon="6.37531">
        <ele>285</ele>
        <time>2021-11-24T16:15:25.000Z</time>
      </trkpt>
      <trkpt lat="43.50225" lon="6.3753">
        <ele>285</ele>
        <time>2021-11-24T16:15:26.000Z</time>
      </trkpt>
      <trkpt lat="43.50225" lon="6.3753">
        <ele>285</ele>
        <time>2021-11-24T16:15:27.000Z</time>
      </trkpt>
      <trkpt lat="43.50224" lon="6.37529">
        <ele>285</ele>
        <time>2021-11-24T16:15:28.000Z</time>
      </trkpt>
      <trkpt lat="43.50223" lon="6.37528">
        <ele>285</ele>
        <time>2021-11-24T16:15:29.000Z</time>
      </trkpt>
      <trkpt lat="43.50222" lon="6.37528">
        <ele>285</ele>
        <time>2021-11-24T16:15:30.000Z</time>
      </trkpt>
      <trkpt lat="43.50221" lon="6.37527">
        <ele>285</ele>
        <time>2021-11-24T16:15:31.000Z</time>
      </trkpt>
      <trkpt lat="43.5022" lon="6.37526">
        <ele>285</ele>
        <time>2021-11-24T16:15:32.000Z</time>
      </trkpt>
      <trkpt lat="43.50219" lon="6.37525">
        <ele>285</ele>
        <time>2021-11-24T16:15:33.000Z</time>
      </trkpt>
      <trkpt lat="43.50218" lon="6.37524">
        <ele>285</ele>
        <time>2021-11-24T16:15:34.000Z</time>
      </trkpt>
      <trkpt lat="43.50217" lon="6.37523">
        <ele>285</ele>
        <time>2021-11-24T16:15:35.000Z</time>
      </trkpt>
      <trkpt lat="43.50216" lon="6.37522">
        <ele>285</ele>
        <time>2021-11-24T16:15:36.000Z</time>
      </trkpt>
      <trkpt lat="43.50215" lon="6.37521">
        <ele>285</ele>
        <time>2021-11-24T16:15:37.000Z</time>
      </trkpt>
      <trkpt lat="43.50215" lon="6.3752">
        <ele>285</ele>
        <time>2021-11-24T16:15:38.000Z</time>
      </trkpt>
      <trkpt lat="43.50214" lon="6.37519">
        <ele>284</ele>
        <time>2021-11-24T16:15:39.000Z</time>
      </trkpt>
      <trkpt lat="43.50213" lon="6.37518">
        <ele>284</ele>
        <time>2021-11-24T16:15:40.000Z</time>
      </trkpt>
      <trkpt lat="43.50212" lon="6.37517">
        <ele>283</ele>
        <time>2021-11-24T16:15:41.000Z</time>
      </trkpt>
      <trkpt lat="43.50212" lon="6.37516">
        <ele>283</ele>
        <time>2021-11-24T16:15:42.000Z</time>
      </trkpt>
      <trkpt lat="43.50211" lon="6.37515">
        <ele>283</ele>
        <time>2021-11-24T16:15:43.000Z</time>
      </trkpt>
      <trkpt lat="43.5021" lon="6.37514">
        <ele>282</ele>
        <time>2021-11-24T16:15:44.000Z</time>
      </trkpt>
      <trkpt lat="43.50209" lon="6.37513">
        <ele>282</ele>
        <time>2021-11-24T16:15:45.000Z</time>
      </trkpt>
      <trkpt lat="43.50208" lon="6.37512">
        <ele>282</ele>
        <time>2021-11-24T16:15:46.000Z</time>
      </trkpt>
      <trkpt lat="43.50207" lon="6.37511">
        <ele>282</ele>
        <time>2021-11-24T16:15:47.000Z</time>
      </trkpt>
      <trkpt lat="43.50206" lon="6.3751">
        <ele>281</ele>
        <time>2021-11-24T16:15:48.000Z</time>
      </trkpt>
      <trkpt lat="43.50205" lon="6.3751">
        <ele>281</ele>
        <time>2021-11-24T16:15:49.000Z</time>
      </trkpt>
      <trkpt lat="43.50204" lon="6.37509">
        <ele>281</ele>
        <time>2021-11-24T16:15:50.000Z</time>
      </trkpt>
      <trkpt lat="43.50203" lon="6.37508">
        <ele>281</ele>
        <time>2021-11-24T16:15:51.000Z</time>
      </trkpt>
      <trkpt lat="43.50202" lon="6.37507">
        <ele>281</ele>
        <time>2021-11-24T16:15:52.000Z</time>
      </trkpt>
      <trkpt lat="43.50201" lon="6.37507">
        <ele>281</ele>
        <time>2021-11-24T16:15:53.000Z</time>
      </trkpt>
      <trkpt lat="43.502" lon="6.37507">
        <ele>281</ele>
        <time>2021-11-24T16:15:54.000Z</time>
      </trkpt>
      <trkpt lat="43.50199" lon="6.37507">
        <ele>281</ele>
        <time>2021-11-24T16:15:55.000Z</time>
      </trkpt>
      <trkpt lat="43.50197" lon="6.37506">
        <ele>281</ele>
        <time>2021-11-24T16:15:56.000Z</time>
      </trkpt>
      <trkpt lat="43.50196" lon="6.37506">
        <ele>281</ele>
        <time>2021-11-24T16:15:57.000Z</time>
      </trkpt>
      <trkpt lat="43.50194" lon="6.37505">
        <ele>282</ele>
        <time>2021-11-24T16:15:58.000Z</time>
      </trkpt>
      <trkpt lat="43.50193" lon="6.37505">
        <ele>282</ele>
        <time>2021-11-24T16:15:59.000Z</time>
      </trkpt>
      <trkpt lat="43.50192" lon="6.37504">
        <ele>282</ele>
        <time>2021-11-24T16:16:00.000Z</time>
      </trkpt>
      <trkpt lat="43.50191" lon="6.37503">
        <ele>282</ele>
        <time>2021-11-24T16:16:01.000Z</time>
      </trkpt>
      <trkpt lat="43.5019" lon="6.37502">
        <ele>282</ele>
        <time>2021-11-24T16:16:02.000Z</time>
      </trkpt>
      <trkpt lat="43.50189" lon="6.37501">
        <ele>282</ele>
        <time>2021-11-24T16:16:03.000Z</time>
      </trkpt>
      <trkpt lat="43.50188" lon="6.375">
        <ele>282</ele>
        <time>2021-11-24T16:16:04.000Z</time>
      </trkpt>
      <trkpt lat="43.50187" lon="6.375">
        <ele>282</ele>
        <time>2021-11-24T16:16:05.000Z</time>
      </trkpt>
      <trkpt lat="43.50186" lon="6.37499">
        <ele>282</ele>
        <time>2021-11-24T16:16:06.000Z</time>
      </trkpt>
      <trkpt lat="43.50185" lon="6.37499">
        <ele>282</ele>
        <time>2021-11-24T16:16:07.000Z</time>
      </trkpt>
      <trkpt lat="43.50184" lon="6.37499">
        <ele>282</ele>
        <time>2021-11-24T16:16:08.000Z</time>
      </trkpt>
      <trkpt lat="43.50183" lon="6.37498">
        <ele>282</ele>
        <time>2021-11-24T16:16:09.000Z</time>
      </trkpt>
      <trkpt lat="43.50182" lon="6.37498">
        <ele>282</ele>
        <time>2021-11-24T16:16:10.000Z</time>
      </trkpt>
      <trkpt lat="43.50181" lon="6.37497">
        <ele>282</ele>
        <time>2021-11-24T16:16:11.000Z</time>
      </trkpt>
      <trkpt lat="43.5018" lon="6.37496">
        <ele>281</ele>
        <time>2021-11-24T16:16:12.000Z</time>
      </trkpt>
      <trkpt lat="43.50179" lon="6.37496">
        <ele>281</ele>
        <time>2021-11-24T16:16:13.000Z</time>
      </trkpt>
      <trkpt lat="43.50177" lon="6.37495">
        <ele>281</ele>
        <time>2021-11-24T16:16:14.000Z</time>
      </trkpt>
      <trkpt lat="43.50176" lon="6.37495">
        <ele>281</ele>
        <time>2021-11-24T16:16:15.000Z</time>
      </trkpt>
      <trkpt lat="43.50175" lon="6.37494">
        <ele>281</ele>
        <time>2021-11-24T16:16:16.000Z</time>
      </trkpt>
      <trkpt lat="43.50174" lon="6.37493">
        <ele>281</ele>
        <time>2021-11-24T16:16:17.000Z</time>
      </trkpt>
      <trkpt lat="43.50172" lon="6.37492">
        <ele>281</ele>
        <time>2021-11-24T16:16:18.000Z</time>
      </trkpt>
      <trkpt lat="43.50171" lon="6.37492">
        <ele>281</ele>
        <time>2021-11-24T16:16:19.000Z</time>
      </trkpt>
      <trkpt lat="43.5017" lon="6.37491">
        <ele>281</ele>
        <time>2021-11-24T16:16:20.000Z</time>
      </trkpt>
      <trkpt lat="43.50169" lon="6.3749">
        <ele>280</ele>
        <time>2021-11-24T16:16:21.000Z</time>
      </trkpt>
      <trkpt lat="43.50168" lon="6.37489">
        <ele>280</ele>
        <time>2021-11-24T16:16:22.000Z</time>
      </trkpt>
      <trkpt lat="43.50167" lon="6.37488">
        <ele>280</ele>
        <time>2021-11-24T16:16:23.000Z</time>
      </trkpt>
      <trkpt lat="43.50166" lon="6.37487">
        <ele>280</ele>
        <time>2021-11-24T16:16:24.000Z</time>
      </trkpt>
      <trkpt lat="43.50165" lon="6.37486">
        <ele>280</ele>
        <time>2021-11-24T16:16:25.000Z</time>
      </trkpt>
      <trkpt lat="43.50164" lon="6.37485">
        <ele>280</ele>
        <time>2021-11-24T16:16:26.000Z</time>
      </trkpt>
      <trkpt lat="43.50163" lon="6.37484">
        <ele>280</ele>
        <time>2021-11-24T16:16:27.000Z</time>
      </trkpt>
      <trkpt lat="43.50162" lon="6.37483">
        <ele>280</ele>
        <time>2021-11-24T16:16:28.000Z</time>
      </trkpt>
      <trkpt lat="43.50161" lon="6.37482">
        <ele>280</ele>
        <time>2021-11-24T16:16:29.000Z</time>
      </trkpt>
      <trkpt lat="43.5016" lon="6.37482">
        <ele>280</ele>
        <time>2021-11-24T16:16:30.000Z</time>
      </trkpt>
      <trkpt lat="43.50159" lon="6.37481">
        <ele>280</ele>
        <time>2021-11-24T16:16:31.000Z</time>
      </trkpt>
      <trkpt lat="43.50158" lon="6.3748">
        <ele>280</ele>
        <time>2021-11-24T16:16:32.000Z</time>
      </trkpt>
      <trkpt lat="43.50157" lon="6.37479">
        <ele>280</ele>
        <time>2021-11-24T16:16:33.000Z</time>
      </trkpt>
      <trkpt lat="43.50156" lon="6.37478">
        <ele>281</ele>
        <time>2021-11-24T16:16:34.000Z</time>
      </trkpt>
      <trkpt lat="43.50155" lon="6.37477">
        <ele>281</ele>
        <time>2021-11-24T16:16:35.000Z</time>
      </trkpt>
      <trkpt lat="43.50154" lon="6.37477">
        <ele>282</ele>
        <time>2021-11-24T16:16:36.000Z</time>
      </trkpt>
      <trkpt lat="43.50153" lon="6.37476">
        <ele>283</ele>
        <time>2021-11-24T16:16:37.000Z</time>
      </trkpt>
      <trkpt lat="43.50153" lon="6.37474">
        <ele>283</ele>
        <time>2021-11-24T16:16:38.000Z</time>
      </trkpt>
      <trkpt lat="43.50152" lon="6.37473">
        <ele>283</ele>
        <time>2021-11-24T16:16:39.000Z</time>
      </trkpt>
      <trkpt lat="43.50152" lon="6.37472">
        <ele>283</ele>
        <time>2021-11-24T16:16:40.000Z</time>
      </trkpt>
      <trkpt lat="43.50151" lon="6.37471">
        <ele>283</ele>
        <time>2021-11-24T16:16:41.000Z</time>
      </trkpt>
      <trkpt lat="43.50151" lon="6.3747">
        <ele>283</ele>
        <time>2021-11-24T16:16:42.000Z</time>
      </trkpt>
      <trkpt lat="43.5015" lon="6.37469">
        <ele>283</ele>
        <time>2021-11-24T16:16:43.000Z</time>
      </trkpt>
      <trkpt lat="43.5015" lon="6.37468">
        <ele>283</ele>
        <time>2021-11-24T16:16:44.000Z</time>
      </trkpt>
      <trkpt lat="43.50149" lon="6.37467">
        <ele>283</ele>
        <time>2021-11-24T16:16:45.000Z</time>
      </trkpt>
      <trkpt lat="43.50148" lon="6.37466">
        <ele>283</ele>
        <time>2021-11-24T16:16:46.000Z</time>
      </trkpt>
      <trkpt lat="43.50148" lon="6.37466">
        <ele>283</ele>
        <time>2021-11-24T16:16:47.000Z</time>
      </trkpt>
      <trkpt lat="43.50147" lon="6.37465">
        <ele>283</ele>
        <time>2021-11-24T16:16:48.000Z</time>
      </trkpt>
      <trkpt lat="43.50146" lon="6.37464">
        <ele>283</ele>
        <time>2021-11-24T16:16:49.000Z</time>
      </trkpt>
      <trkpt lat="43.50146" lon="6.37463">
        <ele>283</ele>
        <time>2021-11-24T16:16:50.000Z</time>
      </trkpt>
      <trkpt lat="43.50145" lon="6.37462">
        <ele>284</ele>
        <time>2021-11-24T16:16:51.000Z</time>
      </trkpt>
      <trkpt lat="43.50145" lon="6.37461">
        <ele>284</ele>
        <time>2021-11-24T16:16:52.000Z</time>
      </trkpt>
      <trkpt lat="43.50145" lon="6.37459">
        <ele>284</ele>
        <time>2021-11-24T16:16:53.000Z</time>
      </trkpt>
      <trkpt lat="43.50144" lon="6.37458">
        <ele>284</ele>
        <time>2021-11-24T16:16:54.000Z</time>
      </trkpt>
      <trkpt lat="43.50144" lon="6.37456">
        <ele>285</ele>
        <time>2021-11-24T16:16:55.000Z</time>
      </trkpt>
      <trkpt lat="43.50143" lon="6.37455">
        <ele>285</ele>
        <time>2021-11-24T16:16:56.000Z</time>
      </trkpt>
      <trkpt lat="43.50143" lon="6.37454">
        <ele>285</ele>
        <time>2021-11-24T16:16:57.000Z</time>
      </trkpt>
      <trkpt lat="43.50142" lon="6.37453">
        <ele>285</ele>
        <time>2021-11-24T16:16:58.000Z</time>
      </trkpt>
      <trkpt lat="43.50142" lon="6.37452">
        <ele>285</ele>
        <time>2021-11-24T16:16:59.000Z</time>
      </trkpt>
      <trkpt lat="43.50142" lon="6.3745">
        <ele>285</ele>
        <time>2021-11-24T16:17:00.000Z</time>
      </trkpt>
      <trkpt lat="43.50142" lon="6.37449">
        <ele>285</ele>
        <time>2021-11-24T16:17:01.000Z</time>
      </trkpt>
      <trkpt lat="43.50142" lon="6.37447">
        <ele>285</ele>
        <time>2021-11-24T16:17:02.000Z</time>
      </trkpt>
      <trkpt lat="43.50142" lon="6.37446">
        <ele>285</ele>
        <time>2021-11-24T16:17:03.000Z</time>
      </trkpt>
      <trkpt lat="43.50142" lon="6.37445">
        <ele>285</ele>
        <time>2021-11-24T16:17:04.000Z</time>
      </trkpt>
      <trkpt lat="43.50142" lon="6.37444">
        <ele>285</ele>
        <time>2021-11-24T16:17:05.000Z</time>
      </trkpt>
      <trkpt lat="43.50142" lon="6.37443">
        <ele>285</ele>
        <time>2021-11-24T16:17:06.000Z</time>
      </trkpt>
      <trkpt lat="43.50142" lon="6.37441">
        <ele>286</ele>
        <time>2021-11-24T16:17:07.000Z</time>
      </trkpt>
      <trkpt lat="43.50142" lon="6.3744">
        <ele>286</ele>
        <time>2021-11-24T16:17:08.000Z</time>
      </trkpt>
      <trkpt lat="43.50142" lon="6.37439">
        <ele>286</ele>
        <time>2021-11-24T16:17:09.000Z</time>
      </trkpt>
      <trkpt lat="43.50142" lon="6.37437">
        <ele>286</ele>
        <time>2021-11-24T16:17:10.000Z</time>
      </trkpt>
      <trkpt lat="43.50142" lon="6.37436">
        <ele>286</ele>
        <time>2021-11-24T16:17:11.000Z</time>
      </trkpt>
      <trkpt lat="43.50142" lon="6.37434">
        <ele>286</ele>
        <time>2021-11-24T16:17:12.000Z</time>
      </trkpt>
      <trkpt lat="43.50142" lon="6.37433">
        <ele>286</ele>
        <time>2021-11-24T16:17:13.000Z</time>
      </trkpt>
      <trkpt lat="43.50142" lon="6.37432">
        <ele>286</ele>
        <time>2021-11-24T16:17:14.000Z</time>
      </trkpt>
      <trkpt lat="43.50141" lon="6.37431">
        <ele>286</ele>
        <time>2021-11-24T16:17:15.000Z</time>
      </trkpt>
      <trkpt lat="43.50141" lon="6.3743">
        <ele>286</ele>
        <time>2021-11-24T16:17:16.000Z</time>
      </trkpt>
      <trkpt lat="43.50141" lon="6.37428">
        <ele>287</ele>
        <time>2021-11-24T16:17:17.000Z</time>
      </trkpt>
      <trkpt lat="43.5014" lon="6.37427">
        <ele>287</ele>
        <time>2021-11-24T16:17:18.000Z</time>
      </trkpt>
      <trkpt lat="43.50139" lon="6.37425">
        <ele>288</ele>
        <time>2021-11-24T16:17:19.000Z</time>
      </trkpt>
      <trkpt lat="43.50137" lon="6.37425">
        <ele>288</ele>
        <time>2021-11-24T16:17:20.000Z</time>
      </trkpt>
      <trkpt lat="43.50134" lon="6.37426">
        <ele>288</ele>
        <time>2021-11-24T16:17:21.000Z</time>
      </trkpt>
      <trkpt lat="43.50133" lon="6.37425">
        <ele>288</ele>
        <time>2021-11-24T16:17:22.000Z</time>
      </trkpt>
      <trkpt lat="43.50133" lon="6.37424">
        <ele>288</ele>
        <time>2021-11-24T16:17:23.000Z</time>
      </trkpt>
      <trkpt lat="43.50132" lon="6.37422">
        <ele>288</ele>
        <time>2021-11-24T16:17:24.000Z</time>
      </trkpt>
      <trkpt lat="43.50132" lon="6.3742">
        <ele>288</ele>
        <time>2021-11-24T16:17:25.000Z</time>
      </trkpt>
      <trkpt lat="43.50132" lon="6.37418">
        <ele>289</ele>
        <time>2021-11-24T16:17:26.000Z</time>
      </trkpt>
      <trkpt lat="43.50131" lon="6.37417">
        <ele>289</ele>
        <time>2021-11-24T16:17:27.000Z</time>
      </trkpt>
      <trkpt lat="43.50131" lon="6.37415">
        <ele>289</ele>
        <time>2021-11-24T16:17:28.000Z</time>
      </trkpt>
      <trkpt lat="43.50131" lon="6.37414">
        <ele>289</ele>
        <time>2021-11-24T16:17:29.000Z</time>
      </trkpt>
      <trkpt lat="43.50131" lon="6.37413">
        <ele>289</ele>
        <time>2021-11-24T16:17:30.000Z</time>
      </trkpt>
      <trkpt lat="43.5013" lon="6.37412">
        <ele>289</ele>
        <time>2021-11-24T16:17:31.000Z</time>
      </trkpt>
      <trkpt lat="43.5013" lon="6.37411">
        <ele>289</ele>
        <time>2021-11-24T16:17:32.000Z</time>
      </trkpt>
      <trkpt lat="43.5013" lon="6.3741">
        <ele>289</ele>
        <time>2021-11-24T16:17:33.000Z</time>
      </trkpt>
      <trkpt lat="43.5013" lon="6.37409">
        <ele>289</ele>
        <time>2021-11-24T16:17:34.000Z</time>
      </trkpt>
      <trkpt lat="43.5013" lon="6.37408">
        <ele>289</ele>
        <time>2021-11-24T16:17:35.000Z</time>
      </trkpt>
      <trkpt lat="43.5013" lon="6.37407">
        <ele>289</ele>
        <time>2021-11-24T16:17:36.000Z</time>
      </trkpt>
      <trkpt lat="43.5013" lon="6.37405">
        <ele>289</ele>
        <time>2021-11-24T16:17:37.000Z</time>
      </trkpt>
      <trkpt lat="43.50131" lon="6.37404">
        <ele>289</ele>
        <time>2021-11-24T16:17:38.000Z</time>
      </trkpt>
      <trkpt lat="43.50131" lon="6.37402">
        <ele>290</ele>
        <time>2021-11-24T16:17:39.000Z</time>
      </trkpt>
      <trkpt lat="43.50131" lon="6.37401">
        <ele>290</ele>
        <time>2021-11-24T16:17:40.000Z</time>
      </trkpt>
      <trkpt lat="43.50131" lon="6.37401">
        <ele>290</ele>
        <time>2021-11-24T16:17:41.000Z</time>
      </trkpt>
      <trkpt lat="43.50131" lon="6.374">
        <ele>290</ele>
        <time>2021-11-24T16:17:42.000Z</time>
      </trkpt>
      <trkpt lat="43.50131" lon="6.374">
        <ele>290</ele>
        <time>2021-11-24T16:17:43.000Z</time>
      </trkpt>
      <trkpt lat="43.50131" lon="6.37399">
        <ele>290</ele>
        <time>2021-11-24T16:17:44.000Z</time>
      </trkpt>
      <trkpt lat="43.50131" lon="6.37398">
        <ele>290</ele>
        <time>2021-11-24T16:17:45.000Z</time>
      </trkpt>
      <trkpt lat="43.50132" lon="6.37397">
        <ele>293</ele>
        <time>2021-11-24T16:17:46.000Z</time>
      </trkpt>
      <trkpt lat="43.50132" lon="6.37395">
        <ele>293</ele>
        <time>2021-11-24T16:17:47.000Z</time>
      </trkpt>
      <trkpt lat="43.50132" lon="6.37393">
        <ele>294</ele>
        <time>2021-11-24T16:17:48.000Z</time>
      </trkpt>
      <trkpt lat="43.50133" lon="6.37391">
        <ele>294</ele>
        <time>2021-11-24T16:17:49.000Z</time>
      </trkpt>
      <trkpt lat="43.50133" lon="6.3739">
        <ele>294</ele>
        <time>2021-11-24T16:17:50.000Z</time>
      </trkpt>
      <trkpt lat="43.50133" lon="6.37388">
        <ele>295</ele>
        <time>2021-11-24T16:17:51.000Z</time>
      </trkpt>
      <trkpt lat="43.50134" lon="6.37387">
        <ele>295</ele>
        <time>2021-11-24T16:17:52.000Z</time>
      </trkpt>
      <trkpt lat="43.50134" lon="6.37385">
        <ele>295</ele>
        <time>2021-11-24T16:17:53.000Z</time>
      </trkpt>
      <trkpt lat="43.50134" lon="6.37383">
        <ele>295</ele>
        <time>2021-11-24T16:17:54.000Z</time>
      </trkpt>
      <trkpt lat="43.50135" lon="6.37379">
        <ele>295</ele>
        <time>2021-11-24T16:17:55.000Z</time>
      </trkpt>
      <trkpt lat="43.50136" lon="6.37375">
        <ele>296</ele>
        <time>2021-11-24T16:17:56.000Z</time>
      </trkpt>
      <trkpt lat="43.50137" lon="6.37371">
        <ele>296</ele>
        <time>2021-11-24T16:17:57.000Z</time>
      </trkpt>
      <trkpt lat="43.50138" lon="6.37368">
        <ele>296</ele>
        <time>2021-11-24T16:17:58.000Z</time>
      </trkpt>
      <trkpt lat="43.50138" lon="6.37365">
        <ele>296</ele>
        <time>2021-11-24T16:17:59.000Z</time>
      </trkpt>
      <trkpt lat="43.50139" lon="6.37363">
        <ele>296</ele>
        <time>2021-11-24T16:18:00.000Z</time>
      </trkpt>
      <trkpt lat="43.50139" lon="6.3736">
        <ele>296</ele>
        <time>2021-11-24T16:18:01.000Z</time>
      </trkpt>
      <trkpt lat="43.5014" lon="6.37358">
        <ele>295</ele>
        <time>2021-11-24T16:18:02.000Z</time>
      </trkpt>
      <trkpt lat="43.5014" lon="6.37356">
        <ele>295</ele>
        <time>2021-11-24T16:18:03.000Z</time>
      </trkpt>
      <trkpt lat="43.50141" lon="6.37355">
        <ele>295</ele>
        <time>2021-11-24T16:18:04.000Z</time>
      </trkpt>
      <trkpt lat="43.50141" lon="6.37353">
        <ele>295</ele>
        <time>2021-11-24T16:18:05.000Z</time>
      </trkpt>
      <trkpt lat="43.50142" lon="6.37351">
        <ele>295</ele>
        <time>2021-11-24T16:18:06.000Z</time>
      </trkpt>
      <trkpt lat="43.50142" lon="6.37349">
        <ele>295</ele>
        <time>2021-11-24T16:18:07.000Z</time>
      </trkpt>
      <trkpt lat="43.50142" lon="6.37347">
        <ele>294</ele>
        <time>2021-11-24T16:18:08.000Z</time>
      </trkpt>
      <trkpt lat="43.50142" lon="6.37346">
        <ele>294</ele>
        <time>2021-11-24T16:18:09.000Z</time>
      </trkpt>
      <trkpt lat="43.50141" lon="6.37344">
        <ele>294</ele>
        <time>2021-11-24T16:18:10.000Z</time>
      </trkpt>
      <trkpt lat="43.50141" lon="6.37342">
        <ele>293</ele>
        <time>2021-11-24T16:18:11.000Z</time>
      </trkpt>
      <trkpt lat="43.50141" lon="6.3734">
        <ele>293</ele>
        <time>2021-11-24T16:18:12.000Z</time>
      </trkpt>
      <trkpt lat="43.50141" lon="6.37339">
        <ele>292</ele>
        <time>2021-11-24T16:18:13.000Z</time>
      </trkpt>
      <trkpt lat="43.5014" lon="6.37337">
        <ele>292</ele>
        <time>2021-11-24T16:18:14.000Z</time>
      </trkpt>
      <trkpt lat="43.5014" lon="6.37336">
        <ele>292</ele>
        <time>2021-11-24T16:18:15.000Z</time>
      </trkpt>
      <trkpt lat="43.50138" lon="6.37334">
        <ele>293</ele>
        <time>2021-11-24T16:18:16.000Z</time>
      </trkpt>
      <trkpt lat="43.50137" lon="6.37333">
        <ele>292</ele>
        <time>2021-11-24T16:18:17.000Z</time>
      </trkpt>
      <trkpt lat="43.50136" lon="6.37332">
        <ele>292</ele>
        <time>2021-11-24T16:18:18.000Z</time>
      </trkpt>
      <trkpt lat="43.50135" lon="6.3733">
        <ele>292</ele>
        <time>2021-11-24T16:18:19.000Z</time>
      </trkpt>
      <trkpt lat="43.50134" lon="6.37328">
        <ele>292</ele>
        <time>2021-11-24T16:18:20.000Z</time>
      </trkpt>
      <trkpt lat="43.50133" lon="6.37327">
        <ele>292</ele>
        <time>2021-11-24T16:18:21.000Z</time>
      </trkpt>
      <trkpt lat="43.50132" lon="6.37326">
        <ele>292</ele>
        <time>2021-11-24T16:18:22.000Z</time>
      </trkpt>
      <trkpt lat="43.50131" lon="6.37325">
        <ele>292</ele>
        <time>2021-11-24T16:18:23.000Z</time>
      </trkpt>
      <trkpt lat="43.5013" lon="6.37324">
        <ele>292</ele>
        <time>2021-11-24T16:18:24.000Z</time>
      </trkpt>
      <trkpt lat="43.50129" lon="6.37323">
        <ele>292</ele>
        <time>2021-11-24T16:18:25.000Z</time>
      </trkpt>
      <trkpt lat="43.50128" lon="6.37322">
        <ele>291</ele>
        <time>2021-11-24T16:18:26.000Z</time>
      </trkpt>
      <trkpt lat="43.50127" lon="6.37322">
        <ele>291</ele>
        <time>2021-11-24T16:18:27.000Z</time>
      </trkpt>
      <trkpt lat="43.50126" lon="6.37321">
        <ele>290</ele>
        <time>2021-11-24T16:18:28.000Z</time>
      </trkpt>
      <trkpt lat="43.50126" lon="6.37321">
        <ele>290</ele>
        <time>2021-11-24T16:18:29.000Z</time>
      </trkpt>
      <trkpt lat="43.50125" lon="6.3732">
        <ele>289</ele>
        <time>2021-11-24T16:18:30.000Z</time>
      </trkpt>
      <trkpt lat="43.50125" lon="6.37319">
        <ele>289</ele>
        <time>2021-11-24T16:18:31.000Z</time>
      </trkpt>
      <trkpt lat="43.50124" lon="6.37318">
        <ele>289</ele>
        <time>2021-11-24T16:18:32.000Z</time>
      </trkpt>
      <trkpt lat="43.50123" lon="6.37319">
        <ele>289</ele>
        <time>2021-11-24T16:18:33.000Z</time>
      </trkpt>
      <trkpt lat="43.50121" lon="6.37319">
        <ele>289</ele>
        <time>2021-11-24T16:18:34.000Z</time>
      </trkpt>
      <trkpt lat="43.5012" lon="6.37319">
        <ele>289</ele>
        <time>2021-11-24T16:18:35.000Z</time>
      </trkpt>
      <trkpt lat="43.50119" lon="6.37319">
        <ele>289</ele>
        <time>2021-11-24T16:18:36.000Z</time>
      </trkpt>
      <trkpt lat="43.50118" lon="6.37319">
        <ele>289</ele>
        <time>2021-11-24T16:18:37.000Z</time>
      </trkpt>
      <trkpt lat="43.50117" lon="6.3732">
        <ele>289</ele>
        <time>2021-11-24T16:18:38.000Z</time>
      </trkpt>
      <trkpt lat="43.50116" lon="6.3732">
        <ele>289</ele>
        <time>2021-11-24T16:18:39.000Z</time>
      </trkpt>
      <trkpt lat="43.50115" lon="6.37321">
        <ele>289</ele>
        <time>2021-11-24T16:18:40.000Z</time>
      </trkpt>
      <trkpt lat="43.50114" lon="6.37321">
        <ele>289</ele>
        <time>2021-11-24T16:18:41.000Z</time>
      </trkpt>
      <trkpt lat="43.50114" lon="6.37321">
        <ele>289</ele>
        <time>2021-11-24T16:18:42.000Z</time>
      </trkpt>
      <trkpt lat="43.50113" lon="6.3732">
        <ele>289</ele>
        <time>2021-11-24T16:18:43.000Z</time>
      </trkpt>
      <trkpt lat="43.50112" lon="6.3732">
        <ele>289</ele>
        <time>2021-11-24T16:18:44.000Z</time>
      </trkpt>
      <trkpt lat="43.50111" lon="6.37319">
        <ele>289</ele>
        <time>2021-11-24T16:18:45.000Z</time>
      </trkpt>
      <trkpt lat="43.5011" lon="6.37319">
        <ele>289</ele>
        <time>2021-11-24T16:18:46.000Z</time>
      </trkpt>
      <trkpt lat="43.50109" lon="6.37319">
        <ele>289</ele>
        <time>2021-11-24T16:18:47.000Z</time>
      </trkpt>
      <trkpt lat="43.50108" lon="6.37318">
        <ele>289</ele>
        <time>2021-11-24T16:18:48.000Z</time>
      </trkpt>
      <trkpt lat="43.50107" lon="6.37318">
        <ele>289</ele>
        <time>2021-11-24T16:18:49.000Z</time>
      </trkpt>
      <trkpt lat="43.50106" lon="6.37319">
        <ele>290</ele>
        <time>2021-11-24T16:18:50.000Z</time>
      </trkpt>
      <trkpt lat="43.50106" lon="6.37318">
        <ele>290</ele>
        <time>2021-11-24T16:18:51.000Z</time>
      </trkpt>
      <trkpt lat="43.50105" lon="6.37318">
        <ele>290</ele>
        <time>2021-11-24T16:18:52.000Z</time>
      </trkpt>
      <trkpt lat="43.50104" lon="6.37318">
        <ele>290</ele>
        <time>2021-11-24T16:18:53.000Z</time>
      </trkpt>
      <trkpt lat="43.50104" lon="6.37318">
        <ele>290</ele>
        <time>2021-11-24T16:18:54.000Z</time>
      </trkpt>
      <trkpt lat="43.50103" lon="6.37318">
        <ele>290</ele>
        <time>2021-11-24T16:18:55.000Z</time>
      </trkpt>
      <trkpt lat="43.50103" lon="6.37318">
        <ele>290</ele>
        <time>2021-11-24T16:18:56.000Z</time>
      </trkpt>
      <trkpt lat="43.50102" lon="6.37318">
        <ele>290</ele>
        <time>2021-11-24T16:18:57.000Z</time>
      </trkpt>
      <trkpt lat="43.50101" lon="6.37318">
        <ele>290</ele>
        <time>2021-11-24T16:18:58.000Z</time>
      </trkpt>
      <trkpt lat="43.501" lon="6.37318">
        <ele>290</ele>
        <time>2021-11-24T16:18:59.000Z</time>
      </trkpt>
      <trkpt lat="43.501" lon="6.37318">
        <ele>290</ele>
        <time>2021-11-24T16:19:00.000Z</time>
      </trkpt>
      <trkpt lat="43.501" lon="6.37318">
        <ele>290</ele>
        <time>2021-11-24T16:19:01.000Z</time>
      </trkpt>
      <trkpt lat="43.50099" lon="6.37318">
        <ele>290</ele>
        <time>2021-11-24T16:19:02.000Z</time>
      </trkpt>
      <trkpt lat="43.50099" lon="6.37318">
        <ele>290</ele>
        <time>2021-11-24T16:19:03.000Z</time>
      </trkpt>
      <trkpt lat="43.50099" lon="6.37319">
        <ele>290</ele>
        <time>2021-11-24T16:19:04.000Z</time>
      </trkpt>
      <trkpt lat="43.50098" lon="6.37319">
        <ele>291</ele>
        <time>2021-11-24T16:19:05.000Z</time>
      </trkpt>
      <trkpt lat="43.50099" lon="6.37321">
        <ele>291</ele>
        <time>2021-11-24T16:19:06.000Z</time>
      </trkpt>
      <trkpt lat="43.50099" lon="6.37323">
        <ele>291</ele>
        <time>2021-11-24T16:19:07.000Z</time>
      </trkpt>
      <trkpt lat="43.50099" lon="6.37325">
        <ele>291</ele>
        <time>2021-11-24T16:19:08.000Z</time>
      </trkpt>
      <trkpt lat="43.50098" lon="6.37326">
        <ele>291</ele>
        <time>2021-11-24T16:19:09.000Z</time>
      </trkpt>
      <trkpt lat="43.50098" lon="6.37327">
        <ele>291</ele>
        <time>2021-11-24T16:19:10.000Z</time>
      </trkpt>
      <trkpt lat="43.50097" lon="6.37327">
        <ele>291</ele>
        <time>2021-11-24T16:19:11.000Z</time>
      </trkpt>
      <trkpt lat="43.50097" lon="6.37327">
        <ele>291</ele>
        <time>2021-11-24T16:19:12.000Z</time>
      </trkpt>
      <trkpt lat="43.50097" lon="6.37327">
        <ele>291</ele>
        <time>2021-11-24T16:19:13.000Z</time>
      </trkpt>
      <trkpt lat="43.50096" lon="6.37327">
        <ele>291</ele>
        <time>2021-11-24T16:19:14.000Z</time>
      </trkpt>
      <trkpt lat="43.50096" lon="6.37327">
        <ele>291</ele>
        <time>2021-11-24T16:19:15.000Z</time>
      </trkpt>
      <trkpt lat="43.50096" lon="6.37327">
        <ele>292</ele>
        <time>2021-11-24T16:19:16.000Z</time>
      </trkpt>
      <trkpt lat="43.50095" lon="6.37328">
        <ele>292</ele>
        <time>2021-11-24T16:19:17.000Z</time>
      </trkpt>
      <trkpt lat="43.50095" lon="6.37328">
        <ele>292</ele>
        <time>2021-11-24T16:19:18.000Z</time>
      </trkpt>
      <trkpt lat="43.50094" lon="6.37328">
        <ele>292</ele>
        <time>2021-11-24T16:19:19.000Z</time>
      </trkpt>
      <trkpt lat="43.50094" lon="6.37329">
        <ele>292</ele>
        <time>2021-11-24T16:19:20.000Z</time>
      </trkpt>
      <trkpt lat="43.50093" lon="6.37329">
        <ele>292</ele>
        <time>2021-11-24T16:19:21.000Z</time>
      </trkpt>
      <trkpt lat="43.50093" lon="6.37329">
        <ele>292</ele>
        <time>2021-11-24T16:19:22.000Z</time>
      </trkpt>
      <trkpt lat="43.50093" lon="6.37329">
        <ele>292</ele>
        <time>2021-11-24T16:19:23.000Z</time>
      </trkpt>
      <trkpt lat="43.50093" lon="6.3733">
        <ele>292</ele>
        <time>2021-11-24T16:19:24.000Z</time>
      </trkpt>
      <trkpt lat="43.50093" lon="6.3733">
        <ele>292</ele>
        <time>2021-11-24T16:19:25.000Z</time>
      </trkpt>
      <trkpt lat="43.50093" lon="6.3733">
        <ele>292</ele>
        <time>2021-11-24T16:19:26.000Z</time>
      </trkpt>
      <trkpt lat="43.50093" lon="6.3733">
        <ele>292</ele>
        <time>2021-11-24T16:19:27.000Z</time>
      </trkpt>
      <trkpt lat="43.50092" lon="6.3733">
        <ele>292</ele>
        <time>2021-11-24T16:19:28.000Z</time>
      </trkpt>
      <trkpt lat="43.50092" lon="6.37331">
        <ele>292</ele>
        <time>2021-11-24T16:19:29.000Z</time>
      </trkpt>
      <trkpt lat="43.50092" lon="6.37331">
        <ele>292</ele>
        <time>2021-11-24T16:19:30.000Z</time>
      </trkpt>
      <trkpt lat="43.50092" lon="6.37331">
        <ele>292</ele>
        <time>2021-11-24T16:19:31.000Z</time>
      </trkpt>
      <trkpt lat="43.50092" lon="6.37331">
        <ele>292</ele>
        <time>2021-11-24T16:19:32.000Z</time>
      </trkpt>
      <trkpt lat="43.50092" lon="6.37331">
        <ele>292</ele>
        <time>2021-11-24T16:19:33.000Z</time>
      </trkpt>
      <trkpt lat="43.50092" lon="6.37331">
        <ele>292</ele>
        <time>2021-11-24T16:19:34.000Z</time>
      </trkpt>
    </trkseg>
  </trk>
</gpx>